<?xml version="1.0" encoding="UTF-8"?>
<gpx version="1.1" creator="https://www.youtrack.es" xsi:schemaLocation="http://www.topografix.com/GPX/1/1 http://www.topografix.com/GPX/1/1/gpx.xsd http://www.garmin.com/xmlschemas/GpxExtensions/v3 http://www.garmin.com/xmlschemas/GpxExtensionsv3.xsd http://www.garmin.com/xmlschemas/TrackPointExtension/v1 http://www.garmin.com/xmlschemas/TrackPointExtensionv1.xsd" xmlns:gpxtpx="http://www.garmin.com/xmlschemas/TrackPointExtension/v1" xmlns:gpxx="http://www.garmin.com/xmlschemas/GpxExtensions/v3" xmlns:xsi="http://www.w3.org/2001/XMLSchema-instance">
  <metadata>
    <link href="https://www.youtrack.es">
      <text>YouTrack.es</text>
    </link>
    <time>2026-05-08T07:11:49Z</time>
  </metadata>
  <trk>
    <src>https://www.youtrack.es</src>
    <link href="https://www.youtrack.es/ruta/37280-ruta-banyeres-elche-2022">
      <text>YouTrack.es</text>
    </link>
    <trkseg>
      <trkpt lat="38.71602" lon="-0.64707">
        <ele>1014.8</ele>
        <time>2022-10-15 08:41:33</time>
      </trkpt>
      <trkpt lat="38.71602" lon="-0.64704">
        <ele>916.8</ele>
        <time>2022-10-15 08:41:35</time>
      </trkpt>
      <trkpt lat="38.71602" lon="-0.647">
        <ele>874.6</ele>
        <time>2022-10-15 08:41:36</time>
      </trkpt>
      <trkpt lat="38.71602" lon="-0.647">
        <ele>853</ele>
        <time>2022-10-15 08:41:37</time>
      </trkpt>
      <trkpt lat="38.716" lon="-0.64692">
        <ele>842</ele>
        <time>2022-10-15 08:41:38</time>
      </trkpt>
      <trkpt lat="38.716" lon="-0.64687">
        <ele>836.4</ele>
        <time>2022-10-15 08:41:39</time>
      </trkpt>
      <trkpt lat="38.71599" lon="-0.64683">
        <ele>833.6</ele>
        <time>2022-10-15 08:41:40</time>
      </trkpt>
      <trkpt lat="38.71599" lon="-0.64678">
        <ele>832</ele>
        <time>2022-10-15 08:41:41</time>
      </trkpt>
      <trkpt lat="38.71599" lon="-0.64674">
        <ele>831</ele>
        <time>2022-10-15 08:41:42</time>
      </trkpt>
      <trkpt lat="38.716" lon="-0.64669">
        <ele>830.8</ele>
        <time>2022-10-15 08:41:43</time>
      </trkpt>
      <trkpt lat="38.716" lon="-0.64664">
        <ele>830.4</ele>
        <time>2022-10-15 08:41:44</time>
      </trkpt>
      <trkpt lat="38.716" lon="-0.64658">
        <ele>830</ele>
        <time>2022-10-15 08:41:45</time>
      </trkpt>
      <trkpt lat="38.716" lon="-0.64658">
        <ele>829.8</ele>
        <time>2022-10-15 08:41:46</time>
      </trkpt>
      <trkpt lat="38.71601" lon="-0.64652">
        <ele>829.8</ele>
        <time>2022-10-15 08:41:47</time>
      </trkpt>
      <trkpt lat="38.71601" lon="-0.64648">
        <ele>829.8</ele>
        <time>2022-10-15 08:41:48</time>
      </trkpt>
      <trkpt lat="38.71602" lon="-0.64644">
        <ele>830</ele>
        <time>2022-10-15 08:41:49</time>
      </trkpt>
      <trkpt lat="38.71603" lon="-0.64639">
        <ele>830.2</ele>
        <time>2022-10-15 08:41:50</time>
      </trkpt>
      <trkpt lat="38.71605" lon="-0.64635">
        <ele>830.2</ele>
        <time>2022-10-15 08:41:51</time>
      </trkpt>
      <trkpt lat="38.71605" lon="-0.64632">
        <ele>830.2</ele>
        <time>2022-10-15 08:41:52</time>
      </trkpt>
      <trkpt lat="38.71605" lon="-0.64629">
        <ele>830</ele>
        <time>2022-10-15 08:41:53</time>
      </trkpt>
      <trkpt lat="38.71606" lon="-0.64624">
        <ele>830</ele>
        <time>2022-10-15 08:41:54</time>
      </trkpt>
      <trkpt lat="38.71606" lon="-0.64624">
        <ele>829.8</ele>
        <time>2022-10-15 08:41:55</time>
      </trkpt>
      <trkpt lat="38.71606" lon="-0.64622">
        <ele>829.8</ele>
        <time>2022-10-15 08:41:56</time>
      </trkpt>
      <trkpt lat="38.71605" lon="-0.64619">
        <ele>829.8</ele>
        <time>2022-10-15 08:41:57</time>
      </trkpt>
      <trkpt lat="38.71605" lon="-0.64619">
        <ele>829.8</ele>
        <time>2022-10-15 08:41:58</time>
      </trkpt>
      <trkpt lat="38.71605" lon="-0.64617">
        <ele>829.8</ele>
        <time>2022-10-15 08:41:59</time>
      </trkpt>
      <trkpt lat="38.71605" lon="-0.64617">
        <ele>829.8</ele>
        <time>2022-10-15 08:42:00</time>
      </trkpt>
      <trkpt lat="38.71621" lon="-0.64611">
        <ele>1013.8</ele>
        <time>2022-10-15 08:45:30</time>
      </trkpt>
      <trkpt lat="38.71622" lon="-0.64609">
        <ele>877.8</ele>
        <time>2022-10-15 08:45:31</time>
      </trkpt>
      <trkpt lat="38.71624" lon="-0.64608">
        <ele>854.8</ele>
        <time>2022-10-15 08:45:32</time>
      </trkpt>
      <trkpt lat="38.71626" lon="-0.64607">
        <ele>843</ele>
        <time>2022-10-15 08:45:33</time>
      </trkpt>
      <trkpt lat="38.71628" lon="-0.64607">
        <ele>837.2</ele>
        <time>2022-10-15 08:45:34</time>
      </trkpt>
      <trkpt lat="38.71629" lon="-0.64606">
        <ele>834.2</ele>
        <time>2022-10-15 08:45:35</time>
      </trkpt>
      <trkpt lat="38.71632" lon="-0.64605">
        <ele>832.8</ele>
        <time>2022-10-15 08:45:36</time>
      </trkpt>
      <trkpt lat="38.71634" lon="-0.64605">
        <ele>832.2</ele>
        <time>2022-10-15 08:45:37</time>
      </trkpt>
      <trkpt lat="38.71635" lon="-0.64604">
        <ele>831.8</ele>
        <time>2022-10-15 08:45:38</time>
      </trkpt>
      <trkpt lat="38.71636" lon="-0.64603">
        <ele>831.4</ele>
        <time>2022-10-15 08:45:39</time>
      </trkpt>
      <trkpt lat="38.71639" lon="-0.64602">
        <ele>831.6</ele>
        <time>2022-10-15 08:45:41</time>
      </trkpt>
      <trkpt lat="38.71641" lon="-0.64601">
        <ele>831.6</ele>
        <time>2022-10-15 08:45:42</time>
      </trkpt>
      <trkpt lat="38.71642" lon="-0.64601">
        <ele>831.6</ele>
        <time>2022-10-15 08:45:43</time>
      </trkpt>
      <trkpt lat="38.71644" lon="-0.646">
        <ele>831.6</ele>
        <time>2022-10-15 08:45:44</time>
      </trkpt>
      <trkpt lat="38.71646" lon="-0.64599">
        <ele>831.4</ele>
        <time>2022-10-15 08:45:45</time>
      </trkpt>
      <trkpt lat="38.71648" lon="-0.64599">
        <ele>831.4</ele>
        <time>2022-10-15 08:45:46</time>
      </trkpt>
      <trkpt lat="38.71649" lon="-0.64598">
        <ele>831.2</ele>
        <time>2022-10-15 08:45:47</time>
      </trkpt>
      <trkpt lat="38.71651" lon="-0.64597">
        <ele>831.2</ele>
        <time>2022-10-15 08:45:48</time>
      </trkpt>
      <trkpt lat="38.71654" lon="-0.64596">
        <ele>831.4</ele>
        <time>2022-10-15 08:45:49</time>
      </trkpt>
      <trkpt lat="38.71654" lon="-0.64596">
        <ele>831.4</ele>
        <time>2022-10-15 08:45:50</time>
      </trkpt>
      <trkpt lat="38.71658" lon="-0.64594">
        <ele>831.6</ele>
        <time>2022-10-15 08:45:51</time>
      </trkpt>
      <trkpt lat="38.7166" lon="-0.64593">
        <ele>831.6</ele>
        <time>2022-10-15 08:45:52</time>
      </trkpt>
      <trkpt lat="38.71662" lon="-0.64591">
        <ele>831.6</ele>
        <time>2022-10-15 08:45:53</time>
      </trkpt>
      <trkpt lat="38.71664" lon="-0.64591">
        <ele>831.8</ele>
        <time>2022-10-15 08:45:54</time>
      </trkpt>
      <trkpt lat="38.71666" lon="-0.6459">
        <ele>831.8</ele>
        <time>2022-10-15 08:45:55</time>
      </trkpt>
      <trkpt lat="38.71666" lon="-0.6459">
        <ele>832</ele>
        <time>2022-10-15 08:45:56</time>
      </trkpt>
      <trkpt lat="38.7167" lon="-0.64588">
        <ele>832</ele>
        <time>2022-10-15 08:45:57</time>
      </trkpt>
      <trkpt lat="38.71672" lon="-0.64587">
        <ele>832</ele>
        <time>2022-10-15 08:45:58</time>
      </trkpt>
      <trkpt lat="38.71674" lon="-0.64586">
        <ele>832.2</ele>
        <time>2022-10-15 08:45:59</time>
      </trkpt>
      <trkpt lat="38.71676" lon="-0.64585">
        <ele>832.2</ele>
        <time>2022-10-15 08:46:00</time>
      </trkpt>
      <trkpt lat="38.71676" lon="-0.64585">
        <ele>832.2</ele>
        <time>2022-10-15 08:46:01</time>
      </trkpt>
      <trkpt lat="38.71678" lon="-0.64584">
        <ele>832.2</ele>
        <time>2022-10-15 08:46:02</time>
      </trkpt>
      <trkpt lat="38.71683" lon="-0.64581">
        <ele>832.2</ele>
        <time>2022-10-15 08:46:03</time>
      </trkpt>
      <trkpt lat="38.71684" lon="-0.6458">
        <ele>832.4</ele>
        <time>2022-10-15 08:46:04</time>
      </trkpt>
      <trkpt lat="38.71687" lon="-0.64579">
        <ele>832.4</ele>
        <time>2022-10-15 08:46:05</time>
      </trkpt>
      <trkpt lat="38.71689" lon="-0.64578">
        <ele>832.6</ele>
        <time>2022-10-15 08:46:06</time>
      </trkpt>
      <trkpt lat="38.71691" lon="-0.64577">
        <ele>832.6</ele>
        <time>2022-10-15 08:46:07</time>
      </trkpt>
      <trkpt lat="38.71691" lon="-0.64577">
        <ele>832.8</ele>
        <time>2022-10-15 08:46:08</time>
      </trkpt>
      <trkpt lat="38.71695" lon="-0.64576">
        <ele>833</ele>
        <time>2022-10-15 08:46:09</time>
      </trkpt>
      <trkpt lat="38.71698" lon="-0.64574">
        <ele>833</ele>
        <time>2022-10-15 08:46:10</time>
      </trkpt>
      <trkpt lat="38.717" lon="-0.64573">
        <ele>833.2</ele>
        <time>2022-10-15 08:46:11</time>
      </trkpt>
      <trkpt lat="38.71702" lon="-0.64572">
        <ele>833.4</ele>
        <time>2022-10-15 08:46:12</time>
      </trkpt>
      <trkpt lat="38.71704" lon="-0.64571">
        <ele>833.6</ele>
        <time>2022-10-15 08:46:13</time>
      </trkpt>
      <trkpt lat="38.71704" lon="-0.64571">
        <ele>833.6</ele>
        <time>2022-10-15 08:46:14</time>
      </trkpt>
      <trkpt lat="38.71709" lon="-0.64568">
        <ele>833.8</ele>
        <time>2022-10-15 08:46:15</time>
      </trkpt>
      <trkpt lat="38.71711" lon="-0.64567">
        <ele>834</ele>
        <time>2022-10-15 08:46:16</time>
      </trkpt>
      <trkpt lat="38.71713" lon="-0.64566">
        <ele>834.2</ele>
        <time>2022-10-15 08:46:17</time>
      </trkpt>
      <trkpt lat="38.71717" lon="-0.64565">
        <ele>834.4</ele>
        <time>2022-10-15 08:46:19</time>
      </trkpt>
      <trkpt lat="38.71717" lon="-0.64565">
        <ele>834.4</ele>
        <time>2022-10-15 08:46:20</time>
      </trkpt>
      <trkpt lat="38.71722" lon="-0.64563">
        <ele>834.6</ele>
        <time>2022-10-15 08:46:21</time>
      </trkpt>
      <trkpt lat="38.71722" lon="-0.64563">
        <ele>834.6</ele>
        <time>2022-10-15 08:46:22</time>
      </trkpt>
      <trkpt lat="38.71726" lon="-0.64562">
        <ele>834.6</ele>
        <time>2022-10-15 08:46:23</time>
      </trkpt>
      <trkpt lat="38.71728" lon="-0.64561">
        <ele>834.8</ele>
        <time>2022-10-15 08:46:24</time>
      </trkpt>
      <trkpt lat="38.7173" lon="-0.6456">
        <ele>834.8</ele>
        <time>2022-10-15 08:46:25</time>
      </trkpt>
      <trkpt lat="38.7173" lon="-0.6456">
        <ele>835</ele>
        <time>2022-10-15 08:46:26</time>
      </trkpt>
      <trkpt lat="38.71733" lon="-0.64559">
        <ele>835.2</ele>
        <time>2022-10-15 08:46:27</time>
      </trkpt>
      <trkpt lat="38.71735" lon="-0.64559">
        <ele>835.2</ele>
        <time>2022-10-15 08:46:28</time>
      </trkpt>
      <trkpt lat="38.71737" lon="-0.64559">
        <ele>835.4</ele>
        <time>2022-10-15 08:46:29</time>
      </trkpt>
      <trkpt lat="38.71739" lon="-0.64558">
        <ele>835.4</ele>
        <time>2022-10-15 08:46:30</time>
      </trkpt>
      <trkpt lat="38.71741" lon="-0.64558">
        <ele>835.4</ele>
        <time>2022-10-15 08:46:31</time>
      </trkpt>
      <trkpt lat="38.71741" lon="-0.64558">
        <ele>835.4</ele>
        <time>2022-10-15 08:46:32</time>
      </trkpt>
      <trkpt lat="38.71745" lon="-0.64558">
        <ele>835.6</ele>
        <time>2022-10-15 08:46:33</time>
      </trkpt>
      <trkpt lat="38.71747" lon="-0.64557">
        <ele>835.6</ele>
        <time>2022-10-15 08:46:34</time>
      </trkpt>
      <trkpt lat="38.71749" lon="-0.64557">
        <ele>835.8</ele>
        <time>2022-10-15 08:46:35</time>
      </trkpt>
      <trkpt lat="38.71752" lon="-0.64556">
        <ele>835.8</ele>
        <time>2022-10-15 08:46:36</time>
      </trkpt>
      <trkpt lat="38.71754" lon="-0.64556">
        <ele>835.8</ele>
        <time>2022-10-15 08:46:37</time>
      </trkpt>
      <trkpt lat="38.71754" lon="-0.64556">
        <ele>835.8</ele>
        <time>2022-10-15 08:46:38</time>
      </trkpt>
      <trkpt lat="38.71758" lon="-0.64556">
        <ele>836</ele>
        <time>2022-10-15 08:46:39</time>
      </trkpt>
      <trkpt lat="38.71761" lon="-0.64557">
        <ele>836</ele>
        <time>2022-10-15 08:46:40</time>
      </trkpt>
      <trkpt lat="38.71763" lon="-0.64558">
        <ele>836</ele>
        <time>2022-10-15 08:46:41</time>
      </trkpt>
      <trkpt lat="38.71765" lon="-0.64559">
        <ele>836</ele>
        <time>2022-10-15 08:46:42</time>
      </trkpt>
      <trkpt lat="38.71765" lon="-0.64559">
        <ele>836</ele>
        <time>2022-10-15 08:46:43</time>
      </trkpt>
      <trkpt lat="38.71767" lon="-0.6456">
        <ele>836</ele>
        <time>2022-10-15 08:46:44</time>
      </trkpt>
      <trkpt lat="38.71772" lon="-0.64561">
        <ele>836</ele>
        <time>2022-10-15 08:46:45</time>
      </trkpt>
      <trkpt lat="38.71774" lon="-0.64562">
        <ele>836</ele>
        <time>2022-10-15 08:46:46</time>
      </trkpt>
      <trkpt lat="38.71776" lon="-0.64563">
        <ele>836</ele>
        <time>2022-10-15 08:46:47</time>
      </trkpt>
      <trkpt lat="38.71778" lon="-0.64564">
        <ele>836.2</ele>
        <time>2022-10-15 08:46:48</time>
      </trkpt>
      <trkpt lat="38.7178" lon="-0.64565">
        <ele>836.2</ele>
        <time>2022-10-15 08:46:49</time>
      </trkpt>
      <trkpt lat="38.7178" lon="-0.64565">
        <ele>836.2</ele>
        <time>2022-10-15 08:46:50</time>
      </trkpt>
      <trkpt lat="38.71785" lon="-0.64567">
        <ele>836.2</ele>
        <time>2022-10-15 08:46:51</time>
      </trkpt>
      <trkpt lat="38.71787" lon="-0.64568">
        <ele>836.4</ele>
        <time>2022-10-15 08:46:52</time>
      </trkpt>
      <trkpt lat="38.71789" lon="-0.64569">
        <ele>836.4</ele>
        <time>2022-10-15 08:46:53</time>
      </trkpt>
      <trkpt lat="38.71791" lon="-0.64571">
        <ele>836.6</ele>
        <time>2022-10-15 08:46:54</time>
      </trkpt>
      <trkpt lat="38.71793" lon="-0.64573">
        <ele>836.8</ele>
        <time>2022-10-15 08:46:55</time>
      </trkpt>
      <trkpt lat="38.71793" lon="-0.64573">
        <ele>836.8</ele>
        <time>2022-10-15 08:46:56</time>
      </trkpt>
      <trkpt lat="38.71797" lon="-0.64575">
        <ele>836.8</ele>
        <time>2022-10-15 08:46:57</time>
      </trkpt>
      <trkpt lat="38.718" lon="-0.64577">
        <ele>837</ele>
        <time>2022-10-15 08:46:58</time>
      </trkpt>
      <trkpt lat="38.71802" lon="-0.64578">
        <ele>837</ele>
        <time>2022-10-15 08:46:59</time>
      </trkpt>
      <trkpt lat="38.71804" lon="-0.64579">
        <ele>837.2</ele>
        <time>2022-10-15 08:47:00</time>
      </trkpt>
      <trkpt lat="38.71806" lon="-0.6458">
        <ele>837.2</ele>
        <time>2022-10-15 08:47:01</time>
      </trkpt>
      <trkpt lat="38.71806" lon="-0.6458">
        <ele>837.2</ele>
        <time>2022-10-15 08:47:02</time>
      </trkpt>
      <trkpt lat="38.7181" lon="-0.64583">
        <ele>837.2</ele>
        <time>2022-10-15 08:47:03</time>
      </trkpt>
      <trkpt lat="38.71812" lon="-0.64585">
        <ele>837.4</ele>
        <time>2022-10-15 08:47:04</time>
      </trkpt>
      <trkpt lat="38.71814" lon="-0.64587">
        <ele>837.4</ele>
        <time>2022-10-15 08:47:05</time>
      </trkpt>
      <trkpt lat="38.71816" lon="-0.64588">
        <ele>837.6</ele>
        <time>2022-10-15 08:47:06</time>
      </trkpt>
      <trkpt lat="38.71818" lon="-0.6459">
        <ele>837.6</ele>
        <time>2022-10-15 08:47:07</time>
      </trkpt>
      <trkpt lat="38.71818" lon="-0.6459">
        <ele>837.8</ele>
        <time>2022-10-15 08:47:08</time>
      </trkpt>
      <trkpt lat="38.71822" lon="-0.64592">
        <ele>838</ele>
        <time>2022-10-15 08:47:09</time>
      </trkpt>
      <trkpt lat="38.71824" lon="-0.64593">
        <ele>838</ele>
        <time>2022-10-15 08:47:10</time>
      </trkpt>
      <trkpt lat="38.71826" lon="-0.64594">
        <ele>838.2</ele>
        <time>2022-10-15 08:47:11</time>
      </trkpt>
      <trkpt lat="38.71828" lon="-0.64595">
        <ele>838.2</ele>
        <time>2022-10-15 08:47:12</time>
      </trkpt>
      <trkpt lat="38.7183" lon="-0.64597">
        <ele>838.4</ele>
        <time>2022-10-15 08:47:13</time>
      </trkpt>
      <trkpt lat="38.7183" lon="-0.64597">
        <ele>838.4</ele>
        <time>2022-10-15 08:47:14</time>
      </trkpt>
      <trkpt lat="38.71834" lon="-0.646">
        <ele>838.4</ele>
        <time>2022-10-15 08:47:15</time>
      </trkpt>
      <trkpt lat="38.71836" lon="-0.64601">
        <ele>838.6</ele>
        <time>2022-10-15 08:47:16</time>
      </trkpt>
      <trkpt lat="38.71839" lon="-0.64603">
        <ele>838.8</ele>
        <time>2022-10-15 08:47:17</time>
      </trkpt>
      <trkpt lat="38.71841" lon="-0.64604">
        <ele>838.8</ele>
        <time>2022-10-15 08:47:18</time>
      </trkpt>
      <trkpt lat="38.71843" lon="-0.64606">
        <ele>838.8</ele>
        <time>2022-10-15 08:47:19</time>
      </trkpt>
      <trkpt lat="38.71843" lon="-0.64606">
        <ele>839</ele>
        <time>2022-10-15 08:47:20</time>
      </trkpt>
      <trkpt lat="38.71847" lon="-0.64608">
        <ele>839.2</ele>
        <time>2022-10-15 08:47:21</time>
      </trkpt>
      <trkpt lat="38.71849" lon="-0.6461">
        <ele>839.4</ele>
        <time>2022-10-15 08:47:22</time>
      </trkpt>
      <trkpt lat="38.71851" lon="-0.64611">
        <ele>839.6</ele>
        <time>2022-10-15 08:47:23</time>
      </trkpt>
      <trkpt lat="38.71853" lon="-0.64612">
        <ele>839.6</ele>
        <time>2022-10-15 08:47:24</time>
      </trkpt>
      <trkpt lat="38.71855" lon="-0.64614">
        <ele>839.6</ele>
        <time>2022-10-15 08:47:25</time>
      </trkpt>
      <trkpt lat="38.71855" lon="-0.64614">
        <ele>839.6</ele>
        <time>2022-10-15 08:47:26</time>
      </trkpt>
      <trkpt lat="38.71859" lon="-0.64616">
        <ele>839.8</ele>
        <time>2022-10-15 08:47:27</time>
      </trkpt>
      <trkpt lat="38.71861" lon="-0.64618">
        <ele>839.8</ele>
        <time>2022-10-15 08:47:28</time>
      </trkpt>
      <trkpt lat="38.71863" lon="-0.64619">
        <ele>839.8</ele>
        <time>2022-10-15 08:47:29</time>
      </trkpt>
      <trkpt lat="38.71865" lon="-0.64621">
        <ele>840</ele>
        <time>2022-10-15 08:47:30</time>
      </trkpt>
      <trkpt lat="38.71865" lon="-0.64621">
        <ele>840</ele>
        <time>2022-10-15 08:47:31</time>
      </trkpt>
      <trkpt lat="38.71867" lon="-0.64622">
        <ele>840.4</ele>
        <time>2022-10-15 08:47:32</time>
      </trkpt>
      <trkpt lat="38.71869" lon="-0.64624">
        <ele>840.6</ele>
        <time>2022-10-15 08:47:33</time>
      </trkpt>
      <trkpt lat="38.71871" lon="-0.64625">
        <ele>840.6</ele>
        <time>2022-10-15 08:47:34</time>
      </trkpt>
      <trkpt lat="38.71873" lon="-0.64626">
        <ele>840.8</ele>
        <time>2022-10-15 08:47:35</time>
      </trkpt>
      <trkpt lat="38.71874" lon="-0.64628">
        <ele>840.8</ele>
        <time>2022-10-15 08:47:36</time>
      </trkpt>
      <trkpt lat="38.71876" lon="-0.64629">
        <ele>841</ele>
        <time>2022-10-15 08:47:37</time>
      </trkpt>
      <trkpt lat="38.71878" lon="-0.6463">
        <ele>841</ele>
        <time>2022-10-15 08:47:38</time>
      </trkpt>
      <trkpt lat="38.7188" lon="-0.64632">
        <ele>841</ele>
        <time>2022-10-15 08:47:39</time>
      </trkpt>
      <trkpt lat="38.71882" lon="-0.64633">
        <ele>841.2</ele>
        <time>2022-10-15 08:47:40</time>
      </trkpt>
      <trkpt lat="38.71885" lon="-0.64633">
        <ele>841.2</ele>
        <time>2022-10-15 08:47:41</time>
      </trkpt>
      <trkpt lat="38.71887" lon="-0.64634">
        <ele>841.4</ele>
        <time>2022-10-15 08:47:42</time>
      </trkpt>
      <trkpt lat="38.71889" lon="-0.64635">
        <ele>841.6</ele>
        <time>2022-10-15 08:47:43</time>
      </trkpt>
      <trkpt lat="38.71891" lon="-0.64635">
        <ele>841.8</ele>
        <time>2022-10-15 08:47:44</time>
      </trkpt>
      <trkpt lat="38.71893" lon="-0.64636">
        <ele>841.8</ele>
        <time>2022-10-15 08:47:45</time>
      </trkpt>
      <trkpt lat="38.71895" lon="-0.64637">
        <ele>842</ele>
        <time>2022-10-15 08:47:46</time>
      </trkpt>
      <trkpt lat="38.719" lon="-0.6464">
        <ele>842.2</ele>
        <time>2022-10-15 08:47:47</time>
      </trkpt>
      <trkpt lat="38.71903" lon="-0.64641">
        <ele>842.2</ele>
        <time>2022-10-15 08:47:48</time>
      </trkpt>
      <trkpt lat="38.71905" lon="-0.64643">
        <ele>842.4</ele>
        <time>2022-10-15 08:47:49</time>
      </trkpt>
      <trkpt lat="38.71905" lon="-0.64643">
        <ele>842.6</ele>
        <time>2022-10-15 08:47:50</time>
      </trkpt>
      <trkpt lat="38.7191" lon="-0.64645">
        <ele>842.8</ele>
        <time>2022-10-15 08:47:51</time>
      </trkpt>
      <trkpt lat="38.71912" lon="-0.64647">
        <ele>842.8</ele>
        <time>2022-10-15 08:47:52</time>
      </trkpt>
      <trkpt lat="38.71912" lon="-0.64647">
        <ele>842.8</ele>
        <time>2022-10-15 08:47:53</time>
      </trkpt>
      <trkpt lat="38.71917" lon="-0.64647">
        <ele>842.8</ele>
        <time>2022-10-15 08:47:54</time>
      </trkpt>
      <trkpt lat="38.71917" lon="-0.64647">
        <ele>843</ele>
        <time>2022-10-15 08:47:55</time>
      </trkpt>
      <trkpt lat="38.71919" lon="-0.64646">
        <ele>843</ele>
        <time>2022-10-15 08:47:56</time>
      </trkpt>
      <trkpt lat="38.71923" lon="-0.64642">
        <ele>843</ele>
        <time>2022-10-15 08:47:57</time>
      </trkpt>
      <trkpt lat="38.71925" lon="-0.64639">
        <ele>843</ele>
        <time>2022-10-15 08:47:58</time>
      </trkpt>
      <trkpt lat="38.71926" lon="-0.64636">
        <ele>843.2</ele>
        <time>2022-10-15 08:47:59</time>
      </trkpt>
      <trkpt lat="38.71928" lon="-0.64632">
        <ele>843.4</ele>
        <time>2022-10-15 08:48:00</time>
      </trkpt>
      <trkpt lat="38.71929" lon="-0.64628">
        <ele>843.4</ele>
        <time>2022-10-15 08:48:01</time>
      </trkpt>
      <trkpt lat="38.71929" lon="-0.64628">
        <ele>843.6</ele>
        <time>2022-10-15 08:48:02</time>
      </trkpt>
      <trkpt lat="38.71932" lon="-0.64621">
        <ele>843.6</ele>
        <time>2022-10-15 08:48:03</time>
      </trkpt>
      <trkpt lat="38.71933" lon="-0.64617">
        <ele>843.6</ele>
        <time>2022-10-15 08:48:04</time>
      </trkpt>
      <trkpt lat="38.71935" lon="-0.64614">
        <ele>843.6</ele>
        <time>2022-10-15 08:48:05</time>
      </trkpt>
      <trkpt lat="38.71937" lon="-0.6461">
        <ele>843.6</ele>
        <time>2022-10-15 08:48:06</time>
      </trkpt>
      <trkpt lat="38.71938" lon="-0.64606">
        <ele>843.8</ele>
        <time>2022-10-15 08:48:07</time>
      </trkpt>
      <trkpt lat="38.71938" lon="-0.64606">
        <ele>843.8</ele>
        <time>2022-10-15 08:48:08</time>
      </trkpt>
      <trkpt lat="38.71941" lon="-0.64598">
        <ele>843.8</ele>
        <time>2022-10-15 08:48:09</time>
      </trkpt>
      <trkpt lat="38.71942" lon="-0.64594">
        <ele>843.8</ele>
        <time>2022-10-15 08:48:10</time>
      </trkpt>
      <trkpt lat="38.71943" lon="-0.6459">
        <ele>844</ele>
        <time>2022-10-15 08:48:11</time>
      </trkpt>
      <trkpt lat="38.71945" lon="-0.64586">
        <ele>844</ele>
        <time>2022-10-15 08:48:12</time>
      </trkpt>
      <trkpt lat="38.71946" lon="-0.64582">
        <ele>844.2</ele>
        <time>2022-10-15 08:48:13</time>
      </trkpt>
      <trkpt lat="38.71946" lon="-0.64582">
        <ele>844</ele>
        <time>2022-10-15 08:48:14</time>
      </trkpt>
      <trkpt lat="38.71949" lon="-0.64574">
        <ele>844.2</ele>
        <time>2022-10-15 08:48:15</time>
      </trkpt>
      <trkpt lat="38.7195" lon="-0.6457">
        <ele>844.2</ele>
        <time>2022-10-15 08:48:16</time>
      </trkpt>
      <trkpt lat="38.71952" lon="-0.64566">
        <ele>844.4</ele>
        <time>2022-10-15 08:48:17</time>
      </trkpt>
      <trkpt lat="38.71953" lon="-0.64562">
        <ele>844.4</ele>
        <time>2022-10-15 08:48:18</time>
      </trkpt>
      <trkpt lat="38.71955" lon="-0.64558">
        <ele>844.6</ele>
        <time>2022-10-15 08:48:19</time>
      </trkpt>
      <trkpt lat="38.71955" lon="-0.64558">
        <ele>844.6</ele>
        <time>2022-10-15 08:48:20</time>
      </trkpt>
      <trkpt lat="38.71958" lon="-0.6455">
        <ele>844.6</ele>
        <time>2022-10-15 08:48:21</time>
      </trkpt>
      <trkpt lat="38.7196" lon="-0.64546">
        <ele>844.8</ele>
        <time>2022-10-15 08:48:22</time>
      </trkpt>
      <trkpt lat="38.71962" lon="-0.64541">
        <ele>844.8</ele>
        <time>2022-10-15 08:48:23</time>
      </trkpt>
      <trkpt lat="38.71963" lon="-0.64537">
        <ele>844.8</ele>
        <time>2022-10-15 08:48:24</time>
      </trkpt>
      <trkpt lat="38.71965" lon="-0.64533">
        <ele>844.8</ele>
        <time>2022-10-15 08:48:25</time>
      </trkpt>
      <trkpt lat="38.71965" lon="-0.64533">
        <ele>844.8</ele>
        <time>2022-10-15 08:48:26</time>
      </trkpt>
      <trkpt lat="38.71968" lon="-0.64525">
        <ele>844.8</ele>
        <time>2022-10-15 08:48:27</time>
      </trkpt>
      <trkpt lat="38.7197" lon="-0.6452">
        <ele>845</ele>
        <time>2022-10-15 08:48:28</time>
      </trkpt>
      <trkpt lat="38.71971" lon="-0.64516">
        <ele>845</ele>
        <time>2022-10-15 08:48:29</time>
      </trkpt>
      <trkpt lat="38.71973" lon="-0.64512">
        <ele>845</ele>
        <time>2022-10-15 08:48:30</time>
      </trkpt>
      <trkpt lat="38.71974" lon="-0.64507">
        <ele>845</ele>
        <time>2022-10-15 08:48:31</time>
      </trkpt>
      <trkpt lat="38.71974" lon="-0.64507">
        <ele>845</ele>
        <time>2022-10-15 08:48:32</time>
      </trkpt>
      <trkpt lat="38.71978" lon="-0.64499">
        <ele>845</ele>
        <time>2022-10-15 08:48:33</time>
      </trkpt>
      <trkpt lat="38.71978" lon="-0.64499">
        <ele>845.2</ele>
        <time>2022-10-15 08:48:34</time>
      </trkpt>
      <trkpt lat="38.71981" lon="-0.64491">
        <ele>845.2</ele>
        <time>2022-10-15 08:48:35</time>
      </trkpt>
      <trkpt lat="38.71982" lon="-0.64486">
        <ele>845.2</ele>
        <time>2022-10-15 08:48:36</time>
      </trkpt>
      <trkpt lat="38.71984" lon="-0.64482">
        <ele>845.4</ele>
        <time>2022-10-15 08:48:37</time>
      </trkpt>
      <trkpt lat="38.71984" lon="-0.64482">
        <ele>845.4</ele>
        <time>2022-10-15 08:48:38</time>
      </trkpt>
      <trkpt lat="38.71986" lon="-0.64472">
        <ele>845.4</ele>
        <time>2022-10-15 08:48:39</time>
      </trkpt>
      <trkpt lat="38.71987" lon="-0.64467">
        <ele>845.4</ele>
        <time>2022-10-15 08:48:40</time>
      </trkpt>
      <trkpt lat="38.71988" lon="-0.64463">
        <ele>845.4</ele>
        <time>2022-10-15 08:48:41</time>
      </trkpt>
      <trkpt lat="38.7199" lon="-0.64459">
        <ele>845.4</ele>
        <time>2022-10-15 08:48:42</time>
      </trkpt>
      <trkpt lat="38.71992" lon="-0.64455">
        <ele>845.4</ele>
        <time>2022-10-15 08:48:43</time>
      </trkpt>
      <trkpt lat="38.71992" lon="-0.64455">
        <ele>845.4</ele>
        <time>2022-10-15 08:48:44</time>
      </trkpt>
      <trkpt lat="38.71995" lon="-0.64447">
        <ele>845.4</ele>
        <time>2022-10-15 08:48:45</time>
      </trkpt>
      <trkpt lat="38.71996" lon="-0.64443">
        <ele>845.6</ele>
        <time>2022-10-15 08:48:46</time>
      </trkpt>
      <trkpt lat="38.71997" lon="-0.64439">
        <ele>845.6</ele>
        <time>2022-10-15 08:48:47</time>
      </trkpt>
      <trkpt lat="38.71999" lon="-0.64436">
        <ele>845.6</ele>
        <time>2022-10-15 08:48:48</time>
      </trkpt>
      <trkpt lat="38.72001" lon="-0.64432">
        <ele>845.6</ele>
        <time>2022-10-15 08:48:49</time>
      </trkpt>
      <trkpt lat="38.72001" lon="-0.64432">
        <ele>845.6</ele>
        <time>2022-10-15 08:48:50</time>
      </trkpt>
      <trkpt lat="38.72005" lon="-0.64426">
        <ele>845.6</ele>
        <time>2022-10-15 08:48:51</time>
      </trkpt>
      <trkpt lat="38.72007" lon="-0.64423">
        <ele>845.6</ele>
        <time>2022-10-15 08:48:52</time>
      </trkpt>
      <trkpt lat="38.72009" lon="-0.6442">
        <ele>845.8</ele>
        <time>2022-10-15 08:48:53</time>
      </trkpt>
      <trkpt lat="38.72012" lon="-0.64417">
        <ele>846</ele>
        <time>2022-10-15 08:48:54</time>
      </trkpt>
      <trkpt lat="38.72014" lon="-0.64414">
        <ele>846</ele>
        <time>2022-10-15 08:48:55</time>
      </trkpt>
      <trkpt lat="38.72014" lon="-0.64414">
        <ele>846.2</ele>
        <time>2022-10-15 08:48:56</time>
      </trkpt>
      <trkpt lat="38.72019" lon="-0.64407">
        <ele>846.2</ele>
        <time>2022-10-15 08:48:57</time>
      </trkpt>
      <trkpt lat="38.72021" lon="-0.64404">
        <ele>846.4</ele>
        <time>2022-10-15 08:48:58</time>
      </trkpt>
      <trkpt lat="38.72024" lon="-0.64401">
        <ele>846.6</ele>
        <time>2022-10-15 08:48:59</time>
      </trkpt>
      <trkpt lat="38.72026" lon="-0.64397">
        <ele>846.8</ele>
        <time>2022-10-15 08:49:00</time>
      </trkpt>
      <trkpt lat="38.72028" lon="-0.64394">
        <ele>847</ele>
        <time>2022-10-15 08:49:01</time>
      </trkpt>
      <trkpt lat="38.72028" lon="-0.64394">
        <ele>847</ele>
        <time>2022-10-15 08:49:02</time>
      </trkpt>
      <trkpt lat="38.72031" lon="-0.64387">
        <ele>847.2</ele>
        <time>2022-10-15 08:49:03</time>
      </trkpt>
      <trkpt lat="38.72032" lon="-0.64384">
        <ele>847.4</ele>
        <time>2022-10-15 08:49:04</time>
      </trkpt>
      <trkpt lat="38.72034" lon="-0.6438">
        <ele>847.4</ele>
        <time>2022-10-15 08:49:05</time>
      </trkpt>
      <trkpt lat="38.72034" lon="-0.6438">
        <ele>847.4</ele>
        <time>2022-10-15 08:49:06</time>
      </trkpt>
      <trkpt lat="38.72036" lon="-0.64373">
        <ele>847.4</ele>
        <time>2022-10-15 08:49:07</time>
      </trkpt>
      <trkpt lat="38.72036" lon="-0.64373">
        <ele>847.4</ele>
        <time>2022-10-15 08:49:08</time>
      </trkpt>
      <trkpt lat="38.72039" lon="-0.64365">
        <ele>847.6</ele>
        <time>2022-10-15 08:49:09</time>
      </trkpt>
      <trkpt lat="38.7204" lon="-0.64362">
        <ele>847.6</ele>
        <time>2022-10-15 08:49:10</time>
      </trkpt>
      <trkpt lat="38.7204" lon="-0.64362">
        <ele>847.6</ele>
        <time>2022-10-15 08:49:11</time>
      </trkpt>
      <trkpt lat="38.72044" lon="-0.64356">
        <ele>847.8</ele>
        <time>2022-10-15 08:49:12</time>
      </trkpt>
      <trkpt lat="38.72046" lon="-0.64353">
        <ele>847.8</ele>
        <time>2022-10-15 08:49:13</time>
      </trkpt>
      <trkpt lat="38.72046" lon="-0.64353">
        <ele>847.8</ele>
        <time>2022-10-15 08:49:14</time>
      </trkpt>
      <trkpt lat="38.7205" lon="-0.64348">
        <ele>847.8</ele>
        <time>2022-10-15 08:49:15</time>
      </trkpt>
      <trkpt lat="38.72053" lon="-0.64346">
        <ele>848</ele>
        <time>2022-10-15 08:49:16</time>
      </trkpt>
      <trkpt lat="38.72055" lon="-0.64343">
        <ele>848.2</ele>
        <time>2022-10-15 08:49:17</time>
      </trkpt>
      <trkpt lat="38.72058" lon="-0.64341">
        <ele>848.2</ele>
        <time>2022-10-15 08:49:18</time>
      </trkpt>
      <trkpt lat="38.7206" lon="-0.64338">
        <ele>848.4</ele>
        <time>2022-10-15 08:49:19</time>
      </trkpt>
      <trkpt lat="38.7206" lon="-0.64338">
        <ele>848.4</ele>
        <time>2022-10-15 08:49:20</time>
      </trkpt>
      <trkpt lat="38.72065" lon="-0.64334">
        <ele>848.4</ele>
        <time>2022-10-15 08:49:21</time>
      </trkpt>
      <trkpt lat="38.72067" lon="-0.64331">
        <ele>848.6</ele>
        <time>2022-10-15 08:49:22</time>
      </trkpt>
      <trkpt lat="38.7207" lon="-0.64329">
        <ele>848.6</ele>
        <time>2022-10-15 08:49:23</time>
      </trkpt>
      <trkpt lat="38.72072" lon="-0.64327">
        <ele>848.8</ele>
        <time>2022-10-15 08:49:24</time>
      </trkpt>
      <trkpt lat="38.72074" lon="-0.64324">
        <ele>848.8</ele>
        <time>2022-10-15 08:49:25</time>
      </trkpt>
      <trkpt lat="38.72074" lon="-0.64324">
        <ele>849</ele>
        <time>2022-10-15 08:49:26</time>
      </trkpt>
      <trkpt lat="38.72078" lon="-0.6432">
        <ele>849</ele>
        <time>2022-10-15 08:49:27</time>
      </trkpt>
      <trkpt lat="38.72078" lon="-0.6432">
        <ele>849</ele>
        <time>2022-10-15 08:49:28</time>
      </trkpt>
      <trkpt lat="38.72083" lon="-0.64315">
        <ele>849.2</ele>
        <time>2022-10-15 08:49:29</time>
      </trkpt>
      <trkpt lat="38.72085" lon="-0.64313">
        <ele>849.4</ele>
        <time>2022-10-15 08:49:30</time>
      </trkpt>
      <trkpt lat="38.72087" lon="-0.6431">
        <ele>849.4</ele>
        <time>2022-10-15 08:49:31</time>
      </trkpt>
      <trkpt lat="38.72087" lon="-0.6431">
        <ele>849.4</ele>
        <time>2022-10-15 08:49:32</time>
      </trkpt>
      <trkpt lat="38.72089" lon="-0.64307">
        <ele>849.6</ele>
        <time>2022-10-15 08:49:33</time>
      </trkpt>
      <trkpt lat="38.72092" lon="-0.64305">
        <ele>849.6</ele>
        <time>2022-10-15 08:49:34</time>
      </trkpt>
      <trkpt lat="38.72096" lon="-0.64299">
        <ele>849.6</ele>
        <time>2022-10-15 08:49:35</time>
      </trkpt>
      <trkpt lat="38.72098" lon="-0.64297">
        <ele>849.6</ele>
        <time>2022-10-15 08:49:36</time>
      </trkpt>
      <trkpt lat="38.721" lon="-0.64294">
        <ele>849.8</ele>
        <time>2022-10-15 08:49:37</time>
      </trkpt>
      <trkpt lat="38.721" lon="-0.64294">
        <ele>849.8</ele>
        <time>2022-10-15 08:49:38</time>
      </trkpt>
      <trkpt lat="38.72104" lon="-0.64289">
        <ele>850</ele>
        <time>2022-10-15 08:49:39</time>
      </trkpt>
      <trkpt lat="38.72104" lon="-0.64289">
        <ele>850</ele>
        <time>2022-10-15 08:49:40</time>
      </trkpt>
      <trkpt lat="38.72108" lon="-0.64284">
        <ele>850.2</ele>
        <time>2022-10-15 08:49:41</time>
      </trkpt>
      <trkpt lat="38.7211" lon="-0.64282">
        <ele>850.4</ele>
        <time>2022-10-15 08:49:42</time>
      </trkpt>
      <trkpt lat="38.72112" lon="-0.64279">
        <ele>850.4</ele>
        <time>2022-10-15 08:49:43</time>
      </trkpt>
      <trkpt lat="38.72112" lon="-0.64279">
        <ele>850.6</ele>
        <time>2022-10-15 08:49:44</time>
      </trkpt>
      <trkpt lat="38.72116" lon="-0.64272">
        <ele>850.6</ele>
        <time>2022-10-15 08:49:45</time>
      </trkpt>
      <trkpt lat="38.72118" lon="-0.64269">
        <ele>850.8</ele>
        <time>2022-10-15 08:49:46</time>
      </trkpt>
      <trkpt lat="38.7212" lon="-0.64265">
        <ele>850.8</ele>
        <time>2022-10-15 08:49:47</time>
      </trkpt>
      <trkpt lat="38.72122" lon="-0.64262">
        <ele>851</ele>
        <time>2022-10-15 08:49:48</time>
      </trkpt>
      <trkpt lat="38.72124" lon="-0.64257">
        <ele>851</ele>
        <time>2022-10-15 08:49:49</time>
      </trkpt>
      <trkpt lat="38.72124" lon="-0.64257">
        <ele>851.2</ele>
        <time>2022-10-15 08:49:50</time>
      </trkpt>
      <trkpt lat="38.72127" lon="-0.64249">
        <ele>851.2</ele>
        <time>2022-10-15 08:49:51</time>
      </trkpt>
      <trkpt lat="38.72129" lon="-0.64244">
        <ele>851.2</ele>
        <time>2022-10-15 08:49:52</time>
      </trkpt>
      <trkpt lat="38.72131" lon="-0.6424">
        <ele>851.2</ele>
        <time>2022-10-15 08:49:53</time>
      </trkpt>
      <trkpt lat="38.72132" lon="-0.64235">
        <ele>851.2</ele>
        <time>2022-10-15 08:49:54</time>
      </trkpt>
      <trkpt lat="38.72134" lon="-0.64231">
        <ele>851.2</ele>
        <time>2022-10-15 08:49:55</time>
      </trkpt>
      <trkpt lat="38.72134" lon="-0.64231">
        <ele>851.4</ele>
        <time>2022-10-15 08:49:56</time>
      </trkpt>
      <trkpt lat="38.72137" lon="-0.64222">
        <ele>851.4</ele>
        <time>2022-10-15 08:49:57</time>
      </trkpt>
      <trkpt lat="38.72139" lon="-0.64217">
        <ele>851.4</ele>
        <time>2022-10-15 08:49:58</time>
      </trkpt>
      <trkpt lat="38.7214" lon="-0.64213">
        <ele>851.4</ele>
        <time>2022-10-15 08:49:59</time>
      </trkpt>
      <trkpt lat="38.72142" lon="-0.64209">
        <ele>851.4</ele>
        <time>2022-10-15 08:50:00</time>
      </trkpt>
      <trkpt lat="38.72143" lon="-0.64204">
        <ele>851.4</ele>
        <time>2022-10-15 08:50:01</time>
      </trkpt>
      <trkpt lat="38.72143" lon="-0.64204">
        <ele>851.4</ele>
        <time>2022-10-15 08:50:02</time>
      </trkpt>
      <trkpt lat="38.72147" lon="-0.64196">
        <ele>851.4</ele>
        <time>2022-10-15 08:50:03</time>
      </trkpt>
      <trkpt lat="38.72149" lon="-0.64192">
        <ele>851.4</ele>
        <time>2022-10-15 08:50:04</time>
      </trkpt>
      <trkpt lat="38.72151" lon="-0.64187">
        <ele>851.4</ele>
        <time>2022-10-15 08:50:05</time>
      </trkpt>
      <trkpt lat="38.72154" lon="-0.64184">
        <ele>851.6</ele>
        <time>2022-10-15 08:50:06</time>
      </trkpt>
      <trkpt lat="38.72156" lon="-0.6418">
        <ele>851.8</ele>
        <time>2022-10-15 08:50:07</time>
      </trkpt>
      <trkpt lat="38.72156" lon="-0.6418">
        <ele>851.8</ele>
        <time>2022-10-15 08:50:08</time>
      </trkpt>
      <trkpt lat="38.7216" lon="-0.64171">
        <ele>851.8</ele>
        <time>2022-10-15 08:50:09</time>
      </trkpt>
      <trkpt lat="38.72162" lon="-0.64166">
        <ele>851.8</ele>
        <time>2022-10-15 08:50:10</time>
      </trkpt>
      <trkpt lat="38.72165" lon="-0.64162">
        <ele>851.8</ele>
        <time>2022-10-15 08:50:11</time>
      </trkpt>
      <trkpt lat="38.72167" lon="-0.64158">
        <ele>852</ele>
        <time>2022-10-15 08:50:12</time>
      </trkpt>
      <trkpt lat="38.72169" lon="-0.64153">
        <ele>852</ele>
        <time>2022-10-15 08:50:13</time>
      </trkpt>
      <trkpt lat="38.72169" lon="-0.64153">
        <ele>852</ele>
        <time>2022-10-15 08:50:14</time>
      </trkpt>
      <trkpt lat="38.72174" lon="-0.64144">
        <ele>852</ele>
        <time>2022-10-15 08:50:15</time>
      </trkpt>
      <trkpt lat="38.72178" lon="-0.64139">
        <ele>852</ele>
        <time>2022-10-15 08:50:16</time>
      </trkpt>
      <trkpt lat="38.72181" lon="-0.64134">
        <ele>852</ele>
        <time>2022-10-15 08:50:17</time>
      </trkpt>
      <trkpt lat="38.72184" lon="-0.64129">
        <ele>852</ele>
        <time>2022-10-15 08:50:18</time>
      </trkpt>
      <trkpt lat="38.72187" lon="-0.64124">
        <ele>851.8</ele>
        <time>2022-10-15 08:50:19</time>
      </trkpt>
      <trkpt lat="38.72187" lon="-0.64124">
        <ele>851.8</ele>
        <time>2022-10-15 08:50:20</time>
      </trkpt>
      <trkpt lat="38.72191" lon="-0.6412">
        <ele>851.8</ele>
        <time>2022-10-15 08:50:21</time>
      </trkpt>
      <trkpt lat="38.72198" lon="-0.6411">
        <ele>851.8</ele>
        <time>2022-10-15 08:50:22</time>
      </trkpt>
      <trkpt lat="38.72201" lon="-0.64106">
        <ele>851.8</ele>
        <time>2022-10-15 08:50:23</time>
      </trkpt>
      <trkpt lat="38.72204" lon="-0.641">
        <ele>851.6</ele>
        <time>2022-10-15 08:50:24</time>
      </trkpt>
      <trkpt lat="38.72207" lon="-0.64094">
        <ele>851.4</ele>
        <time>2022-10-15 08:50:25</time>
      </trkpt>
      <trkpt lat="38.72207" lon="-0.64094">
        <ele>851.4</ele>
        <time>2022-10-15 08:50:26</time>
      </trkpt>
      <trkpt lat="38.72211" lon="-0.64082">
        <ele>851.2</ele>
        <time>2022-10-15 08:50:27</time>
      </trkpt>
      <trkpt lat="38.72213" lon="-0.64075">
        <ele>851.2</ele>
        <time>2022-10-15 08:50:28</time>
      </trkpt>
      <trkpt lat="38.72214" lon="-0.64068">
        <ele>851</ele>
        <time>2022-10-15 08:50:29</time>
      </trkpt>
      <trkpt lat="38.72215" lon="-0.64062">
        <ele>851</ele>
        <time>2022-10-15 08:50:30</time>
      </trkpt>
      <trkpt lat="38.72216" lon="-0.64054">
        <ele>850.8</ele>
        <time>2022-10-15 08:50:31</time>
      </trkpt>
      <trkpt lat="38.72216" lon="-0.64054">
        <ele>850.4</ele>
        <time>2022-10-15 08:50:32</time>
      </trkpt>
      <trkpt lat="38.72216" lon="-0.6404">
        <ele>850.2</ele>
        <time>2022-10-15 08:50:33</time>
      </trkpt>
      <trkpt lat="38.72216" lon="-0.64033">
        <ele>850.2</ele>
        <time>2022-10-15 08:50:34</time>
      </trkpt>
      <trkpt lat="38.72216" lon="-0.64026">
        <ele>850</ele>
        <time>2022-10-15 08:50:35</time>
      </trkpt>
      <trkpt lat="38.72216" lon="-0.64019">
        <ele>849.8</ele>
        <time>2022-10-15 08:50:36</time>
      </trkpt>
      <trkpt lat="38.72216" lon="-0.64012">
        <ele>849.8</ele>
        <time>2022-10-15 08:50:37</time>
      </trkpt>
      <trkpt lat="38.72216" lon="-0.64012">
        <ele>849.6</ele>
        <time>2022-10-15 08:50:38</time>
      </trkpt>
      <trkpt lat="38.72216" lon="-0.63998">
        <ele>849.2</ele>
        <time>2022-10-15 08:50:39</time>
      </trkpt>
      <trkpt lat="38.72216" lon="-0.63991">
        <ele>849</ele>
        <time>2022-10-15 08:50:40</time>
      </trkpt>
      <trkpt lat="38.72217" lon="-0.63985">
        <ele>848.8</ele>
        <time>2022-10-15 08:50:41</time>
      </trkpt>
      <trkpt lat="38.72218" lon="-0.63978">
        <ele>848.8</ele>
        <time>2022-10-15 08:50:42</time>
      </trkpt>
      <trkpt lat="38.7222" lon="-0.63971">
        <ele>848.6</ele>
        <time>2022-10-15 08:50:43</time>
      </trkpt>
      <trkpt lat="38.7222" lon="-0.63971">
        <ele>848.6</ele>
        <time>2022-10-15 08:50:44</time>
      </trkpt>
      <trkpt lat="38.72223" lon="-0.63957">
        <ele>848.4</ele>
        <time>2022-10-15 08:50:45</time>
      </trkpt>
      <trkpt lat="38.72223" lon="-0.63957">
        <ele>848.2</ele>
        <time>2022-10-15 08:50:46</time>
      </trkpt>
      <trkpt lat="38.72224" lon="-0.63949">
        <ele>848.2</ele>
        <time>2022-10-15 08:50:47</time>
      </trkpt>
      <trkpt lat="38.72227" lon="-0.63942">
        <ele>848</ele>
        <time>2022-10-15 08:50:48</time>
      </trkpt>
      <trkpt lat="38.72231" lon="-0.63936">
        <ele>847.8</ele>
        <time>2022-10-15 08:50:49</time>
      </trkpt>
      <trkpt lat="38.72235" lon="-0.63929">
        <ele>847.8</ele>
        <time>2022-10-15 08:50:50</time>
      </trkpt>
      <trkpt lat="38.72239" lon="-0.63921">
        <ele>847.4</ele>
        <time>2022-10-15 08:50:51</time>
      </trkpt>
      <trkpt lat="38.72242" lon="-0.63913">
        <ele>847</ele>
        <time>2022-10-15 08:50:52</time>
      </trkpt>
      <trkpt lat="38.72244" lon="-0.63904">
        <ele>846.8</ele>
        <time>2022-10-15 08:50:53</time>
      </trkpt>
      <trkpt lat="38.72245" lon="-0.63895">
        <ele>846.6</ele>
        <time>2022-10-15 08:50:54</time>
      </trkpt>
      <trkpt lat="38.72244" lon="-0.63887">
        <ele>846.4</ele>
        <time>2022-10-15 08:50:55</time>
      </trkpt>
      <trkpt lat="38.72242" lon="-0.63879">
        <ele>846</ele>
        <time>2022-10-15 08:50:56</time>
      </trkpt>
      <trkpt lat="38.72242" lon="-0.63871">
        <ele>845.4</ele>
        <time>2022-10-15 08:50:57</time>
      </trkpt>
      <trkpt lat="38.72244" lon="-0.63865">
        <ele>844.6</ele>
        <time>2022-10-15 08:50:58</time>
      </trkpt>
      <trkpt lat="38.72247" lon="-0.63859">
        <ele>844.2</ele>
        <time>2022-10-15 08:50:59</time>
      </trkpt>
      <trkpt lat="38.72255" lon="-0.6385">
        <ele>843.2</ele>
        <time>2022-10-15 08:51:01</time>
      </trkpt>
      <trkpt lat="38.7226" lon="-0.63845">
        <ele>843</ele>
        <time>2022-10-15 08:51:02</time>
      </trkpt>
      <trkpt lat="38.72267" lon="-0.63834">
        <ele>842.4</ele>
        <time>2022-10-15 08:51:04</time>
      </trkpt>
      <trkpt lat="38.7227" lon="-0.63827">
        <ele>842.2</ele>
        <time>2022-10-15 08:51:05</time>
      </trkpt>
      <trkpt lat="38.72272" lon="-0.63813">
        <ele>841.4</ele>
        <time>2022-10-15 08:51:07</time>
      </trkpt>
      <trkpt lat="38.72272" lon="-0.63806">
        <ele>841.2</ele>
        <time>2022-10-15 08:51:08</time>
      </trkpt>
      <trkpt lat="38.72271" lon="-0.638">
        <ele>841</ele>
        <time>2022-10-15 08:51:09</time>
      </trkpt>
      <trkpt lat="38.72272" lon="-0.63785">
        <ele>841</ele>
        <time>2022-10-15 08:51:10</time>
      </trkpt>
      <trkpt lat="38.72272" lon="-0.63785">
        <ele>841</ele>
        <time>2022-10-15 08:51:11</time>
      </trkpt>
      <trkpt lat="38.72272" lon="-0.63778">
        <ele>841</ele>
        <time>2022-10-15 08:51:12</time>
      </trkpt>
      <trkpt lat="38.72271" lon="-0.63762">
        <ele>841</ele>
        <time>2022-10-15 08:51:13</time>
      </trkpt>
      <trkpt lat="38.72271" lon="-0.63762">
        <ele>841</ele>
        <time>2022-10-15 08:51:14</time>
      </trkpt>
      <trkpt lat="38.7227" lon="-0.63747">
        <ele>840.6</ele>
        <time>2022-10-15 08:51:16</time>
      </trkpt>
      <trkpt lat="38.72271" lon="-0.63739">
        <ele>840.6</ele>
        <time>2022-10-15 08:51:17</time>
      </trkpt>
      <trkpt lat="38.72273" lon="-0.63723">
        <ele>840.4</ele>
        <time>2022-10-15 08:51:19</time>
      </trkpt>
      <trkpt lat="38.72273" lon="-0.63714">
        <ele>840.4</ele>
        <time>2022-10-15 08:51:20</time>
      </trkpt>
      <trkpt lat="38.72275" lon="-0.63706">
        <ele>840</ele>
        <time>2022-10-15 08:51:21</time>
      </trkpt>
      <trkpt lat="38.72277" lon="-0.63699">
        <ele>839.8</ele>
        <time>2022-10-15 08:51:22</time>
      </trkpt>
      <trkpt lat="38.72281" lon="-0.63692">
        <ele>839.6</ele>
        <time>2022-10-15 08:51:23</time>
      </trkpt>
      <trkpt lat="38.72285" lon="-0.63686">
        <ele>839.4</ele>
        <time>2022-10-15 08:51:24</time>
      </trkpt>
      <trkpt lat="38.72289" lon="-0.63681">
        <ele>839</ele>
        <time>2022-10-15 08:51:25</time>
      </trkpt>
      <trkpt lat="38.72295" lon="-0.63677">
        <ele>838.8</ele>
        <time>2022-10-15 08:51:26</time>
      </trkpt>
      <trkpt lat="38.723" lon="-0.63674">
        <ele>838.6</ele>
        <time>2022-10-15 08:51:27</time>
      </trkpt>
      <trkpt lat="38.72306" lon="-0.6367">
        <ele>838.4</ele>
        <time>2022-10-15 08:51:28</time>
      </trkpt>
      <trkpt lat="38.72311" lon="-0.63666">
        <ele>838.2</ele>
        <time>2022-10-15 08:51:29</time>
      </trkpt>
      <trkpt lat="38.72321" lon="-0.63654">
        <ele>838</ele>
        <time>2022-10-15 08:51:30</time>
      </trkpt>
      <trkpt lat="38.72321" lon="-0.63654">
        <ele>837.8</ele>
        <time>2022-10-15 08:51:31</time>
      </trkpt>
      <trkpt lat="38.72326" lon="-0.63648">
        <ele>837.4</ele>
        <time>2022-10-15 08:51:32</time>
      </trkpt>
      <trkpt lat="38.72331" lon="-0.63643">
        <ele>837.4</ele>
        <time>2022-10-15 08:51:33</time>
      </trkpt>
      <trkpt lat="38.72337" lon="-0.63639">
        <ele>837.2</ele>
        <time>2022-10-15 08:51:34</time>
      </trkpt>
      <trkpt lat="38.72342" lon="-0.63636">
        <ele>837</ele>
        <time>2022-10-15 08:51:35</time>
      </trkpt>
      <trkpt lat="38.72348" lon="-0.63634">
        <ele>837</ele>
        <time>2022-10-15 08:51:36</time>
      </trkpt>
      <trkpt lat="38.72354" lon="-0.63632">
        <ele>836.8</ele>
        <time>2022-10-15 08:51:37</time>
      </trkpt>
      <trkpt lat="38.72359" lon="-0.63632">
        <ele>836.8</ele>
        <time>2022-10-15 08:51:38</time>
      </trkpt>
      <trkpt lat="38.72369" lon="-0.63632">
        <ele>836.8</ele>
        <time>2022-10-15 08:51:39</time>
      </trkpt>
      <trkpt lat="38.72374" lon="-0.63633">
        <ele>836.8</ele>
        <time>2022-10-15 08:51:40</time>
      </trkpt>
      <trkpt lat="38.72378" lon="-0.63632">
        <ele>836.8</ele>
        <time>2022-10-15 08:51:41</time>
      </trkpt>
      <trkpt lat="38.72383" lon="-0.63632">
        <ele>836.8</ele>
        <time>2022-10-15 08:51:42</time>
      </trkpt>
      <trkpt lat="38.72387" lon="-0.63631">
        <ele>836.8</ele>
        <time>2022-10-15 08:51:43</time>
      </trkpt>
      <trkpt lat="38.72387" lon="-0.63631">
        <ele>836.8</ele>
        <time>2022-10-15 08:51:44</time>
      </trkpt>
      <trkpt lat="38.72396" lon="-0.6363">
        <ele>836.8</ele>
        <time>2022-10-15 08:51:45</time>
      </trkpt>
      <trkpt lat="38.724" lon="-0.6363">
        <ele>837</ele>
        <time>2022-10-15 08:51:46</time>
      </trkpt>
      <trkpt lat="38.72405" lon="-0.63629">
        <ele>837.4</ele>
        <time>2022-10-15 08:51:47</time>
      </trkpt>
      <trkpt lat="38.72409" lon="-0.63629">
        <ele>837.6</ele>
        <time>2022-10-15 08:51:48</time>
      </trkpt>
      <trkpt lat="38.72413" lon="-0.63628">
        <ele>838</ele>
        <time>2022-10-15 08:51:49</time>
      </trkpt>
      <trkpt lat="38.72413" lon="-0.63628">
        <ele>838.2</ele>
        <time>2022-10-15 08:51:50</time>
      </trkpt>
      <trkpt lat="38.72418" lon="-0.63627">
        <ele>838.4</ele>
        <time>2022-10-15 08:51:51</time>
      </trkpt>
      <trkpt lat="38.72422" lon="-0.63625">
        <ele>838.4</ele>
        <time>2022-10-15 08:51:52</time>
      </trkpt>
      <trkpt lat="38.72428" lon="-0.63621">
        <ele>838.4</ele>
        <time>2022-10-15 08:51:53</time>
      </trkpt>
      <trkpt lat="38.72431" lon="-0.63619">
        <ele>838.4</ele>
        <time>2022-10-15 08:51:54</time>
      </trkpt>
      <trkpt lat="38.72434" lon="-0.63617">
        <ele>838.6</ele>
        <time>2022-10-15 08:51:55</time>
      </trkpt>
      <trkpt lat="38.72434" lon="-0.63617">
        <ele>838.6</ele>
        <time>2022-10-15 08:51:56</time>
      </trkpt>
      <trkpt lat="38.7244" lon="-0.63614">
        <ele>838.6</ele>
        <time>2022-10-15 08:51:57</time>
      </trkpt>
      <trkpt lat="38.7244" lon="-0.63614">
        <ele>838.6</ele>
        <time>2022-10-15 08:51:58</time>
      </trkpt>
      <trkpt lat="38.72445" lon="-0.63614">
        <ele>838.8</ele>
        <time>2022-10-15 08:51:59</time>
      </trkpt>
      <trkpt lat="38.72448" lon="-0.63615">
        <ele>839</ele>
        <time>2022-10-15 08:52:00</time>
      </trkpt>
      <trkpt lat="38.7245" lon="-0.63616">
        <ele>839.2</ele>
        <time>2022-10-15 08:52:01</time>
      </trkpt>
      <trkpt lat="38.7245" lon="-0.63616">
        <ele>839.4</ele>
        <time>2022-10-15 08:52:02</time>
      </trkpt>
      <trkpt lat="38.72454" lon="-0.63618">
        <ele>840</ele>
        <time>2022-10-15 08:52:03</time>
      </trkpt>
      <trkpt lat="38.72456" lon="-0.63619">
        <ele>840.2</ele>
        <time>2022-10-15 08:52:04</time>
      </trkpt>
      <trkpt lat="38.72458" lon="-0.6362">
        <ele>840.4</ele>
        <time>2022-10-15 08:52:05</time>
      </trkpt>
      <trkpt lat="38.7246" lon="-0.63621">
        <ele>840.6</ele>
        <time>2022-10-15 08:52:06</time>
      </trkpt>
      <trkpt lat="38.72462" lon="-0.63622">
        <ele>840.8</ele>
        <time>2022-10-15 08:52:07</time>
      </trkpt>
      <trkpt lat="38.72462" lon="-0.63622">
        <ele>840.8</ele>
        <time>2022-10-15 08:52:08</time>
      </trkpt>
      <trkpt lat="38.72465" lon="-0.63623">
        <ele>841</ele>
        <time>2022-10-15 08:52:09</time>
      </trkpt>
      <trkpt lat="38.72469" lon="-0.63624">
        <ele>841.2</ele>
        <time>2022-10-15 08:52:10</time>
      </trkpt>
      <trkpt lat="38.7247" lon="-0.63625">
        <ele>841.4</ele>
        <time>2022-10-15 08:52:11</time>
      </trkpt>
      <trkpt lat="38.72472" lon="-0.63627">
        <ele>841.8</ele>
        <time>2022-10-15 08:52:12</time>
      </trkpt>
      <trkpt lat="38.72474" lon="-0.63628">
        <ele>842</ele>
        <time>2022-10-15 08:52:13</time>
      </trkpt>
      <trkpt lat="38.72474" lon="-0.63628">
        <ele>842.2</ele>
        <time>2022-10-15 08:52:14</time>
      </trkpt>
      <trkpt lat="38.72477" lon="-0.63632">
        <ele>842.4</ele>
        <time>2022-10-15 08:52:15</time>
      </trkpt>
      <trkpt lat="38.72478" lon="-0.63634">
        <ele>842.4</ele>
        <time>2022-10-15 08:52:16</time>
      </trkpt>
      <trkpt lat="38.72479" lon="-0.63636">
        <ele>842.6</ele>
        <time>2022-10-15 08:52:17</time>
      </trkpt>
      <trkpt lat="38.7248" lon="-0.63639">
        <ele>842.8</ele>
        <time>2022-10-15 08:52:18</time>
      </trkpt>
      <trkpt lat="38.72481" lon="-0.63641">
        <ele>842.8</ele>
        <time>2022-10-15 08:52:19</time>
      </trkpt>
      <trkpt lat="38.72481" lon="-0.63641">
        <ele>843</ele>
        <time>2022-10-15 08:52:20</time>
      </trkpt>
      <trkpt lat="38.72482" lon="-0.63644">
        <ele>843.2</ele>
        <time>2022-10-15 08:52:21</time>
      </trkpt>
      <trkpt lat="38.72485" lon="-0.63648">
        <ele>843.4</ele>
        <time>2022-10-15 08:52:22</time>
      </trkpt>
      <trkpt lat="38.72487" lon="-0.6365">
        <ele>843.6</ele>
        <time>2022-10-15 08:52:23</time>
      </trkpt>
      <trkpt lat="38.72487" lon="-0.6365">
        <ele>844</ele>
        <time>2022-10-15 08:52:24</time>
      </trkpt>
      <trkpt lat="38.72491" lon="-0.63653">
        <ele>844.4</ele>
        <time>2022-10-15 08:52:25</time>
      </trkpt>
      <trkpt lat="38.72491" lon="-0.63653">
        <ele>844.8</ele>
        <time>2022-10-15 08:52:26</time>
      </trkpt>
      <trkpt lat="38.72495" lon="-0.63654">
        <ele>845</ele>
        <time>2022-10-15 08:52:27</time>
      </trkpt>
      <trkpt lat="38.72497" lon="-0.63655">
        <ele>845.2</ele>
        <time>2022-10-15 08:52:28</time>
      </trkpt>
      <trkpt lat="38.72499" lon="-0.63655">
        <ele>845.4</ele>
        <time>2022-10-15 08:52:29</time>
      </trkpt>
      <trkpt lat="38.72501" lon="-0.63656">
        <ele>845.6</ele>
        <time>2022-10-15 08:52:30</time>
      </trkpt>
      <trkpt lat="38.72503" lon="-0.63658">
        <ele>846</ele>
        <time>2022-10-15 08:52:31</time>
      </trkpt>
      <trkpt lat="38.72503" lon="-0.63658">
        <ele>846.2</ele>
        <time>2022-10-15 08:52:32</time>
      </trkpt>
      <trkpt lat="38.72507" lon="-0.63661">
        <ele>846.2</ele>
        <time>2022-10-15 08:52:33</time>
      </trkpt>
      <trkpt lat="38.72509" lon="-0.63663">
        <ele>846.4</ele>
        <time>2022-10-15 08:52:34</time>
      </trkpt>
      <trkpt lat="38.72511" lon="-0.63665">
        <ele>846.6</ele>
        <time>2022-10-15 08:52:35</time>
      </trkpt>
      <trkpt lat="38.72511" lon="-0.63665">
        <ele>846.8</ele>
        <time>2022-10-15 08:52:36</time>
      </trkpt>
      <trkpt lat="38.72516" lon="-0.63668">
        <ele>847</ele>
        <time>2022-10-15 08:52:37</time>
      </trkpt>
      <trkpt lat="38.72516" lon="-0.63668">
        <ele>847.2</ele>
        <time>2022-10-15 08:52:38</time>
      </trkpt>
      <trkpt lat="38.72522" lon="-0.6367">
        <ele>847.6</ele>
        <time>2022-10-15 08:52:39</time>
      </trkpt>
      <trkpt lat="38.72525" lon="-0.63671">
        <ele>847.8</ele>
        <time>2022-10-15 08:52:40</time>
      </trkpt>
      <trkpt lat="38.72528" lon="-0.63671">
        <ele>848</ele>
        <time>2022-10-15 08:52:41</time>
      </trkpt>
      <trkpt lat="38.72531" lon="-0.63671">
        <ele>848.2</ele>
        <time>2022-10-15 08:52:42</time>
      </trkpt>
      <trkpt lat="38.72531" lon="-0.63671">
        <ele>848.4</ele>
        <time>2022-10-15 08:52:43</time>
      </trkpt>
      <trkpt lat="38.72535" lon="-0.6367">
        <ele>848.6</ele>
        <time>2022-10-15 08:52:44</time>
      </trkpt>
      <trkpt lat="38.72541" lon="-0.63668">
        <ele>848.6</ele>
        <time>2022-10-15 08:52:45</time>
      </trkpt>
      <trkpt lat="38.72544" lon="-0.63666">
        <ele>848.8</ele>
        <time>2022-10-15 08:52:46</time>
      </trkpt>
      <trkpt lat="38.72548" lon="-0.63665">
        <ele>848.8</ele>
        <time>2022-10-15 08:52:47</time>
      </trkpt>
      <trkpt lat="38.72551" lon="-0.63663">
        <ele>848.8</ele>
        <time>2022-10-15 08:52:48</time>
      </trkpt>
      <trkpt lat="38.72555" lon="-0.6366">
        <ele>848.8</ele>
        <time>2022-10-15 08:52:49</time>
      </trkpt>
      <trkpt lat="38.72555" lon="-0.6366">
        <ele>848.8</ele>
        <time>2022-10-15 08:52:50</time>
      </trkpt>
      <trkpt lat="38.72561" lon="-0.63656">
        <ele>849</ele>
        <time>2022-10-15 08:52:51</time>
      </trkpt>
      <trkpt lat="38.72565" lon="-0.63654">
        <ele>849</ele>
        <time>2022-10-15 08:52:52</time>
      </trkpt>
      <trkpt lat="38.72568" lon="-0.63653">
        <ele>849</ele>
        <time>2022-10-15 08:52:53</time>
      </trkpt>
      <trkpt lat="38.72572" lon="-0.63651">
        <ele>849</ele>
        <time>2022-10-15 08:52:54</time>
      </trkpt>
      <trkpt lat="38.72572" lon="-0.63651">
        <ele>849</ele>
        <time>2022-10-15 08:52:55</time>
      </trkpt>
      <trkpt lat="38.72575" lon="-0.63651">
        <ele>849</ele>
        <time>2022-10-15 08:52:56</time>
      </trkpt>
      <trkpt lat="38.72581" lon="-0.6365">
        <ele>849</ele>
        <time>2022-10-15 08:52:57</time>
      </trkpt>
      <trkpt lat="38.72584" lon="-0.63649">
        <ele>849</ele>
        <time>2022-10-15 08:52:58</time>
      </trkpt>
      <trkpt lat="38.72588" lon="-0.63649">
        <ele>849.2</ele>
        <time>2022-10-15 08:52:59</time>
      </trkpt>
      <trkpt lat="38.72591" lon="-0.63648">
        <ele>849.2</ele>
        <time>2022-10-15 08:53:00</time>
      </trkpt>
      <trkpt lat="38.72595" lon="-0.63648">
        <ele>849.2</ele>
        <time>2022-10-15 08:53:01</time>
      </trkpt>
      <trkpt lat="38.72595" lon="-0.63648">
        <ele>849</ele>
        <time>2022-10-15 08:53:02</time>
      </trkpt>
      <trkpt lat="38.72603" lon="-0.63646">
        <ele>849.2</ele>
        <time>2022-10-15 08:53:03</time>
      </trkpt>
      <trkpt lat="38.72608" lon="-0.63645">
        <ele>849.2</ele>
        <time>2022-10-15 08:53:04</time>
      </trkpt>
      <trkpt lat="38.72612" lon="-0.63645">
        <ele>849.2</ele>
        <time>2022-10-15 08:53:05</time>
      </trkpt>
      <trkpt lat="38.72616" lon="-0.63644">
        <ele>849.2</ele>
        <time>2022-10-15 08:53:06</time>
      </trkpt>
      <trkpt lat="38.7262" lon="-0.63643">
        <ele>849</ele>
        <time>2022-10-15 08:53:07</time>
      </trkpt>
      <trkpt lat="38.7262" lon="-0.63643">
        <ele>849</ele>
        <time>2022-10-15 08:53:08</time>
      </trkpt>
      <trkpt lat="38.72627" lon="-0.63641">
        <ele>849</ele>
        <time>2022-10-15 08:53:09</time>
      </trkpt>
      <trkpt lat="38.7263" lon="-0.63639">
        <ele>849</ele>
        <time>2022-10-15 08:53:10</time>
      </trkpt>
      <trkpt lat="38.72633" lon="-0.63637">
        <ele>849</ele>
        <time>2022-10-15 08:53:11</time>
      </trkpt>
      <trkpt lat="38.72636" lon="-0.63635">
        <ele>849</ele>
        <time>2022-10-15 08:53:12</time>
      </trkpt>
      <trkpt lat="38.72639" lon="-0.63633">
        <ele>849</ele>
        <time>2022-10-15 08:53:13</time>
      </trkpt>
      <trkpt lat="38.72639" lon="-0.63633">
        <ele>849</ele>
        <time>2022-10-15 08:53:14</time>
      </trkpt>
      <trkpt lat="38.72645" lon="-0.63628">
        <ele>849</ele>
        <time>2022-10-15 08:53:15</time>
      </trkpt>
      <trkpt lat="38.72648" lon="-0.63625">
        <ele>849</ele>
        <time>2022-10-15 08:53:16</time>
      </trkpt>
      <trkpt lat="38.7265" lon="-0.63622">
        <ele>849</ele>
        <time>2022-10-15 08:53:17</time>
      </trkpt>
      <trkpt lat="38.72652" lon="-0.63619">
        <ele>849</ele>
        <time>2022-10-15 08:53:18</time>
      </trkpt>
      <trkpt lat="38.72654" lon="-0.63615">
        <ele>849</ele>
        <time>2022-10-15 08:53:19</time>
      </trkpt>
      <trkpt lat="38.72654" lon="-0.63615">
        <ele>849</ele>
        <time>2022-10-15 08:53:20</time>
      </trkpt>
      <trkpt lat="38.72657" lon="-0.63608">
        <ele>849</ele>
        <time>2022-10-15 08:53:21</time>
      </trkpt>
      <trkpt lat="38.72659" lon="-0.63605">
        <ele>849</ele>
        <time>2022-10-15 08:53:22</time>
      </trkpt>
      <trkpt lat="38.72661" lon="-0.63601">
        <ele>849</ele>
        <time>2022-10-15 08:53:23</time>
      </trkpt>
      <trkpt lat="38.72663" lon="-0.63598">
        <ele>849.2</ele>
        <time>2022-10-15 08:53:24</time>
      </trkpt>
      <trkpt lat="38.72664" lon="-0.63594">
        <ele>849.4</ele>
        <time>2022-10-15 08:53:25</time>
      </trkpt>
      <trkpt lat="38.72664" lon="-0.63594">
        <ele>849.6</ele>
        <time>2022-10-15 08:53:26</time>
      </trkpt>
      <trkpt lat="38.72666" lon="-0.63591">
        <ele>850</ele>
        <time>2022-10-15 08:53:27</time>
      </trkpt>
      <trkpt lat="38.72667" lon="-0.63587">
        <ele>850.2</ele>
        <time>2022-10-15 08:53:28</time>
      </trkpt>
      <trkpt lat="38.7267" lon="-0.63579">
        <ele>850.4</ele>
        <time>2022-10-15 08:53:29</time>
      </trkpt>
      <trkpt lat="38.72672" lon="-0.63575">
        <ele>850.6</ele>
        <time>2022-10-15 08:53:30</time>
      </trkpt>
      <trkpt lat="38.72674" lon="-0.63571">
        <ele>850.8</ele>
        <time>2022-10-15 08:53:31</time>
      </trkpt>
      <trkpt lat="38.72674" lon="-0.63571">
        <ele>851</ele>
        <time>2022-10-15 08:53:32</time>
      </trkpt>
      <trkpt lat="38.72676" lon="-0.63562">
        <ele>851.2</ele>
        <time>2022-10-15 08:53:33</time>
      </trkpt>
      <trkpt lat="38.72678" lon="-0.63557">
        <ele>851.4</ele>
        <time>2022-10-15 08:53:34</time>
      </trkpt>
      <trkpt lat="38.72679" lon="-0.63552">
        <ele>851.6</ele>
        <time>2022-10-15 08:53:35</time>
      </trkpt>
      <trkpt lat="38.72681" lon="-0.63547">
        <ele>852</ele>
        <time>2022-10-15 08:53:36</time>
      </trkpt>
      <trkpt lat="38.72682" lon="-0.63542">
        <ele>852</ele>
        <time>2022-10-15 08:53:37</time>
      </trkpt>
      <trkpt lat="38.72682" lon="-0.63542">
        <ele>852.2</ele>
        <time>2022-10-15 08:53:38</time>
      </trkpt>
      <trkpt lat="38.72684" lon="-0.63533">
        <ele>852.2</ele>
        <time>2022-10-15 08:53:39</time>
      </trkpt>
      <trkpt lat="38.72686" lon="-0.63529">
        <ele>852.2</ele>
        <time>2022-10-15 08:53:40</time>
      </trkpt>
      <trkpt lat="38.72687" lon="-0.63525">
        <ele>852.2</ele>
        <time>2022-10-15 08:53:41</time>
      </trkpt>
      <trkpt lat="38.72688" lon="-0.6352">
        <ele>852.2</ele>
        <time>2022-10-15 08:53:42</time>
      </trkpt>
      <trkpt lat="38.72689" lon="-0.63516">
        <ele>852.4</ele>
        <time>2022-10-15 08:53:43</time>
      </trkpt>
      <trkpt lat="38.72689" lon="-0.63516">
        <ele>852.4</ele>
        <time>2022-10-15 08:53:44</time>
      </trkpt>
      <trkpt lat="38.7269" lon="-0.63507">
        <ele>852.4</ele>
        <time>2022-10-15 08:53:45</time>
      </trkpt>
      <trkpt lat="38.7269" lon="-0.63502">
        <ele>852.4</ele>
        <time>2022-10-15 08:53:46</time>
      </trkpt>
      <trkpt lat="38.72691" lon="-0.63498">
        <ele>852.6</ele>
        <time>2022-10-15 08:53:47</time>
      </trkpt>
      <trkpt lat="38.72691" lon="-0.63494">
        <ele>852.6</ele>
        <time>2022-10-15 08:53:48</time>
      </trkpt>
      <trkpt lat="38.72691" lon="-0.6349">
        <ele>852.6</ele>
        <time>2022-10-15 08:53:49</time>
      </trkpt>
      <trkpt lat="38.72691" lon="-0.6349">
        <ele>852.6</ele>
        <time>2022-10-15 08:53:50</time>
      </trkpt>
      <trkpt lat="38.72693" lon="-0.63483">
        <ele>852.6</ele>
        <time>2022-10-15 08:53:51</time>
      </trkpt>
      <trkpt lat="38.72694" lon="-0.63479">
        <ele>852.6</ele>
        <time>2022-10-15 08:53:52</time>
      </trkpt>
      <trkpt lat="38.72695" lon="-0.63477">
        <ele>852.6</ele>
        <time>2022-10-15 08:53:53</time>
      </trkpt>
      <trkpt lat="38.72696" lon="-0.63474">
        <ele>852.6</ele>
        <time>2022-10-15 08:53:54</time>
      </trkpt>
      <trkpt lat="38.72697" lon="-0.63471">
        <ele>852.8</ele>
        <time>2022-10-15 08:53:55</time>
      </trkpt>
      <trkpt lat="38.72697" lon="-0.63471">
        <ele>852.8</ele>
        <time>2022-10-15 08:53:56</time>
      </trkpt>
      <trkpt lat="38.72699" lon="-0.63467">
        <ele>853</ele>
        <time>2022-10-15 08:53:57</time>
      </trkpt>
      <trkpt lat="38.727" lon="-0.63465">
        <ele>853.2</ele>
        <time>2022-10-15 08:53:58</time>
      </trkpt>
      <trkpt lat="38.72701" lon="-0.63463">
        <ele>853.4</ele>
        <time>2022-10-15 08:53:59</time>
      </trkpt>
      <trkpt lat="38.72702" lon="-0.63461">
        <ele>853.6</ele>
        <time>2022-10-15 08:54:00</time>
      </trkpt>
      <trkpt lat="38.72704" lon="-0.63458">
        <ele>854.2</ele>
        <time>2022-10-15 08:54:01</time>
      </trkpt>
      <trkpt lat="38.72704" lon="-0.63458">
        <ele>854.6</ele>
        <time>2022-10-15 08:54:02</time>
      </trkpt>
      <trkpt lat="38.72706" lon="-0.63454">
        <ele>855</ele>
        <time>2022-10-15 08:54:03</time>
      </trkpt>
      <trkpt lat="38.72708" lon="-0.63452">
        <ele>855.4</ele>
        <time>2022-10-15 08:54:04</time>
      </trkpt>
      <trkpt lat="38.72709" lon="-0.63449">
        <ele>855.6</ele>
        <time>2022-10-15 08:54:05</time>
      </trkpt>
      <trkpt lat="38.72709" lon="-0.63446">
        <ele>855.8</ele>
        <time>2022-10-15 08:54:06</time>
      </trkpt>
      <trkpt lat="38.7271" lon="-0.63443">
        <ele>856</ele>
        <time>2022-10-15 08:54:07</time>
      </trkpt>
      <trkpt lat="38.7271" lon="-0.63443">
        <ele>856.2</ele>
        <time>2022-10-15 08:54:08</time>
      </trkpt>
      <trkpt lat="38.72711" lon="-0.63436">
        <ele>856.4</ele>
        <time>2022-10-15 08:54:09</time>
      </trkpt>
      <trkpt lat="38.72712" lon="-0.63433">
        <ele>856.6</ele>
        <time>2022-10-15 08:54:10</time>
      </trkpt>
      <trkpt lat="38.72713" lon="-0.63428">
        <ele>856.8</ele>
        <time>2022-10-15 08:54:11</time>
      </trkpt>
      <trkpt lat="38.72713" lon="-0.63428">
        <ele>857</ele>
        <time>2022-10-15 08:54:12</time>
      </trkpt>
      <trkpt lat="38.72715" lon="-0.6342">
        <ele>857.2</ele>
        <time>2022-10-15 08:54:13</time>
      </trkpt>
      <trkpt lat="38.72715" lon="-0.6342">
        <ele>857.4</ele>
        <time>2022-10-15 08:54:14</time>
      </trkpt>
      <trkpt lat="38.72719" lon="-0.63411">
        <ele>857.4</ele>
        <time>2022-10-15 08:54:15</time>
      </trkpt>
      <trkpt lat="38.72721" lon="-0.63406">
        <ele>857.6</ele>
        <time>2022-10-15 08:54:16</time>
      </trkpt>
      <trkpt lat="38.72723" lon="-0.63401">
        <ele>857.6</ele>
        <time>2022-10-15 08:54:17</time>
      </trkpt>
      <trkpt lat="38.72726" lon="-0.63396">
        <ele>857.6</ele>
        <time>2022-10-15 08:54:18</time>
      </trkpt>
      <trkpt lat="38.72729" lon="-0.6339">
        <ele>857.6</ele>
        <time>2022-10-15 08:54:19</time>
      </trkpt>
      <trkpt lat="38.72729" lon="-0.6339">
        <ele>857.8</ele>
        <time>2022-10-15 08:54:20</time>
      </trkpt>
      <trkpt lat="38.72732" lon="-0.63385">
        <ele>857.8</ele>
        <time>2022-10-15 08:54:21</time>
      </trkpt>
      <trkpt lat="38.72739" lon="-0.63375">
        <ele>857.8</ele>
        <time>2022-10-15 08:54:22</time>
      </trkpt>
      <trkpt lat="38.72742" lon="-0.63371">
        <ele>857.8</ele>
        <time>2022-10-15 08:54:23</time>
      </trkpt>
      <trkpt lat="38.72746" lon="-0.63366">
        <ele>857.8</ele>
        <time>2022-10-15 08:54:24</time>
      </trkpt>
      <trkpt lat="38.7275" lon="-0.63362">
        <ele>857.6</ele>
        <time>2022-10-15 08:54:25</time>
      </trkpt>
      <trkpt lat="38.7275" lon="-0.63362">
        <ele>857.6</ele>
        <time>2022-10-15 08:54:26</time>
      </trkpt>
      <trkpt lat="38.72758" lon="-0.63353">
        <ele>857.6</ele>
        <time>2022-10-15 08:54:27</time>
      </trkpt>
      <trkpt lat="38.72763" lon="-0.63349">
        <ele>857.6</ele>
        <time>2022-10-15 08:54:28</time>
      </trkpt>
      <trkpt lat="38.72767" lon="-0.63345">
        <ele>857.6</ele>
        <time>2022-10-15 08:54:29</time>
      </trkpt>
      <trkpt lat="38.72767" lon="-0.63345">
        <ele>857.6</ele>
        <time>2022-10-15 08:54:30</time>
      </trkpt>
      <trkpt lat="38.72776" lon="-0.63338">
        <ele>857.6</ele>
        <time>2022-10-15 08:54:31</time>
      </trkpt>
      <trkpt lat="38.72776" lon="-0.63338">
        <ele>857.6</ele>
        <time>2022-10-15 08:54:32</time>
      </trkpt>
      <trkpt lat="38.72784" lon="-0.63332">
        <ele>857.4</ele>
        <time>2022-10-15 08:54:33</time>
      </trkpt>
      <trkpt lat="38.72784" lon="-0.63332">
        <ele>857.4</ele>
        <time>2022-10-15 08:54:34</time>
      </trkpt>
      <trkpt lat="38.72791" lon="-0.63325">
        <ele>857.2</ele>
        <time>2022-10-15 08:54:35</time>
      </trkpt>
      <trkpt lat="38.72795" lon="-0.63322">
        <ele>857.2</ele>
        <time>2022-10-15 08:54:36</time>
      </trkpt>
      <trkpt lat="38.72799" lon="-0.63318">
        <ele>857.2</ele>
        <time>2022-10-15 08:54:37</time>
      </trkpt>
      <trkpt lat="38.72799" lon="-0.63318">
        <ele>857.2</ele>
        <time>2022-10-15 08:54:38</time>
      </trkpt>
      <trkpt lat="38.72806" lon="-0.63311">
        <ele>857.2</ele>
        <time>2022-10-15 08:54:39</time>
      </trkpt>
      <trkpt lat="38.7281" lon="-0.63307">
        <ele>857.2</ele>
        <time>2022-10-15 08:54:40</time>
      </trkpt>
      <trkpt lat="38.72814" lon="-0.63304">
        <ele>857.2</ele>
        <time>2022-10-15 08:54:41</time>
      </trkpt>
      <trkpt lat="38.72817" lon="-0.633">
        <ele>856.8</ele>
        <time>2022-10-15 08:54:42</time>
      </trkpt>
      <trkpt lat="38.72821" lon="-0.63297">
        <ele>856.8</ele>
        <time>2022-10-15 08:54:43</time>
      </trkpt>
      <trkpt lat="38.72821" lon="-0.63297">
        <ele>856.8</ele>
        <time>2022-10-15 08:54:44</time>
      </trkpt>
      <trkpt lat="38.72825" lon="-0.63292">
        <ele>856.8</ele>
        <time>2022-10-15 08:54:45</time>
      </trkpt>
      <trkpt lat="38.7283" lon="-0.63283">
        <ele>856.8</ele>
        <time>2022-10-15 08:54:46</time>
      </trkpt>
      <trkpt lat="38.72832" lon="-0.63277">
        <ele>856.8</ele>
        <time>2022-10-15 08:54:47</time>
      </trkpt>
      <trkpt lat="38.72835" lon="-0.63273">
        <ele>857.2</ele>
        <time>2022-10-15 08:54:48</time>
      </trkpt>
      <trkpt lat="38.72837" lon="-0.63268">
        <ele>857.2</ele>
        <time>2022-10-15 08:54:49</time>
      </trkpt>
      <trkpt lat="38.72837" lon="-0.63268">
        <ele>857.2</ele>
        <time>2022-10-15 08:54:50</time>
      </trkpt>
      <trkpt lat="38.7284" lon="-0.63263">
        <ele>857.2</ele>
        <time>2022-10-15 08:54:51</time>
      </trkpt>
      <trkpt lat="38.72843" lon="-0.63259">
        <ele>857.2</ele>
        <time>2022-10-15 08:54:52</time>
      </trkpt>
      <trkpt lat="38.72849" lon="-0.6325">
        <ele>857.2</ele>
        <time>2022-10-15 08:54:53</time>
      </trkpt>
      <trkpt lat="38.72853" lon="-0.63246">
        <ele>857.2</ele>
        <time>2022-10-15 08:54:54</time>
      </trkpt>
      <trkpt lat="38.72857" lon="-0.63243">
        <ele>857.2</ele>
        <time>2022-10-15 08:54:55</time>
      </trkpt>
      <trkpt lat="38.72857" lon="-0.63243">
        <ele>857.2</ele>
        <time>2022-10-15 08:54:56</time>
      </trkpt>
      <trkpt lat="38.72866" lon="-0.63238">
        <ele>857.2</ele>
        <time>2022-10-15 08:54:57</time>
      </trkpt>
      <trkpt lat="38.72866" lon="-0.63238">
        <ele>857.2</ele>
        <time>2022-10-15 08:54:58</time>
      </trkpt>
      <trkpt lat="38.72874" lon="-0.63235">
        <ele>857.2</ele>
        <time>2022-10-15 08:54:59</time>
      </trkpt>
      <trkpt lat="38.72878" lon="-0.63234">
        <ele>857.2</ele>
        <time>2022-10-15 08:55:00</time>
      </trkpt>
      <trkpt lat="38.72878" lon="-0.63234">
        <ele>857.2</ele>
        <time>2022-10-15 08:55:01</time>
      </trkpt>
      <trkpt lat="38.72882" lon="-0.63232">
        <ele>857.2</ele>
        <time>2022-10-15 08:55:02</time>
      </trkpt>
      <trkpt lat="38.72885" lon="-0.6323">
        <ele>857.4</ele>
        <time>2022-10-15 08:55:03</time>
      </trkpt>
      <trkpt lat="38.72888" lon="-0.63227">
        <ele>857.4</ele>
        <time>2022-10-15 08:55:04</time>
      </trkpt>
      <trkpt lat="38.72894" lon="-0.6322">
        <ele>857.4</ele>
        <time>2022-10-15 08:55:05</time>
      </trkpt>
      <trkpt lat="38.72896" lon="-0.63216">
        <ele>857.4</ele>
        <time>2022-10-15 08:55:06</time>
      </trkpt>
      <trkpt lat="38.72898" lon="-0.63212">
        <ele>857.6</ele>
        <time>2022-10-15 08:55:07</time>
      </trkpt>
      <trkpt lat="38.72898" lon="-0.63212">
        <ele>857.6</ele>
        <time>2022-10-15 08:55:08</time>
      </trkpt>
      <trkpt lat="38.72902" lon="-0.63203">
        <ele>857.6</ele>
        <time>2022-10-15 08:55:09</time>
      </trkpt>
      <trkpt lat="38.72902" lon="-0.63203">
        <ele>857.8</ele>
        <time>2022-10-15 08:55:10</time>
      </trkpt>
      <trkpt lat="38.72906" lon="-0.63194">
        <ele>858</ele>
        <time>2022-10-15 08:55:11</time>
      </trkpt>
      <trkpt lat="38.72908" lon="-0.6319">
        <ele>858</ele>
        <time>2022-10-15 08:55:12</time>
      </trkpt>
      <trkpt lat="38.72908" lon="-0.6319">
        <ele>858</ele>
        <time>2022-10-15 08:55:13</time>
      </trkpt>
      <trkpt lat="38.7291" lon="-0.63185">
        <ele>858.2</ele>
        <time>2022-10-15 08:55:14</time>
      </trkpt>
      <trkpt lat="38.72915" lon="-0.63177">
        <ele>858.2</ele>
        <time>2022-10-15 08:55:15</time>
      </trkpt>
      <trkpt lat="38.72918" lon="-0.63173">
        <ele>858.4</ele>
        <time>2022-10-15 08:55:16</time>
      </trkpt>
      <trkpt lat="38.72921" lon="-0.6317">
        <ele>858.4</ele>
        <time>2022-10-15 08:55:17</time>
      </trkpt>
      <trkpt lat="38.72924" lon="-0.63166">
        <ele>858.4</ele>
        <time>2022-10-15 08:55:18</time>
      </trkpt>
      <trkpt lat="38.72924" lon="-0.63166">
        <ele>858.6</ele>
        <time>2022-10-15 08:55:19</time>
      </trkpt>
      <trkpt lat="38.72927" lon="-0.63164">
        <ele>858.6</ele>
        <time>2022-10-15 08:55:20</time>
      </trkpt>
      <trkpt lat="38.72934" lon="-0.6316">
        <ele>858.6</ele>
        <time>2022-10-15 08:55:21</time>
      </trkpt>
      <trkpt lat="38.72937" lon="-0.63158">
        <ele>858.6</ele>
        <time>2022-10-15 08:55:22</time>
      </trkpt>
      <trkpt lat="38.72941" lon="-0.63157">
        <ele>858.6</ele>
        <time>2022-10-15 08:55:23</time>
      </trkpt>
      <trkpt lat="38.72945" lon="-0.63155">
        <ele>858.6</ele>
        <time>2022-10-15 08:55:24</time>
      </trkpt>
      <trkpt lat="38.72945" lon="-0.63155">
        <ele>858.8</ele>
        <time>2022-10-15 08:55:25</time>
      </trkpt>
      <trkpt lat="38.72948" lon="-0.63154">
        <ele>858.8</ele>
        <time>2022-10-15 08:55:26</time>
      </trkpt>
      <trkpt lat="38.72951" lon="-0.63151">
        <ele>859</ele>
        <time>2022-10-15 08:55:27</time>
      </trkpt>
      <trkpt lat="38.72954" lon="-0.63148">
        <ele>859</ele>
        <time>2022-10-15 08:55:28</time>
      </trkpt>
      <trkpt lat="38.72957" lon="-0.63144">
        <ele>859.2</ele>
        <time>2022-10-15 08:55:29</time>
      </trkpt>
      <trkpt lat="38.7296" lon="-0.63136">
        <ele>859.4</ele>
        <time>2022-10-15 08:55:30</time>
      </trkpt>
      <trkpt lat="38.72962" lon="-0.63131">
        <ele>859.6</ele>
        <time>2022-10-15 08:55:31</time>
      </trkpt>
      <trkpt lat="38.72962" lon="-0.63131">
        <ele>859.6</ele>
        <time>2022-10-15 08:55:32</time>
      </trkpt>
      <trkpt lat="38.72964" lon="-0.63122">
        <ele>859.6</ele>
        <time>2022-10-15 08:55:33</time>
      </trkpt>
      <trkpt lat="38.72965" lon="-0.63118">
        <ele>859.8</ele>
        <time>2022-10-15 08:55:34</time>
      </trkpt>
      <trkpt lat="38.72965" lon="-0.63118">
        <ele>859.8</ele>
        <time>2022-10-15 08:55:35</time>
      </trkpt>
      <trkpt lat="38.72968" lon="-0.6311">
        <ele>859.8</ele>
        <time>2022-10-15 08:55:36</time>
      </trkpt>
      <trkpt lat="38.72968" lon="-0.6311">
        <ele>860</ele>
        <time>2022-10-15 08:55:37</time>
      </trkpt>
      <trkpt lat="38.72969" lon="-0.63105">
        <ele>860</ele>
        <time>2022-10-15 08:55:38</time>
      </trkpt>
      <trkpt lat="38.72969" lon="-0.631">
        <ele>860.2</ele>
        <time>2022-10-15 08:55:39</time>
      </trkpt>
      <trkpt lat="38.7297" lon="-0.63095">
        <ele>860.2</ele>
        <time>2022-10-15 08:55:40</time>
      </trkpt>
      <trkpt lat="38.72972" lon="-0.63084">
        <ele>860.2</ele>
        <time>2022-10-15 08:55:41</time>
      </trkpt>
      <trkpt lat="38.72972" lon="-0.63084">
        <ele>860.2</ele>
        <time>2022-10-15 08:55:42</time>
      </trkpt>
      <trkpt lat="38.72976" lon="-0.63073">
        <ele>860.2</ele>
        <time>2022-10-15 08:55:43</time>
      </trkpt>
      <trkpt lat="38.72976" lon="-0.63073">
        <ele>860.2</ele>
        <time>2022-10-15 08:55:44</time>
      </trkpt>
      <trkpt lat="38.7298" lon="-0.63063">
        <ele>860.2</ele>
        <time>2022-10-15 08:55:45</time>
      </trkpt>
      <trkpt lat="38.7298" lon="-0.63063">
        <ele>860.2</ele>
        <time>2022-10-15 08:55:46</time>
      </trkpt>
      <trkpt lat="38.72986" lon="-0.63054">
        <ele>860.2</ele>
        <time>2022-10-15 08:55:47</time>
      </trkpt>
      <trkpt lat="38.72988" lon="-0.6305">
        <ele>860.2</ele>
        <time>2022-10-15 08:55:48</time>
      </trkpt>
      <trkpt lat="38.72988" lon="-0.6305">
        <ele>860.2</ele>
        <time>2022-10-15 08:55:49</time>
      </trkpt>
      <trkpt lat="38.72991" lon="-0.63046">
        <ele>860.2</ele>
        <time>2022-10-15 08:55:50</time>
      </trkpt>
      <trkpt lat="38.72998" lon="-0.63038">
        <ele>860.2</ele>
        <time>2022-10-15 08:55:51</time>
      </trkpt>
      <trkpt lat="38.72998" lon="-0.63038">
        <ele>860.2</ele>
        <time>2022-10-15 08:55:52</time>
      </trkpt>
      <trkpt lat="38.73004" lon="-0.6303">
        <ele>860.2</ele>
        <time>2022-10-15 08:55:53</time>
      </trkpt>
      <trkpt lat="38.73007" lon="-0.63026">
        <ele>860.2</ele>
        <time>2022-10-15 08:55:54</time>
      </trkpt>
      <trkpt lat="38.7301" lon="-0.63022">
        <ele>860.2</ele>
        <time>2022-10-15 08:55:55</time>
      </trkpt>
      <trkpt lat="38.7301" lon="-0.63022">
        <ele>860.2</ele>
        <time>2022-10-15 08:55:56</time>
      </trkpt>
      <trkpt lat="38.73019" lon="-0.6301">
        <ele>860.2</ele>
        <time>2022-10-15 08:55:58</time>
      </trkpt>
      <trkpt lat="38.73022" lon="-0.63006">
        <ele>860</ele>
        <time>2022-10-15 08:55:59</time>
      </trkpt>
      <trkpt lat="38.73026" lon="-0.63002">
        <ele>860</ele>
        <time>2022-10-15 08:56:00</time>
      </trkpt>
      <trkpt lat="38.73026" lon="-0.63002">
        <ele>860</ele>
        <time>2022-10-15 08:56:01</time>
      </trkpt>
      <trkpt lat="38.73035" lon="-0.62991">
        <ele>860</ele>
        <time>2022-10-15 08:56:03</time>
      </trkpt>
      <trkpt lat="38.73038" lon="-0.62987">
        <ele>860</ele>
        <time>2022-10-15 08:56:04</time>
      </trkpt>
      <trkpt lat="38.73041" lon="-0.62984">
        <ele>860</ele>
        <time>2022-10-15 08:56:05</time>
      </trkpt>
      <trkpt lat="38.73047" lon="-0.62977">
        <ele>860</ele>
        <time>2022-10-15 08:56:07</time>
      </trkpt>
      <trkpt lat="38.73053" lon="-0.6297">
        <ele>860</ele>
        <time>2022-10-15 08:56:09</time>
      </trkpt>
      <trkpt lat="38.73053" lon="-0.6297">
        <ele>860</ele>
        <time>2022-10-15 08:56:10</time>
      </trkpt>
      <trkpt lat="38.7306" lon="-0.62964">
        <ele>860</ele>
        <time>2022-10-15 08:56:11</time>
      </trkpt>
      <trkpt lat="38.73064" lon="-0.62962">
        <ele>860</ele>
        <time>2022-10-15 08:56:12</time>
      </trkpt>
      <trkpt lat="38.73067" lon="-0.6296">
        <ele>860</ele>
        <time>2022-10-15 08:56:13</time>
      </trkpt>
      <trkpt lat="38.73067" lon="-0.6296">
        <ele>860</ele>
        <time>2022-10-15 08:56:14</time>
      </trkpt>
      <trkpt lat="38.73077" lon="-0.62956">
        <ele>860.2</ele>
        <time>2022-10-15 08:56:16</time>
      </trkpt>
      <trkpt lat="38.73084" lon="-0.62954">
        <ele>860.2</ele>
        <time>2022-10-15 08:56:18</time>
      </trkpt>
      <trkpt lat="38.73087" lon="-0.62953">
        <ele>860.4</ele>
        <time>2022-10-15 08:56:19</time>
      </trkpt>
      <trkpt lat="38.73087" lon="-0.62953">
        <ele>860.8</ele>
        <time>2022-10-15 08:56:20</time>
      </trkpt>
      <trkpt lat="38.73095" lon="-0.62949">
        <ele>861.2</ele>
        <time>2022-10-15 08:56:22</time>
      </trkpt>
      <trkpt lat="38.73098" lon="-0.62948">
        <ele>861.6</ele>
        <time>2022-10-15 08:56:23</time>
      </trkpt>
      <trkpt lat="38.73101" lon="-0.62947">
        <ele>862</ele>
        <time>2022-10-15 08:56:24</time>
      </trkpt>
      <trkpt lat="38.73104" lon="-0.62946">
        <ele>862.2</ele>
        <time>2022-10-15 08:56:25</time>
      </trkpt>
      <trkpt lat="38.7311" lon="-0.62943">
        <ele>862.8</ele>
        <time>2022-10-15 08:56:27</time>
      </trkpt>
      <trkpt lat="38.73116" lon="-0.62939">
        <ele>863.2</ele>
        <time>2022-10-15 08:56:29</time>
      </trkpt>
      <trkpt lat="38.73118" lon="-0.62938">
        <ele>863.4</ele>
        <time>2022-10-15 08:56:30</time>
      </trkpt>
      <trkpt lat="38.73121" lon="-0.62936">
        <ele>863.8</ele>
        <time>2022-10-15 08:56:31</time>
      </trkpt>
      <trkpt lat="38.73121" lon="-0.62936">
        <ele>864</ele>
        <time>2022-10-15 08:56:32</time>
      </trkpt>
      <trkpt lat="38.73127" lon="-0.62933">
        <ele>864</ele>
        <time>2022-10-15 08:56:33</time>
      </trkpt>
      <trkpt lat="38.73133" lon="-0.62932">
        <ele>864.6</ele>
        <time>2022-10-15 08:56:35</time>
      </trkpt>
      <trkpt lat="38.73139" lon="-0.62932">
        <ele>865</ele>
        <time>2022-10-15 08:56:37</time>
      </trkpt>
      <trkpt lat="38.73139" lon="-0.62932">
        <ele>865.4</ele>
        <time>2022-10-15 08:56:38</time>
      </trkpt>
      <trkpt lat="38.73144" lon="-0.62931">
        <ele>865.4</ele>
        <time>2022-10-15 08:56:39</time>
      </trkpt>
      <trkpt lat="38.73144" lon="-0.62931">
        <ele>865.6</ele>
        <time>2022-10-15 08:56:40</time>
      </trkpt>
      <trkpt lat="38.7315" lon="-0.62929">
        <ele>865.8</ele>
        <time>2022-10-15 08:56:41</time>
      </trkpt>
      <trkpt lat="38.73152" lon="-0.62928">
        <ele>865.8</ele>
        <time>2022-10-15 08:56:42</time>
      </trkpt>
      <trkpt lat="38.73152" lon="-0.62928">
        <ele>866</ele>
        <time>2022-10-15 08:56:43</time>
      </trkpt>
      <trkpt lat="38.73155" lon="-0.62926">
        <ele>866.2</ele>
        <time>2022-10-15 08:56:44</time>
      </trkpt>
      <trkpt lat="38.73159" lon="-0.6292">
        <ele>866.6</ele>
        <time>2022-10-15 08:56:45</time>
      </trkpt>
      <trkpt lat="38.73159" lon="-0.6292">
        <ele>866.8</ele>
        <time>2022-10-15 08:56:46</time>
      </trkpt>
      <trkpt lat="38.73165" lon="-0.62913">
        <ele>866.8</ele>
        <time>2022-10-15 08:56:47</time>
      </trkpt>
      <trkpt lat="38.73168" lon="-0.6291">
        <ele>867</ele>
        <time>2022-10-15 08:56:48</time>
      </trkpt>
      <trkpt lat="38.7317" lon="-0.62907">
        <ele>867</ele>
        <time>2022-10-15 08:56:49</time>
      </trkpt>
      <trkpt lat="38.7317" lon="-0.62907">
        <ele>867</ele>
        <time>2022-10-15 08:56:50</time>
      </trkpt>
      <trkpt lat="38.73176" lon="-0.629">
        <ele>867</ele>
        <time>2022-10-15 08:56:51</time>
      </trkpt>
      <trkpt lat="38.73176" lon="-0.629">
        <ele>867</ele>
        <time>2022-10-15 08:56:52</time>
      </trkpt>
      <trkpt lat="38.73181" lon="-0.62893">
        <ele>867</ele>
        <time>2022-10-15 08:56:53</time>
      </trkpt>
      <trkpt lat="38.73183" lon="-0.62889">
        <ele>867</ele>
        <time>2022-10-15 08:56:54</time>
      </trkpt>
      <trkpt lat="38.73186" lon="-0.62884">
        <ele>867</ele>
        <time>2022-10-15 08:56:55</time>
      </trkpt>
      <trkpt lat="38.73186" lon="-0.62884">
        <ele>867</ele>
        <time>2022-10-15 08:56:56</time>
      </trkpt>
      <trkpt lat="38.73189" lon="-0.62879">
        <ele>867</ele>
        <time>2022-10-15 08:56:57</time>
      </trkpt>
      <trkpt lat="38.73192" lon="-0.62874">
        <ele>867</ele>
        <time>2022-10-15 08:56:58</time>
      </trkpt>
      <trkpt lat="38.73195" lon="-0.62868">
        <ele>866.8</ele>
        <time>2022-10-15 08:56:59</time>
      </trkpt>
      <trkpt lat="38.73202" lon="-0.62857">
        <ele>866.6</ele>
        <time>2022-10-15 08:57:00</time>
      </trkpt>
      <trkpt lat="38.73202" lon="-0.62857">
        <ele>866.6</ele>
        <time>2022-10-15 08:57:01</time>
      </trkpt>
      <trkpt lat="38.73206" lon="-0.62852">
        <ele>866.6</ele>
        <time>2022-10-15 08:57:02</time>
      </trkpt>
      <trkpt lat="38.73209" lon="-0.62847">
        <ele>866.2</ele>
        <time>2022-10-15 08:57:03</time>
      </trkpt>
      <trkpt lat="38.73215" lon="-0.62835">
        <ele>866</ele>
        <time>2022-10-15 08:57:04</time>
      </trkpt>
      <trkpt lat="38.73219" lon="-0.62829">
        <ele>865.6</ele>
        <time>2022-10-15 08:57:05</time>
      </trkpt>
      <trkpt lat="38.73219" lon="-0.62829">
        <ele>865</ele>
        <time>2022-10-15 08:57:06</time>
      </trkpt>
      <trkpt lat="38.73227" lon="-0.62817">
        <ele>864.6</ele>
        <time>2022-10-15 08:57:07</time>
      </trkpt>
      <trkpt lat="38.73227" lon="-0.62817">
        <ele>864.2</ele>
        <time>2022-10-15 08:57:08</time>
      </trkpt>
      <trkpt lat="38.73231" lon="-0.62811">
        <ele>863.8</ele>
        <time>2022-10-15 08:57:09</time>
      </trkpt>
      <trkpt lat="38.73236" lon="-0.62805">
        <ele>863.2</ele>
        <time>2022-10-15 08:57:10</time>
      </trkpt>
      <trkpt lat="38.73244" lon="-0.62792">
        <ele>862.8</ele>
        <time>2022-10-15 08:57:11</time>
      </trkpt>
      <trkpt lat="38.73248" lon="-0.62787">
        <ele>862.4</ele>
        <time>2022-10-15 08:57:12</time>
      </trkpt>
      <trkpt lat="38.73253" lon="-0.62781">
        <ele>861.2</ele>
        <time>2022-10-15 08:57:13</time>
      </trkpt>
      <trkpt lat="38.73253" lon="-0.62781">
        <ele>860.6</ele>
        <time>2022-10-15 08:57:14</time>
      </trkpt>
      <trkpt lat="38.73263" lon="-0.62772">
        <ele>860</ele>
        <time>2022-10-15 08:57:15</time>
      </trkpt>
      <trkpt lat="38.73263" lon="-0.62772">
        <ele>859.4</ele>
        <time>2022-10-15 08:57:16</time>
      </trkpt>
      <trkpt lat="38.73274" lon="-0.62763">
        <ele>859.2</ele>
        <time>2022-10-15 08:57:17</time>
      </trkpt>
      <trkpt lat="38.73274" lon="-0.62763">
        <ele>858.8</ele>
        <time>2022-10-15 08:57:18</time>
      </trkpt>
      <trkpt lat="38.73279" lon="-0.62758">
        <ele>858.4</ele>
        <time>2022-10-15 08:57:19</time>
      </trkpt>
      <trkpt lat="38.73283" lon="-0.62753">
        <ele>858.2</ele>
        <time>2022-10-15 08:57:20</time>
      </trkpt>
      <trkpt lat="38.73286" lon="-0.62746">
        <ele>858</ele>
        <time>2022-10-15 08:57:21</time>
      </trkpt>
      <trkpt lat="38.73289" lon="-0.62739">
        <ele>857.6</ele>
        <time>2022-10-15 08:57:22</time>
      </trkpt>
      <trkpt lat="38.73293" lon="-0.62724">
        <ele>857.4</ele>
        <time>2022-10-15 08:57:23</time>
      </trkpt>
      <trkpt lat="38.73293" lon="-0.62724">
        <ele>857.2</ele>
        <time>2022-10-15 08:57:24</time>
      </trkpt>
      <trkpt lat="38.73297" lon="-0.62708">
        <ele>857.2</ele>
        <time>2022-10-15 08:57:25</time>
      </trkpt>
      <trkpt lat="38.73299" lon="-0.627">
        <ele>857</ele>
        <time>2022-10-15 08:57:27</time>
      </trkpt>
      <trkpt lat="38.73301" lon="-0.62692">
        <ele>856.6</ele>
        <time>2022-10-15 08:57:28</time>
      </trkpt>
      <trkpt lat="38.73307" lon="-0.62677">
        <ele>856.4</ele>
        <time>2022-10-15 08:57:29</time>
      </trkpt>
      <trkpt lat="38.73313" lon="-0.62661">
        <ele>856</ele>
        <time>2022-10-15 08:57:31</time>
      </trkpt>
      <trkpt lat="38.73313" lon="-0.62661">
        <ele>856</ele>
        <time>2022-10-15 08:57:32</time>
      </trkpt>
      <trkpt lat="38.73316" lon="-0.62653">
        <ele>855.6</ele>
        <time>2022-10-15 08:57:33</time>
      </trkpt>
      <trkpt lat="38.73323" lon="-0.62637">
        <ele>855.2</ele>
        <time>2022-10-15 08:57:34</time>
      </trkpt>
      <trkpt lat="38.73326" lon="-0.62628">
        <ele>854.2</ele>
        <time>2022-10-15 08:57:36</time>
      </trkpt>
      <trkpt lat="38.7333" lon="-0.62619">
        <ele>854.2</ele>
        <time>2022-10-15 08:57:37</time>
      </trkpt>
      <trkpt lat="38.73335" lon="-0.62611">
        <ele>854</ele>
        <time>2022-10-15 08:57:38</time>
      </trkpt>
      <trkpt lat="38.7334" lon="-0.62603">
        <ele>853.8</ele>
        <time>2022-10-15 08:57:39</time>
      </trkpt>
      <trkpt lat="38.73346" lon="-0.62596">
        <ele>853.4</ele>
        <time>2022-10-15 08:57:40</time>
      </trkpt>
      <trkpt lat="38.73352" lon="-0.62591">
        <ele>852.8</ele>
        <time>2022-10-15 08:57:41</time>
      </trkpt>
      <trkpt lat="38.73358" lon="-0.62586">
        <ele>852.4</ele>
        <time>2022-10-15 08:57:42</time>
      </trkpt>
      <trkpt lat="38.73365" lon="-0.62583">
        <ele>852</ele>
        <time>2022-10-15 08:57:43</time>
      </trkpt>
      <trkpt lat="38.73372" lon="-0.6258">
        <ele>851.4</ele>
        <time>2022-10-15 08:57:44</time>
      </trkpt>
      <trkpt lat="38.73384" lon="-0.62573">
        <ele>851</ele>
        <time>2022-10-15 08:57:45</time>
      </trkpt>
      <trkpt lat="38.73391" lon="-0.62569">
        <ele>850.4</ele>
        <time>2022-10-15 08:57:47</time>
      </trkpt>
      <trkpt lat="38.73402" lon="-0.62561">
        <ele>850.4</ele>
        <time>2022-10-15 08:57:48</time>
      </trkpt>
      <trkpt lat="38.73407" lon="-0.62557">
        <ele>850.4</ele>
        <time>2022-10-15 08:57:49</time>
      </trkpt>
      <trkpt lat="38.73417" lon="-0.62547">
        <ele>850.2</ele>
        <time>2022-10-15 08:57:51</time>
      </trkpt>
      <trkpt lat="38.73426" lon="-0.62537">
        <ele>850.2</ele>
        <time>2022-10-15 08:57:53</time>
      </trkpt>
      <trkpt lat="38.73431" lon="-0.62533">
        <ele>850.2</ele>
        <time>2022-10-15 08:57:54</time>
      </trkpt>
      <trkpt lat="38.73436" lon="-0.62528">
        <ele>850.2</ele>
        <time>2022-10-15 08:57:55</time>
      </trkpt>
      <trkpt lat="38.73436" lon="-0.62528">
        <ele>850</ele>
        <time>2022-10-15 08:57:56</time>
      </trkpt>
      <trkpt lat="38.73451" lon="-0.62511">
        <ele>850</ele>
        <time>2022-10-15 08:57:58</time>
      </trkpt>
      <trkpt lat="38.73457" lon="-0.62505">
        <ele>850</ele>
        <time>2022-10-15 08:58:00</time>
      </trkpt>
      <trkpt lat="38.73462" lon="-0.62498">
        <ele>850</ele>
        <time>2022-10-15 08:58:01</time>
      </trkpt>
      <trkpt lat="38.73466" lon="-0.62491">
        <ele>850</ele>
        <time>2022-10-15 08:58:02</time>
      </trkpt>
      <trkpt lat="38.73473" lon="-0.62476">
        <ele>849.8</ele>
        <time>2022-10-15 08:58:04</time>
      </trkpt>
      <trkpt lat="38.73476" lon="-0.62469">
        <ele>849.8</ele>
        <time>2022-10-15 08:58:05</time>
      </trkpt>
      <trkpt lat="38.7348" lon="-0.62462">
        <ele>849.6</ele>
        <time>2022-10-15 08:58:06</time>
      </trkpt>
      <trkpt lat="38.73484" lon="-0.62454">
        <ele>849.4</ele>
        <time>2022-10-15 08:58:07</time>
      </trkpt>
      <trkpt lat="38.73487" lon="-0.62437">
        <ele>848.6</ele>
        <time>2022-10-15 08:58:09</time>
      </trkpt>
      <trkpt lat="38.73487" lon="-0.62429">
        <ele>848.2</ele>
        <time>2022-10-15 08:58:10</time>
      </trkpt>
      <trkpt lat="38.73487" lon="-0.62422">
        <ele>847.6</ele>
        <time>2022-10-15 08:58:11</time>
      </trkpt>
      <trkpt lat="38.73486" lon="-0.62415">
        <ele>847</ele>
        <time>2022-10-15 08:58:12</time>
      </trkpt>
      <trkpt lat="38.73486" lon="-0.62407">
        <ele>846.4</ele>
        <time>2022-10-15 08:58:13</time>
      </trkpt>
      <trkpt lat="38.73486" lon="-0.62399">
        <ele>845.8</ele>
        <time>2022-10-15 08:58:14</time>
      </trkpt>
      <trkpt lat="38.73488" lon="-0.62393">
        <ele>845.2</ele>
        <time>2022-10-15 08:58:15</time>
      </trkpt>
      <trkpt lat="38.73492" lon="-0.62387">
        <ele>844.4</ele>
        <time>2022-10-15 08:58:16</time>
      </trkpt>
      <trkpt lat="38.73496" lon="-0.62383">
        <ele>843.8</ele>
        <time>2022-10-15 08:58:17</time>
      </trkpt>
      <trkpt lat="38.73501" lon="-0.62378">
        <ele>843</ele>
        <time>2022-10-15 08:58:18</time>
      </trkpt>
      <trkpt lat="38.73506" lon="-0.62373">
        <ele>842.4</ele>
        <time>2022-10-15 08:58:19</time>
      </trkpt>
      <trkpt lat="38.7351" lon="-0.62367">
        <ele>841.6</ele>
        <time>2022-10-15 08:58:20</time>
      </trkpt>
      <trkpt lat="38.73516" lon="-0.62354">
        <ele>840.8</ele>
        <time>2022-10-15 08:58:21</time>
      </trkpt>
      <trkpt lat="38.73516" lon="-0.62354">
        <ele>840</ele>
        <time>2022-10-15 08:58:22</time>
      </trkpt>
      <trkpt lat="38.7352" lon="-0.62348">
        <ele>839.4</ele>
        <time>2022-10-15 08:58:23</time>
      </trkpt>
      <trkpt lat="38.73525" lon="-0.62342">
        <ele>839.2</ele>
        <time>2022-10-15 08:58:24</time>
      </trkpt>
      <trkpt lat="38.73537" lon="-0.62333">
        <ele>838.8</ele>
        <time>2022-10-15 08:58:25</time>
      </trkpt>
      <trkpt lat="38.73537" lon="-0.62333">
        <ele>838.6</ele>
        <time>2022-10-15 08:58:26</time>
      </trkpt>
      <trkpt lat="38.73543" lon="-0.62328">
        <ele>838.4</ele>
        <time>2022-10-15 08:58:27</time>
      </trkpt>
      <trkpt lat="38.73549" lon="-0.62323">
        <ele>838.4</ele>
        <time>2022-10-15 08:58:28</time>
      </trkpt>
      <trkpt lat="38.73555" lon="-0.62317">
        <ele>838.2</ele>
        <time>2022-10-15 08:58:29</time>
      </trkpt>
      <trkpt lat="38.73561" lon="-0.62309">
        <ele>837.6</ele>
        <time>2022-10-15 08:58:30</time>
      </trkpt>
      <trkpt lat="38.73565" lon="-0.62301">
        <ele>837</ele>
        <time>2022-10-15 08:58:31</time>
      </trkpt>
      <trkpt lat="38.73568" lon="-0.62292">
        <ele>836.2</ele>
        <time>2022-10-15 08:58:32</time>
      </trkpt>
      <trkpt lat="38.73571" lon="-0.62283">
        <ele>835.8</ele>
        <time>2022-10-15 08:58:33</time>
      </trkpt>
      <trkpt lat="38.73573" lon="-0.62274">
        <ele>835.2</ele>
        <time>2022-10-15 08:58:34</time>
      </trkpt>
      <trkpt lat="38.73574" lon="-0.62265">
        <ele>834.8</ele>
        <time>2022-10-15 08:58:35</time>
      </trkpt>
      <trkpt lat="38.73574" lon="-0.62256">
        <ele>834.2</ele>
        <time>2022-10-15 08:58:36</time>
      </trkpt>
      <trkpt lat="38.73575" lon="-0.62247">
        <ele>834.2</ele>
        <time>2022-10-15 08:58:37</time>
      </trkpt>
      <trkpt lat="38.73574" lon="-0.6224">
        <ele>834.2</ele>
        <time>2022-10-15 08:58:38</time>
      </trkpt>
      <trkpt lat="38.73574" lon="-0.62227">
        <ele>834</ele>
        <time>2022-10-15 08:58:39</time>
      </trkpt>
      <trkpt lat="38.73574" lon="-0.62227">
        <ele>834</ele>
        <time>2022-10-15 08:58:40</time>
      </trkpt>
      <trkpt lat="38.73574" lon="-0.62216">
        <ele>834</ele>
        <time>2022-10-15 08:58:41</time>
      </trkpt>
      <trkpt lat="38.73574" lon="-0.6221">
        <ele>834</ele>
        <time>2022-10-15 08:58:42</time>
      </trkpt>
      <trkpt lat="38.73574" lon="-0.62205">
        <ele>834</ele>
        <time>2022-10-15 08:58:43</time>
      </trkpt>
      <trkpt lat="38.73574" lon="-0.62205">
        <ele>834</ele>
        <time>2022-10-15 08:58:44</time>
      </trkpt>
      <trkpt lat="38.73573" lon="-0.62193">
        <ele>834</ele>
        <time>2022-10-15 08:58:45</time>
      </trkpt>
      <trkpt lat="38.73573" lon="-0.62193">
        <ele>834</ele>
        <time>2022-10-15 08:58:46</time>
      </trkpt>
      <trkpt lat="38.73571" lon="-0.62181">
        <ele>834</ele>
        <time>2022-10-15 08:58:47</time>
      </trkpt>
      <trkpt lat="38.73569" lon="-0.62175">
        <ele>834</ele>
        <time>2022-10-15 08:58:48</time>
      </trkpt>
      <trkpt lat="38.73569" lon="-0.62175">
        <ele>834</ele>
        <time>2022-10-15 08:58:49</time>
      </trkpt>
      <trkpt lat="38.73568" lon="-0.62169">
        <ele>834</ele>
        <time>2022-10-15 08:58:50</time>
      </trkpt>
      <trkpt lat="38.73567" lon="-0.62163">
        <ele>834</ele>
        <time>2022-10-15 08:58:51</time>
      </trkpt>
      <trkpt lat="38.73567" lon="-0.62156">
        <ele>834</ele>
        <time>2022-10-15 08:58:52</time>
      </trkpt>
      <trkpt lat="38.73568" lon="-0.62149">
        <ele>834</ele>
        <time>2022-10-15 08:58:53</time>
      </trkpt>
      <trkpt lat="38.73571" lon="-0.62135">
        <ele>834</ele>
        <time>2022-10-15 08:58:54</time>
      </trkpt>
      <trkpt lat="38.73571" lon="-0.62135">
        <ele>834</ele>
        <time>2022-10-15 08:58:55</time>
      </trkpt>
      <trkpt lat="38.73573" lon="-0.62128">
        <ele>833.8</ele>
        <time>2022-10-15 08:58:56</time>
      </trkpt>
      <trkpt lat="38.73578" lon="-0.62115">
        <ele>833.6</ele>
        <time>2022-10-15 08:58:57</time>
      </trkpt>
      <trkpt lat="38.7358" lon="-0.62108">
        <ele>833</ele>
        <time>2022-10-15 08:58:58</time>
      </trkpt>
      <trkpt lat="38.73582" lon="-0.62101">
        <ele>832.6</ele>
        <time>2022-10-15 08:58:59</time>
      </trkpt>
      <trkpt lat="38.73582" lon="-0.62101">
        <ele>832</ele>
        <time>2022-10-15 08:59:00</time>
      </trkpt>
      <trkpt lat="38.73588" lon="-0.62088">
        <ele>831.4</ele>
        <time>2022-10-15 08:59:01</time>
      </trkpt>
      <trkpt lat="38.73588" lon="-0.62088">
        <ele>831.2</ele>
        <time>2022-10-15 08:59:02</time>
      </trkpt>
      <trkpt lat="38.73594" lon="-0.62074">
        <ele>831</ele>
        <time>2022-10-15 08:59:03</time>
      </trkpt>
      <trkpt lat="38.73597" lon="-0.62068">
        <ele>830.8</ele>
        <time>2022-10-15 08:59:04</time>
      </trkpt>
      <trkpt lat="38.73597" lon="-0.62068">
        <ele>830.6</ele>
        <time>2022-10-15 08:59:05</time>
      </trkpt>
      <trkpt lat="38.73602" lon="-0.62054">
        <ele>830.6</ele>
        <time>2022-10-15 08:59:06</time>
      </trkpt>
      <trkpt lat="38.73602" lon="-0.62054">
        <ele>830.4</ele>
        <time>2022-10-15 08:59:07</time>
      </trkpt>
      <trkpt lat="38.73604" lon="-0.62046">
        <ele>830.2</ele>
        <time>2022-10-15 08:59:08</time>
      </trkpt>
      <trkpt lat="38.73606" lon="-0.62039">
        <ele>830</ele>
        <time>2022-10-15 08:59:09</time>
      </trkpt>
      <trkpt lat="38.73609" lon="-0.62031">
        <ele>829.8</ele>
        <time>2022-10-15 08:59:10</time>
      </trkpt>
      <trkpt lat="38.73612" lon="-0.62025">
        <ele>829.6</ele>
        <time>2022-10-15 08:59:11</time>
      </trkpt>
      <trkpt lat="38.73619" lon="-0.62011">
        <ele>829.6</ele>
        <time>2022-10-15 08:59:12</time>
      </trkpt>
      <trkpt lat="38.73619" lon="-0.62011">
        <ele>829.6</ele>
        <time>2022-10-15 08:59:13</time>
      </trkpt>
      <trkpt lat="38.73623" lon="-0.62004">
        <ele>829.4</ele>
        <time>2022-10-15 08:59:14</time>
      </trkpt>
      <trkpt lat="38.7363" lon="-0.61991">
        <ele>829.2</ele>
        <time>2022-10-15 08:59:15</time>
      </trkpt>
      <trkpt lat="38.7363" lon="-0.61991">
        <ele>828.8</ele>
        <time>2022-10-15 08:59:16</time>
      </trkpt>
      <trkpt lat="38.73637" lon="-0.61979">
        <ele>828.4</ele>
        <time>2022-10-15 08:59:17</time>
      </trkpt>
      <trkpt lat="38.73641" lon="-0.61972">
        <ele>828.2</ele>
        <time>2022-10-15 08:59:18</time>
      </trkpt>
      <trkpt lat="38.73644" lon="-0.61967">
        <ele>828</ele>
        <time>2022-10-15 08:59:19</time>
      </trkpt>
      <trkpt lat="38.73644" lon="-0.61967">
        <ele>827.8</ele>
        <time>2022-10-15 08:59:20</time>
      </trkpt>
      <trkpt lat="38.73648" lon="-0.61961">
        <ele>827.8</ele>
        <time>2022-10-15 08:59:21</time>
      </trkpt>
      <trkpt lat="38.73656" lon="-0.61951">
        <ele>827.6</ele>
        <time>2022-10-15 08:59:22</time>
      </trkpt>
      <trkpt lat="38.7366" lon="-0.61947">
        <ele>827.6</ele>
        <time>2022-10-15 08:59:23</time>
      </trkpt>
      <trkpt lat="38.73665" lon="-0.61942">
        <ele>827.6</ele>
        <time>2022-10-15 08:59:24</time>
      </trkpt>
      <trkpt lat="38.73665" lon="-0.61942">
        <ele>827.6</ele>
        <time>2022-10-15 08:59:25</time>
      </trkpt>
      <trkpt lat="38.73669" lon="-0.61937">
        <ele>827.4</ele>
        <time>2022-10-15 08:59:26</time>
      </trkpt>
      <trkpt lat="38.73672" lon="-0.61932">
        <ele>827.2</ele>
        <time>2022-10-15 08:59:27</time>
      </trkpt>
      <trkpt lat="38.73676" lon="-0.61927">
        <ele>827</ele>
        <time>2022-10-15 08:59:28</time>
      </trkpt>
      <trkpt lat="38.73683" lon="-0.61916">
        <ele>826.8</ele>
        <time>2022-10-15 08:59:29</time>
      </trkpt>
      <trkpt lat="38.73683" lon="-0.61916">
        <ele>826.6</ele>
        <time>2022-10-15 08:59:30</time>
      </trkpt>
      <trkpt lat="38.73687" lon="-0.61911">
        <ele>826.4</ele>
        <time>2022-10-15 08:59:31</time>
      </trkpt>
      <trkpt lat="38.73691" lon="-0.61905">
        <ele>826.2</ele>
        <time>2022-10-15 08:59:32</time>
      </trkpt>
      <trkpt lat="38.73695" lon="-0.619">
        <ele>826.2</ele>
        <time>2022-10-15 08:59:33</time>
      </trkpt>
      <trkpt lat="38.73699" lon="-0.61895">
        <ele>826</ele>
        <time>2022-10-15 08:59:34</time>
      </trkpt>
      <trkpt lat="38.73706" lon="-0.61884">
        <ele>826</ele>
        <time>2022-10-15 08:59:35</time>
      </trkpt>
      <trkpt lat="38.73709" lon="-0.61879">
        <ele>826</ele>
        <time>2022-10-15 08:59:36</time>
      </trkpt>
      <trkpt lat="38.73709" lon="-0.61879">
        <ele>826</ele>
        <time>2022-10-15 08:59:37</time>
      </trkpt>
      <trkpt lat="38.73713" lon="-0.61874">
        <ele>826</ele>
        <time>2022-10-15 08:59:38</time>
      </trkpt>
      <trkpt lat="38.73717" lon="-0.6187">
        <ele>826</ele>
        <time>2022-10-15 08:59:39</time>
      </trkpt>
      <trkpt lat="38.73721" lon="-0.61866">
        <ele>825.8</ele>
        <time>2022-10-15 08:59:40</time>
      </trkpt>
      <trkpt lat="38.73725" lon="-0.61863">
        <ele>825.8</ele>
        <time>2022-10-15 08:59:41</time>
      </trkpt>
      <trkpt lat="38.7373" lon="-0.61861">
        <ele>825.8</ele>
        <time>2022-10-15 08:59:42</time>
      </trkpt>
      <trkpt lat="38.73736" lon="-0.6186">
        <ele>825.8</ele>
        <time>2022-10-15 08:59:43</time>
      </trkpt>
      <trkpt lat="38.73741" lon="-0.6186">
        <ele>825.6</ele>
        <time>2022-10-15 08:59:44</time>
      </trkpt>
      <trkpt lat="38.73745" lon="-0.6186">
        <ele>825.6</ele>
        <time>2022-10-15 08:59:45</time>
      </trkpt>
      <trkpt lat="38.7375" lon="-0.61862">
        <ele>825.6</ele>
        <time>2022-10-15 08:59:46</time>
      </trkpt>
      <trkpt lat="38.73754" lon="-0.61863">
        <ele>825.6</ele>
        <time>2022-10-15 08:59:47</time>
      </trkpt>
      <trkpt lat="38.73758" lon="-0.61864">
        <ele>825.6</ele>
        <time>2022-10-15 08:59:48</time>
      </trkpt>
      <trkpt lat="38.73761" lon="-0.61865">
        <ele>825.6</ele>
        <time>2022-10-15 08:59:49</time>
      </trkpt>
      <trkpt lat="38.73765" lon="-0.61865">
        <ele>825.6</ele>
        <time>2022-10-15 08:59:50</time>
      </trkpt>
      <trkpt lat="38.73768" lon="-0.61866">
        <ele>825.6</ele>
        <time>2022-10-15 08:59:51</time>
      </trkpt>
      <trkpt lat="38.73771" lon="-0.61867">
        <ele>825.6</ele>
        <time>2022-10-15 08:59:52</time>
      </trkpt>
      <trkpt lat="38.73779" lon="-0.61867">
        <ele>825.6</ele>
        <time>2022-10-15 08:59:53</time>
      </trkpt>
      <trkpt lat="38.73779" lon="-0.61867">
        <ele>826</ele>
        <time>2022-10-15 08:59:54</time>
      </trkpt>
      <trkpt lat="38.73786" lon="-0.61865">
        <ele>826.4</ele>
        <time>2022-10-15 08:59:55</time>
      </trkpt>
      <trkpt lat="38.73786" lon="-0.61865">
        <ele>826.6</ele>
        <time>2022-10-15 08:59:56</time>
      </trkpt>
      <trkpt lat="38.73789" lon="-0.61864">
        <ele>827</ele>
        <time>2022-10-15 08:59:57</time>
      </trkpt>
      <trkpt lat="38.73793" lon="-0.61862">
        <ele>827.2</ele>
        <time>2022-10-15 08:59:58</time>
      </trkpt>
      <trkpt lat="38.73802" lon="-0.61859">
        <ele>827.6</ele>
        <time>2022-10-15 08:59:59</time>
      </trkpt>
      <trkpt lat="38.73807" lon="-0.61857">
        <ele>827.8</ele>
        <time>2022-10-15 09:00:00</time>
      </trkpt>
      <trkpt lat="38.73807" lon="-0.61857">
        <ele>827.8</ele>
        <time>2022-10-15 09:00:01</time>
      </trkpt>
      <trkpt lat="38.73811" lon="-0.61854">
        <ele>828</ele>
        <time>2022-10-15 09:00:02</time>
      </trkpt>
      <trkpt lat="38.73816" lon="-0.61852">
        <ele>828</ele>
        <time>2022-10-15 09:00:03</time>
      </trkpt>
      <trkpt lat="38.7382" lon="-0.6185">
        <ele>828</ele>
        <time>2022-10-15 09:00:04</time>
      </trkpt>
      <trkpt lat="38.73829" lon="-0.61846">
        <ele>828</ele>
        <time>2022-10-15 09:00:05</time>
      </trkpt>
      <trkpt lat="38.73833" lon="-0.61844">
        <ele>828</ele>
        <time>2022-10-15 09:00:06</time>
      </trkpt>
      <trkpt lat="38.73833" lon="-0.61844">
        <ele>828</ele>
        <time>2022-10-15 09:00:07</time>
      </trkpt>
      <trkpt lat="38.73838" lon="-0.61842">
        <ele>828</ele>
        <time>2022-10-15 09:00:08</time>
      </trkpt>
      <trkpt lat="38.73846" lon="-0.61838">
        <ele>828</ele>
        <time>2022-10-15 09:00:09</time>
      </trkpt>
      <trkpt lat="38.73846" lon="-0.61838">
        <ele>828</ele>
        <time>2022-10-15 09:00:10</time>
      </trkpt>
      <trkpt lat="38.73855" lon="-0.61832">
        <ele>828</ele>
        <time>2022-10-15 09:00:11</time>
      </trkpt>
      <trkpt lat="38.73855" lon="-0.61832">
        <ele>828</ele>
        <time>2022-10-15 09:00:12</time>
      </trkpt>
      <trkpt lat="38.73859" lon="-0.61829">
        <ele>828</ele>
        <time>2022-10-15 09:00:13</time>
      </trkpt>
      <trkpt lat="38.73863" lon="-0.61827">
        <ele>827.8</ele>
        <time>2022-10-15 09:00:14</time>
      </trkpt>
      <trkpt lat="38.73866" lon="-0.61824">
        <ele>827.8</ele>
        <time>2022-10-15 09:00:15</time>
      </trkpt>
      <trkpt lat="38.7387" lon="-0.61822">
        <ele>827.6</ele>
        <time>2022-10-15 09:00:16</time>
      </trkpt>
      <trkpt lat="38.73874" lon="-0.61818">
        <ele>827.6</ele>
        <time>2022-10-15 09:00:17</time>
      </trkpt>
      <trkpt lat="38.73878" lon="-0.61815">
        <ele>827.6</ele>
        <time>2022-10-15 09:00:18</time>
      </trkpt>
      <trkpt lat="38.73882" lon="-0.6181">
        <ele>827.4</ele>
        <time>2022-10-15 09:00:19</time>
      </trkpt>
      <trkpt lat="38.73885" lon="-0.61806">
        <ele>827.4</ele>
        <time>2022-10-15 09:00:20</time>
      </trkpt>
      <trkpt lat="38.73888" lon="-0.61802">
        <ele>827.2</ele>
        <time>2022-10-15 09:00:21</time>
      </trkpt>
      <trkpt lat="38.73891" lon="-0.61798">
        <ele>827.2</ele>
        <time>2022-10-15 09:00:22</time>
      </trkpt>
      <trkpt lat="38.73897" lon="-0.6179">
        <ele>827.2</ele>
        <time>2022-10-15 09:00:23</time>
      </trkpt>
      <trkpt lat="38.739" lon="-0.61787">
        <ele>827</ele>
        <time>2022-10-15 09:00:24</time>
      </trkpt>
      <trkpt lat="38.73903" lon="-0.61783">
        <ele>827</ele>
        <time>2022-10-15 09:00:25</time>
      </trkpt>
      <trkpt lat="38.73903" lon="-0.61783">
        <ele>826.8</ele>
        <time>2022-10-15 09:00:26</time>
      </trkpt>
      <trkpt lat="38.73909" lon="-0.61776">
        <ele>826.8</ele>
        <time>2022-10-15 09:00:27</time>
      </trkpt>
      <trkpt lat="38.73909" lon="-0.61776">
        <ele>826.8</ele>
        <time>2022-10-15 09:00:28</time>
      </trkpt>
      <trkpt lat="38.73915" lon="-0.6177">
        <ele>826.8</ele>
        <time>2022-10-15 09:00:29</time>
      </trkpt>
      <trkpt lat="38.73919" lon="-0.61766">
        <ele>826.8</ele>
        <time>2022-10-15 09:00:30</time>
      </trkpt>
      <trkpt lat="38.73919" lon="-0.61766">
        <ele>826.8</ele>
        <time>2022-10-15 09:00:31</time>
      </trkpt>
      <trkpt lat="38.73922" lon="-0.61763">
        <ele>826.8</ele>
        <time>2022-10-15 09:00:32</time>
      </trkpt>
      <trkpt lat="38.7393" lon="-0.61757">
        <ele>826.8</ele>
        <time>2022-10-15 09:00:33</time>
      </trkpt>
      <trkpt lat="38.73933" lon="-0.61754">
        <ele>826.8</ele>
        <time>2022-10-15 09:00:34</time>
      </trkpt>
      <trkpt lat="38.73933" lon="-0.61754">
        <ele>826.8</ele>
        <time>2022-10-15 09:00:35</time>
      </trkpt>
      <trkpt lat="38.73937" lon="-0.61751">
        <ele>826.8</ele>
        <time>2022-10-15 09:00:36</time>
      </trkpt>
      <trkpt lat="38.73941" lon="-0.61749">
        <ele>826.8</ele>
        <time>2022-10-15 09:00:37</time>
      </trkpt>
      <trkpt lat="38.73944" lon="-0.61747">
        <ele>826.8</ele>
        <time>2022-10-15 09:00:38</time>
      </trkpt>
      <trkpt lat="38.73949" lon="-0.61743">
        <ele>826.8</ele>
        <time>2022-10-15 09:00:39</time>
      </trkpt>
      <trkpt lat="38.73952" lon="-0.61741">
        <ele>827</ele>
        <time>2022-10-15 09:00:40</time>
      </trkpt>
      <trkpt lat="38.73954" lon="-0.61739">
        <ele>827</ele>
        <time>2022-10-15 09:00:41</time>
      </trkpt>
      <trkpt lat="38.73957" lon="-0.61737">
        <ele>827</ele>
        <time>2022-10-15 09:00:42</time>
      </trkpt>
      <trkpt lat="38.73957" lon="-0.61737">
        <ele>827.2</ele>
        <time>2022-10-15 09:00:43</time>
      </trkpt>
      <trkpt lat="38.73959" lon="-0.61734">
        <ele>827.4</ele>
        <time>2022-10-15 09:00:44</time>
      </trkpt>
      <trkpt lat="38.73964" lon="-0.61728">
        <ele>827.4</ele>
        <time>2022-10-15 09:00:45</time>
      </trkpt>
      <trkpt lat="38.73967" lon="-0.61724">
        <ele>827.6</ele>
        <time>2022-10-15 09:00:46</time>
      </trkpt>
      <trkpt lat="38.73969" lon="-0.61721">
        <ele>828</ele>
        <time>2022-10-15 09:00:47</time>
      </trkpt>
      <trkpt lat="38.73971" lon="-0.61717">
        <ele>828.2</ele>
        <time>2022-10-15 09:00:48</time>
      </trkpt>
      <trkpt lat="38.73973" lon="-0.61713">
        <ele>828.4</ele>
        <time>2022-10-15 09:00:49</time>
      </trkpt>
      <trkpt lat="38.73973" lon="-0.61713">
        <ele>828.6</ele>
        <time>2022-10-15 09:00:50</time>
      </trkpt>
      <trkpt lat="38.73978" lon="-0.61706">
        <ele>828.8</ele>
        <time>2022-10-15 09:00:51</time>
      </trkpt>
      <trkpt lat="38.73978" lon="-0.61706">
        <ele>829</ele>
        <time>2022-10-15 09:00:52</time>
      </trkpt>
      <trkpt lat="38.73982" lon="-0.61698">
        <ele>829</ele>
        <time>2022-10-15 09:00:53</time>
      </trkpt>
      <trkpt lat="38.73982" lon="-0.61698">
        <ele>829</ele>
        <time>2022-10-15 09:00:54</time>
      </trkpt>
      <trkpt lat="38.73985" lon="-0.61694">
        <ele>829</ele>
        <time>2022-10-15 09:00:55</time>
      </trkpt>
      <trkpt lat="38.73987" lon="-0.61691">
        <ele>829.2</ele>
        <time>2022-10-15 09:00:56</time>
      </trkpt>
      <trkpt lat="38.73992" lon="-0.61683">
        <ele>829.2</ele>
        <time>2022-10-15 09:00:57</time>
      </trkpt>
      <trkpt lat="38.73995" lon="-0.61679">
        <ele>829.2</ele>
        <time>2022-10-15 09:00:58</time>
      </trkpt>
      <trkpt lat="38.73995" lon="-0.61679">
        <ele>829.2</ele>
        <time>2022-10-15 09:00:59</time>
      </trkpt>
      <trkpt lat="38.73997" lon="-0.61674">
        <ele>829.2</ele>
        <time>2022-10-15 09:01:00</time>
      </trkpt>
      <trkpt lat="38.73999" lon="-0.6167">
        <ele>829.2</ele>
        <time>2022-10-15 09:01:01</time>
      </trkpt>
      <trkpt lat="38.74001" lon="-0.61665">
        <ele>829.4</ele>
        <time>2022-10-15 09:01:02</time>
      </trkpt>
      <trkpt lat="38.74002" lon="-0.6166">
        <ele>829.4</ele>
        <time>2022-10-15 09:01:03</time>
      </trkpt>
      <trkpt lat="38.74004" lon="-0.61656">
        <ele>829.4</ele>
        <time>2022-10-15 09:01:04</time>
      </trkpt>
      <trkpt lat="38.74008" lon="-0.61646">
        <ele>829.6</ele>
        <time>2022-10-15 09:01:05</time>
      </trkpt>
      <trkpt lat="38.7401" lon="-0.61642">
        <ele>829.6</ele>
        <time>2022-10-15 09:01:06</time>
      </trkpt>
      <trkpt lat="38.74012" lon="-0.61638">
        <ele>829.6</ele>
        <time>2022-10-15 09:01:07</time>
      </trkpt>
      <trkpt lat="38.74012" lon="-0.61638">
        <ele>829.6</ele>
        <time>2022-10-15 09:01:08</time>
      </trkpt>
      <trkpt lat="38.74013" lon="-0.61634">
        <ele>829.6</ele>
        <time>2022-10-15 09:01:09</time>
      </trkpt>
      <trkpt lat="38.74015" lon="-0.6163">
        <ele>829.6</ele>
        <time>2022-10-15 09:01:10</time>
      </trkpt>
      <trkpt lat="38.7402" lon="-0.61623">
        <ele>829.6</ele>
        <time>2022-10-15 09:01:11</time>
      </trkpt>
      <trkpt lat="38.74022" lon="-0.61619">
        <ele>829.8</ele>
        <time>2022-10-15 09:01:12</time>
      </trkpt>
      <trkpt lat="38.74022" lon="-0.61619">
        <ele>829.8</ele>
        <time>2022-10-15 09:01:13</time>
      </trkpt>
      <trkpt lat="38.74024" lon="-0.61615">
        <ele>829.8</ele>
        <time>2022-10-15 09:01:14</time>
      </trkpt>
      <trkpt lat="38.74026" lon="-0.61611">
        <ele>829.8</ele>
        <time>2022-10-15 09:01:15</time>
      </trkpt>
      <trkpt lat="38.74028" lon="-0.61607">
        <ele>829.8</ele>
        <time>2022-10-15 09:01:16</time>
      </trkpt>
      <trkpt lat="38.74031" lon="-0.61603">
        <ele>829.8</ele>
        <time>2022-10-15 09:01:17</time>
      </trkpt>
      <trkpt lat="38.74033" lon="-0.61599">
        <ele>829.8</ele>
        <time>2022-10-15 09:01:18</time>
      </trkpt>
      <trkpt lat="38.74034" lon="-0.61594">
        <ele>829.8</ele>
        <time>2022-10-15 09:01:19</time>
      </trkpt>
      <trkpt lat="38.74036" lon="-0.6159">
        <ele>829.8</ele>
        <time>2022-10-15 09:01:20</time>
      </trkpt>
      <trkpt lat="38.74038" lon="-0.61586">
        <ele>829.8</ele>
        <time>2022-10-15 09:01:21</time>
      </trkpt>
      <trkpt lat="38.74039" lon="-0.61582">
        <ele>829.6</ele>
        <time>2022-10-15 09:01:22</time>
      </trkpt>
      <trkpt lat="38.74041" lon="-0.61578">
        <ele>829.6</ele>
        <time>2022-10-15 09:01:23</time>
      </trkpt>
      <trkpt lat="38.74043" lon="-0.61573">
        <ele>830</ele>
        <time>2022-10-15 09:01:24</time>
      </trkpt>
      <trkpt lat="38.74044" lon="-0.61569">
        <ele>830</ele>
        <time>2022-10-15 09:01:25</time>
      </trkpt>
      <trkpt lat="38.74046" lon="-0.61564">
        <ele>830</ele>
        <time>2022-10-15 09:01:26</time>
      </trkpt>
      <trkpt lat="38.74047" lon="-0.6156">
        <ele>830.2</ele>
        <time>2022-10-15 09:01:27</time>
      </trkpt>
      <trkpt lat="38.74048" lon="-0.61555">
        <ele>830.2</ele>
        <time>2022-10-15 09:01:28</time>
      </trkpt>
      <trkpt lat="38.7405" lon="-0.61546">
        <ele>830.4</ele>
        <time>2022-10-15 09:01:29</time>
      </trkpt>
      <trkpt lat="38.74051" lon="-0.61541">
        <ele>830.4</ele>
        <time>2022-10-15 09:01:30</time>
      </trkpt>
      <trkpt lat="38.74051" lon="-0.61541">
        <ele>830.6</ele>
        <time>2022-10-15 09:01:31</time>
      </trkpt>
      <trkpt lat="38.74052" lon="-0.61536">
        <ele>830.6</ele>
        <time>2022-10-15 09:01:32</time>
      </trkpt>
      <trkpt lat="38.74052" lon="-0.61531">
        <ele>830.6</ele>
        <time>2022-10-15 09:01:33</time>
      </trkpt>
      <trkpt lat="38.74055" lon="-0.61521">
        <ele>830.6</ele>
        <time>2022-10-15 09:01:34</time>
      </trkpt>
      <trkpt lat="38.74055" lon="-0.61521">
        <ele>830.6</ele>
        <time>2022-10-15 09:01:35</time>
      </trkpt>
      <trkpt lat="38.74057" lon="-0.61516">
        <ele>830.6</ele>
        <time>2022-10-15 09:01:36</time>
      </trkpt>
      <trkpt lat="38.74059" lon="-0.6151">
        <ele>830.6</ele>
        <time>2022-10-15 09:01:37</time>
      </trkpt>
      <trkpt lat="38.7406" lon="-0.61504">
        <ele>830.6</ele>
        <time>2022-10-15 09:01:38</time>
      </trkpt>
      <trkpt lat="38.74062" lon="-0.61499">
        <ele>830.6</ele>
        <time>2022-10-15 09:01:39</time>
      </trkpt>
      <trkpt lat="38.74065" lon="-0.61493">
        <ele>830.4</ele>
        <time>2022-10-15 09:01:40</time>
      </trkpt>
      <trkpt lat="38.74067" lon="-0.61487">
        <ele>830.4</ele>
        <time>2022-10-15 09:01:41</time>
      </trkpt>
      <trkpt lat="38.74071" lon="-0.61476">
        <ele>830.4</ele>
        <time>2022-10-15 09:01:42</time>
      </trkpt>
      <trkpt lat="38.74071" lon="-0.61476">
        <ele>830.4</ele>
        <time>2022-10-15 09:01:43</time>
      </trkpt>
      <trkpt lat="38.74074" lon="-0.6147">
        <ele>830.4</ele>
        <time>2022-10-15 09:01:44</time>
      </trkpt>
      <trkpt lat="38.74077" lon="-0.61465">
        <ele>830.4</ele>
        <time>2022-10-15 09:01:45</time>
      </trkpt>
      <trkpt lat="38.74079" lon="-0.6146">
        <ele>830.4</ele>
        <time>2022-10-15 09:01:46</time>
      </trkpt>
      <trkpt lat="38.74082" lon="-0.61455">
        <ele>830.2</ele>
        <time>2022-10-15 09:01:47</time>
      </trkpt>
      <trkpt lat="38.74085" lon="-0.6145">
        <ele>830.2</ele>
        <time>2022-10-15 09:01:48</time>
      </trkpt>
      <trkpt lat="38.74088" lon="-0.61445">
        <ele>830.2</ele>
        <time>2022-10-15 09:01:49</time>
      </trkpt>
      <trkpt lat="38.74091" lon="-0.61441">
        <ele>830.2</ele>
        <time>2022-10-15 09:01:50</time>
      </trkpt>
      <trkpt lat="38.74096" lon="-0.61432">
        <ele>830.2</ele>
        <time>2022-10-15 09:01:51</time>
      </trkpt>
      <trkpt lat="38.74096" lon="-0.61432">
        <ele>830.2</ele>
        <time>2022-10-15 09:01:52</time>
      </trkpt>
      <trkpt lat="38.74099" lon="-0.61428">
        <ele>830.2</ele>
        <time>2022-10-15 09:01:53</time>
      </trkpt>
      <trkpt lat="38.74102" lon="-0.61424">
        <ele>830.2</ele>
        <time>2022-10-15 09:01:54</time>
      </trkpt>
      <trkpt lat="38.74105" lon="-0.6142">
        <ele>830.2</ele>
        <time>2022-10-15 09:01:55</time>
      </trkpt>
      <trkpt lat="38.74108" lon="-0.61416">
        <ele>830.2</ele>
        <time>2022-10-15 09:01:56</time>
      </trkpt>
      <trkpt lat="38.74115" lon="-0.61407">
        <ele>830.2</ele>
        <time>2022-10-15 09:01:57</time>
      </trkpt>
      <trkpt lat="38.74115" lon="-0.61407">
        <ele>830.2</ele>
        <time>2022-10-15 09:01:58</time>
      </trkpt>
      <trkpt lat="38.74118" lon="-0.61403">
        <ele>830</ele>
        <time>2022-10-15 09:01:59</time>
      </trkpt>
      <trkpt lat="38.74124" lon="-0.61394">
        <ele>830</ele>
        <time>2022-10-15 09:02:00</time>
      </trkpt>
      <trkpt lat="38.74127" lon="-0.6139">
        <ele>830</ele>
        <time>2022-10-15 09:02:01</time>
      </trkpt>
      <trkpt lat="38.74127" lon="-0.6139">
        <ele>830</ele>
        <time>2022-10-15 09:02:02</time>
      </trkpt>
      <trkpt lat="38.74131" lon="-0.61386">
        <ele>830</ele>
        <time>2022-10-15 09:02:03</time>
      </trkpt>
      <trkpt lat="38.74134" lon="-0.61382">
        <ele>830</ele>
        <time>2022-10-15 09:02:04</time>
      </trkpt>
      <trkpt lat="38.7414" lon="-0.61374">
        <ele>830</ele>
        <time>2022-10-15 09:02:05</time>
      </trkpt>
      <trkpt lat="38.74142" lon="-0.6137">
        <ele>830</ele>
        <time>2022-10-15 09:02:06</time>
      </trkpt>
      <trkpt lat="38.74145" lon="-0.61366">
        <ele>830</ele>
        <time>2022-10-15 09:02:07</time>
      </trkpt>
      <trkpt lat="38.74145" lon="-0.61366">
        <ele>829.8</ele>
        <time>2022-10-15 09:02:08</time>
      </trkpt>
      <trkpt lat="38.74147" lon="-0.61361">
        <ele>829.8</ele>
        <time>2022-10-15 09:02:09</time>
      </trkpt>
      <trkpt lat="38.7415" lon="-0.61357">
        <ele>829.8</ele>
        <time>2022-10-15 09:02:10</time>
      </trkpt>
      <trkpt lat="38.74153" lon="-0.61353">
        <ele>829.8</ele>
        <time>2022-10-15 09:02:11</time>
      </trkpt>
      <trkpt lat="38.74155" lon="-0.61349">
        <ele>829.8</ele>
        <time>2022-10-15 09:02:12</time>
      </trkpt>
      <trkpt lat="38.7416" lon="-0.6134">
        <ele>829.8</ele>
        <time>2022-10-15 09:02:13</time>
      </trkpt>
      <trkpt lat="38.7416" lon="-0.6134">
        <ele>829.8</ele>
        <time>2022-10-15 09:02:14</time>
      </trkpt>
      <trkpt lat="38.74165" lon="-0.61332">
        <ele>829.8</ele>
        <time>2022-10-15 09:02:15</time>
      </trkpt>
      <trkpt lat="38.74167" lon="-0.61327">
        <ele>829.8</ele>
        <time>2022-10-15 09:02:16</time>
      </trkpt>
      <trkpt lat="38.74169" lon="-0.61323">
        <ele>829.8</ele>
        <time>2022-10-15 09:02:17</time>
      </trkpt>
      <trkpt lat="38.74172" lon="-0.61318">
        <ele>829.6</ele>
        <time>2022-10-15 09:02:18</time>
      </trkpt>
      <trkpt lat="38.74174" lon="-0.61313">
        <ele>829.6</ele>
        <time>2022-10-15 09:02:19</time>
      </trkpt>
      <trkpt lat="38.74174" lon="-0.61313">
        <ele>829.6</ele>
        <time>2022-10-15 09:02:20</time>
      </trkpt>
      <trkpt lat="38.74176" lon="-0.61308">
        <ele>829.6</ele>
        <time>2022-10-15 09:02:21</time>
      </trkpt>
      <trkpt lat="38.74181" lon="-0.61298">
        <ele>829.6</ele>
        <time>2022-10-15 09:02:23</time>
      </trkpt>
      <trkpt lat="38.74185" lon="-0.61289">
        <ele>829.4</ele>
        <time>2022-10-15 09:02:25</time>
      </trkpt>
      <trkpt lat="38.74189" lon="-0.61279">
        <ele>829.2</ele>
        <time>2022-10-15 09:02:27</time>
      </trkpt>
      <trkpt lat="38.74192" lon="-0.61273">
        <ele>829</ele>
        <time>2022-10-15 09:02:28</time>
      </trkpt>
      <trkpt lat="38.74196" lon="-0.61263">
        <ele>828.8</ele>
        <time>2022-10-15 09:02:30</time>
      </trkpt>
      <trkpt lat="38.742" lon="-0.61252">
        <ele>828.6</ele>
        <time>2022-10-15 09:02:32</time>
      </trkpt>
      <trkpt lat="38.74203" lon="-0.61242">
        <ele>828.4</ele>
        <time>2022-10-15 09:02:34</time>
      </trkpt>
      <trkpt lat="38.74206" lon="-0.61237">
        <ele>828.2</ele>
        <time>2022-10-15 09:02:35</time>
      </trkpt>
      <trkpt lat="38.74212" lon="-0.61229">
        <ele>827.8</ele>
        <time>2022-10-15 09:02:37</time>
      </trkpt>
      <trkpt lat="38.74216" lon="-0.61226">
        <ele>827.6</ele>
        <time>2022-10-15 09:02:38</time>
      </trkpt>
      <trkpt lat="38.7422" lon="-0.61222">
        <ele>827.4</ele>
        <time>2022-10-15 09:02:39</time>
      </trkpt>
      <trkpt lat="38.74223" lon="-0.61219">
        <ele>827.4</ele>
        <time>2022-10-15 09:02:40</time>
      </trkpt>
      <trkpt lat="38.74226" lon="-0.61216">
        <ele>827.4</ele>
        <time>2022-10-15 09:02:41</time>
      </trkpt>
      <trkpt lat="38.74229" lon="-0.61212">
        <ele>827.2</ele>
        <time>2022-10-15 09:02:42</time>
      </trkpt>
      <trkpt lat="38.74235" lon="-0.61206">
        <ele>826.8</ele>
        <time>2022-10-15 09:02:44</time>
      </trkpt>
      <trkpt lat="38.74239" lon="-0.61202">
        <ele>826.6</ele>
        <time>2022-10-15 09:02:46</time>
      </trkpt>
      <trkpt lat="38.74242" lon="-0.61197">
        <ele>826.6</ele>
        <time>2022-10-15 09:02:48</time>
      </trkpt>
      <trkpt lat="38.74243" lon="-0.61195">
        <ele>826.6</ele>
        <time>2022-10-15 09:02:49</time>
      </trkpt>
      <trkpt lat="38.74244" lon="-0.61194">
        <ele>826.4</ele>
        <time>2022-10-15 09:02:50</time>
      </trkpt>
      <trkpt lat="38.74245" lon="-0.61192">
        <ele>826.4</ele>
        <time>2022-10-15 09:02:51</time>
      </trkpt>
      <trkpt lat="38.74246" lon="-0.61188">
        <ele>826.4</ele>
        <time>2022-10-15 09:02:53</time>
      </trkpt>
      <trkpt lat="38.74249" lon="-0.61185">
        <ele>826.2</ele>
        <time>2022-10-15 09:02:55</time>
      </trkpt>
      <trkpt lat="38.7425" lon="-0.61182">
        <ele>826.2</ele>
        <time>2022-10-15 09:02:56</time>
      </trkpt>
      <trkpt lat="38.74252" lon="-0.61174">
        <ele>826.2</ele>
        <time>2022-10-15 09:02:58</time>
      </trkpt>
      <trkpt lat="38.74252" lon="-0.61174">
        <ele>826</ele>
        <time>2022-10-15 09:02:59</time>
      </trkpt>
      <trkpt lat="38.74251" lon="-0.61171">
        <ele>826</ele>
        <time>2022-10-15 09:03:00</time>
      </trkpt>
      <trkpt lat="38.74246" lon="-0.61167">
        <ele>826</ele>
        <time>2022-10-15 09:03:02</time>
      </trkpt>
      <trkpt lat="38.74243" lon="-0.61166">
        <ele>825.8</ele>
        <time>2022-10-15 09:03:03</time>
      </trkpt>
      <trkpt lat="38.74239" lon="-0.61165">
        <ele>825.8</ele>
        <time>2022-10-15 09:03:04</time>
      </trkpt>
      <trkpt lat="38.74235" lon="-0.61163">
        <ele>825.8</ele>
        <time>2022-10-15 09:03:05</time>
      </trkpt>
      <trkpt lat="38.7423" lon="-0.61162">
        <ele>825.8</ele>
        <time>2022-10-15 09:03:06</time>
      </trkpt>
      <trkpt lat="38.74226" lon="-0.61161">
        <ele>825.6</ele>
        <time>2022-10-15 09:03:07</time>
      </trkpt>
      <trkpt lat="38.74221" lon="-0.6116">
        <ele>825.4</ele>
        <time>2022-10-15 09:03:08</time>
      </trkpt>
      <trkpt lat="38.74217" lon="-0.61159">
        <ele>825.4</ele>
        <time>2022-10-15 09:03:09</time>
      </trkpt>
      <trkpt lat="38.74212" lon="-0.61158">
        <ele>825.2</ele>
        <time>2022-10-15 09:03:10</time>
      </trkpt>
      <trkpt lat="38.74207" lon="-0.61158">
        <ele>825.2</ele>
        <time>2022-10-15 09:03:11</time>
      </trkpt>
      <trkpt lat="38.74203" lon="-0.61156">
        <ele>825</ele>
        <time>2022-10-15 09:03:12</time>
      </trkpt>
      <trkpt lat="38.74198" lon="-0.61155">
        <ele>825</ele>
        <time>2022-10-15 09:03:13</time>
      </trkpt>
      <trkpt lat="38.74193" lon="-0.61154">
        <ele>825</ele>
        <time>2022-10-15 09:03:14</time>
      </trkpt>
      <trkpt lat="38.74189" lon="-0.61153">
        <ele>825</ele>
        <time>2022-10-15 09:03:15</time>
      </trkpt>
      <trkpt lat="38.74184" lon="-0.61153">
        <ele>825</ele>
        <time>2022-10-15 09:03:16</time>
      </trkpt>
      <trkpt lat="38.74179" lon="-0.61151">
        <ele>824.8</ele>
        <time>2022-10-15 09:03:17</time>
      </trkpt>
      <trkpt lat="38.74175" lon="-0.6115">
        <ele>824.8</ele>
        <time>2022-10-15 09:03:18</time>
      </trkpt>
      <trkpt lat="38.7417" lon="-0.61149">
        <ele>824.8</ele>
        <time>2022-10-15 09:03:19</time>
      </trkpt>
      <trkpt lat="38.74166" lon="-0.61148">
        <ele>824.8</ele>
        <time>2022-10-15 09:03:20</time>
      </trkpt>
      <trkpt lat="38.7416" lon="-0.61147">
        <ele>824.8</ele>
        <time>2022-10-15 09:03:21</time>
      </trkpt>
      <trkpt lat="38.74155" lon="-0.61145">
        <ele>824.8</ele>
        <time>2022-10-15 09:03:22</time>
      </trkpt>
      <trkpt lat="38.7415" lon="-0.61144">
        <ele>824.8</ele>
        <time>2022-10-15 09:03:23</time>
      </trkpt>
      <trkpt lat="38.7414" lon="-0.61143">
        <ele>824.6</ele>
        <time>2022-10-15 09:03:24</time>
      </trkpt>
      <trkpt lat="38.7414" lon="-0.61143">
        <ele>824.6</ele>
        <time>2022-10-15 09:03:25</time>
      </trkpt>
      <trkpt lat="38.74135" lon="-0.61142">
        <ele>824.6</ele>
        <time>2022-10-15 09:03:26</time>
      </trkpt>
      <trkpt lat="38.7413" lon="-0.61142">
        <ele>824.6</ele>
        <time>2022-10-15 09:03:27</time>
      </trkpt>
      <trkpt lat="38.74124" lon="-0.61142">
        <ele>824.6</ele>
        <time>2022-10-15 09:03:28</time>
      </trkpt>
      <trkpt lat="38.74119" lon="-0.61142">
        <ele>824.6</ele>
        <time>2022-10-15 09:03:29</time>
      </trkpt>
      <trkpt lat="38.74113" lon="-0.61142">
        <ele>824.6</ele>
        <time>2022-10-15 09:03:30</time>
      </trkpt>
      <trkpt lat="38.74103" lon="-0.61143">
        <ele>824.4</ele>
        <time>2022-10-15 09:03:31</time>
      </trkpt>
      <trkpt lat="38.74103" lon="-0.61143">
        <ele>824.4</ele>
        <time>2022-10-15 09:03:32</time>
      </trkpt>
      <trkpt lat="38.74099" lon="-0.61144">
        <ele>824.4</ele>
        <time>2022-10-15 09:03:33</time>
      </trkpt>
      <trkpt lat="38.74094" lon="-0.61145">
        <ele>824.4</ele>
        <time>2022-10-15 09:03:34</time>
      </trkpt>
      <trkpt lat="38.74085" lon="-0.61146">
        <ele>824.4</ele>
        <time>2022-10-15 09:03:35</time>
      </trkpt>
      <trkpt lat="38.74081" lon="-0.61147">
        <ele>824.2</ele>
        <time>2022-10-15 09:03:36</time>
      </trkpt>
      <trkpt lat="38.74081" lon="-0.61147">
        <ele>824.2</ele>
        <time>2022-10-15 09:03:37</time>
      </trkpt>
      <trkpt lat="38.74077" lon="-0.61148">
        <ele>824.2</ele>
        <time>2022-10-15 09:03:38</time>
      </trkpt>
      <trkpt lat="38.74072" lon="-0.61149">
        <ele>824.2</ele>
        <time>2022-10-15 09:03:39</time>
      </trkpt>
      <trkpt lat="38.74068" lon="-0.61149">
        <ele>824.2</ele>
        <time>2022-10-15 09:03:40</time>
      </trkpt>
      <trkpt lat="38.74063" lon="-0.6115">
        <ele>824.2</ele>
        <time>2022-10-15 09:03:41</time>
      </trkpt>
      <trkpt lat="38.74059" lon="-0.6115">
        <ele>824</ele>
        <time>2022-10-15 09:03:42</time>
      </trkpt>
      <trkpt lat="38.74054" lon="-0.61151">
        <ele>824</ele>
        <time>2022-10-15 09:03:43</time>
      </trkpt>
      <trkpt lat="38.74049" lon="-0.61151">
        <ele>824</ele>
        <time>2022-10-15 09:03:44</time>
      </trkpt>
      <trkpt lat="38.74045" lon="-0.61152">
        <ele>823.8</ele>
        <time>2022-10-15 09:03:45</time>
      </trkpt>
      <trkpt lat="38.7404" lon="-0.61152">
        <ele>823.8</ele>
        <time>2022-10-15 09:03:46</time>
      </trkpt>
      <trkpt lat="38.74036" lon="-0.61152">
        <ele>823.8</ele>
        <time>2022-10-15 09:03:47</time>
      </trkpt>
      <trkpt lat="38.74032" lon="-0.61153">
        <ele>823.8</ele>
        <time>2022-10-15 09:03:48</time>
      </trkpt>
      <trkpt lat="38.74027" lon="-0.61153">
        <ele>823.6</ele>
        <time>2022-10-15 09:03:49</time>
      </trkpt>
      <trkpt lat="38.74023" lon="-0.61153">
        <ele>823.6</ele>
        <time>2022-10-15 09:03:50</time>
      </trkpt>
      <trkpt lat="38.74018" lon="-0.61154">
        <ele>823.6</ele>
        <time>2022-10-15 09:03:51</time>
      </trkpt>
      <trkpt lat="38.74014" lon="-0.61154">
        <ele>823.6</ele>
        <time>2022-10-15 09:03:52</time>
      </trkpt>
      <trkpt lat="38.74009" lon="-0.61154">
        <ele>823.6</ele>
        <time>2022-10-15 09:03:53</time>
      </trkpt>
      <trkpt lat="38.74005" lon="-0.61155">
        <ele>823.4</ele>
        <time>2022-10-15 09:03:54</time>
      </trkpt>
      <trkpt lat="38.74" lon="-0.61155">
        <ele>823.4</ele>
        <time>2022-10-15 09:03:55</time>
      </trkpt>
      <trkpt lat="38.73995" lon="-0.61156">
        <ele>823.2</ele>
        <time>2022-10-15 09:03:56</time>
      </trkpt>
      <trkpt lat="38.7399" lon="-0.61156">
        <ele>823.2</ele>
        <time>2022-10-15 09:03:57</time>
      </trkpt>
      <trkpt lat="38.73985" lon="-0.61156">
        <ele>823</ele>
        <time>2022-10-15 09:03:58</time>
      </trkpt>
      <trkpt lat="38.73974" lon="-0.61155">
        <ele>822.8</ele>
        <time>2022-10-15 09:03:59</time>
      </trkpt>
      <trkpt lat="38.73974" lon="-0.61155">
        <ele>822.8</ele>
        <time>2022-10-15 09:04:00</time>
      </trkpt>
      <trkpt lat="38.73969" lon="-0.61155">
        <ele>822.6</ele>
        <time>2022-10-15 09:04:01</time>
      </trkpt>
      <trkpt lat="38.73963" lon="-0.61156">
        <ele>822.2</ele>
        <time>2022-10-15 09:04:02</time>
      </trkpt>
      <trkpt lat="38.73952" lon="-0.61157">
        <ele>822</ele>
        <time>2022-10-15 09:04:03</time>
      </trkpt>
      <trkpt lat="38.73947" lon="-0.61157">
        <ele>821.8</ele>
        <time>2022-10-15 09:04:04</time>
      </trkpt>
      <trkpt lat="38.73942" lon="-0.61157">
        <ele>821.4</ele>
        <time>2022-10-15 09:04:05</time>
      </trkpt>
      <trkpt lat="38.73936" lon="-0.61156">
        <ele>821</ele>
        <time>2022-10-15 09:04:06</time>
      </trkpt>
      <trkpt lat="38.73936" lon="-0.61156">
        <ele>820.8</ele>
        <time>2022-10-15 09:04:07</time>
      </trkpt>
      <trkpt lat="38.73931" lon="-0.61156">
        <ele>820.4</ele>
        <time>2022-10-15 09:04:08</time>
      </trkpt>
      <trkpt lat="38.73925" lon="-0.61155">
        <ele>820.2</ele>
        <time>2022-10-15 09:04:09</time>
      </trkpt>
      <trkpt lat="38.73919" lon="-0.61154">
        <ele>820.2</ele>
        <time>2022-10-15 09:04:10</time>
      </trkpt>
      <trkpt lat="38.73908" lon="-0.6115">
        <ele>819.8</ele>
        <time>2022-10-15 09:04:11</time>
      </trkpt>
      <trkpt lat="38.73902" lon="-0.61149">
        <ele>819.6</ele>
        <time>2022-10-15 09:04:12</time>
      </trkpt>
      <trkpt lat="38.73902" lon="-0.61149">
        <ele>819.4</ele>
        <time>2022-10-15 09:04:13</time>
      </trkpt>
      <trkpt lat="38.73897" lon="-0.61148">
        <ele>819.2</ele>
        <time>2022-10-15 09:04:14</time>
      </trkpt>
      <trkpt lat="38.73892" lon="-0.61148">
        <ele>818.8</ele>
        <time>2022-10-15 09:04:15</time>
      </trkpt>
      <trkpt lat="38.73883" lon="-0.61147">
        <ele>818.4</ele>
        <time>2022-10-15 09:04:16</time>
      </trkpt>
      <trkpt lat="38.73879" lon="-0.61146">
        <ele>818</ele>
        <time>2022-10-15 09:04:17</time>
      </trkpt>
      <trkpt lat="38.73874" lon="-0.61145">
        <ele>817.8</ele>
        <time>2022-10-15 09:04:18</time>
      </trkpt>
      <trkpt lat="38.7387" lon="-0.61144">
        <ele>817.8</ele>
        <time>2022-10-15 09:04:19</time>
      </trkpt>
      <trkpt lat="38.7387" lon="-0.61144">
        <ele>817.8</ele>
        <time>2022-10-15 09:04:20</time>
      </trkpt>
      <trkpt lat="38.73862" lon="-0.61141">
        <ele>817.8</ele>
        <time>2022-10-15 09:04:21</time>
      </trkpt>
      <trkpt lat="38.73862" lon="-0.61141">
        <ele>817.6</ele>
        <time>2022-10-15 09:04:22</time>
      </trkpt>
      <trkpt lat="38.73858" lon="-0.6114">
        <ele>817.6</ele>
        <time>2022-10-15 09:04:23</time>
      </trkpt>
      <trkpt lat="38.73855" lon="-0.61139">
        <ele>817.6</ele>
        <time>2022-10-15 09:04:24</time>
      </trkpt>
      <trkpt lat="38.73852" lon="-0.61137">
        <ele>817.6</ele>
        <time>2022-10-15 09:04:25</time>
      </trkpt>
      <trkpt lat="38.73848" lon="-0.61136">
        <ele>817.6</ele>
        <time>2022-10-15 09:04:26</time>
      </trkpt>
      <trkpt lat="38.73843" lon="-0.61135">
        <ele>817.6</ele>
        <time>2022-10-15 09:04:27</time>
      </trkpt>
      <trkpt lat="38.73838" lon="-0.61134">
        <ele>817.6</ele>
        <time>2022-10-15 09:04:28</time>
      </trkpt>
      <trkpt lat="38.73833" lon="-0.61133">
        <ele>817.6</ele>
        <time>2022-10-15 09:04:29</time>
      </trkpt>
      <trkpt lat="38.73822" lon="-0.61134">
        <ele>817.6</ele>
        <time>2022-10-15 09:04:30</time>
      </trkpt>
      <trkpt lat="38.73822" lon="-0.61134">
        <ele>817.6</ele>
        <time>2022-10-15 09:04:31</time>
      </trkpt>
      <trkpt lat="38.73816" lon="-0.61135">
        <ele>817.6</ele>
        <time>2022-10-15 09:04:32</time>
      </trkpt>
      <trkpt lat="38.73811" lon="-0.61136">
        <ele>817.6</ele>
        <time>2022-10-15 09:04:33</time>
      </trkpt>
      <trkpt lat="38.73804" lon="-0.61137">
        <ele>817.4</ele>
        <time>2022-10-15 09:04:34</time>
      </trkpt>
      <trkpt lat="38.73797" lon="-0.61138">
        <ele>817.4</ele>
        <time>2022-10-15 09:04:35</time>
      </trkpt>
      <trkpt lat="38.7379" lon="-0.61139">
        <ele>817.4</ele>
        <time>2022-10-15 09:04:36</time>
      </trkpt>
      <trkpt lat="38.73782" lon="-0.61139">
        <ele>817.2</ele>
        <time>2022-10-15 09:04:37</time>
      </trkpt>
      <trkpt lat="38.73775" lon="-0.61138">
        <ele>816.8</ele>
        <time>2022-10-15 09:04:38</time>
      </trkpt>
      <trkpt lat="38.73767" lon="-0.61136">
        <ele>816</ele>
        <time>2022-10-15 09:04:39</time>
      </trkpt>
      <trkpt lat="38.7376" lon="-0.61134">
        <ele>815.4</ele>
        <time>2022-10-15 09:04:40</time>
      </trkpt>
      <trkpt lat="38.73754" lon="-0.61131">
        <ele>814.8</ele>
        <time>2022-10-15 09:04:41</time>
      </trkpt>
      <trkpt lat="38.73748" lon="-0.61129">
        <ele>814.2</ele>
        <time>2022-10-15 09:04:42</time>
      </trkpt>
      <trkpt lat="38.73742" lon="-0.61125">
        <ele>813.8</ele>
        <time>2022-10-15 09:04:43</time>
      </trkpt>
      <trkpt lat="38.73737" lon="-0.61122">
        <ele>813</ele>
        <time>2022-10-15 09:04:44</time>
      </trkpt>
      <trkpt lat="38.73733" lon="-0.61118">
        <ele>812.6</ele>
        <time>2022-10-15 09:04:45</time>
      </trkpt>
      <trkpt lat="38.73729" lon="-0.61114">
        <ele>812.6</ele>
        <time>2022-10-15 09:04:46</time>
      </trkpt>
      <trkpt lat="38.73725" lon="-0.6111">
        <ele>812.4</ele>
        <time>2022-10-15 09:04:47</time>
      </trkpt>
      <trkpt lat="38.73722" lon="-0.61105">
        <ele>812.4</ele>
        <time>2022-10-15 09:04:48</time>
      </trkpt>
      <trkpt lat="38.73719" lon="-0.61101">
        <ele>812.4</ele>
        <time>2022-10-15 09:04:49</time>
      </trkpt>
      <trkpt lat="38.73716" lon="-0.61096">
        <ele>812.4</ele>
        <time>2022-10-15 09:04:50</time>
      </trkpt>
      <trkpt lat="38.7371" lon="-0.61086">
        <ele>812.4</ele>
        <time>2022-10-15 09:04:51</time>
      </trkpt>
      <trkpt lat="38.7371" lon="-0.61086">
        <ele>812.4</ele>
        <time>2022-10-15 09:04:52</time>
      </trkpt>
      <trkpt lat="38.73705" lon="-0.61077">
        <ele>812.4</ele>
        <time>2022-10-15 09:04:53</time>
      </trkpt>
      <trkpt lat="38.73702" lon="-0.61073">
        <ele>812.4</ele>
        <time>2022-10-15 09:04:54</time>
      </trkpt>
      <trkpt lat="38.73702" lon="-0.61073">
        <ele>812.6</ele>
        <time>2022-10-15 09:04:55</time>
      </trkpt>
      <trkpt lat="38.737" lon="-0.61069">
        <ele>812.8</ele>
        <time>2022-10-15 09:04:56</time>
      </trkpt>
      <trkpt lat="38.73697" lon="-0.61064">
        <ele>813</ele>
        <time>2022-10-15 09:04:57</time>
      </trkpt>
      <trkpt lat="38.73694" lon="-0.6106">
        <ele>813.2</ele>
        <time>2022-10-15 09:04:58</time>
      </trkpt>
      <trkpt lat="38.73691" lon="-0.61055">
        <ele>813.2</ele>
        <time>2022-10-15 09:04:59</time>
      </trkpt>
      <trkpt lat="38.73688" lon="-0.6105">
        <ele>813.4</ele>
        <time>2022-10-15 09:05:00</time>
      </trkpt>
      <trkpt lat="38.73684" lon="-0.61045">
        <ele>813.4</ele>
        <time>2022-10-15 09:05:01</time>
      </trkpt>
      <trkpt lat="38.7368" lon="-0.61041">
        <ele>813.4</ele>
        <time>2022-10-15 09:05:02</time>
      </trkpt>
      <trkpt lat="38.73676" lon="-0.61036">
        <ele>813.4</ele>
        <time>2022-10-15 09:05:03</time>
      </trkpt>
      <trkpt lat="38.73672" lon="-0.61032">
        <ele>813.4</ele>
        <time>2022-10-15 09:05:04</time>
      </trkpt>
      <trkpt lat="38.73667" lon="-0.61028">
        <ele>813.4</ele>
        <time>2022-10-15 09:05:05</time>
      </trkpt>
      <trkpt lat="38.73662" lon="-0.61024">
        <ele>813.4</ele>
        <time>2022-10-15 09:05:06</time>
      </trkpt>
      <trkpt lat="38.73657" lon="-0.61021">
        <ele>813.4</ele>
        <time>2022-10-15 09:05:07</time>
      </trkpt>
      <trkpt lat="38.73652" lon="-0.61018">
        <ele>813.4</ele>
        <time>2022-10-15 09:05:08</time>
      </trkpt>
      <trkpt lat="38.73646" lon="-0.61015">
        <ele>813.4</ele>
        <time>2022-10-15 09:05:09</time>
      </trkpt>
      <trkpt lat="38.7364" lon="-0.61013">
        <ele>813.4</ele>
        <time>2022-10-15 09:05:10</time>
      </trkpt>
      <trkpt lat="38.73633" lon="-0.6101">
        <ele>813.4</ele>
        <time>2022-10-15 09:05:11</time>
      </trkpt>
      <trkpt lat="38.73627" lon="-0.61008">
        <ele>813.2</ele>
        <time>2022-10-15 09:05:12</time>
      </trkpt>
      <trkpt lat="38.73621" lon="-0.61005">
        <ele>813.2</ele>
        <time>2022-10-15 09:05:13</time>
      </trkpt>
      <trkpt lat="38.73614" lon="-0.61003">
        <ele>813</ele>
        <time>2022-10-15 09:05:14</time>
      </trkpt>
      <trkpt lat="38.73608" lon="-0.61">
        <ele>812.6</ele>
        <time>2022-10-15 09:05:15</time>
      </trkpt>
      <trkpt lat="38.73601" lon="-0.60998">
        <ele>812.4</ele>
        <time>2022-10-15 09:05:16</time>
      </trkpt>
      <trkpt lat="38.73594" lon="-0.60995">
        <ele>812</ele>
        <time>2022-10-15 09:05:17</time>
      </trkpt>
      <trkpt lat="38.7358" lon="-0.60991">
        <ele>811.4</ele>
        <time>2022-10-15 09:05:18</time>
      </trkpt>
      <trkpt lat="38.7358" lon="-0.60991">
        <ele>811</ele>
        <time>2022-10-15 09:05:19</time>
      </trkpt>
      <trkpt lat="38.73573" lon="-0.6099">
        <ele>810.6</ele>
        <time>2022-10-15 09:05:20</time>
      </trkpt>
      <trkpt lat="38.73565" lon="-0.60989">
        <ele>810.2</ele>
        <time>2022-10-15 09:05:21</time>
      </trkpt>
      <trkpt lat="38.73558" lon="-0.60987">
        <ele>809.8</ele>
        <time>2022-10-15 09:05:22</time>
      </trkpt>
      <trkpt lat="38.73551" lon="-0.60984">
        <ele>809.4</ele>
        <time>2022-10-15 09:05:23</time>
      </trkpt>
      <trkpt lat="38.73544" lon="-0.60981">
        <ele>809.2</ele>
        <time>2022-10-15 09:05:24</time>
      </trkpt>
      <trkpt lat="38.73537" lon="-0.60979">
        <ele>808.6</ele>
        <time>2022-10-15 09:05:25</time>
      </trkpt>
      <trkpt lat="38.73529" lon="-0.60978">
        <ele>808.4</ele>
        <time>2022-10-15 09:05:26</time>
      </trkpt>
      <trkpt lat="38.7352" lon="-0.60977">
        <ele>808</ele>
        <time>2022-10-15 09:05:27</time>
      </trkpt>
      <trkpt lat="38.73511" lon="-0.60978">
        <ele>807.8</ele>
        <time>2022-10-15 09:05:28</time>
      </trkpt>
      <trkpt lat="38.73502" lon="-0.60978">
        <ele>807.6</ele>
        <time>2022-10-15 09:05:29</time>
      </trkpt>
      <trkpt lat="38.73493" lon="-0.60979">
        <ele>806.8</ele>
        <time>2022-10-15 09:05:30</time>
      </trkpt>
      <trkpt lat="38.73484" lon="-0.6098">
        <ele>806</ele>
        <time>2022-10-15 09:05:31</time>
      </trkpt>
      <trkpt lat="38.73475" lon="-0.60979">
        <ele>805.6</ele>
        <time>2022-10-15 09:05:32</time>
      </trkpt>
      <trkpt lat="38.73467" lon="-0.60979">
        <ele>805.2</ele>
        <time>2022-10-15 09:05:33</time>
      </trkpt>
      <trkpt lat="38.73458" lon="-0.60978">
        <ele>804.8</ele>
        <time>2022-10-15 09:05:34</time>
      </trkpt>
      <trkpt lat="38.73449" lon="-0.60977">
        <ele>804</ele>
        <time>2022-10-15 09:05:35</time>
      </trkpt>
      <trkpt lat="38.7344" lon="-0.60977">
        <ele>802.4</ele>
        <time>2022-10-15 09:05:36</time>
      </trkpt>
      <trkpt lat="38.73432" lon="-0.60977">
        <ele>801.8</ele>
        <time>2022-10-15 09:05:37</time>
      </trkpt>
      <trkpt lat="38.73416" lon="-0.60983">
        <ele>800.8</ele>
        <time>2022-10-15 09:05:39</time>
      </trkpt>
      <trkpt lat="38.7341" lon="-0.60989">
        <ele>800.6</ele>
        <time>2022-10-15 09:05:40</time>
      </trkpt>
      <trkpt lat="38.73398" lon="-0.61009">
        <ele>800.4</ele>
        <time>2022-10-15 09:05:42</time>
      </trkpt>
      <trkpt lat="38.73396" lon="-0.61015">
        <ele>800.2</ele>
        <time>2022-10-15 09:05:43</time>
      </trkpt>
      <trkpt lat="38.73396" lon="-0.61015">
        <ele>800.2</ele>
        <time>2022-10-15 09:05:44</time>
      </trkpt>
      <trkpt lat="38.73393" lon="-0.61021">
        <ele>800.2</ele>
        <time>2022-10-15 09:05:45</time>
      </trkpt>
      <trkpt lat="38.73391" lon="-0.61026">
        <ele>800.2</ele>
        <time>2022-10-15 09:05:46</time>
      </trkpt>
      <trkpt lat="38.73388" lon="-0.61031">
        <ele>800.2</ele>
        <time>2022-10-15 09:05:47</time>
      </trkpt>
      <trkpt lat="38.73385" lon="-0.61035">
        <ele>800.2</ele>
        <time>2022-10-15 09:05:48</time>
      </trkpt>
      <trkpt lat="38.73382" lon="-0.6104">
        <ele>800.2</ele>
        <time>2022-10-15 09:05:49</time>
      </trkpt>
      <trkpt lat="38.73378" lon="-0.61044">
        <ele>800.6</ele>
        <time>2022-10-15 09:05:50</time>
      </trkpt>
      <trkpt lat="38.73375" lon="-0.61048">
        <ele>800.6</ele>
        <time>2022-10-15 09:05:51</time>
      </trkpt>
      <trkpt lat="38.73371" lon="-0.61052">
        <ele>800.6</ele>
        <time>2022-10-15 09:05:52</time>
      </trkpt>
      <trkpt lat="38.73368" lon="-0.61056">
        <ele>800.6</ele>
        <time>2022-10-15 09:05:53</time>
      </trkpt>
      <trkpt lat="38.73364" lon="-0.6106">
        <ele>800.8</ele>
        <time>2022-10-15 09:05:54</time>
      </trkpt>
      <trkpt lat="38.7336" lon="-0.61063">
        <ele>800.8</ele>
        <time>2022-10-15 09:05:55</time>
      </trkpt>
      <trkpt lat="38.73356" lon="-0.61066">
        <ele>800.8</ele>
        <time>2022-10-15 09:05:56</time>
      </trkpt>
      <trkpt lat="38.73351" lon="-0.61067">
        <ele>800.8</ele>
        <time>2022-10-15 09:05:57</time>
      </trkpt>
      <trkpt lat="38.73346" lon="-0.61069">
        <ele>801</ele>
        <time>2022-10-15 09:05:58</time>
      </trkpt>
      <trkpt lat="38.73341" lon="-0.61069">
        <ele>801</ele>
        <time>2022-10-15 09:05:59</time>
      </trkpt>
      <trkpt lat="38.73336" lon="-0.6107">
        <ele>801</ele>
        <time>2022-10-15 09:06:00</time>
      </trkpt>
      <trkpt lat="38.73331" lon="-0.61069">
        <ele>801</ele>
        <time>2022-10-15 09:06:01</time>
      </trkpt>
      <trkpt lat="38.73325" lon="-0.61069">
        <ele>801</ele>
        <time>2022-10-15 09:06:02</time>
      </trkpt>
      <trkpt lat="38.7332" lon="-0.6107">
        <ele>801</ele>
        <time>2022-10-15 09:06:03</time>
      </trkpt>
      <trkpt lat="38.73314" lon="-0.61071">
        <ele>801</ele>
        <time>2022-10-15 09:06:04</time>
      </trkpt>
      <trkpt lat="38.73309" lon="-0.61073">
        <ele>801</ele>
        <time>2022-10-15 09:06:05</time>
      </trkpt>
      <trkpt lat="38.73299" lon="-0.61078">
        <ele>801</ele>
        <time>2022-10-15 09:06:06</time>
      </trkpt>
      <trkpt lat="38.73294" lon="-0.61081">
        <ele>801</ele>
        <time>2022-10-15 09:06:07</time>
      </trkpt>
      <trkpt lat="38.73294" lon="-0.61081">
        <ele>801</ele>
        <time>2022-10-15 09:06:08</time>
      </trkpt>
      <trkpt lat="38.73289" lon="-0.61084">
        <ele>801</ele>
        <time>2022-10-15 09:06:09</time>
      </trkpt>
      <trkpt lat="38.73285" lon="-0.61088">
        <ele>801</ele>
        <time>2022-10-15 09:06:10</time>
      </trkpt>
      <trkpt lat="38.73281" lon="-0.61092">
        <ele>800.8</ele>
        <time>2022-10-15 09:06:11</time>
      </trkpt>
      <trkpt lat="38.73278" lon="-0.61097">
        <ele>800.8</ele>
        <time>2022-10-15 09:06:12</time>
      </trkpt>
      <trkpt lat="38.73275" lon="-0.61103">
        <ele>800.6</ele>
        <time>2022-10-15 09:06:13</time>
      </trkpt>
      <trkpt lat="38.73272" lon="-0.61109">
        <ele>800.6</ele>
        <time>2022-10-15 09:06:14</time>
      </trkpt>
      <trkpt lat="38.73269" lon="-0.61116">
        <ele>800.6</ele>
        <time>2022-10-15 09:06:15</time>
      </trkpt>
      <trkpt lat="38.73266" lon="-0.61123">
        <ele>800.6</ele>
        <time>2022-10-15 09:06:16</time>
      </trkpt>
      <trkpt lat="38.73261" lon="-0.61139">
        <ele>800.6</ele>
        <time>2022-10-15 09:06:17</time>
      </trkpt>
      <trkpt lat="38.73259" lon="-0.61148">
        <ele>800.6</ele>
        <time>2022-10-15 09:06:18</time>
      </trkpt>
      <trkpt lat="38.73258" lon="-0.61157">
        <ele>800.6</ele>
        <time>2022-10-15 09:06:19</time>
      </trkpt>
      <trkpt lat="38.73258" lon="-0.61157">
        <ele>800.4</ele>
        <time>2022-10-15 09:06:20</time>
      </trkpt>
      <trkpt lat="38.73256" lon="-0.61176">
        <ele>800.4</ele>
        <time>2022-10-15 09:06:21</time>
      </trkpt>
      <trkpt lat="38.73256" lon="-0.61176">
        <ele>800.2</ele>
        <time>2022-10-15 09:06:22</time>
      </trkpt>
      <trkpt lat="38.73255" lon="-0.61192">
        <ele>800</ele>
        <time>2022-10-15 09:06:23</time>
      </trkpt>
      <trkpt lat="38.73254" lon="-0.61197">
        <ele>799.6</ele>
        <time>2022-10-15 09:06:24</time>
      </trkpt>
      <trkpt lat="38.73254" lon="-0.61201">
        <ele>799</ele>
        <time>2022-10-15 09:06:25</time>
      </trkpt>
      <trkpt lat="38.73254" lon="-0.61201">
        <ele>798.6</ele>
        <time>2022-10-15 09:06:26</time>
      </trkpt>
      <trkpt lat="38.73252" lon="-0.61204">
        <ele>798.2</ele>
        <time>2022-10-15 09:06:27</time>
      </trkpt>
      <trkpt lat="38.7325" lon="-0.61207">
        <ele>797.8</ele>
        <time>2022-10-15 09:06:28</time>
      </trkpt>
      <trkpt lat="38.73248" lon="-0.61209">
        <ele>797.2</ele>
        <time>2022-10-15 09:06:29</time>
      </trkpt>
      <trkpt lat="38.73242" lon="-0.61208">
        <ele>797</ele>
        <time>2022-10-15 09:06:30</time>
      </trkpt>
      <trkpt lat="38.73239" lon="-0.61205">
        <ele>796.6</ele>
        <time>2022-10-15 09:06:31</time>
      </trkpt>
      <trkpt lat="38.73239" lon="-0.61205">
        <ele>796.4</ele>
        <time>2022-10-15 09:06:32</time>
      </trkpt>
      <trkpt lat="38.73236" lon="-0.61199">
        <ele>796.2</ele>
        <time>2022-10-15 09:06:33</time>
      </trkpt>
      <trkpt lat="38.73233" lon="-0.61192">
        <ele>795.8</ele>
        <time>2022-10-15 09:06:34</time>
      </trkpt>
      <trkpt lat="38.73224" lon="-0.61179">
        <ele>795.2</ele>
        <time>2022-10-15 09:06:35</time>
      </trkpt>
      <trkpt lat="38.73219" lon="-0.61173">
        <ele>795</ele>
        <time>2022-10-15 09:06:36</time>
      </trkpt>
      <trkpt lat="38.73213" lon="-0.61167">
        <ele>794.4</ele>
        <time>2022-10-15 09:06:37</time>
      </trkpt>
      <trkpt lat="38.73213" lon="-0.61167">
        <ele>794.2</ele>
        <time>2022-10-15 09:06:38</time>
      </trkpt>
      <trkpt lat="38.73202" lon="-0.61157">
        <ele>793.6</ele>
        <time>2022-10-15 09:06:39</time>
      </trkpt>
      <trkpt lat="38.73196" lon="-0.61152">
        <ele>792.8</ele>
        <time>2022-10-15 09:06:40</time>
      </trkpt>
      <trkpt lat="38.7319" lon="-0.61146">
        <ele>792.2</ele>
        <time>2022-10-15 09:06:41</time>
      </trkpt>
      <trkpt lat="38.73184" lon="-0.61141">
        <ele>791.6</ele>
        <time>2022-10-15 09:06:42</time>
      </trkpt>
      <trkpt lat="38.73179" lon="-0.61136">
        <ele>791.4</ele>
        <time>2022-10-15 09:06:43</time>
      </trkpt>
      <trkpt lat="38.73179" lon="-0.61136">
        <ele>790.8</ele>
        <time>2022-10-15 09:06:44</time>
      </trkpt>
      <trkpt lat="38.73169" lon="-0.61127">
        <ele>790.2</ele>
        <time>2022-10-15 09:06:45</time>
      </trkpt>
      <trkpt lat="38.73164" lon="-0.61124">
        <ele>790</ele>
        <time>2022-10-15 09:06:46</time>
      </trkpt>
      <trkpt lat="38.73159" lon="-0.6112">
        <ele>789.6</ele>
        <time>2022-10-15 09:06:47</time>
      </trkpt>
      <trkpt lat="38.73154" lon="-0.61117">
        <ele>789.2</ele>
        <time>2022-10-15 09:06:48</time>
      </trkpt>
      <trkpt lat="38.7315" lon="-0.61114">
        <ele>788.8</ele>
        <time>2022-10-15 09:06:49</time>
      </trkpt>
      <trkpt lat="38.7315" lon="-0.61114">
        <ele>788.2</ele>
        <time>2022-10-15 09:06:50</time>
      </trkpt>
      <trkpt lat="38.73142" lon="-0.61108">
        <ele>788</ele>
        <time>2022-10-15 09:06:51</time>
      </trkpt>
      <trkpt lat="38.73138" lon="-0.61105">
        <ele>788</ele>
        <time>2022-10-15 09:06:52</time>
      </trkpt>
      <trkpt lat="38.73134" lon="-0.61103">
        <ele>787.8</ele>
        <time>2022-10-15 09:06:53</time>
      </trkpt>
      <trkpt lat="38.7313" lon="-0.611">
        <ele>787.8</ele>
        <time>2022-10-15 09:06:54</time>
      </trkpt>
      <trkpt lat="38.73127" lon="-0.61098">
        <ele>787.8</ele>
        <time>2022-10-15 09:06:55</time>
      </trkpt>
      <trkpt lat="38.73127" lon="-0.61098">
        <ele>787.8</ele>
        <time>2022-10-15 09:06:56</time>
      </trkpt>
      <trkpt lat="38.73121" lon="-0.61094">
        <ele>787.8</ele>
        <time>2022-10-15 09:06:57</time>
      </trkpt>
      <trkpt lat="38.73117" lon="-0.61092">
        <ele>787.8</ele>
        <time>2022-10-15 09:06:58</time>
      </trkpt>
      <trkpt lat="38.73114" lon="-0.6109">
        <ele>788</ele>
        <time>2022-10-15 09:06:59</time>
      </trkpt>
      <trkpt lat="38.73111" lon="-0.61088">
        <ele>788</ele>
        <time>2022-10-15 09:07:00</time>
      </trkpt>
      <trkpt lat="38.73109" lon="-0.61086">
        <ele>788.2</ele>
        <time>2022-10-15 09:07:01</time>
      </trkpt>
      <trkpt lat="38.73109" lon="-0.61086">
        <ele>788.4</ele>
        <time>2022-10-15 09:07:02</time>
      </trkpt>
      <trkpt lat="38.73103" lon="-0.61082">
        <ele>788.8</ele>
        <time>2022-10-15 09:07:03</time>
      </trkpt>
      <trkpt lat="38.731" lon="-0.6108">
        <ele>789.2</ele>
        <time>2022-10-15 09:07:04</time>
      </trkpt>
      <trkpt lat="38.73098" lon="-0.61078">
        <ele>789.4</ele>
        <time>2022-10-15 09:07:05</time>
      </trkpt>
      <trkpt lat="38.73096" lon="-0.61076">
        <ele>789.8</ele>
        <time>2022-10-15 09:07:06</time>
      </trkpt>
      <trkpt lat="38.73093" lon="-0.61074">
        <ele>790</ele>
        <time>2022-10-15 09:07:07</time>
      </trkpt>
      <trkpt lat="38.73093" lon="-0.61074">
        <ele>790.4</ele>
        <time>2022-10-15 09:07:08</time>
      </trkpt>
      <trkpt lat="38.73088" lon="-0.6107">
        <ele>790.6</ele>
        <time>2022-10-15 09:07:09</time>
      </trkpt>
      <trkpt lat="38.73086" lon="-0.61067">
        <ele>790.8</ele>
        <time>2022-10-15 09:07:10</time>
      </trkpt>
      <trkpt lat="38.73084" lon="-0.61064">
        <ele>791.2</ele>
        <time>2022-10-15 09:07:11</time>
      </trkpt>
      <trkpt lat="38.73081" lon="-0.61061">
        <ele>791.4</ele>
        <time>2022-10-15 09:07:12</time>
      </trkpt>
      <trkpt lat="38.73079" lon="-0.61058">
        <ele>791.8</ele>
        <time>2022-10-15 09:07:13</time>
      </trkpt>
      <trkpt lat="38.73079" lon="-0.61058">
        <ele>792.2</ele>
        <time>2022-10-15 09:07:14</time>
      </trkpt>
      <trkpt lat="38.73073" lon="-0.61053">
        <ele>792.4</ele>
        <time>2022-10-15 09:07:15</time>
      </trkpt>
      <trkpt lat="38.73071" lon="-0.6105">
        <ele>792.6</ele>
        <time>2022-10-15 09:07:16</time>
      </trkpt>
      <trkpt lat="38.73068" lon="-0.61047">
        <ele>793</ele>
        <time>2022-10-15 09:07:17</time>
      </trkpt>
      <trkpt lat="38.73065" lon="-0.61044">
        <ele>793.2</ele>
        <time>2022-10-15 09:07:18</time>
      </trkpt>
      <trkpt lat="38.73063" lon="-0.61042">
        <ele>793.4</ele>
        <time>2022-10-15 09:07:19</time>
      </trkpt>
      <trkpt lat="38.73063" lon="-0.61042">
        <ele>793.6</ele>
        <time>2022-10-15 09:07:20</time>
      </trkpt>
      <trkpt lat="38.73058" lon="-0.61036">
        <ele>793.8</ele>
        <time>2022-10-15 09:07:21</time>
      </trkpt>
      <trkpt lat="38.73056" lon="-0.61033">
        <ele>793.8</ele>
        <time>2022-10-15 09:07:22</time>
      </trkpt>
      <trkpt lat="38.73054" lon="-0.6103">
        <ele>794.2</ele>
        <time>2022-10-15 09:07:23</time>
      </trkpt>
      <trkpt lat="38.73052" lon="-0.61027">
        <ele>794.4</ele>
        <time>2022-10-15 09:07:24</time>
      </trkpt>
      <trkpt lat="38.7305" lon="-0.61023">
        <ele>794.6</ele>
        <time>2022-10-15 09:07:25</time>
      </trkpt>
      <trkpt lat="38.7305" lon="-0.61023">
        <ele>794.8</ele>
        <time>2022-10-15 09:07:26</time>
      </trkpt>
      <trkpt lat="38.73046" lon="-0.61016">
        <ele>795.2</ele>
        <time>2022-10-15 09:07:27</time>
      </trkpt>
      <trkpt lat="38.73044" lon="-0.61013">
        <ele>795.6</ele>
        <time>2022-10-15 09:07:28</time>
      </trkpt>
      <trkpt lat="38.73042" lon="-0.61009">
        <ele>795.8</ele>
        <time>2022-10-15 09:07:29</time>
      </trkpt>
      <trkpt lat="38.7304" lon="-0.61005">
        <ele>796</ele>
        <time>2022-10-15 09:07:30</time>
      </trkpt>
      <trkpt lat="38.73038" lon="-0.61002">
        <ele>796.2</ele>
        <time>2022-10-15 09:07:31</time>
      </trkpt>
      <trkpt lat="38.73038" lon="-0.61002">
        <ele>796.2</ele>
        <time>2022-10-15 09:07:32</time>
      </trkpt>
      <trkpt lat="38.73035" lon="-0.60994">
        <ele>796.4</ele>
        <time>2022-10-15 09:07:33</time>
      </trkpt>
      <trkpt lat="38.73033" lon="-0.60989">
        <ele>796.4</ele>
        <time>2022-10-15 09:07:34</time>
      </trkpt>
      <trkpt lat="38.73031" lon="-0.60986">
        <ele>796.6</ele>
        <time>2022-10-15 09:07:35</time>
      </trkpt>
      <trkpt lat="38.73029" lon="-0.60982">
        <ele>796.6</ele>
        <time>2022-10-15 09:07:36</time>
      </trkpt>
      <trkpt lat="38.73027" lon="-0.60978">
        <ele>797</ele>
        <time>2022-10-15 09:07:37</time>
      </trkpt>
      <trkpt lat="38.73027" lon="-0.60978">
        <ele>797.2</ele>
        <time>2022-10-15 09:07:38</time>
      </trkpt>
      <trkpt lat="38.73023" lon="-0.60971">
        <ele>797.4</ele>
        <time>2022-10-15 09:07:39</time>
      </trkpt>
      <trkpt lat="38.73021" lon="-0.60968">
        <ele>797.4</ele>
        <time>2022-10-15 09:07:40</time>
      </trkpt>
      <trkpt lat="38.73019" lon="-0.60966">
        <ele>797.6</ele>
        <time>2022-10-15 09:07:41</time>
      </trkpt>
      <trkpt lat="38.73018" lon="-0.60963">
        <ele>797.8</ele>
        <time>2022-10-15 09:07:42</time>
      </trkpt>
      <trkpt lat="38.73017" lon="-0.60961">
        <ele>797.8</ele>
        <time>2022-10-15 09:07:43</time>
      </trkpt>
      <trkpt lat="38.73017" lon="-0.60961">
        <ele>797.8</ele>
        <time>2022-10-15 09:07:44</time>
      </trkpt>
      <trkpt lat="38.73014" lon="-0.60956">
        <ele>798</ele>
        <time>2022-10-15 09:07:45</time>
      </trkpt>
      <trkpt lat="38.73013" lon="-0.60954">
        <ele>798</ele>
        <time>2022-10-15 09:07:46</time>
      </trkpt>
      <trkpt lat="38.73011" lon="-0.60951">
        <ele>798.2</ele>
        <time>2022-10-15 09:07:47</time>
      </trkpt>
      <trkpt lat="38.7301" lon="-0.60949">
        <ele>798.2</ele>
        <time>2022-10-15 09:07:48</time>
      </trkpt>
      <trkpt lat="38.73009" lon="-0.60946">
        <ele>798.4</ele>
        <time>2022-10-15 09:07:49</time>
      </trkpt>
      <trkpt lat="38.73009" lon="-0.60946">
        <ele>798.8</ele>
        <time>2022-10-15 09:07:50</time>
      </trkpt>
      <trkpt lat="38.73007" lon="-0.60941">
        <ele>799</ele>
        <time>2022-10-15 09:07:51</time>
      </trkpt>
      <trkpt lat="38.73006" lon="-0.60938">
        <ele>799.2</ele>
        <time>2022-10-15 09:07:52</time>
      </trkpt>
      <trkpt lat="38.73005" lon="-0.60935">
        <ele>799.2</ele>
        <time>2022-10-15 09:07:53</time>
      </trkpt>
      <trkpt lat="38.73003" lon="-0.60933">
        <ele>799.4</ele>
        <time>2022-10-15 09:07:54</time>
      </trkpt>
      <trkpt lat="38.73002" lon="-0.6093">
        <ele>799.6</ele>
        <time>2022-10-15 09:07:55</time>
      </trkpt>
      <trkpt lat="38.73002" lon="-0.6093">
        <ele>800</ele>
        <time>2022-10-15 09:07:56</time>
      </trkpt>
      <trkpt lat="38.73001" lon="-0.60925">
        <ele>800.2</ele>
        <time>2022-10-15 09:07:57</time>
      </trkpt>
      <trkpt lat="38.73" lon="-0.60922">
        <ele>800.6</ele>
        <time>2022-10-15 09:07:58</time>
      </trkpt>
      <trkpt lat="38.72999" lon="-0.6092">
        <ele>800.6</ele>
        <time>2022-10-15 09:07:59</time>
      </trkpt>
      <trkpt lat="38.72997" lon="-0.60918">
        <ele>801</ele>
        <time>2022-10-15 09:08:00</time>
      </trkpt>
      <trkpt lat="38.72996" lon="-0.60915">
        <ele>801.2</ele>
        <time>2022-10-15 09:08:01</time>
      </trkpt>
      <trkpt lat="38.72996" lon="-0.60915">
        <ele>801.4</ele>
        <time>2022-10-15 09:08:02</time>
      </trkpt>
      <trkpt lat="38.72994" lon="-0.6091">
        <ele>801.8</ele>
        <time>2022-10-15 09:08:03</time>
      </trkpt>
      <trkpt lat="38.72993" lon="-0.60907">
        <ele>802.2</ele>
        <time>2022-10-15 09:08:04</time>
      </trkpt>
      <trkpt lat="38.72992" lon="-0.60905">
        <ele>802.4</ele>
        <time>2022-10-15 09:08:05</time>
      </trkpt>
      <trkpt lat="38.72991" lon="-0.60903">
        <ele>802.8</ele>
        <time>2022-10-15 09:08:06</time>
      </trkpt>
      <trkpt lat="38.7299" lon="-0.60901">
        <ele>803</ele>
        <time>2022-10-15 09:08:07</time>
      </trkpt>
      <trkpt lat="38.7299" lon="-0.60901">
        <ele>803.4</ele>
        <time>2022-10-15 09:08:08</time>
      </trkpt>
      <trkpt lat="38.72987" lon="-0.60896">
        <ele>803.8</ele>
        <time>2022-10-15 09:08:09</time>
      </trkpt>
      <trkpt lat="38.72986" lon="-0.60894">
        <ele>804</ele>
        <time>2022-10-15 09:08:10</time>
      </trkpt>
      <trkpt lat="38.72985" lon="-0.60892">
        <ele>804.2</ele>
        <time>2022-10-15 09:08:11</time>
      </trkpt>
      <trkpt lat="38.72984" lon="-0.60889">
        <ele>804.6</ele>
        <time>2022-10-15 09:08:12</time>
      </trkpt>
      <trkpt lat="38.72983" lon="-0.60886">
        <ele>804.8</ele>
        <time>2022-10-15 09:08:13</time>
      </trkpt>
      <trkpt lat="38.72983" lon="-0.60886">
        <ele>805</ele>
        <time>2022-10-15 09:08:14</time>
      </trkpt>
      <trkpt lat="38.7298" lon="-0.60881">
        <ele>805.2</ele>
        <time>2022-10-15 09:08:15</time>
      </trkpt>
      <trkpt lat="38.72979" lon="-0.60878">
        <ele>805.4</ele>
        <time>2022-10-15 09:08:16</time>
      </trkpt>
      <trkpt lat="38.72977" lon="-0.60875">
        <ele>805.8</ele>
        <time>2022-10-15 09:08:17</time>
      </trkpt>
      <trkpt lat="38.72975" lon="-0.60872">
        <ele>806</ele>
        <time>2022-10-15 09:08:18</time>
      </trkpt>
      <trkpt lat="38.72973" lon="-0.60869">
        <ele>806.2</ele>
        <time>2022-10-15 09:08:19</time>
      </trkpt>
      <trkpt lat="38.72973" lon="-0.60869">
        <ele>806.4</ele>
        <time>2022-10-15 09:08:20</time>
      </trkpt>
      <trkpt lat="38.7297" lon="-0.60863">
        <ele>806.8</ele>
        <time>2022-10-15 09:08:21</time>
      </trkpt>
      <trkpt lat="38.72968" lon="-0.6086">
        <ele>807</ele>
        <time>2022-10-15 09:08:22</time>
      </trkpt>
      <trkpt lat="38.72966" lon="-0.60857">
        <ele>807.4</ele>
        <time>2022-10-15 09:08:23</time>
      </trkpt>
      <trkpt lat="38.72964" lon="-0.60853">
        <ele>807.8</ele>
        <time>2022-10-15 09:08:24</time>
      </trkpt>
      <trkpt lat="38.72962" lon="-0.6085">
        <ele>808</ele>
        <time>2022-10-15 09:08:25</time>
      </trkpt>
      <trkpt lat="38.72962" lon="-0.6085">
        <ele>808.2</ele>
        <time>2022-10-15 09:08:26</time>
      </trkpt>
      <trkpt lat="38.72958" lon="-0.60842">
        <ele>808.4</ele>
        <time>2022-10-15 09:08:27</time>
      </trkpt>
      <trkpt lat="38.72956" lon="-0.60838">
        <ele>808.6</ele>
        <time>2022-10-15 09:08:28</time>
      </trkpt>
      <trkpt lat="38.72954" lon="-0.60834">
        <ele>808.8</ele>
        <time>2022-10-15 09:08:29</time>
      </trkpt>
      <trkpt lat="38.72952" lon="-0.60831">
        <ele>809</ele>
        <time>2022-10-15 09:08:30</time>
      </trkpt>
      <trkpt lat="38.7295" lon="-0.60826">
        <ele>809.4</ele>
        <time>2022-10-15 09:08:31</time>
      </trkpt>
      <trkpt lat="38.7295" lon="-0.60826">
        <ele>809.4</ele>
        <time>2022-10-15 09:08:32</time>
      </trkpt>
      <trkpt lat="38.72946" lon="-0.60818">
        <ele>809.4</ele>
        <time>2022-10-15 09:08:33</time>
      </trkpt>
      <trkpt lat="38.72944" lon="-0.60814">
        <ele>809.4</ele>
        <time>2022-10-15 09:08:34</time>
      </trkpt>
      <trkpt lat="38.72942" lon="-0.60809">
        <ele>809.4</ele>
        <time>2022-10-15 09:08:35</time>
      </trkpt>
      <trkpt lat="38.7294" lon="-0.60805">
        <ele>809.6</ele>
        <time>2022-10-15 09:08:36</time>
      </trkpt>
      <trkpt lat="38.72938" lon="-0.60801">
        <ele>809.6</ele>
        <time>2022-10-15 09:08:37</time>
      </trkpt>
      <trkpt lat="38.72938" lon="-0.60801">
        <ele>809.6</ele>
        <time>2022-10-15 09:08:38</time>
      </trkpt>
      <trkpt lat="38.72936" lon="-0.60793">
        <ele>809.6</ele>
        <time>2022-10-15 09:08:39</time>
      </trkpt>
      <trkpt lat="38.72934" lon="-0.6079">
        <ele>809.6</ele>
        <time>2022-10-15 09:08:40</time>
      </trkpt>
      <trkpt lat="38.72933" lon="-0.60786">
        <ele>809.6</ele>
        <time>2022-10-15 09:08:41</time>
      </trkpt>
      <trkpt lat="38.72931" lon="-0.60782">
        <ele>809.6</ele>
        <time>2022-10-15 09:08:42</time>
      </trkpt>
      <trkpt lat="38.72929" lon="-0.60779">
        <ele>809.6</ele>
        <time>2022-10-15 09:08:43</time>
      </trkpt>
      <trkpt lat="38.72929" lon="-0.60779">
        <ele>809.8</ele>
        <time>2022-10-15 09:08:44</time>
      </trkpt>
      <trkpt lat="38.72926" lon="-0.60773">
        <ele>809.8</ele>
        <time>2022-10-15 09:08:45</time>
      </trkpt>
      <trkpt lat="38.72924" lon="-0.60769">
        <ele>810</ele>
        <time>2022-10-15 09:08:46</time>
      </trkpt>
      <trkpt lat="38.72922" lon="-0.60766">
        <ele>810.2</ele>
        <time>2022-10-15 09:08:47</time>
      </trkpt>
      <trkpt lat="38.7292" lon="-0.60764">
        <ele>810.4</ele>
        <time>2022-10-15 09:08:48</time>
      </trkpt>
      <trkpt lat="38.72918" lon="-0.60761">
        <ele>810.6</ele>
        <time>2022-10-15 09:08:49</time>
      </trkpt>
      <trkpt lat="38.72918" lon="-0.60761">
        <ele>810.8</ele>
        <time>2022-10-15 09:08:50</time>
      </trkpt>
      <trkpt lat="38.72913" lon="-0.60755">
        <ele>811</ele>
        <time>2022-10-15 09:08:51</time>
      </trkpt>
      <trkpt lat="38.72911" lon="-0.60752">
        <ele>811.2</ele>
        <time>2022-10-15 09:08:52</time>
      </trkpt>
      <trkpt lat="38.72909" lon="-0.6075">
        <ele>811.4</ele>
        <time>2022-10-15 09:08:53</time>
      </trkpt>
      <trkpt lat="38.72906" lon="-0.60747">
        <ele>811.6</ele>
        <time>2022-10-15 09:08:54</time>
      </trkpt>
      <trkpt lat="38.72904" lon="-0.60744">
        <ele>812</ele>
        <time>2022-10-15 09:08:55</time>
      </trkpt>
      <trkpt lat="38.72904" lon="-0.60744">
        <ele>812.2</ele>
        <time>2022-10-15 09:08:56</time>
      </trkpt>
      <trkpt lat="38.72899" lon="-0.6074">
        <ele>812.2</ele>
        <time>2022-10-15 09:08:57</time>
      </trkpt>
      <trkpt lat="38.72896" lon="-0.60737">
        <ele>812.4</ele>
        <time>2022-10-15 09:08:58</time>
      </trkpt>
      <trkpt lat="38.72893" lon="-0.60735">
        <ele>812.4</ele>
        <time>2022-10-15 09:08:59</time>
      </trkpt>
      <trkpt lat="38.72891" lon="-0.60733">
        <ele>812.6</ele>
        <time>2022-10-15 09:09:00</time>
      </trkpt>
      <trkpt lat="38.72888" lon="-0.6073">
        <ele>812.6</ele>
        <time>2022-10-15 09:09:01</time>
      </trkpt>
      <trkpt lat="38.72888" lon="-0.6073">
        <ele>812.8</ele>
        <time>2022-10-15 09:09:02</time>
      </trkpt>
      <trkpt lat="38.72882" lon="-0.60726">
        <ele>812.8</ele>
        <time>2022-10-15 09:09:03</time>
      </trkpt>
      <trkpt lat="38.7288" lon="-0.60724">
        <ele>813</ele>
        <time>2022-10-15 09:09:04</time>
      </trkpt>
      <trkpt lat="38.72877" lon="-0.60721">
        <ele>813.2</ele>
        <time>2022-10-15 09:09:05</time>
      </trkpt>
      <trkpt lat="38.72875" lon="-0.60719">
        <ele>813.4</ele>
        <time>2022-10-15 09:09:06</time>
      </trkpt>
      <trkpt lat="38.72872" lon="-0.60716">
        <ele>813.4</ele>
        <time>2022-10-15 09:09:07</time>
      </trkpt>
      <trkpt lat="38.72872" lon="-0.60716">
        <ele>813.4</ele>
        <time>2022-10-15 09:09:08</time>
      </trkpt>
      <trkpt lat="38.72867" lon="-0.60711">
        <ele>813.6</ele>
        <time>2022-10-15 09:09:09</time>
      </trkpt>
      <trkpt lat="38.72864" lon="-0.60709">
        <ele>813.8</ele>
        <time>2022-10-15 09:09:10</time>
      </trkpt>
      <trkpt lat="38.72862" lon="-0.60706">
        <ele>813.8</ele>
        <time>2022-10-15 09:09:11</time>
      </trkpt>
      <trkpt lat="38.7286" lon="-0.60703">
        <ele>814</ele>
        <time>2022-10-15 09:09:12</time>
      </trkpt>
      <trkpt lat="38.72857" lon="-0.607">
        <ele>814</ele>
        <time>2022-10-15 09:09:13</time>
      </trkpt>
      <trkpt lat="38.72857" lon="-0.607">
        <ele>814.2</ele>
        <time>2022-10-15 09:09:14</time>
      </trkpt>
      <trkpt lat="38.72852" lon="-0.60694">
        <ele>814.2</ele>
        <time>2022-10-15 09:09:15</time>
      </trkpt>
      <trkpt lat="38.7285" lon="-0.60691">
        <ele>814.2</ele>
        <time>2022-10-15 09:09:16</time>
      </trkpt>
      <trkpt lat="38.72847" lon="-0.60688">
        <ele>814.4</ele>
        <time>2022-10-15 09:09:17</time>
      </trkpt>
      <trkpt lat="38.72845" lon="-0.60685">
        <ele>814.6</ele>
        <time>2022-10-15 09:09:18</time>
      </trkpt>
      <trkpt lat="38.72843" lon="-0.60682">
        <ele>814.6</ele>
        <time>2022-10-15 09:09:19</time>
      </trkpt>
      <trkpt lat="38.72843" lon="-0.60682">
        <ele>814.8</ele>
        <time>2022-10-15 09:09:20</time>
      </trkpt>
      <trkpt lat="38.72838" lon="-0.60676">
        <ele>815</ele>
        <time>2022-10-15 09:09:21</time>
      </trkpt>
      <trkpt lat="38.72836" lon="-0.60673">
        <ele>815</ele>
        <time>2022-10-15 09:09:22</time>
      </trkpt>
      <trkpt lat="38.72834" lon="-0.60669">
        <ele>815</ele>
        <time>2022-10-15 09:09:23</time>
      </trkpt>
      <trkpt lat="38.72832" lon="-0.60666">
        <ele>815.2</ele>
        <time>2022-10-15 09:09:24</time>
      </trkpt>
      <trkpt lat="38.7283" lon="-0.60663">
        <ele>815.2</ele>
        <time>2022-10-15 09:09:25</time>
      </trkpt>
      <trkpt lat="38.7283" lon="-0.60663">
        <ele>815.2</ele>
        <time>2022-10-15 09:09:26</time>
      </trkpt>
      <trkpt lat="38.72827" lon="-0.60657">
        <ele>815.4</ele>
        <time>2022-10-15 09:09:27</time>
      </trkpt>
      <trkpt lat="38.72825" lon="-0.60654">
        <ele>815.4</ele>
        <time>2022-10-15 09:09:28</time>
      </trkpt>
      <trkpt lat="38.72823" lon="-0.60651">
        <ele>815.6</ele>
        <time>2022-10-15 09:09:29</time>
      </trkpt>
      <trkpt lat="38.72821" lon="-0.60648">
        <ele>815.6</ele>
        <time>2022-10-15 09:09:30</time>
      </trkpt>
      <trkpt lat="38.72819" lon="-0.60646">
        <ele>815.8</ele>
        <time>2022-10-15 09:09:31</time>
      </trkpt>
      <trkpt lat="38.72819" lon="-0.60646">
        <ele>815.8</ele>
        <time>2022-10-15 09:09:32</time>
      </trkpt>
      <trkpt lat="38.72816" lon="-0.6064">
        <ele>816</ele>
        <time>2022-10-15 09:09:33</time>
      </trkpt>
      <trkpt lat="38.72814" lon="-0.60637">
        <ele>816.2</ele>
        <time>2022-10-15 09:09:34</time>
      </trkpt>
      <trkpt lat="38.72812" lon="-0.60634">
        <ele>816.2</ele>
        <time>2022-10-15 09:09:35</time>
      </trkpt>
      <trkpt lat="38.72811" lon="-0.60631">
        <ele>816.4</ele>
        <time>2022-10-15 09:09:36</time>
      </trkpt>
      <trkpt lat="38.72809" lon="-0.60629">
        <ele>816.4</ele>
        <time>2022-10-15 09:09:37</time>
      </trkpt>
      <trkpt lat="38.72809" lon="-0.60629">
        <ele>816.4</ele>
        <time>2022-10-15 09:09:38</time>
      </trkpt>
      <trkpt lat="38.72805" lon="-0.60623">
        <ele>816.6</ele>
        <time>2022-10-15 09:09:39</time>
      </trkpt>
      <trkpt lat="38.72804" lon="-0.60621">
        <ele>816.8</ele>
        <time>2022-10-15 09:09:40</time>
      </trkpt>
      <trkpt lat="38.72803" lon="-0.60618">
        <ele>817</ele>
        <time>2022-10-15 09:09:41</time>
      </trkpt>
      <trkpt lat="38.72801" lon="-0.60615">
        <ele>817</ele>
        <time>2022-10-15 09:09:42</time>
      </trkpt>
      <trkpt lat="38.72799" lon="-0.60613">
        <ele>817.2</ele>
        <time>2022-10-15 09:09:43</time>
      </trkpt>
      <trkpt lat="38.72799" lon="-0.60613">
        <ele>817.2</ele>
        <time>2022-10-15 09:09:44</time>
      </trkpt>
      <trkpt lat="38.72795" lon="-0.60608">
        <ele>817.2</ele>
        <time>2022-10-15 09:09:45</time>
      </trkpt>
      <trkpt lat="38.72793" lon="-0.60606">
        <ele>817.4</ele>
        <time>2022-10-15 09:09:46</time>
      </trkpt>
      <trkpt lat="38.72791" lon="-0.60604">
        <ele>817.4</ele>
        <time>2022-10-15 09:09:47</time>
      </trkpt>
      <trkpt lat="38.7279" lon="-0.60603">
        <ele>817.4</ele>
        <time>2022-10-15 09:09:48</time>
      </trkpt>
      <trkpt lat="38.72789" lon="-0.60602">
        <ele>817.6</ele>
        <time>2022-10-15 09:09:49</time>
      </trkpt>
      <trkpt lat="38.72789" lon="-0.60602">
        <ele>817.6</ele>
        <time>2022-10-15 09:09:50</time>
      </trkpt>
      <trkpt lat="38.72786" lon="-0.606">
        <ele>817.8</ele>
        <time>2022-10-15 09:09:52</time>
      </trkpt>
      <trkpt lat="38.72784" lon="-0.606">
        <ele>818</ele>
        <time>2022-10-15 09:09:53</time>
      </trkpt>
      <trkpt lat="38.72783" lon="-0.606">
        <ele>818</ele>
        <time>2022-10-15 09:09:54</time>
      </trkpt>
      <trkpt lat="38.72782" lon="-0.606">
        <ele>818.4</ele>
        <time>2022-10-15 09:09:55</time>
      </trkpt>
      <trkpt lat="38.72782" lon="-0.606">
        <ele>818.6</ele>
        <time>2022-10-15 09:09:56</time>
      </trkpt>
      <trkpt lat="38.72781" lon="-0.606">
        <ele>818.6</ele>
        <time>2022-10-15 09:09:57</time>
      </trkpt>
      <trkpt lat="38.7278" lon="-0.606">
        <ele>818.8</ele>
        <time>2022-10-15 09:09:58</time>
      </trkpt>
      <trkpt lat="38.72779" lon="-0.606">
        <ele>818.8</ele>
        <time>2022-10-15 09:09:59</time>
      </trkpt>
      <trkpt lat="38.72777" lon="-0.60601">
        <ele>818.8</ele>
        <time>2022-10-15 09:10:00</time>
      </trkpt>
      <trkpt lat="38.72775" lon="-0.60602">
        <ele>818.8</ele>
        <time>2022-10-15 09:10:01</time>
      </trkpt>
      <trkpt lat="38.72775" lon="-0.60602">
        <ele>818.8</ele>
        <time>2022-10-15 09:10:02</time>
      </trkpt>
      <trkpt lat="38.72768" lon="-0.60607">
        <ele>818.8</ele>
        <time>2022-10-15 09:10:03</time>
      </trkpt>
      <trkpt lat="38.72764" lon="-0.6061">
        <ele>818.8</ele>
        <time>2022-10-15 09:10:04</time>
      </trkpt>
      <trkpt lat="38.7276" lon="-0.60614">
        <ele>818.8</ele>
        <time>2022-10-15 09:10:05</time>
      </trkpt>
      <trkpt lat="38.72756" lon="-0.60618">
        <ele>818.8</ele>
        <time>2022-10-15 09:10:06</time>
      </trkpt>
      <trkpt lat="38.72752" lon="-0.60622">
        <ele>818.8</ele>
        <time>2022-10-15 09:10:07</time>
      </trkpt>
      <trkpt lat="38.72752" lon="-0.60622">
        <ele>818.8</ele>
        <time>2022-10-15 09:10:08</time>
      </trkpt>
      <trkpt lat="38.72745" lon="-0.6063">
        <ele>818.8</ele>
        <time>2022-10-15 09:10:09</time>
      </trkpt>
      <trkpt lat="38.72741" lon="-0.60634">
        <ele>818.8</ele>
        <time>2022-10-15 09:10:10</time>
      </trkpt>
      <trkpt lat="38.72737" lon="-0.60638">
        <ele>818.6</ele>
        <time>2022-10-15 09:10:11</time>
      </trkpt>
      <trkpt lat="38.72734" lon="-0.60643">
        <ele>818.4</ele>
        <time>2022-10-15 09:10:12</time>
      </trkpt>
      <trkpt lat="38.7273" lon="-0.60647">
        <ele>818.4</ele>
        <time>2022-10-15 09:10:13</time>
      </trkpt>
      <trkpt lat="38.7273" lon="-0.60647">
        <ele>818.2</ele>
        <time>2022-10-15 09:10:14</time>
      </trkpt>
      <trkpt lat="38.72723" lon="-0.60655">
        <ele>818.2</ele>
        <time>2022-10-15 09:10:15</time>
      </trkpt>
      <trkpt lat="38.7272" lon="-0.6066">
        <ele>818.2</ele>
        <time>2022-10-15 09:10:16</time>
      </trkpt>
      <trkpt lat="38.72717" lon="-0.60664">
        <ele>818</ele>
        <time>2022-10-15 09:10:17</time>
      </trkpt>
      <trkpt lat="38.72714" lon="-0.60667">
        <ele>818</ele>
        <time>2022-10-15 09:10:18</time>
      </trkpt>
      <trkpt lat="38.72711" lon="-0.60671">
        <ele>818</ele>
        <time>2022-10-15 09:10:19</time>
      </trkpt>
      <trkpt lat="38.72711" lon="-0.60671">
        <ele>818</ele>
        <time>2022-10-15 09:10:20</time>
      </trkpt>
      <trkpt lat="38.72706" lon="-0.60677">
        <ele>818</ele>
        <time>2022-10-15 09:10:21</time>
      </trkpt>
      <trkpt lat="38.72704" lon="-0.6068">
        <ele>818</ele>
        <time>2022-10-15 09:10:22</time>
      </trkpt>
      <trkpt lat="38.72702" lon="-0.60683">
        <ele>818</ele>
        <time>2022-10-15 09:10:23</time>
      </trkpt>
      <trkpt lat="38.72699" lon="-0.60685">
        <ele>818.2</ele>
        <time>2022-10-15 09:10:24</time>
      </trkpt>
      <trkpt lat="38.72697" lon="-0.60687">
        <ele>818.2</ele>
        <time>2022-10-15 09:10:25</time>
      </trkpt>
      <trkpt lat="38.72697" lon="-0.60687">
        <ele>818.2</ele>
        <time>2022-10-15 09:10:26</time>
      </trkpt>
      <trkpt lat="38.72692" lon="-0.60693">
        <ele>818.4</ele>
        <time>2022-10-15 09:10:27</time>
      </trkpt>
      <trkpt lat="38.72689" lon="-0.60695">
        <ele>818.6</ele>
        <time>2022-10-15 09:10:28</time>
      </trkpt>
      <trkpt lat="38.72687" lon="-0.60698">
        <ele>818.8</ele>
        <time>2022-10-15 09:10:29</time>
      </trkpt>
      <trkpt lat="38.72684" lon="-0.60701">
        <ele>819</ele>
        <time>2022-10-15 09:10:30</time>
      </trkpt>
      <trkpt lat="38.72681" lon="-0.60704">
        <ele>819.4</ele>
        <time>2022-10-15 09:10:31</time>
      </trkpt>
      <trkpt lat="38.72681" lon="-0.60704">
        <ele>819.6</ele>
        <time>2022-10-15 09:10:32</time>
      </trkpt>
      <trkpt lat="38.72675" lon="-0.6071">
        <ele>819.6</ele>
        <time>2022-10-15 09:10:33</time>
      </trkpt>
      <trkpt lat="38.72672" lon="-0.60714">
        <ele>819.8</ele>
        <time>2022-10-15 09:10:34</time>
      </trkpt>
      <trkpt lat="38.72669" lon="-0.60717">
        <ele>820</ele>
        <time>2022-10-15 09:10:35</time>
      </trkpt>
      <trkpt lat="38.72665" lon="-0.6072">
        <ele>820</ele>
        <time>2022-10-15 09:10:36</time>
      </trkpt>
      <trkpt lat="38.72662" lon="-0.60724">
        <ele>820</ele>
        <time>2022-10-15 09:10:37</time>
      </trkpt>
      <trkpt lat="38.72662" lon="-0.60724">
        <ele>820</ele>
        <time>2022-10-15 09:10:38</time>
      </trkpt>
      <trkpt lat="38.72655" lon="-0.60731">
        <ele>820</ele>
        <time>2022-10-15 09:10:39</time>
      </trkpt>
      <trkpt lat="38.72652" lon="-0.60734">
        <ele>820</ele>
        <time>2022-10-15 09:10:40</time>
      </trkpt>
      <trkpt lat="38.72648" lon="-0.60738">
        <ele>820</ele>
        <time>2022-10-15 09:10:41</time>
      </trkpt>
      <trkpt lat="38.72645" lon="-0.60742">
        <ele>820</ele>
        <time>2022-10-15 09:10:42</time>
      </trkpt>
      <trkpt lat="38.72641" lon="-0.60746">
        <ele>820</ele>
        <time>2022-10-15 09:10:43</time>
      </trkpt>
      <trkpt lat="38.72641" lon="-0.60746">
        <ele>820</ele>
        <time>2022-10-15 09:10:44</time>
      </trkpt>
      <trkpt lat="38.72633" lon="-0.60754">
        <ele>820</ele>
        <time>2022-10-15 09:10:45</time>
      </trkpt>
      <trkpt lat="38.72629" lon="-0.60759">
        <ele>820</ele>
        <time>2022-10-15 09:10:46</time>
      </trkpt>
      <trkpt lat="38.72625" lon="-0.60764">
        <ele>820</ele>
        <time>2022-10-15 09:10:47</time>
      </trkpt>
      <trkpt lat="38.72621" lon="-0.60769">
        <ele>819.8</ele>
        <time>2022-10-15 09:10:48</time>
      </trkpt>
      <trkpt lat="38.72617" lon="-0.60774">
        <ele>819.8</ele>
        <time>2022-10-15 09:10:49</time>
      </trkpt>
      <trkpt lat="38.72617" lon="-0.60774">
        <ele>819.8</ele>
        <time>2022-10-15 09:10:50</time>
      </trkpt>
      <trkpt lat="38.72608" lon="-0.60785">
        <ele>819.8</ele>
        <time>2022-10-15 09:10:51</time>
      </trkpt>
      <trkpt lat="38.72603" lon="-0.60791">
        <ele>819.6</ele>
        <time>2022-10-15 09:10:52</time>
      </trkpt>
      <trkpt lat="38.72599" lon="-0.60796">
        <ele>819.6</ele>
        <time>2022-10-15 09:10:53</time>
      </trkpt>
      <trkpt lat="38.72594" lon="-0.60801">
        <ele>819.4</ele>
        <time>2022-10-15 09:10:54</time>
      </trkpt>
      <trkpt lat="38.72589" lon="-0.60806">
        <ele>819.2</ele>
        <time>2022-10-15 09:10:55</time>
      </trkpt>
      <trkpt lat="38.72589" lon="-0.60806">
        <ele>819</ele>
        <time>2022-10-15 09:10:56</time>
      </trkpt>
      <trkpt lat="38.72578" lon="-0.60816">
        <ele>818.8</ele>
        <time>2022-10-15 09:10:57</time>
      </trkpt>
      <trkpt lat="38.72573" lon="-0.6082">
        <ele>818.6</ele>
        <time>2022-10-15 09:10:58</time>
      </trkpt>
      <trkpt lat="38.72568" lon="-0.60825">
        <ele>818.2</ele>
        <time>2022-10-15 09:10:59</time>
      </trkpt>
      <trkpt lat="38.72563" lon="-0.6083">
        <ele>817.8</ele>
        <time>2022-10-15 09:11:00</time>
      </trkpt>
      <trkpt lat="38.72558" lon="-0.60834">
        <ele>817.6</ele>
        <time>2022-10-15 09:11:01</time>
      </trkpt>
      <trkpt lat="38.72558" lon="-0.60834">
        <ele>817.4</ele>
        <time>2022-10-15 09:11:02</time>
      </trkpt>
      <trkpt lat="38.72548" lon="-0.60843">
        <ele>817</ele>
        <time>2022-10-15 09:11:03</time>
      </trkpt>
      <trkpt lat="38.72543" lon="-0.60848">
        <ele>816.8</ele>
        <time>2022-10-15 09:11:04</time>
      </trkpt>
      <trkpt lat="38.72538" lon="-0.60852">
        <ele>816.6</ele>
        <time>2022-10-15 09:11:05</time>
      </trkpt>
      <trkpt lat="38.72533" lon="-0.60857">
        <ele>816.4</ele>
        <time>2022-10-15 09:11:06</time>
      </trkpt>
      <trkpt lat="38.72527" lon="-0.60862">
        <ele>816.2</ele>
        <time>2022-10-15 09:11:07</time>
      </trkpt>
      <trkpt lat="38.72527" lon="-0.60862">
        <ele>816.2</ele>
        <time>2022-10-15 09:11:08</time>
      </trkpt>
      <trkpt lat="38.72517" lon="-0.60871">
        <ele>816</ele>
        <time>2022-10-15 09:11:09</time>
      </trkpt>
      <trkpt lat="38.72511" lon="-0.60875">
        <ele>816</ele>
        <time>2022-10-15 09:11:10</time>
      </trkpt>
      <trkpt lat="38.72506" lon="-0.60879">
        <ele>816</ele>
        <time>2022-10-15 09:11:11</time>
      </trkpt>
      <trkpt lat="38.72501" lon="-0.60883">
        <ele>815.8</ele>
        <time>2022-10-15 09:11:12</time>
      </trkpt>
      <trkpt lat="38.72495" lon="-0.60887">
        <ele>815.6</ele>
        <time>2022-10-15 09:11:13</time>
      </trkpt>
      <trkpt lat="38.72495" lon="-0.60887">
        <ele>815.2</ele>
        <time>2022-10-15 09:11:14</time>
      </trkpt>
      <trkpt lat="38.72486" lon="-0.60896">
        <ele>815</ele>
        <time>2022-10-15 09:11:15</time>
      </trkpt>
      <trkpt lat="38.72481" lon="-0.60901">
        <ele>814.8</ele>
        <time>2022-10-15 09:11:16</time>
      </trkpt>
      <trkpt lat="38.72476" lon="-0.60907">
        <ele>814.6</ele>
        <time>2022-10-15 09:11:17</time>
      </trkpt>
      <trkpt lat="38.72472" lon="-0.60912">
        <ele>814.4</ele>
        <time>2022-10-15 09:11:18</time>
      </trkpt>
      <trkpt lat="38.72468" lon="-0.60917">
        <ele>814.4</ele>
        <time>2022-10-15 09:11:19</time>
      </trkpt>
      <trkpt lat="38.72468" lon="-0.60917">
        <ele>814.2</ele>
        <time>2022-10-15 09:11:20</time>
      </trkpt>
      <trkpt lat="38.72459" lon="-0.60928">
        <ele>814</ele>
        <time>2022-10-15 09:11:21</time>
      </trkpt>
      <trkpt lat="38.72455" lon="-0.60934">
        <ele>813.8</ele>
        <time>2022-10-15 09:11:22</time>
      </trkpt>
      <trkpt lat="38.72451" lon="-0.60939">
        <ele>813.8</ele>
        <time>2022-10-15 09:11:23</time>
      </trkpt>
      <trkpt lat="38.72447" lon="-0.60945">
        <ele>813.6</ele>
        <time>2022-10-15 09:11:24</time>
      </trkpt>
      <trkpt lat="38.72443" lon="-0.6095">
        <ele>813.6</ele>
        <time>2022-10-15 09:11:25</time>
      </trkpt>
      <trkpt lat="38.72443" lon="-0.6095">
        <ele>813.4</ele>
        <time>2022-10-15 09:11:26</time>
      </trkpt>
      <trkpt lat="38.72436" lon="-0.60961">
        <ele>813.4</ele>
        <time>2022-10-15 09:11:27</time>
      </trkpt>
      <trkpt lat="38.72432" lon="-0.60965">
        <ele>813.2</ele>
        <time>2022-10-15 09:11:28</time>
      </trkpt>
      <trkpt lat="38.72428" lon="-0.6097">
        <ele>813.2</ele>
        <time>2022-10-15 09:11:29</time>
      </trkpt>
      <trkpt lat="38.72425" lon="-0.60974">
        <ele>813.2</ele>
        <time>2022-10-15 09:11:30</time>
      </trkpt>
      <trkpt lat="38.72422" lon="-0.60978">
        <ele>813.2</ele>
        <time>2022-10-15 09:11:31</time>
      </trkpt>
      <trkpt lat="38.72422" lon="-0.60978">
        <ele>813.2</ele>
        <time>2022-10-15 09:11:32</time>
      </trkpt>
      <trkpt lat="38.72416" lon="-0.60986">
        <ele>813.2</ele>
        <time>2022-10-15 09:11:33</time>
      </trkpt>
      <trkpt lat="38.72413" lon="-0.6099">
        <ele>813.2</ele>
        <time>2022-10-15 09:11:34</time>
      </trkpt>
      <trkpt lat="38.7241" lon="-0.60993">
        <ele>813.2</ele>
        <time>2022-10-15 09:11:35</time>
      </trkpt>
      <trkpt lat="38.72407" lon="-0.60997">
        <ele>813.2</ele>
        <time>2022-10-15 09:11:36</time>
      </trkpt>
      <trkpt lat="38.72404" lon="-0.61">
        <ele>813.2</ele>
        <time>2022-10-15 09:11:37</time>
      </trkpt>
      <trkpt lat="38.72404" lon="-0.61">
        <ele>813.2</ele>
        <time>2022-10-15 09:11:38</time>
      </trkpt>
      <trkpt lat="38.72399" lon="-0.61008">
        <ele>813.2</ele>
        <time>2022-10-15 09:11:39</time>
      </trkpt>
      <trkpt lat="38.72397" lon="-0.61011">
        <ele>813.2</ele>
        <time>2022-10-15 09:11:40</time>
      </trkpt>
      <trkpt lat="38.72394" lon="-0.61015">
        <ele>813.6</ele>
        <time>2022-10-15 09:11:41</time>
      </trkpt>
      <trkpt lat="38.72391" lon="-0.61019">
        <ele>813.8</ele>
        <time>2022-10-15 09:11:42</time>
      </trkpt>
      <trkpt lat="38.72389" lon="-0.61022">
        <ele>813.8</ele>
        <time>2022-10-15 09:11:43</time>
      </trkpt>
      <trkpt lat="38.72389" lon="-0.61022">
        <ele>814</ele>
        <time>2022-10-15 09:11:44</time>
      </trkpt>
      <trkpt lat="38.72384" lon="-0.6103">
        <ele>814</ele>
        <time>2022-10-15 09:11:45</time>
      </trkpt>
      <trkpt lat="38.72382" lon="-0.61033">
        <ele>814.2</ele>
        <time>2022-10-15 09:11:46</time>
      </trkpt>
      <trkpt lat="38.72379" lon="-0.61037">
        <ele>814.4</ele>
        <time>2022-10-15 09:11:47</time>
      </trkpt>
      <trkpt lat="38.72377" lon="-0.61041">
        <ele>814.4</ele>
        <time>2022-10-15 09:11:48</time>
      </trkpt>
      <trkpt lat="38.72374" lon="-0.61045">
        <ele>814.6</ele>
        <time>2022-10-15 09:11:49</time>
      </trkpt>
      <trkpt lat="38.72374" lon="-0.61045">
        <ele>814.6</ele>
        <time>2022-10-15 09:11:50</time>
      </trkpt>
      <trkpt lat="38.72369" lon="-0.61052">
        <ele>814.8</ele>
        <time>2022-10-15 09:11:51</time>
      </trkpt>
      <trkpt lat="38.72366" lon="-0.61055">
        <ele>814.8</ele>
        <time>2022-10-15 09:11:52</time>
      </trkpt>
      <trkpt lat="38.72364" lon="-0.61059">
        <ele>815</ele>
        <time>2022-10-15 09:11:53</time>
      </trkpt>
      <trkpt lat="38.72362" lon="-0.61062">
        <ele>815.2</ele>
        <time>2022-10-15 09:11:54</time>
      </trkpt>
      <trkpt lat="38.72359" lon="-0.61066">
        <ele>815.2</ele>
        <time>2022-10-15 09:11:55</time>
      </trkpt>
      <trkpt lat="38.72359" lon="-0.61066">
        <ele>815.4</ele>
        <time>2022-10-15 09:11:56</time>
      </trkpt>
      <trkpt lat="38.72356" lon="-0.61074">
        <ele>815.4</ele>
        <time>2022-10-15 09:11:57</time>
      </trkpt>
      <trkpt lat="38.72355" lon="-0.61078">
        <ele>815.4</ele>
        <time>2022-10-15 09:11:58</time>
      </trkpt>
      <trkpt lat="38.72354" lon="-0.61082">
        <ele>815.6</ele>
        <time>2022-10-15 09:11:59</time>
      </trkpt>
      <trkpt lat="38.72353" lon="-0.61087">
        <ele>815.6</ele>
        <time>2022-10-15 09:12:00</time>
      </trkpt>
      <trkpt lat="38.72353" lon="-0.61092">
        <ele>816</ele>
        <time>2022-10-15 09:12:01</time>
      </trkpt>
      <trkpt lat="38.72353" lon="-0.61092">
        <ele>816</ele>
        <time>2022-10-15 09:12:02</time>
      </trkpt>
      <trkpt lat="38.72351" lon="-0.61103">
        <ele>816.2</ele>
        <time>2022-10-15 09:12:03</time>
      </trkpt>
      <trkpt lat="38.7235" lon="-0.61109">
        <ele>816.2</ele>
        <time>2022-10-15 09:12:04</time>
      </trkpt>
      <trkpt lat="38.72349" lon="-0.61116">
        <ele>816.2</ele>
        <time>2022-10-15 09:12:05</time>
      </trkpt>
      <trkpt lat="38.72347" lon="-0.61123">
        <ele>816.2</ele>
        <time>2022-10-15 09:12:06</time>
      </trkpt>
      <trkpt lat="38.72346" lon="-0.6113">
        <ele>816.2</ele>
        <time>2022-10-15 09:12:07</time>
      </trkpt>
      <trkpt lat="38.72346" lon="-0.6113">
        <ele>816.2</ele>
        <time>2022-10-15 09:12:08</time>
      </trkpt>
      <trkpt lat="38.72342" lon="-0.61144">
        <ele>816.2</ele>
        <time>2022-10-15 09:12:09</time>
      </trkpt>
      <trkpt lat="38.7234" lon="-0.61151">
        <ele>816.2</ele>
        <time>2022-10-15 09:12:10</time>
      </trkpt>
      <trkpt lat="38.72338" lon="-0.61159">
        <ele>816.2</ele>
        <time>2022-10-15 09:12:11</time>
      </trkpt>
      <trkpt lat="38.72337" lon="-0.61167">
        <ele>816</ele>
        <time>2022-10-15 09:12:12</time>
      </trkpt>
      <trkpt lat="38.72336" lon="-0.61175">
        <ele>815.6</ele>
        <time>2022-10-15 09:12:13</time>
      </trkpt>
      <trkpt lat="38.72336" lon="-0.61175">
        <ele>815.2</ele>
        <time>2022-10-15 09:12:14</time>
      </trkpt>
      <trkpt lat="38.72336" lon="-0.61193">
        <ele>814.8</ele>
        <time>2022-10-15 09:12:15</time>
      </trkpt>
      <trkpt lat="38.72335" lon="-0.61201">
        <ele>814.6</ele>
        <time>2022-10-15 09:12:16</time>
      </trkpt>
      <trkpt lat="38.72335" lon="-0.6121">
        <ele>814.2</ele>
        <time>2022-10-15 09:12:17</time>
      </trkpt>
      <trkpt lat="38.72335" lon="-0.61218">
        <ele>813.8</ele>
        <time>2022-10-15 09:12:18</time>
      </trkpt>
      <trkpt lat="38.72334" lon="-0.61227">
        <ele>813.2</ele>
        <time>2022-10-15 09:12:19</time>
      </trkpt>
      <trkpt lat="38.72334" lon="-0.61227">
        <ele>812.6</ele>
        <time>2022-10-15 09:12:20</time>
      </trkpt>
      <trkpt lat="38.72332" lon="-0.61243">
        <ele>812</ele>
        <time>2022-10-15 09:12:21</time>
      </trkpt>
      <trkpt lat="38.7233" lon="-0.61252">
        <ele>811.6</ele>
        <time>2022-10-15 09:12:22</time>
      </trkpt>
      <trkpt lat="38.72329" lon="-0.6126">
        <ele>811</ele>
        <time>2022-10-15 09:12:23</time>
      </trkpt>
      <trkpt lat="38.72328" lon="-0.61269">
        <ele>810.4</ele>
        <time>2022-10-15 09:12:24</time>
      </trkpt>
      <trkpt lat="38.72328" lon="-0.61278">
        <ele>810</ele>
        <time>2022-10-15 09:12:25</time>
      </trkpt>
      <trkpt lat="38.72328" lon="-0.61278">
        <ele>809.8</ele>
        <time>2022-10-15 09:12:26</time>
      </trkpt>
      <trkpt lat="38.72326" lon="-0.61295">
        <ele>809.6</ele>
        <time>2022-10-15 09:12:27</time>
      </trkpt>
      <trkpt lat="38.72325" lon="-0.61303">
        <ele>809.4</ele>
        <time>2022-10-15 09:12:28</time>
      </trkpt>
      <trkpt lat="38.72324" lon="-0.61311">
        <ele>809</ele>
        <time>2022-10-15 09:12:29</time>
      </trkpt>
      <trkpt lat="38.72322" lon="-0.61319">
        <ele>808.8</ele>
        <time>2022-10-15 09:12:30</time>
      </trkpt>
      <trkpt lat="38.72321" lon="-0.61327">
        <ele>808.4</ele>
        <time>2022-10-15 09:12:31</time>
      </trkpt>
      <trkpt lat="38.72321" lon="-0.61327">
        <ele>808</ele>
        <time>2022-10-15 09:12:32</time>
      </trkpt>
      <trkpt lat="38.72317" lon="-0.61343">
        <ele>807.6</ele>
        <time>2022-10-15 09:12:33</time>
      </trkpt>
      <trkpt lat="38.72315" lon="-0.61352">
        <ele>807.4</ele>
        <time>2022-10-15 09:12:34</time>
      </trkpt>
      <trkpt lat="38.72314" lon="-0.61361">
        <ele>807.2</ele>
        <time>2022-10-15 09:12:35</time>
      </trkpt>
      <trkpt lat="38.72313" lon="-0.6137">
        <ele>806.8</ele>
        <time>2022-10-15 09:12:36</time>
      </trkpt>
      <trkpt lat="38.72312" lon="-0.61379">
        <ele>806.8</ele>
        <time>2022-10-15 09:12:37</time>
      </trkpt>
      <trkpt lat="38.72312" lon="-0.61379">
        <ele>806.6</ele>
        <time>2022-10-15 09:12:38</time>
      </trkpt>
      <trkpt lat="38.72311" lon="-0.61398">
        <ele>806.6</ele>
        <time>2022-10-15 09:12:39</time>
      </trkpt>
      <trkpt lat="38.72309" lon="-0.61407">
        <ele>806.4</ele>
        <time>2022-10-15 09:12:40</time>
      </trkpt>
      <trkpt lat="38.72307" lon="-0.61416">
        <ele>806.2</ele>
        <time>2022-10-15 09:12:41</time>
      </trkpt>
      <trkpt lat="38.72304" lon="-0.61425">
        <ele>806</ele>
        <time>2022-10-15 09:12:42</time>
      </trkpt>
      <trkpt lat="38.72301" lon="-0.61433">
        <ele>805.6</ele>
        <time>2022-10-15 09:12:43</time>
      </trkpt>
      <trkpt lat="38.72301" lon="-0.61433">
        <ele>805.2</ele>
        <time>2022-10-15 09:12:44</time>
      </trkpt>
      <trkpt lat="38.72295" lon="-0.61451">
        <ele>804.8</ele>
        <time>2022-10-15 09:12:45</time>
      </trkpt>
      <trkpt lat="38.72293" lon="-0.6146">
        <ele>804.6</ele>
        <time>2022-10-15 09:12:46</time>
      </trkpt>
      <trkpt lat="38.7229" lon="-0.6147">
        <ele>804.2</ele>
        <time>2022-10-15 09:12:47</time>
      </trkpt>
      <trkpt lat="38.72288" lon="-0.61479">
        <ele>803.8</ele>
        <time>2022-10-15 09:12:48</time>
      </trkpt>
      <trkpt lat="38.72284" lon="-0.61488">
        <ele>803.4</ele>
        <time>2022-10-15 09:12:49</time>
      </trkpt>
      <trkpt lat="38.72284" lon="-0.61488">
        <ele>802.8</ele>
        <time>2022-10-15 09:12:50</time>
      </trkpt>
      <trkpt lat="38.72277" lon="-0.61506">
        <ele>802.4</ele>
        <time>2022-10-15 09:12:51</time>
      </trkpt>
      <trkpt lat="38.72273" lon="-0.61515">
        <ele>802</ele>
        <time>2022-10-15 09:12:52</time>
      </trkpt>
      <trkpt lat="38.72269" lon="-0.61525">
        <ele>801.8</ele>
        <time>2022-10-15 09:12:53</time>
      </trkpt>
      <trkpt lat="38.72266" lon="-0.61534">
        <ele>801.6</ele>
        <time>2022-10-15 09:12:54</time>
      </trkpt>
      <trkpt lat="38.72262" lon="-0.61543">
        <ele>801.6</ele>
        <time>2022-10-15 09:12:55</time>
      </trkpt>
      <trkpt lat="38.72262" lon="-0.61543">
        <ele>801.2</ele>
        <time>2022-10-15 09:12:56</time>
      </trkpt>
      <trkpt lat="38.72259" lon="-0.61551">
        <ele>800.6</ele>
        <time>2022-10-15 09:12:57</time>
      </trkpt>
      <trkpt lat="38.72253" lon="-0.61565">
        <ele>800</ele>
        <time>2022-10-15 09:12:58</time>
      </trkpt>
      <trkpt lat="38.72251" lon="-0.61571">
        <ele>799.2</ele>
        <time>2022-10-15 09:12:59</time>
      </trkpt>
      <trkpt lat="38.72249" lon="-0.61576">
        <ele>798.6</ele>
        <time>2022-10-15 09:13:00</time>
      </trkpt>
      <trkpt lat="38.72247" lon="-0.6158">
        <ele>798</ele>
        <time>2022-10-15 09:13:01</time>
      </trkpt>
      <trkpt lat="38.72247" lon="-0.6158">
        <ele>797.6</ele>
        <time>2022-10-15 09:13:02</time>
      </trkpt>
      <trkpt lat="38.72245" lon="-0.61583">
        <ele>797.4</ele>
        <time>2022-10-15 09:13:03</time>
      </trkpt>
      <trkpt lat="38.7224" lon="-0.61588">
        <ele>796.2</ele>
        <time>2022-10-15 09:13:04</time>
      </trkpt>
      <trkpt lat="38.72237" lon="-0.61589">
        <ele>795.8</ele>
        <time>2022-10-15 09:13:05</time>
      </trkpt>
      <trkpt lat="38.72234" lon="-0.6159">
        <ele>795.6</ele>
        <time>2022-10-15 09:13:06</time>
      </trkpt>
      <trkpt lat="38.72231" lon="-0.61591">
        <ele>795.4</ele>
        <time>2022-10-15 09:13:07</time>
      </trkpt>
      <trkpt lat="38.72231" lon="-0.61591">
        <ele>795.2</ele>
        <time>2022-10-15 09:13:08</time>
      </trkpt>
      <trkpt lat="38.72224" lon="-0.61592">
        <ele>795.2</ele>
        <time>2022-10-15 09:13:09</time>
      </trkpt>
      <trkpt lat="38.7222" lon="-0.61594">
        <ele>795</ele>
        <time>2022-10-15 09:13:10</time>
      </trkpt>
      <trkpt lat="38.72217" lon="-0.61596">
        <ele>794.8</ele>
        <time>2022-10-15 09:13:11</time>
      </trkpt>
      <trkpt lat="38.72215" lon="-0.61599">
        <ele>794.4</ele>
        <time>2022-10-15 09:13:12</time>
      </trkpt>
      <trkpt lat="38.72213" lon="-0.61601">
        <ele>794.2</ele>
        <time>2022-10-15 09:13:13</time>
      </trkpt>
      <trkpt lat="38.72213" lon="-0.61601">
        <ele>794</ele>
        <time>2022-10-15 09:13:14</time>
      </trkpt>
      <trkpt lat="38.72211" lon="-0.61605">
        <ele>793.8</ele>
        <time>2022-10-15 09:13:15</time>
      </trkpt>
      <trkpt lat="38.7221" lon="-0.61607">
        <ele>793.4</ele>
        <time>2022-10-15 09:13:16</time>
      </trkpt>
      <trkpt lat="38.7221" lon="-0.61609">
        <ele>793.2</ele>
        <time>2022-10-15 09:13:17</time>
      </trkpt>
      <trkpt lat="38.72209" lon="-0.61611">
        <ele>793.2</ele>
        <time>2022-10-15 09:13:18</time>
      </trkpt>
      <trkpt lat="38.72208" lon="-0.61613">
        <ele>793.2</ele>
        <time>2022-10-15 09:13:19</time>
      </trkpt>
      <trkpt lat="38.72208" lon="-0.61613">
        <ele>793.2</ele>
        <time>2022-10-15 09:13:20</time>
      </trkpt>
      <trkpt lat="38.72207" lon="-0.61617">
        <ele>793.2</ele>
        <time>2022-10-15 09:13:21</time>
      </trkpt>
      <trkpt lat="38.72207" lon="-0.6162">
        <ele>793.2</ele>
        <time>2022-10-15 09:13:22</time>
      </trkpt>
      <trkpt lat="38.72207" lon="-0.61622">
        <ele>793.2</ele>
        <time>2022-10-15 09:13:23</time>
      </trkpt>
      <trkpt lat="38.72206" lon="-0.61625">
        <ele>793</ele>
        <time>2022-10-15 09:13:24</time>
      </trkpt>
      <trkpt lat="38.72205" lon="-0.61629">
        <ele>793</ele>
        <time>2022-10-15 09:13:25</time>
      </trkpt>
      <trkpt lat="38.72205" lon="-0.61629">
        <ele>793</ele>
        <time>2022-10-15 09:13:26</time>
      </trkpt>
      <trkpt lat="38.72203" lon="-0.61637">
        <ele>793</ele>
        <time>2022-10-15 09:13:27</time>
      </trkpt>
      <trkpt lat="38.72201" lon="-0.61641">
        <ele>793</ele>
        <time>2022-10-15 09:13:28</time>
      </trkpt>
      <trkpt lat="38.72199" lon="-0.61646">
        <ele>793</ele>
        <time>2022-10-15 09:13:29</time>
      </trkpt>
      <trkpt lat="38.72197" lon="-0.6165">
        <ele>793</ele>
        <time>2022-10-15 09:13:30</time>
      </trkpt>
      <trkpt lat="38.72195" lon="-0.61654">
        <ele>793</ele>
        <time>2022-10-15 09:13:31</time>
      </trkpt>
      <trkpt lat="38.72195" lon="-0.61654">
        <ele>793</ele>
        <time>2022-10-15 09:13:32</time>
      </trkpt>
      <trkpt lat="38.72192" lon="-0.61658">
        <ele>793</ele>
        <time>2022-10-15 09:13:33</time>
      </trkpt>
      <trkpt lat="38.72189" lon="-0.61661">
        <ele>793</ele>
        <time>2022-10-15 09:13:34</time>
      </trkpt>
      <trkpt lat="38.72185" lon="-0.61665">
        <ele>793</ele>
        <time>2022-10-15 09:13:35</time>
      </trkpt>
      <trkpt lat="38.72181" lon="-0.61668">
        <ele>793</ele>
        <time>2022-10-15 09:13:36</time>
      </trkpt>
      <trkpt lat="38.72177" lon="-0.61671">
        <ele>793</ele>
        <time>2022-10-15 09:13:37</time>
      </trkpt>
      <trkpt lat="38.72172" lon="-0.61674">
        <ele>792.8</ele>
        <time>2022-10-15 09:13:38</time>
      </trkpt>
      <trkpt lat="38.72167" lon="-0.61676">
        <ele>792.8</ele>
        <time>2022-10-15 09:13:39</time>
      </trkpt>
      <trkpt lat="38.72162" lon="-0.6168">
        <ele>792.8</ele>
        <time>2022-10-15 09:13:40</time>
      </trkpt>
      <trkpt lat="38.72157" lon="-0.61683">
        <ele>792.6</ele>
        <time>2022-10-15 09:13:41</time>
      </trkpt>
      <trkpt lat="38.72153" lon="-0.61686">
        <ele>792.6</ele>
        <time>2022-10-15 09:13:42</time>
      </trkpt>
      <trkpt lat="38.72149" lon="-0.6169">
        <ele>792.2</ele>
        <time>2022-10-15 09:13:43</time>
      </trkpt>
      <trkpt lat="38.72145" lon="-0.61694">
        <ele>792</ele>
        <time>2022-10-15 09:13:44</time>
      </trkpt>
      <trkpt lat="38.72141" lon="-0.61698">
        <ele>791.8</ele>
        <time>2022-10-15 09:13:45</time>
      </trkpt>
      <trkpt lat="38.72132" lon="-0.61706">
        <ele>791.8</ele>
        <time>2022-10-15 09:13:46</time>
      </trkpt>
      <trkpt lat="38.72132" lon="-0.61706">
        <ele>791.6</ele>
        <time>2022-10-15 09:13:47</time>
      </trkpt>
      <trkpt lat="38.72128" lon="-0.6171">
        <ele>791.6</ele>
        <time>2022-10-15 09:13:48</time>
      </trkpt>
      <trkpt lat="38.72124" lon="-0.61714">
        <ele>791.6</ele>
        <time>2022-10-15 09:13:49</time>
      </trkpt>
      <trkpt lat="38.72119" lon="-0.61718">
        <ele>791.6</ele>
        <time>2022-10-15 09:13:50</time>
      </trkpt>
      <trkpt lat="38.72111" lon="-0.61728">
        <ele>791.4</ele>
        <time>2022-10-15 09:13:51</time>
      </trkpt>
      <trkpt lat="38.72111" lon="-0.61728">
        <ele>791.4</ele>
        <time>2022-10-15 09:13:52</time>
      </trkpt>
      <trkpt lat="38.72106" lon="-0.61733">
        <ele>791.4</ele>
        <time>2022-10-15 09:13:53</time>
      </trkpt>
      <trkpt lat="38.72102" lon="-0.61739">
        <ele>791.4</ele>
        <time>2022-10-15 09:13:54</time>
      </trkpt>
      <trkpt lat="38.72098" lon="-0.61745">
        <ele>791.4</ele>
        <time>2022-10-15 09:13:55</time>
      </trkpt>
      <trkpt lat="38.72093" lon="-0.6175">
        <ele>791.4</ele>
        <time>2022-10-15 09:13:56</time>
      </trkpt>
      <trkpt lat="38.72087" lon="-0.61753">
        <ele>791.4</ele>
        <time>2022-10-15 09:13:57</time>
      </trkpt>
      <trkpt lat="38.72081" lon="-0.61755">
        <ele>791.4</ele>
        <time>2022-10-15 09:13:58</time>
      </trkpt>
      <trkpt lat="38.72074" lon="-0.61756">
        <ele>791.4</ele>
        <time>2022-10-15 09:13:59</time>
      </trkpt>
      <trkpt lat="38.72068" lon="-0.61759">
        <ele>791.2</ele>
        <time>2022-10-15 09:14:00</time>
      </trkpt>
      <trkpt lat="38.72064" lon="-0.61764">
        <ele>791.2</ele>
        <time>2022-10-15 09:14:01</time>
      </trkpt>
      <trkpt lat="38.72061" lon="-0.61769">
        <ele>791.2</ele>
        <time>2022-10-15 09:14:02</time>
      </trkpt>
      <trkpt lat="38.7206" lon="-0.61775">
        <ele>791.2</ele>
        <time>2022-10-15 09:14:03</time>
      </trkpt>
      <trkpt lat="38.7206" lon="-0.6178">
        <ele>791</ele>
        <time>2022-10-15 09:14:04</time>
      </trkpt>
      <trkpt lat="38.72061" lon="-0.61785">
        <ele>790.8</ele>
        <time>2022-10-15 09:14:05</time>
      </trkpt>
      <trkpt lat="38.72062" lon="-0.61789">
        <ele>790.8</ele>
        <time>2022-10-15 09:14:06</time>
      </trkpt>
      <trkpt lat="38.72061" lon="-0.61794">
        <ele>790.8</ele>
        <time>2022-10-15 09:14:07</time>
      </trkpt>
      <trkpt lat="38.72058" lon="-0.61802">
        <ele>790.8</ele>
        <time>2022-10-15 09:14:09</time>
      </trkpt>
      <trkpt lat="38.72055" lon="-0.61806">
        <ele>790.8</ele>
        <time>2022-10-15 09:14:10</time>
      </trkpt>
      <trkpt lat="38.72048" lon="-0.61813">
        <ele>790.8</ele>
        <time>2022-10-15 09:14:11</time>
      </trkpt>
      <trkpt lat="38.72045" lon="-0.61817">
        <ele>790.8</ele>
        <time>2022-10-15 09:14:13</time>
      </trkpt>
      <trkpt lat="38.72041" lon="-0.61822">
        <ele>790.8</ele>
        <time>2022-10-15 09:14:14</time>
      </trkpt>
      <trkpt lat="38.72034" lon="-0.61832">
        <ele>791.2</ele>
        <time>2022-10-15 09:14:16</time>
      </trkpt>
      <trkpt lat="38.72031" lon="-0.61837">
        <ele>791.4</ele>
        <time>2022-10-15 09:14:17</time>
      </trkpt>
      <trkpt lat="38.72028" lon="-0.61842">
        <ele>791.6</ele>
        <time>2022-10-15 09:14:18</time>
      </trkpt>
      <trkpt lat="38.72026" lon="-0.61847">
        <ele>791.6</ele>
        <time>2022-10-15 09:14:19</time>
      </trkpt>
      <trkpt lat="38.72024" lon="-0.61852">
        <ele>791.8</ele>
        <time>2022-10-15 09:14:20</time>
      </trkpt>
      <trkpt lat="38.7202" lon="-0.61863">
        <ele>791.8</ele>
        <time>2022-10-15 09:14:21</time>
      </trkpt>
      <trkpt lat="38.72018" lon="-0.61868">
        <ele>792</ele>
        <time>2022-10-15 09:14:23</time>
      </trkpt>
      <trkpt lat="38.72013" lon="-0.61878">
        <ele>792.2</ele>
        <time>2022-10-15 09:14:25</time>
      </trkpt>
      <trkpt lat="38.7201" lon="-0.61883">
        <ele>792.2</ele>
        <time>2022-10-15 09:14:26</time>
      </trkpt>
      <trkpt lat="38.72006" lon="-0.61894">
        <ele>792.2</ele>
        <time>2022-10-15 09:14:28</time>
      </trkpt>
      <trkpt lat="38.72002" lon="-0.61905">
        <ele>792.4</ele>
        <time>2022-10-15 09:14:30</time>
      </trkpt>
      <trkpt lat="38.71997" lon="-0.61918">
        <ele>792.4</ele>
        <time>2022-10-15 09:14:32</time>
      </trkpt>
      <trkpt lat="38.71994" lon="-0.61926">
        <ele>792.4</ele>
        <time>2022-10-15 09:14:33</time>
      </trkpt>
      <trkpt lat="38.71992" lon="-0.61941">
        <ele>792.4</ele>
        <time>2022-10-15 09:14:35</time>
      </trkpt>
      <trkpt lat="38.7199" lon="-0.61955">
        <ele>792</ele>
        <time>2022-10-15 09:14:37</time>
      </trkpt>
      <trkpt lat="38.71988" lon="-0.61963">
        <ele>791.8</ele>
        <time>2022-10-15 09:14:38</time>
      </trkpt>
      <trkpt lat="38.71986" lon="-0.6197">
        <ele>791.6</ele>
        <time>2022-10-15 09:14:39</time>
      </trkpt>
      <trkpt lat="38.71982" lon="-0.61976">
        <ele>791.4</ele>
        <time>2022-10-15 09:14:40</time>
      </trkpt>
      <trkpt lat="38.71979" lon="-0.61983">
        <ele>791.2</ele>
        <time>2022-10-15 09:14:41</time>
      </trkpt>
      <trkpt lat="38.71972" lon="-0.61996">
        <ele>791.2</ele>
        <time>2022-10-15 09:14:42</time>
      </trkpt>
      <trkpt lat="38.71972" lon="-0.61996">
        <ele>791</ele>
        <time>2022-10-15 09:14:43</time>
      </trkpt>
      <trkpt lat="38.71968" lon="-0.62002">
        <ele>790.8</ele>
        <time>2022-10-15 09:14:44</time>
      </trkpt>
      <trkpt lat="38.71965" lon="-0.62009">
        <ele>790.8</ele>
        <time>2022-10-15 09:14:45</time>
      </trkpt>
      <trkpt lat="38.7196" lon="-0.62023">
        <ele>790.8</ele>
        <time>2022-10-15 09:14:46</time>
      </trkpt>
      <trkpt lat="38.71957" lon="-0.6203">
        <ele>790.6</ele>
        <time>2022-10-15 09:14:47</time>
      </trkpt>
      <trkpt lat="38.71957" lon="-0.6203">
        <ele>790.6</ele>
        <time>2022-10-15 09:14:48</time>
      </trkpt>
      <trkpt lat="38.71954" lon="-0.62037">
        <ele>790.6</ele>
        <time>2022-10-15 09:14:49</time>
      </trkpt>
      <trkpt lat="38.71952" lon="-0.62044">
        <ele>790.4</ele>
        <time>2022-10-15 09:14:50</time>
      </trkpt>
      <trkpt lat="38.71949" lon="-0.62051">
        <ele>790.4</ele>
        <time>2022-10-15 09:14:51</time>
      </trkpt>
      <trkpt lat="38.71947" lon="-0.62057">
        <ele>790.4</ele>
        <time>2022-10-15 09:14:52</time>
      </trkpt>
      <trkpt lat="38.71945" lon="-0.62064">
        <ele>790.2</ele>
        <time>2022-10-15 09:14:53</time>
      </trkpt>
      <trkpt lat="38.71944" lon="-0.62071">
        <ele>790</ele>
        <time>2022-10-15 09:14:54</time>
      </trkpt>
      <trkpt lat="38.71943" lon="-0.62078">
        <ele>790</ele>
        <time>2022-10-15 09:14:55</time>
      </trkpt>
      <trkpt lat="38.71942" lon="-0.62086">
        <ele>789.8</ele>
        <time>2022-10-15 09:14:56</time>
      </trkpt>
      <trkpt lat="38.7194" lon="-0.62093">
        <ele>789.8</ele>
        <time>2022-10-15 09:14:57</time>
      </trkpt>
      <trkpt lat="38.71938" lon="-0.62099">
        <ele>789.8</ele>
        <time>2022-10-15 09:14:58</time>
      </trkpt>
      <trkpt lat="38.71935" lon="-0.62106">
        <ele>789.8</ele>
        <time>2022-10-15 09:14:59</time>
      </trkpt>
      <trkpt lat="38.71933" lon="-0.62112">
        <ele>789.8</ele>
        <time>2022-10-15 09:15:00</time>
      </trkpt>
      <trkpt lat="38.7193" lon="-0.62118">
        <ele>789.6</ele>
        <time>2022-10-15 09:15:01</time>
      </trkpt>
      <trkpt lat="38.71927" lon="-0.62124">
        <ele>789.6</ele>
        <time>2022-10-15 09:15:02</time>
      </trkpt>
      <trkpt lat="38.71921" lon="-0.62135">
        <ele>789.6</ele>
        <time>2022-10-15 09:15:03</time>
      </trkpt>
      <trkpt lat="38.71921" lon="-0.62135">
        <ele>789.6</ele>
        <time>2022-10-15 09:15:04</time>
      </trkpt>
      <trkpt lat="38.71918" lon="-0.62139">
        <ele>789.6</ele>
        <time>2022-10-15 09:15:05</time>
      </trkpt>
      <trkpt lat="38.71915" lon="-0.62144">
        <ele>789.6</ele>
        <time>2022-10-15 09:15:06</time>
      </trkpt>
      <trkpt lat="38.71912" lon="-0.62148">
        <ele>789.6</ele>
        <time>2022-10-15 09:15:07</time>
      </trkpt>
      <trkpt lat="38.71908" lon="-0.62152">
        <ele>789.4</ele>
        <time>2022-10-15 09:15:08</time>
      </trkpt>
      <trkpt lat="38.71904" lon="-0.62155">
        <ele>789.4</ele>
        <time>2022-10-15 09:15:09</time>
      </trkpt>
      <trkpt lat="38.719" lon="-0.6216">
        <ele>789.4</ele>
        <time>2022-10-15 09:15:10</time>
      </trkpt>
      <trkpt lat="38.71895" lon="-0.62165">
        <ele>789.4</ele>
        <time>2022-10-15 09:15:11</time>
      </trkpt>
      <trkpt lat="38.71891" lon="-0.62172">
        <ele>789.2</ele>
        <time>2022-10-15 09:15:12</time>
      </trkpt>
      <trkpt lat="38.71886" lon="-0.62179">
        <ele>789</ele>
        <time>2022-10-15 09:15:13</time>
      </trkpt>
      <trkpt lat="38.71882" lon="-0.62186">
        <ele>788.8</ele>
        <time>2022-10-15 09:15:14</time>
      </trkpt>
      <trkpt lat="38.71879" lon="-0.62194">
        <ele>788.4</ele>
        <time>2022-10-15 09:15:15</time>
      </trkpt>
      <trkpt lat="38.71875" lon="-0.62201">
        <ele>788.2</ele>
        <time>2022-10-15 09:15:16</time>
      </trkpt>
      <trkpt lat="38.71871" lon="-0.62208">
        <ele>787.4</ele>
        <time>2022-10-15 09:15:17</time>
      </trkpt>
      <trkpt lat="38.71868" lon="-0.62216">
        <ele>786.8</ele>
        <time>2022-10-15 09:15:18</time>
      </trkpt>
      <trkpt lat="38.71864" lon="-0.62223">
        <ele>786.2</ele>
        <time>2022-10-15 09:15:19</time>
      </trkpt>
      <trkpt lat="38.7186" lon="-0.62231">
        <ele>785.4</ele>
        <time>2022-10-15 09:15:20</time>
      </trkpt>
      <trkpt lat="38.71856" lon="-0.62238">
        <ele>784.6</ele>
        <time>2022-10-15 09:15:21</time>
      </trkpt>
      <trkpt lat="38.71853" lon="-0.62246">
        <ele>784.2</ele>
        <time>2022-10-15 09:15:22</time>
      </trkpt>
      <trkpt lat="38.71849" lon="-0.62253">
        <ele>783.8</ele>
        <time>2022-10-15 09:15:23</time>
      </trkpt>
      <trkpt lat="38.71841" lon="-0.62268">
        <ele>783.4</ele>
        <time>2022-10-15 09:15:24</time>
      </trkpt>
      <trkpt lat="38.71841" lon="-0.62268">
        <ele>782.2</ele>
        <time>2022-10-15 09:15:25</time>
      </trkpt>
      <trkpt lat="38.71837" lon="-0.62275">
        <ele>781.8</ele>
        <time>2022-10-15 09:15:26</time>
      </trkpt>
      <trkpt lat="38.71833" lon="-0.62282">
        <ele>781.4</ele>
        <time>2022-10-15 09:15:27</time>
      </trkpt>
      <trkpt lat="38.71827" lon="-0.62289">
        <ele>780.8</ele>
        <time>2022-10-15 09:15:28</time>
      </trkpt>
      <trkpt lat="38.71822" lon="-0.62296">
        <ele>780.4</ele>
        <time>2022-10-15 09:15:29</time>
      </trkpt>
      <trkpt lat="38.71817" lon="-0.62302">
        <ele>780</ele>
        <time>2022-10-15 09:15:30</time>
      </trkpt>
      <trkpt lat="38.71812" lon="-0.62308">
        <ele>779.6</ele>
        <time>2022-10-15 09:15:31</time>
      </trkpt>
      <trkpt lat="38.71807" lon="-0.62314">
        <ele>779</ele>
        <time>2022-10-15 09:15:32</time>
      </trkpt>
      <trkpt lat="38.71804" lon="-0.62318">
        <ele>778.4</ele>
        <time>2022-10-15 09:15:33</time>
      </trkpt>
      <trkpt lat="38.71801" lon="-0.62322">
        <ele>778</ele>
        <time>2022-10-15 09:15:34</time>
      </trkpt>
      <trkpt lat="38.71798" lon="-0.62326">
        <ele>777.4</ele>
        <time>2022-10-15 09:15:35</time>
      </trkpt>
      <trkpt lat="38.71795" lon="-0.6233">
        <ele>776.6</ele>
        <time>2022-10-15 09:15:36</time>
      </trkpt>
      <trkpt lat="38.71793" lon="-0.62334">
        <ele>776.2</ele>
        <time>2022-10-15 09:15:37</time>
      </trkpt>
      <trkpt lat="38.71791" lon="-0.62338">
        <ele>775.8</ele>
        <time>2022-10-15 09:15:38</time>
      </trkpt>
      <trkpt lat="38.71789" lon="-0.62341">
        <ele>775.4</ele>
        <time>2022-10-15 09:15:39</time>
      </trkpt>
      <trkpt lat="38.71787" lon="-0.62343">
        <ele>775.2</ele>
        <time>2022-10-15 09:15:40</time>
      </trkpt>
      <trkpt lat="38.71785" lon="-0.62345">
        <ele>775</ele>
        <time>2022-10-15 09:15:41</time>
      </trkpt>
      <trkpt lat="38.71784" lon="-0.62348">
        <ele>774.8</ele>
        <time>2022-10-15 09:15:42</time>
      </trkpt>
      <trkpt lat="38.71782" lon="-0.62351">
        <ele>774</ele>
        <time>2022-10-15 09:15:43</time>
      </trkpt>
      <trkpt lat="38.71782" lon="-0.62355">
        <ele>773.8</ele>
        <time>2022-10-15 09:15:44</time>
      </trkpt>
      <trkpt lat="38.71781" lon="-0.62358">
        <ele>773.2</ele>
        <time>2022-10-15 09:15:45</time>
      </trkpt>
      <trkpt lat="38.71781" lon="-0.6236">
        <ele>772.8</ele>
        <time>2022-10-15 09:15:46</time>
      </trkpt>
      <trkpt lat="38.71781" lon="-0.62362">
        <ele>772.4</ele>
        <time>2022-10-15 09:15:47</time>
      </trkpt>
      <trkpt lat="38.71781" lon="-0.62364">
        <ele>772.4</ele>
        <time>2022-10-15 09:15:48</time>
      </trkpt>
      <trkpt lat="38.71781" lon="-0.62366">
        <ele>772</ele>
        <time>2022-10-15 09:15:49</time>
      </trkpt>
      <trkpt lat="38.71781" lon="-0.62368">
        <ele>772</ele>
        <time>2022-10-15 09:15:50</time>
      </trkpt>
      <trkpt lat="38.71781" lon="-0.6237">
        <ele>771.8</ele>
        <time>2022-10-15 09:15:51</time>
      </trkpt>
      <trkpt lat="38.71781" lon="-0.62373">
        <ele>771.8</ele>
        <time>2022-10-15 09:15:52</time>
      </trkpt>
      <trkpt lat="38.71782" lon="-0.62375">
        <ele>771.8</ele>
        <time>2022-10-15 09:15:53</time>
      </trkpt>
      <trkpt lat="38.71782" lon="-0.62377">
        <ele>771.8</ele>
        <time>2022-10-15 09:15:54</time>
      </trkpt>
      <trkpt lat="38.71783" lon="-0.6238">
        <ele>771.8</ele>
        <time>2022-10-15 09:15:55</time>
      </trkpt>
      <trkpt lat="38.71784" lon="-0.62383">
        <ele>771.8</ele>
        <time>2022-10-15 09:15:56</time>
      </trkpt>
      <trkpt lat="38.71786" lon="-0.62388">
        <ele>771.8</ele>
        <time>2022-10-15 09:15:58</time>
      </trkpt>
      <trkpt lat="38.71787" lon="-0.62391">
        <ele>771.8</ele>
        <time>2022-10-15 09:15:59</time>
      </trkpt>
      <trkpt lat="38.7179" lon="-0.62398">
        <ele>772</ele>
        <time>2022-10-15 09:16:00</time>
      </trkpt>
      <trkpt lat="38.7179" lon="-0.62398">
        <ele>772</ele>
        <time>2022-10-15 09:16:01</time>
      </trkpt>
      <trkpt lat="38.71792" lon="-0.62401">
        <ele>772.4</ele>
        <time>2022-10-15 09:16:02</time>
      </trkpt>
      <trkpt lat="38.71793" lon="-0.62405">
        <ele>772.4</ele>
        <time>2022-10-15 09:16:03</time>
      </trkpt>
      <trkpt lat="38.71794" lon="-0.62408">
        <ele>772.6</ele>
        <time>2022-10-15 09:16:04</time>
      </trkpt>
      <trkpt lat="38.71795" lon="-0.62411">
        <ele>772.8</ele>
        <time>2022-10-15 09:16:05</time>
      </trkpt>
      <trkpt lat="38.71798" lon="-0.62419">
        <ele>772.8</ele>
        <time>2022-10-15 09:16:06</time>
      </trkpt>
      <trkpt lat="38.71798" lon="-0.62419">
        <ele>772.8</ele>
        <time>2022-10-15 09:16:07</time>
      </trkpt>
      <trkpt lat="38.71799" lon="-0.62423">
        <ele>773</ele>
        <time>2022-10-15 09:16:08</time>
      </trkpt>
      <trkpt lat="38.718" lon="-0.62428">
        <ele>773.2</ele>
        <time>2022-10-15 09:16:09</time>
      </trkpt>
      <trkpt lat="38.718" lon="-0.62432">
        <ele>773.6</ele>
        <time>2022-10-15 09:16:10</time>
      </trkpt>
      <trkpt lat="38.71801" lon="-0.62442">
        <ele>773.8</ele>
        <time>2022-10-15 09:16:11</time>
      </trkpt>
      <trkpt lat="38.71801" lon="-0.62446">
        <ele>774.2</ele>
        <time>2022-10-15 09:16:12</time>
      </trkpt>
      <trkpt lat="38.71801" lon="-0.62446">
        <ele>774.4</ele>
        <time>2022-10-15 09:16:13</time>
      </trkpt>
      <trkpt lat="38.71802" lon="-0.62451">
        <ele>774.6</ele>
        <time>2022-10-15 09:16:14</time>
      </trkpt>
      <trkpt lat="38.71803" lon="-0.62455">
        <ele>775</ele>
        <time>2022-10-15 09:16:15</time>
      </trkpt>
      <trkpt lat="38.71804" lon="-0.62459">
        <ele>775.2</ele>
        <time>2022-10-15 09:16:16</time>
      </trkpt>
      <trkpt lat="38.71805" lon="-0.62463">
        <ele>775.4</ele>
        <time>2022-10-15 09:16:17</time>
      </trkpt>
      <trkpt lat="38.71808" lon="-0.62466">
        <ele>775.8</ele>
        <time>2022-10-15 09:16:18</time>
      </trkpt>
      <trkpt lat="38.7181" lon="-0.62469">
        <ele>776</ele>
        <time>2022-10-15 09:16:19</time>
      </trkpt>
      <trkpt lat="38.71813" lon="-0.62471">
        <ele>776.2</ele>
        <time>2022-10-15 09:16:20</time>
      </trkpt>
      <trkpt lat="38.71815" lon="-0.62473">
        <ele>776.4</ele>
        <time>2022-10-15 09:16:21</time>
      </trkpt>
      <trkpt lat="38.71818" lon="-0.62475">
        <ele>776.6</ele>
        <time>2022-10-15 09:16:22</time>
      </trkpt>
      <trkpt lat="38.71821" lon="-0.62477">
        <ele>776.6</ele>
        <time>2022-10-15 09:16:23</time>
      </trkpt>
      <trkpt lat="38.71823" lon="-0.62479">
        <ele>776.8</ele>
        <time>2022-10-15 09:16:24</time>
      </trkpt>
      <trkpt lat="38.71826" lon="-0.62481">
        <ele>777</ele>
        <time>2022-10-15 09:16:25</time>
      </trkpt>
      <trkpt lat="38.71829" lon="-0.62483">
        <ele>777.2</ele>
        <time>2022-10-15 09:16:26</time>
      </trkpt>
      <trkpt lat="38.71832" lon="-0.62485">
        <ele>777.4</ele>
        <time>2022-10-15 09:16:27</time>
      </trkpt>
      <trkpt lat="38.71834" lon="-0.62487">
        <ele>777.6</ele>
        <time>2022-10-15 09:16:28</time>
      </trkpt>
      <trkpt lat="38.71837" lon="-0.62489">
        <ele>778</ele>
        <time>2022-10-15 09:16:29</time>
      </trkpt>
      <trkpt lat="38.71842" lon="-0.62494">
        <ele>778.2</ele>
        <time>2022-10-15 09:16:30</time>
      </trkpt>
      <trkpt lat="38.71844" lon="-0.62495">
        <ele>778.4</ele>
        <time>2022-10-15 09:16:31</time>
      </trkpt>
      <trkpt lat="38.71844" lon="-0.62495">
        <ele>778.6</ele>
        <time>2022-10-15 09:16:32</time>
      </trkpt>
      <trkpt lat="38.71846" lon="-0.62497">
        <ele>778.8</ele>
        <time>2022-10-15 09:16:33</time>
      </trkpt>
      <trkpt lat="38.71851" lon="-0.625">
        <ele>779</ele>
        <time>2022-10-15 09:16:34</time>
      </trkpt>
      <trkpt lat="38.71851" lon="-0.625">
        <ele>779.2</ele>
        <time>2022-10-15 09:16:35</time>
      </trkpt>
      <trkpt lat="38.71856" lon="-0.62502">
        <ele>779.4</ele>
        <time>2022-10-15 09:16:36</time>
      </trkpt>
      <trkpt lat="38.71858" lon="-0.62503">
        <ele>779.6</ele>
        <time>2022-10-15 09:16:37</time>
      </trkpt>
      <trkpt lat="38.71858" lon="-0.62503">
        <ele>779.8</ele>
        <time>2022-10-15 09:16:38</time>
      </trkpt>
      <trkpt lat="38.71864" lon="-0.62505">
        <ele>780.2</ele>
        <time>2022-10-15 09:16:39</time>
      </trkpt>
      <trkpt lat="38.71864" lon="-0.62505">
        <ele>780.4</ele>
        <time>2022-10-15 09:16:40</time>
      </trkpt>
      <trkpt lat="38.7187" lon="-0.62506">
        <ele>780.6</ele>
        <time>2022-10-15 09:16:41</time>
      </trkpt>
      <trkpt lat="38.71873" lon="-0.62507">
        <ele>781</ele>
        <time>2022-10-15 09:16:42</time>
      </trkpt>
      <trkpt lat="38.71877" lon="-0.62507">
        <ele>781.4</ele>
        <time>2022-10-15 09:16:43</time>
      </trkpt>
      <trkpt lat="38.71877" lon="-0.62507">
        <ele>781.6</ele>
        <time>2022-10-15 09:16:44</time>
      </trkpt>
      <trkpt lat="38.7188" lon="-0.62508">
        <ele>781.8</ele>
        <time>2022-10-15 09:16:45</time>
      </trkpt>
      <trkpt lat="38.71888" lon="-0.62509">
        <ele>781.8</ele>
        <time>2022-10-15 09:16:46</time>
      </trkpt>
      <trkpt lat="38.71888" lon="-0.62509">
        <ele>781.8</ele>
        <time>2022-10-15 09:16:47</time>
      </trkpt>
      <trkpt lat="38.71891" lon="-0.6251">
        <ele>781.8</ele>
        <time>2022-10-15 09:16:48</time>
      </trkpt>
      <trkpt lat="38.71895" lon="-0.62511">
        <ele>781.8</ele>
        <time>2022-10-15 09:16:49</time>
      </trkpt>
      <trkpt lat="38.71899" lon="-0.62511">
        <ele>781.8</ele>
        <time>2022-10-15 09:16:50</time>
      </trkpt>
      <trkpt lat="38.71903" lon="-0.62511">
        <ele>781.8</ele>
        <time>2022-10-15 09:16:51</time>
      </trkpt>
      <trkpt lat="38.71908" lon="-0.6251">
        <ele>781.8</ele>
        <time>2022-10-15 09:16:52</time>
      </trkpt>
      <trkpt lat="38.71912" lon="-0.62508">
        <ele>781.8</ele>
        <time>2022-10-15 09:16:53</time>
      </trkpt>
      <trkpt lat="38.71917" lon="-0.62507">
        <ele>781.8</ele>
        <time>2022-10-15 09:16:54</time>
      </trkpt>
      <trkpt lat="38.71926" lon="-0.62504">
        <ele>781.8</ele>
        <time>2022-10-15 09:16:55</time>
      </trkpt>
      <trkpt lat="38.71926" lon="-0.62504">
        <ele>781.8</ele>
        <time>2022-10-15 09:16:56</time>
      </trkpt>
      <trkpt lat="38.71931" lon="-0.62503">
        <ele>781.4</ele>
        <time>2022-10-15 09:16:57</time>
      </trkpt>
      <trkpt lat="38.71935" lon="-0.62502">
        <ele>781.2</ele>
        <time>2022-10-15 09:16:58</time>
      </trkpt>
      <trkpt lat="38.7194" lon="-0.62501">
        <ele>780.8</ele>
        <time>2022-10-15 09:16:59</time>
      </trkpt>
      <trkpt lat="38.71944" lon="-0.62499">
        <ele>780.4</ele>
        <time>2022-10-15 09:17:00</time>
      </trkpt>
      <trkpt lat="38.71948" lon="-0.62497">
        <ele>780.2</ele>
        <time>2022-10-15 09:17:01</time>
      </trkpt>
      <trkpt lat="38.71951" lon="-0.62493">
        <ele>779.8</ele>
        <time>2022-10-15 09:17:02</time>
      </trkpt>
      <trkpt lat="38.71954" lon="-0.62489">
        <ele>779.6</ele>
        <time>2022-10-15 09:17:03</time>
      </trkpt>
      <trkpt lat="38.71956" lon="-0.62484">
        <ele>779.4</ele>
        <time>2022-10-15 09:17:04</time>
      </trkpt>
      <trkpt lat="38.71958" lon="-0.62479">
        <ele>779.2</ele>
        <time>2022-10-15 09:17:05</time>
      </trkpt>
      <trkpt lat="38.7196" lon="-0.62473">
        <ele>779</ele>
        <time>2022-10-15 09:17:06</time>
      </trkpt>
      <trkpt lat="38.71961" lon="-0.62467">
        <ele>779</ele>
        <time>2022-10-15 09:17:07</time>
      </trkpt>
      <trkpt lat="38.71963" lon="-0.6246">
        <ele>779</ele>
        <time>2022-10-15 09:17:08</time>
      </trkpt>
      <trkpt lat="38.71964" lon="-0.62453">
        <ele>779</ele>
        <time>2022-10-15 09:17:09</time>
      </trkpt>
      <trkpt lat="38.71966" lon="-0.62446">
        <ele>778.8</ele>
        <time>2022-10-15 09:17:10</time>
      </trkpt>
      <trkpt lat="38.7197" lon="-0.62432">
        <ele>778.8</ele>
        <time>2022-10-15 09:17:11</time>
      </trkpt>
      <trkpt lat="38.71972" lon="-0.62426">
        <ele>778.8</ele>
        <time>2022-10-15 09:17:12</time>
      </trkpt>
      <trkpt lat="38.71972" lon="-0.62426">
        <ele>778.8</ele>
        <time>2022-10-15 09:17:13</time>
      </trkpt>
      <trkpt lat="38.71974" lon="-0.6242">
        <ele>778.2</ele>
        <time>2022-10-15 09:17:14</time>
      </trkpt>
      <trkpt lat="38.71977" lon="-0.62414">
        <ele>777.8</ele>
        <time>2022-10-15 09:17:15</time>
      </trkpt>
      <trkpt lat="38.7198" lon="-0.62407">
        <ele>777.4</ele>
        <time>2022-10-15 09:17:16</time>
      </trkpt>
      <trkpt lat="38.71986" lon="-0.62394">
        <ele>777</ele>
        <time>2022-10-15 09:17:17</time>
      </trkpt>
      <trkpt lat="38.71993" lon="-0.6238">
        <ele>776.6</ele>
        <time>2022-10-15 09:17:19</time>
      </trkpt>
      <trkpt lat="38.72001" lon="-0.62366">
        <ele>776.4</ele>
        <time>2022-10-15 09:17:21</time>
      </trkpt>
      <trkpt lat="38.72001" lon="-0.62366">
        <ele>776</ele>
        <time>2022-10-15 09:17:22</time>
      </trkpt>
      <trkpt lat="38.72005" lon="-0.62359">
        <ele>775.6</ele>
        <time>2022-10-15 09:17:23</time>
      </trkpt>
      <trkpt lat="38.72009" lon="-0.62353">
        <ele>774.8</ele>
        <time>2022-10-15 09:17:24</time>
      </trkpt>
      <trkpt lat="38.72012" lon="-0.62348">
        <ele>774</ele>
        <time>2022-10-15 09:17:25</time>
      </trkpt>
      <trkpt lat="38.72016" lon="-0.62343">
        <ele>773.6</ele>
        <time>2022-10-15 09:17:26</time>
      </trkpt>
      <trkpt lat="38.7202" lon="-0.6234">
        <ele>773.4</ele>
        <time>2022-10-15 09:17:27</time>
      </trkpt>
      <trkpt lat="38.72025" lon="-0.62339">
        <ele>773.4</ele>
        <time>2022-10-15 09:17:28</time>
      </trkpt>
      <trkpt lat="38.7203" lon="-0.62339">
        <ele>773.2</ele>
        <time>2022-10-15 09:17:29</time>
      </trkpt>
      <trkpt lat="38.72034" lon="-0.6234">
        <ele>773.2</ele>
        <time>2022-10-15 09:17:30</time>
      </trkpt>
      <trkpt lat="38.72039" lon="-0.62342">
        <ele>773</ele>
        <time>2022-10-15 09:17:31</time>
      </trkpt>
      <trkpt lat="38.72043" lon="-0.62344">
        <ele>773</ele>
        <time>2022-10-15 09:17:32</time>
      </trkpt>
      <trkpt lat="38.72047" lon="-0.62346">
        <ele>772.8</ele>
        <time>2022-10-15 09:17:33</time>
      </trkpt>
      <trkpt lat="38.7205" lon="-0.62348">
        <ele>772.8</ele>
        <time>2022-10-15 09:17:34</time>
      </trkpt>
      <trkpt lat="38.72053" lon="-0.6235">
        <ele>772.6</ele>
        <time>2022-10-15 09:17:35</time>
      </trkpt>
      <trkpt lat="38.72058" lon="-0.62352">
        <ele>772.6</ele>
        <time>2022-10-15 09:17:36</time>
      </trkpt>
      <trkpt lat="38.72058" lon="-0.62352">
        <ele>772.6</ele>
        <time>2022-10-15 09:17:37</time>
      </trkpt>
      <trkpt lat="38.72061" lon="-0.62353">
        <ele>772.6</ele>
        <time>2022-10-15 09:17:38</time>
      </trkpt>
      <trkpt lat="38.72065" lon="-0.62355">
        <ele>772.6</ele>
        <time>2022-10-15 09:17:39</time>
      </trkpt>
      <trkpt lat="38.72067" lon="-0.62355">
        <ele>772.6</ele>
        <time>2022-10-15 09:17:40</time>
      </trkpt>
      <trkpt lat="38.72069" lon="-0.62356">
        <ele>772.6</ele>
        <time>2022-10-15 09:17:41</time>
      </trkpt>
      <trkpt lat="38.72071" lon="-0.62357">
        <ele>772.6</ele>
        <time>2022-10-15 09:17:42</time>
      </trkpt>
      <trkpt lat="38.72071" lon="-0.62357">
        <ele>772.4</ele>
        <time>2022-10-15 09:17:43</time>
      </trkpt>
      <trkpt lat="38.72073" lon="-0.62357">
        <ele>772.4</ele>
        <time>2022-10-15 09:17:44</time>
      </trkpt>
      <trkpt lat="38.72075" lon="-0.62358">
        <ele>772.2</ele>
        <time>2022-10-15 09:17:45</time>
      </trkpt>
      <trkpt lat="38.72078" lon="-0.62359">
        <ele>772.2</ele>
        <time>2022-10-15 09:17:46</time>
      </trkpt>
      <trkpt lat="38.72079" lon="-0.62359">
        <ele>772</ele>
        <time>2022-10-15 09:17:47</time>
      </trkpt>
      <trkpt lat="38.72081" lon="-0.6236">
        <ele>772</ele>
        <time>2022-10-15 09:17:48</time>
      </trkpt>
      <trkpt lat="38.72082" lon="-0.6236">
        <ele>771.8</ele>
        <time>2022-10-15 09:17:49</time>
      </trkpt>
      <trkpt lat="38.72082" lon="-0.6236">
        <ele>771.8</ele>
        <time>2022-10-15 09:17:50</time>
      </trkpt>
      <trkpt lat="38.72084" lon="-0.62361">
        <ele>771.8</ele>
        <time>2022-10-15 09:17:51</time>
      </trkpt>
      <trkpt lat="38.72085" lon="-0.62361">
        <ele>771.6</ele>
        <time>2022-10-15 09:17:52</time>
      </trkpt>
      <trkpt lat="38.72087" lon="-0.62361">
        <ele>771.6</ele>
        <time>2022-10-15 09:17:54</time>
      </trkpt>
      <trkpt lat="38.72087" lon="-0.62361">
        <ele>771.4</ele>
        <time>2022-10-15 09:17:56</time>
      </trkpt>
      <trkpt lat="38.72088" lon="-0.62362">
        <ele>771.4</ele>
        <time>2022-10-15 09:17:58</time>
      </trkpt>
      <trkpt lat="38.7209" lon="-0.62362">
        <ele>771.2</ele>
        <time>2022-10-15 09:18:00</time>
      </trkpt>
      <trkpt lat="38.72091" lon="-0.62362">
        <ele>771.2</ele>
        <time>2022-10-15 09:18:01</time>
      </trkpt>
      <trkpt lat="38.72091" lon="-0.62362">
        <ele>771</ele>
        <time>2022-10-15 09:18:02</time>
      </trkpt>
      <trkpt lat="38.72092" lon="-0.62362">
        <ele>770.8</ele>
        <time>2022-10-15 09:18:03</time>
      </trkpt>
      <trkpt lat="38.72093" lon="-0.62362">
        <ele>770.8</ele>
        <time>2022-10-15 09:18:04</time>
      </trkpt>
      <trkpt lat="38.72093" lon="-0.62362">
        <ele>770.8</ele>
        <time>2022-10-15 09:18:05</time>
      </trkpt>
      <trkpt lat="38.72096" lon="-0.62362">
        <ele>770.8</ele>
        <time>2022-10-15 09:18:07</time>
      </trkpt>
      <trkpt lat="38.72097" lon="-0.62362">
        <ele>770.6</ele>
        <time>2022-10-15 09:18:09</time>
      </trkpt>
      <trkpt lat="38.72098" lon="-0.62362">
        <ele>770.6</ele>
        <time>2022-10-15 09:18:10</time>
      </trkpt>
      <trkpt lat="38.72099" lon="-0.62362">
        <ele>770.4</ele>
        <time>2022-10-15 09:18:11</time>
      </trkpt>
      <trkpt lat="38.721" lon="-0.62362">
        <ele>770.4</ele>
        <time>2022-10-15 09:18:12</time>
      </trkpt>
      <trkpt lat="38.721" lon="-0.62362">
        <ele>770.4</ele>
        <time>2022-10-15 09:18:13</time>
      </trkpt>
      <trkpt lat="38.72101" lon="-0.62362">
        <ele>770.2</ele>
        <time>2022-10-15 09:18:14</time>
      </trkpt>
      <trkpt lat="38.72102" lon="-0.62361">
        <ele>770.2</ele>
        <time>2022-10-15 09:18:15</time>
      </trkpt>
      <trkpt lat="38.72103" lon="-0.62361">
        <ele>770</ele>
        <time>2022-10-15 09:18:16</time>
      </trkpt>
      <trkpt lat="38.72104" lon="-0.62361">
        <ele>770</ele>
        <time>2022-10-15 09:18:17</time>
      </trkpt>
      <trkpt lat="38.72105" lon="-0.62362">
        <ele>770</ele>
        <time>2022-10-15 09:18:18</time>
      </trkpt>
      <trkpt lat="38.72106" lon="-0.62362">
        <ele>770</ele>
        <time>2022-10-15 09:18:19</time>
      </trkpt>
      <trkpt lat="38.72108" lon="-0.62364">
        <ele>769.8</ele>
        <time>2022-10-15 09:18:20</time>
      </trkpt>
      <trkpt lat="38.7211" lon="-0.62366">
        <ele>769.8</ele>
        <time>2022-10-15 09:18:21</time>
      </trkpt>
      <trkpt lat="38.7211" lon="-0.62366">
        <ele>769.8</ele>
        <time>2022-10-15 09:18:22</time>
      </trkpt>
      <trkpt lat="38.72111" lon="-0.62374">
        <ele>769.8</ele>
        <time>2022-10-15 09:18:24</time>
      </trkpt>
      <trkpt lat="38.72113" lon="-0.62377">
        <ele>769.8</ele>
        <time>2022-10-15 09:18:25</time>
      </trkpt>
      <trkpt lat="38.72113" lon="-0.62377">
        <ele>769.8</ele>
        <time>2022-10-15 09:18:26</time>
      </trkpt>
      <trkpt lat="38.72115" lon="-0.6238">
        <ele>769.8</ele>
        <time>2022-10-15 09:18:27</time>
      </trkpt>
      <trkpt lat="38.72117" lon="-0.62383">
        <ele>769.8</ele>
        <time>2022-10-15 09:18:28</time>
      </trkpt>
      <trkpt lat="38.72122" lon="-0.62391">
        <ele>769.6</ele>
        <time>2022-10-15 09:18:29</time>
      </trkpt>
      <trkpt lat="38.72122" lon="-0.62391">
        <ele>769.6</ele>
        <time>2022-10-15 09:18:30</time>
      </trkpt>
      <trkpt lat="38.72124" lon="-0.62396">
        <ele>769.6</ele>
        <time>2022-10-15 09:18:31</time>
      </trkpt>
      <trkpt lat="38.72125" lon="-0.62403">
        <ele>769.4</ele>
        <time>2022-10-15 09:18:32</time>
      </trkpt>
      <trkpt lat="38.72124" lon="-0.62415">
        <ele>769.4</ele>
        <time>2022-10-15 09:18:33</time>
      </trkpt>
      <trkpt lat="38.72123" lon="-0.62421">
        <ele>769.4</ele>
        <time>2022-10-15 09:18:34</time>
      </trkpt>
      <trkpt lat="38.72123" lon="-0.62421">
        <ele>769.2</ele>
        <time>2022-10-15 09:18:35</time>
      </trkpt>
      <trkpt lat="38.72122" lon="-0.62427">
        <ele>769.2</ele>
        <time>2022-10-15 09:18:36</time>
      </trkpt>
      <trkpt lat="38.7212" lon="-0.62432">
        <ele>769.2</ele>
        <time>2022-10-15 09:18:37</time>
      </trkpt>
      <trkpt lat="38.72118" lon="-0.62437">
        <ele>768.6</ele>
        <time>2022-10-15 09:18:38</time>
      </trkpt>
      <trkpt lat="38.72112" lon="-0.62445">
        <ele>768</ele>
        <time>2022-10-15 09:18:39</time>
      </trkpt>
      <trkpt lat="38.72112" lon="-0.62445">
        <ele>767.6</ele>
        <time>2022-10-15 09:18:40</time>
      </trkpt>
      <trkpt lat="38.7211" lon="-0.62448">
        <ele>767.4</ele>
        <time>2022-10-15 09:18:41</time>
      </trkpt>
      <trkpt lat="38.72104" lon="-0.62454">
        <ele>767.2</ele>
        <time>2022-10-15 09:18:42</time>
      </trkpt>
      <trkpt lat="38.72104" lon="-0.62454">
        <ele>767.2</ele>
        <time>2022-10-15 09:18:43</time>
      </trkpt>
      <trkpt lat="38.72101" lon="-0.62458">
        <ele>767.2</ele>
        <time>2022-10-15 09:18:44</time>
      </trkpt>
      <trkpt lat="38.72098" lon="-0.62463">
        <ele>767.2</ele>
        <time>2022-10-15 09:18:45</time>
      </trkpt>
      <trkpt lat="38.72095" lon="-0.62468">
        <ele>767.2</ele>
        <time>2022-10-15 09:18:46</time>
      </trkpt>
      <trkpt lat="38.72094" lon="-0.62474">
        <ele>767.2</ele>
        <time>2022-10-15 09:18:47</time>
      </trkpt>
      <trkpt lat="38.72093" lon="-0.62479">
        <ele>767.2</ele>
        <time>2022-10-15 09:18:48</time>
      </trkpt>
      <trkpt lat="38.72095" lon="-0.62489">
        <ele>767</ele>
        <time>2022-10-15 09:18:49</time>
      </trkpt>
      <trkpt lat="38.72095" lon="-0.62489">
        <ele>767</ele>
        <time>2022-10-15 09:18:50</time>
      </trkpt>
      <trkpt lat="38.72095" lon="-0.62493">
        <ele>767</ele>
        <time>2022-10-15 09:18:51</time>
      </trkpt>
      <trkpt lat="38.72095" lon="-0.62498">
        <ele>766.8</ele>
        <time>2022-10-15 09:18:52</time>
      </trkpt>
      <trkpt lat="38.72094" lon="-0.62503">
        <ele>766.6</ele>
        <time>2022-10-15 09:18:53</time>
      </trkpt>
      <trkpt lat="38.72093" lon="-0.62507">
        <ele>766.2</ele>
        <time>2022-10-15 09:18:54</time>
      </trkpt>
      <trkpt lat="38.7209" lon="-0.62511">
        <ele>765.8</ele>
        <time>2022-10-15 09:18:55</time>
      </trkpt>
      <trkpt lat="38.72087" lon="-0.62514">
        <ele>765.4</ele>
        <time>2022-10-15 09:18:56</time>
      </trkpt>
      <trkpt lat="38.72083" lon="-0.62516">
        <ele>765.2</ele>
        <time>2022-10-15 09:18:57</time>
      </trkpt>
      <trkpt lat="38.72076" lon="-0.62516">
        <ele>765</ele>
        <time>2022-10-15 09:18:58</time>
      </trkpt>
      <trkpt lat="38.72076" lon="-0.62516">
        <ele>764.6</ele>
        <time>2022-10-15 09:18:59</time>
      </trkpt>
      <trkpt lat="38.7207" lon="-0.62516">
        <ele>764</ele>
        <time>2022-10-15 09:19:00</time>
      </trkpt>
      <trkpt lat="38.72067" lon="-0.62516">
        <ele>763.4</ele>
        <time>2022-10-15 09:19:01</time>
      </trkpt>
      <trkpt lat="38.72067" lon="-0.62516">
        <ele>762.8</ele>
        <time>2022-10-15 09:19:02</time>
      </trkpt>
      <trkpt lat="38.72064" lon="-0.62516">
        <ele>762.4</ele>
        <time>2022-10-15 09:19:03</time>
      </trkpt>
      <trkpt lat="38.72059" lon="-0.62515">
        <ele>762</ele>
        <time>2022-10-15 09:19:04</time>
      </trkpt>
      <trkpt lat="38.72059" lon="-0.62515">
        <ele>761.8</ele>
        <time>2022-10-15 09:19:05</time>
      </trkpt>
      <trkpt lat="38.72057" lon="-0.62514">
        <ele>761.6</ele>
        <time>2022-10-15 09:19:06</time>
      </trkpt>
      <trkpt lat="38.72056" lon="-0.62514">
        <ele>761.6</ele>
        <time>2022-10-15 09:19:07</time>
      </trkpt>
      <trkpt lat="38.72055" lon="-0.62514">
        <ele>761.6</ele>
        <time>2022-10-15 09:19:08</time>
      </trkpt>
      <trkpt lat="38.72053" lon="-0.62513">
        <ele>761.6</ele>
        <time>2022-10-15 09:19:09</time>
      </trkpt>
      <trkpt lat="38.72053" lon="-0.62513">
        <ele>761.6</ele>
        <time>2022-10-15 09:19:10</time>
      </trkpt>
      <trkpt lat="38.72053" lon="-0.62513">
        <ele>761.6</ele>
        <time>2022-10-15 09:19:11</time>
      </trkpt>
      <trkpt lat="38.72052" lon="-0.62513">
        <ele>761.4</ele>
        <time>2022-10-15 09:19:12</time>
      </trkpt>
      <trkpt lat="38.72051" lon="-0.62513">
        <ele>761.4</ele>
        <time>2022-10-15 09:19:13</time>
      </trkpt>
      <trkpt lat="38.7205" lon="-0.62512">
        <ele>761.4</ele>
        <time>2022-10-15 09:19:14</time>
      </trkpt>
      <trkpt lat="38.72049" lon="-0.62512">
        <ele>761.4</ele>
        <time>2022-10-15 09:19:15</time>
      </trkpt>
      <trkpt lat="38.72048" lon="-0.62512">
        <ele>761.4</ele>
        <time>2022-10-15 09:19:16</time>
      </trkpt>
      <trkpt lat="38.72047" lon="-0.62512">
        <ele>761.4</ele>
        <time>2022-10-15 09:19:17</time>
      </trkpt>
      <trkpt lat="38.72046" lon="-0.62512">
        <ele>761.4</ele>
        <time>2022-10-15 09:19:18</time>
      </trkpt>
      <trkpt lat="38.72045" lon="-0.62511">
        <ele>761.4</ele>
        <time>2022-10-15 09:19:19</time>
      </trkpt>
      <trkpt lat="38.72044" lon="-0.62511">
        <ele>761.4</ele>
        <time>2022-10-15 09:19:20</time>
      </trkpt>
      <trkpt lat="38.72043" lon="-0.62511">
        <ele>761.4</ele>
        <time>2022-10-15 09:19:21</time>
      </trkpt>
      <trkpt lat="38.72042" lon="-0.62511">
        <ele>761.4</ele>
        <time>2022-10-15 09:19:22</time>
      </trkpt>
      <trkpt lat="38.7204" lon="-0.62511">
        <ele>761.4</ele>
        <time>2022-10-15 09:19:23</time>
      </trkpt>
      <trkpt lat="38.72039" lon="-0.62512">
        <ele>761.4</ele>
        <time>2022-10-15 09:19:24</time>
      </trkpt>
      <trkpt lat="38.72039" lon="-0.62512">
        <ele>761.4</ele>
        <time>2022-10-15 09:19:25</time>
      </trkpt>
      <trkpt lat="38.72038" lon="-0.62513">
        <ele>761.4</ele>
        <time>2022-10-15 09:19:26</time>
      </trkpt>
      <trkpt lat="38.72038" lon="-0.62514">
        <ele>761.4</ele>
        <time>2022-10-15 09:19:27</time>
      </trkpt>
      <trkpt lat="38.72038" lon="-0.62513">
        <ele>761.4</ele>
        <time>2022-10-15 09:19:28</time>
      </trkpt>
      <trkpt lat="38.72033" lon="-0.62526">
        <ele>762</ele>
        <time>2022-10-15 09:20:01</time>
      </trkpt>
      <trkpt lat="38.72033" lon="-0.62526">
        <ele>762</ele>
        <time>2022-10-15 09:20:02</time>
      </trkpt>
      <trkpt lat="38.72032" lon="-0.6253">
        <ele>762</ele>
        <time>2022-10-15 09:20:03</time>
      </trkpt>
      <trkpt lat="38.72031" lon="-0.62534">
        <ele>762</ele>
        <time>2022-10-15 09:20:04</time>
      </trkpt>
      <trkpt lat="38.72029" lon="-0.62538">
        <ele>762</ele>
        <time>2022-10-15 09:20:05</time>
      </trkpt>
      <trkpt lat="38.72029" lon="-0.6254">
        <ele>761.8</ele>
        <time>2022-10-15 09:20:06</time>
      </trkpt>
      <trkpt lat="38.72029" lon="-0.62541">
        <ele>761.4</ele>
        <time>2022-10-15 09:20:07</time>
      </trkpt>
      <trkpt lat="38.72029" lon="-0.62541">
        <ele>760.6</ele>
        <time>2022-10-15 09:20:08</time>
      </trkpt>
      <trkpt lat="38.72028" lon="-0.62544">
        <ele>760</ele>
        <time>2022-10-15 09:20:09</time>
      </trkpt>
      <trkpt lat="38.72028" lon="-0.62544">
        <ele>759.4</ele>
        <time>2022-10-15 09:20:10</time>
      </trkpt>
      <trkpt lat="38.72028" lon="-0.62546">
        <ele>759</ele>
        <time>2022-10-15 09:20:11</time>
      </trkpt>
      <trkpt lat="38.72028" lon="-0.62547">
        <ele>758.6</ele>
        <time>2022-10-15 09:20:12</time>
      </trkpt>
      <trkpt lat="38.72028" lon="-0.62548">
        <ele>758.6</ele>
        <time>2022-10-15 09:20:13</time>
      </trkpt>
      <trkpt lat="38.72028" lon="-0.62548">
        <ele>758.4</ele>
        <time>2022-10-15 09:20:14</time>
      </trkpt>
      <trkpt lat="38.72026" lon="-0.62554">
        <ele>758</ele>
        <time>2022-10-15 09:20:33</time>
      </trkpt>
      <trkpt lat="38.72026" lon="-0.62556">
        <ele>758</ele>
        <time>2022-10-15 09:20:34</time>
      </trkpt>
      <trkpt lat="38.72025" lon="-0.62558">
        <ele>758</ele>
        <time>2022-10-15 09:20:35</time>
      </trkpt>
      <trkpt lat="38.72025" lon="-0.6256">
        <ele>758</ele>
        <time>2022-10-15 09:20:36</time>
      </trkpt>
      <trkpt lat="38.72024" lon="-0.62561">
        <ele>758</ele>
        <time>2022-10-15 09:20:37</time>
      </trkpt>
      <trkpt lat="38.72024" lon="-0.62563">
        <ele>758</ele>
        <time>2022-10-15 09:20:38</time>
      </trkpt>
      <trkpt lat="38.72024" lon="-0.62563">
        <ele>757.8</ele>
        <time>2022-10-15 09:20:39</time>
      </trkpt>
      <trkpt lat="38.72024" lon="-0.62563">
        <ele>757.4</ele>
        <time>2022-10-15 09:20:40</time>
      </trkpt>
      <trkpt lat="38.7202" lon="-0.62568">
        <ele>756.6</ele>
        <time>2022-10-15 09:20:57</time>
      </trkpt>
      <trkpt lat="38.7202" lon="-0.62568">
        <ele>756.6</ele>
        <time>2022-10-15 09:20:58</time>
      </trkpt>
      <trkpt lat="38.72019" lon="-0.62569">
        <ele>756.6</ele>
        <time>2022-10-15 09:20:59</time>
      </trkpt>
      <trkpt lat="38.72019" lon="-0.62569">
        <ele>756.6</ele>
        <time>2022-10-15 09:21:00</time>
      </trkpt>
      <trkpt lat="38.72019" lon="-0.62569">
        <ele>756.6</ele>
        <time>2022-10-15 09:21:01</time>
      </trkpt>
      <trkpt lat="38.72016" lon="-0.62575">
        <ele>756.6</ele>
        <time>2022-10-15 09:21:20</time>
      </trkpt>
      <trkpt lat="38.72016" lon="-0.62577">
        <ele>756.6</ele>
        <time>2022-10-15 09:21:21</time>
      </trkpt>
      <trkpt lat="38.72014" lon="-0.62581">
        <ele>756.6</ele>
        <time>2022-10-15 09:21:22</time>
      </trkpt>
      <trkpt lat="38.72013" lon="-0.62583">
        <ele>756.6</ele>
        <time>2022-10-15 09:21:23</time>
      </trkpt>
      <trkpt lat="38.72013" lon="-0.62583">
        <ele>756.6</ele>
        <time>2022-10-15 09:21:24</time>
      </trkpt>
      <trkpt lat="38.72012" lon="-0.62584">
        <ele>756.6</ele>
        <time>2022-10-15 09:21:25</time>
      </trkpt>
      <trkpt lat="38.72011" lon="-0.62585">
        <ele>756.6</ele>
        <time>2022-10-15 09:21:26</time>
      </trkpt>
      <trkpt lat="38.72009" lon="-0.62585">
        <ele>756.6</ele>
        <time>2022-10-15 09:21:27</time>
      </trkpt>
      <trkpt lat="38.72009" lon="-0.62585">
        <ele>756.6</ele>
        <time>2022-10-15 09:21:28</time>
      </trkpt>
      <trkpt lat="38.71991" lon="-0.62591">
        <ele>757.2</ele>
        <time>2022-10-15 09:21:52</time>
      </trkpt>
      <trkpt lat="38.71989" lon="-0.62592">
        <ele>757.2</ele>
        <time>2022-10-15 09:21:53</time>
      </trkpt>
      <trkpt lat="38.71986" lon="-0.62593">
        <ele>757.2</ele>
        <time>2022-10-15 09:21:54</time>
      </trkpt>
      <trkpt lat="38.71983" lon="-0.62594">
        <ele>757.2</ele>
        <time>2022-10-15 09:21:55</time>
      </trkpt>
      <trkpt lat="38.71978" lon="-0.62595">
        <ele>757.2</ele>
        <time>2022-10-15 09:21:57</time>
      </trkpt>
      <trkpt lat="38.71975" lon="-0.62596">
        <ele>757.2</ele>
        <time>2022-10-15 09:21:58</time>
      </trkpt>
      <trkpt lat="38.71971" lon="-0.62597">
        <ele>757.2</ele>
        <time>2022-10-15 09:21:59</time>
      </trkpt>
      <trkpt lat="38.71966" lon="-0.62598">
        <ele>757</ele>
        <time>2022-10-15 09:22:00</time>
      </trkpt>
      <trkpt lat="38.71954" lon="-0.62598">
        <ele>757</ele>
        <time>2022-10-15 09:22:01</time>
      </trkpt>
      <trkpt lat="38.71954" lon="-0.62598">
        <ele>756.8</ele>
        <time>2022-10-15 09:22:02</time>
      </trkpt>
      <trkpt lat="38.71944" lon="-0.62595">
        <ele>756.8</ele>
        <time>2022-10-15 09:22:03</time>
      </trkpt>
      <trkpt lat="38.71944" lon="-0.62595">
        <ele>756.8</ele>
        <time>2022-10-15 09:22:04</time>
      </trkpt>
      <trkpt lat="38.71935" lon="-0.62593">
        <ele>756.6</ele>
        <time>2022-10-15 09:22:05</time>
      </trkpt>
      <trkpt lat="38.71935" lon="-0.62593">
        <ele>755.8</ele>
        <time>2022-10-15 09:22:06</time>
      </trkpt>
      <trkpt lat="38.7193" lon="-0.62592">
        <ele>755.2</ele>
        <time>2022-10-15 09:22:07</time>
      </trkpt>
      <trkpt lat="38.71926" lon="-0.62591">
        <ele>754.4</ele>
        <time>2022-10-15 09:22:08</time>
      </trkpt>
      <trkpt lat="38.71922" lon="-0.6259">
        <ele>754.2</ele>
        <time>2022-10-15 09:22:09</time>
      </trkpt>
      <trkpt lat="38.71919" lon="-0.62589">
        <ele>754</ele>
        <time>2022-10-15 09:22:10</time>
      </trkpt>
      <trkpt lat="38.71917" lon="-0.62589">
        <ele>754</ele>
        <time>2022-10-15 09:22:11</time>
      </trkpt>
      <trkpt lat="38.71913" lon="-0.62588">
        <ele>753.8</ele>
        <time>2022-10-15 09:22:12</time>
      </trkpt>
      <trkpt lat="38.71913" lon="-0.62588">
        <ele>753.8</ele>
        <time>2022-10-15 09:22:13</time>
      </trkpt>
      <trkpt lat="38.71912" lon="-0.62588">
        <ele>753.8</ele>
        <time>2022-10-15 09:22:14</time>
      </trkpt>
      <trkpt lat="38.71911" lon="-0.62588">
        <ele>753.8</ele>
        <time>2022-10-15 09:22:15</time>
      </trkpt>
      <trkpt lat="38.7191" lon="-0.62588">
        <ele>753.8</ele>
        <time>2022-10-15 09:22:16</time>
      </trkpt>
      <trkpt lat="38.7191" lon="-0.62588">
        <ele>753.8</ele>
        <time>2022-10-15 09:22:17</time>
      </trkpt>
      <trkpt lat="38.71909" lon="-0.62589">
        <ele>753.8</ele>
        <time>2022-10-15 09:22:18</time>
      </trkpt>
      <trkpt lat="38.71908" lon="-0.62589">
        <ele>753.8</ele>
        <time>2022-10-15 09:22:19</time>
      </trkpt>
      <trkpt lat="38.71908" lon="-0.62589">
        <ele>753.8</ele>
        <time>2022-10-15 09:22:20</time>
      </trkpt>
      <trkpt lat="38.71907" lon="-0.6259">
        <ele>753.8</ele>
        <time>2022-10-15 09:22:21</time>
      </trkpt>
      <trkpt lat="38.71907" lon="-0.6259">
        <ele>754</ele>
        <time>2022-10-15 09:22:22</time>
      </trkpt>
      <trkpt lat="38.71891" lon="-0.62595">
        <ele>753.4</ele>
        <time>2022-10-15 09:26:45</time>
      </trkpt>
      <trkpt lat="38.71886" lon="-0.62597">
        <ele>753.4</ele>
        <time>2022-10-15 09:26:47</time>
      </trkpt>
      <trkpt lat="38.71883" lon="-0.62597">
        <ele>753.4</ele>
        <time>2022-10-15 09:26:48</time>
      </trkpt>
      <trkpt lat="38.71881" lon="-0.62598">
        <ele>753.4</ele>
        <time>2022-10-15 09:26:49</time>
      </trkpt>
      <trkpt lat="38.71878" lon="-0.62599">
        <ele>753.2</ele>
        <time>2022-10-15 09:26:50</time>
      </trkpt>
      <trkpt lat="38.71874" lon="-0.626">
        <ele>753.2</ele>
        <time>2022-10-15 09:26:51</time>
      </trkpt>
      <trkpt lat="38.71871" lon="-0.62601">
        <ele>753</ele>
        <time>2022-10-15 09:26:52</time>
      </trkpt>
      <trkpt lat="38.71868" lon="-0.62602">
        <ele>752.8</ele>
        <time>2022-10-15 09:26:53</time>
      </trkpt>
      <trkpt lat="38.71865" lon="-0.62602">
        <ele>752.6</ele>
        <time>2022-10-15 09:26:55</time>
      </trkpt>
      <trkpt lat="38.71856" lon="-0.62603">
        <ele>752.4</ele>
        <time>2022-10-15 09:26:57</time>
      </trkpt>
      <trkpt lat="38.7185" lon="-0.62604">
        <ele>752.4</ele>
        <time>2022-10-15 09:26:59</time>
      </trkpt>
      <trkpt lat="38.71848" lon="-0.62604">
        <ele>752.4</ele>
        <time>2022-10-15 09:27:01</time>
      </trkpt>
      <trkpt lat="38.71845" lon="-0.62605">
        <ele>752.2</ele>
        <time>2022-10-15 09:27:02</time>
      </trkpt>
      <trkpt lat="38.7184" lon="-0.62606">
        <ele>752.2</ele>
        <time>2022-10-15 09:27:03</time>
      </trkpt>
      <trkpt lat="38.7184" lon="-0.62606">
        <ele>752.2</ele>
        <time>2022-10-15 09:27:04</time>
      </trkpt>
      <trkpt lat="38.71837" lon="-0.62606">
        <ele>752.2</ele>
        <time>2022-10-15 09:27:05</time>
      </trkpt>
      <trkpt lat="38.71828" lon="-0.62609">
        <ele>752.2</ele>
        <time>2022-10-15 09:27:07</time>
      </trkpt>
      <trkpt lat="38.71825" lon="-0.6261">
        <ele>752</ele>
        <time>2022-10-15 09:27:09</time>
      </trkpt>
      <trkpt lat="38.71822" lon="-0.6261">
        <ele>752</ele>
        <time>2022-10-15 09:27:10</time>
      </trkpt>
      <trkpt lat="38.71816" lon="-0.6261">
        <ele>752</ele>
        <time>2022-10-15 09:27:11</time>
      </trkpt>
      <trkpt lat="38.71812" lon="-0.62609">
        <ele>752</ele>
        <time>2022-10-15 09:27:13</time>
      </trkpt>
      <trkpt lat="38.71806" lon="-0.62608">
        <ele>752</ele>
        <time>2022-10-15 09:27:15</time>
      </trkpt>
      <trkpt lat="38.71803" lon="-0.62608">
        <ele>752</ele>
        <time>2022-10-15 09:27:16</time>
      </trkpt>
      <trkpt lat="38.71797" lon="-0.62607">
        <ele>752</ele>
        <time>2022-10-15 09:27:17</time>
      </trkpt>
      <trkpt lat="38.71795" lon="-0.62607">
        <ele>751.8</ele>
        <time>2022-10-15 09:27:19</time>
      </trkpt>
      <trkpt lat="38.71792" lon="-0.62607">
        <ele>751.8</ele>
        <time>2022-10-15 09:27:20</time>
      </trkpt>
      <trkpt lat="38.71789" lon="-0.62607">
        <ele>751.8</ele>
        <time>2022-10-15 09:27:21</time>
      </trkpt>
      <trkpt lat="38.71786" lon="-0.62608">
        <ele>751.8</ele>
        <time>2022-10-15 09:27:22</time>
      </trkpt>
      <trkpt lat="38.71783" lon="-0.62608">
        <ele>751.8</ele>
        <time>2022-10-15 09:27:23</time>
      </trkpt>
      <trkpt lat="38.7178" lon="-0.62608">
        <ele>751.8</ele>
        <time>2022-10-15 09:27:24</time>
      </trkpt>
      <trkpt lat="38.71777" lon="-0.62608">
        <ele>751.8</ele>
        <time>2022-10-15 09:27:25</time>
      </trkpt>
      <trkpt lat="38.71774" lon="-0.62608">
        <ele>751.8</ele>
        <time>2022-10-15 09:27:26</time>
      </trkpt>
      <trkpt lat="38.71771" lon="-0.62607">
        <ele>751.8</ele>
        <time>2022-10-15 09:27:27</time>
      </trkpt>
      <trkpt lat="38.71768" lon="-0.62606">
        <ele>751.8</ele>
        <time>2022-10-15 09:27:28</time>
      </trkpt>
      <trkpt lat="38.71765" lon="-0.62605">
        <ele>751.8</ele>
        <time>2022-10-15 09:27:29</time>
      </trkpt>
      <trkpt lat="38.71762" lon="-0.62604">
        <ele>751.8</ele>
        <time>2022-10-15 09:27:30</time>
      </trkpt>
      <trkpt lat="38.71759" lon="-0.62603">
        <ele>751.8</ele>
        <time>2022-10-15 09:27:31</time>
      </trkpt>
      <trkpt lat="38.71757" lon="-0.62601">
        <ele>751.8</ele>
        <time>2022-10-15 09:27:32</time>
      </trkpt>
      <trkpt lat="38.71754" lon="-0.62599">
        <ele>751.8</ele>
        <time>2022-10-15 09:27:33</time>
      </trkpt>
      <trkpt lat="38.71752" lon="-0.62597">
        <ele>751.8</ele>
        <time>2022-10-15 09:27:34</time>
      </trkpt>
      <trkpt lat="38.7175" lon="-0.62595">
        <ele>751.8</ele>
        <time>2022-10-15 09:27:35</time>
      </trkpt>
      <trkpt lat="38.71748" lon="-0.62592">
        <ele>752</ele>
        <time>2022-10-15 09:27:36</time>
      </trkpt>
      <trkpt lat="38.71746" lon="-0.62588">
        <ele>752</ele>
        <time>2022-10-15 09:27:37</time>
      </trkpt>
      <trkpt lat="38.71746" lon="-0.62584">
        <ele>752</ele>
        <time>2022-10-15 09:27:38</time>
      </trkpt>
      <trkpt lat="38.71745" lon="-0.6258">
        <ele>752</ele>
        <time>2022-10-15 09:27:39</time>
      </trkpt>
      <trkpt lat="38.71745" lon="-0.62575">
        <ele>752</ele>
        <time>2022-10-15 09:27:40</time>
      </trkpt>
      <trkpt lat="38.71745" lon="-0.62571">
        <ele>752.2</ele>
        <time>2022-10-15 09:27:41</time>
      </trkpt>
      <trkpt lat="38.71745" lon="-0.62567">
        <ele>752.2</ele>
        <time>2022-10-15 09:27:42</time>
      </trkpt>
      <trkpt lat="38.71744" lon="-0.62564">
        <ele>752.2</ele>
        <time>2022-10-15 09:27:43</time>
      </trkpt>
      <trkpt lat="38.71743" lon="-0.6256">
        <ele>752.4</ele>
        <time>2022-10-15 09:27:44</time>
      </trkpt>
      <trkpt lat="38.71743" lon="-0.62557">
        <ele>752.4</ele>
        <time>2022-10-15 09:27:45</time>
      </trkpt>
      <trkpt lat="38.71743" lon="-0.62553">
        <ele>752.6</ele>
        <time>2022-10-15 09:27:46</time>
      </trkpt>
      <trkpt lat="38.71743" lon="-0.6255">
        <ele>752.8</ele>
        <time>2022-10-15 09:27:47</time>
      </trkpt>
      <trkpt lat="38.71743" lon="-0.62546">
        <ele>753</ele>
        <time>2022-10-15 09:27:48</time>
      </trkpt>
      <trkpt lat="38.71743" lon="-0.62542">
        <ele>753.2</ele>
        <time>2022-10-15 09:27:49</time>
      </trkpt>
      <trkpt lat="38.71744" lon="-0.62539">
        <ele>753.4</ele>
        <time>2022-10-15 09:27:50</time>
      </trkpt>
      <trkpt lat="38.71747" lon="-0.62528">
        <ele>754.2</ele>
        <time>2022-10-15 09:27:53</time>
      </trkpt>
      <trkpt lat="38.71748" lon="-0.62525">
        <ele>754.4</ele>
        <time>2022-10-15 09:27:54</time>
      </trkpt>
      <trkpt lat="38.71749" lon="-0.62519">
        <ele>754.8</ele>
        <time>2022-10-15 09:27:56</time>
      </trkpt>
      <trkpt lat="38.7175" lon="-0.62512">
        <ele>755.2</ele>
        <time>2022-10-15 09:27:58</time>
      </trkpt>
      <trkpt lat="38.71752" lon="-0.62509">
        <ele>755.6</ele>
        <time>2022-10-15 09:27:59</time>
      </trkpt>
      <trkpt lat="38.71753" lon="-0.62507">
        <ele>756</ele>
        <time>2022-10-15 09:28:00</time>
      </trkpt>
      <trkpt lat="38.71753" lon="-0.62504">
        <ele>756.6</ele>
        <time>2022-10-15 09:28:01</time>
      </trkpt>
      <trkpt lat="38.71753" lon="-0.62502">
        <ele>757.2</ele>
        <time>2022-10-15 09:28:02</time>
      </trkpt>
      <trkpt lat="38.71751" lon="-0.625">
        <ele>757.6</ele>
        <time>2022-10-15 09:28:03</time>
      </trkpt>
      <trkpt lat="38.71749" lon="-0.62499">
        <ele>758</ele>
        <time>2022-10-15 09:28:04</time>
      </trkpt>
      <trkpt lat="38.71746" lon="-0.62498">
        <ele>758.2</ele>
        <time>2022-10-15 09:28:05</time>
      </trkpt>
      <trkpt lat="38.71743" lon="-0.62498">
        <ele>758.6</ele>
        <time>2022-10-15 09:28:06</time>
      </trkpt>
      <trkpt lat="38.7174" lon="-0.62498">
        <ele>758.8</ele>
        <time>2022-10-15 09:28:07</time>
      </trkpt>
      <trkpt lat="38.71737" lon="-0.62499">
        <ele>759</ele>
        <time>2022-10-15 09:28:08</time>
      </trkpt>
      <trkpt lat="38.71734" lon="-0.62501">
        <ele>759</ele>
        <time>2022-10-15 09:28:09</time>
      </trkpt>
      <trkpt lat="38.71732" lon="-0.62502">
        <ele>759.2</ele>
        <time>2022-10-15 09:28:10</time>
      </trkpt>
      <trkpt lat="38.7173" lon="-0.62504">
        <ele>759.2</ele>
        <time>2022-10-15 09:28:11</time>
      </trkpt>
      <trkpt lat="38.71728" lon="-0.62507">
        <ele>759.4</ele>
        <time>2022-10-15 09:28:12</time>
      </trkpt>
      <trkpt lat="38.71727" lon="-0.6251">
        <ele>759.4</ele>
        <time>2022-10-15 09:28:13</time>
      </trkpt>
      <trkpt lat="38.71725" lon="-0.62512">
        <ele>759.4</ele>
        <time>2022-10-15 09:28:14</time>
      </trkpt>
      <trkpt lat="38.71724" lon="-0.62514">
        <ele>759.4</ele>
        <time>2022-10-15 09:28:15</time>
      </trkpt>
      <trkpt lat="38.71723" lon="-0.62517">
        <ele>759.6</ele>
        <time>2022-10-15 09:28:16</time>
      </trkpt>
      <trkpt lat="38.71721" lon="-0.6252">
        <ele>759.6</ele>
        <time>2022-10-15 09:28:17</time>
      </trkpt>
      <trkpt lat="38.7172" lon="-0.62523">
        <ele>759.6</ele>
        <time>2022-10-15 09:28:18</time>
      </trkpt>
      <trkpt lat="38.71718" lon="-0.62525">
        <ele>759.6</ele>
        <time>2022-10-15 09:28:19</time>
      </trkpt>
      <trkpt lat="38.71717" lon="-0.62528">
        <ele>759.6</ele>
        <time>2022-10-15 09:28:20</time>
      </trkpt>
      <trkpt lat="38.71716" lon="-0.6253">
        <ele>759.8</ele>
        <time>2022-10-15 09:28:21</time>
      </trkpt>
      <trkpt lat="38.71715" lon="-0.62533">
        <ele>760</ele>
        <time>2022-10-15 09:28:22</time>
      </trkpt>
      <trkpt lat="38.71714" lon="-0.62535">
        <ele>760.2</ele>
        <time>2022-10-15 09:28:23</time>
      </trkpt>
      <trkpt lat="38.71712" lon="-0.62538">
        <ele>760.2</ele>
        <time>2022-10-15 09:28:24</time>
      </trkpt>
      <trkpt lat="38.71711" lon="-0.6254">
        <ele>760.4</ele>
        <time>2022-10-15 09:28:25</time>
      </trkpt>
      <trkpt lat="38.7171" lon="-0.62542">
        <ele>760.6</ele>
        <time>2022-10-15 09:28:26</time>
      </trkpt>
      <trkpt lat="38.71708" lon="-0.62544">
        <ele>760.6</ele>
        <time>2022-10-15 09:28:27</time>
      </trkpt>
      <trkpt lat="38.71706" lon="-0.62546">
        <ele>760.8</ele>
        <time>2022-10-15 09:28:28</time>
      </trkpt>
      <trkpt lat="38.71705" lon="-0.62549">
        <ele>761</ele>
        <time>2022-10-15 09:28:29</time>
      </trkpt>
      <trkpt lat="38.71704" lon="-0.62552">
        <ele>761.4</ele>
        <time>2022-10-15 09:28:30</time>
      </trkpt>
      <trkpt lat="38.71702" lon="-0.62555">
        <ele>761.6</ele>
        <time>2022-10-15 09:28:31</time>
      </trkpt>
      <trkpt lat="38.71701" lon="-0.62558">
        <ele>761.6</ele>
        <time>2022-10-15 09:28:32</time>
      </trkpt>
      <trkpt lat="38.717" lon="-0.6256">
        <ele>761.8</ele>
        <time>2022-10-15 09:28:33</time>
      </trkpt>
      <trkpt lat="38.71699" lon="-0.62563">
        <ele>762.2</ele>
        <time>2022-10-15 09:28:34</time>
      </trkpt>
      <trkpt lat="38.71698" lon="-0.62565">
        <ele>762.6</ele>
        <time>2022-10-15 09:28:35</time>
      </trkpt>
      <trkpt lat="38.71698" lon="-0.62568">
        <ele>763</ele>
        <time>2022-10-15 09:28:36</time>
      </trkpt>
      <trkpt lat="38.71697" lon="-0.6257">
        <ele>763.4</ele>
        <time>2022-10-15 09:28:37</time>
      </trkpt>
      <trkpt lat="38.71697" lon="-0.62573">
        <ele>763.8</ele>
        <time>2022-10-15 09:28:38</time>
      </trkpt>
      <trkpt lat="38.71696" lon="-0.62575">
        <ele>764.2</ele>
        <time>2022-10-15 09:28:39</time>
      </trkpt>
      <trkpt lat="38.71695" lon="-0.62577">
        <ele>764.4</ele>
        <time>2022-10-15 09:28:40</time>
      </trkpt>
      <trkpt lat="38.71694" lon="-0.62579">
        <ele>764.8</ele>
        <time>2022-10-15 09:28:41</time>
      </trkpt>
      <trkpt lat="38.71694" lon="-0.62582">
        <ele>764.8</ele>
        <time>2022-10-15 09:28:42</time>
      </trkpt>
      <trkpt lat="38.71693" lon="-0.62584">
        <ele>765</ele>
        <time>2022-10-15 09:28:43</time>
      </trkpt>
      <trkpt lat="38.71692" lon="-0.62587">
        <ele>765</ele>
        <time>2022-10-15 09:28:44</time>
      </trkpt>
      <trkpt lat="38.71691" lon="-0.6259">
        <ele>765</ele>
        <time>2022-10-15 09:28:45</time>
      </trkpt>
      <trkpt lat="38.7169" lon="-0.62593">
        <ele>765</ele>
        <time>2022-10-15 09:28:46</time>
      </trkpt>
      <trkpt lat="38.71688" lon="-0.62596">
        <ele>765</ele>
        <time>2022-10-15 09:28:47</time>
      </trkpt>
      <trkpt lat="38.71687" lon="-0.626">
        <ele>765</ele>
        <time>2022-10-15 09:28:48</time>
      </trkpt>
      <trkpt lat="38.71685" lon="-0.62604">
        <ele>765</ele>
        <time>2022-10-15 09:28:49</time>
      </trkpt>
      <trkpt lat="38.71683" lon="-0.62609">
        <ele>765</ele>
        <time>2022-10-15 09:28:50</time>
      </trkpt>
      <trkpt lat="38.71681" lon="-0.62613">
        <ele>765</ele>
        <time>2022-10-15 09:28:51</time>
      </trkpt>
      <trkpt lat="38.71679" lon="-0.62618">
        <ele>765</ele>
        <time>2022-10-15 09:28:52</time>
      </trkpt>
      <trkpt lat="38.71678" lon="-0.62623">
        <ele>765</ele>
        <time>2022-10-15 09:28:53</time>
      </trkpt>
      <trkpt lat="38.71675" lon="-0.62628">
        <ele>764.8</ele>
        <time>2022-10-15 09:28:54</time>
      </trkpt>
      <trkpt lat="38.71673" lon="-0.62634">
        <ele>764.4</ele>
        <time>2022-10-15 09:28:55</time>
      </trkpt>
      <trkpt lat="38.71671" lon="-0.62638">
        <ele>764</ele>
        <time>2022-10-15 09:28:56</time>
      </trkpt>
      <trkpt lat="38.71668" lon="-0.62643">
        <ele>763.4</ele>
        <time>2022-10-15 09:28:57</time>
      </trkpt>
      <trkpt lat="38.71666" lon="-0.62647">
        <ele>762</ele>
        <time>2022-10-15 09:28:58</time>
      </trkpt>
      <trkpt lat="38.71662" lon="-0.62651">
        <ele>761.2</ele>
        <time>2022-10-15 09:28:59</time>
      </trkpt>
      <trkpt lat="38.71659" lon="-0.62655">
        <ele>760.4</ele>
        <time>2022-10-15 09:29:00</time>
      </trkpt>
      <trkpt lat="38.71655" lon="-0.62658">
        <ele>759.8</ele>
        <time>2022-10-15 09:29:01</time>
      </trkpt>
      <trkpt lat="38.71651" lon="-0.62661">
        <ele>759.2</ele>
        <time>2022-10-15 09:29:02</time>
      </trkpt>
      <trkpt lat="38.71647" lon="-0.62665">
        <ele>758.6</ele>
        <time>2022-10-15 09:29:03</time>
      </trkpt>
      <trkpt lat="38.71643" lon="-0.62668">
        <ele>758</ele>
        <time>2022-10-15 09:29:04</time>
      </trkpt>
      <trkpt lat="38.71639" lon="-0.62671">
        <ele>757.4</ele>
        <time>2022-10-15 09:29:05</time>
      </trkpt>
      <trkpt lat="38.71635" lon="-0.62674">
        <ele>757</ele>
        <time>2022-10-15 09:29:06</time>
      </trkpt>
      <trkpt lat="38.7163" lon="-0.62677">
        <ele>756.4</ele>
        <time>2022-10-15 09:29:07</time>
      </trkpt>
      <trkpt lat="38.71626" lon="-0.6268">
        <ele>755.8</ele>
        <time>2022-10-15 09:29:08</time>
      </trkpt>
      <trkpt lat="38.71621" lon="-0.62683">
        <ele>755.4</ele>
        <time>2022-10-15 09:29:09</time>
      </trkpt>
      <trkpt lat="38.71616" lon="-0.62686">
        <ele>754.8</ele>
        <time>2022-10-15 09:29:10</time>
      </trkpt>
      <trkpt lat="38.71611" lon="-0.62689">
        <ele>754</ele>
        <time>2022-10-15 09:29:11</time>
      </trkpt>
      <trkpt lat="38.71601" lon="-0.62697">
        <ele>753.4</ele>
        <time>2022-10-15 09:29:12</time>
      </trkpt>
      <trkpt lat="38.71601" lon="-0.62697">
        <ele>752.8</ele>
        <time>2022-10-15 09:29:13</time>
      </trkpt>
      <trkpt lat="38.71597" lon="-0.62701">
        <ele>752</ele>
        <time>2022-10-15 09:29:14</time>
      </trkpt>
      <trkpt lat="38.71592" lon="-0.62705">
        <ele>751</ele>
        <time>2022-10-15 09:29:15</time>
      </trkpt>
      <trkpt lat="38.71589" lon="-0.6271">
        <ele>750.2</ele>
        <time>2022-10-15 09:29:16</time>
      </trkpt>
      <trkpt lat="38.71586" lon="-0.62715">
        <ele>749.2</ele>
        <time>2022-10-15 09:29:17</time>
      </trkpt>
      <trkpt lat="38.71581" lon="-0.62726">
        <ele>748.2</ele>
        <time>2022-10-15 09:29:18</time>
      </trkpt>
      <trkpt lat="38.71581" lon="-0.62726">
        <ele>747.2</ele>
        <time>2022-10-15 09:29:19</time>
      </trkpt>
      <trkpt lat="38.71578" lon="-0.62731">
        <ele>746.2</ele>
        <time>2022-10-15 09:29:20</time>
      </trkpt>
      <trkpt lat="38.71575" lon="-0.62736">
        <ele>745.4</ele>
        <time>2022-10-15 09:29:21</time>
      </trkpt>
      <trkpt lat="38.71573" lon="-0.6274">
        <ele>745</ele>
        <time>2022-10-15 09:29:22</time>
      </trkpt>
      <trkpt lat="38.71568" lon="-0.62748">
        <ele>744.8</ele>
        <time>2022-10-15 09:29:23</time>
      </trkpt>
      <trkpt lat="38.71566" lon="-0.62751">
        <ele>744.8</ele>
        <time>2022-10-15 09:29:24</time>
      </trkpt>
      <trkpt lat="38.71566" lon="-0.62751">
        <ele>744.8</ele>
        <time>2022-10-15 09:29:25</time>
      </trkpt>
      <trkpt lat="38.71564" lon="-0.62754">
        <ele>744.8</ele>
        <time>2022-10-15 09:29:26</time>
      </trkpt>
      <trkpt lat="38.71563" lon="-0.62757">
        <ele>744.6</ele>
        <time>2022-10-15 09:29:27</time>
      </trkpt>
      <trkpt lat="38.71561" lon="-0.62761">
        <ele>744.6</ele>
        <time>2022-10-15 09:29:28</time>
      </trkpt>
      <trkpt lat="38.71559" lon="-0.62765">
        <ele>744.6</ele>
        <time>2022-10-15 09:29:29</time>
      </trkpt>
      <trkpt lat="38.71558" lon="-0.62768">
        <ele>744.8</ele>
        <time>2022-10-15 09:29:30</time>
      </trkpt>
      <trkpt lat="38.71554" lon="-0.62774">
        <ele>745</ele>
        <time>2022-10-15 09:29:31</time>
      </trkpt>
      <trkpt lat="38.71554" lon="-0.62774">
        <ele>745.2</ele>
        <time>2022-10-15 09:29:32</time>
      </trkpt>
      <trkpt lat="38.71553" lon="-0.62777">
        <ele>745.2</ele>
        <time>2022-10-15 09:29:33</time>
      </trkpt>
      <trkpt lat="38.71551" lon="-0.62779">
        <ele>745.4</ele>
        <time>2022-10-15 09:29:34</time>
      </trkpt>
      <trkpt lat="38.71548" lon="-0.62784">
        <ele>745.4</ele>
        <time>2022-10-15 09:29:35</time>
      </trkpt>
      <trkpt lat="38.71547" lon="-0.62786">
        <ele>745.4</ele>
        <time>2022-10-15 09:29:36</time>
      </trkpt>
      <trkpt lat="38.71547" lon="-0.62786">
        <ele>745.6</ele>
        <time>2022-10-15 09:29:37</time>
      </trkpt>
      <trkpt lat="38.71545" lon="-0.62788">
        <ele>745.6</ele>
        <time>2022-10-15 09:29:38</time>
      </trkpt>
      <trkpt lat="38.71542" lon="-0.62793">
        <ele>745.8</ele>
        <time>2022-10-15 09:29:39</time>
      </trkpt>
      <trkpt lat="38.71542" lon="-0.62793">
        <ele>746</ele>
        <time>2022-10-15 09:29:40</time>
      </trkpt>
      <trkpt lat="38.71537" lon="-0.62798">
        <ele>746.2</ele>
        <time>2022-10-15 09:29:41</time>
      </trkpt>
      <trkpt lat="38.71535" lon="-0.628">
        <ele>746.6</ele>
        <time>2022-10-15 09:29:42</time>
      </trkpt>
      <trkpt lat="38.71532" lon="-0.62802">
        <ele>746.8</ele>
        <time>2022-10-15 09:29:43</time>
      </trkpt>
      <trkpt lat="38.71532" lon="-0.62802">
        <ele>747</ele>
        <time>2022-10-15 09:29:44</time>
      </trkpt>
      <trkpt lat="38.7153" lon="-0.62805">
        <ele>747.4</ele>
        <time>2022-10-15 09:29:45</time>
      </trkpt>
      <trkpt lat="38.71524" lon="-0.62809">
        <ele>747.8</ele>
        <time>2022-10-15 09:29:46</time>
      </trkpt>
      <trkpt lat="38.71521" lon="-0.6281">
        <ele>748.2</ele>
        <time>2022-10-15 09:29:47</time>
      </trkpt>
      <trkpt lat="38.71518" lon="-0.62812">
        <ele>748.4</ele>
        <time>2022-10-15 09:29:48</time>
      </trkpt>
      <trkpt lat="38.71518" lon="-0.62812">
        <ele>748.8</ele>
        <time>2022-10-15 09:29:49</time>
      </trkpt>
      <trkpt lat="38.71515" lon="-0.62813">
        <ele>749</ele>
        <time>2022-10-15 09:29:50</time>
      </trkpt>
      <trkpt lat="38.71512" lon="-0.62814">
        <ele>749.2</ele>
        <time>2022-10-15 09:29:51</time>
      </trkpt>
      <trkpt lat="38.71506" lon="-0.62816">
        <ele>749.2</ele>
        <time>2022-10-15 09:29:52</time>
      </trkpt>
      <trkpt lat="38.71504" lon="-0.62817">
        <ele>749.4</ele>
        <time>2022-10-15 09:29:53</time>
      </trkpt>
      <trkpt lat="38.71504" lon="-0.62817">
        <ele>749.6</ele>
        <time>2022-10-15 09:29:54</time>
      </trkpt>
      <trkpt lat="38.71501" lon="-0.62817">
        <ele>749.6</ele>
        <time>2022-10-15 09:29:55</time>
      </trkpt>
      <trkpt lat="38.71497" lon="-0.62817">
        <ele>749.8</ele>
        <time>2022-10-15 09:29:56</time>
      </trkpt>
      <trkpt lat="38.7149" lon="-0.62817">
        <ele>749.8</ele>
        <time>2022-10-15 09:29:57</time>
      </trkpt>
      <trkpt lat="38.7149" lon="-0.62817">
        <ele>749.8</ele>
        <time>2022-10-15 09:29:58</time>
      </trkpt>
      <trkpt lat="38.71486" lon="-0.62816">
        <ele>749.8</ele>
        <time>2022-10-15 09:29:59</time>
      </trkpt>
      <trkpt lat="38.71482" lon="-0.62816">
        <ele>749.8</ele>
        <time>2022-10-15 09:30:00</time>
      </trkpt>
      <trkpt lat="38.71478" lon="-0.62815">
        <ele>749.8</ele>
        <time>2022-10-15 09:30:01</time>
      </trkpt>
      <trkpt lat="38.71473" lon="-0.62815">
        <ele>749.8</ele>
        <time>2022-10-15 09:30:02</time>
      </trkpt>
      <trkpt lat="38.71468" lon="-0.62814">
        <ele>749.8</ele>
        <time>2022-10-15 09:30:03</time>
      </trkpt>
      <trkpt lat="38.71463" lon="-0.62813">
        <ele>749.8</ele>
        <time>2022-10-15 09:30:04</time>
      </trkpt>
      <trkpt lat="38.71459" lon="-0.62812">
        <ele>749.8</ele>
        <time>2022-10-15 09:30:05</time>
      </trkpt>
      <trkpt lat="38.71454" lon="-0.62811">
        <ele>749.6</ele>
        <time>2022-10-15 09:30:06</time>
      </trkpt>
      <trkpt lat="38.7145" lon="-0.6281">
        <ele>749.4</ele>
        <time>2022-10-15 09:30:07</time>
      </trkpt>
      <trkpt lat="38.71445" lon="-0.6281">
        <ele>749.4</ele>
        <time>2022-10-15 09:30:08</time>
      </trkpt>
      <trkpt lat="38.71441" lon="-0.6281">
        <ele>749.2</ele>
        <time>2022-10-15 09:30:09</time>
      </trkpt>
      <trkpt lat="38.71436" lon="-0.6281">
        <ele>749</ele>
        <time>2022-10-15 09:30:10</time>
      </trkpt>
      <trkpt lat="38.71432" lon="-0.62809">
        <ele>748.8</ele>
        <time>2022-10-15 09:30:11</time>
      </trkpt>
      <trkpt lat="38.71427" lon="-0.62809">
        <ele>748.6</ele>
        <time>2022-10-15 09:30:12</time>
      </trkpt>
      <trkpt lat="38.71422" lon="-0.62808">
        <ele>748.4</ele>
        <time>2022-10-15 09:30:13</time>
      </trkpt>
      <trkpt lat="38.71417" lon="-0.62808">
        <ele>748.4</ele>
        <time>2022-10-15 09:30:14</time>
      </trkpt>
      <trkpt lat="38.71412" lon="-0.62808">
        <ele>748.4</ele>
        <time>2022-10-15 09:30:15</time>
      </trkpt>
      <trkpt lat="38.71407" lon="-0.62808">
        <ele>748.2</ele>
        <time>2022-10-15 09:30:16</time>
      </trkpt>
      <trkpt lat="38.71402" lon="-0.62808">
        <ele>748.2</ele>
        <time>2022-10-15 09:30:17</time>
      </trkpt>
      <trkpt lat="38.71397" lon="-0.62808">
        <ele>748.2</ele>
        <time>2022-10-15 09:30:18</time>
      </trkpt>
      <trkpt lat="38.71392" lon="-0.62808">
        <ele>748.2</ele>
        <time>2022-10-15 09:30:19</time>
      </trkpt>
      <trkpt lat="38.71387" lon="-0.62808">
        <ele>748</ele>
        <time>2022-10-15 09:30:20</time>
      </trkpt>
      <trkpt lat="38.71382" lon="-0.62808">
        <ele>747.8</ele>
        <time>2022-10-15 09:30:21</time>
      </trkpt>
      <trkpt lat="38.71376" lon="-0.62808">
        <ele>747.6</ele>
        <time>2022-10-15 09:30:22</time>
      </trkpt>
      <trkpt lat="38.71371" lon="-0.62809">
        <ele>747.4</ele>
        <time>2022-10-15 09:30:23</time>
      </trkpt>
      <trkpt lat="38.71367" lon="-0.62811">
        <ele>747.2</ele>
        <time>2022-10-15 09:30:24</time>
      </trkpt>
      <trkpt lat="38.71363" lon="-0.62813">
        <ele>747.2</ele>
        <time>2022-10-15 09:30:25</time>
      </trkpt>
      <trkpt lat="38.71359" lon="-0.62816">
        <ele>747.2</ele>
        <time>2022-10-15 09:30:26</time>
      </trkpt>
      <trkpt lat="38.71355" lon="-0.62819">
        <ele>747</ele>
        <time>2022-10-15 09:30:27</time>
      </trkpt>
      <trkpt lat="38.71351" lon="-0.62821">
        <ele>747</ele>
        <time>2022-10-15 09:30:28</time>
      </trkpt>
      <trkpt lat="38.71347" lon="-0.62823">
        <ele>747</ele>
        <time>2022-10-15 09:30:29</time>
      </trkpt>
      <trkpt lat="38.71343" lon="-0.62825">
        <ele>747</ele>
        <time>2022-10-15 09:30:30</time>
      </trkpt>
      <trkpt lat="38.71338" lon="-0.62826">
        <ele>747</ele>
        <time>2022-10-15 09:30:31</time>
      </trkpt>
      <trkpt lat="38.71334" lon="-0.62828">
        <ele>746.8</ele>
        <time>2022-10-15 09:30:32</time>
      </trkpt>
      <trkpt lat="38.71329" lon="-0.62829">
        <ele>746.8</ele>
        <time>2022-10-15 09:30:33</time>
      </trkpt>
      <trkpt lat="38.71324" lon="-0.62829">
        <ele>746.8</ele>
        <time>2022-10-15 09:30:34</time>
      </trkpt>
      <trkpt lat="38.7132" lon="-0.62829">
        <ele>746.8</ele>
        <time>2022-10-15 09:30:35</time>
      </trkpt>
      <trkpt lat="38.71315" lon="-0.62829">
        <ele>746.8</ele>
        <time>2022-10-15 09:30:36</time>
      </trkpt>
      <trkpt lat="38.71311" lon="-0.62829">
        <ele>746.8</ele>
        <time>2022-10-15 09:30:37</time>
      </trkpt>
      <trkpt lat="38.71307" lon="-0.62828">
        <ele>746.8</ele>
        <time>2022-10-15 09:30:38</time>
      </trkpt>
      <trkpt lat="38.71303" lon="-0.62827">
        <ele>746.8</ele>
        <time>2022-10-15 09:30:39</time>
      </trkpt>
      <trkpt lat="38.71298" lon="-0.62826">
        <ele>746.8</ele>
        <time>2022-10-15 09:30:40</time>
      </trkpt>
      <trkpt lat="38.71294" lon="-0.62824">
        <ele>747</ele>
        <time>2022-10-15 09:30:41</time>
      </trkpt>
      <trkpt lat="38.7129" lon="-0.62823">
        <ele>747</ele>
        <time>2022-10-15 09:30:42</time>
      </trkpt>
      <trkpt lat="38.71286" lon="-0.62822">
        <ele>747</ele>
        <time>2022-10-15 09:30:43</time>
      </trkpt>
      <trkpt lat="38.71281" lon="-0.62821">
        <ele>747.4</ele>
        <time>2022-10-15 09:30:44</time>
      </trkpt>
      <trkpt lat="38.71277" lon="-0.6282">
        <ele>747.4</ele>
        <time>2022-10-15 09:30:45</time>
      </trkpt>
      <trkpt lat="38.71273" lon="-0.6282">
        <ele>747.6</ele>
        <time>2022-10-15 09:30:46</time>
      </trkpt>
      <trkpt lat="38.71268" lon="-0.6282">
        <ele>747.8</ele>
        <time>2022-10-15 09:30:47</time>
      </trkpt>
      <trkpt lat="38.71264" lon="-0.62821">
        <ele>747.8</ele>
        <time>2022-10-15 09:30:48</time>
      </trkpt>
      <trkpt lat="38.71259" lon="-0.62822">
        <ele>747.8</ele>
        <time>2022-10-15 09:30:49</time>
      </trkpt>
      <trkpt lat="38.71255" lon="-0.62824">
        <ele>747.8</ele>
        <time>2022-10-15 09:30:50</time>
      </trkpt>
      <trkpt lat="38.7125" lon="-0.62826">
        <ele>747.8</ele>
        <time>2022-10-15 09:30:51</time>
      </trkpt>
      <trkpt lat="38.71246" lon="-0.62829">
        <ele>747.8</ele>
        <time>2022-10-15 09:30:52</time>
      </trkpt>
      <trkpt lat="38.71243" lon="-0.62833">
        <ele>747.8</ele>
        <time>2022-10-15 09:30:53</time>
      </trkpt>
      <trkpt lat="38.71241" lon="-0.62838">
        <ele>747.8</ele>
        <time>2022-10-15 09:30:54</time>
      </trkpt>
      <trkpt lat="38.71239" lon="-0.62844">
        <ele>747.6</ele>
        <time>2022-10-15 09:30:55</time>
      </trkpt>
      <trkpt lat="38.71237" lon="-0.62851">
        <ele>747.2</ele>
        <time>2022-10-15 09:30:56</time>
      </trkpt>
      <trkpt lat="38.71236" lon="-0.62858">
        <ele>746.8</ele>
        <time>2022-10-15 09:30:57</time>
      </trkpt>
      <trkpt lat="38.71234" lon="-0.62865">
        <ele>746.4</ele>
        <time>2022-10-15 09:30:58</time>
      </trkpt>
      <trkpt lat="38.71232" lon="-0.62873">
        <ele>746.2</ele>
        <time>2022-10-15 09:30:59</time>
      </trkpt>
      <trkpt lat="38.71229" lon="-0.6288">
        <ele>745.8</ele>
        <time>2022-10-15 09:31:00</time>
      </trkpt>
      <trkpt lat="38.71226" lon="-0.62887">
        <ele>745.4</ele>
        <time>2022-10-15 09:31:01</time>
      </trkpt>
      <trkpt lat="38.71223" lon="-0.62892">
        <ele>745</ele>
        <time>2022-10-15 09:31:02</time>
      </trkpt>
      <trkpt lat="38.71219" lon="-0.62896">
        <ele>744.4</ele>
        <time>2022-10-15 09:31:03</time>
      </trkpt>
      <trkpt lat="38.71215" lon="-0.62899">
        <ele>743.4</ele>
        <time>2022-10-15 09:31:04</time>
      </trkpt>
      <trkpt lat="38.7121" lon="-0.62901">
        <ele>742.8</ele>
        <time>2022-10-15 09:31:05</time>
      </trkpt>
      <trkpt lat="38.71206" lon="-0.62904">
        <ele>742.4</ele>
        <time>2022-10-15 09:31:06</time>
      </trkpt>
      <trkpt lat="38.71201" lon="-0.62905">
        <ele>742.2</ele>
        <time>2022-10-15 09:31:07</time>
      </trkpt>
      <trkpt lat="38.71197" lon="-0.62906">
        <ele>742.2</ele>
        <time>2022-10-15 09:31:08</time>
      </trkpt>
      <trkpt lat="38.71193" lon="-0.62907">
        <ele>742</ele>
        <time>2022-10-15 09:31:09</time>
      </trkpt>
      <trkpt lat="38.71188" lon="-0.62908">
        <ele>742</ele>
        <time>2022-10-15 09:31:10</time>
      </trkpt>
      <trkpt lat="38.71184" lon="-0.6291">
        <ele>742</ele>
        <time>2022-10-15 09:31:11</time>
      </trkpt>
      <trkpt lat="38.7118" lon="-0.62912">
        <ele>742</ele>
        <time>2022-10-15 09:31:12</time>
      </trkpt>
      <trkpt lat="38.71176" lon="-0.62913">
        <ele>742</ele>
        <time>2022-10-15 09:31:13</time>
      </trkpt>
      <trkpt lat="38.71172" lon="-0.62914">
        <ele>742</ele>
        <time>2022-10-15 09:31:14</time>
      </trkpt>
      <trkpt lat="38.71168" lon="-0.62914">
        <ele>742.2</ele>
        <time>2022-10-15 09:31:15</time>
      </trkpt>
      <trkpt lat="38.71163" lon="-0.62914">
        <ele>742.6</ele>
        <time>2022-10-15 09:31:16</time>
      </trkpt>
      <trkpt lat="38.71159" lon="-0.62912">
        <ele>743.8</ele>
        <time>2022-10-15 09:31:17</time>
      </trkpt>
      <trkpt lat="38.71154" lon="-0.62911">
        <ele>744</ele>
        <time>2022-10-15 09:31:18</time>
      </trkpt>
      <trkpt lat="38.71149" lon="-0.62909">
        <ele>744.2</ele>
        <time>2022-10-15 09:31:19</time>
      </trkpt>
      <trkpt lat="38.71144" lon="-0.62908">
        <ele>744.2</ele>
        <time>2022-10-15 09:31:20</time>
      </trkpt>
      <trkpt lat="38.71139" lon="-0.62907">
        <ele>744.2</ele>
        <time>2022-10-15 09:31:21</time>
      </trkpt>
      <trkpt lat="38.71134" lon="-0.62906">
        <ele>744.4</ele>
        <time>2022-10-15 09:31:22</time>
      </trkpt>
      <trkpt lat="38.7113" lon="-0.62907">
        <ele>744.4</ele>
        <time>2022-10-15 09:31:23</time>
      </trkpt>
      <trkpt lat="38.71125" lon="-0.62908">
        <ele>744.4</ele>
        <time>2022-10-15 09:31:24</time>
      </trkpt>
      <trkpt lat="38.7112" lon="-0.62909">
        <ele>744.4</ele>
        <time>2022-10-15 09:31:25</time>
      </trkpt>
      <trkpt lat="38.71116" lon="-0.6291">
        <ele>744.4</ele>
        <time>2022-10-15 09:31:26</time>
      </trkpt>
      <trkpt lat="38.71112" lon="-0.62911">
        <ele>744.4</ele>
        <time>2022-10-15 09:31:27</time>
      </trkpt>
      <trkpt lat="38.71108" lon="-0.62913">
        <ele>744.6</ele>
        <time>2022-10-15 09:31:28</time>
      </trkpt>
      <trkpt lat="38.71103" lon="-0.62914">
        <ele>744.6</ele>
        <time>2022-10-15 09:31:29</time>
      </trkpt>
      <trkpt lat="38.711" lon="-0.62915">
        <ele>744.6</ele>
        <time>2022-10-15 09:31:30</time>
      </trkpt>
      <trkpt lat="38.71096" lon="-0.62916">
        <ele>744.6</ele>
        <time>2022-10-15 09:31:31</time>
      </trkpt>
      <trkpt lat="38.71092" lon="-0.62917">
        <ele>744.6</ele>
        <time>2022-10-15 09:31:32</time>
      </trkpt>
      <trkpt lat="38.71088" lon="-0.62918">
        <ele>744.6</ele>
        <time>2022-10-15 09:31:33</time>
      </trkpt>
      <trkpt lat="38.71085" lon="-0.62919">
        <ele>744.6</ele>
        <time>2022-10-15 09:31:34</time>
      </trkpt>
      <trkpt lat="38.71081" lon="-0.6292">
        <ele>744.6</ele>
        <time>2022-10-15 09:31:35</time>
      </trkpt>
      <trkpt lat="38.71078" lon="-0.62921">
        <ele>744.6</ele>
        <time>2022-10-15 09:31:36</time>
      </trkpt>
      <trkpt lat="38.71075" lon="-0.62921">
        <ele>744.8</ele>
        <time>2022-10-15 09:31:37</time>
      </trkpt>
      <trkpt lat="38.71072" lon="-0.62922">
        <ele>745</ele>
        <time>2022-10-15 09:31:38</time>
      </trkpt>
      <trkpt lat="38.71069" lon="-0.62923">
        <ele>745.2</ele>
        <time>2022-10-15 09:31:39</time>
      </trkpt>
      <trkpt lat="38.71066" lon="-0.62924">
        <ele>745.4</ele>
        <time>2022-10-15 09:31:40</time>
      </trkpt>
      <trkpt lat="38.71063" lon="-0.62925">
        <ele>745.8</ele>
        <time>2022-10-15 09:31:41</time>
      </trkpt>
      <trkpt lat="38.7106" lon="-0.62926">
        <ele>746.2</ele>
        <time>2022-10-15 09:31:42</time>
      </trkpt>
      <trkpt lat="38.71057" lon="-0.62928">
        <ele>746.6</ele>
        <time>2022-10-15 09:31:43</time>
      </trkpt>
      <trkpt lat="38.71055" lon="-0.6293">
        <ele>747</ele>
        <time>2022-10-15 09:31:44</time>
      </trkpt>
      <trkpt lat="38.71052" lon="-0.62932">
        <ele>747.6</ele>
        <time>2022-10-15 09:31:45</time>
      </trkpt>
      <trkpt lat="38.7105" lon="-0.62935">
        <ele>748</ele>
        <time>2022-10-15 09:31:46</time>
      </trkpt>
      <trkpt lat="38.71048" lon="-0.62937">
        <ele>748.2</ele>
        <time>2022-10-15 09:31:47</time>
      </trkpt>
      <trkpt lat="38.71045" lon="-0.6294">
        <ele>748.4</ele>
        <time>2022-10-15 09:31:48</time>
      </trkpt>
      <trkpt lat="38.71042" lon="-0.62942">
        <ele>748.6</ele>
        <time>2022-10-15 09:31:49</time>
      </trkpt>
      <trkpt lat="38.7104" lon="-0.62945">
        <ele>748.6</ele>
        <time>2022-10-15 09:31:50</time>
      </trkpt>
      <trkpt lat="38.71037" lon="-0.62948">
        <ele>748.6</ele>
        <time>2022-10-15 09:31:51</time>
      </trkpt>
      <trkpt lat="38.71034" lon="-0.62951">
        <ele>748.8</ele>
        <time>2022-10-15 09:31:52</time>
      </trkpt>
      <trkpt lat="38.71031" lon="-0.62954">
        <ele>749</ele>
        <time>2022-10-15 09:31:53</time>
      </trkpt>
      <trkpt lat="38.71029" lon="-0.62957">
        <ele>749</ele>
        <time>2022-10-15 09:31:54</time>
      </trkpt>
      <trkpt lat="38.71026" lon="-0.6296">
        <ele>749</ele>
        <time>2022-10-15 09:31:55</time>
      </trkpt>
      <trkpt lat="38.71023" lon="-0.62963">
        <ele>749.2</ele>
        <time>2022-10-15 09:31:56</time>
      </trkpt>
      <trkpt lat="38.71021" lon="-0.62966">
        <ele>749.2</ele>
        <time>2022-10-15 09:31:57</time>
      </trkpt>
      <trkpt lat="38.71018" lon="-0.62968">
        <ele>749.2</ele>
        <time>2022-10-15 09:31:58</time>
      </trkpt>
      <trkpt lat="38.71016" lon="-0.62971">
        <ele>749.2</ele>
        <time>2022-10-15 09:31:59</time>
      </trkpt>
      <trkpt lat="38.71013" lon="-0.62974">
        <ele>749.2</ele>
        <time>2022-10-15 09:32:00</time>
      </trkpt>
      <trkpt lat="38.7101" lon="-0.62976">
        <ele>749.2</ele>
        <time>2022-10-15 09:32:01</time>
      </trkpt>
      <trkpt lat="38.71007" lon="-0.62979">
        <ele>749.4</ele>
        <time>2022-10-15 09:32:02</time>
      </trkpt>
      <trkpt lat="38.71004" lon="-0.62982">
        <ele>749.4</ele>
        <time>2022-10-15 09:32:03</time>
      </trkpt>
      <trkpt lat="38.71001" lon="-0.62986">
        <ele>749.4</ele>
        <time>2022-10-15 09:32:04</time>
      </trkpt>
      <trkpt lat="38.70998" lon="-0.62989">
        <ele>749.4</ele>
        <time>2022-10-15 09:32:05</time>
      </trkpt>
      <trkpt lat="38.70994" lon="-0.62992">
        <ele>749.4</ele>
        <time>2022-10-15 09:32:06</time>
      </trkpt>
      <trkpt lat="38.70991" lon="-0.62996">
        <ele>749.4</ele>
        <time>2022-10-15 09:32:07</time>
      </trkpt>
      <trkpt lat="38.70988" lon="-0.63">
        <ele>749.6</ele>
        <time>2022-10-15 09:32:08</time>
      </trkpt>
      <trkpt lat="38.70985" lon="-0.63003">
        <ele>749.6</ele>
        <time>2022-10-15 09:32:09</time>
      </trkpt>
      <trkpt lat="38.70982" lon="-0.63007">
        <ele>749.6</ele>
        <time>2022-10-15 09:32:10</time>
      </trkpt>
      <trkpt lat="38.70979" lon="-0.6301">
        <ele>749.6</ele>
        <time>2022-10-15 09:32:11</time>
      </trkpt>
      <trkpt lat="38.70977" lon="-0.63014">
        <ele>749.6</ele>
        <time>2022-10-15 09:32:12</time>
      </trkpt>
      <trkpt lat="38.70974" lon="-0.63018">
        <ele>749.6</ele>
        <time>2022-10-15 09:32:13</time>
      </trkpt>
      <trkpt lat="38.70972" lon="-0.63022">
        <ele>749.6</ele>
        <time>2022-10-15 09:32:14</time>
      </trkpt>
      <trkpt lat="38.70969" lon="-0.63026">
        <ele>749.6</ele>
        <time>2022-10-15 09:32:15</time>
      </trkpt>
      <trkpt lat="38.70966" lon="-0.63029">
        <ele>749.6</ele>
        <time>2022-10-15 09:32:16</time>
      </trkpt>
      <trkpt lat="38.70963" lon="-0.63033">
        <ele>749.6</ele>
        <time>2022-10-15 09:32:17</time>
      </trkpt>
      <trkpt lat="38.70961" lon="-0.63037">
        <ele>749.6</ele>
        <time>2022-10-15 09:32:18</time>
      </trkpt>
      <trkpt lat="38.70958" lon="-0.6304">
        <ele>749.6</ele>
        <time>2022-10-15 09:32:19</time>
      </trkpt>
      <trkpt lat="38.70955" lon="-0.63043">
        <ele>749.6</ele>
        <time>2022-10-15 09:32:20</time>
      </trkpt>
      <trkpt lat="38.70953" lon="-0.63046">
        <ele>749.6</ele>
        <time>2022-10-15 09:32:21</time>
      </trkpt>
      <trkpt lat="38.7095" lon="-0.63049">
        <ele>749.8</ele>
        <time>2022-10-15 09:32:22</time>
      </trkpt>
      <trkpt lat="38.70947" lon="-0.63051">
        <ele>749.8</ele>
        <time>2022-10-15 09:32:23</time>
      </trkpt>
      <trkpt lat="38.70944" lon="-0.63053">
        <ele>749.8</ele>
        <time>2022-10-15 09:32:24</time>
      </trkpt>
      <trkpt lat="38.70942" lon="-0.63056">
        <ele>749.8</ele>
        <time>2022-10-15 09:32:25</time>
      </trkpt>
      <trkpt lat="38.70938" lon="-0.63058">
        <ele>750</ele>
        <time>2022-10-15 09:32:26</time>
      </trkpt>
      <trkpt lat="38.70935" lon="-0.6306">
        <ele>750</ele>
        <time>2022-10-15 09:32:27</time>
      </trkpt>
      <trkpt lat="38.70932" lon="-0.63063">
        <ele>750.2</ele>
        <time>2022-10-15 09:32:28</time>
      </trkpt>
      <trkpt lat="38.70928" lon="-0.63065">
        <ele>750.2</ele>
        <time>2022-10-15 09:32:29</time>
      </trkpt>
      <trkpt lat="38.70924" lon="-0.63068">
        <ele>750.2</ele>
        <time>2022-10-15 09:32:30</time>
      </trkpt>
      <trkpt lat="38.7092" lon="-0.63071">
        <ele>750.2</ele>
        <time>2022-10-15 09:32:31</time>
      </trkpt>
      <trkpt lat="38.70917" lon="-0.63074">
        <ele>750.2</ele>
        <time>2022-10-15 09:32:32</time>
      </trkpt>
      <trkpt lat="38.70913" lon="-0.63076">
        <ele>750.2</ele>
        <time>2022-10-15 09:32:33</time>
      </trkpt>
      <trkpt lat="38.70909" lon="-0.63079">
        <ele>750.4</ele>
        <time>2022-10-15 09:32:34</time>
      </trkpt>
      <trkpt lat="38.70905" lon="-0.63081">
        <ele>750.4</ele>
        <time>2022-10-15 09:32:35</time>
      </trkpt>
      <trkpt lat="38.70901" lon="-0.63084">
        <ele>750.4</ele>
        <time>2022-10-15 09:32:36</time>
      </trkpt>
      <trkpt lat="38.70897" lon="-0.63086">
        <ele>750.4</ele>
        <time>2022-10-15 09:32:37</time>
      </trkpt>
      <trkpt lat="38.70889" lon="-0.63089">
        <ele>750.4</ele>
        <time>2022-10-15 09:32:39</time>
      </trkpt>
      <trkpt lat="38.70885" lon="-0.63091">
        <ele>750.4</ele>
        <time>2022-10-15 09:32:40</time>
      </trkpt>
      <trkpt lat="38.70876" lon="-0.63093">
        <ele>750.6</ele>
        <time>2022-10-15 09:32:42</time>
      </trkpt>
      <trkpt lat="38.70868" lon="-0.63096">
        <ele>750.8</ele>
        <time>2022-10-15 09:32:44</time>
      </trkpt>
      <trkpt lat="38.70864" lon="-0.63097">
        <ele>750.8</ele>
        <time>2022-10-15 09:32:45</time>
      </trkpt>
      <trkpt lat="38.7086" lon="-0.63098">
        <ele>751</ele>
        <time>2022-10-15 09:32:46</time>
      </trkpt>
      <trkpt lat="38.70852" lon="-0.63101">
        <ele>751.2</ele>
        <time>2022-10-15 09:32:48</time>
      </trkpt>
      <trkpt lat="38.70849" lon="-0.63102">
        <ele>751.4</ele>
        <time>2022-10-15 09:32:49</time>
      </trkpt>
      <trkpt lat="38.70841" lon="-0.63106">
        <ele>751.6</ele>
        <time>2022-10-15 09:32:51</time>
      </trkpt>
      <trkpt lat="38.70838" lon="-0.63108">
        <ele>751.8</ele>
        <time>2022-10-15 09:32:52</time>
      </trkpt>
      <trkpt lat="38.70834" lon="-0.63111">
        <ele>751.8</ele>
        <time>2022-10-15 09:32:53</time>
      </trkpt>
      <trkpt lat="38.7083" lon="-0.63113">
        <ele>752</ele>
        <time>2022-10-15 09:32:54</time>
      </trkpt>
      <trkpt lat="38.70826" lon="-0.63114">
        <ele>752</ele>
        <time>2022-10-15 09:32:55</time>
      </trkpt>
      <trkpt lat="38.70821" lon="-0.63114">
        <ele>752</ele>
        <time>2022-10-15 09:32:56</time>
      </trkpt>
      <trkpt lat="38.70817" lon="-0.63113">
        <ele>752</ele>
        <time>2022-10-15 09:32:57</time>
      </trkpt>
      <trkpt lat="38.70812" lon="-0.63111">
        <ele>752</ele>
        <time>2022-10-15 09:32:58</time>
      </trkpt>
      <trkpt lat="38.70802" lon="-0.63106">
        <ele>752</ele>
        <time>2022-10-15 09:33:00</time>
      </trkpt>
      <trkpt lat="38.70797" lon="-0.63102">
        <ele>752</ele>
        <time>2022-10-15 09:33:01</time>
      </trkpt>
      <trkpt lat="38.70793" lon="-0.63099">
        <ele>752</ele>
        <time>2022-10-15 09:33:02</time>
      </trkpt>
      <trkpt lat="38.70789" lon="-0.63096">
        <ele>751.8</ele>
        <time>2022-10-15 09:33:03</time>
      </trkpt>
      <trkpt lat="38.70785" lon="-0.63094">
        <ele>751.6</ele>
        <time>2022-10-15 09:33:04</time>
      </trkpt>
      <trkpt lat="38.70781" lon="-0.63091">
        <ele>751.2</ele>
        <time>2022-10-15 09:33:05</time>
      </trkpt>
      <trkpt lat="38.70777" lon="-0.63089">
        <ele>750.6</ele>
        <time>2022-10-15 09:33:06</time>
      </trkpt>
      <trkpt lat="38.70774" lon="-0.63086">
        <ele>750.2</ele>
        <time>2022-10-15 09:33:07</time>
      </trkpt>
      <trkpt lat="38.70766" lon="-0.63084">
        <ele>750</ele>
        <time>2022-10-15 09:33:09</time>
      </trkpt>
      <trkpt lat="38.70762" lon="-0.63083">
        <ele>750</ele>
        <time>2022-10-15 09:33:10</time>
      </trkpt>
      <trkpt lat="38.70759" lon="-0.63085">
        <ele>750</ele>
        <time>2022-10-15 09:33:11</time>
      </trkpt>
      <trkpt lat="38.70755" lon="-0.63087">
        <ele>750</ele>
        <time>2022-10-15 09:33:12</time>
      </trkpt>
      <trkpt lat="38.70753" lon="-0.63091">
        <ele>750</ele>
        <time>2022-10-15 09:33:13</time>
      </trkpt>
      <trkpt lat="38.70752" lon="-0.63094">
        <ele>750</ele>
        <time>2022-10-15 09:33:14</time>
      </trkpt>
      <trkpt lat="38.70749" lon="-0.63102">
        <ele>750</ele>
        <time>2022-10-15 09:33:16</time>
      </trkpt>
      <trkpt lat="38.70748" lon="-0.63106">
        <ele>750</ele>
        <time>2022-10-15 09:33:17</time>
      </trkpt>
      <trkpt lat="38.70745" lon="-0.63114">
        <ele>750.6</ele>
        <time>2022-10-15 09:33:19</time>
      </trkpt>
      <trkpt lat="38.70742" lon="-0.63121">
        <ele>751.4</ele>
        <time>2022-10-15 09:33:21</time>
      </trkpt>
      <trkpt lat="38.7074" lon="-0.63125">
        <ele>751.8</ele>
        <time>2022-10-15 09:33:22</time>
      </trkpt>
      <trkpt lat="38.70737" lon="-0.63129">
        <ele>752.2</ele>
        <time>2022-10-15 09:33:23</time>
      </trkpt>
      <trkpt lat="38.70735" lon="-0.63132">
        <ele>752.6</ele>
        <time>2022-10-15 09:33:24</time>
      </trkpt>
      <trkpt lat="38.70731" lon="-0.63136">
        <ele>753.2</ele>
        <time>2022-10-15 09:33:25</time>
      </trkpt>
      <trkpt lat="38.70728" lon="-0.6314">
        <ele>753.8</ele>
        <time>2022-10-15 09:33:26</time>
      </trkpt>
      <trkpt lat="38.70724" lon="-0.63144">
        <ele>754.2</ele>
        <time>2022-10-15 09:33:27</time>
      </trkpt>
      <trkpt lat="38.70721" lon="-0.63149">
        <ele>754.6</ele>
        <time>2022-10-15 09:33:28</time>
      </trkpt>
      <trkpt lat="38.70718" lon="-0.63153">
        <ele>754.6</ele>
        <time>2022-10-15 09:33:29</time>
      </trkpt>
      <trkpt lat="38.70714" lon="-0.63157">
        <ele>754.8</ele>
        <time>2022-10-15 09:33:30</time>
      </trkpt>
      <trkpt lat="38.70711" lon="-0.63161">
        <ele>754.8</ele>
        <time>2022-10-15 09:33:31</time>
      </trkpt>
      <trkpt lat="38.70708" lon="-0.63165">
        <ele>754.8</ele>
        <time>2022-10-15 09:33:32</time>
      </trkpt>
      <trkpt lat="38.70705" lon="-0.63169">
        <ele>754.8</ele>
        <time>2022-10-15 09:33:33</time>
      </trkpt>
      <trkpt lat="38.70701" lon="-0.63172">
        <ele>754.8</ele>
        <time>2022-10-15 09:33:34</time>
      </trkpt>
      <trkpt lat="38.70698" lon="-0.63176">
        <ele>754.8</ele>
        <time>2022-10-15 09:33:35</time>
      </trkpt>
      <trkpt lat="38.70695" lon="-0.6318">
        <ele>754.8</ele>
        <time>2022-10-15 09:33:36</time>
      </trkpt>
      <trkpt lat="38.70692" lon="-0.63184">
        <ele>754.8</ele>
        <time>2022-10-15 09:33:37</time>
      </trkpt>
      <trkpt lat="38.70689" lon="-0.63187">
        <ele>754.8</ele>
        <time>2022-10-15 09:33:38</time>
      </trkpt>
      <trkpt lat="38.70685" lon="-0.63191">
        <ele>754.8</ele>
        <time>2022-10-15 09:33:39</time>
      </trkpt>
      <trkpt lat="38.70682" lon="-0.63194">
        <ele>754.8</ele>
        <time>2022-10-15 09:33:40</time>
      </trkpt>
      <trkpt lat="38.70678" lon="-0.63198">
        <ele>754.8</ele>
        <time>2022-10-15 09:33:41</time>
      </trkpt>
      <trkpt lat="38.70675" lon="-0.63201">
        <ele>754.6</ele>
        <time>2022-10-15 09:33:42</time>
      </trkpt>
      <trkpt lat="38.7067" lon="-0.63205">
        <ele>754.6</ele>
        <time>2022-10-15 09:33:43</time>
      </trkpt>
      <trkpt lat="38.70666" lon="-0.63209">
        <ele>754.6</ele>
        <time>2022-10-15 09:33:44</time>
      </trkpt>
      <trkpt lat="38.70663" lon="-0.63213">
        <ele>754.6</ele>
        <time>2022-10-15 09:33:45</time>
      </trkpt>
      <trkpt lat="38.70659" lon="-0.63217">
        <ele>754.4</ele>
        <time>2022-10-15 09:33:46</time>
      </trkpt>
      <trkpt lat="38.70656" lon="-0.63221">
        <ele>754.4</ele>
        <time>2022-10-15 09:33:47</time>
      </trkpt>
      <trkpt lat="38.70653" lon="-0.63224">
        <ele>754.2</ele>
        <time>2022-10-15 09:33:48</time>
      </trkpt>
      <trkpt lat="38.7065" lon="-0.63228">
        <ele>753.8</ele>
        <time>2022-10-15 09:33:49</time>
      </trkpt>
      <trkpt lat="38.70648" lon="-0.63233">
        <ele>753.6</ele>
        <time>2022-10-15 09:33:50</time>
      </trkpt>
      <trkpt lat="38.70646" lon="-0.63237">
        <ele>753.2</ele>
        <time>2022-10-15 09:33:51</time>
      </trkpt>
      <trkpt lat="38.70645" lon="-0.63241">
        <ele>753.2</ele>
        <time>2022-10-15 09:33:52</time>
      </trkpt>
      <trkpt lat="38.70643" lon="-0.63245">
        <ele>753</ele>
        <time>2022-10-15 09:33:53</time>
      </trkpt>
      <trkpt lat="38.70642" lon="-0.6325">
        <ele>753</ele>
        <time>2022-10-15 09:33:54</time>
      </trkpt>
      <trkpt lat="38.7064" lon="-0.63254">
        <ele>753</ele>
        <time>2022-10-15 09:33:55</time>
      </trkpt>
      <trkpt lat="38.70639" lon="-0.63259">
        <ele>753</ele>
        <time>2022-10-15 09:33:56</time>
      </trkpt>
      <trkpt lat="38.70637" lon="-0.63263">
        <ele>753</ele>
        <time>2022-10-15 09:33:57</time>
      </trkpt>
      <trkpt lat="38.70634" lon="-0.63267">
        <ele>753</ele>
        <time>2022-10-15 09:33:58</time>
      </trkpt>
      <trkpt lat="38.70632" lon="-0.6327">
        <ele>753</ele>
        <time>2022-10-15 09:33:59</time>
      </trkpt>
      <trkpt lat="38.70629" lon="-0.63273">
        <ele>753</ele>
        <time>2022-10-15 09:34:00</time>
      </trkpt>
      <trkpt lat="38.70626" lon="-0.63276">
        <ele>753</ele>
        <time>2022-10-15 09:34:01</time>
      </trkpt>
      <trkpt lat="38.70623" lon="-0.63279">
        <ele>753</ele>
        <time>2022-10-15 09:34:02</time>
      </trkpt>
      <trkpt lat="38.7062" lon="-0.63282">
        <ele>753.2</ele>
        <time>2022-10-15 09:34:03</time>
      </trkpt>
      <trkpt lat="38.70617" lon="-0.63284">
        <ele>753.8</ele>
        <time>2022-10-15 09:34:04</time>
      </trkpt>
      <trkpt lat="38.70614" lon="-0.63287">
        <ele>754.2</ele>
        <time>2022-10-15 09:34:05</time>
      </trkpt>
      <trkpt lat="38.70611" lon="-0.6329">
        <ele>754.4</ele>
        <time>2022-10-15 09:34:06</time>
      </trkpt>
      <trkpt lat="38.70607" lon="-0.63293">
        <ele>754.4</ele>
        <time>2022-10-15 09:34:07</time>
      </trkpt>
      <trkpt lat="38.70605" lon="-0.63296">
        <ele>754.6</ele>
        <time>2022-10-15 09:34:08</time>
      </trkpt>
      <trkpt lat="38.70602" lon="-0.63299">
        <ele>754.6</ele>
        <time>2022-10-15 09:34:09</time>
      </trkpt>
      <trkpt lat="38.70599" lon="-0.63302">
        <ele>754.8</ele>
        <time>2022-10-15 09:34:10</time>
      </trkpt>
      <trkpt lat="38.70596" lon="-0.63306">
        <ele>754.8</ele>
        <time>2022-10-15 09:34:11</time>
      </trkpt>
      <trkpt lat="38.70593" lon="-0.63309">
        <ele>754.8</ele>
        <time>2022-10-15 09:34:12</time>
      </trkpt>
      <trkpt lat="38.7059" lon="-0.63313">
        <ele>755</ele>
        <time>2022-10-15 09:34:13</time>
      </trkpt>
      <trkpt lat="38.70587" lon="-0.63316">
        <ele>755</ele>
        <time>2022-10-15 09:34:14</time>
      </trkpt>
      <trkpt lat="38.70583" lon="-0.63319">
        <ele>755</ele>
        <time>2022-10-15 09:34:15</time>
      </trkpt>
      <trkpt lat="38.7058" lon="-0.63322">
        <ele>755</ele>
        <time>2022-10-15 09:34:16</time>
      </trkpt>
      <trkpt lat="38.70577" lon="-0.63324">
        <ele>755.2</ele>
        <time>2022-10-15 09:34:17</time>
      </trkpt>
      <trkpt lat="38.70573" lon="-0.63327">
        <ele>755.2</ele>
        <time>2022-10-15 09:34:18</time>
      </trkpt>
      <trkpt lat="38.7057" lon="-0.6333">
        <ele>755.2</ele>
        <time>2022-10-15 09:34:19</time>
      </trkpt>
      <trkpt lat="38.70566" lon="-0.63332">
        <ele>755.2</ele>
        <time>2022-10-15 09:34:20</time>
      </trkpt>
      <trkpt lat="38.70563" lon="-0.63334">
        <ele>755.2</ele>
        <time>2022-10-15 09:34:21</time>
      </trkpt>
      <trkpt lat="38.7056" lon="-0.63336">
        <ele>755.2</ele>
        <time>2022-10-15 09:34:22</time>
      </trkpt>
      <trkpt lat="38.70556" lon="-0.63338">
        <ele>755.2</ele>
        <time>2022-10-15 09:34:23</time>
      </trkpt>
      <trkpt lat="38.70552" lon="-0.6334">
        <ele>755.2</ele>
        <time>2022-10-15 09:34:24</time>
      </trkpt>
      <trkpt lat="38.70548" lon="-0.63342">
        <ele>755.2</ele>
        <time>2022-10-15 09:34:25</time>
      </trkpt>
      <trkpt lat="38.70544" lon="-0.63343">
        <ele>755.2</ele>
        <time>2022-10-15 09:34:26</time>
      </trkpt>
      <trkpt lat="38.7054" lon="-0.63343">
        <ele>755.4</ele>
        <time>2022-10-15 09:34:27</time>
      </trkpt>
      <trkpt lat="38.70536" lon="-0.63344">
        <ele>755.4</ele>
        <time>2022-10-15 09:34:28</time>
      </trkpt>
      <trkpt lat="38.70532" lon="-0.63345">
        <ele>755.4</ele>
        <time>2022-10-15 09:34:29</time>
      </trkpt>
      <trkpt lat="38.70528" lon="-0.63345">
        <ele>755.4</ele>
        <time>2022-10-15 09:34:30</time>
      </trkpt>
      <trkpt lat="38.70524" lon="-0.63345">
        <ele>755.4</ele>
        <time>2022-10-15 09:34:31</time>
      </trkpt>
      <trkpt lat="38.7052" lon="-0.63345">
        <ele>755.6</ele>
        <time>2022-10-15 09:34:32</time>
      </trkpt>
      <trkpt lat="38.70516" lon="-0.63345">
        <ele>755.6</ele>
        <time>2022-10-15 09:34:33</time>
      </trkpt>
      <trkpt lat="38.70513" lon="-0.63345">
        <ele>755.6</ele>
        <time>2022-10-15 09:34:34</time>
      </trkpt>
      <trkpt lat="38.70509" lon="-0.63346">
        <ele>755.6</ele>
        <time>2022-10-15 09:34:35</time>
      </trkpt>
      <trkpt lat="38.70505" lon="-0.63346">
        <ele>755.6</ele>
        <time>2022-10-15 09:34:36</time>
      </trkpt>
      <trkpt lat="38.70501" lon="-0.63346">
        <ele>755.8</ele>
        <time>2022-10-15 09:34:37</time>
      </trkpt>
      <trkpt lat="38.70497" lon="-0.63347">
        <ele>755.8</ele>
        <time>2022-10-15 09:34:38</time>
      </trkpt>
      <trkpt lat="38.70493" lon="-0.63347">
        <ele>755.8</ele>
        <time>2022-10-15 09:34:39</time>
      </trkpt>
      <trkpt lat="38.70489" lon="-0.63348">
        <ele>756</ele>
        <time>2022-10-15 09:34:40</time>
      </trkpt>
      <trkpt lat="38.70485" lon="-0.63349">
        <ele>756</ele>
        <time>2022-10-15 09:34:41</time>
      </trkpt>
      <trkpt lat="38.70481" lon="-0.63349">
        <ele>756</ele>
        <time>2022-10-15 09:34:42</time>
      </trkpt>
      <trkpt lat="38.70477" lon="-0.6335">
        <ele>756</ele>
        <time>2022-10-15 09:34:43</time>
      </trkpt>
      <trkpt lat="38.70473" lon="-0.63351">
        <ele>756</ele>
        <time>2022-10-15 09:34:44</time>
      </trkpt>
      <trkpt lat="38.70469" lon="-0.63351">
        <ele>756</ele>
        <time>2022-10-15 09:34:45</time>
      </trkpt>
      <trkpt lat="38.70465" lon="-0.63351">
        <ele>756</ele>
        <time>2022-10-15 09:34:46</time>
      </trkpt>
      <trkpt lat="38.70461" lon="-0.63351">
        <ele>756</ele>
        <time>2022-10-15 09:34:47</time>
      </trkpt>
      <trkpt lat="38.70457" lon="-0.63351">
        <ele>756</ele>
        <time>2022-10-15 09:34:48</time>
      </trkpt>
      <trkpt lat="38.70453" lon="-0.6335">
        <ele>756</ele>
        <time>2022-10-15 09:34:49</time>
      </trkpt>
      <trkpt lat="38.70449" lon="-0.6335">
        <ele>756</ele>
        <time>2022-10-15 09:34:50</time>
      </trkpt>
      <trkpt lat="38.70444" lon="-0.6335">
        <ele>756</ele>
        <time>2022-10-15 09:34:51</time>
      </trkpt>
      <trkpt lat="38.7044" lon="-0.63349">
        <ele>756</ele>
        <time>2022-10-15 09:34:52</time>
      </trkpt>
      <trkpt lat="38.70436" lon="-0.63349">
        <ele>756</ele>
        <time>2022-10-15 09:34:53</time>
      </trkpt>
      <trkpt lat="38.70432" lon="-0.6335">
        <ele>755.8</ele>
        <time>2022-10-15 09:34:54</time>
      </trkpt>
      <trkpt lat="38.70428" lon="-0.6335">
        <ele>755.8</ele>
        <time>2022-10-15 09:34:55</time>
      </trkpt>
      <trkpt lat="38.70424" lon="-0.63351">
        <ele>755.8</ele>
        <time>2022-10-15 09:34:56</time>
      </trkpt>
      <trkpt lat="38.70421" lon="-0.63352">
        <ele>755.8</ele>
        <time>2022-10-15 09:34:57</time>
      </trkpt>
      <trkpt lat="38.70417" lon="-0.63354">
        <ele>755.8</ele>
        <time>2022-10-15 09:34:58</time>
      </trkpt>
      <trkpt lat="38.70413" lon="-0.63355">
        <ele>755.8</ele>
        <time>2022-10-15 09:34:59</time>
      </trkpt>
      <trkpt lat="38.7041" lon="-0.63357">
        <ele>755.8</ele>
        <time>2022-10-15 09:35:00</time>
      </trkpt>
      <trkpt lat="38.70406" lon="-0.63359">
        <ele>755.8</ele>
        <time>2022-10-15 09:35:01</time>
      </trkpt>
      <trkpt lat="38.70403" lon="-0.6336">
        <ele>755.8</ele>
        <time>2022-10-15 09:35:02</time>
      </trkpt>
      <trkpt lat="38.70399" lon="-0.63362">
        <ele>756</ele>
        <time>2022-10-15 09:35:03</time>
      </trkpt>
      <trkpt lat="38.70396" lon="-0.63365">
        <ele>756</ele>
        <time>2022-10-15 09:35:04</time>
      </trkpt>
      <trkpt lat="38.70393" lon="-0.63367">
        <ele>756</ele>
        <time>2022-10-15 09:35:05</time>
      </trkpt>
      <trkpt lat="38.7039" lon="-0.6337">
        <ele>756</ele>
        <time>2022-10-15 09:35:06</time>
      </trkpt>
      <trkpt lat="38.70387" lon="-0.63373">
        <ele>756.2</ele>
        <time>2022-10-15 09:35:07</time>
      </trkpt>
      <trkpt lat="38.70384" lon="-0.63377">
        <ele>756.2</ele>
        <time>2022-10-15 09:35:08</time>
      </trkpt>
      <trkpt lat="38.70381" lon="-0.63381">
        <ele>756.2</ele>
        <time>2022-10-15 09:35:09</time>
      </trkpt>
      <trkpt lat="38.70379" lon="-0.63384">
        <ele>756.2</ele>
        <time>2022-10-15 09:35:10</time>
      </trkpt>
      <trkpt lat="38.70377" lon="-0.63389">
        <ele>756.4</ele>
        <time>2022-10-15 09:35:11</time>
      </trkpt>
      <trkpt lat="38.70375" lon="-0.63393">
        <ele>756.4</ele>
        <time>2022-10-15 09:35:12</time>
      </trkpt>
      <trkpt lat="38.70373" lon="-0.63397">
        <ele>756.4</ele>
        <time>2022-10-15 09:35:13</time>
      </trkpt>
      <trkpt lat="38.7037" lon="-0.63401">
        <ele>756.6</ele>
        <time>2022-10-15 09:35:14</time>
      </trkpt>
      <trkpt lat="38.70368" lon="-0.63405">
        <ele>756.6</ele>
        <time>2022-10-15 09:35:15</time>
      </trkpt>
      <trkpt lat="38.70366" lon="-0.63409">
        <ele>756.6</ele>
        <time>2022-10-15 09:35:16</time>
      </trkpt>
      <trkpt lat="38.70363" lon="-0.63413">
        <ele>756.6</ele>
        <time>2022-10-15 09:35:17</time>
      </trkpt>
      <trkpt lat="38.70361" lon="-0.63416">
        <ele>756.6</ele>
        <time>2022-10-15 09:35:18</time>
      </trkpt>
      <trkpt lat="38.70358" lon="-0.63419">
        <ele>756.6</ele>
        <time>2022-10-15 09:35:19</time>
      </trkpt>
      <trkpt lat="38.70355" lon="-0.63422">
        <ele>756.6</ele>
        <time>2022-10-15 09:35:20</time>
      </trkpt>
      <trkpt lat="38.70352" lon="-0.63425">
        <ele>756.6</ele>
        <time>2022-10-15 09:35:21</time>
      </trkpt>
      <trkpt lat="38.70348" lon="-0.63427">
        <ele>756.6</ele>
        <time>2022-10-15 09:35:22</time>
      </trkpt>
      <trkpt lat="38.70345" lon="-0.63429">
        <ele>756.8</ele>
        <time>2022-10-15 09:35:23</time>
      </trkpt>
      <trkpt lat="38.70342" lon="-0.6343">
        <ele>756.8</ele>
        <time>2022-10-15 09:35:24</time>
      </trkpt>
      <trkpt lat="38.70339" lon="-0.63432">
        <ele>756.8</ele>
        <time>2022-10-15 09:35:25</time>
      </trkpt>
      <trkpt lat="38.70335" lon="-0.63434">
        <ele>757</ele>
        <time>2022-10-15 09:35:26</time>
      </trkpt>
      <trkpt lat="38.70332" lon="-0.63435">
        <ele>757.4</ele>
        <time>2022-10-15 09:35:27</time>
      </trkpt>
      <trkpt lat="38.70329" lon="-0.63436">
        <ele>757.4</ele>
        <time>2022-10-15 09:35:28</time>
      </trkpt>
      <trkpt lat="38.70326" lon="-0.63438">
        <ele>757.6</ele>
        <time>2022-10-15 09:35:29</time>
      </trkpt>
      <trkpt lat="38.70323" lon="-0.63439">
        <ele>757.6</ele>
        <time>2022-10-15 09:35:30</time>
      </trkpt>
      <trkpt lat="38.70319" lon="-0.6344">
        <ele>757.6</ele>
        <time>2022-10-15 09:35:31</time>
      </trkpt>
      <trkpt lat="38.70316" lon="-0.63441">
        <ele>757.6</ele>
        <time>2022-10-15 09:35:32</time>
      </trkpt>
      <trkpt lat="38.70312" lon="-0.63443">
        <ele>757.8</ele>
        <time>2022-10-15 09:35:33</time>
      </trkpt>
      <trkpt lat="38.70309" lon="-0.63444">
        <ele>758</ele>
        <time>2022-10-15 09:35:34</time>
      </trkpt>
      <trkpt lat="38.70305" lon="-0.63445">
        <ele>758.2</ele>
        <time>2022-10-15 09:35:35</time>
      </trkpt>
      <trkpt lat="38.70301" lon="-0.63446">
        <ele>758.2</ele>
        <time>2022-10-15 09:35:36</time>
      </trkpt>
      <trkpt lat="38.70297" lon="-0.63447">
        <ele>758.2</ele>
        <time>2022-10-15 09:35:37</time>
      </trkpt>
      <trkpt lat="38.70293" lon="-0.63447">
        <ele>758.4</ele>
        <time>2022-10-15 09:35:38</time>
      </trkpt>
      <trkpt lat="38.7029" lon="-0.63448">
        <ele>758.4</ele>
        <time>2022-10-15 09:35:39</time>
      </trkpt>
      <trkpt lat="38.70286" lon="-0.63448">
        <ele>758.4</ele>
        <time>2022-10-15 09:35:40</time>
      </trkpt>
      <trkpt lat="38.70283" lon="-0.63449">
        <ele>758.6</ele>
        <time>2022-10-15 09:35:41</time>
      </trkpt>
      <trkpt lat="38.70279" lon="-0.63449">
        <ele>758.6</ele>
        <time>2022-10-15 09:35:42</time>
      </trkpt>
      <trkpt lat="38.70275" lon="-0.6345">
        <ele>758.6</ele>
        <time>2022-10-15 09:35:43</time>
      </trkpt>
      <trkpt lat="38.70272" lon="-0.63451">
        <ele>758.8</ele>
        <time>2022-10-15 09:35:44</time>
      </trkpt>
      <trkpt lat="38.70268" lon="-0.63452">
        <ele>758.8</ele>
        <time>2022-10-15 09:35:45</time>
      </trkpt>
      <trkpt lat="38.70264" lon="-0.63452">
        <ele>758.8</ele>
        <time>2022-10-15 09:35:46</time>
      </trkpt>
      <trkpt lat="38.70261" lon="-0.63454">
        <ele>758.8</ele>
        <time>2022-10-15 09:35:47</time>
      </trkpt>
      <trkpt lat="38.70257" lon="-0.63455">
        <ele>759</ele>
        <time>2022-10-15 09:35:48</time>
      </trkpt>
      <trkpt lat="38.70254" lon="-0.63456">
        <ele>759</ele>
        <time>2022-10-15 09:35:49</time>
      </trkpt>
      <trkpt lat="38.70251" lon="-0.63458">
        <ele>759</ele>
        <time>2022-10-15 09:35:50</time>
      </trkpt>
      <trkpt lat="38.70247" lon="-0.6346">
        <ele>759</ele>
        <time>2022-10-15 09:35:51</time>
      </trkpt>
      <trkpt lat="38.70244" lon="-0.63462">
        <ele>759</ele>
        <time>2022-10-15 09:35:52</time>
      </trkpt>
      <trkpt lat="38.70242" lon="-0.63464">
        <ele>759</ele>
        <time>2022-10-15 09:35:53</time>
      </trkpt>
      <trkpt lat="38.70239" lon="-0.63466">
        <ele>759</ele>
        <time>2022-10-15 09:35:54</time>
      </trkpt>
      <trkpt lat="38.7023" lon="-0.63473">
        <ele>759.2</ele>
        <time>2022-10-15 09:35:57</time>
      </trkpt>
      <trkpt lat="38.70227" lon="-0.63476">
        <ele>759.4</ele>
        <time>2022-10-15 09:35:58</time>
      </trkpt>
      <trkpt lat="38.70218" lon="-0.63483">
        <ele>759.6</ele>
        <time>2022-10-15 09:36:01</time>
      </trkpt>
      <trkpt lat="38.70212" lon="-0.63485">
        <ele>759.6</ele>
        <time>2022-10-15 09:36:03</time>
      </trkpt>
      <trkpt lat="38.70208" lon="-0.63487">
        <ele>759.8</ele>
        <time>2022-10-15 09:36:04</time>
      </trkpt>
      <trkpt lat="38.70201" lon="-0.6349">
        <ele>759.8</ele>
        <time>2022-10-15 09:36:07</time>
      </trkpt>
      <trkpt lat="38.702" lon="-0.63493">
        <ele>759.8</ele>
        <time>2022-10-15 09:36:08</time>
      </trkpt>
      <trkpt lat="38.70201" lon="-0.63502">
        <ele>760</ele>
        <time>2022-10-15 09:36:11</time>
      </trkpt>
      <trkpt lat="38.70203" lon="-0.63505">
        <ele>760</ele>
        <time>2022-10-15 09:36:12</time>
      </trkpt>
      <trkpt lat="38.70207" lon="-0.63511">
        <ele>760.4</ele>
        <time>2022-10-15 09:36:14</time>
      </trkpt>
      <trkpt lat="38.70212" lon="-0.63516">
        <ele>760.8</ele>
        <time>2022-10-15 09:36:16</time>
      </trkpt>
      <trkpt lat="38.70215" lon="-0.63518">
        <ele>761</ele>
        <time>2022-10-15 09:36:17</time>
      </trkpt>
      <trkpt lat="38.70217" lon="-0.6352">
        <ele>761.2</ele>
        <time>2022-10-15 09:36:18</time>
      </trkpt>
      <trkpt lat="38.7022" lon="-0.63522">
        <ele>761.4</ele>
        <time>2022-10-15 09:36:19</time>
      </trkpt>
      <trkpt lat="38.70223" lon="-0.63524">
        <ele>761.6</ele>
        <time>2022-10-15 09:36:20</time>
      </trkpt>
      <trkpt lat="38.70226" lon="-0.63525">
        <ele>761.6</ele>
        <time>2022-10-15 09:36:21</time>
      </trkpt>
      <trkpt lat="38.7023" lon="-0.63526">
        <ele>761.6</ele>
        <time>2022-10-15 09:36:22</time>
      </trkpt>
      <trkpt lat="38.70234" lon="-0.63527">
        <ele>761.6</ele>
        <time>2022-10-15 09:36:23</time>
      </trkpt>
      <trkpt lat="38.70237" lon="-0.63528">
        <ele>761.6</ele>
        <time>2022-10-15 09:36:24</time>
      </trkpt>
      <trkpt lat="38.70241" lon="-0.6353">
        <ele>761.6</ele>
        <time>2022-10-15 09:36:25</time>
      </trkpt>
      <trkpt lat="38.70245" lon="-0.63532">
        <ele>761.6</ele>
        <time>2022-10-15 09:36:26</time>
      </trkpt>
      <trkpt lat="38.70249" lon="-0.63534">
        <ele>761.6</ele>
        <time>2022-10-15 09:36:27</time>
      </trkpt>
      <trkpt lat="38.70253" lon="-0.63537">
        <ele>761.4</ele>
        <time>2022-10-15 09:36:28</time>
      </trkpt>
      <trkpt lat="38.70256" lon="-0.63541">
        <ele>761.2</ele>
        <time>2022-10-15 09:36:29</time>
      </trkpt>
      <trkpt lat="38.7026" lon="-0.63545">
        <ele>761</ele>
        <time>2022-10-15 09:36:30</time>
      </trkpt>
      <trkpt lat="38.70264" lon="-0.63548">
        <ele>760.8</ele>
        <time>2022-10-15 09:36:31</time>
      </trkpt>
      <trkpt lat="38.70268" lon="-0.63552">
        <ele>760.4</ele>
        <time>2022-10-15 09:36:32</time>
      </trkpt>
      <trkpt lat="38.70272" lon="-0.63556">
        <ele>760</ele>
        <time>2022-10-15 09:36:33</time>
      </trkpt>
      <trkpt lat="38.70276" lon="-0.6356">
        <ele>759.8</ele>
        <time>2022-10-15 09:36:34</time>
      </trkpt>
      <trkpt lat="38.70279" lon="-0.63563">
        <ele>759.4</ele>
        <time>2022-10-15 09:36:35</time>
      </trkpt>
      <trkpt lat="38.70283" lon="-0.63567">
        <ele>759.2</ele>
        <time>2022-10-15 09:36:36</time>
      </trkpt>
      <trkpt lat="38.70287" lon="-0.63571">
        <ele>758.8</ele>
        <time>2022-10-15 09:36:37</time>
      </trkpt>
      <trkpt lat="38.70292" lon="-0.63574">
        <ele>758.4</ele>
        <time>2022-10-15 09:36:38</time>
      </trkpt>
      <trkpt lat="38.70296" lon="-0.63578">
        <ele>758.2</ele>
        <time>2022-10-15 09:36:39</time>
      </trkpt>
      <trkpt lat="38.703" lon="-0.63582">
        <ele>757.8</ele>
        <time>2022-10-15 09:36:40</time>
      </trkpt>
      <trkpt lat="38.70303" lon="-0.63585">
        <ele>757.4</ele>
        <time>2022-10-15 09:36:41</time>
      </trkpt>
      <trkpt lat="38.70307" lon="-0.63589">
        <ele>757.2</ele>
        <time>2022-10-15 09:36:42</time>
      </trkpt>
      <trkpt lat="38.70312" lon="-0.63592">
        <ele>756.8</ele>
        <time>2022-10-15 09:36:43</time>
      </trkpt>
      <trkpt lat="38.70317" lon="-0.63595">
        <ele>756.4</ele>
        <time>2022-10-15 09:36:44</time>
      </trkpt>
      <trkpt lat="38.70321" lon="-0.63597">
        <ele>756.2</ele>
        <time>2022-10-15 09:36:45</time>
      </trkpt>
      <trkpt lat="38.70326" lon="-0.63598">
        <ele>755.8</ele>
        <time>2022-10-15 09:36:46</time>
      </trkpt>
      <trkpt lat="38.70332" lon="-0.636">
        <ele>755.6</ele>
        <time>2022-10-15 09:36:47</time>
      </trkpt>
      <trkpt lat="38.70337" lon="-0.63602">
        <ele>755.2</ele>
        <time>2022-10-15 09:36:48</time>
      </trkpt>
      <trkpt lat="38.70342" lon="-0.63606">
        <ele>754.6</ele>
        <time>2022-10-15 09:36:49</time>
      </trkpt>
      <trkpt lat="38.70347" lon="-0.6361">
        <ele>754.2</ele>
        <time>2022-10-15 09:36:50</time>
      </trkpt>
      <trkpt lat="38.70352" lon="-0.63615">
        <ele>754</ele>
        <time>2022-10-15 09:36:51</time>
      </trkpt>
      <trkpt lat="38.70358" lon="-0.6362">
        <ele>753.8</ele>
        <time>2022-10-15 09:36:52</time>
      </trkpt>
      <trkpt lat="38.70363" lon="-0.63625">
        <ele>753.6</ele>
        <time>2022-10-15 09:36:53</time>
      </trkpt>
      <trkpt lat="38.70368" lon="-0.6363">
        <ele>753.2</ele>
        <time>2022-10-15 09:36:54</time>
      </trkpt>
      <trkpt lat="38.70373" lon="-0.63636">
        <ele>752.6</ele>
        <time>2022-10-15 09:36:55</time>
      </trkpt>
      <trkpt lat="38.70378" lon="-0.63641">
        <ele>752.2</ele>
        <time>2022-10-15 09:36:56</time>
      </trkpt>
      <trkpt lat="38.70383" lon="-0.63646">
        <ele>751.8</ele>
        <time>2022-10-15 09:36:57</time>
      </trkpt>
      <trkpt lat="38.70388" lon="-0.63651">
        <ele>751.2</ele>
        <time>2022-10-15 09:36:58</time>
      </trkpt>
      <trkpt lat="38.70393" lon="-0.63657">
        <ele>750.8</ele>
        <time>2022-10-15 09:36:59</time>
      </trkpt>
      <trkpt lat="38.70398" lon="-0.63661">
        <ele>750.2</ele>
        <time>2022-10-15 09:37:00</time>
      </trkpt>
      <trkpt lat="38.70403" lon="-0.63666">
        <ele>749.6</ele>
        <time>2022-10-15 09:37:01</time>
      </trkpt>
      <trkpt lat="38.70409" lon="-0.63671">
        <ele>749.2</ele>
        <time>2022-10-15 09:37:02</time>
      </trkpt>
      <trkpt lat="38.70414" lon="-0.63677">
        <ele>748.6</ele>
        <time>2022-10-15 09:37:03</time>
      </trkpt>
      <trkpt lat="38.7042" lon="-0.63682">
        <ele>748.2</ele>
        <time>2022-10-15 09:37:04</time>
      </trkpt>
      <trkpt lat="38.70426" lon="-0.63687">
        <ele>747.6</ele>
        <time>2022-10-15 09:37:05</time>
      </trkpt>
      <trkpt lat="38.70432" lon="-0.63692">
        <ele>747</ele>
        <time>2022-10-15 09:37:06</time>
      </trkpt>
      <trkpt lat="38.70437" lon="-0.63696">
        <ele>746.6</ele>
        <time>2022-10-15 09:37:07</time>
      </trkpt>
      <trkpt lat="38.70443" lon="-0.63701">
        <ele>746.2</ele>
        <time>2022-10-15 09:37:08</time>
      </trkpt>
      <trkpt lat="38.70449" lon="-0.63706">
        <ele>745.8</ele>
        <time>2022-10-15 09:37:09</time>
      </trkpt>
      <trkpt lat="38.70455" lon="-0.6371">
        <ele>745.2</ele>
        <time>2022-10-15 09:37:10</time>
      </trkpt>
      <trkpt lat="38.70461" lon="-0.63714">
        <ele>744.6</ele>
        <time>2022-10-15 09:37:11</time>
      </trkpt>
      <trkpt lat="38.70467" lon="-0.63719">
        <ele>744</ele>
        <time>2022-10-15 09:37:12</time>
      </trkpt>
      <trkpt lat="38.70473" lon="-0.63723">
        <ele>743.4</ele>
        <time>2022-10-15 09:37:13</time>
      </trkpt>
      <trkpt lat="38.70479" lon="-0.63727">
        <ele>742.8</ele>
        <time>2022-10-15 09:37:14</time>
      </trkpt>
      <trkpt lat="38.70484" lon="-0.63731">
        <ele>742.4</ele>
        <time>2022-10-15 09:37:15</time>
      </trkpt>
      <trkpt lat="38.70488" lon="-0.63736">
        <ele>741.4</ele>
        <time>2022-10-15 09:37:16</time>
      </trkpt>
      <trkpt lat="38.70492" lon="-0.6374">
        <ele>741</ele>
        <time>2022-10-15 09:37:17</time>
      </trkpt>
      <trkpt lat="38.70495" lon="-0.63745">
        <ele>740.6</ele>
        <time>2022-10-15 09:37:18</time>
      </trkpt>
      <trkpt lat="38.70497" lon="-0.6375">
        <ele>740.2</ele>
        <time>2022-10-15 09:37:19</time>
      </trkpt>
      <trkpt lat="38.705" lon="-0.63756">
        <ele>739.6</ele>
        <time>2022-10-15 09:37:20</time>
      </trkpt>
      <trkpt lat="38.70501" lon="-0.63761">
        <ele>739.4</ele>
        <time>2022-10-15 09:37:21</time>
      </trkpt>
      <trkpt lat="38.70503" lon="-0.63766">
        <ele>739.2</ele>
        <time>2022-10-15 09:37:22</time>
      </trkpt>
      <trkpt lat="38.70505" lon="-0.6377">
        <ele>739</ele>
        <time>2022-10-15 09:37:23</time>
      </trkpt>
      <trkpt lat="38.70507" lon="-0.63774">
        <ele>738.8</ele>
        <time>2022-10-15 09:37:24</time>
      </trkpt>
      <trkpt lat="38.7051" lon="-0.63778">
        <ele>738.4</ele>
        <time>2022-10-15 09:37:25</time>
      </trkpt>
      <trkpt lat="38.70513" lon="-0.63782">
        <ele>738.2</ele>
        <time>2022-10-15 09:37:26</time>
      </trkpt>
      <trkpt lat="38.70516" lon="-0.63786">
        <ele>738</ele>
        <time>2022-10-15 09:37:27</time>
      </trkpt>
      <trkpt lat="38.70518" lon="-0.63789">
        <ele>737.8</ele>
        <time>2022-10-15 09:37:28</time>
      </trkpt>
      <trkpt lat="38.7052" lon="-0.63791">
        <ele>737.4</ele>
        <time>2022-10-15 09:37:29</time>
      </trkpt>
      <trkpt lat="38.70522" lon="-0.63793">
        <ele>737.2</ele>
        <time>2022-10-15 09:37:30</time>
      </trkpt>
      <trkpt lat="38.70525" lon="-0.63795">
        <ele>737</ele>
        <time>2022-10-15 09:37:31</time>
      </trkpt>
      <trkpt lat="38.70528" lon="-0.63796">
        <ele>736.8</ele>
        <time>2022-10-15 09:37:32</time>
      </trkpt>
      <trkpt lat="38.70531" lon="-0.63797">
        <ele>736.4</ele>
        <time>2022-10-15 09:37:33</time>
      </trkpt>
      <trkpt lat="38.70533" lon="-0.63797">
        <ele>736.2</ele>
        <time>2022-10-15 09:37:34</time>
      </trkpt>
      <trkpt lat="38.70536" lon="-0.63797">
        <ele>736</ele>
        <time>2022-10-15 09:37:35</time>
      </trkpt>
      <trkpt lat="38.70538" lon="-0.63796">
        <ele>735.8</ele>
        <time>2022-10-15 09:37:36</time>
      </trkpt>
      <trkpt lat="38.70541" lon="-0.63795">
        <ele>735.6</ele>
        <time>2022-10-15 09:37:37</time>
      </trkpt>
      <trkpt lat="38.70543" lon="-0.63795">
        <ele>735.4</ele>
        <time>2022-10-15 09:37:38</time>
      </trkpt>
      <trkpt lat="38.70545" lon="-0.63795">
        <ele>735.2</ele>
        <time>2022-10-15 09:37:39</time>
      </trkpt>
      <trkpt lat="38.70547" lon="-0.63795">
        <ele>735</ele>
        <time>2022-10-15 09:37:40</time>
      </trkpt>
      <trkpt lat="38.70548" lon="-0.63795">
        <ele>734.8</ele>
        <time>2022-10-15 09:37:41</time>
      </trkpt>
      <trkpt lat="38.70549" lon="-0.63795">
        <ele>734.6</ele>
        <time>2022-10-15 09:37:42</time>
      </trkpt>
      <trkpt lat="38.70551" lon="-0.63796">
        <ele>734.4</ele>
        <time>2022-10-15 09:37:43</time>
      </trkpt>
      <trkpt lat="38.70552" lon="-0.63796">
        <ele>734</ele>
        <time>2022-10-15 09:37:44</time>
      </trkpt>
      <trkpt lat="38.70553" lon="-0.63797">
        <ele>733.8</ele>
        <time>2022-10-15 09:37:45</time>
      </trkpt>
      <trkpt lat="38.70554" lon="-0.63799">
        <ele>733.6</ele>
        <time>2022-10-15 09:37:46</time>
      </trkpt>
      <trkpt lat="38.70555" lon="-0.638">
        <ele>733.4</ele>
        <time>2022-10-15 09:37:47</time>
      </trkpt>
      <trkpt lat="38.70556" lon="-0.63802">
        <ele>733.2</ele>
        <time>2022-10-15 09:37:48</time>
      </trkpt>
      <trkpt lat="38.70557" lon="-0.63803">
        <ele>733</ele>
        <time>2022-10-15 09:37:49</time>
      </trkpt>
      <trkpt lat="38.70557" lon="-0.63805">
        <ele>733</ele>
        <time>2022-10-15 09:37:50</time>
      </trkpt>
      <trkpt lat="38.70558" lon="-0.63806">
        <ele>732.8</ele>
        <time>2022-10-15 09:37:51</time>
      </trkpt>
      <trkpt lat="38.70559" lon="-0.63807">
        <ele>732.6</ele>
        <time>2022-10-15 09:37:52</time>
      </trkpt>
      <trkpt lat="38.7056" lon="-0.63808">
        <ele>732.4</ele>
        <time>2022-10-15 09:37:53</time>
      </trkpt>
      <trkpt lat="38.7056" lon="-0.6381">
        <ele>732.4</ele>
        <time>2022-10-15 09:37:54</time>
      </trkpt>
      <trkpt lat="38.70561" lon="-0.63811">
        <ele>732.2</ele>
        <time>2022-10-15 09:37:55</time>
      </trkpt>
      <trkpt lat="38.70561" lon="-0.63814">
        <ele>732</ele>
        <time>2022-10-15 09:37:56</time>
      </trkpt>
      <trkpt lat="38.70562" lon="-0.63816">
        <ele>731.8</ele>
        <time>2022-10-15 09:37:57</time>
      </trkpt>
      <trkpt lat="38.70562" lon="-0.63819">
        <ele>731.6</ele>
        <time>2022-10-15 09:37:58</time>
      </trkpt>
      <trkpt lat="38.70563" lon="-0.63821">
        <ele>731.6</ele>
        <time>2022-10-15 09:37:59</time>
      </trkpt>
      <trkpt lat="38.70563" lon="-0.63824">
        <ele>731.4</ele>
        <time>2022-10-15 09:38:00</time>
      </trkpt>
      <trkpt lat="38.70563" lon="-0.63827">
        <ele>731.4</ele>
        <time>2022-10-15 09:38:01</time>
      </trkpt>
      <trkpt lat="38.70564" lon="-0.6383">
        <ele>731.4</ele>
        <time>2022-10-15 09:38:02</time>
      </trkpt>
      <trkpt lat="38.70564" lon="-0.63833">
        <ele>731.2</ele>
        <time>2022-10-15 09:38:03</time>
      </trkpt>
      <trkpt lat="38.70565" lon="-0.63836">
        <ele>731</ele>
        <time>2022-10-15 09:38:04</time>
      </trkpt>
      <trkpt lat="38.70565" lon="-0.63839">
        <ele>730.8</ele>
        <time>2022-10-15 09:38:05</time>
      </trkpt>
      <trkpt lat="38.70564" lon="-0.63841">
        <ele>730.6</ele>
        <time>2022-10-15 09:38:06</time>
      </trkpt>
      <trkpt lat="38.70564" lon="-0.63844">
        <ele>730.6</ele>
        <time>2022-10-15 09:38:07</time>
      </trkpt>
      <trkpt lat="38.70564" lon="-0.63848">
        <ele>730.6</ele>
        <time>2022-10-15 09:38:08</time>
      </trkpt>
      <trkpt lat="38.70563" lon="-0.63851">
        <ele>730.6</ele>
        <time>2022-10-15 09:38:09</time>
      </trkpt>
      <trkpt lat="38.70562" lon="-0.63854">
        <ele>730.6</ele>
        <time>2022-10-15 09:38:10</time>
      </trkpt>
      <trkpt lat="38.70561" lon="-0.63857">
        <ele>730.6</ele>
        <time>2022-10-15 09:38:11</time>
      </trkpt>
      <trkpt lat="38.7056" lon="-0.6386">
        <ele>730.6</ele>
        <time>2022-10-15 09:38:12</time>
      </trkpt>
      <trkpt lat="38.70559" lon="-0.63862">
        <ele>730.6</ele>
        <time>2022-10-15 09:38:13</time>
      </trkpt>
      <trkpt lat="38.70557" lon="-0.63865">
        <ele>730.6</ele>
        <time>2022-10-15 09:38:14</time>
      </trkpt>
      <trkpt lat="38.70556" lon="-0.63868">
        <ele>730.6</ele>
        <time>2022-10-15 09:38:15</time>
      </trkpt>
      <trkpt lat="38.70555" lon="-0.6387">
        <ele>730.4</ele>
        <time>2022-10-15 09:38:16</time>
      </trkpt>
      <trkpt lat="38.70554" lon="-0.63873">
        <ele>730.4</ele>
        <time>2022-10-15 09:38:17</time>
      </trkpt>
      <trkpt lat="38.70552" lon="-0.63876">
        <ele>730.4</ele>
        <time>2022-10-15 09:38:18</time>
      </trkpt>
      <trkpt lat="38.70551" lon="-0.63879">
        <ele>730.4</ele>
        <time>2022-10-15 09:38:19</time>
      </trkpt>
      <trkpt lat="38.70549" lon="-0.63883">
        <ele>730.4</ele>
        <time>2022-10-15 09:38:20</time>
      </trkpt>
      <trkpt lat="38.70548" lon="-0.63886">
        <ele>730.4</ele>
        <time>2022-10-15 09:38:21</time>
      </trkpt>
      <trkpt lat="38.70547" lon="-0.63891">
        <ele>730.4</ele>
        <time>2022-10-15 09:38:22</time>
      </trkpt>
      <trkpt lat="38.70545" lon="-0.63895">
        <ele>730.4</ele>
        <time>2022-10-15 09:38:23</time>
      </trkpt>
      <trkpt lat="38.70544" lon="-0.63899">
        <ele>730.4</ele>
        <time>2022-10-15 09:38:24</time>
      </trkpt>
      <trkpt lat="38.70542" lon="-0.63903">
        <ele>730.4</ele>
        <time>2022-10-15 09:38:25</time>
      </trkpt>
      <trkpt lat="38.70541" lon="-0.63907">
        <ele>730.2</ele>
        <time>2022-10-15 09:38:26</time>
      </trkpt>
      <trkpt lat="38.7054" lon="-0.6391">
        <ele>730.2</ele>
        <time>2022-10-15 09:38:27</time>
      </trkpt>
      <trkpt lat="38.70539" lon="-0.63913">
        <ele>730</ele>
        <time>2022-10-15 09:38:28</time>
      </trkpt>
      <trkpt lat="38.70538" lon="-0.63916">
        <ele>729.8</ele>
        <time>2022-10-15 09:38:29</time>
      </trkpt>
      <trkpt lat="38.70537" lon="-0.63919">
        <ele>729.4</ele>
        <time>2022-10-15 09:38:30</time>
      </trkpt>
      <trkpt lat="38.70537" lon="-0.63922">
        <ele>729.2</ele>
        <time>2022-10-15 09:38:31</time>
      </trkpt>
      <trkpt lat="38.70536" lon="-0.63926">
        <ele>729</ele>
        <time>2022-10-15 09:38:32</time>
      </trkpt>
      <trkpt lat="38.70536" lon="-0.63929">
        <ele>729</ele>
        <time>2022-10-15 09:38:33</time>
      </trkpt>
      <trkpt lat="38.70536" lon="-0.63933">
        <ele>728.8</ele>
        <time>2022-10-15 09:38:34</time>
      </trkpt>
      <trkpt lat="38.70536" lon="-0.63937">
        <ele>728.8</ele>
        <time>2022-10-15 09:38:35</time>
      </trkpt>
      <trkpt lat="38.70536" lon="-0.63941">
        <ele>728.6</ele>
        <time>2022-10-15 09:38:36</time>
      </trkpt>
      <trkpt lat="38.70536" lon="-0.63945">
        <ele>728.4</ele>
        <time>2022-10-15 09:38:37</time>
      </trkpt>
      <trkpt lat="38.70536" lon="-0.63949">
        <ele>728</ele>
        <time>2022-10-15 09:38:38</time>
      </trkpt>
      <trkpt lat="38.70536" lon="-0.63952">
        <ele>727.2</ele>
        <time>2022-10-15 09:38:39</time>
      </trkpt>
      <trkpt lat="38.70536" lon="-0.63956">
        <ele>727</ele>
        <time>2022-10-15 09:38:40</time>
      </trkpt>
      <trkpt lat="38.70536" lon="-0.6396">
        <ele>726.8</ele>
        <time>2022-10-15 09:38:41</time>
      </trkpt>
      <trkpt lat="38.70535" lon="-0.63964">
        <ele>726.6</ele>
        <time>2022-10-15 09:38:42</time>
      </trkpt>
      <trkpt lat="38.70535" lon="-0.63967">
        <ele>726.4</ele>
        <time>2022-10-15 09:38:43</time>
      </trkpt>
      <trkpt lat="38.70534" lon="-0.63971">
        <ele>726</ele>
        <time>2022-10-15 09:38:44</time>
      </trkpt>
      <trkpt lat="38.70534" lon="-0.63975">
        <ele>726</ele>
        <time>2022-10-15 09:38:45</time>
      </trkpt>
      <trkpt lat="38.70533" lon="-0.63979">
        <ele>725.6</ele>
        <time>2022-10-15 09:38:46</time>
      </trkpt>
      <trkpt lat="38.70532" lon="-0.63983">
        <ele>725.4</ele>
        <time>2022-10-15 09:38:47</time>
      </trkpt>
      <trkpt lat="38.70531" lon="-0.63987">
        <ele>725.2</ele>
        <time>2022-10-15 09:38:48</time>
      </trkpt>
      <trkpt lat="38.70529" lon="-0.6399">
        <ele>725</ele>
        <time>2022-10-15 09:38:49</time>
      </trkpt>
      <trkpt lat="38.70528" lon="-0.63994">
        <ele>724.8</ele>
        <time>2022-10-15 09:38:50</time>
      </trkpt>
      <trkpt lat="38.70527" lon="-0.63998">
        <ele>724.6</ele>
        <time>2022-10-15 09:38:51</time>
      </trkpt>
      <trkpt lat="38.70526" lon="-0.64002">
        <ele>724.2</ele>
        <time>2022-10-15 09:38:52</time>
      </trkpt>
      <trkpt lat="38.70525" lon="-0.64006">
        <ele>724</ele>
        <time>2022-10-15 09:38:53</time>
      </trkpt>
      <trkpt lat="38.70524" lon="-0.64009">
        <ele>723.6</ele>
        <time>2022-10-15 09:38:54</time>
      </trkpt>
      <trkpt lat="38.70524" lon="-0.64013">
        <ele>723.4</ele>
        <time>2022-10-15 09:38:55</time>
      </trkpt>
      <trkpt lat="38.70523" lon="-0.64017">
        <ele>723.2</ele>
        <time>2022-10-15 09:38:56</time>
      </trkpt>
      <trkpt lat="38.70523" lon="-0.64022">
        <ele>723</ele>
        <time>2022-10-15 09:38:57</time>
      </trkpt>
      <trkpt lat="38.70522" lon="-0.64026">
        <ele>722.8</ele>
        <time>2022-10-15 09:38:58</time>
      </trkpt>
      <trkpt lat="38.70521" lon="-0.6403">
        <ele>722.6</ele>
        <time>2022-10-15 09:38:59</time>
      </trkpt>
      <trkpt lat="38.70519" lon="-0.64033">
        <ele>722.4</ele>
        <time>2022-10-15 09:39:00</time>
      </trkpt>
      <trkpt lat="38.70518" lon="-0.64037">
        <ele>722.4</ele>
        <time>2022-10-15 09:39:01</time>
      </trkpt>
      <trkpt lat="38.70517" lon="-0.64041">
        <ele>722</ele>
        <time>2022-10-15 09:39:02</time>
      </trkpt>
      <trkpt lat="38.70515" lon="-0.64044">
        <ele>721.8</ele>
        <time>2022-10-15 09:39:03</time>
      </trkpt>
      <trkpt lat="38.70514" lon="-0.64048">
        <ele>721.8</ele>
        <time>2022-10-15 09:39:04</time>
      </trkpt>
      <trkpt lat="38.70512" lon="-0.64051">
        <ele>721.6</ele>
        <time>2022-10-15 09:39:05</time>
      </trkpt>
      <trkpt lat="38.70511" lon="-0.64054">
        <ele>721.6</ele>
        <time>2022-10-15 09:39:06</time>
      </trkpt>
      <trkpt lat="38.70509" lon="-0.64057">
        <ele>721.6</ele>
        <time>2022-10-15 09:39:07</time>
      </trkpt>
      <trkpt lat="38.70508" lon="-0.64059">
        <ele>721.6</ele>
        <time>2022-10-15 09:39:08</time>
      </trkpt>
      <trkpt lat="38.70506" lon="-0.64062">
        <ele>721.4</ele>
        <time>2022-10-15 09:39:09</time>
      </trkpt>
      <trkpt lat="38.70505" lon="-0.64064">
        <ele>721.4</ele>
        <time>2022-10-15 09:39:10</time>
      </trkpt>
      <trkpt lat="38.70503" lon="-0.64066">
        <ele>721.4</ele>
        <time>2022-10-15 09:39:11</time>
      </trkpt>
      <trkpt lat="38.70502" lon="-0.64069">
        <ele>721.4</ele>
        <time>2022-10-15 09:39:12</time>
      </trkpt>
      <trkpt lat="38.705" lon="-0.64071">
        <ele>721.4</ele>
        <time>2022-10-15 09:39:13</time>
      </trkpt>
      <trkpt lat="38.70498" lon="-0.64073">
        <ele>721.4</ele>
        <time>2022-10-15 09:39:14</time>
      </trkpt>
      <trkpt lat="38.70497" lon="-0.64075">
        <ele>721.4</ele>
        <time>2022-10-15 09:39:15</time>
      </trkpt>
      <trkpt lat="38.70496" lon="-0.64076">
        <ele>721.4</ele>
        <time>2022-10-15 09:39:16</time>
      </trkpt>
      <trkpt lat="38.70495" lon="-0.64078">
        <ele>721.4</ele>
        <time>2022-10-15 09:39:17</time>
      </trkpt>
      <trkpt lat="38.70494" lon="-0.64079">
        <ele>721.4</ele>
        <time>2022-10-15 09:39:18</time>
      </trkpt>
      <trkpt lat="38.70493" lon="-0.6408">
        <ele>721.4</ele>
        <time>2022-10-15 09:39:19</time>
      </trkpt>
      <trkpt lat="38.70492" lon="-0.64081">
        <ele>721.4</ele>
        <time>2022-10-15 09:39:20</time>
      </trkpt>
      <trkpt lat="38.70491" lon="-0.64082">
        <ele>721.4</ele>
        <time>2022-10-15 09:39:21</time>
      </trkpt>
      <trkpt lat="38.7049" lon="-0.64083">
        <ele>721.4</ele>
        <time>2022-10-15 09:39:22</time>
      </trkpt>
      <trkpt lat="38.70489" lon="-0.64084">
        <ele>721.4</ele>
        <time>2022-10-15 09:39:23</time>
      </trkpt>
      <trkpt lat="38.70488" lon="-0.64085">
        <ele>721.6</ele>
        <time>2022-10-15 09:39:24</time>
      </trkpt>
      <trkpt lat="38.70487" lon="-0.64086">
        <ele>721.6</ele>
        <time>2022-10-15 09:39:25</time>
      </trkpt>
      <trkpt lat="38.70485" lon="-0.64088">
        <ele>721.6</ele>
        <time>2022-10-15 09:39:26</time>
      </trkpt>
      <trkpt lat="38.70484" lon="-0.64089">
        <ele>721.6</ele>
        <time>2022-10-15 09:39:27</time>
      </trkpt>
      <trkpt lat="38.70483" lon="-0.6409">
        <ele>722</ele>
        <time>2022-10-15 09:39:28</time>
      </trkpt>
      <trkpt lat="38.70481" lon="-0.64092">
        <ele>722</ele>
        <time>2022-10-15 09:39:29</time>
      </trkpt>
      <trkpt lat="38.7048" lon="-0.64094">
        <ele>722</ele>
        <time>2022-10-15 09:39:30</time>
      </trkpt>
      <trkpt lat="38.70479" lon="-0.64096">
        <ele>722</ele>
        <time>2022-10-15 09:39:31</time>
      </trkpt>
      <trkpt lat="38.70478" lon="-0.64098">
        <ele>722</ele>
        <time>2022-10-15 09:39:32</time>
      </trkpt>
      <trkpt lat="38.70477" lon="-0.641">
        <ele>722</ele>
        <time>2022-10-15 09:39:33</time>
      </trkpt>
      <trkpt lat="38.70476" lon="-0.64102">
        <ele>722</ele>
        <time>2022-10-15 09:39:34</time>
      </trkpt>
      <trkpt lat="38.70475" lon="-0.64104">
        <ele>722</ele>
        <time>2022-10-15 09:39:35</time>
      </trkpt>
      <trkpt lat="38.70474" lon="-0.64106">
        <ele>722</ele>
        <time>2022-10-15 09:39:36</time>
      </trkpt>
      <trkpt lat="38.70473" lon="-0.64109">
        <ele>722</ele>
        <time>2022-10-15 09:39:37</time>
      </trkpt>
      <trkpt lat="38.70471" lon="-0.64111">
        <ele>722</ele>
        <time>2022-10-15 09:39:38</time>
      </trkpt>
      <trkpt lat="38.7047" lon="-0.64114">
        <ele>722</ele>
        <time>2022-10-15 09:39:39</time>
      </trkpt>
      <trkpt lat="38.70469" lon="-0.64116">
        <ele>722</ele>
        <time>2022-10-15 09:39:40</time>
      </trkpt>
      <trkpt lat="38.70468" lon="-0.64119">
        <ele>722</ele>
        <time>2022-10-15 09:39:41</time>
      </trkpt>
      <trkpt lat="38.70468" lon="-0.64121">
        <ele>722.2</ele>
        <time>2022-10-15 09:39:42</time>
      </trkpt>
      <trkpt lat="38.70467" lon="-0.64124">
        <ele>722.2</ele>
        <time>2022-10-15 09:39:43</time>
      </trkpt>
      <trkpt lat="38.70467" lon="-0.64127">
        <ele>722.2</ele>
        <time>2022-10-15 09:39:44</time>
      </trkpt>
      <trkpt lat="38.70466" lon="-0.64129">
        <ele>722.2</ele>
        <time>2022-10-15 09:39:45</time>
      </trkpt>
      <trkpt lat="38.70466" lon="-0.64132">
        <ele>722.2</ele>
        <time>2022-10-15 09:39:46</time>
      </trkpt>
      <trkpt lat="38.70466" lon="-0.64134">
        <ele>722.2</ele>
        <time>2022-10-15 09:39:47</time>
      </trkpt>
      <trkpt lat="38.70465" lon="-0.64137">
        <ele>722.2</ele>
        <time>2022-10-15 09:39:48</time>
      </trkpt>
      <trkpt lat="38.70465" lon="-0.64139">
        <ele>722.4</ele>
        <time>2022-10-15 09:39:49</time>
      </trkpt>
      <trkpt lat="38.70465" lon="-0.64142">
        <ele>722.4</ele>
        <time>2022-10-15 09:39:50</time>
      </trkpt>
      <trkpt lat="38.70465" lon="-0.64144">
        <ele>722.4</ele>
        <time>2022-10-15 09:39:51</time>
      </trkpt>
      <trkpt lat="38.70466" lon="-0.64147">
        <ele>722.4</ele>
        <time>2022-10-15 09:39:52</time>
      </trkpt>
      <trkpt lat="38.70466" lon="-0.6415">
        <ele>722.6</ele>
        <time>2022-10-15 09:39:53</time>
      </trkpt>
      <trkpt lat="38.70466" lon="-0.64153">
        <ele>722.4</ele>
        <time>2022-10-15 09:39:54</time>
      </trkpt>
      <trkpt lat="38.70467" lon="-0.64156">
        <ele>722.4</ele>
        <time>2022-10-15 09:39:55</time>
      </trkpt>
      <trkpt lat="38.70467" lon="-0.6416">
        <ele>722.4</ele>
        <time>2022-10-15 09:39:56</time>
      </trkpt>
      <trkpt lat="38.70467" lon="-0.64163">
        <ele>722.6</ele>
        <time>2022-10-15 09:39:57</time>
      </trkpt>
      <trkpt lat="38.70467" lon="-0.64166">
        <ele>722.6</ele>
        <time>2022-10-15 09:39:58</time>
      </trkpt>
      <trkpt lat="38.70468" lon="-0.64169">
        <ele>722.6</ele>
        <time>2022-10-15 09:39:59</time>
      </trkpt>
      <trkpt lat="38.70468" lon="-0.64172">
        <ele>722.6</ele>
        <time>2022-10-15 09:40:00</time>
      </trkpt>
      <trkpt lat="38.70468" lon="-0.64174">
        <ele>722.6</ele>
        <time>2022-10-15 09:40:01</time>
      </trkpt>
      <trkpt lat="38.70468" lon="-0.64177">
        <ele>722.6</ele>
        <time>2022-10-15 09:40:02</time>
      </trkpt>
      <trkpt lat="38.70469" lon="-0.6418">
        <ele>722.6</ele>
        <time>2022-10-15 09:40:03</time>
      </trkpt>
      <trkpt lat="38.70469" lon="-0.64183">
        <ele>722.6</ele>
        <time>2022-10-15 09:40:04</time>
      </trkpt>
      <trkpt lat="38.70469" lon="-0.64186">
        <ele>722.6</ele>
        <time>2022-10-15 09:40:05</time>
      </trkpt>
      <trkpt lat="38.70469" lon="-0.64189">
        <ele>722.6</ele>
        <time>2022-10-15 09:40:06</time>
      </trkpt>
      <trkpt lat="38.70469" lon="-0.64193">
        <ele>722.6</ele>
        <time>2022-10-15 09:40:07</time>
      </trkpt>
      <trkpt lat="38.70469" lon="-0.64195">
        <ele>722.4</ele>
        <time>2022-10-15 09:40:08</time>
      </trkpt>
      <trkpt lat="38.7047" lon="-0.64198">
        <ele>722.2</ele>
        <time>2022-10-15 09:40:09</time>
      </trkpt>
      <trkpt lat="38.7047" lon="-0.64201">
        <ele>722</ele>
        <time>2022-10-15 09:40:10</time>
      </trkpt>
      <trkpt lat="38.70469" lon="-0.64204">
        <ele>721.6</ele>
        <time>2022-10-15 09:40:11</time>
      </trkpt>
      <trkpt lat="38.70469" lon="-0.64206">
        <ele>721.2</ele>
        <time>2022-10-15 09:40:12</time>
      </trkpt>
      <trkpt lat="38.70468" lon="-0.64209">
        <ele>721</ele>
        <time>2022-10-15 09:40:13</time>
      </trkpt>
      <trkpt lat="38.70468" lon="-0.64213">
        <ele>720.6</ele>
        <time>2022-10-15 09:40:14</time>
      </trkpt>
      <trkpt lat="38.70467" lon="-0.64216">
        <ele>720.4</ele>
        <time>2022-10-15 09:40:15</time>
      </trkpt>
      <trkpt lat="38.70467" lon="-0.64219">
        <ele>720.2</ele>
        <time>2022-10-15 09:40:16</time>
      </trkpt>
      <trkpt lat="38.70467" lon="-0.64222">
        <ele>719.8</ele>
        <time>2022-10-15 09:40:17</time>
      </trkpt>
      <trkpt lat="38.70467" lon="-0.64223">
        <ele>719.6</ele>
        <time>2022-10-15 09:40:18</time>
      </trkpt>
      <trkpt lat="38.70466" lon="-0.64225">
        <ele>719.4</ele>
        <time>2022-10-15 09:40:19</time>
      </trkpt>
      <trkpt lat="38.70466" lon="-0.64226">
        <ele>719</ele>
        <time>2022-10-15 09:40:20</time>
      </trkpt>
      <trkpt lat="38.70465" lon="-0.64228">
        <ele>718.6</ele>
        <time>2022-10-15 09:40:21</time>
      </trkpt>
      <trkpt lat="38.70464" lon="-0.64229">
        <ele>718.2</ele>
        <time>2022-10-15 09:40:22</time>
      </trkpt>
      <trkpt lat="38.70463" lon="-0.6423">
        <ele>717.6</ele>
        <time>2022-10-15 09:40:23</time>
      </trkpt>
      <trkpt lat="38.70461" lon="-0.64231">
        <ele>717.2</ele>
        <time>2022-10-15 09:40:24</time>
      </trkpt>
      <trkpt lat="38.70459" lon="-0.64233">
        <ele>716.6</ele>
        <time>2022-10-15 09:40:25</time>
      </trkpt>
      <trkpt lat="38.70458" lon="-0.64234">
        <ele>716.4</ele>
        <time>2022-10-15 09:40:26</time>
      </trkpt>
      <trkpt lat="38.70456" lon="-0.64235">
        <ele>716</ele>
        <time>2022-10-15 09:40:27</time>
      </trkpt>
      <trkpt lat="38.70454" lon="-0.64236">
        <ele>715.8</ele>
        <time>2022-10-15 09:40:28</time>
      </trkpt>
      <trkpt lat="38.70452" lon="-0.64236">
        <ele>715.6</ele>
        <time>2022-10-15 09:40:29</time>
      </trkpt>
      <trkpt lat="38.7045" lon="-0.64237">
        <ele>715</ele>
        <time>2022-10-15 09:40:30</time>
      </trkpt>
      <trkpt lat="38.70449" lon="-0.64238">
        <ele>714.8</ele>
        <time>2022-10-15 09:40:31</time>
      </trkpt>
      <trkpt lat="38.70447" lon="-0.6424">
        <ele>714.4</ele>
        <time>2022-10-15 09:40:32</time>
      </trkpt>
      <trkpt lat="38.70446" lon="-0.64241">
        <ele>714</ele>
        <time>2022-10-15 09:40:33</time>
      </trkpt>
      <trkpt lat="38.70446" lon="-0.64243">
        <ele>713.6</ele>
        <time>2022-10-15 09:40:34</time>
      </trkpt>
      <trkpt lat="38.70447" lon="-0.64245">
        <ele>713.2</ele>
        <time>2022-10-15 09:40:35</time>
      </trkpt>
      <trkpt lat="38.70448" lon="-0.64248">
        <ele>712.8</ele>
        <time>2022-10-15 09:40:36</time>
      </trkpt>
      <trkpt lat="38.70449" lon="-0.64249">
        <ele>712.6</ele>
        <time>2022-10-15 09:40:37</time>
      </trkpt>
      <trkpt lat="38.7045" lon="-0.64251">
        <ele>712.4</ele>
        <time>2022-10-15 09:40:38</time>
      </trkpt>
      <trkpt lat="38.70451" lon="-0.64252">
        <ele>712.2</ele>
        <time>2022-10-15 09:40:39</time>
      </trkpt>
      <trkpt lat="38.70452" lon="-0.64253">
        <ele>711.8</ele>
        <time>2022-10-15 09:40:40</time>
      </trkpt>
      <trkpt lat="38.70453" lon="-0.64254">
        <ele>711.6</ele>
        <time>2022-10-15 09:40:41</time>
      </trkpt>
      <trkpt lat="38.70454" lon="-0.64255">
        <ele>711.4</ele>
        <time>2022-10-15 09:40:42</time>
      </trkpt>
      <trkpt lat="38.70455" lon="-0.64256">
        <ele>710.8</ele>
        <time>2022-10-15 09:40:43</time>
      </trkpt>
      <trkpt lat="38.70457" lon="-0.64257">
        <ele>710.4</ele>
        <time>2022-10-15 09:40:44</time>
      </trkpt>
      <trkpt lat="38.70458" lon="-0.64258">
        <ele>710.2</ele>
        <time>2022-10-15 09:40:45</time>
      </trkpt>
      <trkpt lat="38.7046" lon="-0.64258">
        <ele>710</ele>
        <time>2022-10-15 09:40:46</time>
      </trkpt>
      <trkpt lat="38.70462" lon="-0.64258">
        <ele>709.6</ele>
        <time>2022-10-15 09:40:47</time>
      </trkpt>
      <trkpt lat="38.70463" lon="-0.64259">
        <ele>709.2</ele>
        <time>2022-10-15 09:40:48</time>
      </trkpt>
      <trkpt lat="38.70465" lon="-0.6426">
        <ele>709</ele>
        <time>2022-10-15 09:40:49</time>
      </trkpt>
      <trkpt lat="38.70468" lon="-0.64262">
        <ele>709</ele>
        <time>2022-10-15 09:40:50</time>
      </trkpt>
      <trkpt lat="38.7047" lon="-0.64263">
        <ele>708.8</ele>
        <time>2022-10-15 09:40:51</time>
      </trkpt>
      <trkpt lat="38.70473" lon="-0.64265">
        <ele>708.4</ele>
        <time>2022-10-15 09:40:52</time>
      </trkpt>
      <trkpt lat="38.70475" lon="-0.64266">
        <ele>708.4</ele>
        <time>2022-10-15 09:40:53</time>
      </trkpt>
      <trkpt lat="38.70478" lon="-0.64268">
        <ele>708</ele>
        <time>2022-10-15 09:40:54</time>
      </trkpt>
      <trkpt lat="38.7048" lon="-0.6427">
        <ele>707.8</ele>
        <time>2022-10-15 09:40:55</time>
      </trkpt>
      <trkpt lat="38.70482" lon="-0.64273">
        <ele>707.8</ele>
        <time>2022-10-15 09:40:56</time>
      </trkpt>
      <trkpt lat="38.70484" lon="-0.64275">
        <ele>707.8</ele>
        <time>2022-10-15 09:40:57</time>
      </trkpt>
      <trkpt lat="38.70485" lon="-0.64278">
        <ele>707.4</ele>
        <time>2022-10-15 09:40:58</time>
      </trkpt>
      <trkpt lat="38.70487" lon="-0.64281">
        <ele>707.4</ele>
        <time>2022-10-15 09:40:59</time>
      </trkpt>
      <trkpt lat="38.70489" lon="-0.64283">
        <ele>707.2</ele>
        <time>2022-10-15 09:41:00</time>
      </trkpt>
      <trkpt lat="38.70491" lon="-0.64285">
        <ele>707.2</ele>
        <time>2022-10-15 09:41:01</time>
      </trkpt>
      <trkpt lat="38.70493" lon="-0.64287">
        <ele>707</ele>
        <time>2022-10-15 09:41:02</time>
      </trkpt>
      <trkpt lat="38.70495" lon="-0.6429">
        <ele>707</ele>
        <time>2022-10-15 09:41:03</time>
      </trkpt>
      <trkpt lat="38.70496" lon="-0.64292">
        <ele>706.8</ele>
        <time>2022-10-15 09:41:04</time>
      </trkpt>
      <trkpt lat="38.70498" lon="-0.64295">
        <ele>706.8</ele>
        <time>2022-10-15 09:41:05</time>
      </trkpt>
      <trkpt lat="38.705" lon="-0.64298">
        <ele>706.8</ele>
        <time>2022-10-15 09:41:06</time>
      </trkpt>
      <trkpt lat="38.70502" lon="-0.64301">
        <ele>706.8</ele>
        <time>2022-10-15 09:41:07</time>
      </trkpt>
      <trkpt lat="38.70504" lon="-0.64304">
        <ele>706.8</ele>
        <time>2022-10-15 09:41:08</time>
      </trkpt>
      <trkpt lat="38.70505" lon="-0.64306">
        <ele>706.8</ele>
        <time>2022-10-15 09:41:09</time>
      </trkpt>
      <trkpt lat="38.70506" lon="-0.64309">
        <ele>706.8</ele>
        <time>2022-10-15 09:41:10</time>
      </trkpt>
      <trkpt lat="38.70507" lon="-0.64313">
        <ele>706.8</ele>
        <time>2022-10-15 09:41:11</time>
      </trkpt>
      <trkpt lat="38.70508" lon="-0.64316">
        <ele>706.8</ele>
        <time>2022-10-15 09:41:12</time>
      </trkpt>
      <trkpt lat="38.70509" lon="-0.64319">
        <ele>706.8</ele>
        <time>2022-10-15 09:41:13</time>
      </trkpt>
      <trkpt lat="38.70511" lon="-0.64321">
        <ele>706.8</ele>
        <time>2022-10-15 09:41:14</time>
      </trkpt>
      <trkpt lat="38.70513" lon="-0.64324">
        <ele>706.8</ele>
        <time>2022-10-15 09:41:15</time>
      </trkpt>
      <trkpt lat="38.70514" lon="-0.64327">
        <ele>707</ele>
        <time>2022-10-15 09:41:16</time>
      </trkpt>
      <trkpt lat="38.70516" lon="-0.64329">
        <ele>707</ele>
        <time>2022-10-15 09:41:17</time>
      </trkpt>
      <trkpt lat="38.70517" lon="-0.64333">
        <ele>707.2</ele>
        <time>2022-10-15 09:41:18</time>
      </trkpt>
      <trkpt lat="38.70518" lon="-0.64336">
        <ele>707.2</ele>
        <time>2022-10-15 09:41:19</time>
      </trkpt>
      <trkpt lat="38.70519" lon="-0.64341">
        <ele>707.4</ele>
        <time>2022-10-15 09:41:20</time>
      </trkpt>
      <trkpt lat="38.70519" lon="-0.64346">
        <ele>707.6</ele>
        <time>2022-10-15 09:41:21</time>
      </trkpt>
      <trkpt lat="38.7052" lon="-0.64351">
        <ele>707.8</ele>
        <time>2022-10-15 09:41:22</time>
      </trkpt>
      <trkpt lat="38.7052" lon="-0.64356">
        <ele>707.8</ele>
        <time>2022-10-15 09:41:23</time>
      </trkpt>
      <trkpt lat="38.70521" lon="-0.6436">
        <ele>708</ele>
        <time>2022-10-15 09:41:24</time>
      </trkpt>
      <trkpt lat="38.70521" lon="-0.64364">
        <ele>708.2</ele>
        <time>2022-10-15 09:41:25</time>
      </trkpt>
      <trkpt lat="38.70521" lon="-0.64368">
        <ele>708.4</ele>
        <time>2022-10-15 09:41:26</time>
      </trkpt>
      <trkpt lat="38.70521" lon="-0.64373">
        <ele>708.6</ele>
        <time>2022-10-15 09:41:27</time>
      </trkpt>
      <trkpt lat="38.70521" lon="-0.64378">
        <ele>708.8</ele>
        <time>2022-10-15 09:41:28</time>
      </trkpt>
      <trkpt lat="38.70521" lon="-0.64383">
        <ele>708.8</ele>
        <time>2022-10-15 09:41:29</time>
      </trkpt>
      <trkpt lat="38.70522" lon="-0.64388">
        <ele>708.8</ele>
        <time>2022-10-15 09:41:30</time>
      </trkpt>
      <trkpt lat="38.70522" lon="-0.64393">
        <ele>709</ele>
        <time>2022-10-15 09:41:31</time>
      </trkpt>
      <trkpt lat="38.70522" lon="-0.64398">
        <ele>709</ele>
        <time>2022-10-15 09:41:32</time>
      </trkpt>
      <trkpt lat="38.70522" lon="-0.64403">
        <ele>709.2</ele>
        <time>2022-10-15 09:41:33</time>
      </trkpt>
      <trkpt lat="38.70522" lon="-0.64408">
        <ele>709.2</ele>
        <time>2022-10-15 09:41:34</time>
      </trkpt>
      <trkpt lat="38.70522" lon="-0.64413">
        <ele>709.2</ele>
        <time>2022-10-15 09:41:35</time>
      </trkpt>
      <trkpt lat="38.70521" lon="-0.64418">
        <ele>709.2</ele>
        <time>2022-10-15 09:41:36</time>
      </trkpt>
      <trkpt lat="38.70521" lon="-0.64422">
        <ele>709.4</ele>
        <time>2022-10-15 09:41:37</time>
      </trkpt>
      <trkpt lat="38.7052" lon="-0.64426">
        <ele>709.4</ele>
        <time>2022-10-15 09:41:38</time>
      </trkpt>
      <trkpt lat="38.70519" lon="-0.6443">
        <ele>709.4</ele>
        <time>2022-10-15 09:41:39</time>
      </trkpt>
      <trkpt lat="38.70517" lon="-0.64435">
        <ele>709.4</ele>
        <time>2022-10-15 09:41:40</time>
      </trkpt>
      <trkpt lat="38.70516" lon="-0.6444">
        <ele>709.4</ele>
        <time>2022-10-15 09:41:41</time>
      </trkpt>
      <trkpt lat="38.70514" lon="-0.64444">
        <ele>709.6</ele>
        <time>2022-10-15 09:41:42</time>
      </trkpt>
      <trkpt lat="38.70512" lon="-0.64448">
        <ele>709.6</ele>
        <time>2022-10-15 09:41:43</time>
      </trkpt>
      <trkpt lat="38.70509" lon="-0.64453">
        <ele>709.6</ele>
        <time>2022-10-15 09:41:44</time>
      </trkpt>
      <trkpt lat="38.70507" lon="-0.64457">
        <ele>709.8</ele>
        <time>2022-10-15 09:41:45</time>
      </trkpt>
      <trkpt lat="38.70504" lon="-0.64461">
        <ele>709.8</ele>
        <time>2022-10-15 09:41:46</time>
      </trkpt>
      <trkpt lat="38.70501" lon="-0.64465">
        <ele>709.8</ele>
        <time>2022-10-15 09:41:47</time>
      </trkpt>
      <trkpt lat="38.70498" lon="-0.64469">
        <ele>709.8</ele>
        <time>2022-10-15 09:41:48</time>
      </trkpt>
      <trkpt lat="38.70495" lon="-0.64474">
        <ele>710</ele>
        <time>2022-10-15 09:41:49</time>
      </trkpt>
      <trkpt lat="38.70492" lon="-0.64478">
        <ele>710</ele>
        <time>2022-10-15 09:41:50</time>
      </trkpt>
      <trkpt lat="38.7049" lon="-0.64482">
        <ele>710</ele>
        <time>2022-10-15 09:41:51</time>
      </trkpt>
      <trkpt lat="38.70486" lon="-0.64486">
        <ele>710</ele>
        <time>2022-10-15 09:41:52</time>
      </trkpt>
      <trkpt lat="38.70483" lon="-0.64489">
        <ele>710.2</ele>
        <time>2022-10-15 09:41:53</time>
      </trkpt>
      <trkpt lat="38.7048" lon="-0.64492">
        <ele>710.2</ele>
        <time>2022-10-15 09:41:54</time>
      </trkpt>
      <trkpt lat="38.70477" lon="-0.64494">
        <ele>710.4</ele>
        <time>2022-10-15 09:41:55</time>
      </trkpt>
      <trkpt lat="38.70474" lon="-0.64497">
        <ele>710.6</ele>
        <time>2022-10-15 09:41:56</time>
      </trkpt>
      <trkpt lat="38.70471" lon="-0.64499">
        <ele>710.8</ele>
        <time>2022-10-15 09:41:57</time>
      </trkpt>
      <trkpt lat="38.70469" lon="-0.64501">
        <ele>710.8</ele>
        <time>2022-10-15 09:41:58</time>
      </trkpt>
      <trkpt lat="38.70466" lon="-0.64504">
        <ele>711</ele>
        <time>2022-10-15 09:41:59</time>
      </trkpt>
      <trkpt lat="38.70464" lon="-0.64506">
        <ele>711</ele>
        <time>2022-10-15 09:42:00</time>
      </trkpt>
      <trkpt lat="38.70462" lon="-0.64509">
        <ele>711.2</ele>
        <time>2022-10-15 09:42:01</time>
      </trkpt>
      <trkpt lat="38.7046" lon="-0.64512">
        <ele>711.6</ele>
        <time>2022-10-15 09:42:02</time>
      </trkpt>
      <trkpt lat="38.70459" lon="-0.64516">
        <ele>711.8</ele>
        <time>2022-10-15 09:42:03</time>
      </trkpt>
      <trkpt lat="38.70458" lon="-0.6452">
        <ele>712</ele>
        <time>2022-10-15 09:42:04</time>
      </trkpt>
      <trkpt lat="38.70459" lon="-0.64525">
        <ele>712.4</ele>
        <time>2022-10-15 09:42:05</time>
      </trkpt>
      <trkpt lat="38.70459" lon="-0.6453">
        <ele>712.8</ele>
        <time>2022-10-15 09:42:06</time>
      </trkpt>
      <trkpt lat="38.7046" lon="-0.64536">
        <ele>713</ele>
        <time>2022-10-15 09:42:07</time>
      </trkpt>
      <trkpt lat="38.7046" lon="-0.64542">
        <ele>713.2</ele>
        <time>2022-10-15 09:42:08</time>
      </trkpt>
      <trkpt lat="38.7046" lon="-0.64549">
        <ele>713.2</ele>
        <time>2022-10-15 09:42:09</time>
      </trkpt>
      <trkpt lat="38.7046" lon="-0.64555">
        <ele>713.2</ele>
        <time>2022-10-15 09:42:10</time>
      </trkpt>
      <trkpt lat="38.7046" lon="-0.64562">
        <ele>713.2</ele>
        <time>2022-10-15 09:42:11</time>
      </trkpt>
      <trkpt lat="38.7046" lon="-0.64569">
        <ele>713.2</ele>
        <time>2022-10-15 09:42:12</time>
      </trkpt>
      <trkpt lat="38.7046" lon="-0.64576">
        <ele>713.2</ele>
        <time>2022-10-15 09:42:13</time>
      </trkpt>
      <trkpt lat="38.70461" lon="-0.64584">
        <ele>713.2</ele>
        <time>2022-10-15 09:42:14</time>
      </trkpt>
      <trkpt lat="38.70461" lon="-0.64592">
        <ele>713.2</ele>
        <time>2022-10-15 09:42:15</time>
      </trkpt>
      <trkpt lat="38.70462" lon="-0.646">
        <ele>713</ele>
        <time>2022-10-15 09:42:16</time>
      </trkpt>
      <trkpt lat="38.70463" lon="-0.64608">
        <ele>712.6</ele>
        <time>2022-10-15 09:42:17</time>
      </trkpt>
      <trkpt lat="38.70463" lon="-0.64617">
        <ele>712.4</ele>
        <time>2022-10-15 09:42:18</time>
      </trkpt>
      <trkpt lat="38.70464" lon="-0.64625">
        <ele>712</ele>
        <time>2022-10-15 09:42:19</time>
      </trkpt>
      <trkpt lat="38.70464" lon="-0.64634">
        <ele>711.4</ele>
        <time>2022-10-15 09:42:20</time>
      </trkpt>
      <trkpt lat="38.70465" lon="-0.64642">
        <ele>711</ele>
        <time>2022-10-15 09:42:21</time>
      </trkpt>
      <trkpt lat="38.70465" lon="-0.64651">
        <ele>710.8</ele>
        <time>2022-10-15 09:42:22</time>
      </trkpt>
      <trkpt lat="38.70466" lon="-0.64659">
        <ele>709.8</ele>
        <time>2022-10-15 09:42:23</time>
      </trkpt>
      <trkpt lat="38.70467" lon="-0.64666">
        <ele>709.2</ele>
        <time>2022-10-15 09:42:24</time>
      </trkpt>
      <trkpt lat="38.70468" lon="-0.64674">
        <ele>708.8</ele>
        <time>2022-10-15 09:42:25</time>
      </trkpt>
      <trkpt lat="38.70468" lon="-0.64681">
        <ele>708.4</ele>
        <time>2022-10-15 09:42:26</time>
      </trkpt>
      <trkpt lat="38.70469" lon="-0.64688">
        <ele>708</ele>
        <time>2022-10-15 09:42:27</time>
      </trkpt>
      <trkpt lat="38.7047" lon="-0.64694">
        <ele>707.6</ele>
        <time>2022-10-15 09:42:28</time>
      </trkpt>
      <trkpt lat="38.70471" lon="-0.647">
        <ele>707.4</ele>
        <time>2022-10-15 09:42:29</time>
      </trkpt>
      <trkpt lat="38.70472" lon="-0.64706">
        <ele>707</ele>
        <time>2022-10-15 09:42:30</time>
      </trkpt>
      <trkpt lat="38.70474" lon="-0.64711">
        <ele>706.8</ele>
        <time>2022-10-15 09:42:31</time>
      </trkpt>
      <trkpt lat="38.70476" lon="-0.64716">
        <ele>706.6</ele>
        <time>2022-10-15 09:42:32</time>
      </trkpt>
      <trkpt lat="38.70477" lon="-0.6472">
        <ele>706.4</ele>
        <time>2022-10-15 09:42:33</time>
      </trkpt>
      <trkpt lat="38.70479" lon="-0.64723">
        <ele>706</ele>
        <time>2022-10-15 09:42:34</time>
      </trkpt>
      <trkpt lat="38.7048" lon="-0.64725">
        <ele>705.8</ele>
        <time>2022-10-15 09:42:35</time>
      </trkpt>
      <trkpt lat="38.7048" lon="-0.64726">
        <ele>705.8</ele>
        <time>2022-10-15 09:42:36</time>
      </trkpt>
      <trkpt lat="38.7048" lon="-0.64726">
        <ele>705.4</ele>
        <time>2022-10-15 09:42:37</time>
      </trkpt>
      <trkpt lat="38.70481" lon="-0.64733">
        <ele>704.4</ele>
        <time>2022-10-15 09:42:41</time>
      </trkpt>
      <trkpt lat="38.70482" lon="-0.64736">
        <ele>704.2</ele>
        <time>2022-10-15 09:42:42</time>
      </trkpt>
      <trkpt lat="38.70483" lon="-0.64739">
        <ele>704.2</ele>
        <time>2022-10-15 09:42:43</time>
      </trkpt>
      <trkpt lat="38.70483" lon="-0.64743">
        <ele>704.2</ele>
        <time>2022-10-15 09:42:44</time>
      </trkpt>
      <trkpt lat="38.70484" lon="-0.64747">
        <ele>704.2</ele>
        <time>2022-10-15 09:42:45</time>
      </trkpt>
      <trkpt lat="38.70484" lon="-0.64751">
        <ele>704.2</ele>
        <time>2022-10-15 09:42:46</time>
      </trkpt>
      <trkpt lat="38.70485" lon="-0.64755">
        <ele>704</ele>
        <time>2022-10-15 09:42:47</time>
      </trkpt>
      <trkpt lat="38.70486" lon="-0.64759">
        <ele>704</ele>
        <time>2022-10-15 09:42:48</time>
      </trkpt>
      <trkpt lat="38.70487" lon="-0.64763">
        <ele>704</ele>
        <time>2022-10-15 09:42:49</time>
      </trkpt>
      <trkpt lat="38.70489" lon="-0.64765">
        <ele>704</ele>
        <time>2022-10-15 09:42:50</time>
      </trkpt>
      <trkpt lat="38.7049" lon="-0.64767">
        <ele>703.8</ele>
        <time>2022-10-15 09:42:51</time>
      </trkpt>
      <trkpt lat="38.7049" lon="-0.64768">
        <ele>703.6</ele>
        <time>2022-10-15 09:42:52</time>
      </trkpt>
      <trkpt lat="38.7049" lon="-0.64768">
        <ele>703.4</ele>
        <time>2022-10-15 09:42:53</time>
      </trkpt>
      <trkpt lat="38.7049" lon="-0.64768">
        <ele>703</ele>
        <time>2022-10-15 09:42:54</time>
      </trkpt>
      <trkpt lat="38.70494" lon="-0.64779">
        <ele>701.8</ele>
        <time>2022-10-15 09:43:08</time>
      </trkpt>
      <trkpt lat="38.70495" lon="-0.6478">
        <ele>701.8</ele>
        <time>2022-10-15 09:43:09</time>
      </trkpt>
      <trkpt lat="38.70495" lon="-0.64782">
        <ele>701.8</ele>
        <time>2022-10-15 09:43:10</time>
      </trkpt>
      <trkpt lat="38.70497" lon="-0.64784">
        <ele>701.8</ele>
        <time>2022-10-15 09:43:11</time>
      </trkpt>
      <trkpt lat="38.70498" lon="-0.64786">
        <ele>701.8</ele>
        <time>2022-10-15 09:43:12</time>
      </trkpt>
      <trkpt lat="38.705" lon="-0.64788">
        <ele>701.8</ele>
        <time>2022-10-15 09:43:13</time>
      </trkpt>
      <trkpt lat="38.70501" lon="-0.6479">
        <ele>701.8</ele>
        <time>2022-10-15 09:43:14</time>
      </trkpt>
      <trkpt lat="38.70503" lon="-0.64792">
        <ele>701.8</ele>
        <time>2022-10-15 09:43:15</time>
      </trkpt>
      <trkpt lat="38.70505" lon="-0.64794">
        <ele>701.6</ele>
        <time>2022-10-15 09:43:16</time>
      </trkpt>
      <trkpt lat="38.70507" lon="-0.64796">
        <ele>701.6</ele>
        <time>2022-10-15 09:43:17</time>
      </trkpt>
      <trkpt lat="38.70508" lon="-0.64798">
        <ele>701.6</ele>
        <time>2022-10-15 09:43:18</time>
      </trkpt>
      <trkpt lat="38.7051" lon="-0.64801">
        <ele>701.6</ele>
        <time>2022-10-15 09:43:19</time>
      </trkpt>
      <trkpt lat="38.70512" lon="-0.64803">
        <ele>701.6</ele>
        <time>2022-10-15 09:43:20</time>
      </trkpt>
      <trkpt lat="38.70513" lon="-0.64806">
        <ele>701.6</ele>
        <time>2022-10-15 09:43:21</time>
      </trkpt>
      <trkpt lat="38.70514" lon="-0.64808">
        <ele>701.4</ele>
        <time>2022-10-15 09:43:22</time>
      </trkpt>
      <trkpt lat="38.70515" lon="-0.6481">
        <ele>701.4</ele>
        <time>2022-10-15 09:43:23</time>
      </trkpt>
      <trkpt lat="38.70516" lon="-0.64812">
        <ele>701.4</ele>
        <time>2022-10-15 09:43:24</time>
      </trkpt>
      <trkpt lat="38.70517" lon="-0.64814">
        <ele>701.4</ele>
        <time>2022-10-15 09:43:25</time>
      </trkpt>
      <trkpt lat="38.70517" lon="-0.64816">
        <ele>701.4</ele>
        <time>2022-10-15 09:43:26</time>
      </trkpt>
      <trkpt lat="38.70518" lon="-0.64817">
        <ele>701.4</ele>
        <time>2022-10-15 09:43:27</time>
      </trkpt>
      <trkpt lat="38.70518" lon="-0.64819">
        <ele>701.4</ele>
        <time>2022-10-15 09:43:28</time>
      </trkpt>
      <trkpt lat="38.70518" lon="-0.64821">
        <ele>701.4</ele>
        <time>2022-10-15 09:43:29</time>
      </trkpt>
      <trkpt lat="38.70518" lon="-0.64822">
        <ele>701.4</ele>
        <time>2022-10-15 09:43:30</time>
      </trkpt>
      <trkpt lat="38.70518" lon="-0.64824">
        <ele>701.4</ele>
        <time>2022-10-15 09:43:31</time>
      </trkpt>
      <trkpt lat="38.70519" lon="-0.64825">
        <ele>701.4</ele>
        <time>2022-10-15 09:43:32</time>
      </trkpt>
      <trkpt lat="38.70519" lon="-0.64826">
        <ele>701.4</ele>
        <time>2022-10-15 09:43:33</time>
      </trkpt>
      <trkpt lat="38.70519" lon="-0.64826">
        <ele>701.6</ele>
        <time>2022-10-15 09:43:34</time>
      </trkpt>
      <trkpt lat="38.70518" lon="-0.64827">
        <ele>701.6</ele>
        <time>2022-10-15 09:43:35</time>
      </trkpt>
      <trkpt lat="38.70528" lon="-0.6485">
        <ele>702</ele>
        <time>2022-10-15 09:47:40</time>
      </trkpt>
      <trkpt lat="38.70528" lon="-0.64852">
        <ele>702</ele>
        <time>2022-10-15 09:47:41</time>
      </trkpt>
      <trkpt lat="38.70528" lon="-0.64854">
        <ele>702</ele>
        <time>2022-10-15 09:47:42</time>
      </trkpt>
      <trkpt lat="38.70528" lon="-0.64857">
        <ele>702</ele>
        <time>2022-10-15 09:47:43</time>
      </trkpt>
      <trkpt lat="38.70528" lon="-0.64861">
        <ele>702</ele>
        <time>2022-10-15 09:47:45</time>
      </trkpt>
      <trkpt lat="38.70529" lon="-0.64862">
        <ele>702.2</ele>
        <time>2022-10-15 09:47:46</time>
      </trkpt>
      <trkpt lat="38.70529" lon="-0.64863">
        <ele>702.2</ele>
        <time>2022-10-15 09:47:47</time>
      </trkpt>
      <trkpt lat="38.70529" lon="-0.64863">
        <ele>702.2</ele>
        <time>2022-10-15 09:47:48</time>
      </trkpt>
      <trkpt lat="38.70528" lon="-0.64863">
        <ele>702.2</ele>
        <time>2022-10-15 09:47:49</time>
      </trkpt>
      <trkpt lat="38.7053" lon="-0.64879">
        <ele>702.6</ele>
        <time>2022-10-15 09:51:12</time>
      </trkpt>
      <trkpt lat="38.70531" lon="-0.64881">
        <ele>702.6</ele>
        <time>2022-10-15 09:51:13</time>
      </trkpt>
      <trkpt lat="38.70532" lon="-0.64884">
        <ele>702.6</ele>
        <time>2022-10-15 09:51:14</time>
      </trkpt>
      <trkpt lat="38.70533" lon="-0.64887">
        <ele>702.6</ele>
        <time>2022-10-15 09:51:15</time>
      </trkpt>
      <trkpt lat="38.70534" lon="-0.6489">
        <ele>702.6</ele>
        <time>2022-10-15 09:51:16</time>
      </trkpt>
      <trkpt lat="38.70535" lon="-0.64894">
        <ele>702.6</ele>
        <time>2022-10-15 09:51:17</time>
      </trkpt>
      <trkpt lat="38.70536" lon="-0.64897">
        <ele>702.6</ele>
        <time>2022-10-15 09:51:18</time>
      </trkpt>
      <trkpt lat="38.70537" lon="-0.64901">
        <ele>702.6</ele>
        <time>2022-10-15 09:51:19</time>
      </trkpt>
      <trkpt lat="38.70538" lon="-0.64905">
        <ele>702.8</ele>
        <time>2022-10-15 09:51:20</time>
      </trkpt>
      <trkpt lat="38.70539" lon="-0.64909">
        <ele>702.8</ele>
        <time>2022-10-15 09:51:21</time>
      </trkpt>
      <trkpt lat="38.7054" lon="-0.64913">
        <ele>702.8</ele>
        <time>2022-10-15 09:51:22</time>
      </trkpt>
      <trkpt lat="38.70541" lon="-0.64917">
        <ele>702.8</ele>
        <time>2022-10-15 09:51:23</time>
      </trkpt>
      <trkpt lat="38.70541" lon="-0.64921">
        <ele>702.8</ele>
        <time>2022-10-15 09:51:24</time>
      </trkpt>
      <trkpt lat="38.70541" lon="-0.64925">
        <ele>703</ele>
        <time>2022-10-15 09:51:25</time>
      </trkpt>
      <trkpt lat="38.70542" lon="-0.64929">
        <ele>703</ele>
        <time>2022-10-15 09:51:26</time>
      </trkpt>
      <trkpt lat="38.70542" lon="-0.64933">
        <ele>703</ele>
        <time>2022-10-15 09:51:27</time>
      </trkpt>
      <trkpt lat="38.70543" lon="-0.64936">
        <ele>703</ele>
        <time>2022-10-15 09:51:28</time>
      </trkpt>
      <trkpt lat="38.70544" lon="-0.6494">
        <ele>703</ele>
        <time>2022-10-15 09:51:29</time>
      </trkpt>
      <trkpt lat="38.70544" lon="-0.64943">
        <ele>703.2</ele>
        <time>2022-10-15 09:51:30</time>
      </trkpt>
      <trkpt lat="38.70545" lon="-0.64947">
        <ele>703.2</ele>
        <time>2022-10-15 09:51:31</time>
      </trkpt>
      <trkpt lat="38.70545" lon="-0.64951">
        <ele>703.4</ele>
        <time>2022-10-15 09:51:32</time>
      </trkpt>
      <trkpt lat="38.70546" lon="-0.64955">
        <ele>703.4</ele>
        <time>2022-10-15 09:51:33</time>
      </trkpt>
      <trkpt lat="38.70546" lon="-0.6496">
        <ele>703.4</ele>
        <time>2022-10-15 09:51:34</time>
      </trkpt>
      <trkpt lat="38.70547" lon="-0.64964">
        <ele>703.4</ele>
        <time>2022-10-15 09:51:35</time>
      </trkpt>
      <trkpt lat="38.70548" lon="-0.64968">
        <ele>703.4</ele>
        <time>2022-10-15 09:51:36</time>
      </trkpt>
      <trkpt lat="38.70549" lon="-0.64972">
        <ele>703.4</ele>
        <time>2022-10-15 09:51:37</time>
      </trkpt>
      <trkpt lat="38.70551" lon="-0.64977">
        <ele>703.4</ele>
        <time>2022-10-15 09:51:38</time>
      </trkpt>
      <trkpt lat="38.70552" lon="-0.64983">
        <ele>703.4</ele>
        <time>2022-10-15 09:51:39</time>
      </trkpt>
      <trkpt lat="38.70553" lon="-0.64989">
        <ele>703.4</ele>
        <time>2022-10-15 09:51:40</time>
      </trkpt>
      <trkpt lat="38.70554" lon="-0.64996">
        <ele>703.4</ele>
        <time>2022-10-15 09:51:41</time>
      </trkpt>
      <trkpt lat="38.70554" lon="-0.65002">
        <ele>703.4</ele>
        <time>2022-10-15 09:51:42</time>
      </trkpt>
      <trkpt lat="38.70554" lon="-0.6501">
        <ele>703.2</ele>
        <time>2022-10-15 09:51:43</time>
      </trkpt>
      <trkpt lat="38.70553" lon="-0.65016">
        <ele>702.8</ele>
        <time>2022-10-15 09:51:44</time>
      </trkpt>
      <trkpt lat="38.70551" lon="-0.65023">
        <ele>702.6</ele>
        <time>2022-10-15 09:51:45</time>
      </trkpt>
      <trkpt lat="38.7055" lon="-0.65029">
        <ele>702.2</ele>
        <time>2022-10-15 09:51:46</time>
      </trkpt>
      <trkpt lat="38.70548" lon="-0.65036">
        <ele>701.8</ele>
        <time>2022-10-15 09:51:47</time>
      </trkpt>
      <trkpt lat="38.70547" lon="-0.65042">
        <ele>701.4</ele>
        <time>2022-10-15 09:51:48</time>
      </trkpt>
      <trkpt lat="38.70545" lon="-0.65047">
        <ele>700.8</ele>
        <time>2022-10-15 09:51:49</time>
      </trkpt>
      <trkpt lat="38.70543" lon="-0.65052">
        <ele>700.4</ele>
        <time>2022-10-15 09:51:50</time>
      </trkpt>
      <trkpt lat="38.70539" lon="-0.65055">
        <ele>700.2</ele>
        <time>2022-10-15 09:51:51</time>
      </trkpt>
      <trkpt lat="38.70536" lon="-0.65057">
        <ele>699.8</ele>
        <time>2022-10-15 09:51:52</time>
      </trkpt>
      <trkpt lat="38.70532" lon="-0.65059">
        <ele>699.8</ele>
        <time>2022-10-15 09:51:53</time>
      </trkpt>
      <trkpt lat="38.70528" lon="-0.65059">
        <ele>699.8</ele>
        <time>2022-10-15 09:51:54</time>
      </trkpt>
      <trkpt lat="38.70523" lon="-0.65059">
        <ele>699.8</ele>
        <time>2022-10-15 09:51:55</time>
      </trkpt>
      <trkpt lat="38.70519" lon="-0.6506">
        <ele>699.6</ele>
        <time>2022-10-15 09:51:56</time>
      </trkpt>
      <trkpt lat="38.70515" lon="-0.6506">
        <ele>699.6</ele>
        <time>2022-10-15 09:51:57</time>
      </trkpt>
      <trkpt lat="38.70511" lon="-0.65061">
        <ele>699.6</ele>
        <time>2022-10-15 09:51:58</time>
      </trkpt>
      <trkpt lat="38.70507" lon="-0.65063">
        <ele>699.6</ele>
        <time>2022-10-15 09:51:59</time>
      </trkpt>
      <trkpt lat="38.70504" lon="-0.65065">
        <ele>699.6</ele>
        <time>2022-10-15 09:52:00</time>
      </trkpt>
      <trkpt lat="38.70501" lon="-0.65067">
        <ele>699.6</ele>
        <time>2022-10-15 09:52:01</time>
      </trkpt>
      <trkpt lat="38.70498" lon="-0.65069">
        <ele>699.8</ele>
        <time>2022-10-15 09:52:02</time>
      </trkpt>
      <trkpt lat="38.70496" lon="-0.65071">
        <ele>700</ele>
        <time>2022-10-15 09:52:03</time>
      </trkpt>
      <trkpt lat="38.70495" lon="-0.65073">
        <ele>700.4</ele>
        <time>2022-10-15 09:52:04</time>
      </trkpt>
      <trkpt lat="38.70493" lon="-0.65076">
        <ele>700.8</ele>
        <time>2022-10-15 09:52:05</time>
      </trkpt>
      <trkpt lat="38.70491" lon="-0.65079">
        <ele>701</ele>
        <time>2022-10-15 09:52:06</time>
      </trkpt>
      <trkpt lat="38.7049" lon="-0.65082">
        <ele>701.2</ele>
        <time>2022-10-15 09:52:07</time>
      </trkpt>
      <trkpt lat="38.70488" lon="-0.65085">
        <ele>701.6</ele>
        <time>2022-10-15 09:52:08</time>
      </trkpt>
      <trkpt lat="38.70486" lon="-0.65088">
        <ele>701.8</ele>
        <time>2022-10-15 09:52:09</time>
      </trkpt>
      <trkpt lat="38.70484" lon="-0.6509">
        <ele>702</ele>
        <time>2022-10-15 09:52:10</time>
      </trkpt>
      <trkpt lat="38.70483" lon="-0.65093">
        <ele>702.4</ele>
        <time>2022-10-15 09:52:11</time>
      </trkpt>
      <trkpt lat="38.70481" lon="-0.65095">
        <ele>703</ele>
        <time>2022-10-15 09:52:12</time>
      </trkpt>
      <trkpt lat="38.70479" lon="-0.65098">
        <ele>703.4</ele>
        <time>2022-10-15 09:52:13</time>
      </trkpt>
      <trkpt lat="38.70477" lon="-0.651">
        <ele>703.8</ele>
        <time>2022-10-15 09:52:14</time>
      </trkpt>
      <trkpt lat="38.70475" lon="-0.65102">
        <ele>704.2</ele>
        <time>2022-10-15 09:52:15</time>
      </trkpt>
      <trkpt lat="38.70474" lon="-0.65105">
        <ele>704.6</ele>
        <time>2022-10-15 09:52:16</time>
      </trkpt>
      <trkpt lat="38.70472" lon="-0.65107">
        <ele>705</ele>
        <time>2022-10-15 09:52:17</time>
      </trkpt>
      <trkpt lat="38.7047" lon="-0.65109">
        <ele>705.4</ele>
        <time>2022-10-15 09:52:18</time>
      </trkpt>
      <trkpt lat="38.70468" lon="-0.65111">
        <ele>705.6</ele>
        <time>2022-10-15 09:52:19</time>
      </trkpt>
      <trkpt lat="38.70467" lon="-0.65113">
        <ele>705.8</ele>
        <time>2022-10-15 09:52:20</time>
      </trkpt>
      <trkpt lat="38.70465" lon="-0.65115">
        <ele>706.2</ele>
        <time>2022-10-15 09:52:21</time>
      </trkpt>
      <trkpt lat="38.70463" lon="-0.65117">
        <ele>706.2</ele>
        <time>2022-10-15 09:52:22</time>
      </trkpt>
      <trkpt lat="38.70461" lon="-0.65119">
        <ele>706.6</ele>
        <time>2022-10-15 09:52:23</time>
      </trkpt>
      <trkpt lat="38.70459" lon="-0.65121">
        <ele>706.8</ele>
        <time>2022-10-15 09:52:24</time>
      </trkpt>
      <trkpt lat="38.70458" lon="-0.65123">
        <ele>707</ele>
        <time>2022-10-15 09:52:25</time>
      </trkpt>
      <trkpt lat="38.70456" lon="-0.65125">
        <ele>707.2</ele>
        <time>2022-10-15 09:52:26</time>
      </trkpt>
      <trkpt lat="38.70454" lon="-0.65127">
        <ele>707.4</ele>
        <time>2022-10-15 09:52:27</time>
      </trkpt>
      <trkpt lat="38.70452" lon="-0.65129">
        <ele>707.6</ele>
        <time>2022-10-15 09:52:28</time>
      </trkpt>
      <trkpt lat="38.7045" lon="-0.6513">
        <ele>707.8</ele>
        <time>2022-10-15 09:52:29</time>
      </trkpt>
      <trkpt lat="38.70448" lon="-0.65132">
        <ele>708</ele>
        <time>2022-10-15 09:52:30</time>
      </trkpt>
      <trkpt lat="38.70446" lon="-0.65134">
        <ele>708.4</ele>
        <time>2022-10-15 09:52:31</time>
      </trkpt>
      <trkpt lat="38.70444" lon="-0.65136">
        <ele>708.8</ele>
        <time>2022-10-15 09:52:32</time>
      </trkpt>
      <trkpt lat="38.70443" lon="-0.65137">
        <ele>709</ele>
        <time>2022-10-15 09:52:33</time>
      </trkpt>
      <trkpt lat="38.70441" lon="-0.65139">
        <ele>709.4</ele>
        <time>2022-10-15 09:52:34</time>
      </trkpt>
      <trkpt lat="38.70439" lon="-0.6514">
        <ele>709.6</ele>
        <time>2022-10-15 09:52:35</time>
      </trkpt>
      <trkpt lat="38.70437" lon="-0.65141">
        <ele>709.8</ele>
        <time>2022-10-15 09:52:36</time>
      </trkpt>
      <trkpt lat="38.70435" lon="-0.65143">
        <ele>710.2</ele>
        <time>2022-10-15 09:52:37</time>
      </trkpt>
      <trkpt lat="38.70433" lon="-0.65144">
        <ele>710.4</ele>
        <time>2022-10-15 09:52:38</time>
      </trkpt>
      <trkpt lat="38.70431" lon="-0.65145">
        <ele>710.4</ele>
        <time>2022-10-15 09:52:39</time>
      </trkpt>
      <trkpt lat="38.70429" lon="-0.65146">
        <ele>711</ele>
        <time>2022-10-15 09:52:40</time>
      </trkpt>
      <trkpt lat="38.70427" lon="-0.65147">
        <ele>711.2</ele>
        <time>2022-10-15 09:52:41</time>
      </trkpt>
      <trkpt lat="38.70425" lon="-0.65148">
        <ele>711.4</ele>
        <time>2022-10-15 09:52:42</time>
      </trkpt>
      <trkpt lat="38.70422" lon="-0.65148">
        <ele>711.6</ele>
        <time>2022-10-15 09:52:43</time>
      </trkpt>
      <trkpt lat="38.7042" lon="-0.65149">
        <ele>712</ele>
        <time>2022-10-15 09:52:44</time>
      </trkpt>
      <trkpt lat="38.70418" lon="-0.65149">
        <ele>712.2</ele>
        <time>2022-10-15 09:52:45</time>
      </trkpt>
      <trkpt lat="38.70416" lon="-0.6515">
        <ele>712.4</ele>
        <time>2022-10-15 09:52:46</time>
      </trkpt>
      <trkpt lat="38.70414" lon="-0.65151">
        <ele>712.4</ele>
        <time>2022-10-15 09:52:47</time>
      </trkpt>
      <trkpt lat="38.70412" lon="-0.65151">
        <ele>712.8</ele>
        <time>2022-10-15 09:52:48</time>
      </trkpt>
      <trkpt lat="38.7041" lon="-0.65153">
        <ele>713</ele>
        <time>2022-10-15 09:52:49</time>
      </trkpt>
      <trkpt lat="38.70408" lon="-0.65154">
        <ele>713.2</ele>
        <time>2022-10-15 09:52:50</time>
      </trkpt>
      <trkpt lat="38.70406" lon="-0.65156">
        <ele>713.4</ele>
        <time>2022-10-15 09:52:51</time>
      </trkpt>
      <trkpt lat="38.70404" lon="-0.65158">
        <ele>713.6</ele>
        <time>2022-10-15 09:52:52</time>
      </trkpt>
      <trkpt lat="38.70402" lon="-0.6516">
        <ele>713.8</ele>
        <time>2022-10-15 09:52:53</time>
      </trkpt>
      <trkpt lat="38.704" lon="-0.65162">
        <ele>714</ele>
        <time>2022-10-15 09:52:54</time>
      </trkpt>
      <trkpt lat="38.70398" lon="-0.65164">
        <ele>714.4</ele>
        <time>2022-10-15 09:52:55</time>
      </trkpt>
      <trkpt lat="38.70397" lon="-0.65166">
        <ele>714.6</ele>
        <time>2022-10-15 09:52:56</time>
      </trkpt>
      <trkpt lat="38.70395" lon="-0.65167">
        <ele>714.8</ele>
        <time>2022-10-15 09:52:57</time>
      </trkpt>
      <trkpt lat="38.70393" lon="-0.65168">
        <ele>715</ele>
        <time>2022-10-15 09:52:58</time>
      </trkpt>
      <trkpt lat="38.70391" lon="-0.65169">
        <ele>715.4</ele>
        <time>2022-10-15 09:52:59</time>
      </trkpt>
      <trkpt lat="38.70389" lon="-0.65171">
        <ele>715.6</ele>
        <time>2022-10-15 09:53:00</time>
      </trkpt>
      <trkpt lat="38.70387" lon="-0.65172">
        <ele>716</ele>
        <time>2022-10-15 09:53:01</time>
      </trkpt>
      <trkpt lat="38.70384" lon="-0.65173">
        <ele>716.2</ele>
        <time>2022-10-15 09:53:02</time>
      </trkpt>
      <trkpt lat="38.70382" lon="-0.65175">
        <ele>716.4</ele>
        <time>2022-10-15 09:53:03</time>
      </trkpt>
      <trkpt lat="38.7038" lon="-0.65176">
        <ele>716.6</ele>
        <time>2022-10-15 09:53:04</time>
      </trkpt>
      <trkpt lat="38.70378" lon="-0.65178">
        <ele>716.8</ele>
        <time>2022-10-15 09:53:05</time>
      </trkpt>
      <trkpt lat="38.70376" lon="-0.65179">
        <ele>717</ele>
        <time>2022-10-15 09:53:06</time>
      </trkpt>
      <trkpt lat="38.70374" lon="-0.6518">
        <ele>717.2</ele>
        <time>2022-10-15 09:53:07</time>
      </trkpt>
      <trkpt lat="38.70371" lon="-0.65181">
        <ele>717.4</ele>
        <time>2022-10-15 09:53:08</time>
      </trkpt>
      <trkpt lat="38.70369" lon="-0.65182">
        <ele>717.6</ele>
        <time>2022-10-15 09:53:09</time>
      </trkpt>
      <trkpt lat="38.70366" lon="-0.65184">
        <ele>717.8</ele>
        <time>2022-10-15 09:53:10</time>
      </trkpt>
      <trkpt lat="38.70364" lon="-0.65185">
        <ele>717.8</ele>
        <time>2022-10-15 09:53:11</time>
      </trkpt>
      <trkpt lat="38.70361" lon="-0.65186">
        <ele>718</ele>
        <time>2022-10-15 09:53:12</time>
      </trkpt>
      <trkpt lat="38.70359" lon="-0.65187">
        <ele>718</ele>
        <time>2022-10-15 09:53:13</time>
      </trkpt>
      <trkpt lat="38.70356" lon="-0.65189">
        <ele>718.2</ele>
        <time>2022-10-15 09:53:14</time>
      </trkpt>
      <trkpt lat="38.70354" lon="-0.6519">
        <ele>718.4</ele>
        <time>2022-10-15 09:53:15</time>
      </trkpt>
      <trkpt lat="38.70351" lon="-0.65192">
        <ele>718.4</ele>
        <time>2022-10-15 09:53:16</time>
      </trkpt>
      <trkpt lat="38.70349" lon="-0.65193">
        <ele>718.6</ele>
        <time>2022-10-15 09:53:17</time>
      </trkpt>
      <trkpt lat="38.70347" lon="-0.65194">
        <ele>718.6</ele>
        <time>2022-10-15 09:53:18</time>
      </trkpt>
      <trkpt lat="38.70344" lon="-0.65196">
        <ele>718.8</ele>
        <time>2022-10-15 09:53:19</time>
      </trkpt>
      <trkpt lat="38.70342" lon="-0.65197">
        <ele>719</ele>
        <time>2022-10-15 09:53:20</time>
      </trkpt>
      <trkpt lat="38.7034" lon="-0.65198">
        <ele>719.2</ele>
        <time>2022-10-15 09:53:21</time>
      </trkpt>
      <trkpt lat="38.70338" lon="-0.652">
        <ele>719.2</ele>
        <time>2022-10-15 09:53:22</time>
      </trkpt>
      <trkpt lat="38.70336" lon="-0.65203">
        <ele>719.2</ele>
        <time>2022-10-15 09:53:23</time>
      </trkpt>
      <trkpt lat="38.70335" lon="-0.65206">
        <ele>719.4</ele>
        <time>2022-10-15 09:53:24</time>
      </trkpt>
      <trkpt lat="38.70334" lon="-0.65209">
        <ele>719.4</ele>
        <time>2022-10-15 09:53:25</time>
      </trkpt>
      <trkpt lat="38.70332" lon="-0.65212">
        <ele>719.6</ele>
        <time>2022-10-15 09:53:26</time>
      </trkpt>
      <trkpt lat="38.70331" lon="-0.65214">
        <ele>719.8</ele>
        <time>2022-10-15 09:53:27</time>
      </trkpt>
      <trkpt lat="38.70329" lon="-0.65217">
        <ele>720</ele>
        <time>2022-10-15 09:53:28</time>
      </trkpt>
      <trkpt lat="38.70328" lon="-0.6522">
        <ele>720.2</ele>
        <time>2022-10-15 09:53:29</time>
      </trkpt>
      <trkpt lat="38.70326" lon="-0.65223">
        <ele>720.2</ele>
        <time>2022-10-15 09:53:30</time>
      </trkpt>
      <trkpt lat="38.70325" lon="-0.65225">
        <ele>720.4</ele>
        <time>2022-10-15 09:53:31</time>
      </trkpt>
      <trkpt lat="38.70323" lon="-0.65228">
        <ele>720.4</ele>
        <time>2022-10-15 09:53:32</time>
      </trkpt>
      <trkpt lat="38.70321" lon="-0.65231">
        <ele>720.6</ele>
        <time>2022-10-15 09:53:33</time>
      </trkpt>
      <trkpt lat="38.7032" lon="-0.65234">
        <ele>720.6</ele>
        <time>2022-10-15 09:53:34</time>
      </trkpt>
      <trkpt lat="38.70318" lon="-0.65236">
        <ele>720.8</ele>
        <time>2022-10-15 09:53:35</time>
      </trkpt>
      <trkpt lat="38.70317" lon="-0.65239">
        <ele>721.2</ele>
        <time>2022-10-15 09:53:36</time>
      </trkpt>
      <trkpt lat="38.70316" lon="-0.65242">
        <ele>721.4</ele>
        <time>2022-10-15 09:53:37</time>
      </trkpt>
      <trkpt lat="38.70314" lon="-0.65244">
        <ele>721.4</ele>
        <time>2022-10-15 09:53:38</time>
      </trkpt>
      <trkpt lat="38.70312" lon="-0.65247">
        <ele>721.6</ele>
        <time>2022-10-15 09:53:39</time>
      </trkpt>
      <trkpt lat="38.70311" lon="-0.6525">
        <ele>721.6</ele>
        <time>2022-10-15 09:53:40</time>
      </trkpt>
      <trkpt lat="38.70309" lon="-0.65253">
        <ele>721.8</ele>
        <time>2022-10-15 09:53:41</time>
      </trkpt>
      <trkpt lat="38.70307" lon="-0.65256">
        <ele>722</ele>
        <time>2022-10-15 09:53:42</time>
      </trkpt>
      <trkpt lat="38.70306" lon="-0.65259">
        <ele>722</ele>
        <time>2022-10-15 09:53:43</time>
      </trkpt>
      <trkpt lat="38.70304" lon="-0.65262">
        <ele>722.2</ele>
        <time>2022-10-15 09:53:44</time>
      </trkpt>
      <trkpt lat="38.70302" lon="-0.65265">
        <ele>722.2</ele>
        <time>2022-10-15 09:53:45</time>
      </trkpt>
      <trkpt lat="38.703" lon="-0.65267">
        <ele>722.4</ele>
        <time>2022-10-15 09:53:46</time>
      </trkpt>
      <trkpt lat="38.70298" lon="-0.6527">
        <ele>722.4</ele>
        <time>2022-10-15 09:53:47</time>
      </trkpt>
      <trkpt lat="38.70296" lon="-0.65272">
        <ele>722.6</ele>
        <time>2022-10-15 09:53:48</time>
      </trkpt>
      <trkpt lat="38.70294" lon="-0.65274">
        <ele>722.6</ele>
        <time>2022-10-15 09:53:49</time>
      </trkpt>
      <trkpt lat="38.70291" lon="-0.65276">
        <ele>722.8</ele>
        <time>2022-10-15 09:53:50</time>
      </trkpt>
      <trkpt lat="38.70289" lon="-0.65278">
        <ele>723</ele>
        <time>2022-10-15 09:53:51</time>
      </trkpt>
      <trkpt lat="38.70283" lon="-0.65282">
        <ele>723</ele>
        <time>2022-10-15 09:53:53</time>
      </trkpt>
      <trkpt lat="38.70277" lon="-0.65285">
        <ele>723.2</ele>
        <time>2022-10-15 09:53:55</time>
      </trkpt>
      <trkpt lat="38.70274" lon="-0.65286">
        <ele>723.4</ele>
        <time>2022-10-15 09:53:56</time>
      </trkpt>
      <trkpt lat="38.70271" lon="-0.65287">
        <ele>723.6</ele>
        <time>2022-10-15 09:53:57</time>
      </trkpt>
      <trkpt lat="38.70268" lon="-0.65289">
        <ele>723.6</ele>
        <time>2022-10-15 09:53:58</time>
      </trkpt>
      <trkpt lat="38.70262" lon="-0.65291">
        <ele>723.8</ele>
        <time>2022-10-15 09:54:00</time>
      </trkpt>
      <trkpt lat="38.70256" lon="-0.65294">
        <ele>724</ele>
        <time>2022-10-15 09:54:02</time>
      </trkpt>
      <trkpt lat="38.70248" lon="-0.65297">
        <ele>724.4</ele>
        <time>2022-10-15 09:54:05</time>
      </trkpt>
      <trkpt lat="38.70245" lon="-0.65299">
        <ele>724.6</ele>
        <time>2022-10-15 09:54:06</time>
      </trkpt>
      <trkpt lat="38.70242" lon="-0.653">
        <ele>724.8</ele>
        <time>2022-10-15 09:54:07</time>
      </trkpt>
      <trkpt lat="38.70237" lon="-0.65302">
        <ele>725.2</ele>
        <time>2022-10-15 09:54:09</time>
      </trkpt>
      <trkpt lat="38.70234" lon="-0.65304">
        <ele>725.4</ele>
        <time>2022-10-15 09:54:10</time>
      </trkpt>
      <trkpt lat="38.70228" lon="-0.65306">
        <ele>725.6</ele>
        <time>2022-10-15 09:54:12</time>
      </trkpt>
      <trkpt lat="38.70223" lon="-0.65309">
        <ele>725.8</ele>
        <time>2022-10-15 09:54:14</time>
      </trkpt>
      <trkpt lat="38.70217" lon="-0.65312">
        <ele>726.2</ele>
        <time>2022-10-15 09:54:16</time>
      </trkpt>
      <trkpt lat="38.70215" lon="-0.65313">
        <ele>726.2</ele>
        <time>2022-10-15 09:54:17</time>
      </trkpt>
      <trkpt lat="38.70209" lon="-0.65316">
        <ele>726.4</ele>
        <time>2022-10-15 09:54:19</time>
      </trkpt>
      <trkpt lat="38.70204" lon="-0.65319">
        <ele>726.8</ele>
        <time>2022-10-15 09:54:21</time>
      </trkpt>
      <trkpt lat="38.70198" lon="-0.65322">
        <ele>727</ele>
        <time>2022-10-15 09:54:23</time>
      </trkpt>
      <trkpt lat="38.70196" lon="-0.65324">
        <ele>727</ele>
        <time>2022-10-15 09:54:24</time>
      </trkpt>
      <trkpt lat="38.7019" lon="-0.65327">
        <ele>727.2</ele>
        <time>2022-10-15 09:54:26</time>
      </trkpt>
      <trkpt lat="38.70184" lon="-0.65331">
        <ele>727.6</ele>
        <time>2022-10-15 09:54:28</time>
      </trkpt>
      <trkpt lat="38.70181" lon="-0.65332">
        <ele>727.8</ele>
        <time>2022-10-15 09:54:29</time>
      </trkpt>
      <trkpt lat="38.70179" lon="-0.65334">
        <ele>727.8</ele>
        <time>2022-10-15 09:54:30</time>
      </trkpt>
      <trkpt lat="38.70176" lon="-0.65336">
        <ele>728</ele>
        <time>2022-10-15 09:54:31</time>
      </trkpt>
      <trkpt lat="38.70173" lon="-0.65337">
        <ele>728.2</ele>
        <time>2022-10-15 09:54:32</time>
      </trkpt>
      <trkpt lat="38.7017" lon="-0.65339">
        <ele>728.2</ele>
        <time>2022-10-15 09:54:33</time>
      </trkpt>
      <trkpt lat="38.70165" lon="-0.65342">
        <ele>728.6</ele>
        <time>2022-10-15 09:54:35</time>
      </trkpt>
      <trkpt lat="38.70162" lon="-0.65343">
        <ele>728.6</ele>
        <time>2022-10-15 09:54:36</time>
      </trkpt>
      <trkpt lat="38.70158" lon="-0.65347">
        <ele>728.8</ele>
        <time>2022-10-15 09:54:38</time>
      </trkpt>
      <trkpt lat="38.70154" lon="-0.65352">
        <ele>729</ele>
        <time>2022-10-15 09:54:40</time>
      </trkpt>
      <trkpt lat="38.70152" lon="-0.65355">
        <ele>729</ele>
        <time>2022-10-15 09:54:41</time>
      </trkpt>
      <trkpt lat="38.70148" lon="-0.6536">
        <ele>729.4</ele>
        <time>2022-10-15 09:54:43</time>
      </trkpt>
      <trkpt lat="38.70147" lon="-0.65363">
        <ele>729.4</ele>
        <time>2022-10-15 09:54:44</time>
      </trkpt>
      <trkpt lat="38.70146" lon="-0.65367">
        <ele>729.4</ele>
        <time>2022-10-15 09:54:45</time>
      </trkpt>
      <trkpt lat="38.70145" lon="-0.65377">
        <ele>729.8</ele>
        <time>2022-10-15 09:54:48</time>
      </trkpt>
      <trkpt lat="38.70145" lon="-0.65381">
        <ele>729.8</ele>
        <time>2022-10-15 09:54:49</time>
      </trkpt>
      <trkpt lat="38.70146" lon="-0.65384">
        <ele>729.8</ele>
        <time>2022-10-15 09:54:50</time>
      </trkpt>
      <trkpt lat="38.70147" lon="-0.65388">
        <ele>729.8</ele>
        <time>2022-10-15 09:54:51</time>
      </trkpt>
      <trkpt lat="38.70148" lon="-0.65391">
        <ele>729.8</ele>
        <time>2022-10-15 09:54:52</time>
      </trkpt>
      <trkpt lat="38.70149" lon="-0.65394">
        <ele>729.8</ele>
        <time>2022-10-15 09:54:53</time>
      </trkpt>
      <trkpt lat="38.70151" lon="-0.65398">
        <ele>729.8</ele>
        <time>2022-10-15 09:54:54</time>
      </trkpt>
      <trkpt lat="38.70152" lon="-0.65401">
        <ele>729.8</ele>
        <time>2022-10-15 09:54:55</time>
      </trkpt>
      <trkpt lat="38.70153" lon="-0.65405">
        <ele>729.8</ele>
        <time>2022-10-15 09:54:56</time>
      </trkpt>
      <trkpt lat="38.70155" lon="-0.65408">
        <ele>729.8</ele>
        <time>2022-10-15 09:54:57</time>
      </trkpt>
      <trkpt lat="38.70156" lon="-0.65412">
        <ele>729.8</ele>
        <time>2022-10-15 09:54:58</time>
      </trkpt>
      <trkpt lat="38.70158" lon="-0.65415">
        <ele>729.8</ele>
        <time>2022-10-15 09:54:59</time>
      </trkpt>
      <trkpt lat="38.7016" lon="-0.65419">
        <ele>729.8</ele>
        <time>2022-10-15 09:55:00</time>
      </trkpt>
      <trkpt lat="38.70161" lon="-0.65422">
        <ele>729.8</ele>
        <time>2022-10-15 09:55:01</time>
      </trkpt>
      <trkpt lat="38.70163" lon="-0.65426">
        <ele>729.8</ele>
        <time>2022-10-15 09:55:02</time>
      </trkpt>
      <trkpt lat="38.70164" lon="-0.65429">
        <ele>729.8</ele>
        <time>2022-10-15 09:55:03</time>
      </trkpt>
      <trkpt lat="38.70165" lon="-0.65433">
        <ele>729.8</ele>
        <time>2022-10-15 09:55:04</time>
      </trkpt>
      <trkpt lat="38.70167" lon="-0.65436">
        <ele>729.8</ele>
        <time>2022-10-15 09:55:05</time>
      </trkpt>
      <trkpt lat="38.70168" lon="-0.6544">
        <ele>729.8</ele>
        <time>2022-10-15 09:55:06</time>
      </trkpt>
      <trkpt lat="38.7017" lon="-0.65443">
        <ele>729.8</ele>
        <time>2022-10-15 09:55:07</time>
      </trkpt>
      <trkpt lat="38.70171" lon="-0.65447">
        <ele>729.8</ele>
        <time>2022-10-15 09:55:08</time>
      </trkpt>
      <trkpt lat="38.70172" lon="-0.6545">
        <ele>729.8</ele>
        <time>2022-10-15 09:55:09</time>
      </trkpt>
      <trkpt lat="38.70174" lon="-0.65454">
        <ele>730</ele>
        <time>2022-10-15 09:55:10</time>
      </trkpt>
      <trkpt lat="38.70175" lon="-0.65457">
        <ele>730</ele>
        <time>2022-10-15 09:55:11</time>
      </trkpt>
      <trkpt lat="38.70177" lon="-0.6546">
        <ele>730</ele>
        <time>2022-10-15 09:55:12</time>
      </trkpt>
      <trkpt lat="38.70178" lon="-0.65464">
        <ele>730</ele>
        <time>2022-10-15 09:55:13</time>
      </trkpt>
      <trkpt lat="38.7018" lon="-0.65467">
        <ele>730</ele>
        <time>2022-10-15 09:55:14</time>
      </trkpt>
      <trkpt lat="38.70181" lon="-0.6547">
        <ele>730.2</ele>
        <time>2022-10-15 09:55:15</time>
      </trkpt>
      <trkpt lat="38.70183" lon="-0.65473">
        <ele>730.2</ele>
        <time>2022-10-15 09:55:16</time>
      </trkpt>
      <trkpt lat="38.70184" lon="-0.65476">
        <ele>730.2</ele>
        <time>2022-10-15 09:55:17</time>
      </trkpt>
      <trkpt lat="38.70185" lon="-0.65479">
        <ele>730.4</ele>
        <time>2022-10-15 09:55:18</time>
      </trkpt>
      <trkpt lat="38.70187" lon="-0.65482">
        <ele>730.4</ele>
        <time>2022-10-15 09:55:19</time>
      </trkpt>
      <trkpt lat="38.70188" lon="-0.65485">
        <ele>730.8</ele>
        <time>2022-10-15 09:55:20</time>
      </trkpt>
      <trkpt lat="38.7019" lon="-0.65488">
        <ele>731</ele>
        <time>2022-10-15 09:55:21</time>
      </trkpt>
      <trkpt lat="38.70191" lon="-0.65491">
        <ele>731</ele>
        <time>2022-10-15 09:55:22</time>
      </trkpt>
      <trkpt lat="38.70193" lon="-0.65494">
        <ele>731.2</ele>
        <time>2022-10-15 09:55:23</time>
      </trkpt>
      <trkpt lat="38.70194" lon="-0.65497">
        <ele>731.2</ele>
        <time>2022-10-15 09:55:24</time>
      </trkpt>
      <trkpt lat="38.70196" lon="-0.65501">
        <ele>731.4</ele>
        <time>2022-10-15 09:55:25</time>
      </trkpt>
      <trkpt lat="38.70198" lon="-0.65504">
        <ele>731.6</ele>
        <time>2022-10-15 09:55:26</time>
      </trkpt>
      <trkpt lat="38.70199" lon="-0.65507">
        <ele>731.8</ele>
        <time>2022-10-15 09:55:27</time>
      </trkpt>
      <trkpt lat="38.70201" lon="-0.6551">
        <ele>731.8</ele>
        <time>2022-10-15 09:55:28</time>
      </trkpt>
      <trkpt lat="38.70202" lon="-0.65513">
        <ele>731.8</ele>
        <time>2022-10-15 09:55:29</time>
      </trkpt>
      <trkpt lat="38.70204" lon="-0.65517">
        <ele>732</ele>
        <time>2022-10-15 09:55:30</time>
      </trkpt>
      <trkpt lat="38.70206" lon="-0.6552">
        <ele>732.2</ele>
        <time>2022-10-15 09:55:31</time>
      </trkpt>
      <trkpt lat="38.70207" lon="-0.65524">
        <ele>732.4</ele>
        <time>2022-10-15 09:55:32</time>
      </trkpt>
      <trkpt lat="38.70208" lon="-0.65527">
        <ele>732.6</ele>
        <time>2022-10-15 09:55:33</time>
      </trkpt>
      <trkpt lat="38.7021" lon="-0.6553">
        <ele>732.8</ele>
        <time>2022-10-15 09:55:34</time>
      </trkpt>
      <trkpt lat="38.70211" lon="-0.65533">
        <ele>733.2</ele>
        <time>2022-10-15 09:55:35</time>
      </trkpt>
      <trkpt lat="38.70212" lon="-0.65537">
        <ele>733.4</ele>
        <time>2022-10-15 09:55:36</time>
      </trkpt>
      <trkpt lat="38.70212" lon="-0.6554">
        <ele>733.6</ele>
        <time>2022-10-15 09:55:37</time>
      </trkpt>
      <trkpt lat="38.70211" lon="-0.65544">
        <ele>734.2</ele>
        <time>2022-10-15 09:55:38</time>
      </trkpt>
      <trkpt lat="38.7021" lon="-0.65547">
        <ele>734.4</ele>
        <time>2022-10-15 09:55:39</time>
      </trkpt>
      <trkpt lat="38.70208" lon="-0.6555">
        <ele>734.4</ele>
        <time>2022-10-15 09:55:40</time>
      </trkpt>
      <trkpt lat="38.70206" lon="-0.65553">
        <ele>734.6</ele>
        <time>2022-10-15 09:55:41</time>
      </trkpt>
      <trkpt lat="38.70203" lon="-0.65559">
        <ele>735.2</ele>
        <time>2022-10-15 09:55:43</time>
      </trkpt>
      <trkpt lat="38.70201" lon="-0.65561">
        <ele>735.4</ele>
        <time>2022-10-15 09:55:44</time>
      </trkpt>
      <trkpt lat="38.702" lon="-0.65564">
        <ele>735.6</ele>
        <time>2022-10-15 09:55:45</time>
      </trkpt>
      <trkpt lat="38.70198" lon="-0.65569">
        <ele>736</ele>
        <time>2022-10-15 09:55:47</time>
      </trkpt>
      <trkpt lat="38.70197" lon="-0.65572">
        <ele>736.2</ele>
        <time>2022-10-15 09:55:48</time>
      </trkpt>
      <trkpt lat="38.70197" lon="-0.65575">
        <ele>736.4</ele>
        <time>2022-10-15 09:55:49</time>
      </trkpt>
      <trkpt lat="38.70196" lon="-0.65578">
        <ele>736.6</ele>
        <time>2022-10-15 09:55:50</time>
      </trkpt>
      <trkpt lat="38.70196" lon="-0.6558">
        <ele>736.8</ele>
        <time>2022-10-15 09:55:51</time>
      </trkpt>
      <trkpt lat="38.70196" lon="-0.65583">
        <ele>737.2</ele>
        <time>2022-10-15 09:55:52</time>
      </trkpt>
      <trkpt lat="38.70196" lon="-0.65586">
        <ele>737.4</ele>
        <time>2022-10-15 09:55:53</time>
      </trkpt>
      <trkpt lat="38.70196" lon="-0.65589">
        <ele>737.8</ele>
        <time>2022-10-15 09:55:54</time>
      </trkpt>
      <trkpt lat="38.70196" lon="-0.65592">
        <ele>738.4</ele>
        <time>2022-10-15 09:55:55</time>
      </trkpt>
      <trkpt lat="38.70196" lon="-0.65595">
        <ele>738.6</ele>
        <time>2022-10-15 09:55:56</time>
      </trkpt>
      <trkpt lat="38.70195" lon="-0.65598">
        <ele>738.6</ele>
        <time>2022-10-15 09:55:57</time>
      </trkpt>
      <trkpt lat="38.70195" lon="-0.65601">
        <ele>739</ele>
        <time>2022-10-15 09:55:58</time>
      </trkpt>
      <trkpt lat="38.70195" lon="-0.65604">
        <ele>739.2</ele>
        <time>2022-10-15 09:55:59</time>
      </trkpt>
      <trkpt lat="38.70195" lon="-0.65607">
        <ele>739.4</ele>
        <time>2022-10-15 09:56:00</time>
      </trkpt>
      <trkpt lat="38.70195" lon="-0.6561">
        <ele>739.8</ele>
        <time>2022-10-15 09:56:01</time>
      </trkpt>
      <trkpt lat="38.70194" lon="-0.65613">
        <ele>740</ele>
        <time>2022-10-15 09:56:02</time>
      </trkpt>
      <trkpt lat="38.70194" lon="-0.65616">
        <ele>740.2</ele>
        <time>2022-10-15 09:56:03</time>
      </trkpt>
      <trkpt lat="38.70193" lon="-0.65619">
        <ele>740.6</ele>
        <time>2022-10-15 09:56:04</time>
      </trkpt>
      <trkpt lat="38.70193" lon="-0.65623">
        <ele>740.8</ele>
        <time>2022-10-15 09:56:05</time>
      </trkpt>
      <trkpt lat="38.70192" lon="-0.65626">
        <ele>741</ele>
        <time>2022-10-15 09:56:06</time>
      </trkpt>
      <trkpt lat="38.70192" lon="-0.65629">
        <ele>741.2</ele>
        <time>2022-10-15 09:56:07</time>
      </trkpt>
      <trkpt lat="38.70191" lon="-0.65632">
        <ele>741.6</ele>
        <time>2022-10-15 09:56:08</time>
      </trkpt>
      <trkpt lat="38.7019" lon="-0.65635">
        <ele>741.8</ele>
        <time>2022-10-15 09:56:09</time>
      </trkpt>
      <trkpt lat="38.7019" lon="-0.65638">
        <ele>742</ele>
        <time>2022-10-15 09:56:10</time>
      </trkpt>
      <trkpt lat="38.70189" lon="-0.65641">
        <ele>742.2</ele>
        <time>2022-10-15 09:56:11</time>
      </trkpt>
      <trkpt lat="38.70188" lon="-0.65643">
        <ele>742.6</ele>
        <time>2022-10-15 09:56:12</time>
      </trkpt>
      <trkpt lat="38.70187" lon="-0.65646">
        <ele>743</ele>
        <time>2022-10-15 09:56:13</time>
      </trkpt>
      <trkpt lat="38.70186" lon="-0.65648">
        <ele>743.2</ele>
        <time>2022-10-15 09:56:14</time>
      </trkpt>
      <trkpt lat="38.70185" lon="-0.6565">
        <ele>743.6</ele>
        <time>2022-10-15 09:56:15</time>
      </trkpt>
      <trkpt lat="38.70184" lon="-0.65652">
        <ele>743.8</ele>
        <time>2022-10-15 09:56:16</time>
      </trkpt>
      <trkpt lat="38.70183" lon="-0.65655">
        <ele>744</ele>
        <time>2022-10-15 09:56:17</time>
      </trkpt>
      <trkpt lat="38.70182" lon="-0.65657">
        <ele>744.4</ele>
        <time>2022-10-15 09:56:18</time>
      </trkpt>
      <trkpt lat="38.70181" lon="-0.6566">
        <ele>744.6</ele>
        <time>2022-10-15 09:56:19</time>
      </trkpt>
      <trkpt lat="38.7018" lon="-0.65663">
        <ele>744.8</ele>
        <time>2022-10-15 09:56:20</time>
      </trkpt>
      <trkpt lat="38.70178" lon="-0.65665">
        <ele>745.2</ele>
        <time>2022-10-15 09:56:21</time>
      </trkpt>
      <trkpt lat="38.70177" lon="-0.65668">
        <ele>745.8</ele>
        <time>2022-10-15 09:56:22</time>
      </trkpt>
      <trkpt lat="38.70175" lon="-0.6567">
        <ele>746</ele>
        <time>2022-10-15 09:56:23</time>
      </trkpt>
      <trkpt lat="38.70173" lon="-0.65672">
        <ele>746.2</ele>
        <time>2022-10-15 09:56:24</time>
      </trkpt>
      <trkpt lat="38.70171" lon="-0.65673">
        <ele>746.4</ele>
        <time>2022-10-15 09:56:25</time>
      </trkpt>
      <trkpt lat="38.70169" lon="-0.65675">
        <ele>746.6</ele>
        <time>2022-10-15 09:56:26</time>
      </trkpt>
      <trkpt lat="38.70167" lon="-0.65676">
        <ele>746.8</ele>
        <time>2022-10-15 09:56:27</time>
      </trkpt>
      <trkpt lat="38.70165" lon="-0.65678">
        <ele>747.2</ele>
        <time>2022-10-15 09:56:28</time>
      </trkpt>
      <trkpt lat="38.70163" lon="-0.65679">
        <ele>747.4</ele>
        <time>2022-10-15 09:56:29</time>
      </trkpt>
      <trkpt lat="38.70162" lon="-0.6568">
        <ele>747.8</ele>
        <time>2022-10-15 09:56:30</time>
      </trkpt>
      <trkpt lat="38.7016" lon="-0.65682">
        <ele>748</ele>
        <time>2022-10-15 09:56:31</time>
      </trkpt>
      <trkpt lat="38.70158" lon="-0.65684">
        <ele>748</ele>
        <time>2022-10-15 09:56:32</time>
      </trkpt>
      <trkpt lat="38.70157" lon="-0.65686">
        <ele>748.2</ele>
        <time>2022-10-15 09:56:33</time>
      </trkpt>
      <trkpt lat="38.70157" lon="-0.65689">
        <ele>748.4</ele>
        <time>2022-10-15 09:56:34</time>
      </trkpt>
      <trkpt lat="38.70156" lon="-0.65691">
        <ele>748.6</ele>
        <time>2022-10-15 09:56:35</time>
      </trkpt>
      <trkpt lat="38.70156" lon="-0.65694">
        <ele>748.8</ele>
        <time>2022-10-15 09:56:36</time>
      </trkpt>
      <trkpt lat="38.70155" lon="-0.65696">
        <ele>749</ele>
        <time>2022-10-15 09:56:37</time>
      </trkpt>
      <trkpt lat="38.70153" lon="-0.65698">
        <ele>749.2</ele>
        <time>2022-10-15 09:56:38</time>
      </trkpt>
      <trkpt lat="38.70151" lon="-0.65699">
        <ele>749.4</ele>
        <time>2022-10-15 09:56:39</time>
      </trkpt>
      <trkpt lat="38.70149" lon="-0.65699">
        <ele>749.4</ele>
        <time>2022-10-15 09:56:40</time>
      </trkpt>
      <trkpt lat="38.70146" lon="-0.657">
        <ele>749.6</ele>
        <time>2022-10-15 09:56:41</time>
      </trkpt>
      <trkpt lat="38.70143" lon="-0.657">
        <ele>749.8</ele>
        <time>2022-10-15 09:56:42</time>
      </trkpt>
      <trkpt lat="38.70141" lon="-0.65701">
        <ele>750</ele>
        <time>2022-10-15 09:56:43</time>
      </trkpt>
      <trkpt lat="38.70138" lon="-0.65701">
        <ele>750.2</ele>
        <time>2022-10-15 09:56:44</time>
      </trkpt>
      <trkpt lat="38.70135" lon="-0.65701">
        <ele>750.4</ele>
        <time>2022-10-15 09:56:45</time>
      </trkpt>
      <trkpt lat="38.70132" lon="-0.65702">
        <ele>750.6</ele>
        <time>2022-10-15 09:56:46</time>
      </trkpt>
      <trkpt lat="38.70129" lon="-0.65702">
        <ele>750.8</ele>
        <time>2022-10-15 09:56:47</time>
      </trkpt>
      <trkpt lat="38.70127" lon="-0.65703">
        <ele>750.8</ele>
        <time>2022-10-15 09:56:48</time>
      </trkpt>
      <trkpt lat="38.70124" lon="-0.65703">
        <ele>750.8</ele>
        <time>2022-10-15 09:56:49</time>
      </trkpt>
      <trkpt lat="38.70121" lon="-0.65703">
        <ele>750.8</ele>
        <time>2022-10-15 09:56:50</time>
      </trkpt>
      <trkpt lat="38.70118" lon="-0.65704">
        <ele>750.8</ele>
        <time>2022-10-15 09:56:51</time>
      </trkpt>
      <trkpt lat="38.70115" lon="-0.65704">
        <ele>750.8</ele>
        <time>2022-10-15 09:56:52</time>
      </trkpt>
      <trkpt lat="38.70112" lon="-0.65705">
        <ele>750.8</ele>
        <time>2022-10-15 09:56:53</time>
      </trkpt>
      <trkpt lat="38.70109" lon="-0.65706">
        <ele>750.8</ele>
        <time>2022-10-15 09:56:54</time>
      </trkpt>
      <trkpt lat="38.70106" lon="-0.65706">
        <ele>750.8</ele>
        <time>2022-10-15 09:56:55</time>
      </trkpt>
      <trkpt lat="38.70104" lon="-0.65707">
        <ele>750.8</ele>
        <time>2022-10-15 09:56:56</time>
      </trkpt>
      <trkpt lat="38.70101" lon="-0.65708">
        <ele>750.8</ele>
        <time>2022-10-15 09:56:57</time>
      </trkpt>
      <trkpt lat="38.70098" lon="-0.65708">
        <ele>750.8</ele>
        <time>2022-10-15 09:56:58</time>
      </trkpt>
      <trkpt lat="38.70095" lon="-0.65709">
        <ele>750.6</ele>
        <time>2022-10-15 09:56:59</time>
      </trkpt>
      <trkpt lat="38.70093" lon="-0.6571">
        <ele>750.6</ele>
        <time>2022-10-15 09:57:00</time>
      </trkpt>
      <trkpt lat="38.7009" lon="-0.6571">
        <ele>750.6</ele>
        <time>2022-10-15 09:57:01</time>
      </trkpt>
      <trkpt lat="38.70087" lon="-0.65711">
        <ele>750.6</ele>
        <time>2022-10-15 09:57:02</time>
      </trkpt>
      <trkpt lat="38.70084" lon="-0.65712">
        <ele>750.6</ele>
        <time>2022-10-15 09:57:03</time>
      </trkpt>
      <trkpt lat="38.70081" lon="-0.65713">
        <ele>750.6</ele>
        <time>2022-10-15 09:57:04</time>
      </trkpt>
      <trkpt lat="38.70078" lon="-0.65714">
        <ele>750.6</ele>
        <time>2022-10-15 09:57:05</time>
      </trkpt>
      <trkpt lat="38.70074" lon="-0.65715">
        <ele>750.6</ele>
        <time>2022-10-15 09:57:06</time>
      </trkpt>
      <trkpt lat="38.70071" lon="-0.65716">
        <ele>750.6</ele>
        <time>2022-10-15 09:57:07</time>
      </trkpt>
      <trkpt lat="38.70067" lon="-0.65717">
        <ele>750.6</ele>
        <time>2022-10-15 09:57:08</time>
      </trkpt>
      <trkpt lat="38.70063" lon="-0.65718">
        <ele>750.6</ele>
        <time>2022-10-15 09:57:09</time>
      </trkpt>
      <trkpt lat="38.7006" lon="-0.65719">
        <ele>750.6</ele>
        <time>2022-10-15 09:57:10</time>
      </trkpt>
      <trkpt lat="38.70056" lon="-0.6572">
        <ele>750.6</ele>
        <time>2022-10-15 09:57:11</time>
      </trkpt>
      <trkpt lat="38.70053" lon="-0.65721">
        <ele>750.6</ele>
        <time>2022-10-15 09:57:12</time>
      </trkpt>
      <trkpt lat="38.70049" lon="-0.65723">
        <ele>750.6</ele>
        <time>2022-10-15 09:57:13</time>
      </trkpt>
      <trkpt lat="38.70046" lon="-0.65724">
        <ele>750.6</ele>
        <time>2022-10-15 09:57:14</time>
      </trkpt>
      <trkpt lat="38.70042" lon="-0.65725">
        <ele>750.6</ele>
        <time>2022-10-15 09:57:15</time>
      </trkpt>
      <trkpt lat="38.70039" lon="-0.65726">
        <ele>750.6</ele>
        <time>2022-10-15 09:57:16</time>
      </trkpt>
      <trkpt lat="38.70035" lon="-0.65728">
        <ele>750.6</ele>
        <time>2022-10-15 09:57:17</time>
      </trkpt>
      <trkpt lat="38.70031" lon="-0.65729">
        <ele>750.6</ele>
        <time>2022-10-15 09:57:18</time>
      </trkpt>
      <trkpt lat="38.70028" lon="-0.6573">
        <ele>750.6</ele>
        <time>2022-10-15 09:57:19</time>
      </trkpt>
      <trkpt lat="38.70024" lon="-0.65731">
        <ele>750.8</ele>
        <time>2022-10-15 09:57:20</time>
      </trkpt>
      <trkpt lat="38.70021" lon="-0.65732">
        <ele>750.8</ele>
        <time>2022-10-15 09:57:21</time>
      </trkpt>
      <trkpt lat="38.70018" lon="-0.65733">
        <ele>750.8</ele>
        <time>2022-10-15 09:57:22</time>
      </trkpt>
      <trkpt lat="38.70014" lon="-0.65734">
        <ele>750.8</ele>
        <time>2022-10-15 09:57:23</time>
      </trkpt>
      <trkpt lat="38.70011" lon="-0.65735">
        <ele>750.8</ele>
        <time>2022-10-15 09:57:24</time>
      </trkpt>
      <trkpt lat="38.70007" lon="-0.65736">
        <ele>750.8</ele>
        <time>2022-10-15 09:57:25</time>
      </trkpt>
      <trkpt lat="38.70003" lon="-0.65737">
        <ele>751</ele>
        <time>2022-10-15 09:57:26</time>
      </trkpt>
      <trkpt lat="38.7" lon="-0.65738">
        <ele>751</ele>
        <time>2022-10-15 09:57:27</time>
      </trkpt>
      <trkpt lat="38.69996" lon="-0.65739">
        <ele>751</ele>
        <time>2022-10-15 09:57:28</time>
      </trkpt>
      <trkpt lat="38.69992" lon="-0.6574">
        <ele>751</ele>
        <time>2022-10-15 09:57:29</time>
      </trkpt>
      <trkpt lat="38.69988" lon="-0.65741">
        <ele>751.2</ele>
        <time>2022-10-15 09:57:30</time>
      </trkpt>
      <trkpt lat="38.69985" lon="-0.65742">
        <ele>751.2</ele>
        <time>2022-10-15 09:57:31</time>
      </trkpt>
      <trkpt lat="38.69982" lon="-0.65743">
        <ele>751.2</ele>
        <time>2022-10-15 09:57:32</time>
      </trkpt>
      <trkpt lat="38.69978" lon="-0.65744">
        <ele>751.2</ele>
        <time>2022-10-15 09:57:33</time>
      </trkpt>
      <trkpt lat="38.69975" lon="-0.65745">
        <ele>751.2</ele>
        <time>2022-10-15 09:57:34</time>
      </trkpt>
      <trkpt lat="38.69972" lon="-0.65746">
        <ele>751.2</ele>
        <time>2022-10-15 09:57:35</time>
      </trkpt>
      <trkpt lat="38.69969" lon="-0.65747">
        <ele>751.4</ele>
        <time>2022-10-15 09:57:36</time>
      </trkpt>
      <trkpt lat="38.69965" lon="-0.65748">
        <ele>751.4</ele>
        <time>2022-10-15 09:57:37</time>
      </trkpt>
      <trkpt lat="38.69962" lon="-0.65749">
        <ele>751.4</ele>
        <time>2022-10-15 09:57:38</time>
      </trkpt>
      <trkpt lat="38.69959" lon="-0.6575">
        <ele>751.4</ele>
        <time>2022-10-15 09:57:39</time>
      </trkpt>
      <trkpt lat="38.69956" lon="-0.65752">
        <ele>751.4</ele>
        <time>2022-10-15 09:57:40</time>
      </trkpt>
      <trkpt lat="38.69953" lon="-0.65753">
        <ele>751.6</ele>
        <time>2022-10-15 09:57:41</time>
      </trkpt>
      <trkpt lat="38.69949" lon="-0.65755">
        <ele>751.6</ele>
        <time>2022-10-15 09:57:42</time>
      </trkpt>
      <trkpt lat="38.69946" lon="-0.65756">
        <ele>751.6</ele>
        <time>2022-10-15 09:57:43</time>
      </trkpt>
      <trkpt lat="38.69942" lon="-0.65758">
        <ele>751.6</ele>
        <time>2022-10-15 09:57:44</time>
      </trkpt>
      <trkpt lat="38.69939" lon="-0.6576">
        <ele>751.6</ele>
        <time>2022-10-15 09:57:45</time>
      </trkpt>
      <trkpt lat="38.69935" lon="-0.65762">
        <ele>751.6</ele>
        <time>2022-10-15 09:57:46</time>
      </trkpt>
      <trkpt lat="38.69932" lon="-0.65764">
        <ele>751.6</ele>
        <time>2022-10-15 09:57:47</time>
      </trkpt>
      <trkpt lat="38.69928" lon="-0.65766">
        <ele>751.6</ele>
        <time>2022-10-15 09:57:48</time>
      </trkpt>
      <trkpt lat="38.69925" lon="-0.65768">
        <ele>751.4</ele>
        <time>2022-10-15 09:57:49</time>
      </trkpt>
      <trkpt lat="38.69922" lon="-0.65771">
        <ele>751.4</ele>
        <time>2022-10-15 09:57:50</time>
      </trkpt>
      <trkpt lat="38.69919" lon="-0.65774">
        <ele>751.2</ele>
        <time>2022-10-15 09:57:51</time>
      </trkpt>
      <trkpt lat="38.69916" lon="-0.65777">
        <ele>751.2</ele>
        <time>2022-10-15 09:57:52</time>
      </trkpt>
      <trkpt lat="38.69914" lon="-0.6578">
        <ele>751.2</ele>
        <time>2022-10-15 09:57:53</time>
      </trkpt>
      <trkpt lat="38.69912" lon="-0.65783">
        <ele>751.2</ele>
        <time>2022-10-15 09:57:54</time>
      </trkpt>
      <trkpt lat="38.6991" lon="-0.65787">
        <ele>751.2</ele>
        <time>2022-10-15 09:57:55</time>
      </trkpt>
      <trkpt lat="38.69907" lon="-0.65791">
        <ele>751.2</ele>
        <time>2022-10-15 09:57:56</time>
      </trkpt>
      <trkpt lat="38.69904" lon="-0.65794">
        <ele>751.2</ele>
        <time>2022-10-15 09:57:57</time>
      </trkpt>
      <trkpt lat="38.69901" lon="-0.65797">
        <ele>751.2</ele>
        <time>2022-10-15 09:57:58</time>
      </trkpt>
      <trkpt lat="38.69898" lon="-0.658">
        <ele>751.2</ele>
        <time>2022-10-15 09:57:59</time>
      </trkpt>
      <trkpt lat="38.69895" lon="-0.65803">
        <ele>750.8</ele>
        <time>2022-10-15 09:58:00</time>
      </trkpt>
      <trkpt lat="38.69892" lon="-0.65806">
        <ele>750.8</ele>
        <time>2022-10-15 09:58:01</time>
      </trkpt>
      <trkpt lat="38.69889" lon="-0.65808">
        <ele>750.8</ele>
        <time>2022-10-15 09:58:02</time>
      </trkpt>
      <trkpt lat="38.69886" lon="-0.6581">
        <ele>751</ele>
        <time>2022-10-15 09:58:03</time>
      </trkpt>
      <trkpt lat="38.69882" lon="-0.65812">
        <ele>751</ele>
        <time>2022-10-15 09:58:04</time>
      </trkpt>
      <trkpt lat="38.69879" lon="-0.65814">
        <ele>751.2</ele>
        <time>2022-10-15 09:58:05</time>
      </trkpt>
      <trkpt lat="38.69876" lon="-0.65816">
        <ele>751.2</ele>
        <time>2022-10-15 09:58:06</time>
      </trkpt>
      <trkpt lat="38.69873" lon="-0.65818">
        <ele>751</ele>
        <time>2022-10-15 09:58:07</time>
      </trkpt>
      <trkpt lat="38.6987" lon="-0.6582">
        <ele>751</ele>
        <time>2022-10-15 09:58:08</time>
      </trkpt>
      <trkpt lat="38.69867" lon="-0.65822">
        <ele>751</ele>
        <time>2022-10-15 09:58:09</time>
      </trkpt>
      <trkpt lat="38.69865" lon="-0.65823">
        <ele>751.4</ele>
        <time>2022-10-15 09:58:10</time>
      </trkpt>
      <trkpt lat="38.69862" lon="-0.65825">
        <ele>751.4</ele>
        <time>2022-10-15 09:58:11</time>
      </trkpt>
      <trkpt lat="38.69859" lon="-0.65827">
        <ele>751.4</ele>
        <time>2022-10-15 09:58:12</time>
      </trkpt>
      <trkpt lat="38.69855" lon="-0.65829">
        <ele>751.2</ele>
        <time>2022-10-15 09:58:13</time>
      </trkpt>
      <trkpt lat="38.69852" lon="-0.65831">
        <ele>751.2</ele>
        <time>2022-10-15 09:58:14</time>
      </trkpt>
      <trkpt lat="38.69849" lon="-0.65832">
        <ele>751.4</ele>
        <time>2022-10-15 09:58:15</time>
      </trkpt>
      <trkpt lat="38.69846" lon="-0.65834">
        <ele>751.4</ele>
        <time>2022-10-15 09:58:16</time>
      </trkpt>
      <trkpt lat="38.69842" lon="-0.65837">
        <ele>751.6</ele>
        <time>2022-10-15 09:58:17</time>
      </trkpt>
      <trkpt lat="38.69839" lon="-0.65839">
        <ele>751.6</ele>
        <time>2022-10-15 09:58:18</time>
      </trkpt>
      <trkpt lat="38.69836" lon="-0.65841">
        <ele>751.6</ele>
        <time>2022-10-15 09:58:19</time>
      </trkpt>
      <trkpt lat="38.69833" lon="-0.65843">
        <ele>751.6</ele>
        <time>2022-10-15 09:58:20</time>
      </trkpt>
      <trkpt lat="38.6983" lon="-0.65845">
        <ele>751.8</ele>
        <time>2022-10-15 09:58:21</time>
      </trkpt>
      <trkpt lat="38.69827" lon="-0.65847">
        <ele>751.8</ele>
        <time>2022-10-15 09:58:22</time>
      </trkpt>
      <trkpt lat="38.69824" lon="-0.65849">
        <ele>751.8</ele>
        <time>2022-10-15 09:58:23</time>
      </trkpt>
      <trkpt lat="38.69821" lon="-0.65851">
        <ele>752</ele>
        <time>2022-10-15 09:58:24</time>
      </trkpt>
      <trkpt lat="38.69818" lon="-0.65853">
        <ele>752</ele>
        <time>2022-10-15 09:58:25</time>
      </trkpt>
      <trkpt lat="38.69815" lon="-0.65855">
        <ele>752.2</ele>
        <time>2022-10-15 09:58:26</time>
      </trkpt>
      <trkpt lat="38.69812" lon="-0.65858">
        <ele>752.2</ele>
        <time>2022-10-15 09:58:27</time>
      </trkpt>
      <trkpt lat="38.69809" lon="-0.6586">
        <ele>752.4</ele>
        <time>2022-10-15 09:58:28</time>
      </trkpt>
      <trkpt lat="38.69805" lon="-0.65862">
        <ele>752.4</ele>
        <time>2022-10-15 09:58:29</time>
      </trkpt>
      <trkpt lat="38.69802" lon="-0.65864">
        <ele>752.4</ele>
        <time>2022-10-15 09:58:30</time>
      </trkpt>
      <trkpt lat="38.69798" lon="-0.65866">
        <ele>752.4</ele>
        <time>2022-10-15 09:58:31</time>
      </trkpt>
      <trkpt lat="38.69795" lon="-0.65868">
        <ele>752.4</ele>
        <time>2022-10-15 09:58:32</time>
      </trkpt>
      <trkpt lat="38.69791" lon="-0.6587">
        <ele>752.6</ele>
        <time>2022-10-15 09:58:33</time>
      </trkpt>
      <trkpt lat="38.69788" lon="-0.65871">
        <ele>752.6</ele>
        <time>2022-10-15 09:58:34</time>
      </trkpt>
      <trkpt lat="38.69785" lon="-0.65873">
        <ele>752.6</ele>
        <time>2022-10-15 09:58:35</time>
      </trkpt>
      <trkpt lat="38.69781" lon="-0.65875">
        <ele>752.6</ele>
        <time>2022-10-15 09:58:36</time>
      </trkpt>
      <trkpt lat="38.69778" lon="-0.65877">
        <ele>752.6</ele>
        <time>2022-10-15 09:58:37</time>
      </trkpt>
      <trkpt lat="38.69774" lon="-0.65879">
        <ele>752.8</ele>
        <time>2022-10-15 09:58:38</time>
      </trkpt>
      <trkpt lat="38.69771" lon="-0.65881">
        <ele>752.8</ele>
        <time>2022-10-15 09:58:39</time>
      </trkpt>
      <trkpt lat="38.69768" lon="-0.65883">
        <ele>752.8</ele>
        <time>2022-10-15 09:58:40</time>
      </trkpt>
      <trkpt lat="38.69765" lon="-0.65885">
        <ele>752.8</ele>
        <time>2022-10-15 09:58:41</time>
      </trkpt>
      <trkpt lat="38.69762" lon="-0.65887">
        <ele>752.8</ele>
        <time>2022-10-15 09:58:42</time>
      </trkpt>
      <trkpt lat="38.69759" lon="-0.65889">
        <ele>752.8</ele>
        <time>2022-10-15 09:58:43</time>
      </trkpt>
      <trkpt lat="38.69756" lon="-0.65892">
        <ele>753</ele>
        <time>2022-10-15 09:58:44</time>
      </trkpt>
      <trkpt lat="38.69753" lon="-0.65894">
        <ele>753</ele>
        <time>2022-10-15 09:58:45</time>
      </trkpt>
      <trkpt lat="38.6975" lon="-0.65896">
        <ele>753</ele>
        <time>2022-10-15 09:58:46</time>
      </trkpt>
      <trkpt lat="38.69747" lon="-0.65898">
        <ele>753</ele>
        <time>2022-10-15 09:58:47</time>
      </trkpt>
      <trkpt lat="38.69744" lon="-0.65899">
        <ele>753</ele>
        <time>2022-10-15 09:58:48</time>
      </trkpt>
      <trkpt lat="38.69742" lon="-0.65901">
        <ele>753</ele>
        <time>2022-10-15 09:58:49</time>
      </trkpt>
      <trkpt lat="38.69739" lon="-0.65903">
        <ele>753</ele>
        <time>2022-10-15 09:58:50</time>
      </trkpt>
      <trkpt lat="38.69735" lon="-0.65905">
        <ele>753.2</ele>
        <time>2022-10-15 09:58:51</time>
      </trkpt>
      <trkpt lat="38.69732" lon="-0.65907">
        <ele>753.2</ele>
        <time>2022-10-15 09:58:52</time>
      </trkpt>
      <trkpt lat="38.69729" lon="-0.65909">
        <ele>753.2</ele>
        <time>2022-10-15 09:58:53</time>
      </trkpt>
      <trkpt lat="38.69726" lon="-0.65912">
        <ele>753.2</ele>
        <time>2022-10-15 09:58:54</time>
      </trkpt>
      <trkpt lat="38.69723" lon="-0.65914">
        <ele>753.2</ele>
        <time>2022-10-15 09:58:55</time>
      </trkpt>
      <trkpt lat="38.6972" lon="-0.65916">
        <ele>753.2</ele>
        <time>2022-10-15 09:58:56</time>
      </trkpt>
      <trkpt lat="38.69716" lon="-0.65917">
        <ele>753.4</ele>
        <time>2022-10-15 09:58:57</time>
      </trkpt>
      <trkpt lat="38.69713" lon="-0.65919">
        <ele>753.4</ele>
        <time>2022-10-15 09:58:58</time>
      </trkpt>
      <trkpt lat="38.69709" lon="-0.6592">
        <ele>753.4</ele>
        <time>2022-10-15 09:58:59</time>
      </trkpt>
      <trkpt lat="38.69705" lon="-0.65922">
        <ele>753.6</ele>
        <time>2022-10-15 09:59:00</time>
      </trkpt>
      <trkpt lat="38.69701" lon="-0.65923">
        <ele>753.6</ele>
        <time>2022-10-15 09:59:01</time>
      </trkpt>
      <trkpt lat="38.69697" lon="-0.65924">
        <ele>753.6</ele>
        <time>2022-10-15 09:59:02</time>
      </trkpt>
      <trkpt lat="38.69693" lon="-0.65925">
        <ele>753.6</ele>
        <time>2022-10-15 09:59:03</time>
      </trkpt>
      <trkpt lat="38.69689" lon="-0.65926">
        <ele>753.8</ele>
        <time>2022-10-15 09:59:04</time>
      </trkpt>
      <trkpt lat="38.69685" lon="-0.65927">
        <ele>753.8</ele>
        <time>2022-10-15 09:59:05</time>
      </trkpt>
      <trkpt lat="38.69681" lon="-0.65927">
        <ele>753.8</ele>
        <time>2022-10-15 09:59:06</time>
      </trkpt>
      <trkpt lat="38.69678" lon="-0.65927">
        <ele>753.8</ele>
        <time>2022-10-15 09:59:07</time>
      </trkpt>
      <trkpt lat="38.69674" lon="-0.65927">
        <ele>753.8</ele>
        <time>2022-10-15 09:59:08</time>
      </trkpt>
      <trkpt lat="38.69671" lon="-0.65926">
        <ele>754</ele>
        <time>2022-10-15 09:59:09</time>
      </trkpt>
      <trkpt lat="38.69667" lon="-0.65926">
        <ele>754</ele>
        <time>2022-10-15 09:59:10</time>
      </trkpt>
      <trkpt lat="38.69663" lon="-0.65925">
        <ele>754</ele>
        <time>2022-10-15 09:59:11</time>
      </trkpt>
      <trkpt lat="38.69659" lon="-0.65924">
        <ele>754</ele>
        <time>2022-10-15 09:59:12</time>
      </trkpt>
      <trkpt lat="38.69656" lon="-0.65923">
        <ele>754</ele>
        <time>2022-10-15 09:59:13</time>
      </trkpt>
      <trkpt lat="38.69652" lon="-0.65921">
        <ele>754</ele>
        <time>2022-10-15 09:59:14</time>
      </trkpt>
      <trkpt lat="38.69648" lon="-0.6592">
        <ele>754</ele>
        <time>2022-10-15 09:59:15</time>
      </trkpt>
      <trkpt lat="38.69645" lon="-0.65919">
        <ele>754</ele>
        <time>2022-10-15 09:59:16</time>
      </trkpt>
      <trkpt lat="38.69641" lon="-0.65918">
        <ele>754</ele>
        <time>2022-10-15 09:59:17</time>
      </trkpt>
      <trkpt lat="38.69637" lon="-0.65917">
        <ele>754.2</ele>
        <time>2022-10-15 09:59:18</time>
      </trkpt>
      <trkpt lat="38.69633" lon="-0.65917">
        <ele>754.2</ele>
        <time>2022-10-15 09:59:19</time>
      </trkpt>
      <trkpt lat="38.69629" lon="-0.65916">
        <ele>754.2</ele>
        <time>2022-10-15 09:59:20</time>
      </trkpt>
      <trkpt lat="38.69626" lon="-0.65916">
        <ele>754.2</ele>
        <time>2022-10-15 09:59:21</time>
      </trkpt>
      <trkpt lat="38.69622" lon="-0.65916">
        <ele>754.2</ele>
        <time>2022-10-15 09:59:22</time>
      </trkpt>
      <trkpt lat="38.69618" lon="-0.65916">
        <ele>754.2</ele>
        <time>2022-10-15 09:59:23</time>
      </trkpt>
      <trkpt lat="38.69614" lon="-0.65916">
        <ele>754.4</ele>
        <time>2022-10-15 09:59:24</time>
      </trkpt>
      <trkpt lat="38.69611" lon="-0.65916">
        <ele>754.4</ele>
        <time>2022-10-15 09:59:25</time>
      </trkpt>
      <trkpt lat="38.69607" lon="-0.65916">
        <ele>754.4</ele>
        <time>2022-10-15 09:59:26</time>
      </trkpt>
      <trkpt lat="38.69604" lon="-0.65917">
        <ele>754.4</ele>
        <time>2022-10-15 09:59:27</time>
      </trkpt>
      <trkpt lat="38.696" lon="-0.65917">
        <ele>754.4</ele>
        <time>2022-10-15 09:59:28</time>
      </trkpt>
      <trkpt lat="38.69597" lon="-0.65918">
        <ele>754.4</ele>
        <time>2022-10-15 09:59:29</time>
      </trkpt>
      <trkpt lat="38.69593" lon="-0.65918">
        <ele>754.6</ele>
        <time>2022-10-15 09:59:30</time>
      </trkpt>
      <trkpt lat="38.6959" lon="-0.65919">
        <ele>754.6</ele>
        <time>2022-10-15 09:59:31</time>
      </trkpt>
      <trkpt lat="38.69586" lon="-0.6592">
        <ele>754.6</ele>
        <time>2022-10-15 09:59:32</time>
      </trkpt>
      <trkpt lat="38.69582" lon="-0.65921">
        <ele>754.6</ele>
        <time>2022-10-15 09:59:33</time>
      </trkpt>
      <trkpt lat="38.69578" lon="-0.65921">
        <ele>754.8</ele>
        <time>2022-10-15 09:59:34</time>
      </trkpt>
      <trkpt lat="38.69574" lon="-0.65922">
        <ele>755</ele>
        <time>2022-10-15 09:59:35</time>
      </trkpt>
      <trkpt lat="38.6957" lon="-0.65923">
        <ele>755</ele>
        <time>2022-10-15 09:59:36</time>
      </trkpt>
      <trkpt lat="38.69566" lon="-0.65924">
        <ele>755</ele>
        <time>2022-10-15 09:59:37</time>
      </trkpt>
      <trkpt lat="38.69562" lon="-0.65925">
        <ele>755.2</ele>
        <time>2022-10-15 09:59:38</time>
      </trkpt>
      <trkpt lat="38.69559" lon="-0.65926">
        <ele>755.4</ele>
        <time>2022-10-15 09:59:39</time>
      </trkpt>
      <trkpt lat="38.69555" lon="-0.65927">
        <ele>755.4</ele>
        <time>2022-10-15 09:59:40</time>
      </trkpt>
      <trkpt lat="38.69552" lon="-0.65928">
        <ele>755.6</ele>
        <time>2022-10-15 09:59:41</time>
      </trkpt>
      <trkpt lat="38.69548" lon="-0.65928">
        <ele>755.6</ele>
        <time>2022-10-15 09:59:42</time>
      </trkpt>
      <trkpt lat="38.69544" lon="-0.6593">
        <ele>755.6</ele>
        <time>2022-10-15 09:59:43</time>
      </trkpt>
      <trkpt lat="38.69541" lon="-0.6593">
        <ele>755.8</ele>
        <time>2022-10-15 09:59:44</time>
      </trkpt>
      <trkpt lat="38.69537" lon="-0.65931">
        <ele>755.8</ele>
        <time>2022-10-15 09:59:45</time>
      </trkpt>
      <trkpt lat="38.69534" lon="-0.65932">
        <ele>755.8</ele>
        <time>2022-10-15 09:59:46</time>
      </trkpt>
      <trkpt lat="38.6953" lon="-0.65933">
        <ele>755.8</ele>
        <time>2022-10-15 09:59:47</time>
      </trkpt>
      <trkpt lat="38.69526" lon="-0.65935">
        <ele>755.8</ele>
        <time>2022-10-15 09:59:48</time>
      </trkpt>
      <trkpt lat="38.69522" lon="-0.65936">
        <ele>756</ele>
        <time>2022-10-15 09:59:49</time>
      </trkpt>
      <trkpt lat="38.69519" lon="-0.65937">
        <ele>756</ele>
        <time>2022-10-15 09:59:50</time>
      </trkpt>
      <trkpt lat="38.69515" lon="-0.65937">
        <ele>756</ele>
        <time>2022-10-15 09:59:51</time>
      </trkpt>
      <trkpt lat="38.69511" lon="-0.65938">
        <ele>756</ele>
        <time>2022-10-15 09:59:52</time>
      </trkpt>
      <trkpt lat="38.69508" lon="-0.65938">
        <ele>756.2</ele>
        <time>2022-10-15 09:59:53</time>
      </trkpt>
      <trkpt lat="38.69504" lon="-0.65939">
        <ele>756.4</ele>
        <time>2022-10-15 09:59:54</time>
      </trkpt>
      <trkpt lat="38.695" lon="-0.65939">
        <ele>756.4</ele>
        <time>2022-10-15 09:59:55</time>
      </trkpt>
      <trkpt lat="38.69496" lon="-0.65939">
        <ele>756.6</ele>
        <time>2022-10-15 09:59:56</time>
      </trkpt>
      <trkpt lat="38.69493" lon="-0.65938">
        <ele>756.8</ele>
        <time>2022-10-15 09:59:57</time>
      </trkpt>
      <trkpt lat="38.69489" lon="-0.65938">
        <ele>756.8</ele>
        <time>2022-10-15 09:59:58</time>
      </trkpt>
      <trkpt lat="38.69485" lon="-0.65938">
        <ele>756.8</ele>
        <time>2022-10-15 09:59:59</time>
      </trkpt>
      <trkpt lat="38.69481" lon="-0.65938">
        <ele>757</ele>
        <time>2022-10-15 10:00:00</time>
      </trkpt>
      <trkpt lat="38.69478" lon="-0.65937">
        <ele>757.2</ele>
        <time>2022-10-15 10:00:01</time>
      </trkpt>
      <trkpt lat="38.69474" lon="-0.65937">
        <ele>757.4</ele>
        <time>2022-10-15 10:00:02</time>
      </trkpt>
      <trkpt lat="38.6947" lon="-0.65936">
        <ele>757.4</ele>
        <time>2022-10-15 10:00:03</time>
      </trkpt>
      <trkpt lat="38.69467" lon="-0.65936">
        <ele>757.4</ele>
        <time>2022-10-15 10:00:04</time>
      </trkpt>
      <trkpt lat="38.69463" lon="-0.65936">
        <ele>757.6</ele>
        <time>2022-10-15 10:00:05</time>
      </trkpt>
      <trkpt lat="38.6946" lon="-0.65935">
        <ele>757.8</ele>
        <time>2022-10-15 10:00:06</time>
      </trkpt>
      <trkpt lat="38.69457" lon="-0.65935">
        <ele>758</ele>
        <time>2022-10-15 10:00:07</time>
      </trkpt>
      <trkpt lat="38.69453" lon="-0.65935">
        <ele>758.2</ele>
        <time>2022-10-15 10:00:08</time>
      </trkpt>
      <trkpt lat="38.6945" lon="-0.65935">
        <ele>758.2</ele>
        <time>2022-10-15 10:00:09</time>
      </trkpt>
      <trkpt lat="38.69447" lon="-0.65935">
        <ele>758.4</ele>
        <time>2022-10-15 10:00:10</time>
      </trkpt>
      <trkpt lat="38.69444" lon="-0.65934">
        <ele>758.6</ele>
        <time>2022-10-15 10:00:11</time>
      </trkpt>
      <trkpt lat="38.69441" lon="-0.65934">
        <ele>758.6</ele>
        <time>2022-10-15 10:00:12</time>
      </trkpt>
      <trkpt lat="38.69437" lon="-0.65934">
        <ele>758.8</ele>
        <time>2022-10-15 10:00:13</time>
      </trkpt>
      <trkpt lat="38.69434" lon="-0.65934">
        <ele>759</ele>
        <time>2022-10-15 10:00:14</time>
      </trkpt>
      <trkpt lat="38.69431" lon="-0.65935">
        <ele>759.2</ele>
        <time>2022-10-15 10:00:15</time>
      </trkpt>
      <trkpt lat="38.69427" lon="-0.65935">
        <ele>759.4</ele>
        <time>2022-10-15 10:00:16</time>
      </trkpt>
      <trkpt lat="38.69424" lon="-0.65936">
        <ele>759.4</ele>
        <time>2022-10-15 10:00:17</time>
      </trkpt>
      <trkpt lat="38.69421" lon="-0.65936">
        <ele>759.6</ele>
        <time>2022-10-15 10:00:18</time>
      </trkpt>
      <trkpt lat="38.69417" lon="-0.65937">
        <ele>759.6</ele>
        <time>2022-10-15 10:00:19</time>
      </trkpt>
      <trkpt lat="38.69414" lon="-0.65938">
        <ele>759.8</ele>
        <time>2022-10-15 10:00:20</time>
      </trkpt>
      <trkpt lat="38.6941" lon="-0.65939">
        <ele>760</ele>
        <time>2022-10-15 10:00:21</time>
      </trkpt>
      <trkpt lat="38.69407" lon="-0.6594">
        <ele>760</ele>
        <time>2022-10-15 10:00:22</time>
      </trkpt>
      <trkpt lat="38.69403" lon="-0.6594">
        <ele>760.2</ele>
        <time>2022-10-15 10:00:23</time>
      </trkpt>
      <trkpt lat="38.694" lon="-0.65942">
        <ele>760.4</ele>
        <time>2022-10-15 10:00:24</time>
      </trkpt>
      <trkpt lat="38.69396" lon="-0.65943">
        <ele>760.6</ele>
        <time>2022-10-15 10:00:25</time>
      </trkpt>
      <trkpt lat="38.69393" lon="-0.65944">
        <ele>760.8</ele>
        <time>2022-10-15 10:00:26</time>
      </trkpt>
      <trkpt lat="38.69389" lon="-0.65946">
        <ele>760.8</ele>
        <time>2022-10-15 10:00:27</time>
      </trkpt>
      <trkpt lat="38.69386" lon="-0.65947">
        <ele>761</ele>
        <time>2022-10-15 10:00:28</time>
      </trkpt>
      <trkpt lat="38.69383" lon="-0.65948">
        <ele>761.2</ele>
        <time>2022-10-15 10:00:29</time>
      </trkpt>
      <trkpt lat="38.69379" lon="-0.65949">
        <ele>761.2</ele>
        <time>2022-10-15 10:00:30</time>
      </trkpt>
      <trkpt lat="38.69376" lon="-0.6595">
        <ele>761.4</ele>
        <time>2022-10-15 10:00:31</time>
      </trkpt>
      <trkpt lat="38.69373" lon="-0.65951">
        <ele>761.6</ele>
        <time>2022-10-15 10:00:32</time>
      </trkpt>
      <trkpt lat="38.69369" lon="-0.65953">
        <ele>761.8</ele>
        <time>2022-10-15 10:00:33</time>
      </trkpt>
      <trkpt lat="38.69366" lon="-0.65954">
        <ele>761.8</ele>
        <time>2022-10-15 10:00:34</time>
      </trkpt>
      <trkpt lat="38.69362" lon="-0.65955">
        <ele>762.2</ele>
        <time>2022-10-15 10:00:35</time>
      </trkpt>
      <trkpt lat="38.69359" lon="-0.65956">
        <ele>762.2</ele>
        <time>2022-10-15 10:00:36</time>
      </trkpt>
      <trkpt lat="38.69356" lon="-0.65957">
        <ele>762.4</ele>
        <time>2022-10-15 10:00:37</time>
      </trkpt>
      <trkpt lat="38.69353" lon="-0.65958">
        <ele>762.6</ele>
        <time>2022-10-15 10:00:38</time>
      </trkpt>
      <trkpt lat="38.69349" lon="-0.65959">
        <ele>763</ele>
        <time>2022-10-15 10:00:39</time>
      </trkpt>
      <trkpt lat="38.69346" lon="-0.6596">
        <ele>763.2</ele>
        <time>2022-10-15 10:00:40</time>
      </trkpt>
      <trkpt lat="38.69343" lon="-0.65961">
        <ele>763.6</ele>
        <time>2022-10-15 10:00:41</time>
      </trkpt>
      <trkpt lat="38.6934" lon="-0.65962">
        <ele>763.8</ele>
        <time>2022-10-15 10:00:42</time>
      </trkpt>
      <trkpt lat="38.69336" lon="-0.65962">
        <ele>764</ele>
        <time>2022-10-15 10:00:43</time>
      </trkpt>
      <trkpt lat="38.69333" lon="-0.65963">
        <ele>764.2</ele>
        <time>2022-10-15 10:00:44</time>
      </trkpt>
      <trkpt lat="38.6933" lon="-0.65964">
        <ele>764.4</ele>
        <time>2022-10-15 10:00:45</time>
      </trkpt>
      <trkpt lat="38.69327" lon="-0.65964">
        <ele>764.4</ele>
        <time>2022-10-15 10:00:46</time>
      </trkpt>
      <trkpt lat="38.69324" lon="-0.65965">
        <ele>764.6</ele>
        <time>2022-10-15 10:00:47</time>
      </trkpt>
      <trkpt lat="38.69321" lon="-0.65965">
        <ele>764.8</ele>
        <time>2022-10-15 10:00:48</time>
      </trkpt>
      <trkpt lat="38.69318" lon="-0.65966">
        <ele>765</ele>
        <time>2022-10-15 10:00:49</time>
      </trkpt>
      <trkpt lat="38.69315" lon="-0.65966">
        <ele>765.2</ele>
        <time>2022-10-15 10:00:50</time>
      </trkpt>
      <trkpt lat="38.69312" lon="-0.65967">
        <ele>765.4</ele>
        <time>2022-10-15 10:00:51</time>
      </trkpt>
      <trkpt lat="38.69309" lon="-0.65967">
        <ele>765.4</ele>
        <time>2022-10-15 10:00:52</time>
      </trkpt>
      <trkpt lat="38.69306" lon="-0.65968">
        <ele>765.6</ele>
        <time>2022-10-15 10:00:53</time>
      </trkpt>
      <trkpt lat="38.69303" lon="-0.65968">
        <ele>765.8</ele>
        <time>2022-10-15 10:00:54</time>
      </trkpt>
      <trkpt lat="38.693" lon="-0.65969">
        <ele>765.8</ele>
        <time>2022-10-15 10:00:55</time>
      </trkpt>
      <trkpt lat="38.69297" lon="-0.65969">
        <ele>766</ele>
        <time>2022-10-15 10:00:56</time>
      </trkpt>
      <trkpt lat="38.69293" lon="-0.6597">
        <ele>766.2</ele>
        <time>2022-10-15 10:00:57</time>
      </trkpt>
      <trkpt lat="38.6929" lon="-0.6597">
        <ele>766.2</ele>
        <time>2022-10-15 10:00:58</time>
      </trkpt>
      <trkpt lat="38.69287" lon="-0.65971">
        <ele>766.4</ele>
        <time>2022-10-15 10:00:59</time>
      </trkpt>
      <trkpt lat="38.69284" lon="-0.65972">
        <ele>766.6</ele>
        <time>2022-10-15 10:01:00</time>
      </trkpt>
      <trkpt lat="38.69281" lon="-0.65973">
        <ele>766.8</ele>
        <time>2022-10-15 10:01:01</time>
      </trkpt>
      <trkpt lat="38.69278" lon="-0.65974">
        <ele>767</ele>
        <time>2022-10-15 10:01:02</time>
      </trkpt>
      <trkpt lat="38.69275" lon="-0.65975">
        <ele>767.2</ele>
        <time>2022-10-15 10:01:03</time>
      </trkpt>
      <trkpt lat="38.69272" lon="-0.65976">
        <ele>767.4</ele>
        <time>2022-10-15 10:01:04</time>
      </trkpt>
      <trkpt lat="38.69269" lon="-0.65977">
        <ele>767.6</ele>
        <time>2022-10-15 10:01:05</time>
      </trkpt>
      <trkpt lat="38.69266" lon="-0.65979">
        <ele>767.8</ele>
        <time>2022-10-15 10:01:06</time>
      </trkpt>
      <trkpt lat="38.69263" lon="-0.6598">
        <ele>767.8</ele>
        <time>2022-10-15 10:01:07</time>
      </trkpt>
      <trkpt lat="38.6926" lon="-0.65981">
        <ele>768</ele>
        <time>2022-10-15 10:01:08</time>
      </trkpt>
      <trkpt lat="38.69257" lon="-0.65983">
        <ele>768.2</ele>
        <time>2022-10-15 10:01:09</time>
      </trkpt>
      <trkpt lat="38.69254" lon="-0.65984">
        <ele>768.2</ele>
        <time>2022-10-15 10:01:10</time>
      </trkpt>
      <trkpt lat="38.69251" lon="-0.65986">
        <ele>768.2</ele>
        <time>2022-10-15 10:01:11</time>
      </trkpt>
      <trkpt lat="38.69249" lon="-0.65988">
        <ele>768.4</ele>
        <time>2022-10-15 10:01:12</time>
      </trkpt>
      <trkpt lat="38.69246" lon="-0.65989">
        <ele>768.4</ele>
        <time>2022-10-15 10:01:13</time>
      </trkpt>
      <trkpt lat="38.69243" lon="-0.65991">
        <ele>768.4</ele>
        <time>2022-10-15 10:01:14</time>
      </trkpt>
      <trkpt lat="38.6924" lon="-0.65992">
        <ele>768.4</ele>
        <time>2022-10-15 10:01:15</time>
      </trkpt>
      <trkpt lat="38.69238" lon="-0.65994">
        <ele>768.4</ele>
        <time>2022-10-15 10:01:16</time>
      </trkpt>
      <trkpt lat="38.69235" lon="-0.65995">
        <ele>768.6</ele>
        <time>2022-10-15 10:01:17</time>
      </trkpt>
      <trkpt lat="38.69232" lon="-0.65997">
        <ele>768.8</ele>
        <time>2022-10-15 10:01:18</time>
      </trkpt>
      <trkpt lat="38.6923" lon="-0.65998">
        <ele>769</ele>
        <time>2022-10-15 10:01:19</time>
      </trkpt>
      <trkpt lat="38.69227" lon="-0.66">
        <ele>769</ele>
        <time>2022-10-15 10:01:20</time>
      </trkpt>
      <trkpt lat="38.69224" lon="-0.66001">
        <ele>769</ele>
        <time>2022-10-15 10:01:21</time>
      </trkpt>
      <trkpt lat="38.69221" lon="-0.66003">
        <ele>769.2</ele>
        <time>2022-10-15 10:01:22</time>
      </trkpt>
      <trkpt lat="38.69219" lon="-0.66004">
        <ele>769.4</ele>
        <time>2022-10-15 10:01:23</time>
      </trkpt>
      <trkpt lat="38.69216" lon="-0.66005">
        <ele>769.6</ele>
        <time>2022-10-15 10:01:24</time>
      </trkpt>
      <trkpt lat="38.69213" lon="-0.66007">
        <ele>769.6</ele>
        <time>2022-10-15 10:01:25</time>
      </trkpt>
      <trkpt lat="38.6921" lon="-0.66008">
        <ele>769.8</ele>
        <time>2022-10-15 10:01:26</time>
      </trkpt>
      <trkpt lat="38.69207" lon="-0.66009">
        <ele>770</ele>
        <time>2022-10-15 10:01:27</time>
      </trkpt>
      <trkpt lat="38.69204" lon="-0.6601">
        <ele>770.2</ele>
        <time>2022-10-15 10:01:28</time>
      </trkpt>
      <trkpt lat="38.69201" lon="-0.66012">
        <ele>770.4</ele>
        <time>2022-10-15 10:01:29</time>
      </trkpt>
      <trkpt lat="38.69198" lon="-0.66013">
        <ele>770.4</ele>
        <time>2022-10-15 10:01:30</time>
      </trkpt>
      <trkpt lat="38.69195" lon="-0.66014">
        <ele>770.6</ele>
        <time>2022-10-15 10:01:31</time>
      </trkpt>
      <trkpt lat="38.69193" lon="-0.66015">
        <ele>770.6</ele>
        <time>2022-10-15 10:01:32</time>
      </trkpt>
      <trkpt lat="38.6919" lon="-0.66017">
        <ele>770.8</ele>
        <time>2022-10-15 10:01:33</time>
      </trkpt>
      <trkpt lat="38.69187" lon="-0.66018">
        <ele>771</ele>
        <time>2022-10-15 10:01:34</time>
      </trkpt>
      <trkpt lat="38.69184" lon="-0.66019">
        <ele>771</ele>
        <time>2022-10-15 10:01:35</time>
      </trkpt>
      <trkpt lat="38.69181" lon="-0.66021">
        <ele>771.2</ele>
        <time>2022-10-15 10:01:36</time>
      </trkpt>
      <trkpt lat="38.69178" lon="-0.66022">
        <ele>771.2</ele>
        <time>2022-10-15 10:01:37</time>
      </trkpt>
      <trkpt lat="38.69175" lon="-0.66024">
        <ele>771.4</ele>
        <time>2022-10-15 10:01:38</time>
      </trkpt>
      <trkpt lat="38.69172" lon="-0.66026">
        <ele>771.4</ele>
        <time>2022-10-15 10:01:39</time>
      </trkpt>
      <trkpt lat="38.6917" lon="-0.66027">
        <ele>771.4</ele>
        <time>2022-10-15 10:01:40</time>
      </trkpt>
      <trkpt lat="38.69167" lon="-0.66029">
        <ele>771.6</ele>
        <time>2022-10-15 10:01:41</time>
      </trkpt>
      <trkpt lat="38.69164" lon="-0.66031">
        <ele>771.6</ele>
        <time>2022-10-15 10:01:42</time>
      </trkpt>
      <trkpt lat="38.69161" lon="-0.66033">
        <ele>771.8</ele>
        <time>2022-10-15 10:01:43</time>
      </trkpt>
      <trkpt lat="38.69158" lon="-0.66035">
        <ele>771.8</ele>
        <time>2022-10-15 10:01:44</time>
      </trkpt>
      <trkpt lat="38.69155" lon="-0.66036">
        <ele>772</ele>
        <time>2022-10-15 10:01:45</time>
      </trkpt>
      <trkpt lat="38.69152" lon="-0.66038">
        <ele>772</ele>
        <time>2022-10-15 10:01:46</time>
      </trkpt>
      <trkpt lat="38.6915" lon="-0.6604">
        <ele>772.2</ele>
        <time>2022-10-15 10:01:47</time>
      </trkpt>
      <trkpt lat="38.69147" lon="-0.66042">
        <ele>772.2</ele>
        <time>2022-10-15 10:01:48</time>
      </trkpt>
      <trkpt lat="38.69144" lon="-0.66043">
        <ele>772.2</ele>
        <time>2022-10-15 10:01:49</time>
      </trkpt>
      <trkpt lat="38.69141" lon="-0.66045">
        <ele>772.2</ele>
        <time>2022-10-15 10:01:50</time>
      </trkpt>
      <trkpt lat="38.69138" lon="-0.66047">
        <ele>772.4</ele>
        <time>2022-10-15 10:01:51</time>
      </trkpt>
      <trkpt lat="38.69135" lon="-0.66049">
        <ele>772.4</ele>
        <time>2022-10-15 10:01:52</time>
      </trkpt>
      <trkpt lat="38.69133" lon="-0.66051">
        <ele>772.4</ele>
        <time>2022-10-15 10:01:53</time>
      </trkpt>
      <trkpt lat="38.6913" lon="-0.66053">
        <ele>772.6</ele>
        <time>2022-10-15 10:01:54</time>
      </trkpt>
      <trkpt lat="38.69127" lon="-0.66055">
        <ele>772.6</ele>
        <time>2022-10-15 10:01:55</time>
      </trkpt>
      <trkpt lat="38.69125" lon="-0.66058">
        <ele>772.6</ele>
        <time>2022-10-15 10:01:56</time>
      </trkpt>
      <trkpt lat="38.69122" lon="-0.6606">
        <ele>772.6</ele>
        <time>2022-10-15 10:01:57</time>
      </trkpt>
      <trkpt lat="38.6912" lon="-0.66062">
        <ele>772.6</ele>
        <time>2022-10-15 10:01:58</time>
      </trkpt>
      <trkpt lat="38.69117" lon="-0.66064">
        <ele>772.8</ele>
        <time>2022-10-15 10:01:59</time>
      </trkpt>
      <trkpt lat="38.69115" lon="-0.66067">
        <ele>772.8</ele>
        <time>2022-10-15 10:02:00</time>
      </trkpt>
      <trkpt lat="38.69112" lon="-0.66069">
        <ele>773</ele>
        <time>2022-10-15 10:02:01</time>
      </trkpt>
      <trkpt lat="38.69109" lon="-0.66071">
        <ele>773</ele>
        <time>2022-10-15 10:02:02</time>
      </trkpt>
      <trkpt lat="38.69107" lon="-0.66074">
        <ele>773</ele>
        <time>2022-10-15 10:02:03</time>
      </trkpt>
      <trkpt lat="38.69104" lon="-0.66076">
        <ele>773.2</ele>
        <time>2022-10-15 10:02:04</time>
      </trkpt>
      <trkpt lat="38.69101" lon="-0.66078">
        <ele>773.2</ele>
        <time>2022-10-15 10:02:05</time>
      </trkpt>
      <trkpt lat="38.69099" lon="-0.66081">
        <ele>773.2</ele>
        <time>2022-10-15 10:02:06</time>
      </trkpt>
      <trkpt lat="38.69096" lon="-0.66083">
        <ele>773.4</ele>
        <time>2022-10-15 10:02:07</time>
      </trkpt>
      <trkpt lat="38.69094" lon="-0.66086">
        <ele>773.4</ele>
        <time>2022-10-15 10:02:08</time>
      </trkpt>
      <trkpt lat="38.69091" lon="-0.66089">
        <ele>773.4</ele>
        <time>2022-10-15 10:02:09</time>
      </trkpt>
      <trkpt lat="38.69088" lon="-0.66091">
        <ele>773.4</ele>
        <time>2022-10-15 10:02:10</time>
      </trkpt>
      <trkpt lat="38.69086" lon="-0.66094">
        <ele>773.4</ele>
        <time>2022-10-15 10:02:11</time>
      </trkpt>
      <trkpt lat="38.69084" lon="-0.66097">
        <ele>773.6</ele>
        <time>2022-10-15 10:02:12</time>
      </trkpt>
      <trkpt lat="38.69081" lon="-0.66099">
        <ele>773.6</ele>
        <time>2022-10-15 10:02:13</time>
      </trkpt>
      <trkpt lat="38.69079" lon="-0.66103">
        <ele>773.6</ele>
        <time>2022-10-15 10:02:14</time>
      </trkpt>
      <trkpt lat="38.69077" lon="-0.66106">
        <ele>773.8</ele>
        <time>2022-10-15 10:02:15</time>
      </trkpt>
      <trkpt lat="38.69075" lon="-0.66109">
        <ele>773.8</ele>
        <time>2022-10-15 10:02:16</time>
      </trkpt>
      <trkpt lat="38.69073" lon="-0.66113">
        <ele>773.8</ele>
        <time>2022-10-15 10:02:17</time>
      </trkpt>
      <trkpt lat="38.69072" lon="-0.66116">
        <ele>774</ele>
        <time>2022-10-15 10:02:18</time>
      </trkpt>
      <trkpt lat="38.6907" lon="-0.6612">
        <ele>774</ele>
        <time>2022-10-15 10:02:19</time>
      </trkpt>
      <trkpt lat="38.69068" lon="-0.66124">
        <ele>774</ele>
        <time>2022-10-15 10:02:20</time>
      </trkpt>
      <trkpt lat="38.69066" lon="-0.66127">
        <ele>774.2</ele>
        <time>2022-10-15 10:02:21</time>
      </trkpt>
      <trkpt lat="38.69065" lon="-0.66131">
        <ele>774.4</ele>
        <time>2022-10-15 10:02:22</time>
      </trkpt>
      <trkpt lat="38.69063" lon="-0.66135">
        <ele>774.6</ele>
        <time>2022-10-15 10:02:23</time>
      </trkpt>
      <trkpt lat="38.69061" lon="-0.66138">
        <ele>774.6</ele>
        <time>2022-10-15 10:02:24</time>
      </trkpt>
      <trkpt lat="38.69059" lon="-0.66142">
        <ele>774.8</ele>
        <time>2022-10-15 10:02:25</time>
      </trkpt>
      <trkpt lat="38.69057" lon="-0.66146">
        <ele>775</ele>
        <time>2022-10-15 10:02:26</time>
      </trkpt>
      <trkpt lat="38.69056" lon="-0.66149">
        <ele>775.4</ele>
        <time>2022-10-15 10:02:27</time>
      </trkpt>
      <trkpt lat="38.69054" lon="-0.66153">
        <ele>775.4</ele>
        <time>2022-10-15 10:02:28</time>
      </trkpt>
      <trkpt lat="38.69052" lon="-0.66157">
        <ele>775.4</ele>
        <time>2022-10-15 10:02:29</time>
      </trkpt>
      <trkpt lat="38.6905" lon="-0.66161">
        <ele>775.4</ele>
        <time>2022-10-15 10:02:30</time>
      </trkpt>
      <trkpt lat="38.69048" lon="-0.66165">
        <ele>775.4</ele>
        <time>2022-10-15 10:02:31</time>
      </trkpt>
      <trkpt lat="38.69045" lon="-0.6617">
        <ele>775.6</ele>
        <time>2022-10-15 10:02:32</time>
      </trkpt>
      <trkpt lat="38.69043" lon="-0.66174">
        <ele>775.6</ele>
        <time>2022-10-15 10:02:33</time>
      </trkpt>
      <trkpt lat="38.69041" lon="-0.66179">
        <ele>775.6</ele>
        <time>2022-10-15 10:02:34</time>
      </trkpt>
      <trkpt lat="38.69039" lon="-0.66184">
        <ele>775.6</ele>
        <time>2022-10-15 10:02:35</time>
      </trkpt>
      <trkpt lat="38.69037" lon="-0.66189">
        <ele>775.6</ele>
        <time>2022-10-15 10:02:36</time>
      </trkpt>
      <trkpt lat="38.69036" lon="-0.66195">
        <ele>775.6</ele>
        <time>2022-10-15 10:02:37</time>
      </trkpt>
      <trkpt lat="38.69034" lon="-0.66202">
        <ele>775.4</ele>
        <time>2022-10-15 10:02:38</time>
      </trkpt>
      <trkpt lat="38.69031" lon="-0.66209">
        <ele>775.2</ele>
        <time>2022-10-15 10:02:39</time>
      </trkpt>
      <trkpt lat="38.69029" lon="-0.66215">
        <ele>775.2</ele>
        <time>2022-10-15 10:02:40</time>
      </trkpt>
      <trkpt lat="38.69025" lon="-0.66221">
        <ele>775.2</ele>
        <time>2022-10-15 10:02:41</time>
      </trkpt>
      <trkpt lat="38.69021" lon="-0.66227">
        <ele>775</ele>
        <time>2022-10-15 10:02:42</time>
      </trkpt>
      <trkpt lat="38.69017" lon="-0.66231">
        <ele>774.6</ele>
        <time>2022-10-15 10:02:43</time>
      </trkpt>
      <trkpt lat="38.69012" lon="-0.66235">
        <ele>774.4</ele>
        <time>2022-10-15 10:02:44</time>
      </trkpt>
      <trkpt lat="38.69008" lon="-0.66238">
        <ele>773.8</ele>
        <time>2022-10-15 10:02:45</time>
      </trkpt>
      <trkpt lat="38.69003" lon="-0.66241">
        <ele>773.4</ele>
        <time>2022-10-15 10:02:46</time>
      </trkpt>
      <trkpt lat="38.68999" lon="-0.66243">
        <ele>773</ele>
        <time>2022-10-15 10:02:47</time>
      </trkpt>
      <trkpt lat="38.68995" lon="-0.66246">
        <ele>772.8</ele>
        <time>2022-10-15 10:02:48</time>
      </trkpt>
      <trkpt lat="38.68991" lon="-0.66248">
        <ele>772.8</ele>
        <time>2022-10-15 10:02:49</time>
      </trkpt>
      <trkpt lat="38.68987" lon="-0.6625">
        <ele>772.6</ele>
        <time>2022-10-15 10:02:50</time>
      </trkpt>
      <trkpt lat="38.68982" lon="-0.6625">
        <ele>772.6</ele>
        <time>2022-10-15 10:02:51</time>
      </trkpt>
      <trkpt lat="38.68978" lon="-0.66249">
        <ele>772.6</ele>
        <time>2022-10-15 10:02:52</time>
      </trkpt>
      <trkpt lat="38.68975" lon="-0.66247">
        <ele>772.6</ele>
        <time>2022-10-15 10:02:53</time>
      </trkpt>
      <trkpt lat="38.68972" lon="-0.66243">
        <ele>772.6</ele>
        <time>2022-10-15 10:02:54</time>
      </trkpt>
      <trkpt lat="38.68969" lon="-0.66239">
        <ele>772.6</ele>
        <time>2022-10-15 10:02:55</time>
      </trkpt>
      <trkpt lat="38.68967" lon="-0.66235">
        <ele>772.6</ele>
        <time>2022-10-15 10:02:56</time>
      </trkpt>
      <trkpt lat="38.68964" lon="-0.66231">
        <ele>772.6</ele>
        <time>2022-10-15 10:02:57</time>
      </trkpt>
      <trkpt lat="38.68961" lon="-0.66227">
        <ele>772.8</ele>
        <time>2022-10-15 10:02:58</time>
      </trkpt>
      <trkpt lat="38.68958" lon="-0.66224">
        <ele>773</ele>
        <time>2022-10-15 10:02:59</time>
      </trkpt>
      <trkpt lat="38.68955" lon="-0.66221">
        <ele>773</ele>
        <time>2022-10-15 10:03:00</time>
      </trkpt>
      <trkpt lat="38.68951" lon="-0.66218">
        <ele>773.2</ele>
        <time>2022-10-15 10:03:01</time>
      </trkpt>
      <trkpt lat="38.68947" lon="-0.66216">
        <ele>773.2</ele>
        <time>2022-10-15 10:03:02</time>
      </trkpt>
      <trkpt lat="38.68943" lon="-0.66215">
        <ele>773.2</ele>
        <time>2022-10-15 10:03:03</time>
      </trkpt>
      <trkpt lat="38.68939" lon="-0.66215">
        <ele>773.2</ele>
        <time>2022-10-15 10:03:04</time>
      </trkpt>
      <trkpt lat="38.68935" lon="-0.66215">
        <ele>773.2</ele>
        <time>2022-10-15 10:03:05</time>
      </trkpt>
      <trkpt lat="38.68931" lon="-0.66215">
        <ele>773.2</ele>
        <time>2022-10-15 10:03:06</time>
      </trkpt>
      <trkpt lat="38.68928" lon="-0.66216">
        <ele>773.2</ele>
        <time>2022-10-15 10:03:07</time>
      </trkpt>
      <trkpt lat="38.68924" lon="-0.66218">
        <ele>773.4</ele>
        <time>2022-10-15 10:03:08</time>
      </trkpt>
      <trkpt lat="38.68921" lon="-0.6622">
        <ele>773.4</ele>
        <time>2022-10-15 10:03:09</time>
      </trkpt>
      <trkpt lat="38.68917" lon="-0.66221">
        <ele>773.4</ele>
        <time>2022-10-15 10:03:10</time>
      </trkpt>
      <trkpt lat="38.68914" lon="-0.66223">
        <ele>773.4</ele>
        <time>2022-10-15 10:03:11</time>
      </trkpt>
      <trkpt lat="38.6891" lon="-0.66225">
        <ele>773.4</ele>
        <time>2022-10-15 10:03:12</time>
      </trkpt>
      <trkpt lat="38.68907" lon="-0.66227">
        <ele>773.4</ele>
        <time>2022-10-15 10:03:13</time>
      </trkpt>
      <trkpt lat="38.68904" lon="-0.66229">
        <ele>773.4</ele>
        <time>2022-10-15 10:03:14</time>
      </trkpt>
      <trkpt lat="38.689" lon="-0.66232">
        <ele>773.6</ele>
        <time>2022-10-15 10:03:15</time>
      </trkpt>
      <trkpt lat="38.68897" lon="-0.66234">
        <ele>773.6</ele>
        <time>2022-10-15 10:03:16</time>
      </trkpt>
      <trkpt lat="38.68894" lon="-0.66237">
        <ele>773.8</ele>
        <time>2022-10-15 10:03:17</time>
      </trkpt>
      <trkpt lat="38.6889" lon="-0.66239">
        <ele>773.8</ele>
        <time>2022-10-15 10:03:18</time>
      </trkpt>
      <trkpt lat="38.68886" lon="-0.66242">
        <ele>773.8</ele>
        <time>2022-10-15 10:03:19</time>
      </trkpt>
      <trkpt lat="38.68883" lon="-0.66245">
        <ele>773.8</ele>
        <time>2022-10-15 10:03:20</time>
      </trkpt>
      <trkpt lat="38.68879" lon="-0.66249">
        <ele>773.8</ele>
        <time>2022-10-15 10:03:21</time>
      </trkpt>
      <trkpt lat="38.68875" lon="-0.66252">
        <ele>773.8</ele>
        <time>2022-10-15 10:03:22</time>
      </trkpt>
      <trkpt lat="38.68872" lon="-0.66255">
        <ele>773.8</ele>
        <time>2022-10-15 10:03:23</time>
      </trkpt>
      <trkpt lat="38.68868" lon="-0.66258">
        <ele>773.8</ele>
        <time>2022-10-15 10:03:24</time>
      </trkpt>
      <trkpt lat="38.68865" lon="-0.66261">
        <ele>773.8</ele>
        <time>2022-10-15 10:03:25</time>
      </trkpt>
      <trkpt lat="38.68861" lon="-0.66264">
        <ele>773.8</ele>
        <time>2022-10-15 10:03:26</time>
      </trkpt>
      <trkpt lat="38.68857" lon="-0.66267">
        <ele>773.6</ele>
        <time>2022-10-15 10:03:27</time>
      </trkpt>
      <trkpt lat="38.68853" lon="-0.6627">
        <ele>773.6</ele>
        <time>2022-10-15 10:03:28</time>
      </trkpt>
      <trkpt lat="38.68849" lon="-0.66273">
        <ele>773.4</ele>
        <time>2022-10-15 10:03:29</time>
      </trkpt>
      <trkpt lat="38.68846" lon="-0.66276">
        <ele>773.2</ele>
        <time>2022-10-15 10:03:30</time>
      </trkpt>
      <trkpt lat="38.68842" lon="-0.66279">
        <ele>773</ele>
        <time>2022-10-15 10:03:31</time>
      </trkpt>
      <trkpt lat="38.68838" lon="-0.66282">
        <ele>773</ele>
        <time>2022-10-15 10:03:32</time>
      </trkpt>
      <trkpt lat="38.68835" lon="-0.66285">
        <ele>773</ele>
        <time>2022-10-15 10:03:33</time>
      </trkpt>
      <trkpt lat="38.68831" lon="-0.66288">
        <ele>773</ele>
        <time>2022-10-15 10:03:34</time>
      </trkpt>
      <trkpt lat="38.68828" lon="-0.66292">
        <ele>773</ele>
        <time>2022-10-15 10:03:35</time>
      </trkpt>
      <trkpt lat="38.68824" lon="-0.66295">
        <ele>772.8</ele>
        <time>2022-10-15 10:03:36</time>
      </trkpt>
      <trkpt lat="38.68821" lon="-0.66299">
        <ele>772.8</ele>
        <time>2022-10-15 10:03:37</time>
      </trkpt>
      <trkpt lat="38.68818" lon="-0.66302">
        <ele>772.8</ele>
        <time>2022-10-15 10:03:38</time>
      </trkpt>
      <trkpt lat="38.68816" lon="-0.66307">
        <ele>772.8</ele>
        <time>2022-10-15 10:03:39</time>
      </trkpt>
      <trkpt lat="38.68813" lon="-0.66312">
        <ele>772.8</ele>
        <time>2022-10-15 10:03:40</time>
      </trkpt>
      <trkpt lat="38.68811" lon="-0.66317">
        <ele>772.8</ele>
        <time>2022-10-15 10:03:41</time>
      </trkpt>
      <trkpt lat="38.68809" lon="-0.66323">
        <ele>772.8</ele>
        <time>2022-10-15 10:03:42</time>
      </trkpt>
      <trkpt lat="38.68807" lon="-0.66328">
        <ele>772.8</ele>
        <time>2022-10-15 10:03:43</time>
      </trkpt>
      <trkpt lat="38.68805" lon="-0.66334">
        <ele>772.6</ele>
        <time>2022-10-15 10:03:44</time>
      </trkpt>
      <trkpt lat="38.68803" lon="-0.66339">
        <ele>772.6</ele>
        <time>2022-10-15 10:03:45</time>
      </trkpt>
      <trkpt lat="38.68802" lon="-0.66345">
        <ele>772.6</ele>
        <time>2022-10-15 10:03:46</time>
      </trkpt>
      <trkpt lat="38.688" lon="-0.6635">
        <ele>772.4</ele>
        <time>2022-10-15 10:03:47</time>
      </trkpt>
      <trkpt lat="38.68798" lon="-0.66355">
        <ele>772.4</ele>
        <time>2022-10-15 10:03:48</time>
      </trkpt>
      <trkpt lat="38.68797" lon="-0.6636">
        <ele>772.4</ele>
        <time>2022-10-15 10:03:49</time>
      </trkpt>
      <trkpt lat="38.68795" lon="-0.66366">
        <ele>772.4</ele>
        <time>2022-10-15 10:03:50</time>
      </trkpt>
      <trkpt lat="38.68793" lon="-0.66371">
        <ele>772.2</ele>
        <time>2022-10-15 10:03:51</time>
      </trkpt>
      <trkpt lat="38.68792" lon="-0.66376">
        <ele>772.4</ele>
        <time>2022-10-15 10:03:52</time>
      </trkpt>
      <trkpt lat="38.6879" lon="-0.66382">
        <ele>772</ele>
        <time>2022-10-15 10:03:53</time>
      </trkpt>
      <trkpt lat="38.68788" lon="-0.66388">
        <ele>772.2</ele>
        <time>2022-10-15 10:03:54</time>
      </trkpt>
      <trkpt lat="38.68787" lon="-0.66393">
        <ele>772.2</ele>
        <time>2022-10-15 10:03:55</time>
      </trkpt>
      <trkpt lat="38.68785" lon="-0.66399">
        <ele>772.2</ele>
        <time>2022-10-15 10:03:56</time>
      </trkpt>
      <trkpt lat="38.68782" lon="-0.66405">
        <ele>772.2</ele>
        <time>2022-10-15 10:03:57</time>
      </trkpt>
      <trkpt lat="38.6878" lon="-0.66411">
        <ele>772</ele>
        <time>2022-10-15 10:03:58</time>
      </trkpt>
      <trkpt lat="38.68777" lon="-0.66417">
        <ele>771.8</ele>
        <time>2022-10-15 10:03:59</time>
      </trkpt>
      <trkpt lat="38.68774" lon="-0.66423">
        <ele>771.8</ele>
        <time>2022-10-15 10:04:00</time>
      </trkpt>
      <trkpt lat="38.68771" lon="-0.66429">
        <ele>771.6</ele>
        <time>2022-10-15 10:04:01</time>
      </trkpt>
      <trkpt lat="38.68769" lon="-0.66435">
        <ele>771.4</ele>
        <time>2022-10-15 10:04:02</time>
      </trkpt>
      <trkpt lat="38.68766" lon="-0.66442">
        <ele>771.2</ele>
        <time>2022-10-15 10:04:03</time>
      </trkpt>
      <trkpt lat="38.68764" lon="-0.66448">
        <ele>770.8</ele>
        <time>2022-10-15 10:04:04</time>
      </trkpt>
      <trkpt lat="38.68762" lon="-0.66455">
        <ele>770.6</ele>
        <time>2022-10-15 10:04:05</time>
      </trkpt>
      <trkpt lat="38.6876" lon="-0.66461">
        <ele>770.4</ele>
        <time>2022-10-15 10:04:06</time>
      </trkpt>
      <trkpt lat="38.68758" lon="-0.66467">
        <ele>770.2</ele>
        <time>2022-10-15 10:04:07</time>
      </trkpt>
      <trkpt lat="38.68756" lon="-0.66473">
        <ele>770</ele>
        <time>2022-10-15 10:04:08</time>
      </trkpt>
      <trkpt lat="38.68754" lon="-0.66478">
        <ele>769.8</ele>
        <time>2022-10-15 10:04:09</time>
      </trkpt>
      <trkpt lat="38.68751" lon="-0.66484">
        <ele>769.8</ele>
        <time>2022-10-15 10:04:10</time>
      </trkpt>
      <trkpt lat="38.68749" lon="-0.66489">
        <ele>769.8</ele>
        <time>2022-10-15 10:04:11</time>
      </trkpt>
      <trkpt lat="38.68747" lon="-0.66493">
        <ele>769.8</ele>
        <time>2022-10-15 10:04:12</time>
      </trkpt>
      <trkpt lat="38.68745" lon="-0.66498">
        <ele>769.6</ele>
        <time>2022-10-15 10:04:13</time>
      </trkpt>
      <trkpt lat="38.68743" lon="-0.66502">
        <ele>769.6</ele>
        <time>2022-10-15 10:04:14</time>
      </trkpt>
      <trkpt lat="38.68742" lon="-0.66507">
        <ele>769.6</ele>
        <time>2022-10-15 10:04:15</time>
      </trkpt>
      <trkpt lat="38.6874" lon="-0.66511">
        <ele>769.6</ele>
        <time>2022-10-15 10:04:16</time>
      </trkpt>
      <trkpt lat="38.68738" lon="-0.66515">
        <ele>769.6</ele>
        <time>2022-10-15 10:04:17</time>
      </trkpt>
      <trkpt lat="38.68737" lon="-0.66518">
        <ele>769.6</ele>
        <time>2022-10-15 10:04:18</time>
      </trkpt>
      <trkpt lat="38.68735" lon="-0.66521">
        <ele>769.8</ele>
        <time>2022-10-15 10:04:19</time>
      </trkpt>
      <trkpt lat="38.68733" lon="-0.66523">
        <ele>770</ele>
        <time>2022-10-15 10:04:20</time>
      </trkpt>
      <trkpt lat="38.6873" lon="-0.66525">
        <ele>770.2</ele>
        <time>2022-10-15 10:04:21</time>
      </trkpt>
      <trkpt lat="38.68727" lon="-0.66527">
        <ele>770.4</ele>
        <time>2022-10-15 10:04:22</time>
      </trkpt>
      <trkpt lat="38.68723" lon="-0.66529">
        <ele>770.4</ele>
        <time>2022-10-15 10:04:23</time>
      </trkpt>
      <trkpt lat="38.68719" lon="-0.66531">
        <ele>770.6</ele>
        <time>2022-10-15 10:04:24</time>
      </trkpt>
      <trkpt lat="38.68716" lon="-0.66533">
        <ele>770.8</ele>
        <time>2022-10-15 10:04:25</time>
      </trkpt>
      <trkpt lat="38.68714" lon="-0.66535">
        <ele>770.8</ele>
        <time>2022-10-15 10:04:26</time>
      </trkpt>
      <trkpt lat="38.68711" lon="-0.66537">
        <ele>771</ele>
        <time>2022-10-15 10:04:27</time>
      </trkpt>
      <trkpt lat="38.68709" lon="-0.66539">
        <ele>771</ele>
        <time>2022-10-15 10:04:28</time>
      </trkpt>
      <trkpt lat="38.68708" lon="-0.66542">
        <ele>771.2</ele>
        <time>2022-10-15 10:04:29</time>
      </trkpt>
      <trkpt lat="38.68706" lon="-0.66545">
        <ele>771.2</ele>
        <time>2022-10-15 10:04:30</time>
      </trkpt>
      <trkpt lat="38.68705" lon="-0.66548">
        <ele>771.4</ele>
        <time>2022-10-15 10:04:31</time>
      </trkpt>
      <trkpt lat="38.68704" lon="-0.66551">
        <ele>771.4</ele>
        <time>2022-10-15 10:04:32</time>
      </trkpt>
      <trkpt lat="38.68702" lon="-0.66554">
        <ele>771.6</ele>
        <time>2022-10-15 10:04:33</time>
      </trkpt>
      <trkpt lat="38.687" lon="-0.66556">
        <ele>771.6</ele>
        <time>2022-10-15 10:04:34</time>
      </trkpt>
      <trkpt lat="38.68698" lon="-0.66559">
        <ele>771.6</ele>
        <time>2022-10-15 10:04:35</time>
      </trkpt>
      <trkpt lat="38.68697" lon="-0.66562">
        <ele>771.8</ele>
        <time>2022-10-15 10:04:36</time>
      </trkpt>
      <trkpt lat="38.68695" lon="-0.66565">
        <ele>772</ele>
        <time>2022-10-15 10:04:37</time>
      </trkpt>
      <trkpt lat="38.68693" lon="-0.66569">
        <ele>772.6</ele>
        <time>2022-10-15 10:04:38</time>
      </trkpt>
      <trkpt lat="38.68691" lon="-0.66572">
        <ele>772.6</ele>
        <time>2022-10-15 10:04:39</time>
      </trkpt>
      <trkpt lat="38.68689" lon="-0.66575">
        <ele>773</ele>
        <time>2022-10-15 10:04:40</time>
      </trkpt>
      <trkpt lat="38.68687" lon="-0.66578">
        <ele>773.4</ele>
        <time>2022-10-15 10:04:41</time>
      </trkpt>
      <trkpt lat="38.68685" lon="-0.6658">
        <ele>774</ele>
        <time>2022-10-15 10:04:42</time>
      </trkpt>
      <trkpt lat="38.68683" lon="-0.66583">
        <ele>774.2</ele>
        <time>2022-10-15 10:04:43</time>
      </trkpt>
      <trkpt lat="38.68681" lon="-0.66585">
        <ele>774.6</ele>
        <time>2022-10-15 10:04:44</time>
      </trkpt>
      <trkpt lat="38.68678" lon="-0.66587">
        <ele>775</ele>
        <time>2022-10-15 10:04:45</time>
      </trkpt>
      <trkpt lat="38.68676" lon="-0.6659">
        <ele>775.2</ele>
        <time>2022-10-15 10:04:46</time>
      </trkpt>
      <trkpt lat="38.68672" lon="-0.66592">
        <ele>775.4</ele>
        <time>2022-10-15 10:04:47</time>
      </trkpt>
      <trkpt lat="38.68669" lon="-0.66595">
        <ele>775.8</ele>
        <time>2022-10-15 10:04:48</time>
      </trkpt>
      <trkpt lat="38.68666" lon="-0.66598">
        <ele>775.8</ele>
        <time>2022-10-15 10:04:49</time>
      </trkpt>
      <trkpt lat="38.68663" lon="-0.666">
        <ele>775.8</ele>
        <time>2022-10-15 10:04:50</time>
      </trkpt>
      <trkpt lat="38.6866" lon="-0.66602">
        <ele>775.8</ele>
        <time>2022-10-15 10:04:51</time>
      </trkpt>
      <trkpt lat="38.68656" lon="-0.66605">
        <ele>775.8</ele>
        <time>2022-10-15 10:04:52</time>
      </trkpt>
      <trkpt lat="38.68652" lon="-0.66608">
        <ele>775.8</ele>
        <time>2022-10-15 10:04:53</time>
      </trkpt>
      <trkpt lat="38.68648" lon="-0.66611">
        <ele>775.8</ele>
        <time>2022-10-15 10:04:54</time>
      </trkpt>
      <trkpt lat="38.68645" lon="-0.66613">
        <ele>775.8</ele>
        <time>2022-10-15 10:04:55</time>
      </trkpt>
      <trkpt lat="38.68642" lon="-0.66616">
        <ele>775.8</ele>
        <time>2022-10-15 10:04:56</time>
      </trkpt>
      <trkpt lat="38.6864" lon="-0.66619">
        <ele>775.6</ele>
        <time>2022-10-15 10:04:57</time>
      </trkpt>
      <trkpt lat="38.68639" lon="-0.66623">
        <ele>775.6</ele>
        <time>2022-10-15 10:04:58</time>
      </trkpt>
      <trkpt lat="38.68638" lon="-0.66628">
        <ele>775.6</ele>
        <time>2022-10-15 10:04:59</time>
      </trkpt>
      <trkpt lat="38.68638" lon="-0.66632">
        <ele>775.6</ele>
        <time>2022-10-15 10:05:00</time>
      </trkpt>
      <trkpt lat="38.68638" lon="-0.66636">
        <ele>775.6</ele>
        <time>2022-10-15 10:05:01</time>
      </trkpt>
      <trkpt lat="38.68638" lon="-0.6664">
        <ele>775.6</ele>
        <time>2022-10-15 10:05:02</time>
      </trkpt>
      <trkpt lat="38.68637" lon="-0.66643">
        <ele>775.6</ele>
        <time>2022-10-15 10:05:03</time>
      </trkpt>
      <trkpt lat="38.68636" lon="-0.66646">
        <ele>775.6</ele>
        <time>2022-10-15 10:05:04</time>
      </trkpt>
      <trkpt lat="38.68635" lon="-0.66649">
        <ele>775.6</ele>
        <time>2022-10-15 10:05:05</time>
      </trkpt>
      <trkpt lat="38.68634" lon="-0.66652">
        <ele>775.6</ele>
        <time>2022-10-15 10:05:06</time>
      </trkpt>
      <trkpt lat="38.68633" lon="-0.66655">
        <ele>775.6</ele>
        <time>2022-10-15 10:05:07</time>
      </trkpt>
      <trkpt lat="38.68632" lon="-0.66658">
        <ele>775.6</ele>
        <time>2022-10-15 10:05:08</time>
      </trkpt>
      <trkpt lat="38.68631" lon="-0.66661">
        <ele>775.6</ele>
        <time>2022-10-15 10:05:09</time>
      </trkpt>
      <trkpt lat="38.68631" lon="-0.66664">
        <ele>775.8</ele>
        <time>2022-10-15 10:05:10</time>
      </trkpt>
      <trkpt lat="38.6863" lon="-0.66666">
        <ele>775.8</ele>
        <time>2022-10-15 10:05:11</time>
      </trkpt>
      <trkpt lat="38.68631" lon="-0.66669">
        <ele>775.8</ele>
        <time>2022-10-15 10:05:12</time>
      </trkpt>
      <trkpt lat="38.68631" lon="-0.66671">
        <ele>776</ele>
        <time>2022-10-15 10:05:13</time>
      </trkpt>
      <trkpt lat="38.68631" lon="-0.66674">
        <ele>776.2</ele>
        <time>2022-10-15 10:05:14</time>
      </trkpt>
      <trkpt lat="38.68631" lon="-0.66677">
        <ele>776.4</ele>
        <time>2022-10-15 10:05:15</time>
      </trkpt>
      <trkpt lat="38.68632" lon="-0.66679">
        <ele>776.6</ele>
        <time>2022-10-15 10:05:16</time>
      </trkpt>
      <trkpt lat="38.68632" lon="-0.66681">
        <ele>776.8</ele>
        <time>2022-10-15 10:05:17</time>
      </trkpt>
      <trkpt lat="38.68633" lon="-0.66683">
        <ele>777</ele>
        <time>2022-10-15 10:05:18</time>
      </trkpt>
      <trkpt lat="38.68633" lon="-0.66686">
        <ele>777</ele>
        <time>2022-10-15 10:05:19</time>
      </trkpt>
      <trkpt lat="38.68633" lon="-0.66688">
        <ele>777.2</ele>
        <time>2022-10-15 10:05:20</time>
      </trkpt>
      <trkpt lat="38.68634" lon="-0.66691">
        <ele>777.4</ele>
        <time>2022-10-15 10:05:21</time>
      </trkpt>
      <trkpt lat="38.68634" lon="-0.66693">
        <ele>777.6</ele>
        <time>2022-10-15 10:05:22</time>
      </trkpt>
      <trkpt lat="38.68635" lon="-0.66695">
        <ele>777.8</ele>
        <time>2022-10-15 10:05:23</time>
      </trkpt>
      <trkpt lat="38.68635" lon="-0.66698">
        <ele>778</ele>
        <time>2022-10-15 10:05:24</time>
      </trkpt>
      <trkpt lat="38.68635" lon="-0.667">
        <ele>778.2</ele>
        <time>2022-10-15 10:05:25</time>
      </trkpt>
      <trkpt lat="38.68636" lon="-0.66702">
        <ele>778.4</ele>
        <time>2022-10-15 10:05:26</time>
      </trkpt>
      <trkpt lat="38.68636" lon="-0.66705">
        <ele>778.6</ele>
        <time>2022-10-15 10:05:27</time>
      </trkpt>
      <trkpt lat="38.68637" lon="-0.66707">
        <ele>778.8</ele>
        <time>2022-10-15 10:05:28</time>
      </trkpt>
      <trkpt lat="38.68638" lon="-0.66709">
        <ele>778.8</ele>
        <time>2022-10-15 10:05:29</time>
      </trkpt>
      <trkpt lat="38.68638" lon="-0.66712">
        <ele>779</ele>
        <time>2022-10-15 10:05:30</time>
      </trkpt>
      <trkpt lat="38.68639" lon="-0.66714">
        <ele>779.2</ele>
        <time>2022-10-15 10:05:31</time>
      </trkpt>
      <trkpt lat="38.68639" lon="-0.66717">
        <ele>779.4</ele>
        <time>2022-10-15 10:05:32</time>
      </trkpt>
      <trkpt lat="38.6864" lon="-0.66719">
        <ele>779.6</ele>
        <time>2022-10-15 10:05:33</time>
      </trkpt>
      <trkpt lat="38.6864" lon="-0.66722">
        <ele>779.8</ele>
        <time>2022-10-15 10:05:34</time>
      </trkpt>
      <trkpt lat="38.68641" lon="-0.66724">
        <ele>780.2</ele>
        <time>2022-10-15 10:05:35</time>
      </trkpt>
      <trkpt lat="38.68641" lon="-0.66726">
        <ele>780.4</ele>
        <time>2022-10-15 10:05:36</time>
      </trkpt>
      <trkpt lat="38.68641" lon="-0.66729">
        <ele>780.6</ele>
        <time>2022-10-15 10:05:37</time>
      </trkpt>
      <trkpt lat="38.68641" lon="-0.66731">
        <ele>781</ele>
        <time>2022-10-15 10:05:38</time>
      </trkpt>
      <trkpt lat="38.68641" lon="-0.66734">
        <ele>781.2</ele>
        <time>2022-10-15 10:05:39</time>
      </trkpt>
      <trkpt lat="38.68641" lon="-0.66737">
        <ele>781.6</ele>
        <time>2022-10-15 10:05:40</time>
      </trkpt>
      <trkpt lat="38.6864" lon="-0.66739">
        <ele>781.8</ele>
        <time>2022-10-15 10:05:41</time>
      </trkpt>
      <trkpt lat="38.68639" lon="-0.66742">
        <ele>782.2</ele>
        <time>2022-10-15 10:05:42</time>
      </trkpt>
      <trkpt lat="38.68639" lon="-0.66744">
        <ele>782.4</ele>
        <time>2022-10-15 10:05:43</time>
      </trkpt>
      <trkpt lat="38.68638" lon="-0.66747">
        <ele>782.6</ele>
        <time>2022-10-15 10:05:44</time>
      </trkpt>
      <trkpt lat="38.68637" lon="-0.66749">
        <ele>783.4</ele>
        <time>2022-10-15 10:05:45</time>
      </trkpt>
      <trkpt lat="38.68636" lon="-0.66751">
        <ele>783.6</ele>
        <time>2022-10-15 10:05:46</time>
      </trkpt>
      <trkpt lat="38.68635" lon="-0.66753">
        <ele>783.8</ele>
        <time>2022-10-15 10:05:47</time>
      </trkpt>
      <trkpt lat="38.68634" lon="-0.66756">
        <ele>784</ele>
        <time>2022-10-15 10:05:48</time>
      </trkpt>
      <trkpt lat="38.68633" lon="-0.66758">
        <ele>784.2</ele>
        <time>2022-10-15 10:05:49</time>
      </trkpt>
      <trkpt lat="38.68632" lon="-0.66761">
        <ele>784.4</ele>
        <time>2022-10-15 10:05:50</time>
      </trkpt>
      <trkpt lat="38.68631" lon="-0.66763">
        <ele>784.6</ele>
        <time>2022-10-15 10:05:51</time>
      </trkpt>
      <trkpt lat="38.6863" lon="-0.66766">
        <ele>784.8</ele>
        <time>2022-10-15 10:05:52</time>
      </trkpt>
      <trkpt lat="38.68629" lon="-0.66768">
        <ele>784.8</ele>
        <time>2022-10-15 10:05:53</time>
      </trkpt>
      <trkpt lat="38.68628" lon="-0.66771">
        <ele>784.8</ele>
        <time>2022-10-15 10:05:54</time>
      </trkpt>
      <trkpt lat="38.68627" lon="-0.66774">
        <ele>785</ele>
        <time>2022-10-15 10:05:55</time>
      </trkpt>
      <trkpt lat="38.68626" lon="-0.66776">
        <ele>785</ele>
        <time>2022-10-15 10:05:56</time>
      </trkpt>
      <trkpt lat="38.68625" lon="-0.66778">
        <ele>785</ele>
        <time>2022-10-15 10:05:57</time>
      </trkpt>
      <trkpt lat="38.68625" lon="-0.66781">
        <ele>785.2</ele>
        <time>2022-10-15 10:05:58</time>
      </trkpt>
      <trkpt lat="38.68624" lon="-0.66783">
        <ele>785.4</ele>
        <time>2022-10-15 10:05:59</time>
      </trkpt>
      <trkpt lat="38.68623" lon="-0.66786">
        <ele>785.4</ele>
        <time>2022-10-15 10:06:00</time>
      </trkpt>
      <trkpt lat="38.68622" lon="-0.66788">
        <ele>785.4</ele>
        <time>2022-10-15 10:06:01</time>
      </trkpt>
      <trkpt lat="38.68621" lon="-0.6679">
        <ele>785.6</ele>
        <time>2022-10-15 10:06:02</time>
      </trkpt>
      <trkpt lat="38.68621" lon="-0.66793">
        <ele>785.6</ele>
        <time>2022-10-15 10:06:03</time>
      </trkpt>
      <trkpt lat="38.6862" lon="-0.66795">
        <ele>785.6</ele>
        <time>2022-10-15 10:06:04</time>
      </trkpt>
      <trkpt lat="38.6862" lon="-0.66798">
        <ele>785.6</ele>
        <time>2022-10-15 10:06:05</time>
      </trkpt>
      <trkpt lat="38.68619" lon="-0.668">
        <ele>785.8</ele>
        <time>2022-10-15 10:06:06</time>
      </trkpt>
      <trkpt lat="38.68618" lon="-0.66802">
        <ele>785.8</ele>
        <time>2022-10-15 10:06:07</time>
      </trkpt>
      <trkpt lat="38.68617" lon="-0.66805">
        <ele>786</ele>
        <time>2022-10-15 10:06:08</time>
      </trkpt>
      <trkpt lat="38.68617" lon="-0.66807">
        <ele>786</ele>
        <time>2022-10-15 10:06:09</time>
      </trkpt>
      <trkpt lat="38.68616" lon="-0.6681">
        <ele>786</ele>
        <time>2022-10-15 10:06:10</time>
      </trkpt>
      <trkpt lat="38.68615" lon="-0.66813">
        <ele>786.2</ele>
        <time>2022-10-15 10:06:11</time>
      </trkpt>
      <trkpt lat="38.68615" lon="-0.66816">
        <ele>786.2</ele>
        <time>2022-10-15 10:06:12</time>
      </trkpt>
      <trkpt lat="38.68614" lon="-0.66819">
        <ele>786.4</ele>
        <time>2022-10-15 10:06:13</time>
      </trkpt>
      <trkpt lat="38.68614" lon="-0.66821">
        <ele>786.4</ele>
        <time>2022-10-15 10:06:14</time>
      </trkpt>
      <trkpt lat="38.68613" lon="-0.66824">
        <ele>786.4</ele>
        <time>2022-10-15 10:06:15</time>
      </trkpt>
      <trkpt lat="38.68613" lon="-0.66827">
        <ele>786.6</ele>
        <time>2022-10-15 10:06:16</time>
      </trkpt>
      <trkpt lat="38.68612" lon="-0.66829">
        <ele>786.6</ele>
        <time>2022-10-15 10:06:17</time>
      </trkpt>
      <trkpt lat="38.68611" lon="-0.66832">
        <ele>786.6</ele>
        <time>2022-10-15 10:06:18</time>
      </trkpt>
      <trkpt lat="38.68611" lon="-0.66834">
        <ele>786.8</ele>
        <time>2022-10-15 10:06:19</time>
      </trkpt>
      <trkpt lat="38.6861" lon="-0.66837">
        <ele>787</ele>
        <time>2022-10-15 10:06:20</time>
      </trkpt>
      <trkpt lat="38.6861" lon="-0.66839">
        <ele>787</ele>
        <time>2022-10-15 10:06:21</time>
      </trkpt>
      <trkpt lat="38.68609" lon="-0.66842">
        <ele>787</ele>
        <time>2022-10-15 10:06:22</time>
      </trkpt>
      <trkpt lat="38.68608" lon="-0.66845">
        <ele>787.2</ele>
        <time>2022-10-15 10:06:23</time>
      </trkpt>
      <trkpt lat="38.68607" lon="-0.66847">
        <ele>787.2</ele>
        <time>2022-10-15 10:06:24</time>
      </trkpt>
      <trkpt lat="38.68606" lon="-0.66849">
        <ele>787.4</ele>
        <time>2022-10-15 10:06:25</time>
      </trkpt>
      <trkpt lat="38.68605" lon="-0.66852">
        <ele>787.4</ele>
        <time>2022-10-15 10:06:26</time>
      </trkpt>
      <trkpt lat="38.68603" lon="-0.66855">
        <ele>787.6</ele>
        <time>2022-10-15 10:06:27</time>
      </trkpt>
      <trkpt lat="38.68603" lon="-0.66857">
        <ele>787.6</ele>
        <time>2022-10-15 10:06:28</time>
      </trkpt>
      <trkpt lat="38.68602" lon="-0.6686">
        <ele>787.8</ele>
        <time>2022-10-15 10:06:29</time>
      </trkpt>
      <trkpt lat="38.686" lon="-0.66862">
        <ele>787.8</ele>
        <time>2022-10-15 10:06:30</time>
      </trkpt>
      <trkpt lat="38.68599" lon="-0.66865">
        <ele>787.8</ele>
        <time>2022-10-15 10:06:31</time>
      </trkpt>
      <trkpt lat="38.68598" lon="-0.66867">
        <ele>788</ele>
        <time>2022-10-15 10:06:32</time>
      </trkpt>
      <trkpt lat="38.68596" lon="-0.6687">
        <ele>788</ele>
        <time>2022-10-15 10:06:33</time>
      </trkpt>
      <trkpt lat="38.68595" lon="-0.66872">
        <ele>788</ele>
        <time>2022-10-15 10:06:34</time>
      </trkpt>
      <trkpt lat="38.68594" lon="-0.66875">
        <ele>788</ele>
        <time>2022-10-15 10:06:35</time>
      </trkpt>
      <trkpt lat="38.68593" lon="-0.66877">
        <ele>788.2</ele>
        <time>2022-10-15 10:06:36</time>
      </trkpt>
      <trkpt lat="38.68592" lon="-0.66879">
        <ele>788.2</ele>
        <time>2022-10-15 10:06:37</time>
      </trkpt>
      <trkpt lat="38.68591" lon="-0.66882">
        <ele>788.2</ele>
        <time>2022-10-15 10:06:38</time>
      </trkpt>
      <trkpt lat="38.6859" lon="-0.66884">
        <ele>788.2</ele>
        <time>2022-10-15 10:06:39</time>
      </trkpt>
      <trkpt lat="38.68588" lon="-0.66886">
        <ele>788.2</ele>
        <time>2022-10-15 10:06:40</time>
      </trkpt>
      <trkpt lat="38.68587" lon="-0.66889">
        <ele>788.4</ele>
        <time>2022-10-15 10:06:41</time>
      </trkpt>
      <trkpt lat="38.68586" lon="-0.66891">
        <ele>788.4</ele>
        <time>2022-10-15 10:06:42</time>
      </trkpt>
      <trkpt lat="38.68584" lon="-0.66893">
        <ele>788.4</ele>
        <time>2022-10-15 10:06:43</time>
      </trkpt>
      <trkpt lat="38.68583" lon="-0.66895">
        <ele>788.4</ele>
        <time>2022-10-15 10:06:44</time>
      </trkpt>
      <trkpt lat="38.68581" lon="-0.66897">
        <ele>788.6</ele>
        <time>2022-10-15 10:06:45</time>
      </trkpt>
      <trkpt lat="38.68579" lon="-0.669">
        <ele>788.6</ele>
        <time>2022-10-15 10:06:46</time>
      </trkpt>
      <trkpt lat="38.68578" lon="-0.66902">
        <ele>788.8</ele>
        <time>2022-10-15 10:06:47</time>
      </trkpt>
      <trkpt lat="38.68576" lon="-0.66905">
        <ele>788.8</ele>
        <time>2022-10-15 10:06:48</time>
      </trkpt>
      <trkpt lat="38.68574" lon="-0.66907">
        <ele>788.8</ele>
        <time>2022-10-15 10:06:49</time>
      </trkpt>
      <trkpt lat="38.68572" lon="-0.66909">
        <ele>789</ele>
        <time>2022-10-15 10:06:50</time>
      </trkpt>
      <trkpt lat="38.68571" lon="-0.66912">
        <ele>789</ele>
        <time>2022-10-15 10:06:51</time>
      </trkpt>
      <trkpt lat="38.68569" lon="-0.66914">
        <ele>789</ele>
        <time>2022-10-15 10:06:52</time>
      </trkpt>
      <trkpt lat="38.68567" lon="-0.66916">
        <ele>789</ele>
        <time>2022-10-15 10:06:53</time>
      </trkpt>
      <trkpt lat="38.68565" lon="-0.66918">
        <ele>789</ele>
        <time>2022-10-15 10:06:54</time>
      </trkpt>
      <trkpt lat="38.68562" lon="-0.66921">
        <ele>789</ele>
        <time>2022-10-15 10:06:55</time>
      </trkpt>
      <trkpt lat="38.6856" lon="-0.66923">
        <ele>789</ele>
        <time>2022-10-15 10:06:56</time>
      </trkpt>
      <trkpt lat="38.68558" lon="-0.66926">
        <ele>789</ele>
        <time>2022-10-15 10:06:57</time>
      </trkpt>
      <trkpt lat="38.68556" lon="-0.66929">
        <ele>789</ele>
        <time>2022-10-15 10:06:58</time>
      </trkpt>
      <trkpt lat="38.68554" lon="-0.66931">
        <ele>789</ele>
        <time>2022-10-15 10:06:59</time>
      </trkpt>
      <trkpt lat="38.68552" lon="-0.66934">
        <ele>789</ele>
        <time>2022-10-15 10:07:00</time>
      </trkpt>
      <trkpt lat="38.6855" lon="-0.66937">
        <ele>789</ele>
        <time>2022-10-15 10:07:01</time>
      </trkpt>
      <trkpt lat="38.68548" lon="-0.66939">
        <ele>789</ele>
        <time>2022-10-15 10:07:02</time>
      </trkpt>
      <trkpt lat="38.68547" lon="-0.66942">
        <ele>788.8</ele>
        <time>2022-10-15 10:07:03</time>
      </trkpt>
      <trkpt lat="38.68545" lon="-0.66945">
        <ele>788.6</ele>
        <time>2022-10-15 10:07:04</time>
      </trkpt>
      <trkpt lat="38.68544" lon="-0.66947">
        <ele>788.6</ele>
        <time>2022-10-15 10:07:05</time>
      </trkpt>
      <trkpt lat="38.68543" lon="-0.6695">
        <ele>788.6</ele>
        <time>2022-10-15 10:07:06</time>
      </trkpt>
      <trkpt lat="38.68541" lon="-0.66953">
        <ele>788.4</ele>
        <time>2022-10-15 10:07:07</time>
      </trkpt>
      <trkpt lat="38.68539" lon="-0.66956">
        <ele>788.4</ele>
        <time>2022-10-15 10:07:08</time>
      </trkpt>
      <trkpt lat="38.68538" lon="-0.6696">
        <ele>788.4</ele>
        <time>2022-10-15 10:07:09</time>
      </trkpt>
      <trkpt lat="38.68536" lon="-0.66963">
        <ele>788.2</ele>
        <time>2022-10-15 10:07:10</time>
      </trkpt>
      <trkpt lat="38.68534" lon="-0.66966">
        <ele>788.2</ele>
        <time>2022-10-15 10:07:11</time>
      </trkpt>
      <trkpt lat="38.68532" lon="-0.66969">
        <ele>788.2</ele>
        <time>2022-10-15 10:07:12</time>
      </trkpt>
      <trkpt lat="38.6853" lon="-0.66972">
        <ele>788.2</ele>
        <time>2022-10-15 10:07:13</time>
      </trkpt>
      <trkpt lat="38.68529" lon="-0.66974">
        <ele>788.2</ele>
        <time>2022-10-15 10:07:14</time>
      </trkpt>
      <trkpt lat="38.68527" lon="-0.66977">
        <ele>788.2</ele>
        <time>2022-10-15 10:07:15</time>
      </trkpt>
      <trkpt lat="38.68525" lon="-0.66979">
        <ele>788</ele>
        <time>2022-10-15 10:07:16</time>
      </trkpt>
      <trkpt lat="38.68523" lon="-0.66982">
        <ele>788</ele>
        <time>2022-10-15 10:07:17</time>
      </trkpt>
      <trkpt lat="38.68521" lon="-0.66985">
        <ele>788</ele>
        <time>2022-10-15 10:07:18</time>
      </trkpt>
      <trkpt lat="38.68519" lon="-0.66987">
        <ele>788</ele>
        <time>2022-10-15 10:07:19</time>
      </trkpt>
      <trkpt lat="38.68517" lon="-0.6699">
        <ele>788</ele>
        <time>2022-10-15 10:07:20</time>
      </trkpt>
      <trkpt lat="38.68515" lon="-0.66992">
        <ele>788</ele>
        <time>2022-10-15 10:07:21</time>
      </trkpt>
      <trkpt lat="38.68514" lon="-0.66995">
        <ele>788</ele>
        <time>2022-10-15 10:07:22</time>
      </trkpt>
      <trkpt lat="38.68511" lon="-0.66997">
        <ele>788</ele>
        <time>2022-10-15 10:07:23</time>
      </trkpt>
      <trkpt lat="38.6851" lon="-0.66999">
        <ele>788</ele>
        <time>2022-10-15 10:07:24</time>
      </trkpt>
      <trkpt lat="38.68508" lon="-0.67002">
        <ele>788.2</ele>
        <time>2022-10-15 10:07:25</time>
      </trkpt>
      <trkpt lat="38.68506" lon="-0.67004">
        <ele>788.2</ele>
        <time>2022-10-15 10:07:26</time>
      </trkpt>
      <trkpt lat="38.68505" lon="-0.67007">
        <ele>788.4</ele>
        <time>2022-10-15 10:07:27</time>
      </trkpt>
      <trkpt lat="38.68503" lon="-0.67009">
        <ele>788.4</ele>
        <time>2022-10-15 10:07:28</time>
      </trkpt>
      <trkpt lat="38.68502" lon="-0.67012">
        <ele>788.4</ele>
        <time>2022-10-15 10:07:29</time>
      </trkpt>
      <trkpt lat="38.685" lon="-0.67014">
        <ele>788.6</ele>
        <time>2022-10-15 10:07:30</time>
      </trkpt>
      <trkpt lat="38.68499" lon="-0.67017">
        <ele>788.4</ele>
        <time>2022-10-15 10:07:31</time>
      </trkpt>
      <trkpt lat="38.68497" lon="-0.6702">
        <ele>788.6</ele>
        <time>2022-10-15 10:07:32</time>
      </trkpt>
      <trkpt lat="38.68496" lon="-0.67022">
        <ele>788.8</ele>
        <time>2022-10-15 10:07:33</time>
      </trkpt>
      <trkpt lat="38.68494" lon="-0.67025">
        <ele>789</ele>
        <time>2022-10-15 10:07:34</time>
      </trkpt>
      <trkpt lat="38.68493" lon="-0.67028">
        <ele>789.2</ele>
        <time>2022-10-15 10:07:35</time>
      </trkpt>
      <trkpt lat="38.68492" lon="-0.67031">
        <ele>789.4</ele>
        <time>2022-10-15 10:07:36</time>
      </trkpt>
      <trkpt lat="38.68491" lon="-0.67034">
        <ele>789.6</ele>
        <time>2022-10-15 10:07:37</time>
      </trkpt>
      <trkpt lat="38.6849" lon="-0.67037">
        <ele>789.8</ele>
        <time>2022-10-15 10:07:38</time>
      </trkpt>
      <trkpt lat="38.68488" lon="-0.67039">
        <ele>790</ele>
        <time>2022-10-15 10:07:39</time>
      </trkpt>
      <trkpt lat="38.68487" lon="-0.67042">
        <ele>790.2</ele>
        <time>2022-10-15 10:07:40</time>
      </trkpt>
      <trkpt lat="38.68486" lon="-0.67044">
        <ele>790.4</ele>
        <time>2022-10-15 10:07:41</time>
      </trkpt>
      <trkpt lat="38.68486" lon="-0.67047">
        <ele>790.4</ele>
        <time>2022-10-15 10:07:42</time>
      </trkpt>
      <trkpt lat="38.68485" lon="-0.6705">
        <ele>790.6</ele>
        <time>2022-10-15 10:07:43</time>
      </trkpt>
      <trkpt lat="38.68484" lon="-0.67052">
        <ele>790.6</ele>
        <time>2022-10-15 10:07:44</time>
      </trkpt>
      <trkpt lat="38.68482" lon="-0.67055">
        <ele>790.8</ele>
        <time>2022-10-15 10:07:45</time>
      </trkpt>
      <trkpt lat="38.68481" lon="-0.67057">
        <ele>791</ele>
        <time>2022-10-15 10:07:46</time>
      </trkpt>
      <trkpt lat="38.6848" lon="-0.6706">
        <ele>791.2</ele>
        <time>2022-10-15 10:07:47</time>
      </trkpt>
      <trkpt lat="38.68479" lon="-0.67062">
        <ele>791.4</ele>
        <time>2022-10-15 10:07:48</time>
      </trkpt>
      <trkpt lat="38.68478" lon="-0.67065">
        <ele>791.4</ele>
        <time>2022-10-15 10:07:49</time>
      </trkpt>
      <trkpt lat="38.68477" lon="-0.67067">
        <ele>791.6</ele>
        <time>2022-10-15 10:07:50</time>
      </trkpt>
      <trkpt lat="38.68476" lon="-0.67069">
        <ele>791.8</ele>
        <time>2022-10-15 10:07:51</time>
      </trkpt>
      <trkpt lat="38.68474" lon="-0.67072">
        <ele>791.8</ele>
        <time>2022-10-15 10:07:52</time>
      </trkpt>
      <trkpt lat="38.68473" lon="-0.67075">
        <ele>792.2</ele>
        <time>2022-10-15 10:07:53</time>
      </trkpt>
      <trkpt lat="38.68472" lon="-0.67077">
        <ele>792.2</ele>
        <time>2022-10-15 10:07:54</time>
      </trkpt>
      <trkpt lat="38.6847" lon="-0.6708">
        <ele>792.4</ele>
        <time>2022-10-15 10:07:55</time>
      </trkpt>
      <trkpt lat="38.68469" lon="-0.67082">
        <ele>792.6</ele>
        <time>2022-10-15 10:07:56</time>
      </trkpt>
      <trkpt lat="38.68467" lon="-0.67084">
        <ele>792.8</ele>
        <time>2022-10-15 10:07:57</time>
      </trkpt>
      <trkpt lat="38.68465" lon="-0.67086">
        <ele>793</ele>
        <time>2022-10-15 10:07:58</time>
      </trkpt>
      <trkpt lat="38.68464" lon="-0.67088">
        <ele>793</ele>
        <time>2022-10-15 10:07:59</time>
      </trkpt>
      <trkpt lat="38.68462" lon="-0.67091">
        <ele>793</ele>
        <time>2022-10-15 10:08:00</time>
      </trkpt>
      <trkpt lat="38.6846" lon="-0.67093">
        <ele>793.2</ele>
        <time>2022-10-15 10:08:01</time>
      </trkpt>
      <trkpt lat="38.68458" lon="-0.67095">
        <ele>793.2</ele>
        <time>2022-10-15 10:08:02</time>
      </trkpt>
      <trkpt lat="38.68456" lon="-0.67096">
        <ele>793.2</ele>
        <time>2022-10-15 10:08:03</time>
      </trkpt>
      <trkpt lat="38.68454" lon="-0.67098">
        <ele>793.4</ele>
        <time>2022-10-15 10:08:04</time>
      </trkpt>
      <trkpt lat="38.68452" lon="-0.671">
        <ele>793.4</ele>
        <time>2022-10-15 10:08:05</time>
      </trkpt>
      <trkpt lat="38.6845" lon="-0.67102">
        <ele>793.4</ele>
        <time>2022-10-15 10:08:06</time>
      </trkpt>
      <trkpt lat="38.68448" lon="-0.67104">
        <ele>793.6</ele>
        <time>2022-10-15 10:08:07</time>
      </trkpt>
      <trkpt lat="38.68447" lon="-0.67106">
        <ele>793.8</ele>
        <time>2022-10-15 10:08:08</time>
      </trkpt>
      <trkpt lat="38.68445" lon="-0.67108">
        <ele>793.8</ele>
        <time>2022-10-15 10:08:09</time>
      </trkpt>
      <trkpt lat="38.68444" lon="-0.6711">
        <ele>793.8</ele>
        <time>2022-10-15 10:08:10</time>
      </trkpt>
      <trkpt lat="38.68442" lon="-0.67112">
        <ele>794</ele>
        <time>2022-10-15 10:08:11</time>
      </trkpt>
      <trkpt lat="38.6844" lon="-0.67114">
        <ele>794</ele>
        <time>2022-10-15 10:08:12</time>
      </trkpt>
      <trkpt lat="38.68439" lon="-0.67117">
        <ele>794.2</ele>
        <time>2022-10-15 10:08:13</time>
      </trkpt>
      <trkpt lat="38.68437" lon="-0.67119">
        <ele>794.4</ele>
        <time>2022-10-15 10:08:14</time>
      </trkpt>
      <trkpt lat="38.68435" lon="-0.67121">
        <ele>794.6</ele>
        <time>2022-10-15 10:08:15</time>
      </trkpt>
      <trkpt lat="38.68433" lon="-0.67123">
        <ele>794.6</ele>
        <time>2022-10-15 10:08:16</time>
      </trkpt>
      <trkpt lat="38.68432" lon="-0.67125">
        <ele>794.6</ele>
        <time>2022-10-15 10:08:17</time>
      </trkpt>
      <trkpt lat="38.6843" lon="-0.67127">
        <ele>795</ele>
        <time>2022-10-15 10:08:18</time>
      </trkpt>
      <trkpt lat="38.68428" lon="-0.6713">
        <ele>794.8</ele>
        <time>2022-10-15 10:08:19</time>
      </trkpt>
      <trkpt lat="38.68426" lon="-0.67132">
        <ele>795</ele>
        <time>2022-10-15 10:08:20</time>
      </trkpt>
      <trkpt lat="38.68424" lon="-0.67133">
        <ele>795</ele>
        <time>2022-10-15 10:08:21</time>
      </trkpt>
      <trkpt lat="38.68422" lon="-0.67135">
        <ele>795.2</ele>
        <time>2022-10-15 10:08:22</time>
      </trkpt>
      <trkpt lat="38.6842" lon="-0.67137">
        <ele>795.2</ele>
        <time>2022-10-15 10:08:23</time>
      </trkpt>
      <trkpt lat="38.68417" lon="-0.67138">
        <ele>795.4</ele>
        <time>2022-10-15 10:08:24</time>
      </trkpt>
      <trkpt lat="38.68415" lon="-0.6714">
        <ele>795.6</ele>
        <time>2022-10-15 10:08:25</time>
      </trkpt>
      <trkpt lat="38.68413" lon="-0.67141">
        <ele>795.6</ele>
        <time>2022-10-15 10:08:26</time>
      </trkpt>
      <trkpt lat="38.68411" lon="-0.67142">
        <ele>795.8</ele>
        <time>2022-10-15 10:08:27</time>
      </trkpt>
      <trkpt lat="38.68408" lon="-0.67144">
        <ele>795.8</ele>
        <time>2022-10-15 10:08:28</time>
      </trkpt>
      <trkpt lat="38.68406" lon="-0.67145">
        <ele>796</ele>
        <time>2022-10-15 10:08:29</time>
      </trkpt>
      <trkpt lat="38.68404" lon="-0.67146">
        <ele>796</ele>
        <time>2022-10-15 10:08:30</time>
      </trkpt>
      <trkpt lat="38.68402" lon="-0.67147">
        <ele>796.2</ele>
        <time>2022-10-15 10:08:31</time>
      </trkpt>
      <trkpt lat="38.68399" lon="-0.67149">
        <ele>796.2</ele>
        <time>2022-10-15 10:08:32</time>
      </trkpt>
      <trkpt lat="38.68397" lon="-0.6715">
        <ele>796.4</ele>
        <time>2022-10-15 10:08:33</time>
      </trkpt>
      <trkpt lat="38.68395" lon="-0.67151">
        <ele>796.6</ele>
        <time>2022-10-15 10:08:34</time>
      </trkpt>
      <trkpt lat="38.68393" lon="-0.67153">
        <ele>796.6</ele>
        <time>2022-10-15 10:08:35</time>
      </trkpt>
      <trkpt lat="38.68391" lon="-0.67154">
        <ele>796.8</ele>
        <time>2022-10-15 10:08:36</time>
      </trkpt>
      <trkpt lat="38.68388" lon="-0.67156">
        <ele>796.8</ele>
        <time>2022-10-15 10:08:37</time>
      </trkpt>
      <trkpt lat="38.68386" lon="-0.67157">
        <ele>797</ele>
        <time>2022-10-15 10:08:38</time>
      </trkpt>
      <trkpt lat="38.68384" lon="-0.67159">
        <ele>797.2</ele>
        <time>2022-10-15 10:08:39</time>
      </trkpt>
      <trkpt lat="38.68382" lon="-0.6716">
        <ele>797.2</ele>
        <time>2022-10-15 10:08:40</time>
      </trkpt>
      <trkpt lat="38.6838" lon="-0.67162">
        <ele>797.4</ele>
        <time>2022-10-15 10:08:41</time>
      </trkpt>
      <trkpt lat="38.68378" lon="-0.67163">
        <ele>797.6</ele>
        <time>2022-10-15 10:08:42</time>
      </trkpt>
      <trkpt lat="38.68376" lon="-0.67165">
        <ele>797.8</ele>
        <time>2022-10-15 10:08:43</time>
      </trkpt>
      <trkpt lat="38.68374" lon="-0.67166">
        <ele>797.8</ele>
        <time>2022-10-15 10:08:44</time>
      </trkpt>
      <trkpt lat="38.68372" lon="-0.67168">
        <ele>798</ele>
        <time>2022-10-15 10:08:45</time>
      </trkpt>
      <trkpt lat="38.6837" lon="-0.67169">
        <ele>798.2</ele>
        <time>2022-10-15 10:08:46</time>
      </trkpt>
      <trkpt lat="38.68368" lon="-0.67171">
        <ele>798.4</ele>
        <time>2022-10-15 10:08:47</time>
      </trkpt>
      <trkpt lat="38.68366" lon="-0.67173">
        <ele>798.4</ele>
        <time>2022-10-15 10:08:48</time>
      </trkpt>
      <trkpt lat="38.68364" lon="-0.67174">
        <ele>798.4</ele>
        <time>2022-10-15 10:08:49</time>
      </trkpt>
      <trkpt lat="38.68362" lon="-0.67176">
        <ele>798.6</ele>
        <time>2022-10-15 10:08:50</time>
      </trkpt>
      <trkpt lat="38.6836" lon="-0.67177">
        <ele>798.6</ele>
        <time>2022-10-15 10:08:51</time>
      </trkpt>
      <trkpt lat="38.68358" lon="-0.67179">
        <ele>798.8</ele>
        <time>2022-10-15 10:08:52</time>
      </trkpt>
      <trkpt lat="38.68357" lon="-0.67181">
        <ele>799</ele>
        <time>2022-10-15 10:08:53</time>
      </trkpt>
      <trkpt lat="38.68355" lon="-0.67183">
        <ele>799.2</ele>
        <time>2022-10-15 10:08:54</time>
      </trkpt>
      <trkpt lat="38.68353" lon="-0.67185">
        <ele>799.2</ele>
        <time>2022-10-15 10:08:55</time>
      </trkpt>
      <trkpt lat="38.68351" lon="-0.67186">
        <ele>799.4</ele>
        <time>2022-10-15 10:08:56</time>
      </trkpt>
      <trkpt lat="38.68349" lon="-0.67188">
        <ele>799.4</ele>
        <time>2022-10-15 10:08:57</time>
      </trkpt>
      <trkpt lat="38.68347" lon="-0.6719">
        <ele>799.6</ele>
        <time>2022-10-15 10:08:58</time>
      </trkpt>
      <trkpt lat="38.68346" lon="-0.67192">
        <ele>799.6</ele>
        <time>2022-10-15 10:08:59</time>
      </trkpt>
      <trkpt lat="38.68344" lon="-0.67194">
        <ele>799.8</ele>
        <time>2022-10-15 10:09:00</time>
      </trkpt>
      <trkpt lat="38.68342" lon="-0.67196">
        <ele>799.8</ele>
        <time>2022-10-15 10:09:01</time>
      </trkpt>
      <trkpt lat="38.6834" lon="-0.67199">
        <ele>800</ele>
        <time>2022-10-15 10:09:02</time>
      </trkpt>
      <trkpt lat="38.68338" lon="-0.67201">
        <ele>800</ele>
        <time>2022-10-15 10:09:03</time>
      </trkpt>
      <trkpt lat="38.68337" lon="-0.67203">
        <ele>800.2</ele>
        <time>2022-10-15 10:09:04</time>
      </trkpt>
      <trkpt lat="38.68335" lon="-0.67205">
        <ele>800.4</ele>
        <time>2022-10-15 10:09:05</time>
      </trkpt>
      <trkpt lat="38.68333" lon="-0.67207">
        <ele>800.4</ele>
        <time>2022-10-15 10:09:06</time>
      </trkpt>
      <trkpt lat="38.68332" lon="-0.67208">
        <ele>800.6</ele>
        <time>2022-10-15 10:09:07</time>
      </trkpt>
      <trkpt lat="38.6833" lon="-0.6721">
        <ele>800.8</ele>
        <time>2022-10-15 10:09:08</time>
      </trkpt>
      <trkpt lat="38.68328" lon="-0.67212">
        <ele>801</ele>
        <time>2022-10-15 10:09:09</time>
      </trkpt>
      <trkpt lat="38.68327" lon="-0.67214">
        <ele>801</ele>
        <time>2022-10-15 10:09:10</time>
      </trkpt>
      <trkpt lat="38.68325" lon="-0.67216">
        <ele>801</ele>
        <time>2022-10-15 10:09:11</time>
      </trkpt>
      <trkpt lat="38.68324" lon="-0.67218">
        <ele>801.2</ele>
        <time>2022-10-15 10:09:12</time>
      </trkpt>
      <trkpt lat="38.68322" lon="-0.67219">
        <ele>801.2</ele>
        <time>2022-10-15 10:09:13</time>
      </trkpt>
      <trkpt lat="38.6832" lon="-0.67221">
        <ele>801.4</ele>
        <time>2022-10-15 10:09:14</time>
      </trkpt>
      <trkpt lat="38.68318" lon="-0.67223">
        <ele>801.4</ele>
        <time>2022-10-15 10:09:15</time>
      </trkpt>
      <trkpt lat="38.68316" lon="-0.67225">
        <ele>801.4</ele>
        <time>2022-10-15 10:09:16</time>
      </trkpt>
      <trkpt lat="38.68314" lon="-0.67228">
        <ele>801.4</ele>
        <time>2022-10-15 10:09:17</time>
      </trkpt>
      <trkpt lat="38.68312" lon="-0.6723">
        <ele>801.4</ele>
        <time>2022-10-15 10:09:18</time>
      </trkpt>
      <trkpt lat="38.68309" lon="-0.67232">
        <ele>801.4</ele>
        <time>2022-10-15 10:09:19</time>
      </trkpt>
      <trkpt lat="38.68307" lon="-0.67235">
        <ele>801.4</ele>
        <time>2022-10-15 10:09:20</time>
      </trkpt>
      <trkpt lat="38.68304" lon="-0.67238">
        <ele>801.4</ele>
        <time>2022-10-15 10:09:21</time>
      </trkpt>
      <trkpt lat="38.68302" lon="-0.6724">
        <ele>801.4</ele>
        <time>2022-10-15 10:09:22</time>
      </trkpt>
      <trkpt lat="38.68299" lon="-0.67244">
        <ele>801.4</ele>
        <time>2022-10-15 10:09:23</time>
      </trkpt>
      <trkpt lat="38.68297" lon="-0.67247">
        <ele>801.4</ele>
        <time>2022-10-15 10:09:24</time>
      </trkpt>
      <trkpt lat="38.68295" lon="-0.67251">
        <ele>801.4</ele>
        <time>2022-10-15 10:09:25</time>
      </trkpt>
      <trkpt lat="38.68293" lon="-0.67256">
        <ele>801.4</ele>
        <time>2022-10-15 10:09:26</time>
      </trkpt>
      <trkpt lat="38.68291" lon="-0.6726">
        <ele>801.2</ele>
        <time>2022-10-15 10:09:27</time>
      </trkpt>
      <trkpt lat="38.68289" lon="-0.67265">
        <ele>801.2</ele>
        <time>2022-10-15 10:09:28</time>
      </trkpt>
      <trkpt lat="38.68288" lon="-0.6727">
        <ele>801</ele>
        <time>2022-10-15 10:09:29</time>
      </trkpt>
      <trkpt lat="38.68286" lon="-0.67274">
        <ele>800.4</ele>
        <time>2022-10-15 10:09:30</time>
      </trkpt>
      <trkpt lat="38.68285" lon="-0.67278">
        <ele>800.2</ele>
        <time>2022-10-15 10:09:31</time>
      </trkpt>
      <trkpt lat="38.68284" lon="-0.67282">
        <ele>800</ele>
        <time>2022-10-15 10:09:32</time>
      </trkpt>
      <trkpt lat="38.68283" lon="-0.67286">
        <ele>799.8</ele>
        <time>2022-10-15 10:09:33</time>
      </trkpt>
      <trkpt lat="38.68282" lon="-0.67289">
        <ele>799.6</ele>
        <time>2022-10-15 10:09:34</time>
      </trkpt>
      <trkpt lat="38.68281" lon="-0.67292">
        <ele>799.4</ele>
        <time>2022-10-15 10:09:35</time>
      </trkpt>
      <trkpt lat="38.6828" lon="-0.67295">
        <ele>799.4</ele>
        <time>2022-10-15 10:09:36</time>
      </trkpt>
      <trkpt lat="38.68278" lon="-0.67297">
        <ele>799.2</ele>
        <time>2022-10-15 10:09:37</time>
      </trkpt>
      <trkpt lat="38.68275" lon="-0.673">
        <ele>799.2</ele>
        <time>2022-10-15 10:09:38</time>
      </trkpt>
      <trkpt lat="38.68273" lon="-0.67302">
        <ele>799.2</ele>
        <time>2022-10-15 10:09:39</time>
      </trkpt>
      <trkpt lat="38.6827" lon="-0.67303">
        <ele>799.2</ele>
        <time>2022-10-15 10:09:40</time>
      </trkpt>
      <trkpt lat="38.68267" lon="-0.67305">
        <ele>799.2</ele>
        <time>2022-10-15 10:09:41</time>
      </trkpt>
      <trkpt lat="38.68264" lon="-0.67306">
        <ele>799.2</ele>
        <time>2022-10-15 10:09:42</time>
      </trkpt>
      <trkpt lat="38.6826" lon="-0.67306">
        <ele>799.2</ele>
        <time>2022-10-15 10:09:43</time>
      </trkpt>
      <trkpt lat="38.68257" lon="-0.67307">
        <ele>799.2</ele>
        <time>2022-10-15 10:09:44</time>
      </trkpt>
      <trkpt lat="38.68254" lon="-0.67308">
        <ele>799.2</ele>
        <time>2022-10-15 10:09:45</time>
      </trkpt>
      <trkpt lat="38.68252" lon="-0.6731">
        <ele>799.2</ele>
        <time>2022-10-15 10:09:46</time>
      </trkpt>
      <trkpt lat="38.68249" lon="-0.67311">
        <ele>799.2</ele>
        <time>2022-10-15 10:09:47</time>
      </trkpt>
      <trkpt lat="38.68247" lon="-0.67313">
        <ele>799.2</ele>
        <time>2022-10-15 10:09:48</time>
      </trkpt>
      <trkpt lat="38.68245" lon="-0.67315">
        <ele>799.4</ele>
        <time>2022-10-15 10:09:49</time>
      </trkpt>
      <trkpt lat="38.68243" lon="-0.67316">
        <ele>799.4</ele>
        <time>2022-10-15 10:09:50</time>
      </trkpt>
      <trkpt lat="38.68241" lon="-0.67318">
        <ele>799.4</ele>
        <time>2022-10-15 10:09:51</time>
      </trkpt>
      <trkpt lat="38.68239" lon="-0.6732">
        <ele>799.4</ele>
        <time>2022-10-15 10:09:52</time>
      </trkpt>
      <trkpt lat="38.68238" lon="-0.67322">
        <ele>799.6</ele>
        <time>2022-10-15 10:09:53</time>
      </trkpt>
      <trkpt lat="38.68236" lon="-0.67324">
        <ele>799.8</ele>
        <time>2022-10-15 10:09:54</time>
      </trkpt>
      <trkpt lat="38.68234" lon="-0.67326">
        <ele>800</ele>
        <time>2022-10-15 10:09:55</time>
      </trkpt>
      <trkpt lat="38.68233" lon="-0.67328">
        <ele>800.2</ele>
        <time>2022-10-15 10:09:56</time>
      </trkpt>
      <trkpt lat="38.68231" lon="-0.6733">
        <ele>800.6</ele>
        <time>2022-10-15 10:09:57</time>
      </trkpt>
      <trkpt lat="38.68229" lon="-0.67332">
        <ele>801.2</ele>
        <time>2022-10-15 10:09:58</time>
      </trkpt>
      <trkpt lat="38.68228" lon="-0.67334">
        <ele>801.2</ele>
        <time>2022-10-15 10:09:59</time>
      </trkpt>
      <trkpt lat="38.68226" lon="-0.67336">
        <ele>801.4</ele>
        <time>2022-10-15 10:10:00</time>
      </trkpt>
      <trkpt lat="38.68224" lon="-0.67338">
        <ele>801.6</ele>
        <time>2022-10-15 10:10:01</time>
      </trkpt>
      <trkpt lat="38.68222" lon="-0.6734">
        <ele>801.8</ele>
        <time>2022-10-15 10:10:02</time>
      </trkpt>
      <trkpt lat="38.6822" lon="-0.67341">
        <ele>801.8</ele>
        <time>2022-10-15 10:10:03</time>
      </trkpt>
      <trkpt lat="38.68217" lon="-0.67343">
        <ele>802</ele>
        <time>2022-10-15 10:10:04</time>
      </trkpt>
      <trkpt lat="38.68215" lon="-0.67344">
        <ele>802</ele>
        <time>2022-10-15 10:10:05</time>
      </trkpt>
      <trkpt lat="38.68213" lon="-0.67345">
        <ele>802.2</ele>
        <time>2022-10-15 10:10:06</time>
      </trkpt>
      <trkpt lat="38.6821" lon="-0.67346">
        <ele>802.4</ele>
        <time>2022-10-15 10:10:07</time>
      </trkpt>
      <trkpt lat="38.68208" lon="-0.67347">
        <ele>802.6</ele>
        <time>2022-10-15 10:10:08</time>
      </trkpt>
      <trkpt lat="38.68206" lon="-0.67348">
        <ele>802.6</ele>
        <time>2022-10-15 10:10:09</time>
      </trkpt>
      <trkpt lat="38.68204" lon="-0.67349">
        <ele>802.8</ele>
        <time>2022-10-15 10:10:10</time>
      </trkpt>
      <trkpt lat="38.68202" lon="-0.6735">
        <ele>803</ele>
        <time>2022-10-15 10:10:11</time>
      </trkpt>
      <trkpt lat="38.68199" lon="-0.67352">
        <ele>803.2</ele>
        <time>2022-10-15 10:10:12</time>
      </trkpt>
      <trkpt lat="38.68197" lon="-0.67353">
        <ele>803.4</ele>
        <time>2022-10-15 10:10:13</time>
      </trkpt>
      <trkpt lat="38.68195" lon="-0.67354">
        <ele>803.6</ele>
        <time>2022-10-15 10:10:14</time>
      </trkpt>
      <trkpt lat="38.68193" lon="-0.67355">
        <ele>803.6</ele>
        <time>2022-10-15 10:10:15</time>
      </trkpt>
      <trkpt lat="38.68191" lon="-0.67356">
        <ele>803.8</ele>
        <time>2022-10-15 10:10:16</time>
      </trkpt>
      <trkpt lat="38.68189" lon="-0.67357">
        <ele>804</ele>
        <time>2022-10-15 10:10:17</time>
      </trkpt>
      <trkpt lat="38.68186" lon="-0.67359">
        <ele>804</ele>
        <time>2022-10-15 10:10:18</time>
      </trkpt>
      <trkpt lat="38.68184" lon="-0.67361">
        <ele>804.2</ele>
        <time>2022-10-15 10:10:19</time>
      </trkpt>
      <trkpt lat="38.68182" lon="-0.67362">
        <ele>804.4</ele>
        <time>2022-10-15 10:10:20</time>
      </trkpt>
      <trkpt lat="38.6818" lon="-0.67364">
        <ele>804.6</ele>
        <time>2022-10-15 10:10:21</time>
      </trkpt>
      <trkpt lat="38.68178" lon="-0.67365">
        <ele>804.8</ele>
        <time>2022-10-15 10:10:22</time>
      </trkpt>
      <trkpt lat="38.68175" lon="-0.67367">
        <ele>805.2</ele>
        <time>2022-10-15 10:10:23</time>
      </trkpt>
      <trkpt lat="38.68173" lon="-0.67369">
        <ele>805.4</ele>
        <time>2022-10-15 10:10:24</time>
      </trkpt>
      <trkpt lat="38.68171" lon="-0.6737">
        <ele>805.4</ele>
        <time>2022-10-15 10:10:25</time>
      </trkpt>
      <trkpt lat="38.68169" lon="-0.67372">
        <ele>805.4</ele>
        <time>2022-10-15 10:10:26</time>
      </trkpt>
      <trkpt lat="38.68167" lon="-0.67374">
        <ele>805.6</ele>
        <time>2022-10-15 10:10:27</time>
      </trkpt>
      <trkpt lat="38.68165" lon="-0.67375">
        <ele>805.8</ele>
        <time>2022-10-15 10:10:28</time>
      </trkpt>
      <trkpt lat="38.68163" lon="-0.67377">
        <ele>805.8</ele>
        <time>2022-10-15 10:10:29</time>
      </trkpt>
      <trkpt lat="38.68161" lon="-0.67378">
        <ele>806</ele>
        <time>2022-10-15 10:10:30</time>
      </trkpt>
      <trkpt lat="38.68159" lon="-0.6738">
        <ele>806.2</ele>
        <time>2022-10-15 10:10:31</time>
      </trkpt>
      <trkpt lat="38.68157" lon="-0.67381">
        <ele>806.2</ele>
        <time>2022-10-15 10:10:32</time>
      </trkpt>
      <trkpt lat="38.68155" lon="-0.67383">
        <ele>806.4</ele>
        <time>2022-10-15 10:10:33</time>
      </trkpt>
      <trkpt lat="38.68153" lon="-0.67385">
        <ele>806.4</ele>
        <time>2022-10-15 10:10:34</time>
      </trkpt>
      <trkpt lat="38.68151" lon="-0.67387">
        <ele>806.4</ele>
        <time>2022-10-15 10:10:35</time>
      </trkpt>
      <trkpt lat="38.68149" lon="-0.67388">
        <ele>806.6</ele>
        <time>2022-10-15 10:10:36</time>
      </trkpt>
      <trkpt lat="38.68147" lon="-0.6739">
        <ele>806.6</ele>
        <time>2022-10-15 10:10:37</time>
      </trkpt>
      <trkpt lat="38.68145" lon="-0.67391">
        <ele>806.8</ele>
        <time>2022-10-15 10:10:38</time>
      </trkpt>
      <trkpt lat="38.68142" lon="-0.67393">
        <ele>806.8</ele>
        <time>2022-10-15 10:10:39</time>
      </trkpt>
      <trkpt lat="38.6814" lon="-0.67394">
        <ele>807</ele>
        <time>2022-10-15 10:10:40</time>
      </trkpt>
      <trkpt lat="38.68138" lon="-0.67396">
        <ele>807</ele>
        <time>2022-10-15 10:10:41</time>
      </trkpt>
      <trkpt lat="38.68137" lon="-0.67398">
        <ele>807.2</ele>
        <time>2022-10-15 10:10:42</time>
      </trkpt>
      <trkpt lat="38.68135" lon="-0.67399">
        <ele>807.4</ele>
        <time>2022-10-15 10:10:43</time>
      </trkpt>
      <trkpt lat="38.68133" lon="-0.67401">
        <ele>807.6</ele>
        <time>2022-10-15 10:10:44</time>
      </trkpt>
      <trkpt lat="38.68131" lon="-0.67403">
        <ele>807.8</ele>
        <time>2022-10-15 10:10:45</time>
      </trkpt>
      <trkpt lat="38.68129" lon="-0.67405">
        <ele>807.8</ele>
        <time>2022-10-15 10:10:46</time>
      </trkpt>
      <trkpt lat="38.68128" lon="-0.67407">
        <ele>808</ele>
        <time>2022-10-15 10:10:47</time>
      </trkpt>
      <trkpt lat="38.68126" lon="-0.67409">
        <ele>808</ele>
        <time>2022-10-15 10:10:48</time>
      </trkpt>
      <trkpt lat="38.68125" lon="-0.67411">
        <ele>808</ele>
        <time>2022-10-15 10:10:49</time>
      </trkpt>
      <trkpt lat="38.68123" lon="-0.67413">
        <ele>808.2</ele>
        <time>2022-10-15 10:10:50</time>
      </trkpt>
      <trkpt lat="38.68121" lon="-0.67416">
        <ele>808.6</ele>
        <time>2022-10-15 10:10:51</time>
      </trkpt>
      <trkpt lat="38.6812" lon="-0.67418">
        <ele>808.8</ele>
        <time>2022-10-15 10:10:52</time>
      </trkpt>
      <trkpt lat="38.68118" lon="-0.67421">
        <ele>808.8</ele>
        <time>2022-10-15 10:10:53</time>
      </trkpt>
      <trkpt lat="38.68116" lon="-0.67423">
        <ele>809.2</ele>
        <time>2022-10-15 10:10:54</time>
      </trkpt>
      <trkpt lat="38.68115" lon="-0.67426">
        <ele>809.4</ele>
        <time>2022-10-15 10:10:55</time>
      </trkpt>
      <trkpt lat="38.68113" lon="-0.67428">
        <ele>809.4</ele>
        <time>2022-10-15 10:10:56</time>
      </trkpt>
      <trkpt lat="38.68112" lon="-0.6743">
        <ele>809.6</ele>
        <time>2022-10-15 10:10:57</time>
      </trkpt>
      <trkpt lat="38.6811" lon="-0.67433">
        <ele>809.6</ele>
        <time>2022-10-15 10:10:58</time>
      </trkpt>
      <trkpt lat="38.68108" lon="-0.67435">
        <ele>809.6</ele>
        <time>2022-10-15 10:10:59</time>
      </trkpt>
      <trkpt lat="38.68107" lon="-0.67438">
        <ele>809.8</ele>
        <time>2022-10-15 10:11:00</time>
      </trkpt>
      <trkpt lat="38.68105" lon="-0.6744">
        <ele>809.8</ele>
        <time>2022-10-15 10:11:01</time>
      </trkpt>
      <trkpt lat="38.68104" lon="-0.67442">
        <ele>810</ele>
        <time>2022-10-15 10:11:02</time>
      </trkpt>
      <trkpt lat="38.68102" lon="-0.67445">
        <ele>810.2</ele>
        <time>2022-10-15 10:11:03</time>
      </trkpt>
      <trkpt lat="38.681" lon="-0.67448">
        <ele>810.4</ele>
        <time>2022-10-15 10:11:04</time>
      </trkpt>
      <trkpt lat="38.68098" lon="-0.6745">
        <ele>810.4</ele>
        <time>2022-10-15 10:11:05</time>
      </trkpt>
      <trkpt lat="38.68097" lon="-0.67452">
        <ele>810.6</ele>
        <time>2022-10-15 10:11:06</time>
      </trkpt>
      <trkpt lat="38.68095" lon="-0.67455">
        <ele>810.6</ele>
        <time>2022-10-15 10:11:07</time>
      </trkpt>
      <trkpt lat="38.68093" lon="-0.67458">
        <ele>810.6</ele>
        <time>2022-10-15 10:11:08</time>
      </trkpt>
      <trkpt lat="38.68091" lon="-0.6746">
        <ele>811</ele>
        <time>2022-10-15 10:11:09</time>
      </trkpt>
      <trkpt lat="38.68089" lon="-0.67463">
        <ele>810.8</ele>
        <time>2022-10-15 10:11:10</time>
      </trkpt>
      <trkpt lat="38.68087" lon="-0.67465">
        <ele>810.8</ele>
        <time>2022-10-15 10:11:11</time>
      </trkpt>
      <trkpt lat="38.68085" lon="-0.67467">
        <ele>811</ele>
        <time>2022-10-15 10:11:12</time>
      </trkpt>
      <trkpt lat="38.68083" lon="-0.6747">
        <ele>811.2</ele>
        <time>2022-10-15 10:11:13</time>
      </trkpt>
      <trkpt lat="38.68081" lon="-0.67472">
        <ele>811.2</ele>
        <time>2022-10-15 10:11:14</time>
      </trkpt>
      <trkpt lat="38.68079" lon="-0.67474">
        <ele>811.2</ele>
        <time>2022-10-15 10:11:15</time>
      </trkpt>
      <trkpt lat="38.68078" lon="-0.67477">
        <ele>811.4</ele>
        <time>2022-10-15 10:11:16</time>
      </trkpt>
      <trkpt lat="38.68076" lon="-0.67479">
        <ele>811.4</ele>
        <time>2022-10-15 10:11:17</time>
      </trkpt>
      <trkpt lat="38.68074" lon="-0.67481">
        <ele>811.4</ele>
        <time>2022-10-15 10:11:18</time>
      </trkpt>
      <trkpt lat="38.68073" lon="-0.67483">
        <ele>811.4</ele>
        <time>2022-10-15 10:11:19</time>
      </trkpt>
      <trkpt lat="38.68071" lon="-0.67485">
        <ele>811.4</ele>
        <time>2022-10-15 10:11:20</time>
      </trkpt>
      <trkpt lat="38.6807" lon="-0.67487">
        <ele>811.6</ele>
        <time>2022-10-15 10:11:21</time>
      </trkpt>
      <trkpt lat="38.68069" lon="-0.6749">
        <ele>811.6</ele>
        <time>2022-10-15 10:11:22</time>
      </trkpt>
      <trkpt lat="38.68068" lon="-0.67492">
        <ele>811.6</ele>
        <time>2022-10-15 10:11:23</time>
      </trkpt>
      <trkpt lat="38.68066" lon="-0.67495">
        <ele>811.6</ele>
        <time>2022-10-15 10:11:24</time>
      </trkpt>
      <trkpt lat="38.68065" lon="-0.67498">
        <ele>811.6</ele>
        <time>2022-10-15 10:11:25</time>
      </trkpt>
      <trkpt lat="38.68064" lon="-0.67501">
        <ele>811.6</ele>
        <time>2022-10-15 10:11:26</time>
      </trkpt>
      <trkpt lat="38.68063" lon="-0.67504">
        <ele>811.6</ele>
        <time>2022-10-15 10:11:27</time>
      </trkpt>
      <trkpt lat="38.68062" lon="-0.67507">
        <ele>811.6</ele>
        <time>2022-10-15 10:11:28</time>
      </trkpt>
      <trkpt lat="38.68061" lon="-0.6751">
        <ele>811.6</ele>
        <time>2022-10-15 10:11:29</time>
      </trkpt>
      <trkpt lat="38.6806" lon="-0.67513">
        <ele>811.6</ele>
        <time>2022-10-15 10:11:30</time>
      </trkpt>
      <trkpt lat="38.68058" lon="-0.67516">
        <ele>811.6</ele>
        <time>2022-10-15 10:11:31</time>
      </trkpt>
      <trkpt lat="38.68057" lon="-0.67519">
        <ele>811.8</ele>
        <time>2022-10-15 10:11:32</time>
      </trkpt>
      <trkpt lat="38.68056" lon="-0.67522">
        <ele>811.8</ele>
        <time>2022-10-15 10:11:33</time>
      </trkpt>
      <trkpt lat="38.68055" lon="-0.67524">
        <ele>811.8</ele>
        <time>2022-10-15 10:11:34</time>
      </trkpt>
      <trkpt lat="38.68053" lon="-0.67527">
        <ele>811.8</ele>
        <time>2022-10-15 10:11:35</time>
      </trkpt>
      <trkpt lat="38.68052" lon="-0.6753">
        <ele>811.8</ele>
        <time>2022-10-15 10:11:36</time>
      </trkpt>
      <trkpt lat="38.6805" lon="-0.67533">
        <ele>811.8</ele>
        <time>2022-10-15 10:11:37</time>
      </trkpt>
      <trkpt lat="38.68049" lon="-0.67536">
        <ele>812</ele>
        <time>2022-10-15 10:11:38</time>
      </trkpt>
      <trkpt lat="38.68047" lon="-0.67538">
        <ele>812</ele>
        <time>2022-10-15 10:11:39</time>
      </trkpt>
      <trkpt lat="38.68046" lon="-0.6754">
        <ele>812</ele>
        <time>2022-10-15 10:11:40</time>
      </trkpt>
      <trkpt lat="38.68044" lon="-0.67542">
        <ele>812.2</ele>
        <time>2022-10-15 10:11:41</time>
      </trkpt>
      <trkpt lat="38.68042" lon="-0.67544">
        <ele>812.4</ele>
        <time>2022-10-15 10:11:42</time>
      </trkpt>
      <trkpt lat="38.68041" lon="-0.67546">
        <ele>812.4</ele>
        <time>2022-10-15 10:11:43</time>
      </trkpt>
      <trkpt lat="38.68039" lon="-0.67547">
        <ele>812.6</ele>
        <time>2022-10-15 10:11:44</time>
      </trkpt>
      <trkpt lat="38.68036" lon="-0.67549">
        <ele>812.6</ele>
        <time>2022-10-15 10:11:45</time>
      </trkpt>
      <trkpt lat="38.68034" lon="-0.67551">
        <ele>812.8</ele>
        <time>2022-10-15 10:11:46</time>
      </trkpt>
      <trkpt lat="38.68032" lon="-0.67552">
        <ele>812.8</ele>
        <time>2022-10-15 10:11:47</time>
      </trkpt>
      <trkpt lat="38.6803" lon="-0.67554">
        <ele>812.8</ele>
        <time>2022-10-15 10:11:48</time>
      </trkpt>
      <trkpt lat="38.68028" lon="-0.67555">
        <ele>813</ele>
        <time>2022-10-15 10:11:49</time>
      </trkpt>
      <trkpt lat="38.68026" lon="-0.67557">
        <ele>813.2</ele>
        <time>2022-10-15 10:11:50</time>
      </trkpt>
      <trkpt lat="38.68023" lon="-0.67558">
        <ele>813.6</ele>
        <time>2022-10-15 10:11:51</time>
      </trkpt>
      <trkpt lat="38.68021" lon="-0.6756">
        <ele>813.8</ele>
        <time>2022-10-15 10:11:52</time>
      </trkpt>
      <trkpt lat="38.6802" lon="-0.67561">
        <ele>814</ele>
        <time>2022-10-15 10:11:53</time>
      </trkpt>
      <trkpt lat="38.68018" lon="-0.67563">
        <ele>814.2</ele>
        <time>2022-10-15 10:11:54</time>
      </trkpt>
      <trkpt lat="38.68016" lon="-0.67564">
        <ele>814.6</ele>
        <time>2022-10-15 10:11:55</time>
      </trkpt>
      <trkpt lat="38.68014" lon="-0.67566">
        <ele>815</ele>
        <time>2022-10-15 10:11:56</time>
      </trkpt>
      <trkpt lat="38.68013" lon="-0.67568">
        <ele>815.2</ele>
        <time>2022-10-15 10:11:57</time>
      </trkpt>
      <trkpt lat="38.68011" lon="-0.6757">
        <ele>815.6</ele>
        <time>2022-10-15 10:11:58</time>
      </trkpt>
      <trkpt lat="38.68009" lon="-0.67571">
        <ele>815.8</ele>
        <time>2022-10-15 10:11:59</time>
      </trkpt>
      <trkpt lat="38.68008" lon="-0.67573">
        <ele>816</ele>
        <time>2022-10-15 10:12:00</time>
      </trkpt>
      <trkpt lat="38.68006" lon="-0.67575">
        <ele>816.4</ele>
        <time>2022-10-15 10:12:01</time>
      </trkpt>
      <trkpt lat="38.68004" lon="-0.67577">
        <ele>816.4</ele>
        <time>2022-10-15 10:12:02</time>
      </trkpt>
      <trkpt lat="38.68003" lon="-0.67579">
        <ele>816.6</ele>
        <time>2022-10-15 10:12:03</time>
      </trkpt>
      <trkpt lat="38.68001" lon="-0.67581">
        <ele>816.8</ele>
        <time>2022-10-15 10:12:04</time>
      </trkpt>
      <trkpt lat="38.68" lon="-0.67583">
        <ele>817</ele>
        <time>2022-10-15 10:12:05</time>
      </trkpt>
      <trkpt lat="38.67999" lon="-0.67585">
        <ele>817.2</ele>
        <time>2022-10-15 10:12:06</time>
      </trkpt>
      <trkpt lat="38.67997" lon="-0.67588">
        <ele>817.4</ele>
        <time>2022-10-15 10:12:07</time>
      </trkpt>
      <trkpt lat="38.67996" lon="-0.6759">
        <ele>817.6</ele>
        <time>2022-10-15 10:12:08</time>
      </trkpt>
      <trkpt lat="38.67994" lon="-0.67593">
        <ele>817.6</ele>
        <time>2022-10-15 10:12:09</time>
      </trkpt>
      <trkpt lat="38.67992" lon="-0.67596">
        <ele>817.8</ele>
        <time>2022-10-15 10:12:10</time>
      </trkpt>
      <trkpt lat="38.67989" lon="-0.67599">
        <ele>817.8</ele>
        <time>2022-10-15 10:12:11</time>
      </trkpt>
      <trkpt lat="38.67987" lon="-0.67602">
        <ele>817.8</ele>
        <time>2022-10-15 10:12:12</time>
      </trkpt>
      <trkpt lat="38.67985" lon="-0.67605">
        <ele>817.8</ele>
        <time>2022-10-15 10:12:13</time>
      </trkpt>
      <trkpt lat="38.67983" lon="-0.67607">
        <ele>817.6</ele>
        <time>2022-10-15 10:12:14</time>
      </trkpt>
      <trkpt lat="38.67981" lon="-0.6761">
        <ele>817.6</ele>
        <time>2022-10-15 10:12:15</time>
      </trkpt>
      <trkpt lat="38.67979" lon="-0.67612">
        <ele>817.6</ele>
        <time>2022-10-15 10:12:16</time>
      </trkpt>
      <trkpt lat="38.67977" lon="-0.67614">
        <ele>817.6</ele>
        <time>2022-10-15 10:12:17</time>
      </trkpt>
      <trkpt lat="38.67975" lon="-0.67615">
        <ele>817.8</ele>
        <time>2022-10-15 10:12:18</time>
      </trkpt>
      <trkpt lat="38.67973" lon="-0.67617">
        <ele>817.8</ele>
        <time>2022-10-15 10:12:19</time>
      </trkpt>
      <trkpt lat="38.67971" lon="-0.67619">
        <ele>817.8</ele>
        <time>2022-10-15 10:12:20</time>
      </trkpt>
      <trkpt lat="38.67969" lon="-0.67621">
        <ele>817.8</ele>
        <time>2022-10-15 10:12:21</time>
      </trkpt>
      <trkpt lat="38.67967" lon="-0.67622">
        <ele>817.8</ele>
        <time>2022-10-15 10:12:22</time>
      </trkpt>
      <trkpt lat="38.67965" lon="-0.67624">
        <ele>817.8</ele>
        <time>2022-10-15 10:12:23</time>
      </trkpt>
      <trkpt lat="38.67963" lon="-0.67626">
        <ele>817.8</ele>
        <time>2022-10-15 10:12:24</time>
      </trkpt>
      <trkpt lat="38.67962" lon="-0.67627">
        <ele>817.8</ele>
        <time>2022-10-15 10:12:25</time>
      </trkpt>
      <trkpt lat="38.6796" lon="-0.67629">
        <ele>817.8</ele>
        <time>2022-10-15 10:12:26</time>
      </trkpt>
      <trkpt lat="38.67959" lon="-0.67631">
        <ele>817.8</ele>
        <time>2022-10-15 10:12:27</time>
      </trkpt>
      <trkpt lat="38.67957" lon="-0.67634">
        <ele>817.8</ele>
        <time>2022-10-15 10:12:28</time>
      </trkpt>
      <trkpt lat="38.67956" lon="-0.67636">
        <ele>817.8</ele>
        <time>2022-10-15 10:12:29</time>
      </trkpt>
      <trkpt lat="38.67955" lon="-0.67638">
        <ele>817.8</ele>
        <time>2022-10-15 10:12:30</time>
      </trkpt>
      <trkpt lat="38.67954" lon="-0.67641">
        <ele>817.8</ele>
        <time>2022-10-15 10:12:31</time>
      </trkpt>
      <trkpt lat="38.67953" lon="-0.67643">
        <ele>817.8</ele>
        <time>2022-10-15 10:12:32</time>
      </trkpt>
      <trkpt lat="38.67952" lon="-0.67646">
        <ele>818</ele>
        <time>2022-10-15 10:12:33</time>
      </trkpt>
      <trkpt lat="38.67951" lon="-0.67648">
        <ele>818</ele>
        <time>2022-10-15 10:12:34</time>
      </trkpt>
      <trkpt lat="38.67951" lon="-0.6765">
        <ele>818</ele>
        <time>2022-10-15 10:12:35</time>
      </trkpt>
      <trkpt lat="38.6795" lon="-0.67653">
        <ele>818.2</ele>
        <time>2022-10-15 10:12:36</time>
      </trkpt>
      <trkpt lat="38.67949" lon="-0.67655">
        <ele>818.4</ele>
        <time>2022-10-15 10:12:37</time>
      </trkpt>
      <trkpt lat="38.67948" lon="-0.67657">
        <ele>818.4</ele>
        <time>2022-10-15 10:12:38</time>
      </trkpt>
      <trkpt lat="38.67947" lon="-0.6766">
        <ele>818.6</ele>
        <time>2022-10-15 10:12:39</time>
      </trkpt>
      <trkpt lat="38.67945" lon="-0.67662">
        <ele>818.8</ele>
        <time>2022-10-15 10:12:40</time>
      </trkpt>
      <trkpt lat="38.67944" lon="-0.67664">
        <ele>818.8</ele>
        <time>2022-10-15 10:12:41</time>
      </trkpt>
      <trkpt lat="38.67942" lon="-0.67665">
        <ele>819</ele>
        <time>2022-10-15 10:12:42</time>
      </trkpt>
      <trkpt lat="38.6794" lon="-0.67666">
        <ele>819.2</ele>
        <time>2022-10-15 10:12:43</time>
      </trkpt>
      <trkpt lat="38.67938" lon="-0.67665">
        <ele>819.6</ele>
        <time>2022-10-15 10:12:44</time>
      </trkpt>
      <trkpt lat="38.67935" lon="-0.67664">
        <ele>819.8</ele>
        <time>2022-10-15 10:12:45</time>
      </trkpt>
      <trkpt lat="38.67934" lon="-0.67663">
        <ele>820</ele>
        <time>2022-10-15 10:12:46</time>
      </trkpt>
      <trkpt lat="38.67932" lon="-0.67661">
        <ele>820.2</ele>
        <time>2022-10-15 10:12:47</time>
      </trkpt>
      <trkpt lat="38.67931" lon="-0.67658">
        <ele>820.8</ele>
        <time>2022-10-15 10:12:48</time>
      </trkpt>
      <trkpt lat="38.6793" lon="-0.67655">
        <ele>821.2</ele>
        <time>2022-10-15 10:12:49</time>
      </trkpt>
      <trkpt lat="38.6793" lon="-0.67652">
        <ele>821.4</ele>
        <time>2022-10-15 10:12:50</time>
      </trkpt>
      <trkpt lat="38.6793" lon="-0.67649">
        <ele>821.4</ele>
        <time>2022-10-15 10:12:51</time>
      </trkpt>
      <trkpt lat="38.6793" lon="-0.67646">
        <ele>821.6</ele>
        <time>2022-10-15 10:12:52</time>
      </trkpt>
      <trkpt lat="38.6793" lon="-0.67643">
        <ele>822</ele>
        <time>2022-10-15 10:12:53</time>
      </trkpt>
      <trkpt lat="38.67931" lon="-0.6764">
        <ele>822.2</ele>
        <time>2022-10-15 10:12:54</time>
      </trkpt>
      <trkpt lat="38.67931" lon="-0.67636">
        <ele>822.4</ele>
        <time>2022-10-15 10:12:55</time>
      </trkpt>
      <trkpt lat="38.67932" lon="-0.67633">
        <ele>822.6</ele>
        <time>2022-10-15 10:12:56</time>
      </trkpt>
      <trkpt lat="38.67932" lon="-0.6763">
        <ele>822.8</ele>
        <time>2022-10-15 10:12:57</time>
      </trkpt>
      <trkpt lat="38.67932" lon="-0.67626">
        <ele>823</ele>
        <time>2022-10-15 10:12:58</time>
      </trkpt>
      <trkpt lat="38.67932" lon="-0.67623">
        <ele>823.2</ele>
        <time>2022-10-15 10:12:59</time>
      </trkpt>
      <trkpt lat="38.67932" lon="-0.67621">
        <ele>823.2</ele>
        <time>2022-10-15 10:13:00</time>
      </trkpt>
      <trkpt lat="38.6793" lon="-0.67618">
        <ele>823.4</ele>
        <time>2022-10-15 10:13:01</time>
      </trkpt>
      <trkpt lat="38.67929" lon="-0.67616">
        <ele>823.6</ele>
        <time>2022-10-15 10:13:02</time>
      </trkpt>
      <trkpt lat="38.67927" lon="-0.67614">
        <ele>823.8</ele>
        <time>2022-10-15 10:13:03</time>
      </trkpt>
      <trkpt lat="38.67925" lon="-0.67613">
        <ele>824</ele>
        <time>2022-10-15 10:13:04</time>
      </trkpt>
      <trkpt lat="38.67923" lon="-0.67613">
        <ele>824</ele>
        <time>2022-10-15 10:13:05</time>
      </trkpt>
      <trkpt lat="38.67921" lon="-0.67613">
        <ele>824.2</ele>
        <time>2022-10-15 10:13:06</time>
      </trkpt>
      <trkpt lat="38.67919" lon="-0.67614">
        <ele>824.4</ele>
        <time>2022-10-15 10:13:07</time>
      </trkpt>
      <trkpt lat="38.67917" lon="-0.67615">
        <ele>824.4</ele>
        <time>2022-10-15 10:13:08</time>
      </trkpt>
      <trkpt lat="38.67915" lon="-0.67616">
        <ele>824.6</ele>
        <time>2022-10-15 10:13:09</time>
      </trkpt>
      <trkpt lat="38.67914" lon="-0.67618">
        <ele>824.8</ele>
        <time>2022-10-15 10:13:10</time>
      </trkpt>
      <trkpt lat="38.67912" lon="-0.6762">
        <ele>824.8</ele>
        <time>2022-10-15 10:13:11</time>
      </trkpt>
      <trkpt lat="38.67911" lon="-0.67622">
        <ele>825</ele>
        <time>2022-10-15 10:13:12</time>
      </trkpt>
      <trkpt lat="38.67909" lon="-0.67624">
        <ele>825.2</ele>
        <time>2022-10-15 10:13:13</time>
      </trkpt>
      <trkpt lat="38.67908" lon="-0.67626">
        <ele>825.4</ele>
        <time>2022-10-15 10:13:14</time>
      </trkpt>
      <trkpt lat="38.67907" lon="-0.67628">
        <ele>825.6</ele>
        <time>2022-10-15 10:13:15</time>
      </trkpt>
      <trkpt lat="38.67906" lon="-0.6763">
        <ele>826</ele>
        <time>2022-10-15 10:13:16</time>
      </trkpt>
      <trkpt lat="38.67905" lon="-0.67632">
        <ele>826.2</ele>
        <time>2022-10-15 10:13:17</time>
      </trkpt>
      <trkpt lat="38.67904" lon="-0.67635">
        <ele>826.4</ele>
        <time>2022-10-15 10:13:18</time>
      </trkpt>
      <trkpt lat="38.67902" lon="-0.67637">
        <ele>826.6</ele>
        <time>2022-10-15 10:13:19</time>
      </trkpt>
      <trkpt lat="38.67901" lon="-0.67639">
        <ele>826.6</ele>
        <time>2022-10-15 10:13:20</time>
      </trkpt>
      <trkpt lat="38.679" lon="-0.67642">
        <ele>826.8</ele>
        <time>2022-10-15 10:13:21</time>
      </trkpt>
      <trkpt lat="38.67898" lon="-0.67644">
        <ele>827</ele>
        <time>2022-10-15 10:13:22</time>
      </trkpt>
      <trkpt lat="38.67897" lon="-0.67646">
        <ele>827.2</ele>
        <time>2022-10-15 10:13:23</time>
      </trkpt>
      <trkpt lat="38.67896" lon="-0.67648">
        <ele>827.4</ele>
        <time>2022-10-15 10:13:24</time>
      </trkpt>
      <trkpt lat="38.67895" lon="-0.6765">
        <ele>827.6</ele>
        <time>2022-10-15 10:13:25</time>
      </trkpt>
      <trkpt lat="38.67894" lon="-0.67652">
        <ele>827.8</ele>
        <time>2022-10-15 10:13:26</time>
      </trkpt>
      <trkpt lat="38.67893" lon="-0.67655">
        <ele>828</ele>
        <time>2022-10-15 10:13:27</time>
      </trkpt>
      <trkpt lat="38.67891" lon="-0.67657">
        <ele>828.2</ele>
        <time>2022-10-15 10:13:28</time>
      </trkpt>
      <trkpt lat="38.6789" lon="-0.67659">
        <ele>828.4</ele>
        <time>2022-10-15 10:13:29</time>
      </trkpt>
      <trkpt lat="38.67889" lon="-0.6766">
        <ele>828.6</ele>
        <time>2022-10-15 10:13:30</time>
      </trkpt>
      <trkpt lat="38.67888" lon="-0.67663">
        <ele>828.8</ele>
        <time>2022-10-15 10:13:31</time>
      </trkpt>
      <trkpt lat="38.67887" lon="-0.67665">
        <ele>828.8</ele>
        <time>2022-10-15 10:13:32</time>
      </trkpt>
      <trkpt lat="38.67886" lon="-0.67667">
        <ele>829</ele>
        <time>2022-10-15 10:13:33</time>
      </trkpt>
      <trkpt lat="38.67885" lon="-0.67669">
        <ele>829.2</ele>
        <time>2022-10-15 10:13:34</time>
      </trkpt>
      <trkpt lat="38.67884" lon="-0.67671">
        <ele>829.4</ele>
        <time>2022-10-15 10:13:35</time>
      </trkpt>
      <trkpt lat="38.67883" lon="-0.67674">
        <ele>829.6</ele>
        <time>2022-10-15 10:13:36</time>
      </trkpt>
      <trkpt lat="38.67882" lon="-0.67676">
        <ele>829.8</ele>
        <time>2022-10-15 10:13:37</time>
      </trkpt>
      <trkpt lat="38.67881" lon="-0.67678">
        <ele>830</ele>
        <time>2022-10-15 10:13:38</time>
      </trkpt>
      <trkpt lat="38.6788" lon="-0.67681">
        <ele>830.2</ele>
        <time>2022-10-15 10:13:39</time>
      </trkpt>
      <trkpt lat="38.67879" lon="-0.67684">
        <ele>830.4</ele>
        <time>2022-10-15 10:13:40</time>
      </trkpt>
      <trkpt lat="38.67879" lon="-0.67686">
        <ele>830.8</ele>
        <time>2022-10-15 10:13:41</time>
      </trkpt>
      <trkpt lat="38.67878" lon="-0.67689">
        <ele>831</ele>
        <time>2022-10-15 10:13:42</time>
      </trkpt>
      <trkpt lat="38.67877" lon="-0.67691">
        <ele>831.2</ele>
        <time>2022-10-15 10:13:43</time>
      </trkpt>
      <trkpt lat="38.67877" lon="-0.67694">
        <ele>831.6</ele>
        <time>2022-10-15 10:13:44</time>
      </trkpt>
      <trkpt lat="38.67876" lon="-0.67696">
        <ele>832</ele>
        <time>2022-10-15 10:13:45</time>
      </trkpt>
      <trkpt lat="38.67876" lon="-0.67699">
        <ele>832.2</ele>
        <time>2022-10-15 10:13:46</time>
      </trkpt>
      <trkpt lat="38.67875" lon="-0.67701">
        <ele>832.4</ele>
        <time>2022-10-15 10:13:47</time>
      </trkpt>
      <trkpt lat="38.67874" lon="-0.67704">
        <ele>832.6</ele>
        <time>2022-10-15 10:13:48</time>
      </trkpt>
      <trkpt lat="38.67873" lon="-0.67707">
        <ele>832.8</ele>
        <time>2022-10-15 10:13:49</time>
      </trkpt>
      <trkpt lat="38.67873" lon="-0.67709">
        <ele>832.8</ele>
        <time>2022-10-15 10:13:50</time>
      </trkpt>
      <trkpt lat="38.67872" lon="-0.67712">
        <ele>833</ele>
        <time>2022-10-15 10:13:51</time>
      </trkpt>
      <trkpt lat="38.67872" lon="-0.67714">
        <ele>833.2</ele>
        <time>2022-10-15 10:13:52</time>
      </trkpt>
      <trkpt lat="38.67871" lon="-0.67717">
        <ele>833.4</ele>
        <time>2022-10-15 10:13:53</time>
      </trkpt>
      <trkpt lat="38.6787" lon="-0.6772">
        <ele>833.6</ele>
        <time>2022-10-15 10:13:54</time>
      </trkpt>
      <trkpt lat="38.6787" lon="-0.67722">
        <ele>833.8</ele>
        <time>2022-10-15 10:13:55</time>
      </trkpt>
      <trkpt lat="38.67869" lon="-0.67725">
        <ele>834</ele>
        <time>2022-10-15 10:13:56</time>
      </trkpt>
      <trkpt lat="38.67868" lon="-0.67727">
        <ele>834.2</ele>
        <time>2022-10-15 10:13:57</time>
      </trkpt>
      <trkpt lat="38.67868" lon="-0.6773">
        <ele>834.4</ele>
        <time>2022-10-15 10:13:58</time>
      </trkpt>
      <trkpt lat="38.67867" lon="-0.67733">
        <ele>834.6</ele>
        <time>2022-10-15 10:13:59</time>
      </trkpt>
      <trkpt lat="38.67867" lon="-0.67736">
        <ele>834.8</ele>
        <time>2022-10-15 10:14:00</time>
      </trkpt>
      <trkpt lat="38.67866" lon="-0.67738">
        <ele>835</ele>
        <time>2022-10-15 10:14:01</time>
      </trkpt>
      <trkpt lat="38.67865" lon="-0.67741">
        <ele>835</ele>
        <time>2022-10-15 10:14:02</time>
      </trkpt>
      <trkpt lat="38.67865" lon="-0.67744">
        <ele>835.2</ele>
        <time>2022-10-15 10:14:03</time>
      </trkpt>
      <trkpt lat="38.67864" lon="-0.67746">
        <ele>835.4</ele>
        <time>2022-10-15 10:14:04</time>
      </trkpt>
      <trkpt lat="38.67863" lon="-0.67749">
        <ele>835.6</ele>
        <time>2022-10-15 10:14:05</time>
      </trkpt>
      <trkpt lat="38.67863" lon="-0.67751">
        <ele>835.8</ele>
        <time>2022-10-15 10:14:06</time>
      </trkpt>
      <trkpt lat="38.67862" lon="-0.67754">
        <ele>835.8</ele>
        <time>2022-10-15 10:14:07</time>
      </trkpt>
      <trkpt lat="38.67861" lon="-0.67757">
        <ele>836</ele>
        <time>2022-10-15 10:14:08</time>
      </trkpt>
      <trkpt lat="38.67861" lon="-0.6776">
        <ele>836.2</ele>
        <time>2022-10-15 10:14:09</time>
      </trkpt>
      <trkpt lat="38.6786" lon="-0.67762">
        <ele>836.4</ele>
        <time>2022-10-15 10:14:10</time>
      </trkpt>
      <trkpt lat="38.67859" lon="-0.67765">
        <ele>836.6</ele>
        <time>2022-10-15 10:14:11</time>
      </trkpt>
      <trkpt lat="38.67859" lon="-0.67768">
        <ele>837.2</ele>
        <time>2022-10-15 10:14:12</time>
      </trkpt>
      <trkpt lat="38.67858" lon="-0.6777">
        <ele>837.4</ele>
        <time>2022-10-15 10:14:13</time>
      </trkpt>
      <trkpt lat="38.67857" lon="-0.67773">
        <ele>837.6</ele>
        <time>2022-10-15 10:14:14</time>
      </trkpt>
      <trkpt lat="38.67857" lon="-0.67776">
        <ele>837.8</ele>
        <time>2022-10-15 10:14:15</time>
      </trkpt>
      <trkpt lat="38.67856" lon="-0.67779">
        <ele>838</ele>
        <time>2022-10-15 10:14:16</time>
      </trkpt>
      <trkpt lat="38.67855" lon="-0.67781">
        <ele>838.2</ele>
        <time>2022-10-15 10:14:17</time>
      </trkpt>
      <trkpt lat="38.67854" lon="-0.67784">
        <ele>838.4</ele>
        <time>2022-10-15 10:14:18</time>
      </trkpt>
      <trkpt lat="38.67853" lon="-0.67787">
        <ele>838.6</ele>
        <time>2022-10-15 10:14:19</time>
      </trkpt>
      <trkpt lat="38.67853" lon="-0.67789">
        <ele>838.8</ele>
        <time>2022-10-15 10:14:20</time>
      </trkpt>
      <trkpt lat="38.67852" lon="-0.67791">
        <ele>839</ele>
        <time>2022-10-15 10:14:21</time>
      </trkpt>
      <trkpt lat="38.67851" lon="-0.67794">
        <ele>839.2</ele>
        <time>2022-10-15 10:14:22</time>
      </trkpt>
      <trkpt lat="38.67851" lon="-0.67796">
        <ele>839.6</ele>
        <time>2022-10-15 10:14:23</time>
      </trkpt>
      <trkpt lat="38.6785" lon="-0.67799">
        <ele>839.8</ele>
        <time>2022-10-15 10:14:24</time>
      </trkpt>
      <trkpt lat="38.67849" lon="-0.67801">
        <ele>839.8</ele>
        <time>2022-10-15 10:14:25</time>
      </trkpt>
      <trkpt lat="38.67849" lon="-0.67803">
        <ele>840</ele>
        <time>2022-10-15 10:14:26</time>
      </trkpt>
      <trkpt lat="38.67848" lon="-0.67804">
        <ele>840.2</ele>
        <time>2022-10-15 10:14:27</time>
      </trkpt>
      <trkpt lat="38.67848" lon="-0.67806">
        <ele>840.4</ele>
        <time>2022-10-15 10:14:28</time>
      </trkpt>
      <trkpt lat="38.67847" lon="-0.67807">
        <ele>840.4</ele>
        <time>2022-10-15 10:14:29</time>
      </trkpt>
      <trkpt lat="38.67847" lon="-0.67809">
        <ele>840.6</ele>
        <time>2022-10-15 10:14:30</time>
      </trkpt>
      <trkpt lat="38.67846" lon="-0.6781">
        <ele>840.6</ele>
        <time>2022-10-15 10:14:31</time>
      </trkpt>
      <trkpt lat="38.67846" lon="-0.67811">
        <ele>840.8</ele>
        <time>2022-10-15 10:14:32</time>
      </trkpt>
      <trkpt lat="38.67845" lon="-0.67812">
        <ele>840.8</ele>
        <time>2022-10-15 10:14:33</time>
      </trkpt>
      <trkpt lat="38.67845" lon="-0.67813">
        <ele>840.8</ele>
        <time>2022-10-15 10:14:34</time>
      </trkpt>
      <trkpt lat="38.67845" lon="-0.67814">
        <ele>841</ele>
        <time>2022-10-15 10:14:35</time>
      </trkpt>
      <trkpt lat="38.67845" lon="-0.67814">
        <ele>841</ele>
        <time>2022-10-15 10:14:36</time>
      </trkpt>
      <trkpt lat="38.67845" lon="-0.67814">
        <ele>841</ele>
        <time>2022-10-15 10:14:37</time>
      </trkpt>
      <trkpt lat="38.67842" lon="-0.67819">
        <ele>841</ele>
        <time>2022-10-15 10:14:46</time>
      </trkpt>
      <trkpt lat="38.67841" lon="-0.67821">
        <ele>841</ele>
        <time>2022-10-15 10:14:47</time>
      </trkpt>
      <trkpt lat="38.67841" lon="-0.67822">
        <ele>841</ele>
        <time>2022-10-15 10:14:48</time>
      </trkpt>
      <trkpt lat="38.6784" lon="-0.67824">
        <ele>841</ele>
        <time>2022-10-15 10:14:49</time>
      </trkpt>
      <trkpt lat="38.67838" lon="-0.67826">
        <ele>841</ele>
        <time>2022-10-15 10:14:50</time>
      </trkpt>
      <trkpt lat="38.67837" lon="-0.67828">
        <ele>841</ele>
        <time>2022-10-15 10:14:51</time>
      </trkpt>
      <trkpt lat="38.67835" lon="-0.6783">
        <ele>841</ele>
        <time>2022-10-15 10:14:52</time>
      </trkpt>
      <trkpt lat="38.67834" lon="-0.67832">
        <ele>841</ele>
        <time>2022-10-15 10:14:53</time>
      </trkpt>
      <trkpt lat="38.67832" lon="-0.67834">
        <ele>841</ele>
        <time>2022-10-15 10:14:54</time>
      </trkpt>
      <trkpt lat="38.67829" lon="-0.67837">
        <ele>841</ele>
        <time>2022-10-15 10:14:55</time>
      </trkpt>
      <trkpt lat="38.67827" lon="-0.67839">
        <ele>841</ele>
        <time>2022-10-15 10:14:56</time>
      </trkpt>
      <trkpt lat="38.67825" lon="-0.67842">
        <ele>841</ele>
        <time>2022-10-15 10:14:57</time>
      </trkpt>
      <trkpt lat="38.67822" lon="-0.67844">
        <ele>841</ele>
        <time>2022-10-15 10:14:58</time>
      </trkpt>
      <trkpt lat="38.6782" lon="-0.67846">
        <ele>841</ele>
        <time>2022-10-15 10:14:59</time>
      </trkpt>
      <trkpt lat="38.67817" lon="-0.67849">
        <ele>841</ele>
        <time>2022-10-15 10:15:00</time>
      </trkpt>
      <trkpt lat="38.67814" lon="-0.67851">
        <ele>841</ele>
        <time>2022-10-15 10:15:01</time>
      </trkpt>
      <trkpt lat="38.67812" lon="-0.67853">
        <ele>841</ele>
        <time>2022-10-15 10:15:02</time>
      </trkpt>
      <trkpt lat="38.67809" lon="-0.67856">
        <ele>841</ele>
        <time>2022-10-15 10:15:03</time>
      </trkpt>
      <trkpt lat="38.67807" lon="-0.67858">
        <ele>841</ele>
        <time>2022-10-15 10:15:04</time>
      </trkpt>
      <trkpt lat="38.67805" lon="-0.6786">
        <ele>841</ele>
        <time>2022-10-15 10:15:05</time>
      </trkpt>
      <trkpt lat="38.67803" lon="-0.67863">
        <ele>841</ele>
        <time>2022-10-15 10:15:06</time>
      </trkpt>
      <trkpt lat="38.67801" lon="-0.67865">
        <ele>841</ele>
        <time>2022-10-15 10:15:07</time>
      </trkpt>
      <trkpt lat="38.67799" lon="-0.67867">
        <ele>841</ele>
        <time>2022-10-15 10:15:08</time>
      </trkpt>
      <trkpt lat="38.67797" lon="-0.67869">
        <ele>841</ele>
        <time>2022-10-15 10:15:09</time>
      </trkpt>
      <trkpt lat="38.67795" lon="-0.67871">
        <ele>841</ele>
        <time>2022-10-15 10:15:10</time>
      </trkpt>
      <trkpt lat="38.67793" lon="-0.67872">
        <ele>841</ele>
        <time>2022-10-15 10:15:11</time>
      </trkpt>
      <trkpt lat="38.67791" lon="-0.67874">
        <ele>841</ele>
        <time>2022-10-15 10:15:12</time>
      </trkpt>
      <trkpt lat="38.67789" lon="-0.67876">
        <ele>841</ele>
        <time>2022-10-15 10:15:13</time>
      </trkpt>
      <trkpt lat="38.67787" lon="-0.67878">
        <ele>841</ele>
        <time>2022-10-15 10:15:14</time>
      </trkpt>
      <trkpt lat="38.67785" lon="-0.6788">
        <ele>841</ele>
        <time>2022-10-15 10:15:15</time>
      </trkpt>
      <trkpt lat="38.67783" lon="-0.67882">
        <ele>841</ele>
        <time>2022-10-15 10:15:16</time>
      </trkpt>
      <trkpt lat="38.67781" lon="-0.67885">
        <ele>841</ele>
        <time>2022-10-15 10:15:17</time>
      </trkpt>
      <trkpt lat="38.67779" lon="-0.67887">
        <ele>841</ele>
        <time>2022-10-15 10:15:18</time>
      </trkpt>
      <trkpt lat="38.67777" lon="-0.67889">
        <ele>841</ele>
        <time>2022-10-15 10:15:19</time>
      </trkpt>
      <trkpt lat="38.67775" lon="-0.67891">
        <ele>841</ele>
        <time>2022-10-15 10:15:20</time>
      </trkpt>
      <trkpt lat="38.67772" lon="-0.67894">
        <ele>841</ele>
        <time>2022-10-15 10:15:21</time>
      </trkpt>
      <trkpt lat="38.6777" lon="-0.67896">
        <ele>841</ele>
        <time>2022-10-15 10:15:22</time>
      </trkpt>
      <trkpt lat="38.67767" lon="-0.67898">
        <ele>840.8</ele>
        <time>2022-10-15 10:15:23</time>
      </trkpt>
      <trkpt lat="38.67765" lon="-0.67901">
        <ele>840.8</ele>
        <time>2022-10-15 10:15:24</time>
      </trkpt>
      <trkpt lat="38.67763" lon="-0.67903">
        <ele>840.8</ele>
        <time>2022-10-15 10:15:25</time>
      </trkpt>
      <trkpt lat="38.67761" lon="-0.67906">
        <ele>840.6</ele>
        <time>2022-10-15 10:15:26</time>
      </trkpt>
      <trkpt lat="38.67759" lon="-0.67908">
        <ele>840.6</ele>
        <time>2022-10-15 10:15:27</time>
      </trkpt>
      <trkpt lat="38.67757" lon="-0.6791">
        <ele>840.6</ele>
        <time>2022-10-15 10:15:28</time>
      </trkpt>
      <trkpt lat="38.67755" lon="-0.67912">
        <ele>840.4</ele>
        <time>2022-10-15 10:15:29</time>
      </trkpt>
      <trkpt lat="38.67754" lon="-0.67914">
        <ele>840.4</ele>
        <time>2022-10-15 10:15:30</time>
      </trkpt>
      <trkpt lat="38.67752" lon="-0.67917">
        <ele>840.4</ele>
        <time>2022-10-15 10:15:31</time>
      </trkpt>
      <trkpt lat="38.6775" lon="-0.6792">
        <ele>840.2</ele>
        <time>2022-10-15 10:15:32</time>
      </trkpt>
      <trkpt lat="38.67748" lon="-0.67922">
        <ele>840.2</ele>
        <time>2022-10-15 10:15:33</time>
      </trkpt>
      <trkpt lat="38.67746" lon="-0.67925">
        <ele>840.2</ele>
        <time>2022-10-15 10:15:34</time>
      </trkpt>
      <trkpt lat="38.67745" lon="-0.67929">
        <ele>840.2</ele>
        <time>2022-10-15 10:15:35</time>
      </trkpt>
      <trkpt lat="38.67743" lon="-0.67932">
        <ele>840.2</ele>
        <time>2022-10-15 10:15:36</time>
      </trkpt>
      <trkpt lat="38.67742" lon="-0.67936">
        <ele>840</ele>
        <time>2022-10-15 10:15:37</time>
      </trkpt>
      <trkpt lat="38.67741" lon="-0.67939">
        <ele>840</ele>
        <time>2022-10-15 10:15:38</time>
      </trkpt>
      <trkpt lat="38.6774" lon="-0.67942">
        <ele>840</ele>
        <time>2022-10-15 10:15:39</time>
      </trkpt>
      <trkpt lat="38.67739" lon="-0.67946">
        <ele>840</ele>
        <time>2022-10-15 10:15:40</time>
      </trkpt>
      <trkpt lat="38.67738" lon="-0.6795">
        <ele>840</ele>
        <time>2022-10-15 10:15:41</time>
      </trkpt>
      <trkpt lat="38.67738" lon="-0.67954">
        <ele>840</ele>
        <time>2022-10-15 10:15:42</time>
      </trkpt>
      <trkpt lat="38.67737" lon="-0.67958">
        <ele>840</ele>
        <time>2022-10-15 10:15:43</time>
      </trkpt>
      <trkpt lat="38.67736" lon="-0.67961">
        <ele>840</ele>
        <time>2022-10-15 10:15:44</time>
      </trkpt>
      <trkpt lat="38.67736" lon="-0.67965">
        <ele>839.8</ele>
        <time>2022-10-15 10:15:45</time>
      </trkpt>
      <trkpt lat="38.67735" lon="-0.67968">
        <ele>839.8</ele>
        <time>2022-10-15 10:15:46</time>
      </trkpt>
      <trkpt lat="38.67735" lon="-0.67972">
        <ele>839.8</ele>
        <time>2022-10-15 10:15:47</time>
      </trkpt>
      <trkpt lat="38.67735" lon="-0.67975">
        <ele>839.8</ele>
        <time>2022-10-15 10:15:48</time>
      </trkpt>
      <trkpt lat="38.67734" lon="-0.67979">
        <ele>840</ele>
        <time>2022-10-15 10:15:49</time>
      </trkpt>
      <trkpt lat="38.67734" lon="-0.67983">
        <ele>840</ele>
        <time>2022-10-15 10:15:50</time>
      </trkpt>
      <trkpt lat="38.67734" lon="-0.67986">
        <ele>840</ele>
        <time>2022-10-15 10:15:51</time>
      </trkpt>
      <trkpt lat="38.67734" lon="-0.6799">
        <ele>840</ele>
        <time>2022-10-15 10:15:52</time>
      </trkpt>
      <trkpt lat="38.67734" lon="-0.67993">
        <ele>840</ele>
        <time>2022-10-15 10:15:53</time>
      </trkpt>
      <trkpt lat="38.67734" lon="-0.67997">
        <ele>840</ele>
        <time>2022-10-15 10:15:54</time>
      </trkpt>
      <trkpt lat="38.67734" lon="-0.68">
        <ele>840.2</ele>
        <time>2022-10-15 10:15:55</time>
      </trkpt>
      <trkpt lat="38.67734" lon="-0.68004">
        <ele>840</ele>
        <time>2022-10-15 10:15:56</time>
      </trkpt>
      <trkpt lat="38.67734" lon="-0.68007">
        <ele>840.2</ele>
        <time>2022-10-15 10:15:57</time>
      </trkpt>
      <trkpt lat="38.67734" lon="-0.68011">
        <ele>840.2</ele>
        <time>2022-10-15 10:15:58</time>
      </trkpt>
      <trkpt lat="38.67734" lon="-0.68014">
        <ele>840.2</ele>
        <time>2022-10-15 10:15:59</time>
      </trkpt>
      <trkpt lat="38.67734" lon="-0.68018">
        <ele>840.4</ele>
        <time>2022-10-15 10:16:00</time>
      </trkpt>
      <trkpt lat="38.67734" lon="-0.68021">
        <ele>840.6</ele>
        <time>2022-10-15 10:16:01</time>
      </trkpt>
      <trkpt lat="38.67733" lon="-0.68025">
        <ele>840.8</ele>
        <time>2022-10-15 10:16:02</time>
      </trkpt>
      <trkpt lat="38.67733" lon="-0.68029">
        <ele>840.8</ele>
        <time>2022-10-15 10:16:03</time>
      </trkpt>
      <trkpt lat="38.67732" lon="-0.68032">
        <ele>840.8</ele>
        <time>2022-10-15 10:16:04</time>
      </trkpt>
      <trkpt lat="38.67731" lon="-0.68036">
        <ele>840.8</ele>
        <time>2022-10-15 10:16:05</time>
      </trkpt>
      <trkpt lat="38.6773" lon="-0.6804">
        <ele>840.8</ele>
        <time>2022-10-15 10:16:06</time>
      </trkpt>
      <trkpt lat="38.67729" lon="-0.68043">
        <ele>840.8</ele>
        <time>2022-10-15 10:16:07</time>
      </trkpt>
      <trkpt lat="38.67728" lon="-0.68046">
        <ele>841</ele>
        <time>2022-10-15 10:16:08</time>
      </trkpt>
      <trkpt lat="38.67726" lon="-0.68049">
        <ele>841</ele>
        <time>2022-10-15 10:16:09</time>
      </trkpt>
      <trkpt lat="38.67725" lon="-0.68052">
        <ele>841</ele>
        <time>2022-10-15 10:16:10</time>
      </trkpt>
      <trkpt lat="38.67723" lon="-0.68055">
        <ele>841</ele>
        <time>2022-10-15 10:16:11</time>
      </trkpt>
      <trkpt lat="38.67721" lon="-0.68058">
        <ele>841</ele>
        <time>2022-10-15 10:16:12</time>
      </trkpt>
      <trkpt lat="38.6772" lon="-0.68061">
        <ele>841</ele>
        <time>2022-10-15 10:16:13</time>
      </trkpt>
      <trkpt lat="38.67718" lon="-0.68063">
        <ele>841</ele>
        <time>2022-10-15 10:16:14</time>
      </trkpt>
      <trkpt lat="38.67716" lon="-0.68065">
        <ele>841.2</ele>
        <time>2022-10-15 10:16:15</time>
      </trkpt>
      <trkpt lat="38.67715" lon="-0.68068">
        <ele>841.2</ele>
        <time>2022-10-15 10:16:16</time>
      </trkpt>
      <trkpt lat="38.67713" lon="-0.6807">
        <ele>841.4</ele>
        <time>2022-10-15 10:16:17</time>
      </trkpt>
      <trkpt lat="38.67711" lon="-0.68072">
        <ele>841.6</ele>
        <time>2022-10-15 10:16:18</time>
      </trkpt>
      <trkpt lat="38.6771" lon="-0.68074">
        <ele>841.8</ele>
        <time>2022-10-15 10:16:19</time>
      </trkpt>
      <trkpt lat="38.67708" lon="-0.68077">
        <ele>842</ele>
        <time>2022-10-15 10:16:20</time>
      </trkpt>
      <trkpt lat="38.67706" lon="-0.68079">
        <ele>842</ele>
        <time>2022-10-15 10:16:21</time>
      </trkpt>
      <trkpt lat="38.67705" lon="-0.68082">
        <ele>842.2</ele>
        <time>2022-10-15 10:16:22</time>
      </trkpt>
      <trkpt lat="38.67704" lon="-0.68084">
        <ele>842.2</ele>
        <time>2022-10-15 10:16:23</time>
      </trkpt>
      <trkpt lat="38.67702" lon="-0.68087">
        <ele>842.4</ele>
        <time>2022-10-15 10:16:24</time>
      </trkpt>
      <trkpt lat="38.67701" lon="-0.68089">
        <ele>842.4</ele>
        <time>2022-10-15 10:16:25</time>
      </trkpt>
      <trkpt lat="38.677" lon="-0.68092">
        <ele>842.6</ele>
        <time>2022-10-15 10:16:26</time>
      </trkpt>
      <trkpt lat="38.67699" lon="-0.68095">
        <ele>842.6</ele>
        <time>2022-10-15 10:16:27</time>
      </trkpt>
      <trkpt lat="38.67698" lon="-0.68098">
        <ele>843</ele>
        <time>2022-10-15 10:16:28</time>
      </trkpt>
      <trkpt lat="38.67696" lon="-0.68101">
        <ele>843.2</ele>
        <time>2022-10-15 10:16:29</time>
      </trkpt>
      <trkpt lat="38.67695" lon="-0.68104">
        <ele>843.4</ele>
        <time>2022-10-15 10:16:30</time>
      </trkpt>
      <trkpt lat="38.67694" lon="-0.68107">
        <ele>843.4</ele>
        <time>2022-10-15 10:16:31</time>
      </trkpt>
      <trkpt lat="38.67694" lon="-0.6811">
        <ele>843.6</ele>
        <time>2022-10-15 10:16:32</time>
      </trkpt>
      <trkpt lat="38.67692" lon="-0.68117">
        <ele>843.8</ele>
        <time>2022-10-15 10:16:33</time>
      </trkpt>
      <trkpt lat="38.67692" lon="-0.68117">
        <ele>844</ele>
        <time>2022-10-15 10:16:34</time>
      </trkpt>
      <trkpt lat="38.67692" lon="-0.6812">
        <ele>844.4</ele>
        <time>2022-10-15 10:16:35</time>
      </trkpt>
      <trkpt lat="38.6769" lon="-0.68124">
        <ele>844.4</ele>
        <time>2022-10-15 10:16:36</time>
      </trkpt>
      <trkpt lat="38.67689" lon="-0.68127">
        <ele>844.6</ele>
        <time>2022-10-15 10:16:37</time>
      </trkpt>
      <trkpt lat="38.67687" lon="-0.6813">
        <ele>844.6</ele>
        <time>2022-10-15 10:16:38</time>
      </trkpt>
      <trkpt lat="38.67685" lon="-0.68133">
        <ele>844.6</ele>
        <time>2022-10-15 10:16:39</time>
      </trkpt>
      <trkpt lat="38.67683" lon="-0.68136">
        <ele>844.8</ele>
        <time>2022-10-15 10:16:40</time>
      </trkpt>
      <trkpt lat="38.6768" lon="-0.68138">
        <ele>844.8</ele>
        <time>2022-10-15 10:16:41</time>
      </trkpt>
      <trkpt lat="38.67677" lon="-0.6814">
        <ele>844.8</ele>
        <time>2022-10-15 10:16:42</time>
      </trkpt>
      <trkpt lat="38.67674" lon="-0.68141">
        <ele>844.8</ele>
        <time>2022-10-15 10:16:43</time>
      </trkpt>
      <trkpt lat="38.67671" lon="-0.68143">
        <ele>844.8</ele>
        <time>2022-10-15 10:16:44</time>
      </trkpt>
      <trkpt lat="38.67669" lon="-0.68144">
        <ele>844.8</ele>
        <time>2022-10-15 10:16:45</time>
      </trkpt>
      <trkpt lat="38.67666" lon="-0.68146">
        <ele>844.8</ele>
        <time>2022-10-15 10:16:46</time>
      </trkpt>
      <trkpt lat="38.67663" lon="-0.68147">
        <ele>845</ele>
        <time>2022-10-15 10:16:47</time>
      </trkpt>
      <trkpt lat="38.6766" lon="-0.68148">
        <ele>845</ele>
        <time>2022-10-15 10:16:48</time>
      </trkpt>
      <trkpt lat="38.67657" lon="-0.68149">
        <ele>845.2</ele>
        <time>2022-10-15 10:16:49</time>
      </trkpt>
      <trkpt lat="38.67654" lon="-0.68149">
        <ele>845.2</ele>
        <time>2022-10-15 10:16:50</time>
      </trkpt>
      <trkpt lat="38.67652" lon="-0.6815">
        <ele>845.2</ele>
        <time>2022-10-15 10:16:51</time>
      </trkpt>
      <trkpt lat="38.67649" lon="-0.68151">
        <ele>845.2</ele>
        <time>2022-10-15 10:16:52</time>
      </trkpt>
      <trkpt lat="38.67647" lon="-0.68152">
        <ele>845.2</ele>
        <time>2022-10-15 10:16:53</time>
      </trkpt>
      <trkpt lat="38.67644" lon="-0.68152">
        <ele>845.4</ele>
        <time>2022-10-15 10:16:54</time>
      </trkpt>
      <trkpt lat="38.67642" lon="-0.68153">
        <ele>845.4</ele>
        <time>2022-10-15 10:16:55</time>
      </trkpt>
      <trkpt lat="38.67639" lon="-0.68154">
        <ele>845.4</ele>
        <time>2022-10-15 10:16:56</time>
      </trkpt>
      <trkpt lat="38.67637" lon="-0.68155">
        <ele>845.6</ele>
        <time>2022-10-15 10:16:57</time>
      </trkpt>
      <trkpt lat="38.67634" lon="-0.68156">
        <ele>845.8</ele>
        <time>2022-10-15 10:16:58</time>
      </trkpt>
      <trkpt lat="38.67632" lon="-0.68157">
        <ele>845.8</ele>
        <time>2022-10-15 10:16:59</time>
      </trkpt>
      <trkpt lat="38.6763" lon="-0.68158">
        <ele>846</ele>
        <time>2022-10-15 10:17:00</time>
      </trkpt>
      <trkpt lat="38.67627" lon="-0.68159">
        <ele>846.2</ele>
        <time>2022-10-15 10:17:01</time>
      </trkpt>
      <trkpt lat="38.67625" lon="-0.6816">
        <ele>846.4</ele>
        <time>2022-10-15 10:17:02</time>
      </trkpt>
      <trkpt lat="38.67623" lon="-0.68161">
        <ele>846.6</ele>
        <time>2022-10-15 10:17:03</time>
      </trkpt>
      <trkpt lat="38.6762" lon="-0.68162">
        <ele>847</ele>
        <time>2022-10-15 10:17:04</time>
      </trkpt>
      <trkpt lat="38.67618" lon="-0.68163">
        <ele>847.2</ele>
        <time>2022-10-15 10:17:05</time>
      </trkpt>
      <trkpt lat="38.67616" lon="-0.68163">
        <ele>847.4</ele>
        <time>2022-10-15 10:17:06</time>
      </trkpt>
      <trkpt lat="38.67613" lon="-0.68163">
        <ele>847.6</ele>
        <time>2022-10-15 10:17:07</time>
      </trkpt>
      <trkpt lat="38.67611" lon="-0.68163">
        <ele>847.8</ele>
        <time>2022-10-15 10:17:08</time>
      </trkpt>
      <trkpt lat="38.67608" lon="-0.68164">
        <ele>847.8</ele>
        <time>2022-10-15 10:17:09</time>
      </trkpt>
      <trkpt lat="38.67606" lon="-0.68165">
        <ele>848</ele>
        <time>2022-10-15 10:17:10</time>
      </trkpt>
      <trkpt lat="38.67603" lon="-0.68165">
        <ele>848.2</ele>
        <time>2022-10-15 10:17:11</time>
      </trkpt>
      <trkpt lat="38.67601" lon="-0.68166">
        <ele>848.4</ele>
        <time>2022-10-15 10:17:12</time>
      </trkpt>
      <trkpt lat="38.67598" lon="-0.68166">
        <ele>848.6</ele>
        <time>2022-10-15 10:17:13</time>
      </trkpt>
      <trkpt lat="38.67596" lon="-0.68167">
        <ele>848.8</ele>
        <time>2022-10-15 10:17:14</time>
      </trkpt>
      <trkpt lat="38.67593" lon="-0.68168">
        <ele>849</ele>
        <time>2022-10-15 10:17:15</time>
      </trkpt>
      <trkpt lat="38.67591" lon="-0.68169">
        <ele>849</ele>
        <time>2022-10-15 10:17:16</time>
      </trkpt>
      <trkpt lat="38.67589" lon="-0.6817">
        <ele>849.2</ele>
        <time>2022-10-15 10:17:17</time>
      </trkpt>
      <trkpt lat="38.67587" lon="-0.68171">
        <ele>849.2</ele>
        <time>2022-10-15 10:17:18</time>
      </trkpt>
      <trkpt lat="38.67584" lon="-0.68173">
        <ele>849.2</ele>
        <time>2022-10-15 10:17:19</time>
      </trkpt>
      <trkpt lat="38.67582" lon="-0.68174">
        <ele>849.4</ele>
        <time>2022-10-15 10:17:20</time>
      </trkpt>
      <trkpt lat="38.6758" lon="-0.68176">
        <ele>849.4</ele>
        <time>2022-10-15 10:17:21</time>
      </trkpt>
      <trkpt lat="38.67578" lon="-0.68178">
        <ele>849.4</ele>
        <time>2022-10-15 10:17:22</time>
      </trkpt>
      <trkpt lat="38.67576" lon="-0.68179">
        <ele>849.6</ele>
        <time>2022-10-15 10:17:23</time>
      </trkpt>
      <trkpt lat="38.67574" lon="-0.68181">
        <ele>849.6</ele>
        <time>2022-10-15 10:17:24</time>
      </trkpt>
      <trkpt lat="38.67572" lon="-0.68183">
        <ele>849.6</ele>
        <time>2022-10-15 10:17:25</time>
      </trkpt>
      <trkpt lat="38.6757" lon="-0.68185">
        <ele>849.6</ele>
        <time>2022-10-15 10:17:26</time>
      </trkpt>
      <trkpt lat="38.67568" lon="-0.68187">
        <ele>849.8</ele>
        <time>2022-10-15 10:17:27</time>
      </trkpt>
      <trkpt lat="38.67566" lon="-0.68189">
        <ele>850</ele>
        <time>2022-10-15 10:17:28</time>
      </trkpt>
      <trkpt lat="38.67564" lon="-0.68192">
        <ele>850.2</ele>
        <time>2022-10-15 10:17:29</time>
      </trkpt>
      <trkpt lat="38.67563" lon="-0.68194">
        <ele>850.6</ele>
        <time>2022-10-15 10:17:30</time>
      </trkpt>
      <trkpt lat="38.67561" lon="-0.68196">
        <ele>850.8</ele>
        <time>2022-10-15 10:17:31</time>
      </trkpt>
      <trkpt lat="38.67559" lon="-0.68199">
        <ele>850.8</ele>
        <time>2022-10-15 10:17:32</time>
      </trkpt>
      <trkpt lat="38.67557" lon="-0.68201">
        <ele>850.8</ele>
        <time>2022-10-15 10:17:33</time>
      </trkpt>
      <trkpt lat="38.67555" lon="-0.68203">
        <ele>851</ele>
        <time>2022-10-15 10:17:34</time>
      </trkpt>
      <trkpt lat="38.67553" lon="-0.68205">
        <ele>851</ele>
        <time>2022-10-15 10:17:35</time>
      </trkpt>
      <trkpt lat="38.67551" lon="-0.68207">
        <ele>851</ele>
        <time>2022-10-15 10:17:36</time>
      </trkpt>
      <trkpt lat="38.6755" lon="-0.6821">
        <ele>851.2</ele>
        <time>2022-10-15 10:17:37</time>
      </trkpt>
      <trkpt lat="38.67548" lon="-0.68213">
        <ele>851.2</ele>
        <time>2022-10-15 10:17:38</time>
      </trkpt>
      <trkpt lat="38.67546" lon="-0.68216">
        <ele>851.2</ele>
        <time>2022-10-15 10:17:39</time>
      </trkpt>
      <trkpt lat="38.67544" lon="-0.68219">
        <ele>851.4</ele>
        <time>2022-10-15 10:17:40</time>
      </trkpt>
      <trkpt lat="38.67543" lon="-0.68222">
        <ele>851.4</ele>
        <time>2022-10-15 10:17:41</time>
      </trkpt>
      <trkpt lat="38.67541" lon="-0.68225">
        <ele>851.4</ele>
        <time>2022-10-15 10:17:42</time>
      </trkpt>
      <trkpt lat="38.67539" lon="-0.68228">
        <ele>851.4</ele>
        <time>2022-10-15 10:17:43</time>
      </trkpt>
      <trkpt lat="38.67537" lon="-0.68231">
        <ele>851.4</ele>
        <time>2022-10-15 10:17:44</time>
      </trkpt>
      <trkpt lat="38.67536" lon="-0.68234">
        <ele>851.4</ele>
        <time>2022-10-15 10:17:45</time>
      </trkpt>
      <trkpt lat="38.67535" lon="-0.68237">
        <ele>851.6</ele>
        <time>2022-10-15 10:17:46</time>
      </trkpt>
      <trkpt lat="38.67533" lon="-0.6824">
        <ele>851.6</ele>
        <time>2022-10-15 10:17:47</time>
      </trkpt>
      <trkpt lat="38.67532" lon="-0.68243">
        <ele>851.8</ele>
        <time>2022-10-15 10:17:48</time>
      </trkpt>
      <trkpt lat="38.67531" lon="-0.68247">
        <ele>852</ele>
        <time>2022-10-15 10:17:49</time>
      </trkpt>
      <trkpt lat="38.6753" lon="-0.6825">
        <ele>852</ele>
        <time>2022-10-15 10:17:50</time>
      </trkpt>
      <trkpt lat="38.67529" lon="-0.68253">
        <ele>852.2</ele>
        <time>2022-10-15 10:17:51</time>
      </trkpt>
      <trkpt lat="38.67529" lon="-0.68257">
        <ele>852.2</ele>
        <time>2022-10-15 10:17:52</time>
      </trkpt>
      <trkpt lat="38.67528" lon="-0.6826">
        <ele>852.4</ele>
        <time>2022-10-15 10:17:53</time>
      </trkpt>
      <trkpt lat="38.67528" lon="-0.68264">
        <ele>852.4</ele>
        <time>2022-10-15 10:17:54</time>
      </trkpt>
      <trkpt lat="38.67527" lon="-0.68267">
        <ele>852.6</ele>
        <time>2022-10-15 10:17:55</time>
      </trkpt>
      <trkpt lat="38.67526" lon="-0.68271">
        <ele>852.6</ele>
        <time>2022-10-15 10:17:56</time>
      </trkpt>
      <trkpt lat="38.67525" lon="-0.68275">
        <ele>852.8</ele>
        <time>2022-10-15 10:17:57</time>
      </trkpt>
      <trkpt lat="38.67525" lon="-0.68278">
        <ele>852.8</ele>
        <time>2022-10-15 10:17:58</time>
      </trkpt>
      <trkpt lat="38.67524" lon="-0.68282">
        <ele>852.8</ele>
        <time>2022-10-15 10:17:59</time>
      </trkpt>
      <trkpt lat="38.67523" lon="-0.68285">
        <ele>852.8</ele>
        <time>2022-10-15 10:18:00</time>
      </trkpt>
      <trkpt lat="38.67522" lon="-0.68289">
        <ele>852.8</ele>
        <time>2022-10-15 10:18:01</time>
      </trkpt>
      <trkpt lat="38.67522" lon="-0.68292">
        <ele>853</ele>
        <time>2022-10-15 10:18:02</time>
      </trkpt>
      <trkpt lat="38.67521" lon="-0.68296">
        <ele>853</ele>
        <time>2022-10-15 10:18:03</time>
      </trkpt>
      <trkpt lat="38.6752" lon="-0.68299">
        <ele>853</ele>
        <time>2022-10-15 10:18:04</time>
      </trkpt>
      <trkpt lat="38.67519" lon="-0.68302">
        <ele>853.2</ele>
        <time>2022-10-15 10:18:05</time>
      </trkpt>
      <trkpt lat="38.67519" lon="-0.68305">
        <ele>853.2</ele>
        <time>2022-10-15 10:18:06</time>
      </trkpt>
      <trkpt lat="38.67518" lon="-0.68308">
        <ele>853.4</ele>
        <time>2022-10-15 10:18:07</time>
      </trkpt>
      <trkpt lat="38.67517" lon="-0.68312">
        <ele>853.4</ele>
        <time>2022-10-15 10:18:08</time>
      </trkpt>
      <trkpt lat="38.67516" lon="-0.68315">
        <ele>853.6</ele>
        <time>2022-10-15 10:18:09</time>
      </trkpt>
      <trkpt lat="38.67515" lon="-0.68318">
        <ele>853.6</ele>
        <time>2022-10-15 10:18:10</time>
      </trkpt>
      <trkpt lat="38.67515" lon="-0.68321">
        <ele>853.6</ele>
        <time>2022-10-15 10:18:11</time>
      </trkpt>
      <trkpt lat="38.67514" lon="-0.68325">
        <ele>853.6</ele>
        <time>2022-10-15 10:18:12</time>
      </trkpt>
      <trkpt lat="38.67514" lon="-0.68328">
        <ele>853.8</ele>
        <time>2022-10-15 10:18:13</time>
      </trkpt>
      <trkpt lat="38.67513" lon="-0.68331">
        <ele>853.8</ele>
        <time>2022-10-15 10:18:14</time>
      </trkpt>
      <trkpt lat="38.67513" lon="-0.68335">
        <ele>853.8</ele>
        <time>2022-10-15 10:18:15</time>
      </trkpt>
      <trkpt lat="38.67512" lon="-0.68338">
        <ele>854</ele>
        <time>2022-10-15 10:18:16</time>
      </trkpt>
      <trkpt lat="38.67511" lon="-0.68341">
        <ele>854</ele>
        <time>2022-10-15 10:18:17</time>
      </trkpt>
      <trkpt lat="38.67511" lon="-0.68345">
        <ele>854.2</ele>
        <time>2022-10-15 10:18:18</time>
      </trkpt>
      <trkpt lat="38.67511" lon="-0.68348">
        <ele>854.4</ele>
        <time>2022-10-15 10:18:19</time>
      </trkpt>
      <trkpt lat="38.6751" lon="-0.68352">
        <ele>854.4</ele>
        <time>2022-10-15 10:18:20</time>
      </trkpt>
      <trkpt lat="38.6751" lon="-0.68355">
        <ele>854.6</ele>
        <time>2022-10-15 10:18:21</time>
      </trkpt>
      <trkpt lat="38.6751" lon="-0.68358">
        <ele>854.8</ele>
        <time>2022-10-15 10:18:22</time>
      </trkpt>
      <trkpt lat="38.67509" lon="-0.68361">
        <ele>855</ele>
        <time>2022-10-15 10:18:23</time>
      </trkpt>
      <trkpt lat="38.67509" lon="-0.68364">
        <ele>855.4</ele>
        <time>2022-10-15 10:18:24</time>
      </trkpt>
      <trkpt lat="38.67508" lon="-0.68367">
        <ele>855.6</ele>
        <time>2022-10-15 10:18:25</time>
      </trkpt>
      <trkpt lat="38.67508" lon="-0.6837">
        <ele>855.8</ele>
        <time>2022-10-15 10:18:26</time>
      </trkpt>
      <trkpt lat="38.67507" lon="-0.68373">
        <ele>856</ele>
        <time>2022-10-15 10:18:27</time>
      </trkpt>
      <trkpt lat="38.67506" lon="-0.68376">
        <ele>856</ele>
        <time>2022-10-15 10:18:28</time>
      </trkpt>
      <trkpt lat="38.67506" lon="-0.6838">
        <ele>856.2</ele>
        <time>2022-10-15 10:18:29</time>
      </trkpt>
      <trkpt lat="38.67505" lon="-0.68383">
        <ele>856.4</ele>
        <time>2022-10-15 10:18:30</time>
      </trkpt>
      <trkpt lat="38.67505" lon="-0.68386">
        <ele>856.6</ele>
        <time>2022-10-15 10:18:31</time>
      </trkpt>
      <trkpt lat="38.67505" lon="-0.6839">
        <ele>856.8</ele>
        <time>2022-10-15 10:18:32</time>
      </trkpt>
      <trkpt lat="38.67505" lon="-0.68393">
        <ele>856.8</ele>
        <time>2022-10-15 10:18:33</time>
      </trkpt>
      <trkpt lat="38.67505" lon="-0.68396">
        <ele>857</ele>
        <time>2022-10-15 10:18:34</time>
      </trkpt>
      <trkpt lat="38.67505" lon="-0.684">
        <ele>857.4</ele>
        <time>2022-10-15 10:18:35</time>
      </trkpt>
      <trkpt lat="38.67504" lon="-0.68403">
        <ele>857.4</ele>
        <time>2022-10-15 10:18:36</time>
      </trkpt>
      <trkpt lat="38.67504" lon="-0.68406">
        <ele>857.6</ele>
        <time>2022-10-15 10:18:37</time>
      </trkpt>
      <trkpt lat="38.67504" lon="-0.6841">
        <ele>857.8</ele>
        <time>2022-10-15 10:18:38</time>
      </trkpt>
      <trkpt lat="38.67503" lon="-0.68413">
        <ele>857.8</ele>
        <time>2022-10-15 10:18:39</time>
      </trkpt>
      <trkpt lat="38.67503" lon="-0.68417">
        <ele>858</ele>
        <time>2022-10-15 10:18:40</time>
      </trkpt>
      <trkpt lat="38.67503" lon="-0.6842">
        <ele>858</ele>
        <time>2022-10-15 10:18:41</time>
      </trkpt>
      <trkpt lat="38.67502" lon="-0.68423">
        <ele>858.2</ele>
        <time>2022-10-15 10:18:42</time>
      </trkpt>
      <trkpt lat="38.67502" lon="-0.68427">
        <ele>858.4</ele>
        <time>2022-10-15 10:18:43</time>
      </trkpt>
      <trkpt lat="38.67502" lon="-0.6843">
        <ele>858.6</ele>
        <time>2022-10-15 10:18:44</time>
      </trkpt>
      <trkpt lat="38.67501" lon="-0.68434">
        <ele>858.8</ele>
        <time>2022-10-15 10:18:45</time>
      </trkpt>
      <trkpt lat="38.67501" lon="-0.68437">
        <ele>858.8</ele>
        <time>2022-10-15 10:18:46</time>
      </trkpt>
      <trkpt lat="38.675" lon="-0.68441">
        <ele>859</ele>
        <time>2022-10-15 10:18:47</time>
      </trkpt>
      <trkpt lat="38.675" lon="-0.68444">
        <ele>859</ele>
        <time>2022-10-15 10:18:48</time>
      </trkpt>
      <trkpt lat="38.675" lon="-0.68448">
        <ele>859.2</ele>
        <time>2022-10-15 10:18:49</time>
      </trkpt>
      <trkpt lat="38.675" lon="-0.68451">
        <ele>859.2</ele>
        <time>2022-10-15 10:18:50</time>
      </trkpt>
      <trkpt lat="38.67499" lon="-0.68455">
        <ele>859.4</ele>
        <time>2022-10-15 10:18:51</time>
      </trkpt>
      <trkpt lat="38.67499" lon="-0.68458">
        <ele>859.6</ele>
        <time>2022-10-15 10:18:52</time>
      </trkpt>
      <trkpt lat="38.67499" lon="-0.68461">
        <ele>859.6</ele>
        <time>2022-10-15 10:18:53</time>
      </trkpt>
      <trkpt lat="38.67499" lon="-0.68464">
        <ele>859.8</ele>
        <time>2022-10-15 10:18:54</time>
      </trkpt>
      <trkpt lat="38.67499" lon="-0.68467">
        <ele>860</ele>
        <time>2022-10-15 10:18:55</time>
      </trkpt>
      <trkpt lat="38.67499" lon="-0.6847">
        <ele>860.2</ele>
        <time>2022-10-15 10:18:56</time>
      </trkpt>
      <trkpt lat="38.67499" lon="-0.68473">
        <ele>860.4</ele>
        <time>2022-10-15 10:18:57</time>
      </trkpt>
      <trkpt lat="38.67498" lon="-0.68477">
        <ele>860.4</ele>
        <time>2022-10-15 10:18:58</time>
      </trkpt>
      <trkpt lat="38.67498" lon="-0.6848">
        <ele>860.4</ele>
        <time>2022-10-15 10:18:59</time>
      </trkpt>
      <trkpt lat="38.67498" lon="-0.68483">
        <ele>860.4</ele>
        <time>2022-10-15 10:19:00</time>
      </trkpt>
      <trkpt lat="38.67497" lon="-0.68486">
        <ele>860.6</ele>
        <time>2022-10-15 10:19:01</time>
      </trkpt>
      <trkpt lat="38.67497" lon="-0.68489">
        <ele>860.6</ele>
        <time>2022-10-15 10:19:02</time>
      </trkpt>
      <trkpt lat="38.67497" lon="-0.68492">
        <ele>860.6</ele>
        <time>2022-10-15 10:19:03</time>
      </trkpt>
      <trkpt lat="38.67497" lon="-0.68495">
        <ele>860.8</ele>
        <time>2022-10-15 10:19:04</time>
      </trkpt>
      <trkpt lat="38.67497" lon="-0.68498">
        <ele>861</ele>
        <time>2022-10-15 10:19:05</time>
      </trkpt>
      <trkpt lat="38.67497" lon="-0.68501">
        <ele>861.2</ele>
        <time>2022-10-15 10:19:06</time>
      </trkpt>
      <trkpt lat="38.67497" lon="-0.68504">
        <ele>861.4</ele>
        <time>2022-10-15 10:19:07</time>
      </trkpt>
      <trkpt lat="38.67497" lon="-0.68507">
        <ele>861.8</ele>
        <time>2022-10-15 10:19:08</time>
      </trkpt>
      <trkpt lat="38.67497" lon="-0.68511">
        <ele>862</ele>
        <time>2022-10-15 10:19:09</time>
      </trkpt>
      <trkpt lat="38.67497" lon="-0.68514">
        <ele>862.2</ele>
        <time>2022-10-15 10:19:10</time>
      </trkpt>
      <trkpt lat="38.67497" lon="-0.68517">
        <ele>862.4</ele>
        <time>2022-10-15 10:19:11</time>
      </trkpt>
      <trkpt lat="38.67497" lon="-0.6852">
        <ele>862.6</ele>
        <time>2022-10-15 10:19:12</time>
      </trkpt>
      <trkpt lat="38.67497" lon="-0.68524">
        <ele>862.8</ele>
        <time>2022-10-15 10:19:13</time>
      </trkpt>
      <trkpt lat="38.67497" lon="-0.68527">
        <ele>863</ele>
        <time>2022-10-15 10:19:14</time>
      </trkpt>
      <trkpt lat="38.67497" lon="-0.68529">
        <ele>863</ele>
        <time>2022-10-15 10:19:15</time>
      </trkpt>
      <trkpt lat="38.67497" lon="-0.68532">
        <ele>863.2</ele>
        <time>2022-10-15 10:19:16</time>
      </trkpt>
      <trkpt lat="38.67497" lon="-0.68535">
        <ele>863.4</ele>
        <time>2022-10-15 10:19:17</time>
      </trkpt>
      <trkpt lat="38.67497" lon="-0.68537">
        <ele>863.6</ele>
        <time>2022-10-15 10:19:18</time>
      </trkpt>
      <trkpt lat="38.67496" lon="-0.68539">
        <ele>863.6</ele>
        <time>2022-10-15 10:19:19</time>
      </trkpt>
      <trkpt lat="38.67496" lon="-0.68541">
        <ele>863.8</ele>
        <time>2022-10-15 10:19:20</time>
      </trkpt>
      <trkpt lat="38.67495" lon="-0.68543">
        <ele>863.8</ele>
        <time>2022-10-15 10:19:21</time>
      </trkpt>
      <trkpt lat="38.67495" lon="-0.68545">
        <ele>864</ele>
        <time>2022-10-15 10:19:22</time>
      </trkpt>
      <trkpt lat="38.67495" lon="-0.68547">
        <ele>864.2</ele>
        <time>2022-10-15 10:19:23</time>
      </trkpt>
      <trkpt lat="38.67494" lon="-0.68549">
        <ele>864.2</ele>
        <time>2022-10-15 10:19:24</time>
      </trkpt>
      <trkpt lat="38.67494" lon="-0.68551">
        <ele>864.2</ele>
        <time>2022-10-15 10:19:25</time>
      </trkpt>
      <trkpt lat="38.67493" lon="-0.68552">
        <ele>864.4</ele>
        <time>2022-10-15 10:19:26</time>
      </trkpt>
      <trkpt lat="38.67492" lon="-0.68554">
        <ele>864.6</ele>
        <time>2022-10-15 10:19:27</time>
      </trkpt>
      <trkpt lat="38.67492" lon="-0.68555">
        <ele>864.6</ele>
        <time>2022-10-15 10:19:28</time>
      </trkpt>
      <trkpt lat="38.67492" lon="-0.68557">
        <ele>864.6</ele>
        <time>2022-10-15 10:19:29</time>
      </trkpt>
      <trkpt lat="38.67491" lon="-0.68559">
        <ele>864.8</ele>
        <time>2022-10-15 10:19:30</time>
      </trkpt>
      <trkpt lat="38.6749" lon="-0.6856">
        <ele>864.8</ele>
        <time>2022-10-15 10:19:31</time>
      </trkpt>
      <trkpt lat="38.67489" lon="-0.68562">
        <ele>865</ele>
        <time>2022-10-15 10:19:32</time>
      </trkpt>
      <trkpt lat="38.67489" lon="-0.68564">
        <ele>865</ele>
        <time>2022-10-15 10:19:33</time>
      </trkpt>
      <trkpt lat="38.67488" lon="-0.68565">
        <ele>865.2</ele>
        <time>2022-10-15 10:19:34</time>
      </trkpt>
      <trkpt lat="38.67488" lon="-0.68567">
        <ele>865.2</ele>
        <time>2022-10-15 10:19:35</time>
      </trkpt>
      <trkpt lat="38.67487" lon="-0.68568">
        <ele>865.4</ele>
        <time>2022-10-15 10:19:36</time>
      </trkpt>
      <trkpt lat="38.67486" lon="-0.68569">
        <ele>865.2</ele>
        <time>2022-10-15 10:19:37</time>
      </trkpt>
      <trkpt lat="38.67485" lon="-0.6857">
        <ele>865.4</ele>
        <time>2022-10-15 10:19:38</time>
      </trkpt>
      <trkpt lat="38.67485" lon="-0.68571">
        <ele>865.6</ele>
        <time>2022-10-15 10:19:39</time>
      </trkpt>
      <trkpt lat="38.67485" lon="-0.68572">
        <ele>865.6</ele>
        <time>2022-10-15 10:19:40</time>
      </trkpt>
      <trkpt lat="38.67484" lon="-0.68573">
        <ele>865.8</ele>
        <time>2022-10-15 10:19:41</time>
      </trkpt>
      <trkpt lat="38.67483" lon="-0.68573">
        <ele>866</ele>
        <time>2022-10-15 10:19:42</time>
      </trkpt>
      <trkpt lat="38.67481" lon="-0.68573">
        <ele>866.2</ele>
        <time>2022-10-15 10:19:43</time>
      </trkpt>
      <trkpt lat="38.67481" lon="-0.68572">
        <ele>866.2</ele>
        <time>2022-10-15 10:19:44</time>
      </trkpt>
      <trkpt lat="38.6748" lon="-0.68572">
        <ele>866.4</ele>
        <time>2022-10-15 10:19:45</time>
      </trkpt>
      <trkpt lat="38.6748" lon="-0.68571">
        <ele>866.6</ele>
        <time>2022-10-15 10:19:46</time>
      </trkpt>
      <trkpt lat="38.67479" lon="-0.6857">
        <ele>866.8</ele>
        <time>2022-10-15 10:19:47</time>
      </trkpt>
      <trkpt lat="38.67478" lon="-0.68569">
        <ele>866.8</ele>
        <time>2022-10-15 10:19:48</time>
      </trkpt>
      <trkpt lat="38.67478" lon="-0.68567">
        <ele>866.8</ele>
        <time>2022-10-15 10:19:49</time>
      </trkpt>
      <trkpt lat="38.67477" lon="-0.68565">
        <ele>867</ele>
        <time>2022-10-15 10:19:50</time>
      </trkpt>
      <trkpt lat="38.67476" lon="-0.68563">
        <ele>867</ele>
        <time>2022-10-15 10:19:51</time>
      </trkpt>
      <trkpt lat="38.67475" lon="-0.68562">
        <ele>867</ele>
        <time>2022-10-15 10:19:52</time>
      </trkpt>
      <trkpt lat="38.67473" lon="-0.6856">
        <ele>867</ele>
        <time>2022-10-15 10:19:53</time>
      </trkpt>
      <trkpt lat="38.67472" lon="-0.6856">
        <ele>867.2</ele>
        <time>2022-10-15 10:19:54</time>
      </trkpt>
      <trkpt lat="38.67471" lon="-0.68559">
        <ele>867.2</ele>
        <time>2022-10-15 10:19:55</time>
      </trkpt>
      <trkpt lat="38.67471" lon="-0.68559">
        <ele>867.2</ele>
        <time>2022-10-15 10:19:56</time>
      </trkpt>
      <trkpt lat="38.67471" lon="-0.68559">
        <ele>867.2</ele>
        <time>2022-10-15 10:19:57</time>
      </trkpt>
      <trkpt lat="38.67442" lon="-0.68563">
        <ele>873.4</ele>
        <time>2022-10-15 10:20:47</time>
      </trkpt>
      <trkpt lat="38.6744" lon="-0.68564">
        <ele>873.4</ele>
        <time>2022-10-15 10:20:48</time>
      </trkpt>
      <trkpt lat="38.67438" lon="-0.68565">
        <ele>873.4</ele>
        <time>2022-10-15 10:20:49</time>
      </trkpt>
      <trkpt lat="38.67436" lon="-0.68565">
        <ele>873.4</ele>
        <time>2022-10-15 10:20:50</time>
      </trkpt>
      <trkpt lat="38.67434" lon="-0.68566">
        <ele>873.4</ele>
        <time>2022-10-15 10:20:51</time>
      </trkpt>
      <trkpt lat="38.67433" lon="-0.68568">
        <ele>873.4</ele>
        <time>2022-10-15 10:20:52</time>
      </trkpt>
      <trkpt lat="38.67431" lon="-0.68569">
        <ele>873.4</ele>
        <time>2022-10-15 10:20:53</time>
      </trkpt>
      <trkpt lat="38.6743" lon="-0.68571">
        <ele>873.4</ele>
        <time>2022-10-15 10:20:54</time>
      </trkpt>
      <trkpt lat="38.67429" lon="-0.68573">
        <ele>873.6</ele>
        <time>2022-10-15 10:20:55</time>
      </trkpt>
      <trkpt lat="38.67428" lon="-0.68575">
        <ele>873.6</ele>
        <time>2022-10-15 10:20:56</time>
      </trkpt>
      <trkpt lat="38.67426" lon="-0.68576">
        <ele>873.8</ele>
        <time>2022-10-15 10:20:57</time>
      </trkpt>
      <trkpt lat="38.67425" lon="-0.68578">
        <ele>874</ele>
        <time>2022-10-15 10:20:58</time>
      </trkpt>
      <trkpt lat="38.67423" lon="-0.68579">
        <ele>874.2</ele>
        <time>2022-10-15 10:20:59</time>
      </trkpt>
      <trkpt lat="38.67422" lon="-0.68581">
        <ele>874.4</ele>
        <time>2022-10-15 10:21:00</time>
      </trkpt>
      <trkpt lat="38.6742" lon="-0.68583">
        <ele>874.8</ele>
        <time>2022-10-15 10:21:01</time>
      </trkpt>
      <trkpt lat="38.67419" lon="-0.68585">
        <ele>874.8</ele>
        <time>2022-10-15 10:21:02</time>
      </trkpt>
      <trkpt lat="38.67418" lon="-0.68586">
        <ele>875</ele>
        <time>2022-10-15 10:21:03</time>
      </trkpt>
      <trkpt lat="38.67417" lon="-0.68588">
        <ele>875.2</ele>
        <time>2022-10-15 10:21:04</time>
      </trkpt>
      <trkpt lat="38.67416" lon="-0.6859">
        <ele>875.4</ele>
        <time>2022-10-15 10:21:05</time>
      </trkpt>
      <trkpt lat="38.67414" lon="-0.68591">
        <ele>875.6</ele>
        <time>2022-10-15 10:21:06</time>
      </trkpt>
      <trkpt lat="38.67413" lon="-0.68593">
        <ele>875.8</ele>
        <time>2022-10-15 10:21:07</time>
      </trkpt>
      <trkpt lat="38.67412" lon="-0.68595">
        <ele>876.2</ele>
        <time>2022-10-15 10:21:08</time>
      </trkpt>
      <trkpt lat="38.6741" lon="-0.68596">
        <ele>876.2</ele>
        <time>2022-10-15 10:21:09</time>
      </trkpt>
      <trkpt lat="38.67409" lon="-0.68598">
        <ele>876.4</ele>
        <time>2022-10-15 10:21:10</time>
      </trkpt>
      <trkpt lat="38.67408" lon="-0.686">
        <ele>876.6</ele>
        <time>2022-10-15 10:21:11</time>
      </trkpt>
      <trkpt lat="38.67407" lon="-0.68601">
        <ele>876.6</ele>
        <time>2022-10-15 10:21:12</time>
      </trkpt>
      <trkpt lat="38.67406" lon="-0.68603">
        <ele>877</ele>
        <time>2022-10-15 10:21:13</time>
      </trkpt>
      <trkpt lat="38.67405" lon="-0.68605">
        <ele>877.2</ele>
        <time>2022-10-15 10:21:14</time>
      </trkpt>
      <trkpt lat="38.67404" lon="-0.68607">
        <ele>877.6</ele>
        <time>2022-10-15 10:21:15</time>
      </trkpt>
      <trkpt lat="38.67403" lon="-0.68609">
        <ele>878</ele>
        <time>2022-10-15 10:21:16</time>
      </trkpt>
      <trkpt lat="38.67402" lon="-0.68611">
        <ele>878</ele>
        <time>2022-10-15 10:21:17</time>
      </trkpt>
      <trkpt lat="38.674" lon="-0.68613">
        <ele>878.2</ele>
        <time>2022-10-15 10:21:18</time>
      </trkpt>
      <trkpt lat="38.67399" lon="-0.68615">
        <ele>878.2</ele>
        <time>2022-10-15 10:21:19</time>
      </trkpt>
      <trkpt lat="38.67398" lon="-0.68616">
        <ele>878.4</ele>
        <time>2022-10-15 10:21:20</time>
      </trkpt>
      <trkpt lat="38.67397" lon="-0.68618">
        <ele>878.4</ele>
        <time>2022-10-15 10:21:21</time>
      </trkpt>
      <trkpt lat="38.67396" lon="-0.6862">
        <ele>878.4</ele>
        <time>2022-10-15 10:21:22</time>
      </trkpt>
      <trkpt lat="38.67395" lon="-0.68622">
        <ele>878.8</ele>
        <time>2022-10-15 10:21:23</time>
      </trkpt>
      <trkpt lat="38.67394" lon="-0.68624">
        <ele>879</ele>
        <time>2022-10-15 10:21:24</time>
      </trkpt>
      <trkpt lat="38.67393" lon="-0.68625">
        <ele>879.2</ele>
        <time>2022-10-15 10:21:25</time>
      </trkpt>
      <trkpt lat="38.67391" lon="-0.68627">
        <ele>879.6</ele>
        <time>2022-10-15 10:21:26</time>
      </trkpt>
      <trkpt lat="38.6739" lon="-0.68629">
        <ele>879.8</ele>
        <time>2022-10-15 10:21:27</time>
      </trkpt>
      <trkpt lat="38.67388" lon="-0.68632">
        <ele>880</ele>
        <time>2022-10-15 10:21:28</time>
      </trkpt>
      <trkpt lat="38.67387" lon="-0.68634">
        <ele>880.2</ele>
        <time>2022-10-15 10:21:29</time>
      </trkpt>
      <trkpt lat="38.67385" lon="-0.68637">
        <ele>880.4</ele>
        <time>2022-10-15 10:21:30</time>
      </trkpt>
      <trkpt lat="38.67383" lon="-0.6864">
        <ele>880.4</ele>
        <time>2022-10-15 10:21:31</time>
      </trkpt>
      <trkpt lat="38.6738" lon="-0.68643">
        <ele>880.6</ele>
        <time>2022-10-15 10:21:32</time>
      </trkpt>
      <trkpt lat="38.67378" lon="-0.68647">
        <ele>880.6</ele>
        <time>2022-10-15 10:21:33</time>
      </trkpt>
      <trkpt lat="38.67376" lon="-0.68651">
        <ele>880.8</ele>
        <time>2022-10-15 10:21:34</time>
      </trkpt>
      <trkpt lat="38.67375" lon="-0.68655">
        <ele>880.8</ele>
        <time>2022-10-15 10:21:35</time>
      </trkpt>
      <trkpt lat="38.67373" lon="-0.68659">
        <ele>881</ele>
        <time>2022-10-15 10:21:36</time>
      </trkpt>
      <trkpt lat="38.67371" lon="-0.68663">
        <ele>881.2</ele>
        <time>2022-10-15 10:21:37</time>
      </trkpt>
      <trkpt lat="38.67369" lon="-0.68667">
        <ele>881.4</ele>
        <time>2022-10-15 10:21:38</time>
      </trkpt>
      <trkpt lat="38.67368" lon="-0.68671">
        <ele>881.6</ele>
        <time>2022-10-15 10:21:39</time>
      </trkpt>
      <trkpt lat="38.67366" lon="-0.68675">
        <ele>881.8</ele>
        <time>2022-10-15 10:21:40</time>
      </trkpt>
      <trkpt lat="38.67365" lon="-0.68679">
        <ele>882</ele>
        <time>2022-10-15 10:21:41</time>
      </trkpt>
      <trkpt lat="38.67364" lon="-0.68683">
        <ele>882.2</ele>
        <time>2022-10-15 10:21:42</time>
      </trkpt>
      <trkpt lat="38.67363" lon="-0.68687">
        <ele>882.8</ele>
        <time>2022-10-15 10:21:43</time>
      </trkpt>
      <trkpt lat="38.67362" lon="-0.68691">
        <ele>883</ele>
        <time>2022-10-15 10:21:44</time>
      </trkpt>
      <trkpt lat="38.6736" lon="-0.68694">
        <ele>883.2</ele>
        <time>2022-10-15 10:21:45</time>
      </trkpt>
      <trkpt lat="38.67359" lon="-0.68697">
        <ele>883.4</ele>
        <time>2022-10-15 10:21:46</time>
      </trkpt>
      <trkpt lat="38.67357" lon="-0.68701">
        <ele>883.8</ele>
        <time>2022-10-15 10:21:47</time>
      </trkpt>
      <trkpt lat="38.67355" lon="-0.68705">
        <ele>884.4</ele>
        <time>2022-10-15 10:21:48</time>
      </trkpt>
      <trkpt lat="38.67353" lon="-0.68708">
        <ele>884.8</ele>
        <time>2022-10-15 10:21:49</time>
      </trkpt>
      <trkpt lat="38.67352" lon="-0.68712">
        <ele>885.2</ele>
        <time>2022-10-15 10:21:50</time>
      </trkpt>
      <trkpt lat="38.6735" lon="-0.68715">
        <ele>885.8</ele>
        <time>2022-10-15 10:21:51</time>
      </trkpt>
      <trkpt lat="38.67348" lon="-0.68718">
        <ele>886.2</ele>
        <time>2022-10-15 10:21:52</time>
      </trkpt>
      <trkpt lat="38.67346" lon="-0.68721">
        <ele>886.6</ele>
        <time>2022-10-15 10:21:53</time>
      </trkpt>
      <trkpt lat="38.67344" lon="-0.68724">
        <ele>887.2</ele>
        <time>2022-10-15 10:21:54</time>
      </trkpt>
      <trkpt lat="38.67342" lon="-0.68727">
        <ele>887.6</ele>
        <time>2022-10-15 10:21:55</time>
      </trkpt>
      <trkpt lat="38.6734" lon="-0.6873">
        <ele>888</ele>
        <time>2022-10-15 10:21:56</time>
      </trkpt>
      <trkpt lat="38.67338" lon="-0.68732">
        <ele>888.4</ele>
        <time>2022-10-15 10:21:57</time>
      </trkpt>
      <trkpt lat="38.67336" lon="-0.68735">
        <ele>888.8</ele>
        <time>2022-10-15 10:21:58</time>
      </trkpt>
      <trkpt lat="38.67334" lon="-0.68737">
        <ele>889.2</ele>
        <time>2022-10-15 10:21:59</time>
      </trkpt>
      <trkpt lat="38.67333" lon="-0.68739">
        <ele>889.8</ele>
        <time>2022-10-15 10:22:00</time>
      </trkpt>
      <trkpt lat="38.67332" lon="-0.68742">
        <ele>890.2</ele>
        <time>2022-10-15 10:22:01</time>
      </trkpt>
      <trkpt lat="38.67331" lon="-0.68744">
        <ele>890.6</ele>
        <time>2022-10-15 10:22:02</time>
      </trkpt>
      <trkpt lat="38.6733" lon="-0.68746">
        <ele>891</ele>
        <time>2022-10-15 10:22:03</time>
      </trkpt>
      <trkpt lat="38.67329" lon="-0.68748">
        <ele>891.4</ele>
        <time>2022-10-15 10:22:04</time>
      </trkpt>
      <trkpt lat="38.67328" lon="-0.68751">
        <ele>891.8</ele>
        <time>2022-10-15 10:22:05</time>
      </trkpt>
      <trkpt lat="38.67326" lon="-0.68754">
        <ele>892</ele>
        <time>2022-10-15 10:22:06</time>
      </trkpt>
      <trkpt lat="38.67325" lon="-0.68757">
        <ele>892.2</ele>
        <time>2022-10-15 10:22:07</time>
      </trkpt>
      <trkpt lat="38.67324" lon="-0.6876">
        <ele>892.6</ele>
        <time>2022-10-15 10:22:08</time>
      </trkpt>
      <trkpt lat="38.67323" lon="-0.68762">
        <ele>892.8</ele>
        <time>2022-10-15 10:22:09</time>
      </trkpt>
      <trkpt lat="38.67322" lon="-0.68765">
        <ele>893</ele>
        <time>2022-10-15 10:22:10</time>
      </trkpt>
      <trkpt lat="38.6732" lon="-0.68768">
        <ele>893.2</ele>
        <time>2022-10-15 10:22:11</time>
      </trkpt>
      <trkpt lat="38.67319" lon="-0.6877">
        <ele>893.2</ele>
        <time>2022-10-15 10:22:12</time>
      </trkpt>
      <trkpt lat="38.67318" lon="-0.68773">
        <ele>893.4</ele>
        <time>2022-10-15 10:22:13</time>
      </trkpt>
      <trkpt lat="38.67318" lon="-0.68776">
        <ele>893.4</ele>
        <time>2022-10-15 10:22:14</time>
      </trkpt>
      <trkpt lat="38.67317" lon="-0.6878">
        <ele>893.6</ele>
        <time>2022-10-15 10:22:15</time>
      </trkpt>
      <trkpt lat="38.67316" lon="-0.68783">
        <ele>893.6</ele>
        <time>2022-10-15 10:22:16</time>
      </trkpt>
      <trkpt lat="38.67316" lon="-0.68786">
        <ele>893.8</ele>
        <time>2022-10-15 10:22:17</time>
      </trkpt>
      <trkpt lat="38.67315" lon="-0.68789">
        <ele>893.8</ele>
        <time>2022-10-15 10:22:18</time>
      </trkpt>
      <trkpt lat="38.67315" lon="-0.68792">
        <ele>893.8</ele>
        <time>2022-10-15 10:22:19</time>
      </trkpt>
      <trkpt lat="38.67314" lon="-0.68796">
        <ele>893.8</ele>
        <time>2022-10-15 10:22:20</time>
      </trkpt>
      <trkpt lat="38.67314" lon="-0.688">
        <ele>893.8</ele>
        <time>2022-10-15 10:22:21</time>
      </trkpt>
      <trkpt lat="38.67314" lon="-0.68803">
        <ele>893.8</ele>
        <time>2022-10-15 10:22:22</time>
      </trkpt>
      <trkpt lat="38.67313" lon="-0.68807">
        <ele>893.8</ele>
        <time>2022-10-15 10:22:23</time>
      </trkpt>
      <trkpt lat="38.67313" lon="-0.6881">
        <ele>893.8</ele>
        <time>2022-10-15 10:22:24</time>
      </trkpt>
      <trkpt lat="38.67312" lon="-0.68814">
        <ele>893.8</ele>
        <time>2022-10-15 10:22:25</time>
      </trkpt>
      <trkpt lat="38.67312" lon="-0.68817">
        <ele>893.6</ele>
        <time>2022-10-15 10:22:26</time>
      </trkpt>
      <trkpt lat="38.67311" lon="-0.6882">
        <ele>893.6</ele>
        <time>2022-10-15 10:22:27</time>
      </trkpt>
      <trkpt lat="38.6731" lon="-0.68822">
        <ele>893.6</ele>
        <time>2022-10-15 10:22:28</time>
      </trkpt>
      <trkpt lat="38.6731" lon="-0.68824">
        <ele>893.6</ele>
        <time>2022-10-15 10:22:29</time>
      </trkpt>
      <trkpt lat="38.6731" lon="-0.68825">
        <ele>893.6</ele>
        <time>2022-10-15 10:22:30</time>
      </trkpt>
      <trkpt lat="38.6731" lon="-0.68825">
        <ele>893.6</ele>
        <time>2022-10-15 10:22:31</time>
      </trkpt>
      <trkpt lat="38.67307" lon="-0.68829">
        <ele>893.4</ele>
        <time>2022-10-15 10:22:36</time>
      </trkpt>
      <trkpt lat="38.67306" lon="-0.68831">
        <ele>893.4</ele>
        <time>2022-10-15 10:22:37</time>
      </trkpt>
      <trkpt lat="38.67304" lon="-0.68834">
        <ele>893.4</ele>
        <time>2022-10-15 10:22:38</time>
      </trkpt>
      <trkpt lat="38.67302" lon="-0.68837">
        <ele>893.4</ele>
        <time>2022-10-15 10:22:39</time>
      </trkpt>
      <trkpt lat="38.673" lon="-0.6884">
        <ele>893.2</ele>
        <time>2022-10-15 10:22:40</time>
      </trkpt>
      <trkpt lat="38.67299" lon="-0.68843">
        <ele>893.2</ele>
        <time>2022-10-15 10:22:41</time>
      </trkpt>
      <trkpt lat="38.67296" lon="-0.68846">
        <ele>893.2</ele>
        <time>2022-10-15 10:22:42</time>
      </trkpt>
      <trkpt lat="38.67294" lon="-0.68848">
        <ele>893.2</ele>
        <time>2022-10-15 10:22:43</time>
      </trkpt>
      <trkpt lat="38.67292" lon="-0.68851">
        <ele>893.4</ele>
        <time>2022-10-15 10:22:44</time>
      </trkpt>
      <trkpt lat="38.67289" lon="-0.68853">
        <ele>893.4</ele>
        <time>2022-10-15 10:22:45</time>
      </trkpt>
      <trkpt lat="38.67287" lon="-0.68856">
        <ele>893.4</ele>
        <time>2022-10-15 10:22:46</time>
      </trkpt>
      <trkpt lat="38.67284" lon="-0.68858">
        <ele>893.4</ele>
        <time>2022-10-15 10:22:47</time>
      </trkpt>
      <trkpt lat="38.67281" lon="-0.68861">
        <ele>893.4</ele>
        <time>2022-10-15 10:22:48</time>
      </trkpt>
      <trkpt lat="38.67278" lon="-0.68863">
        <ele>893.4</ele>
        <time>2022-10-15 10:22:49</time>
      </trkpt>
      <trkpt lat="38.67275" lon="-0.68865">
        <ele>893.4</ele>
        <time>2022-10-15 10:22:50</time>
      </trkpt>
      <trkpt lat="38.67272" lon="-0.68867">
        <ele>893.4</ele>
        <time>2022-10-15 10:22:51</time>
      </trkpt>
      <trkpt lat="38.67268" lon="-0.68869">
        <ele>893.4</ele>
        <time>2022-10-15 10:22:52</time>
      </trkpt>
      <trkpt lat="38.67265" lon="-0.68872">
        <ele>893.4</ele>
        <time>2022-10-15 10:22:53</time>
      </trkpt>
      <trkpt lat="38.67262" lon="-0.68874">
        <ele>893.4</ele>
        <time>2022-10-15 10:22:54</time>
      </trkpt>
      <trkpt lat="38.67259" lon="-0.68877">
        <ele>893.4</ele>
        <time>2022-10-15 10:22:55</time>
      </trkpt>
      <trkpt lat="38.67255" lon="-0.68879">
        <ele>893.4</ele>
        <time>2022-10-15 10:22:56</time>
      </trkpt>
      <trkpt lat="38.67252" lon="-0.68881">
        <ele>893.6</ele>
        <time>2022-10-15 10:22:57</time>
      </trkpt>
      <trkpt lat="38.67249" lon="-0.68883">
        <ele>893.6</ele>
        <time>2022-10-15 10:22:58</time>
      </trkpt>
      <trkpt lat="38.67246" lon="-0.68886">
        <ele>893.6</ele>
        <time>2022-10-15 10:22:59</time>
      </trkpt>
      <trkpt lat="38.67243" lon="-0.68889">
        <ele>893.6</ele>
        <time>2022-10-15 10:23:00</time>
      </trkpt>
      <trkpt lat="38.6724" lon="-0.68892">
        <ele>893.6</ele>
        <time>2022-10-15 10:23:01</time>
      </trkpt>
      <trkpt lat="38.67238" lon="-0.68895">
        <ele>893.6</ele>
        <time>2022-10-15 10:23:02</time>
      </trkpt>
      <trkpt lat="38.67236" lon="-0.68898">
        <ele>893.6</ele>
        <time>2022-10-15 10:23:03</time>
      </trkpt>
      <trkpt lat="38.67233" lon="-0.68902">
        <ele>893.6</ele>
        <time>2022-10-15 10:23:04</time>
      </trkpt>
      <trkpt lat="38.67231" lon="-0.68905">
        <ele>893.8</ele>
        <time>2022-10-15 10:23:05</time>
      </trkpt>
      <trkpt lat="38.67229" lon="-0.68909">
        <ele>893.8</ele>
        <time>2022-10-15 10:23:06</time>
      </trkpt>
      <trkpt lat="38.67227" lon="-0.68913">
        <ele>893.8</ele>
        <time>2022-10-15 10:23:07</time>
      </trkpt>
      <trkpt lat="38.67225" lon="-0.68917">
        <ele>894</ele>
        <time>2022-10-15 10:23:08</time>
      </trkpt>
      <trkpt lat="38.67223" lon="-0.68921">
        <ele>894.2</ele>
        <time>2022-10-15 10:23:09</time>
      </trkpt>
      <trkpt lat="38.67222" lon="-0.68925">
        <ele>894.4</ele>
        <time>2022-10-15 10:23:10</time>
      </trkpt>
      <trkpt lat="38.6722" lon="-0.68929">
        <ele>894.6</ele>
        <time>2022-10-15 10:23:11</time>
      </trkpt>
      <trkpt lat="38.67219" lon="-0.68933">
        <ele>894.8</ele>
        <time>2022-10-15 10:23:12</time>
      </trkpt>
      <trkpt lat="38.67218" lon="-0.68937">
        <ele>894.8</ele>
        <time>2022-10-15 10:23:13</time>
      </trkpt>
      <trkpt lat="38.67216" lon="-0.68941">
        <ele>895</ele>
        <time>2022-10-15 10:23:14</time>
      </trkpt>
      <trkpt lat="38.67215" lon="-0.68945">
        <ele>895</ele>
        <time>2022-10-15 10:23:15</time>
      </trkpt>
      <trkpt lat="38.67214" lon="-0.68949">
        <ele>895</ele>
        <time>2022-10-15 10:23:16</time>
      </trkpt>
      <trkpt lat="38.67213" lon="-0.68953">
        <ele>895.2</ele>
        <time>2022-10-15 10:23:17</time>
      </trkpt>
      <trkpt lat="38.67212" lon="-0.68957">
        <ele>895.2</ele>
        <time>2022-10-15 10:23:18</time>
      </trkpt>
      <trkpt lat="38.67211" lon="-0.68961">
        <ele>895.4</ele>
        <time>2022-10-15 10:23:19</time>
      </trkpt>
      <trkpt lat="38.6721" lon="-0.68964">
        <ele>895.4</ele>
        <time>2022-10-15 10:23:20</time>
      </trkpt>
      <trkpt lat="38.67208" lon="-0.68968">
        <ele>895.4</ele>
        <time>2022-10-15 10:23:21</time>
      </trkpt>
      <trkpt lat="38.67207" lon="-0.68971">
        <ele>895.6</ele>
        <time>2022-10-15 10:23:22</time>
      </trkpt>
      <trkpt lat="38.67205" lon="-0.68975">
        <ele>895.8</ele>
        <time>2022-10-15 10:23:23</time>
      </trkpt>
      <trkpt lat="38.67204" lon="-0.68979">
        <ele>896.2</ele>
        <time>2022-10-15 10:23:24</time>
      </trkpt>
      <trkpt lat="38.67202" lon="-0.68983">
        <ele>896.4</ele>
        <time>2022-10-15 10:23:25</time>
      </trkpt>
      <trkpt lat="38.67201" lon="-0.68986">
        <ele>896.6</ele>
        <time>2022-10-15 10:23:26</time>
      </trkpt>
      <trkpt lat="38.67199" lon="-0.6899">
        <ele>896.6</ele>
        <time>2022-10-15 10:23:27</time>
      </trkpt>
      <trkpt lat="38.67196" lon="-0.68993">
        <ele>896.8</ele>
        <time>2022-10-15 10:23:28</time>
      </trkpt>
      <trkpt lat="38.67194" lon="-0.68997">
        <ele>897</ele>
        <time>2022-10-15 10:23:29</time>
      </trkpt>
      <trkpt lat="38.67192" lon="-0.69">
        <ele>897</ele>
        <time>2022-10-15 10:23:30</time>
      </trkpt>
      <trkpt lat="38.67189" lon="-0.69004">
        <ele>897.2</ele>
        <time>2022-10-15 10:23:31</time>
      </trkpt>
      <trkpt lat="38.67186" lon="-0.69008">
        <ele>897.2</ele>
        <time>2022-10-15 10:23:32</time>
      </trkpt>
      <trkpt lat="38.67184" lon="-0.69011">
        <ele>897.2</ele>
        <time>2022-10-15 10:23:33</time>
      </trkpt>
      <trkpt lat="38.67181" lon="-0.69015">
        <ele>897.2</ele>
        <time>2022-10-15 10:23:34</time>
      </trkpt>
      <trkpt lat="38.67178" lon="-0.69018">
        <ele>897.2</ele>
        <time>2022-10-15 10:23:35</time>
      </trkpt>
      <trkpt lat="38.67176" lon="-0.69021">
        <ele>897.2</ele>
        <time>2022-10-15 10:23:36</time>
      </trkpt>
      <trkpt lat="38.67173" lon="-0.69024">
        <ele>897.4</ele>
        <time>2022-10-15 10:23:37</time>
      </trkpt>
      <trkpt lat="38.6717" lon="-0.69028">
        <ele>897.4</ele>
        <time>2022-10-15 10:23:38</time>
      </trkpt>
      <trkpt lat="38.67167" lon="-0.69031">
        <ele>897.4</ele>
        <time>2022-10-15 10:23:39</time>
      </trkpt>
      <trkpt lat="38.67164" lon="-0.69034">
        <ele>897.4</ele>
        <time>2022-10-15 10:23:40</time>
      </trkpt>
      <trkpt lat="38.67161" lon="-0.69036">
        <ele>897.4</ele>
        <time>2022-10-15 10:23:41</time>
      </trkpt>
      <trkpt lat="38.67159" lon="-0.69039">
        <ele>897.6</ele>
        <time>2022-10-15 10:23:42</time>
      </trkpt>
      <trkpt lat="38.67156" lon="-0.69042">
        <ele>897.6</ele>
        <time>2022-10-15 10:23:43</time>
      </trkpt>
      <trkpt lat="38.67154" lon="-0.69044">
        <ele>897.6</ele>
        <time>2022-10-15 10:23:44</time>
      </trkpt>
      <trkpt lat="38.67151" lon="-0.69046">
        <ele>897.8</ele>
        <time>2022-10-15 10:23:45</time>
      </trkpt>
      <trkpt lat="38.67149" lon="-0.69049">
        <ele>897.8</ele>
        <time>2022-10-15 10:23:46</time>
      </trkpt>
      <trkpt lat="38.67146" lon="-0.69052">
        <ele>898</ele>
        <time>2022-10-15 10:23:47</time>
      </trkpt>
      <trkpt lat="38.67143" lon="-0.69054">
        <ele>898</ele>
        <time>2022-10-15 10:23:48</time>
      </trkpt>
      <trkpt lat="38.67141" lon="-0.69057">
        <ele>898.2</ele>
        <time>2022-10-15 10:23:49</time>
      </trkpt>
      <trkpt lat="38.67138" lon="-0.6906">
        <ele>898.4</ele>
        <time>2022-10-15 10:23:50</time>
      </trkpt>
      <trkpt lat="38.67136" lon="-0.69062">
        <ele>898.6</ele>
        <time>2022-10-15 10:23:51</time>
      </trkpt>
      <trkpt lat="38.67133" lon="-0.69065">
        <ele>898.8</ele>
        <time>2022-10-15 10:23:52</time>
      </trkpt>
      <trkpt lat="38.6713" lon="-0.69067">
        <ele>898.6</ele>
        <time>2022-10-15 10:23:53</time>
      </trkpt>
      <trkpt lat="38.67128" lon="-0.6907">
        <ele>898.8</ele>
        <time>2022-10-15 10:23:54</time>
      </trkpt>
      <trkpt lat="38.67125" lon="-0.69072">
        <ele>898.8</ele>
        <time>2022-10-15 10:23:55</time>
      </trkpt>
      <trkpt lat="38.67122" lon="-0.69074">
        <ele>898.8</ele>
        <time>2022-10-15 10:23:56</time>
      </trkpt>
      <trkpt lat="38.67119" lon="-0.69077">
        <ele>898.8</ele>
        <time>2022-10-15 10:23:57</time>
      </trkpt>
      <trkpt lat="38.67115" lon="-0.69079">
        <ele>898.8</ele>
        <time>2022-10-15 10:23:58</time>
      </trkpt>
      <trkpt lat="38.67112" lon="-0.69081">
        <ele>898.8</ele>
        <time>2022-10-15 10:23:59</time>
      </trkpt>
      <trkpt lat="38.6711" lon="-0.69083">
        <ele>898.8</ele>
        <time>2022-10-15 10:24:00</time>
      </trkpt>
      <trkpt lat="38.67107" lon="-0.69086">
        <ele>898.8</ele>
        <time>2022-10-15 10:24:01</time>
      </trkpt>
      <trkpt lat="38.67105" lon="-0.69089">
        <ele>898.8</ele>
        <time>2022-10-15 10:24:02</time>
      </trkpt>
      <trkpt lat="38.67102" lon="-0.69092">
        <ele>898.8</ele>
        <time>2022-10-15 10:24:03</time>
      </trkpt>
      <trkpt lat="38.67099" lon="-0.69095">
        <ele>898.8</ele>
        <time>2022-10-15 10:24:04</time>
      </trkpt>
      <trkpt lat="38.67096" lon="-0.69098">
        <ele>898.8</ele>
        <time>2022-10-15 10:24:05</time>
      </trkpt>
      <trkpt lat="38.67093" lon="-0.691">
        <ele>898.8</ele>
        <time>2022-10-15 10:24:06</time>
      </trkpt>
      <trkpt lat="38.6709" lon="-0.69103">
        <ele>898.8</ele>
        <time>2022-10-15 10:24:07</time>
      </trkpt>
      <trkpt lat="38.67087" lon="-0.69106">
        <ele>898.8</ele>
        <time>2022-10-15 10:24:08</time>
      </trkpt>
      <trkpt lat="38.67084" lon="-0.69109">
        <ele>898.8</ele>
        <time>2022-10-15 10:24:09</time>
      </trkpt>
      <trkpt lat="38.67081" lon="-0.69112">
        <ele>898.8</ele>
        <time>2022-10-15 10:24:10</time>
      </trkpt>
      <trkpt lat="38.67078" lon="-0.69115">
        <ele>898.8</ele>
        <time>2022-10-15 10:24:11</time>
      </trkpt>
      <trkpt lat="38.67075" lon="-0.69117">
        <ele>898.6</ele>
        <time>2022-10-15 10:24:12</time>
      </trkpt>
      <trkpt lat="38.67072" lon="-0.6912">
        <ele>898.6</ele>
        <time>2022-10-15 10:24:13</time>
      </trkpt>
      <trkpt lat="38.67069" lon="-0.69123">
        <ele>898.6</ele>
        <time>2022-10-15 10:24:14</time>
      </trkpt>
      <trkpt lat="38.67066" lon="-0.69125">
        <ele>898.6</ele>
        <time>2022-10-15 10:24:15</time>
      </trkpt>
      <trkpt lat="38.67063" lon="-0.69128">
        <ele>898.6</ele>
        <time>2022-10-15 10:24:16</time>
      </trkpt>
      <trkpt lat="38.6706" lon="-0.6913">
        <ele>898.6</ele>
        <time>2022-10-15 10:24:17</time>
      </trkpt>
      <trkpt lat="38.67056" lon="-0.69133">
        <ele>898.6</ele>
        <time>2022-10-15 10:24:18</time>
      </trkpt>
      <trkpt lat="38.67054" lon="-0.69135">
        <ele>898.6</ele>
        <time>2022-10-15 10:24:19</time>
      </trkpt>
      <trkpt lat="38.67051" lon="-0.69138">
        <ele>898.6</ele>
        <time>2022-10-15 10:24:20</time>
      </trkpt>
      <trkpt lat="38.67048" lon="-0.6914">
        <ele>898.6</ele>
        <time>2022-10-15 10:24:21</time>
      </trkpt>
      <trkpt lat="38.67045" lon="-0.69142">
        <ele>898.6</ele>
        <time>2022-10-15 10:24:22</time>
      </trkpt>
      <trkpt lat="38.67042" lon="-0.69144">
        <ele>898.6</ele>
        <time>2022-10-15 10:24:23</time>
      </trkpt>
      <trkpt lat="38.67039" lon="-0.69146">
        <ele>898.6</ele>
        <time>2022-10-15 10:24:24</time>
      </trkpt>
      <trkpt lat="38.67036" lon="-0.69148">
        <ele>898.6</ele>
        <time>2022-10-15 10:24:25</time>
      </trkpt>
      <trkpt lat="38.67034" lon="-0.6915">
        <ele>898.6</ele>
        <time>2022-10-15 10:24:26</time>
      </trkpt>
      <trkpt lat="38.67031" lon="-0.69152">
        <ele>898.4</ele>
        <time>2022-10-15 10:24:27</time>
      </trkpt>
      <trkpt lat="38.67028" lon="-0.69154">
        <ele>898.4</ele>
        <time>2022-10-15 10:24:28</time>
      </trkpt>
      <trkpt lat="38.67026" lon="-0.69156">
        <ele>898.4</ele>
        <time>2022-10-15 10:24:29</time>
      </trkpt>
      <trkpt lat="38.67024" lon="-0.69158">
        <ele>898.4</ele>
        <time>2022-10-15 10:24:30</time>
      </trkpt>
      <trkpt lat="38.67022" lon="-0.69159">
        <ele>898.4</ele>
        <time>2022-10-15 10:24:31</time>
      </trkpt>
      <trkpt lat="38.6702" lon="-0.6916">
        <ele>898.4</ele>
        <time>2022-10-15 10:24:32</time>
      </trkpt>
      <trkpt lat="38.67018" lon="-0.69161">
        <ele>898.4</ele>
        <time>2022-10-15 10:24:33</time>
      </trkpt>
      <trkpt lat="38.67016" lon="-0.69163">
        <ele>898.4</ele>
        <time>2022-10-15 10:24:34</time>
      </trkpt>
      <trkpt lat="38.67014" lon="-0.69164">
        <ele>898.4</ele>
        <time>2022-10-15 10:24:35</time>
      </trkpt>
      <trkpt lat="38.67012" lon="-0.69165">
        <ele>898.4</ele>
        <time>2022-10-15 10:24:36</time>
      </trkpt>
      <trkpt lat="38.67011" lon="-0.69166">
        <ele>898.4</ele>
        <time>2022-10-15 10:24:37</time>
      </trkpt>
      <trkpt lat="38.6701" lon="-0.69167">
        <ele>898.4</ele>
        <time>2022-10-15 10:24:38</time>
      </trkpt>
      <trkpt lat="38.67009" lon="-0.69167">
        <ele>898.6</ele>
        <time>2022-10-15 10:24:39</time>
      </trkpt>
      <trkpt lat="38.67008" lon="-0.69168">
        <ele>898.6</ele>
        <time>2022-10-15 10:24:40</time>
      </trkpt>
      <trkpt lat="38.67008" lon="-0.69167">
        <ele>898.6</ele>
        <time>2022-10-15 10:24:41</time>
      </trkpt>
      <trkpt lat="38.67007" lon="-0.6917">
        <ele>898.6</ele>
        <time>2022-10-15 10:25:47</time>
      </trkpt>
      <trkpt lat="38.67006" lon="-0.69172">
        <ele>898.6</ele>
        <time>2022-10-15 10:25:48</time>
      </trkpt>
      <trkpt lat="38.67006" lon="-0.69172">
        <ele>898.6</ele>
        <time>2022-10-15 10:25:49</time>
      </trkpt>
      <trkpt lat="38.67005" lon="-0.69173">
        <ele>898.6</ele>
        <time>2022-10-15 10:25:50</time>
      </trkpt>
      <trkpt lat="38.67004" lon="-0.69172">
        <ele>898.4</ele>
        <time>2022-10-15 10:25:51</time>
      </trkpt>
      <trkpt lat="38.67004" lon="-0.69173">
        <ele>898.4</ele>
        <time>2022-10-15 10:25:52</time>
      </trkpt>
      <trkpt lat="38.67004" lon="-0.69173">
        <ele>898.4</ele>
        <time>2022-10-15 10:25:53</time>
      </trkpt>
      <trkpt lat="38.66995" lon="-0.69183">
        <ele>897.8</ele>
        <time>2022-10-15 10:31:53</time>
      </trkpt>
      <trkpt lat="38.66994" lon="-0.69185">
        <ele>897.8</ele>
        <time>2022-10-15 10:31:54</time>
      </trkpt>
      <trkpt lat="38.66992" lon="-0.69187">
        <ele>897.8</ele>
        <time>2022-10-15 10:31:55</time>
      </trkpt>
      <trkpt lat="38.66992" lon="-0.69187">
        <ele>897.8</ele>
        <time>2022-10-15 10:31:56</time>
      </trkpt>
      <trkpt lat="38.66987" lon="-0.69191">
        <ele>897.6</ele>
        <time>2022-10-15 10:31:57</time>
      </trkpt>
      <trkpt lat="38.66983" lon="-0.69197">
        <ele>897.6</ele>
        <time>2022-10-15 10:31:59</time>
      </trkpt>
      <trkpt lat="38.66981" lon="-0.692">
        <ele>897.4</ele>
        <time>2022-10-15 10:32:00</time>
      </trkpt>
      <trkpt lat="38.66979" lon="-0.69203">
        <ele>897.4</ele>
        <time>2022-10-15 10:32:01</time>
      </trkpt>
      <trkpt lat="38.66977" lon="-0.69206">
        <ele>897.2</ele>
        <time>2022-10-15 10:32:03</time>
      </trkpt>
      <trkpt lat="38.66975" lon="-0.69209">
        <ele>897</ele>
        <time>2022-10-15 10:32:04</time>
      </trkpt>
      <trkpt lat="38.66969" lon="-0.69217">
        <ele>897</ele>
        <time>2022-10-15 10:32:06</time>
      </trkpt>
      <trkpt lat="38.66967" lon="-0.6922">
        <ele>896.8</ele>
        <time>2022-10-15 10:32:08</time>
      </trkpt>
      <trkpt lat="38.66965" lon="-0.69223">
        <ele>896.8</ele>
        <time>2022-10-15 10:32:09</time>
      </trkpt>
      <trkpt lat="38.66964" lon="-0.69226">
        <ele>896.8</ele>
        <time>2022-10-15 10:32:10</time>
      </trkpt>
      <trkpt lat="38.66962" lon="-0.6923">
        <ele>896.8</ele>
        <time>2022-10-15 10:32:12</time>
      </trkpt>
      <trkpt lat="38.66961" lon="-0.69232">
        <ele>896.8</ele>
        <time>2022-10-15 10:32:13</time>
      </trkpt>
      <trkpt lat="38.66959" lon="-0.69236">
        <ele>896.8</ele>
        <time>2022-10-15 10:32:15</time>
      </trkpt>
      <trkpt lat="38.66958" lon="-0.69238">
        <ele>896.8</ele>
        <time>2022-10-15 10:32:16</time>
      </trkpt>
      <trkpt lat="38.66958" lon="-0.6924">
        <ele>896.8</ele>
        <time>2022-10-15 10:32:17</time>
      </trkpt>
      <trkpt lat="38.66956" lon="-0.69244">
        <ele>896.8</ele>
        <time>2022-10-15 10:32:19</time>
      </trkpt>
      <trkpt lat="38.66955" lon="-0.69246">
        <ele>896.8</ele>
        <time>2022-10-15 10:32:20</time>
      </trkpt>
      <trkpt lat="38.66955" lon="-0.69247">
        <ele>897</ele>
        <time>2022-10-15 10:32:21</time>
      </trkpt>
      <trkpt lat="38.66955" lon="-0.69249">
        <ele>897</ele>
        <time>2022-10-15 10:32:22</time>
      </trkpt>
      <trkpt lat="38.66955" lon="-0.69249">
        <ele>897</ele>
        <time>2022-10-15 10:32:24</time>
      </trkpt>
      <trkpt lat="38.66954" lon="-0.69254">
        <ele>897.2</ele>
        <time>2022-10-15 10:33:01</time>
      </trkpt>
      <trkpt lat="38.66953" lon="-0.69256">
        <ele>897.2</ele>
        <time>2022-10-15 10:33:02</time>
      </trkpt>
      <trkpt lat="38.66952" lon="-0.6926">
        <ele>897.2</ele>
        <time>2022-10-15 10:33:04</time>
      </trkpt>
      <trkpt lat="38.66951" lon="-0.69262">
        <ele>897.2</ele>
        <time>2022-10-15 10:33:05</time>
      </trkpt>
      <trkpt lat="38.66948" lon="-0.69266">
        <ele>897.2</ele>
        <time>2022-10-15 10:33:07</time>
      </trkpt>
      <trkpt lat="38.66945" lon="-0.69271">
        <ele>897</ele>
        <time>2022-10-15 10:33:09</time>
      </trkpt>
      <trkpt lat="38.66941" lon="-0.69276">
        <ele>897</ele>
        <time>2022-10-15 10:33:11</time>
      </trkpt>
      <trkpt lat="38.66937" lon="-0.69281">
        <ele>896.8</ele>
        <time>2022-10-15 10:33:13</time>
      </trkpt>
      <trkpt lat="38.66935" lon="-0.69284">
        <ele>896.8</ele>
        <time>2022-10-15 10:33:14</time>
      </trkpt>
      <trkpt lat="38.6693" lon="-0.69289">
        <ele>896.8</ele>
        <time>2022-10-15 10:33:16</time>
      </trkpt>
      <trkpt lat="38.66924" lon="-0.69295">
        <ele>896.6</ele>
        <time>2022-10-15 10:33:18</time>
      </trkpt>
      <trkpt lat="38.66921" lon="-0.69297">
        <ele>896.4</ele>
        <time>2022-10-15 10:33:19</time>
      </trkpt>
      <trkpt lat="38.66918" lon="-0.693">
        <ele>896.2</ele>
        <time>2022-10-15 10:33:20</time>
      </trkpt>
      <trkpt lat="38.66911" lon="-0.69305">
        <ele>895.8</ele>
        <time>2022-10-15 10:33:22</time>
      </trkpt>
      <trkpt lat="38.66904" lon="-0.69312">
        <ele>895.4</ele>
        <time>2022-10-15 10:33:24</time>
      </trkpt>
      <trkpt lat="38.66898" lon="-0.69319">
        <ele>895.4</ele>
        <time>2022-10-15 10:33:26</time>
      </trkpt>
      <trkpt lat="38.66895" lon="-0.69323">
        <ele>895.2</ele>
        <time>2022-10-15 10:33:27</time>
      </trkpt>
      <trkpt lat="38.66892" lon="-0.69327">
        <ele>895</ele>
        <time>2022-10-15 10:33:28</time>
      </trkpt>
      <trkpt lat="38.66889" lon="-0.69332">
        <ele>894.8</ele>
        <time>2022-10-15 10:33:29</time>
      </trkpt>
      <trkpt lat="38.66887" lon="-0.69337">
        <ele>894.8</ele>
        <time>2022-10-15 10:33:30</time>
      </trkpt>
      <trkpt lat="38.66884" lon="-0.69341">
        <ele>894.6</ele>
        <time>2022-10-15 10:33:31</time>
      </trkpt>
      <trkpt lat="38.66882" lon="-0.69346">
        <ele>894.6</ele>
        <time>2022-10-15 10:33:32</time>
      </trkpt>
      <trkpt lat="38.6688" lon="-0.69351">
        <ele>894.4</ele>
        <time>2022-10-15 10:33:33</time>
      </trkpt>
      <trkpt lat="38.66877" lon="-0.69355">
        <ele>894.2</ele>
        <time>2022-10-15 10:33:34</time>
      </trkpt>
      <trkpt lat="38.66875" lon="-0.6936">
        <ele>894</ele>
        <time>2022-10-15 10:33:35</time>
      </trkpt>
      <trkpt lat="38.66873" lon="-0.69364">
        <ele>893.6</ele>
        <time>2022-10-15 10:33:36</time>
      </trkpt>
      <trkpt lat="38.6687" lon="-0.69369">
        <ele>893.2</ele>
        <time>2022-10-15 10:33:37</time>
      </trkpt>
      <trkpt lat="38.66868" lon="-0.69374">
        <ele>893.2</ele>
        <time>2022-10-15 10:33:38</time>
      </trkpt>
      <trkpt lat="38.66865" lon="-0.69379">
        <ele>893</ele>
        <time>2022-10-15 10:33:39</time>
      </trkpt>
      <trkpt lat="38.66862" lon="-0.69383">
        <ele>893</ele>
        <time>2022-10-15 10:33:40</time>
      </trkpt>
      <trkpt lat="38.6686" lon="-0.69388">
        <ele>893</ele>
        <time>2022-10-15 10:33:41</time>
      </trkpt>
      <trkpt lat="38.66857" lon="-0.69392">
        <ele>892.8</ele>
        <time>2022-10-15 10:33:42</time>
      </trkpt>
      <trkpt lat="38.66854" lon="-0.69397">
        <ele>892.8</ele>
        <time>2022-10-15 10:33:43</time>
      </trkpt>
      <trkpt lat="38.66851" lon="-0.69401">
        <ele>892.8</ele>
        <time>2022-10-15 10:33:44</time>
      </trkpt>
      <trkpt lat="38.66848" lon="-0.69405">
        <ele>892.8</ele>
        <time>2022-10-15 10:33:45</time>
      </trkpt>
      <trkpt lat="38.66845" lon="-0.6941">
        <ele>892.4</ele>
        <time>2022-10-15 10:33:46</time>
      </trkpt>
      <trkpt lat="38.66842" lon="-0.69414">
        <ele>892.4</ele>
        <time>2022-10-15 10:33:47</time>
      </trkpt>
      <trkpt lat="38.66839" lon="-0.69418">
        <ele>892.2</ele>
        <time>2022-10-15 10:33:48</time>
      </trkpt>
      <trkpt lat="38.66837" lon="-0.69423">
        <ele>892</ele>
        <time>2022-10-15 10:33:49</time>
      </trkpt>
      <trkpt lat="38.66835" lon="-0.69428">
        <ele>891.8</ele>
        <time>2022-10-15 10:33:50</time>
      </trkpt>
      <trkpt lat="38.66833" lon="-0.69433">
        <ele>891.4</ele>
        <time>2022-10-15 10:33:51</time>
      </trkpt>
      <trkpt lat="38.66831" lon="-0.69438">
        <ele>891.2</ele>
        <time>2022-10-15 10:33:52</time>
      </trkpt>
      <trkpt lat="38.6683" lon="-0.69443">
        <ele>891</ele>
        <time>2022-10-15 10:33:53</time>
      </trkpt>
      <trkpt lat="38.66829" lon="-0.69449">
        <ele>890.8</ele>
        <time>2022-10-15 10:33:54</time>
      </trkpt>
      <trkpt lat="38.66828" lon="-0.69454">
        <ele>890.8</ele>
        <time>2022-10-15 10:33:55</time>
      </trkpt>
      <trkpt lat="38.66827" lon="-0.69459">
        <ele>890.8</ele>
        <time>2022-10-15 10:33:56</time>
      </trkpt>
      <trkpt lat="38.66826" lon="-0.69464">
        <ele>890.6</ele>
        <time>2022-10-15 10:33:57</time>
      </trkpt>
      <trkpt lat="38.66825" lon="-0.69469">
        <ele>890.6</ele>
        <time>2022-10-15 10:33:58</time>
      </trkpt>
      <trkpt lat="38.66824" lon="-0.69474">
        <ele>890.6</ele>
        <time>2022-10-15 10:33:59</time>
      </trkpt>
      <trkpt lat="38.66823" lon="-0.69479">
        <ele>890.6</ele>
        <time>2022-10-15 10:34:00</time>
      </trkpt>
      <trkpt lat="38.66822" lon="-0.69485">
        <ele>890.4</ele>
        <time>2022-10-15 10:34:01</time>
      </trkpt>
      <trkpt lat="38.66822" lon="-0.69491">
        <ele>890.4</ele>
        <time>2022-10-15 10:34:02</time>
      </trkpt>
      <trkpt lat="38.66822" lon="-0.69497">
        <ele>890.4</ele>
        <time>2022-10-15 10:34:03</time>
      </trkpt>
      <trkpt lat="38.66822" lon="-0.69503">
        <ele>890.2</ele>
        <time>2022-10-15 10:34:04</time>
      </trkpt>
      <trkpt lat="38.66823" lon="-0.69508">
        <ele>890.2</ele>
        <time>2022-10-15 10:34:05</time>
      </trkpt>
      <trkpt lat="38.66824" lon="-0.69514">
        <ele>890</ele>
        <time>2022-10-15 10:34:06</time>
      </trkpt>
      <trkpt lat="38.66824" lon="-0.69519">
        <ele>889.8</ele>
        <time>2022-10-15 10:34:07</time>
      </trkpt>
      <trkpt lat="38.66824" lon="-0.69525">
        <ele>889.6</ele>
        <time>2022-10-15 10:34:08</time>
      </trkpt>
      <trkpt lat="38.66823" lon="-0.69529">
        <ele>889.4</ele>
        <time>2022-10-15 10:34:09</time>
      </trkpt>
      <trkpt lat="38.66822" lon="-0.69534">
        <ele>889.4</ele>
        <time>2022-10-15 10:34:10</time>
      </trkpt>
      <trkpt lat="38.66821" lon="-0.69539">
        <ele>889.2</ele>
        <time>2022-10-15 10:34:11</time>
      </trkpt>
      <trkpt lat="38.66819" lon="-0.69544">
        <ele>889.2</ele>
        <time>2022-10-15 10:34:12</time>
      </trkpt>
      <trkpt lat="38.66818" lon="-0.69548">
        <ele>889</ele>
        <time>2022-10-15 10:34:13</time>
      </trkpt>
      <trkpt lat="38.66816" lon="-0.69553">
        <ele>889</ele>
        <time>2022-10-15 10:34:14</time>
      </trkpt>
      <trkpt lat="38.66814" lon="-0.69557">
        <ele>889</ele>
        <time>2022-10-15 10:34:15</time>
      </trkpt>
      <trkpt lat="38.66812" lon="-0.69561">
        <ele>889</ele>
        <time>2022-10-15 10:34:16</time>
      </trkpt>
      <trkpt lat="38.6681" lon="-0.69566">
        <ele>889</ele>
        <time>2022-10-15 10:34:17</time>
      </trkpt>
      <trkpt lat="38.66809" lon="-0.6957">
        <ele>889</ele>
        <time>2022-10-15 10:34:18</time>
      </trkpt>
      <trkpt lat="38.66807" lon="-0.69573">
        <ele>889</ele>
        <time>2022-10-15 10:34:19</time>
      </trkpt>
      <trkpt lat="38.66805" lon="-0.69577">
        <ele>889</ele>
        <time>2022-10-15 10:34:20</time>
      </trkpt>
      <trkpt lat="38.66802" lon="-0.6958">
        <ele>889</ele>
        <time>2022-10-15 10:34:21</time>
      </trkpt>
      <trkpt lat="38.668" lon="-0.69584">
        <ele>889</ele>
        <time>2022-10-15 10:34:22</time>
      </trkpt>
      <trkpt lat="38.66798" lon="-0.69587">
        <ele>889</ele>
        <time>2022-10-15 10:34:23</time>
      </trkpt>
      <trkpt lat="38.66796" lon="-0.6959">
        <ele>889</ele>
        <time>2022-10-15 10:34:24</time>
      </trkpt>
      <trkpt lat="38.66793" lon="-0.69594">
        <ele>889</ele>
        <time>2022-10-15 10:34:25</time>
      </trkpt>
      <trkpt lat="38.66791" lon="-0.69597">
        <ele>889</ele>
        <time>2022-10-15 10:34:26</time>
      </trkpt>
      <trkpt lat="38.66789" lon="-0.696">
        <ele>889</ele>
        <time>2022-10-15 10:34:27</time>
      </trkpt>
      <trkpt lat="38.66786" lon="-0.69603">
        <ele>889</ele>
        <time>2022-10-15 10:34:28</time>
      </trkpt>
      <trkpt lat="38.66784" lon="-0.69606">
        <ele>889</ele>
        <time>2022-10-15 10:34:29</time>
      </trkpt>
      <trkpt lat="38.66781" lon="-0.69608">
        <ele>889</ele>
        <time>2022-10-15 10:34:30</time>
      </trkpt>
      <trkpt lat="38.66777" lon="-0.69611">
        <ele>889</ele>
        <time>2022-10-15 10:34:31</time>
      </trkpt>
      <trkpt lat="38.66774" lon="-0.69613">
        <ele>889</ele>
        <time>2022-10-15 10:34:32</time>
      </trkpt>
      <trkpt lat="38.66771" lon="-0.69616">
        <ele>889</ele>
        <time>2022-10-15 10:34:33</time>
      </trkpt>
      <trkpt lat="38.66767" lon="-0.69618">
        <ele>889</ele>
        <time>2022-10-15 10:34:34</time>
      </trkpt>
      <trkpt lat="38.66764" lon="-0.6962">
        <ele>889</ele>
        <time>2022-10-15 10:34:35</time>
      </trkpt>
      <trkpt lat="38.6676" lon="-0.69623">
        <ele>889</ele>
        <time>2022-10-15 10:34:36</time>
      </trkpt>
      <trkpt lat="38.66756" lon="-0.69625">
        <ele>888.8</ele>
        <time>2022-10-15 10:34:37</time>
      </trkpt>
      <trkpt lat="38.66752" lon="-0.69627">
        <ele>888.8</ele>
        <time>2022-10-15 10:34:38</time>
      </trkpt>
      <trkpt lat="38.66748" lon="-0.69629">
        <ele>888.8</ele>
        <time>2022-10-15 10:34:39</time>
      </trkpt>
      <trkpt lat="38.66744" lon="-0.69631">
        <ele>888.6</ele>
        <time>2022-10-15 10:34:40</time>
      </trkpt>
      <trkpt lat="38.6674" lon="-0.69633">
        <ele>888.6</ele>
        <time>2022-10-15 10:34:41</time>
      </trkpt>
      <trkpt lat="38.66736" lon="-0.69636">
        <ele>888.4</ele>
        <time>2022-10-15 10:34:42</time>
      </trkpt>
      <trkpt lat="38.66732" lon="-0.69639">
        <ele>888.2</ele>
        <time>2022-10-15 10:34:43</time>
      </trkpt>
      <trkpt lat="38.66728" lon="-0.69642">
        <ele>888</ele>
        <time>2022-10-15 10:34:44</time>
      </trkpt>
      <trkpt lat="38.66724" lon="-0.69646">
        <ele>887.8</ele>
        <time>2022-10-15 10:34:45</time>
      </trkpt>
      <trkpt lat="38.6672" lon="-0.6965">
        <ele>887.8</ele>
        <time>2022-10-15 10:34:46</time>
      </trkpt>
      <trkpt lat="38.66716" lon="-0.69654">
        <ele>887.6</ele>
        <time>2022-10-15 10:34:47</time>
      </trkpt>
      <trkpt lat="38.66712" lon="-0.69659">
        <ele>887.6</ele>
        <time>2022-10-15 10:34:48</time>
      </trkpt>
      <trkpt lat="38.66708" lon="-0.69664">
        <ele>887</ele>
        <time>2022-10-15 10:34:49</time>
      </trkpt>
      <trkpt lat="38.66704" lon="-0.69668">
        <ele>886.6</ele>
        <time>2022-10-15 10:34:50</time>
      </trkpt>
      <trkpt lat="38.667" lon="-0.69673">
        <ele>886</ele>
        <time>2022-10-15 10:34:51</time>
      </trkpt>
      <trkpt lat="38.66696" lon="-0.69678">
        <ele>885.8</ele>
        <time>2022-10-15 10:34:52</time>
      </trkpt>
      <trkpt lat="38.66691" lon="-0.69683">
        <ele>885.6</ele>
        <time>2022-10-15 10:34:53</time>
      </trkpt>
      <trkpt lat="38.66687" lon="-0.69687">
        <ele>885.4</ele>
        <time>2022-10-15 10:34:54</time>
      </trkpt>
      <trkpt lat="38.66682" lon="-0.69692">
        <ele>885.2</ele>
        <time>2022-10-15 10:34:55</time>
      </trkpt>
      <trkpt lat="38.66678" lon="-0.69696">
        <ele>885</ele>
        <time>2022-10-15 10:34:56</time>
      </trkpt>
      <trkpt lat="38.66673" lon="-0.69701">
        <ele>884.8</ele>
        <time>2022-10-15 10:34:57</time>
      </trkpt>
      <trkpt lat="38.66668" lon="-0.69705">
        <ele>884.4</ele>
        <time>2022-10-15 10:34:58</time>
      </trkpt>
      <trkpt lat="38.66664" lon="-0.6971">
        <ele>884.2</ele>
        <time>2022-10-15 10:34:59</time>
      </trkpt>
      <trkpt lat="38.66659" lon="-0.69715">
        <ele>884</ele>
        <time>2022-10-15 10:35:00</time>
      </trkpt>
      <trkpt lat="38.66654" lon="-0.69721">
        <ele>883.8</ele>
        <time>2022-10-15 10:35:01</time>
      </trkpt>
      <trkpt lat="38.6665" lon="-0.69726">
        <ele>883.6</ele>
        <time>2022-10-15 10:35:02</time>
      </trkpt>
      <trkpt lat="38.66646" lon="-0.69732">
        <ele>883.2</ele>
        <time>2022-10-15 10:35:03</time>
      </trkpt>
      <trkpt lat="38.66642" lon="-0.69739">
        <ele>883.2</ele>
        <time>2022-10-15 10:35:04</time>
      </trkpt>
      <trkpt lat="38.66638" lon="-0.69745">
        <ele>883</ele>
        <time>2022-10-15 10:35:05</time>
      </trkpt>
      <trkpt lat="38.6663" lon="-0.69757">
        <ele>882.8</ele>
        <time>2022-10-15 10:35:06</time>
      </trkpt>
      <trkpt lat="38.6663" lon="-0.69757">
        <ele>882.6</ele>
        <time>2022-10-15 10:35:07</time>
      </trkpt>
      <trkpt lat="38.66626" lon="-0.69763">
        <ele>882.6</ele>
        <time>2022-10-15 10:35:08</time>
      </trkpt>
      <trkpt lat="38.66619" lon="-0.69775">
        <ele>881.8</ele>
        <time>2022-10-15 10:35:10</time>
      </trkpt>
      <trkpt lat="38.66615" lon="-0.69781">
        <ele>881.4</ele>
        <time>2022-10-15 10:35:11</time>
      </trkpt>
      <trkpt lat="38.66607" lon="-0.69793">
        <ele>881.4</ele>
        <time>2022-10-15 10:35:12</time>
      </trkpt>
      <trkpt lat="38.66607" lon="-0.69793">
        <ele>881.2</ele>
        <time>2022-10-15 10:35:13</time>
      </trkpt>
      <trkpt lat="38.66603" lon="-0.69798">
        <ele>881.2</ele>
        <time>2022-10-15 10:35:14</time>
      </trkpt>
      <trkpt lat="38.666" lon="-0.69804">
        <ele>881</ele>
        <time>2022-10-15 10:35:15</time>
      </trkpt>
      <trkpt lat="38.66596" lon="-0.69809">
        <ele>880.8</ele>
        <time>2022-10-15 10:35:16</time>
      </trkpt>
      <trkpt lat="38.66593" lon="-0.69815">
        <ele>880.6</ele>
        <time>2022-10-15 10:35:17</time>
      </trkpt>
      <trkpt lat="38.66589" lon="-0.6982">
        <ele>880.2</ele>
        <time>2022-10-15 10:35:18</time>
      </trkpt>
      <trkpt lat="38.66586" lon="-0.69826">
        <ele>880</ele>
        <time>2022-10-15 10:35:19</time>
      </trkpt>
      <trkpt lat="38.66583" lon="-0.69831">
        <ele>880</ele>
        <time>2022-10-15 10:35:20</time>
      </trkpt>
      <trkpt lat="38.6658" lon="-0.69836">
        <ele>879.8</ele>
        <time>2022-10-15 10:35:21</time>
      </trkpt>
      <trkpt lat="38.66577" lon="-0.69841">
        <ele>879.8</ele>
        <time>2022-10-15 10:35:22</time>
      </trkpt>
      <trkpt lat="38.66574" lon="-0.69846">
        <ele>879.8</ele>
        <time>2022-10-15 10:35:23</time>
      </trkpt>
      <trkpt lat="38.6657" lon="-0.69851">
        <ele>879.6</ele>
        <time>2022-10-15 10:35:24</time>
      </trkpt>
      <trkpt lat="38.66567" lon="-0.69856">
        <ele>879.6</ele>
        <time>2022-10-15 10:35:25</time>
      </trkpt>
      <trkpt lat="38.66564" lon="-0.69862">
        <ele>879.6</ele>
        <time>2022-10-15 10:35:26</time>
      </trkpt>
      <trkpt lat="38.6656" lon="-0.69867">
        <ele>879.6</ele>
        <time>2022-10-15 10:35:27</time>
      </trkpt>
      <trkpt lat="38.66557" lon="-0.69873">
        <ele>879.6</ele>
        <time>2022-10-15 10:35:28</time>
      </trkpt>
      <trkpt lat="38.66554" lon="-0.69879">
        <ele>879.4</ele>
        <time>2022-10-15 10:35:29</time>
      </trkpt>
      <trkpt lat="38.66551" lon="-0.69885">
        <ele>879.4</ele>
        <time>2022-10-15 10:35:30</time>
      </trkpt>
      <trkpt lat="38.66548" lon="-0.69891">
        <ele>879.2</ele>
        <time>2022-10-15 10:35:31</time>
      </trkpt>
      <trkpt lat="38.66545" lon="-0.69897">
        <ele>878.8</ele>
        <time>2022-10-15 10:35:32</time>
      </trkpt>
      <trkpt lat="38.66542" lon="-0.69903">
        <ele>878.6</ele>
        <time>2022-10-15 10:35:33</time>
      </trkpt>
      <trkpt lat="38.66539" lon="-0.69909">
        <ele>878.4</ele>
        <time>2022-10-15 10:35:34</time>
      </trkpt>
      <trkpt lat="38.66536" lon="-0.69915">
        <ele>878</ele>
        <time>2022-10-15 10:35:35</time>
      </trkpt>
      <trkpt lat="38.66533" lon="-0.6992">
        <ele>878</ele>
        <time>2022-10-15 10:35:36</time>
      </trkpt>
      <trkpt lat="38.6653" lon="-0.69926">
        <ele>877.6</ele>
        <time>2022-10-15 10:35:37</time>
      </trkpt>
      <trkpt lat="38.66527" lon="-0.69932">
        <ele>877.4</ele>
        <time>2022-10-15 10:35:38</time>
      </trkpt>
      <trkpt lat="38.66523" lon="-0.69938">
        <ele>877.2</ele>
        <time>2022-10-15 10:35:39</time>
      </trkpt>
      <trkpt lat="38.6652" lon="-0.69944">
        <ele>877</ele>
        <time>2022-10-15 10:35:40</time>
      </trkpt>
      <trkpt lat="38.66517" lon="-0.6995">
        <ele>877</ele>
        <time>2022-10-15 10:35:41</time>
      </trkpt>
      <trkpt lat="38.66515" lon="-0.69955">
        <ele>876.8</ele>
        <time>2022-10-15 10:35:42</time>
      </trkpt>
      <trkpt lat="38.66512" lon="-0.69961">
        <ele>876.8</ele>
        <time>2022-10-15 10:35:43</time>
      </trkpt>
      <trkpt lat="38.66509" lon="-0.69967">
        <ele>876.6</ele>
        <time>2022-10-15 10:35:44</time>
      </trkpt>
      <trkpt lat="38.66506" lon="-0.69973">
        <ele>876.6</ele>
        <time>2022-10-15 10:35:45</time>
      </trkpt>
      <trkpt lat="38.66503" lon="-0.69979">
        <ele>876.4</ele>
        <time>2022-10-15 10:35:46</time>
      </trkpt>
      <trkpt lat="38.665" lon="-0.69985">
        <ele>876.4</ele>
        <time>2022-10-15 10:35:47</time>
      </trkpt>
      <trkpt lat="38.66497" lon="-0.69991">
        <ele>876.2</ele>
        <time>2022-10-15 10:35:48</time>
      </trkpt>
      <trkpt lat="38.66494" lon="-0.69997">
        <ele>876.2</ele>
        <time>2022-10-15 10:35:49</time>
      </trkpt>
      <trkpt lat="38.6649" lon="-0.70003">
        <ele>876.2</ele>
        <time>2022-10-15 10:35:50</time>
      </trkpt>
      <trkpt lat="38.66487" lon="-0.70009">
        <ele>875.8</ele>
        <time>2022-10-15 10:35:51</time>
      </trkpt>
      <trkpt lat="38.66484" lon="-0.70015">
        <ele>875.8</ele>
        <time>2022-10-15 10:35:52</time>
      </trkpt>
      <trkpt lat="38.66481" lon="-0.7002">
        <ele>875.6</ele>
        <time>2022-10-15 10:35:53</time>
      </trkpt>
      <trkpt lat="38.66477" lon="-0.70026">
        <ele>875.4</ele>
        <time>2022-10-15 10:35:54</time>
      </trkpt>
      <trkpt lat="38.66474" lon="-0.70031">
        <ele>875.2</ele>
        <time>2022-10-15 10:35:55</time>
      </trkpt>
      <trkpt lat="38.66469" lon="-0.70036">
        <ele>875</ele>
        <time>2022-10-15 10:35:56</time>
      </trkpt>
      <trkpt lat="38.66465" lon="-0.70041">
        <ele>874.8</ele>
        <time>2022-10-15 10:35:57</time>
      </trkpt>
      <trkpt lat="38.6646" lon="-0.70045">
        <ele>874.4</ele>
        <time>2022-10-15 10:35:58</time>
      </trkpt>
      <trkpt lat="38.66454" lon="-0.70049">
        <ele>874.2</ele>
        <time>2022-10-15 10:35:59</time>
      </trkpt>
      <trkpt lat="38.66449" lon="-0.70053">
        <ele>873.8</ele>
        <time>2022-10-15 10:36:00</time>
      </trkpt>
      <trkpt lat="38.66444" lon="-0.70057">
        <ele>873.4</ele>
        <time>2022-10-15 10:36:01</time>
      </trkpt>
      <trkpt lat="38.66438" lon="-0.70061">
        <ele>873</ele>
        <time>2022-10-15 10:36:02</time>
      </trkpt>
      <trkpt lat="38.66433" lon="-0.70065">
        <ele>872.8</ele>
        <time>2022-10-15 10:36:03</time>
      </trkpt>
      <trkpt lat="38.66428" lon="-0.70069">
        <ele>872.6</ele>
        <time>2022-10-15 10:36:04</time>
      </trkpt>
      <trkpt lat="38.66423" lon="-0.70072">
        <ele>872.2</ele>
        <time>2022-10-15 10:36:05</time>
      </trkpt>
      <trkpt lat="38.66418" lon="-0.70076">
        <ele>871.8</ele>
        <time>2022-10-15 10:36:06</time>
      </trkpt>
      <trkpt lat="38.66413" lon="-0.70079">
        <ele>871.4</ele>
        <time>2022-10-15 10:36:07</time>
      </trkpt>
      <trkpt lat="38.66409" lon="-0.70083">
        <ele>871.2</ele>
        <time>2022-10-15 10:36:08</time>
      </trkpt>
      <trkpt lat="38.66404" lon="-0.70086">
        <ele>871.2</ele>
        <time>2022-10-15 10:36:09</time>
      </trkpt>
      <trkpt lat="38.664" lon="-0.70088">
        <ele>871.2</ele>
        <time>2022-10-15 10:36:10</time>
      </trkpt>
      <trkpt lat="38.66395" lon="-0.70091">
        <ele>871.2</ele>
        <time>2022-10-15 10:36:11</time>
      </trkpt>
      <trkpt lat="38.66391" lon="-0.70094">
        <ele>871</ele>
        <time>2022-10-15 10:36:12</time>
      </trkpt>
      <trkpt lat="38.66387" lon="-0.70097">
        <ele>871</ele>
        <time>2022-10-15 10:36:13</time>
      </trkpt>
      <trkpt lat="38.66383" lon="-0.70099">
        <ele>871</ele>
        <time>2022-10-15 10:36:14</time>
      </trkpt>
      <trkpt lat="38.6638" lon="-0.70102">
        <ele>871</ele>
        <time>2022-10-15 10:36:15</time>
      </trkpt>
      <trkpt lat="38.66376" lon="-0.70105">
        <ele>871</ele>
        <time>2022-10-15 10:36:16</time>
      </trkpt>
      <trkpt lat="38.66372" lon="-0.70108">
        <ele>871</ele>
        <time>2022-10-15 10:36:17</time>
      </trkpt>
      <trkpt lat="38.66368" lon="-0.70111">
        <ele>871.2</ele>
        <time>2022-10-15 10:36:18</time>
      </trkpt>
      <trkpt lat="38.66365" lon="-0.70113">
        <ele>871</ele>
        <time>2022-10-15 10:36:19</time>
      </trkpt>
      <trkpt lat="38.66361" lon="-0.70116">
        <ele>871</ele>
        <time>2022-10-15 10:36:20</time>
      </trkpt>
      <trkpt lat="38.66357" lon="-0.70119">
        <ele>871</ele>
        <time>2022-10-15 10:36:21</time>
      </trkpt>
      <trkpt lat="38.66354" lon="-0.70122">
        <ele>871</ele>
        <time>2022-10-15 10:36:22</time>
      </trkpt>
      <trkpt lat="38.6635" lon="-0.70124">
        <ele>871</ele>
        <time>2022-10-15 10:36:23</time>
      </trkpt>
      <trkpt lat="38.66346" lon="-0.70127">
        <ele>871</ele>
        <time>2022-10-15 10:36:24</time>
      </trkpt>
      <trkpt lat="38.66343" lon="-0.7013">
        <ele>871</ele>
        <time>2022-10-15 10:36:25</time>
      </trkpt>
      <trkpt lat="38.66339" lon="-0.70133">
        <ele>871</ele>
        <time>2022-10-15 10:36:26</time>
      </trkpt>
      <trkpt lat="38.66335" lon="-0.70136">
        <ele>870.8</ele>
        <time>2022-10-15 10:36:27</time>
      </trkpt>
      <trkpt lat="38.66331" lon="-0.70138">
        <ele>870.8</ele>
        <time>2022-10-15 10:36:28</time>
      </trkpt>
      <trkpt lat="38.66327" lon="-0.70141">
        <ele>870.8</ele>
        <time>2022-10-15 10:36:29</time>
      </trkpt>
      <trkpt lat="38.66323" lon="-0.70144">
        <ele>870.8</ele>
        <time>2022-10-15 10:36:30</time>
      </trkpt>
      <trkpt lat="38.66319" lon="-0.70146">
        <ele>870.8</ele>
        <time>2022-10-15 10:36:31</time>
      </trkpt>
      <trkpt lat="38.66315" lon="-0.70149">
        <ele>870.6</ele>
        <time>2022-10-15 10:36:32</time>
      </trkpt>
      <trkpt lat="38.66311" lon="-0.70153">
        <ele>870.6</ele>
        <time>2022-10-15 10:36:33</time>
      </trkpt>
      <trkpt lat="38.66307" lon="-0.70156">
        <ele>870.6</ele>
        <time>2022-10-15 10:36:34</time>
      </trkpt>
      <trkpt lat="38.66303" lon="-0.70159">
        <ele>870.4</ele>
        <time>2022-10-15 10:36:35</time>
      </trkpt>
      <trkpt lat="38.66299" lon="-0.70163">
        <ele>870.2</ele>
        <time>2022-10-15 10:36:36</time>
      </trkpt>
      <trkpt lat="38.66295" lon="-0.70166">
        <ele>870.2</ele>
        <time>2022-10-15 10:36:37</time>
      </trkpt>
      <trkpt lat="38.6629" lon="-0.7017">
        <ele>870</ele>
        <time>2022-10-15 10:36:38</time>
      </trkpt>
      <trkpt lat="38.66286" lon="-0.70174">
        <ele>869.8</ele>
        <time>2022-10-15 10:36:39</time>
      </trkpt>
      <trkpt lat="38.66281" lon="-0.70178">
        <ele>869.6</ele>
        <time>2022-10-15 10:36:40</time>
      </trkpt>
      <trkpt lat="38.66275" lon="-0.70182">
        <ele>869.6</ele>
        <time>2022-10-15 10:36:41</time>
      </trkpt>
      <trkpt lat="38.66269" lon="-0.70186">
        <ele>869.6</ele>
        <time>2022-10-15 10:36:42</time>
      </trkpt>
      <trkpt lat="38.66263" lon="-0.7019">
        <ele>869.2</ele>
        <time>2022-10-15 10:36:43</time>
      </trkpt>
      <trkpt lat="38.66257" lon="-0.70195">
        <ele>869</ele>
        <time>2022-10-15 10:36:44</time>
      </trkpt>
      <trkpt lat="38.66251" lon="-0.70198">
        <ele>868.8</ele>
        <time>2022-10-15 10:36:45</time>
      </trkpt>
      <trkpt lat="38.66245" lon="-0.70202">
        <ele>868.2</ele>
        <time>2022-10-15 10:36:46</time>
      </trkpt>
      <trkpt lat="38.66239" lon="-0.70204">
        <ele>867.8</ele>
        <time>2022-10-15 10:36:47</time>
      </trkpt>
      <trkpt lat="38.66232" lon="-0.70206">
        <ele>867</ele>
        <time>2022-10-15 10:36:48</time>
      </trkpt>
      <trkpt lat="38.66226" lon="-0.70207">
        <ele>866.2</ele>
        <time>2022-10-15 10:36:49</time>
      </trkpt>
      <trkpt lat="38.6622" lon="-0.70209">
        <ele>865.8</ele>
        <time>2022-10-15 10:36:50</time>
      </trkpt>
      <trkpt lat="38.66213" lon="-0.7021">
        <ele>865.6</ele>
        <time>2022-10-15 10:36:51</time>
      </trkpt>
      <trkpt lat="38.66206" lon="-0.70211">
        <ele>865.4</ele>
        <time>2022-10-15 10:36:52</time>
      </trkpt>
      <trkpt lat="38.662" lon="-0.70212">
        <ele>865.4</ele>
        <time>2022-10-15 10:36:53</time>
      </trkpt>
      <trkpt lat="38.66193" lon="-0.70214">
        <ele>865.2</ele>
        <time>2022-10-15 10:36:54</time>
      </trkpt>
      <trkpt lat="38.66186" lon="-0.70216">
        <ele>865.2</ele>
        <time>2022-10-15 10:36:55</time>
      </trkpt>
      <trkpt lat="38.6618" lon="-0.70218">
        <ele>865.2</ele>
        <time>2022-10-15 10:36:56</time>
      </trkpt>
      <trkpt lat="38.66174" lon="-0.70221">
        <ele>865</ele>
        <time>2022-10-15 10:36:57</time>
      </trkpt>
      <trkpt lat="38.66168" lon="-0.70224">
        <ele>864.6</ele>
        <time>2022-10-15 10:36:58</time>
      </trkpt>
      <trkpt lat="38.66163" lon="-0.70228">
        <ele>864.4</ele>
        <time>2022-10-15 10:36:59</time>
      </trkpt>
      <trkpt lat="38.66158" lon="-0.70232">
        <ele>863.8</ele>
        <time>2022-10-15 10:37:00</time>
      </trkpt>
      <trkpt lat="38.66153" lon="-0.70237">
        <ele>863.6</ele>
        <time>2022-10-15 10:37:01</time>
      </trkpt>
      <trkpt lat="38.66149" lon="-0.70241">
        <ele>863.4</ele>
        <time>2022-10-15 10:37:02</time>
      </trkpt>
      <trkpt lat="38.66145" lon="-0.70245">
        <ele>863.2</ele>
        <time>2022-10-15 10:37:03</time>
      </trkpt>
      <trkpt lat="38.66141" lon="-0.70249">
        <ele>863.2</ele>
        <time>2022-10-15 10:37:04</time>
      </trkpt>
      <trkpt lat="38.66137" lon="-0.70253">
        <ele>863.2</ele>
        <time>2022-10-15 10:37:05</time>
      </trkpt>
      <trkpt lat="38.66134" lon="-0.70257">
        <ele>863.2</ele>
        <time>2022-10-15 10:37:06</time>
      </trkpt>
      <trkpt lat="38.66131" lon="-0.70262">
        <ele>863.2</ele>
        <time>2022-10-15 10:37:07</time>
      </trkpt>
      <trkpt lat="38.66128" lon="-0.70267">
        <ele>863.2</ele>
        <time>2022-10-15 10:37:08</time>
      </trkpt>
      <trkpt lat="38.66125" lon="-0.70272">
        <ele>863</ele>
        <time>2022-10-15 10:37:09</time>
      </trkpt>
      <trkpt lat="38.66122" lon="-0.70277">
        <ele>863</ele>
        <time>2022-10-15 10:37:10</time>
      </trkpt>
      <trkpt lat="38.66119" lon="-0.70283">
        <ele>863</ele>
        <time>2022-10-15 10:37:11</time>
      </trkpt>
      <trkpt lat="38.66116" lon="-0.70288">
        <ele>863</ele>
        <time>2022-10-15 10:37:12</time>
      </trkpt>
      <trkpt lat="38.66113" lon="-0.70293">
        <ele>863</ele>
        <time>2022-10-15 10:37:13</time>
      </trkpt>
      <trkpt lat="38.6611" lon="-0.70299">
        <ele>863</ele>
        <time>2022-10-15 10:37:14</time>
      </trkpt>
      <trkpt lat="38.66108" lon="-0.70305">
        <ele>863</ele>
        <time>2022-10-15 10:37:15</time>
      </trkpt>
      <trkpt lat="38.66106" lon="-0.70311">
        <ele>863</ele>
        <time>2022-10-15 10:37:16</time>
      </trkpt>
      <trkpt lat="38.66104" lon="-0.70316">
        <ele>863</ele>
        <time>2022-10-15 10:37:17</time>
      </trkpt>
      <trkpt lat="38.66102" lon="-0.70322">
        <ele>862.8</ele>
        <time>2022-10-15 10:37:18</time>
      </trkpt>
      <trkpt lat="38.66099" lon="-0.70328">
        <ele>862.8</ele>
        <time>2022-10-15 10:37:19</time>
      </trkpt>
      <trkpt lat="38.66097" lon="-0.70333">
        <ele>862.8</ele>
        <time>2022-10-15 10:37:20</time>
      </trkpt>
      <trkpt lat="38.66095" lon="-0.70339">
        <ele>862.6</ele>
        <time>2022-10-15 10:37:21</time>
      </trkpt>
      <trkpt lat="38.66093" lon="-0.70344">
        <ele>862.6</ele>
        <time>2022-10-15 10:37:22</time>
      </trkpt>
      <trkpt lat="38.66091" lon="-0.70349">
        <ele>862.4</ele>
        <time>2022-10-15 10:37:23</time>
      </trkpt>
      <trkpt lat="38.6609" lon="-0.70354">
        <ele>862.4</ele>
        <time>2022-10-15 10:37:24</time>
      </trkpt>
      <trkpt lat="38.66088" lon="-0.7036">
        <ele>862.4</ele>
        <time>2022-10-15 10:37:25</time>
      </trkpt>
      <trkpt lat="38.66086" lon="-0.70365">
        <ele>862.2</ele>
        <time>2022-10-15 10:37:26</time>
      </trkpt>
      <trkpt lat="38.66084" lon="-0.7037">
        <ele>862.2</ele>
        <time>2022-10-15 10:37:27</time>
      </trkpt>
      <trkpt lat="38.66082" lon="-0.70375">
        <ele>862.2</ele>
        <time>2022-10-15 10:37:28</time>
      </trkpt>
      <trkpt lat="38.6608" lon="-0.7038">
        <ele>862.2</ele>
        <time>2022-10-15 10:37:29</time>
      </trkpt>
      <trkpt lat="38.66078" lon="-0.70385">
        <ele>862</ele>
        <time>2022-10-15 10:37:30</time>
      </trkpt>
      <trkpt lat="38.66076" lon="-0.70391">
        <ele>862</ele>
        <time>2022-10-15 10:37:31</time>
      </trkpt>
      <trkpt lat="38.66073" lon="-0.70396">
        <ele>861.8</ele>
        <time>2022-10-15 10:37:32</time>
      </trkpt>
      <trkpt lat="38.66071" lon="-0.70402">
        <ele>861.6</ele>
        <time>2022-10-15 10:37:33</time>
      </trkpt>
      <trkpt lat="38.66069" lon="-0.70407">
        <ele>861.6</ele>
        <time>2022-10-15 10:37:34</time>
      </trkpt>
      <trkpt lat="38.66067" lon="-0.70412">
        <ele>861.6</ele>
        <time>2022-10-15 10:37:35</time>
      </trkpt>
      <trkpt lat="38.66064" lon="-0.70416">
        <ele>861.6</ele>
        <time>2022-10-15 10:37:36</time>
      </trkpt>
      <trkpt lat="38.66063" lon="-0.70421">
        <ele>861.6</ele>
        <time>2022-10-15 10:37:37</time>
      </trkpt>
      <trkpt lat="38.66061" lon="-0.70425">
        <ele>861.6</ele>
        <time>2022-10-15 10:37:38</time>
      </trkpt>
      <trkpt lat="38.66059" lon="-0.70429">
        <ele>861.6</ele>
        <time>2022-10-15 10:37:39</time>
      </trkpt>
      <trkpt lat="38.66057" lon="-0.70434">
        <ele>861.6</ele>
        <time>2022-10-15 10:37:40</time>
      </trkpt>
      <trkpt lat="38.66055" lon="-0.70439">
        <ele>861.6</ele>
        <time>2022-10-15 10:37:41</time>
      </trkpt>
      <trkpt lat="38.66053" lon="-0.70443">
        <ele>861.6</ele>
        <time>2022-10-15 10:37:42</time>
      </trkpt>
      <trkpt lat="38.66051" lon="-0.70448">
        <ele>861.6</ele>
        <time>2022-10-15 10:37:43</time>
      </trkpt>
      <trkpt lat="38.6605" lon="-0.70453">
        <ele>861.6</ele>
        <time>2022-10-15 10:37:44</time>
      </trkpt>
      <trkpt lat="38.66048" lon="-0.70458">
        <ele>861.6</ele>
        <time>2022-10-15 10:37:45</time>
      </trkpt>
      <trkpt lat="38.66046" lon="-0.70462">
        <ele>861.6</ele>
        <time>2022-10-15 10:37:46</time>
      </trkpt>
      <trkpt lat="38.66044" lon="-0.70467">
        <ele>861.6</ele>
        <time>2022-10-15 10:37:47</time>
      </trkpt>
      <trkpt lat="38.66042" lon="-0.70472">
        <ele>861.8</ele>
        <time>2022-10-15 10:37:48</time>
      </trkpt>
      <trkpt lat="38.6604" lon="-0.70477">
        <ele>861.8</ele>
        <time>2022-10-15 10:37:49</time>
      </trkpt>
      <trkpt lat="38.66038" lon="-0.70482">
        <ele>861.8</ele>
        <time>2022-10-15 10:37:50</time>
      </trkpt>
      <trkpt lat="38.66036" lon="-0.70487">
        <ele>861.8</ele>
        <time>2022-10-15 10:37:51</time>
      </trkpt>
      <trkpt lat="38.66034" lon="-0.70492">
        <ele>861.8</ele>
        <time>2022-10-15 10:37:52</time>
      </trkpt>
      <trkpt lat="38.66031" lon="-0.70498">
        <ele>861.8</ele>
        <time>2022-10-15 10:37:53</time>
      </trkpt>
      <trkpt lat="38.66029" lon="-0.70503">
        <ele>861.8</ele>
        <time>2022-10-15 10:37:54</time>
      </trkpt>
      <trkpt lat="38.66026" lon="-0.70509">
        <ele>861.8</ele>
        <time>2022-10-15 10:37:55</time>
      </trkpt>
      <trkpt lat="38.66024" lon="-0.70515">
        <ele>861.8</ele>
        <time>2022-10-15 10:37:56</time>
      </trkpt>
      <trkpt lat="38.66021" lon="-0.70521">
        <ele>861.6</ele>
        <time>2022-10-15 10:37:57</time>
      </trkpt>
      <trkpt lat="38.66019" lon="-0.70528">
        <ele>861.6</ele>
        <time>2022-10-15 10:37:58</time>
      </trkpt>
      <trkpt lat="38.66017" lon="-0.70536">
        <ele>861.4</ele>
        <time>2022-10-15 10:37:59</time>
      </trkpt>
      <trkpt lat="38.66014" lon="-0.70544">
        <ele>861.4</ele>
        <time>2022-10-15 10:38:00</time>
      </trkpt>
      <trkpt lat="38.66012" lon="-0.70552">
        <ele>861.2</ele>
        <time>2022-10-15 10:38:01</time>
      </trkpt>
      <trkpt lat="38.6601" lon="-0.70561">
        <ele>861</ele>
        <time>2022-10-15 10:38:02</time>
      </trkpt>
      <trkpt lat="38.66008" lon="-0.70569">
        <ele>860.6</ele>
        <time>2022-10-15 10:38:03</time>
      </trkpt>
      <trkpt lat="38.66006" lon="-0.70578">
        <ele>860.4</ele>
        <time>2022-10-15 10:38:04</time>
      </trkpt>
      <trkpt lat="38.66004" lon="-0.70587">
        <ele>860.2</ele>
        <time>2022-10-15 10:38:05</time>
      </trkpt>
      <trkpt lat="38.66002" lon="-0.70596">
        <ele>859.8</ele>
        <time>2022-10-15 10:38:06</time>
      </trkpt>
      <trkpt lat="38.65999" lon="-0.70605">
        <ele>859.2</ele>
        <time>2022-10-15 10:38:07</time>
      </trkpt>
      <trkpt lat="38.65996" lon="-0.70613">
        <ele>857.6</ele>
        <time>2022-10-15 10:38:08</time>
      </trkpt>
      <trkpt lat="38.65993" lon="-0.70621">
        <ele>857.2</ele>
        <time>2022-10-15 10:38:09</time>
      </trkpt>
      <trkpt lat="38.65989" lon="-0.70629">
        <ele>856.8</ele>
        <time>2022-10-15 10:38:10</time>
      </trkpt>
      <trkpt lat="38.65986" lon="-0.70636">
        <ele>856.6</ele>
        <time>2022-10-15 10:38:11</time>
      </trkpt>
      <trkpt lat="38.65982" lon="-0.70644">
        <ele>856.2</ele>
        <time>2022-10-15 10:38:12</time>
      </trkpt>
      <trkpt lat="38.65979" lon="-0.70652">
        <ele>855.6</ele>
        <time>2022-10-15 10:38:13</time>
      </trkpt>
      <trkpt lat="38.65976" lon="-0.70659">
        <ele>855.2</ele>
        <time>2022-10-15 10:38:14</time>
      </trkpt>
      <trkpt lat="38.65972" lon="-0.70666">
        <ele>855</ele>
        <time>2022-10-15 10:38:15</time>
      </trkpt>
      <trkpt lat="38.65969" lon="-0.70673">
        <ele>854.8</ele>
        <time>2022-10-15 10:38:16</time>
      </trkpt>
      <trkpt lat="38.65965" lon="-0.70681">
        <ele>854.6</ele>
        <time>2022-10-15 10:38:17</time>
      </trkpt>
      <trkpt lat="38.65961" lon="-0.70689">
        <ele>854.4</ele>
        <time>2022-10-15 10:38:18</time>
      </trkpt>
      <trkpt lat="38.65958" lon="-0.70696">
        <ele>854.2</ele>
        <time>2022-10-15 10:38:19</time>
      </trkpt>
      <trkpt lat="38.65954" lon="-0.70704">
        <ele>854</ele>
        <time>2022-10-15 10:38:20</time>
      </trkpt>
      <trkpt lat="38.6595" lon="-0.70711">
        <ele>854</ele>
        <time>2022-10-15 10:38:21</time>
      </trkpt>
      <trkpt lat="38.65947" lon="-0.70719">
        <ele>853.8</ele>
        <time>2022-10-15 10:38:22</time>
      </trkpt>
      <trkpt lat="38.65943" lon="-0.70726">
        <ele>853.6</ele>
        <time>2022-10-15 10:38:23</time>
      </trkpt>
      <trkpt lat="38.6594" lon="-0.70733">
        <ele>853.4</ele>
        <time>2022-10-15 10:38:24</time>
      </trkpt>
      <trkpt lat="38.65936" lon="-0.70741">
        <ele>853.2</ele>
        <time>2022-10-15 10:38:25</time>
      </trkpt>
      <trkpt lat="38.65932" lon="-0.70748">
        <ele>852.8</ele>
        <time>2022-10-15 10:38:26</time>
      </trkpt>
      <trkpt lat="38.65929" lon="-0.70755">
        <ele>852.4</ele>
        <time>2022-10-15 10:38:27</time>
      </trkpt>
      <trkpt lat="38.65924" lon="-0.70763">
        <ele>852.2</ele>
        <time>2022-10-15 10:38:28</time>
      </trkpt>
      <trkpt lat="38.6592" lon="-0.7077">
        <ele>851.6</ele>
        <time>2022-10-15 10:38:29</time>
      </trkpt>
      <trkpt lat="38.65916" lon="-0.70777">
        <ele>851.2</ele>
        <time>2022-10-15 10:38:30</time>
      </trkpt>
      <trkpt lat="38.65912" lon="-0.70783">
        <ele>851</ele>
        <time>2022-10-15 10:38:31</time>
      </trkpt>
      <trkpt lat="38.65908" lon="-0.7079">
        <ele>851</ele>
        <time>2022-10-15 10:38:32</time>
      </trkpt>
      <trkpt lat="38.65905" lon="-0.70797">
        <ele>850.8</ele>
        <time>2022-10-15 10:38:33</time>
      </trkpt>
      <trkpt lat="38.65902" lon="-0.70803">
        <ele>850.6</ele>
        <time>2022-10-15 10:38:34</time>
      </trkpt>
      <trkpt lat="38.65899" lon="-0.70809">
        <ele>850.4</ele>
        <time>2022-10-15 10:38:35</time>
      </trkpt>
      <trkpt lat="38.65896" lon="-0.70816">
        <ele>850.4</ele>
        <time>2022-10-15 10:38:36</time>
      </trkpt>
      <trkpt lat="38.65894" lon="-0.70822">
        <ele>850.2</ele>
        <time>2022-10-15 10:38:37</time>
      </trkpt>
      <trkpt lat="38.65892" lon="-0.70828">
        <ele>850.2</ele>
        <time>2022-10-15 10:38:38</time>
      </trkpt>
      <trkpt lat="38.6589" lon="-0.70834">
        <ele>850.2</ele>
        <time>2022-10-15 10:38:39</time>
      </trkpt>
      <trkpt lat="38.65889" lon="-0.7084">
        <ele>850.2</ele>
        <time>2022-10-15 10:38:40</time>
      </trkpt>
      <trkpt lat="38.65887" lon="-0.70846">
        <ele>850.2</ele>
        <time>2022-10-15 10:38:41</time>
      </trkpt>
      <trkpt lat="38.65886" lon="-0.70852">
        <ele>850.2</ele>
        <time>2022-10-15 10:38:42</time>
      </trkpt>
      <trkpt lat="38.65884" lon="-0.7086">
        <ele>850.2</ele>
        <time>2022-10-15 10:38:43</time>
      </trkpt>
      <trkpt lat="38.65883" lon="-0.70867">
        <ele>850</ele>
        <time>2022-10-15 10:38:44</time>
      </trkpt>
      <trkpt lat="38.65882" lon="-0.70875">
        <ele>850</ele>
        <time>2022-10-15 10:38:45</time>
      </trkpt>
      <trkpt lat="38.65881" lon="-0.70883">
        <ele>849.8</ele>
        <time>2022-10-15 10:38:46</time>
      </trkpt>
      <trkpt lat="38.65879" lon="-0.70891">
        <ele>849.8</ele>
        <time>2022-10-15 10:38:47</time>
      </trkpt>
      <trkpt lat="38.65878" lon="-0.70897">
        <ele>849.8</ele>
        <time>2022-10-15 10:38:48</time>
      </trkpt>
      <trkpt lat="38.65876" lon="-0.70903">
        <ele>849.8</ele>
        <time>2022-10-15 10:38:49</time>
      </trkpt>
      <trkpt lat="38.65875" lon="-0.70909">
        <ele>849.8</ele>
        <time>2022-10-15 10:38:50</time>
      </trkpt>
      <trkpt lat="38.65874" lon="-0.70914">
        <ele>849.8</ele>
        <time>2022-10-15 10:38:51</time>
      </trkpt>
      <trkpt lat="38.65873" lon="-0.70919">
        <ele>849.8</ele>
        <time>2022-10-15 10:38:52</time>
      </trkpt>
      <trkpt lat="38.65872" lon="-0.70924">
        <ele>850</ele>
        <time>2022-10-15 10:38:53</time>
      </trkpt>
      <trkpt lat="38.65871" lon="-0.70928">
        <ele>850</ele>
        <time>2022-10-15 10:38:54</time>
      </trkpt>
      <trkpt lat="38.65871" lon="-0.70933">
        <ele>850</ele>
        <time>2022-10-15 10:38:55</time>
      </trkpt>
      <trkpt lat="38.6587" lon="-0.70937">
        <ele>850</ele>
        <time>2022-10-15 10:38:56</time>
      </trkpt>
      <trkpt lat="38.65869" lon="-0.70941">
        <ele>850</ele>
        <time>2022-10-15 10:38:57</time>
      </trkpt>
      <trkpt lat="38.65868" lon="-0.70946">
        <ele>850</ele>
        <time>2022-10-15 10:38:58</time>
      </trkpt>
      <trkpt lat="38.65868" lon="-0.7095">
        <ele>850.4</ele>
        <time>2022-10-15 10:38:59</time>
      </trkpt>
      <trkpt lat="38.65867" lon="-0.70954">
        <ele>850.8</ele>
        <time>2022-10-15 10:39:00</time>
      </trkpt>
      <trkpt lat="38.65866" lon="-0.70959">
        <ele>851.2</ele>
        <time>2022-10-15 10:39:01</time>
      </trkpt>
      <trkpt lat="38.65865" lon="-0.70963">
        <ele>851.6</ele>
        <time>2022-10-15 10:39:02</time>
      </trkpt>
      <trkpt lat="38.65864" lon="-0.70968">
        <ele>852</ele>
        <time>2022-10-15 10:39:03</time>
      </trkpt>
      <trkpt lat="38.65863" lon="-0.70972">
        <ele>852.2</ele>
        <time>2022-10-15 10:39:04</time>
      </trkpt>
      <trkpt lat="38.65862" lon="-0.70977">
        <ele>852.4</ele>
        <time>2022-10-15 10:39:05</time>
      </trkpt>
      <trkpt lat="38.65861" lon="-0.70982">
        <ele>852.4</ele>
        <time>2022-10-15 10:39:06</time>
      </trkpt>
      <trkpt lat="38.65859" lon="-0.70987">
        <ele>852.6</ele>
        <time>2022-10-15 10:39:07</time>
      </trkpt>
      <trkpt lat="38.65858" lon="-0.70992">
        <ele>852.6</ele>
        <time>2022-10-15 10:39:08</time>
      </trkpt>
      <trkpt lat="38.65856" lon="-0.70997">
        <ele>852.6</ele>
        <time>2022-10-15 10:39:09</time>
      </trkpt>
      <trkpt lat="38.65855" lon="-0.71002">
        <ele>852.6</ele>
        <time>2022-10-15 10:39:10</time>
      </trkpt>
      <trkpt lat="38.65853" lon="-0.71006">
        <ele>852.6</ele>
        <time>2022-10-15 10:39:11</time>
      </trkpt>
      <trkpt lat="38.65852" lon="-0.71011">
        <ele>852.6</ele>
        <time>2022-10-15 10:39:12</time>
      </trkpt>
      <trkpt lat="38.65851" lon="-0.71016">
        <ele>852.6</ele>
        <time>2022-10-15 10:39:13</time>
      </trkpt>
      <trkpt lat="38.65849" lon="-0.71022">
        <ele>852.6</ele>
        <time>2022-10-15 10:39:14</time>
      </trkpt>
      <trkpt lat="38.65848" lon="-0.71027">
        <ele>852.6</ele>
        <time>2022-10-15 10:39:15</time>
      </trkpt>
      <trkpt lat="38.65846" lon="-0.71032">
        <ele>852.6</ele>
        <time>2022-10-15 10:39:16</time>
      </trkpt>
      <trkpt lat="38.65845" lon="-0.71038">
        <ele>852.6</ele>
        <time>2022-10-15 10:39:17</time>
      </trkpt>
      <trkpt lat="38.65843" lon="-0.71043">
        <ele>852.6</ele>
        <time>2022-10-15 10:39:18</time>
      </trkpt>
      <trkpt lat="38.65841" lon="-0.71048">
        <ele>852.6</ele>
        <time>2022-10-15 10:39:19</time>
      </trkpt>
      <trkpt lat="38.6584" lon="-0.71054">
        <ele>852.6</ele>
        <time>2022-10-15 10:39:20</time>
      </trkpt>
      <trkpt lat="38.65838" lon="-0.71059">
        <ele>852.4</ele>
        <time>2022-10-15 10:39:21</time>
      </trkpt>
      <trkpt lat="38.65837" lon="-0.71065">
        <ele>852.4</ele>
        <time>2022-10-15 10:39:22</time>
      </trkpt>
      <trkpt lat="38.65836" lon="-0.7107">
        <ele>852.2</ele>
        <time>2022-10-15 10:39:23</time>
      </trkpt>
      <trkpt lat="38.65834" lon="-0.71076">
        <ele>852.2</ele>
        <time>2022-10-15 10:39:24</time>
      </trkpt>
      <trkpt lat="38.65833" lon="-0.71081">
        <ele>852.2</ele>
        <time>2022-10-15 10:39:25</time>
      </trkpt>
      <trkpt lat="38.65832" lon="-0.71087">
        <ele>852</ele>
        <time>2022-10-15 10:39:26</time>
      </trkpt>
      <trkpt lat="38.6583" lon="-0.71092">
        <ele>851.8</ele>
        <time>2022-10-15 10:39:27</time>
      </trkpt>
      <trkpt lat="38.65828" lon="-0.71097">
        <ele>851.6</ele>
        <time>2022-10-15 10:39:28</time>
      </trkpt>
      <trkpt lat="38.65826" lon="-0.71102">
        <ele>851.6</ele>
        <time>2022-10-15 10:39:29</time>
      </trkpt>
      <trkpt lat="38.65824" lon="-0.71107">
        <ele>851.4</ele>
        <time>2022-10-15 10:39:30</time>
      </trkpt>
      <trkpt lat="38.65821" lon="-0.71112">
        <ele>851.2</ele>
        <time>2022-10-15 10:39:31</time>
      </trkpt>
      <trkpt lat="38.65818" lon="-0.71116">
        <ele>851.2</ele>
        <time>2022-10-15 10:39:32</time>
      </trkpt>
      <trkpt lat="38.65815" lon="-0.7112">
        <ele>851</ele>
        <time>2022-10-15 10:39:33</time>
      </trkpt>
      <trkpt lat="38.65812" lon="-0.71124">
        <ele>851</ele>
        <time>2022-10-15 10:39:34</time>
      </trkpt>
      <trkpt lat="38.65809" lon="-0.71128">
        <ele>851</ele>
        <time>2022-10-15 10:39:35</time>
      </trkpt>
      <trkpt lat="38.65806" lon="-0.71132">
        <ele>851</ele>
        <time>2022-10-15 10:39:36</time>
      </trkpt>
      <trkpt lat="38.65803" lon="-0.71135">
        <ele>851</ele>
        <time>2022-10-15 10:39:37</time>
      </trkpt>
      <trkpt lat="38.658" lon="-0.71138">
        <ele>851</ele>
        <time>2022-10-15 10:39:38</time>
      </trkpt>
      <trkpt lat="38.65798" lon="-0.71142">
        <ele>851</ele>
        <time>2022-10-15 10:39:39</time>
      </trkpt>
      <trkpt lat="38.65795" lon="-0.71145">
        <ele>851</ele>
        <time>2022-10-15 10:39:40</time>
      </trkpt>
      <trkpt lat="38.65793" lon="-0.71147">
        <ele>851</ele>
        <time>2022-10-15 10:39:41</time>
      </trkpt>
      <trkpt lat="38.65791" lon="-0.7115">
        <ele>851.2</ele>
        <time>2022-10-15 10:39:42</time>
      </trkpt>
      <trkpt lat="38.65789" lon="-0.71153">
        <ele>851.6</ele>
        <time>2022-10-15 10:39:43</time>
      </trkpt>
      <trkpt lat="38.65785" lon="-0.71158">
        <ele>851.8</ele>
        <time>2022-10-15 10:39:45</time>
      </trkpt>
      <trkpt lat="38.65784" lon="-0.7116">
        <ele>852</ele>
        <time>2022-10-15 10:39:46</time>
      </trkpt>
      <trkpt lat="38.65782" lon="-0.71162">
        <ele>852.2</ele>
        <time>2022-10-15 10:39:47</time>
      </trkpt>
      <trkpt lat="38.6578" lon="-0.71164">
        <ele>852.6</ele>
        <time>2022-10-15 10:39:48</time>
      </trkpt>
      <trkpt lat="38.65779" lon="-0.71167">
        <ele>853</ele>
        <time>2022-10-15 10:39:49</time>
      </trkpt>
      <trkpt lat="38.65777" lon="-0.71169">
        <ele>853.2</ele>
        <time>2022-10-15 10:39:50</time>
      </trkpt>
      <trkpt lat="38.65775" lon="-0.71171">
        <ele>853.4</ele>
        <time>2022-10-15 10:39:51</time>
      </trkpt>
      <trkpt lat="38.65773" lon="-0.71173">
        <ele>853.6</ele>
        <time>2022-10-15 10:39:52</time>
      </trkpt>
      <trkpt lat="38.65772" lon="-0.71175">
        <ele>853.8</ele>
        <time>2022-10-15 10:39:53</time>
      </trkpt>
      <trkpt lat="38.6577" lon="-0.71177">
        <ele>854</ele>
        <time>2022-10-15 10:39:54</time>
      </trkpt>
      <trkpt lat="38.65768" lon="-0.71179">
        <ele>854.2</ele>
        <time>2022-10-15 10:39:55</time>
      </trkpt>
      <trkpt lat="38.65767" lon="-0.71181">
        <ele>854.4</ele>
        <time>2022-10-15 10:39:56</time>
      </trkpt>
      <trkpt lat="38.65765" lon="-0.71184">
        <ele>854.6</ele>
        <time>2022-10-15 10:39:57</time>
      </trkpt>
      <trkpt lat="38.65763" lon="-0.71186">
        <ele>855</ele>
        <time>2022-10-15 10:39:58</time>
      </trkpt>
      <trkpt lat="38.65762" lon="-0.71188">
        <ele>855.4</ele>
        <time>2022-10-15 10:39:59</time>
      </trkpt>
      <trkpt lat="38.6576" lon="-0.7119">
        <ele>855.6</ele>
        <time>2022-10-15 10:40:00</time>
      </trkpt>
      <trkpt lat="38.65758" lon="-0.71192">
        <ele>855.8</ele>
        <time>2022-10-15 10:40:01</time>
      </trkpt>
      <trkpt lat="38.65756" lon="-0.71194">
        <ele>856</ele>
        <time>2022-10-15 10:40:02</time>
      </trkpt>
      <trkpt lat="38.65755" lon="-0.71196">
        <ele>856.2</ele>
        <time>2022-10-15 10:40:03</time>
      </trkpt>
      <trkpt lat="38.65753" lon="-0.71199">
        <ele>856.6</ele>
        <time>2022-10-15 10:40:04</time>
      </trkpt>
      <trkpt lat="38.65751" lon="-0.71201">
        <ele>856.6</ele>
        <time>2022-10-15 10:40:05</time>
      </trkpt>
      <trkpt lat="38.65749" lon="-0.71203">
        <ele>857</ele>
        <time>2022-10-15 10:40:06</time>
      </trkpt>
      <trkpt lat="38.65747" lon="-0.71205">
        <ele>857.2</ele>
        <time>2022-10-15 10:40:07</time>
      </trkpt>
      <trkpt lat="38.65746" lon="-0.71207">
        <ele>857.2</ele>
        <time>2022-10-15 10:40:08</time>
      </trkpt>
      <trkpt lat="38.65744" lon="-0.7121">
        <ele>857.4</ele>
        <time>2022-10-15 10:40:09</time>
      </trkpt>
      <trkpt lat="38.65742" lon="-0.71212">
        <ele>857.4</ele>
        <time>2022-10-15 10:40:10</time>
      </trkpt>
      <trkpt lat="38.6574" lon="-0.71215">
        <ele>857.6</ele>
        <time>2022-10-15 10:40:11</time>
      </trkpt>
      <trkpt lat="38.65738" lon="-0.71217">
        <ele>857.6</ele>
        <time>2022-10-15 10:40:12</time>
      </trkpt>
      <trkpt lat="38.65736" lon="-0.7122">
        <ele>857.6</ele>
        <time>2022-10-15 10:40:13</time>
      </trkpt>
      <trkpt lat="38.65733" lon="-0.71223">
        <ele>857.6</ele>
        <time>2022-10-15 10:40:14</time>
      </trkpt>
      <trkpt lat="38.65728" lon="-0.7123">
        <ele>857.6</ele>
        <time>2022-10-15 10:40:16</time>
      </trkpt>
      <trkpt lat="38.65726" lon="-0.71233">
        <ele>857.6</ele>
        <time>2022-10-15 10:40:17</time>
      </trkpt>
      <trkpt lat="38.65723" lon="-0.71237">
        <ele>857.6</ele>
        <time>2022-10-15 10:40:18</time>
      </trkpt>
      <trkpt lat="38.6572" lon="-0.71241">
        <ele>857.6</ele>
        <time>2022-10-15 10:40:19</time>
      </trkpt>
      <trkpt lat="38.65716" lon="-0.71245">
        <ele>857.4</ele>
        <time>2022-10-15 10:40:20</time>
      </trkpt>
      <trkpt lat="38.65713" lon="-0.71249">
        <ele>857.2</ele>
        <time>2022-10-15 10:40:21</time>
      </trkpt>
      <trkpt lat="38.65709" lon="-0.71254">
        <ele>857</ele>
        <time>2022-10-15 10:40:22</time>
      </trkpt>
      <trkpt lat="38.65705" lon="-0.71259">
        <ele>856.8</ele>
        <time>2022-10-15 10:40:23</time>
      </trkpt>
      <trkpt lat="38.65701" lon="-0.71265">
        <ele>856.6</ele>
        <time>2022-10-15 10:40:24</time>
      </trkpt>
      <trkpt lat="38.65697" lon="-0.71271">
        <ele>856.2</ele>
        <time>2022-10-15 10:40:25</time>
      </trkpt>
      <trkpt lat="38.65693" lon="-0.71277">
        <ele>856</ele>
        <time>2022-10-15 10:40:26</time>
      </trkpt>
      <trkpt lat="38.65689" lon="-0.71283">
        <ele>855.4</ele>
        <time>2022-10-15 10:40:27</time>
      </trkpt>
      <trkpt lat="38.65686" lon="-0.71289">
        <ele>855</ele>
        <time>2022-10-15 10:40:28</time>
      </trkpt>
      <trkpt lat="38.65682" lon="-0.71296">
        <ele>854.4</ele>
        <time>2022-10-15 10:40:29</time>
      </trkpt>
      <trkpt lat="38.65678" lon="-0.71302">
        <ele>854</ele>
        <time>2022-10-15 10:40:30</time>
      </trkpt>
      <trkpt lat="38.65675" lon="-0.71309">
        <ele>853.6</ele>
        <time>2022-10-15 10:40:31</time>
      </trkpt>
      <trkpt lat="38.65671" lon="-0.71316">
        <ele>853</ele>
        <time>2022-10-15 10:40:32</time>
      </trkpt>
      <trkpt lat="38.65667" lon="-0.71323">
        <ele>852.2</ele>
        <time>2022-10-15 10:40:33</time>
      </trkpt>
      <trkpt lat="38.65663" lon="-0.7133">
        <ele>851.6</ele>
        <time>2022-10-15 10:40:34</time>
      </trkpt>
      <trkpt lat="38.6566" lon="-0.71337">
        <ele>851.2</ele>
        <time>2022-10-15 10:40:35</time>
      </trkpt>
      <trkpt lat="38.65656" lon="-0.71344">
        <ele>850.8</ele>
        <time>2022-10-15 10:40:36</time>
      </trkpt>
      <trkpt lat="38.65652" lon="-0.71351">
        <ele>850.6</ele>
        <time>2022-10-15 10:40:37</time>
      </trkpt>
      <trkpt lat="38.65648" lon="-0.71358">
        <ele>850.4</ele>
        <time>2022-10-15 10:40:38</time>
      </trkpt>
      <trkpt lat="38.65644" lon="-0.71366">
        <ele>850</ele>
        <time>2022-10-15 10:40:39</time>
      </trkpt>
      <trkpt lat="38.6564" lon="-0.71374">
        <ele>849.8</ele>
        <time>2022-10-15 10:40:40</time>
      </trkpt>
      <trkpt lat="38.65637" lon="-0.71383">
        <ele>849.4</ele>
        <time>2022-10-15 10:40:41</time>
      </trkpt>
      <trkpt lat="38.65635" lon="-0.71392">
        <ele>849</ele>
        <time>2022-10-15 10:40:42</time>
      </trkpt>
      <trkpt lat="38.65634" lon="-0.71403">
        <ele>848.8</ele>
        <time>2022-10-15 10:40:43</time>
      </trkpt>
      <trkpt lat="38.65634" lon="-0.71414">
        <ele>848.4</ele>
        <time>2022-10-15 10:40:44</time>
      </trkpt>
      <trkpt lat="38.65634" lon="-0.71426">
        <ele>848</ele>
        <time>2022-10-15 10:40:45</time>
      </trkpt>
      <trkpt lat="38.65634" lon="-0.71437">
        <ele>847.6</ele>
        <time>2022-10-15 10:40:46</time>
      </trkpt>
      <trkpt lat="38.65633" lon="-0.71449">
        <ele>847</ele>
        <time>2022-10-15 10:40:47</time>
      </trkpt>
      <trkpt lat="38.6563" lon="-0.71461">
        <ele>846</ele>
        <time>2022-10-15 10:40:48</time>
      </trkpt>
      <trkpt lat="38.65627" lon="-0.71472">
        <ele>845</ele>
        <time>2022-10-15 10:40:49</time>
      </trkpt>
      <trkpt lat="38.65622" lon="-0.71483">
        <ele>844</ele>
        <time>2022-10-15 10:40:50</time>
      </trkpt>
      <trkpt lat="38.65617" lon="-0.71494">
        <ele>843.4</ele>
        <time>2022-10-15 10:40:51</time>
      </trkpt>
      <trkpt lat="38.65612" lon="-0.71505">
        <ele>841.4</ele>
        <time>2022-10-15 10:40:52</time>
      </trkpt>
      <trkpt lat="38.65607" lon="-0.71516">
        <ele>840.4</ele>
        <time>2022-10-15 10:40:53</time>
      </trkpt>
      <trkpt lat="38.65602" lon="-0.71527">
        <ele>839.4</ele>
        <time>2022-10-15 10:40:54</time>
      </trkpt>
      <trkpt lat="38.65598" lon="-0.71537">
        <ele>838.2</ele>
        <time>2022-10-15 10:40:55</time>
      </trkpt>
      <trkpt lat="38.65593" lon="-0.71548">
        <ele>837.4</ele>
        <time>2022-10-15 10:40:56</time>
      </trkpt>
      <trkpt lat="38.65589" lon="-0.71558">
        <ele>836.6</ele>
        <time>2022-10-15 10:40:57</time>
      </trkpt>
      <trkpt lat="38.65584" lon="-0.71568">
        <ele>835.6</ele>
        <time>2022-10-15 10:40:58</time>
      </trkpt>
      <trkpt lat="38.65579" lon="-0.71578">
        <ele>835</ele>
        <time>2022-10-15 10:40:59</time>
      </trkpt>
      <trkpt lat="38.65575" lon="-0.71588">
        <ele>834.4</ele>
        <time>2022-10-15 10:41:00</time>
      </trkpt>
      <trkpt lat="38.6557" lon="-0.71597">
        <ele>833.6</ele>
        <time>2022-10-15 10:41:01</time>
      </trkpt>
      <trkpt lat="38.65565" lon="-0.71606">
        <ele>833</ele>
        <time>2022-10-15 10:41:02</time>
      </trkpt>
      <trkpt lat="38.6556" lon="-0.71615">
        <ele>832.6</ele>
        <time>2022-10-15 10:41:03</time>
      </trkpt>
      <trkpt lat="38.65555" lon="-0.71625">
        <ele>832.4</ele>
        <time>2022-10-15 10:41:04</time>
      </trkpt>
      <trkpt lat="38.65551" lon="-0.71634">
        <ele>832.2</ele>
        <time>2022-10-15 10:41:05</time>
      </trkpt>
      <trkpt lat="38.65548" lon="-0.71644">
        <ele>832</ele>
        <time>2022-10-15 10:41:06</time>
      </trkpt>
      <trkpt lat="38.65546" lon="-0.71653">
        <ele>831.8</ele>
        <time>2022-10-15 10:41:07</time>
      </trkpt>
      <trkpt lat="38.65544" lon="-0.71663">
        <ele>831.6</ele>
        <time>2022-10-15 10:41:08</time>
      </trkpt>
      <trkpt lat="38.65542" lon="-0.71672">
        <ele>831.4</ele>
        <time>2022-10-15 10:41:09</time>
      </trkpt>
      <trkpt lat="38.6554" lon="-0.71681">
        <ele>831.4</ele>
        <time>2022-10-15 10:41:10</time>
      </trkpt>
      <trkpt lat="38.65539" lon="-0.7169">
        <ele>831.4</ele>
        <time>2022-10-15 10:41:11</time>
      </trkpt>
      <trkpt lat="38.65537" lon="-0.71699">
        <ele>831.4</ele>
        <time>2022-10-15 10:41:12</time>
      </trkpt>
      <trkpt lat="38.65536" lon="-0.71707">
        <ele>831.4</ele>
        <time>2022-10-15 10:41:13</time>
      </trkpt>
      <trkpt lat="38.65534" lon="-0.71715">
        <ele>831.4</ele>
        <time>2022-10-15 10:41:14</time>
      </trkpt>
      <trkpt lat="38.65533" lon="-0.71723">
        <ele>831.4</ele>
        <time>2022-10-15 10:41:15</time>
      </trkpt>
      <trkpt lat="38.65531" lon="-0.71731">
        <ele>831.4</ele>
        <time>2022-10-15 10:41:16</time>
      </trkpt>
      <trkpt lat="38.65529" lon="-0.71738">
        <ele>831.4</ele>
        <time>2022-10-15 10:41:17</time>
      </trkpt>
      <trkpt lat="38.65527" lon="-0.71745">
        <ele>831.4</ele>
        <time>2022-10-15 10:41:18</time>
      </trkpt>
      <trkpt lat="38.65526" lon="-0.71751">
        <ele>831.4</ele>
        <time>2022-10-15 10:41:19</time>
      </trkpt>
      <trkpt lat="38.65524" lon="-0.71757">
        <ele>831.4</ele>
        <time>2022-10-15 10:41:20</time>
      </trkpt>
      <trkpt lat="38.65522" lon="-0.71764">
        <ele>831.6</ele>
        <time>2022-10-15 10:41:21</time>
      </trkpt>
      <trkpt lat="38.65521" lon="-0.7177">
        <ele>831.6</ele>
        <time>2022-10-15 10:41:22</time>
      </trkpt>
      <trkpt lat="38.65519" lon="-0.71775">
        <ele>831.8</ele>
        <time>2022-10-15 10:41:23</time>
      </trkpt>
      <trkpt lat="38.65518" lon="-0.71781">
        <ele>832</ele>
        <time>2022-10-15 10:41:24</time>
      </trkpt>
      <trkpt lat="38.65516" lon="-0.71787">
        <ele>832.2</ele>
        <time>2022-10-15 10:41:25</time>
      </trkpt>
      <trkpt lat="38.65515" lon="-0.71792">
        <ele>832.6</ele>
        <time>2022-10-15 10:41:26</time>
      </trkpt>
      <trkpt lat="38.65513" lon="-0.71798">
        <ele>833</ele>
        <time>2022-10-15 10:41:27</time>
      </trkpt>
      <trkpt lat="38.65512" lon="-0.71804">
        <ele>833.2</ele>
        <time>2022-10-15 10:41:28</time>
      </trkpt>
      <trkpt lat="38.65511" lon="-0.71809">
        <ele>833.4</ele>
        <time>2022-10-15 10:41:29</time>
      </trkpt>
      <trkpt lat="38.6551" lon="-0.71815">
        <ele>833.6</ele>
        <time>2022-10-15 10:41:30</time>
      </trkpt>
      <trkpt lat="38.65509" lon="-0.71822">
        <ele>833.8</ele>
        <time>2022-10-15 10:41:31</time>
      </trkpt>
      <trkpt lat="38.65507" lon="-0.71828">
        <ele>833.8</ele>
        <time>2022-10-15 10:41:32</time>
      </trkpt>
      <trkpt lat="38.65505" lon="-0.71834">
        <ele>833.8</ele>
        <time>2022-10-15 10:41:33</time>
      </trkpt>
      <trkpt lat="38.65503" lon="-0.7184">
        <ele>833.8</ele>
        <time>2022-10-15 10:41:34</time>
      </trkpt>
      <trkpt lat="38.655" lon="-0.71845">
        <ele>833.8</ele>
        <time>2022-10-15 10:41:35</time>
      </trkpt>
      <trkpt lat="38.65497" lon="-0.71851">
        <ele>833.8</ele>
        <time>2022-10-15 10:41:36</time>
      </trkpt>
      <trkpt lat="38.65494" lon="-0.71855">
        <ele>833.8</ele>
        <time>2022-10-15 10:41:37</time>
      </trkpt>
      <trkpt lat="38.6549" lon="-0.71859">
        <ele>833.8</ele>
        <time>2022-10-15 10:41:38</time>
      </trkpt>
      <trkpt lat="38.65486" lon="-0.71862">
        <ele>833.8</ele>
        <time>2022-10-15 10:41:39</time>
      </trkpt>
      <trkpt lat="38.65482" lon="-0.71864">
        <ele>833.8</ele>
        <time>2022-10-15 10:41:40</time>
      </trkpt>
      <trkpt lat="38.65477" lon="-0.71867">
        <ele>833.8</ele>
        <time>2022-10-15 10:41:41</time>
      </trkpt>
      <trkpt lat="38.65474" lon="-0.71869">
        <ele>833.6</ele>
        <time>2022-10-15 10:41:42</time>
      </trkpt>
      <trkpt lat="38.65466" lon="-0.71874">
        <ele>833.4</ele>
        <time>2022-10-15 10:41:43</time>
      </trkpt>
      <trkpt lat="38.65466" lon="-0.71874">
        <ele>833.2</ele>
        <time>2022-10-15 10:41:44</time>
      </trkpt>
      <trkpt lat="38.65462" lon="-0.71877">
        <ele>833</ele>
        <time>2022-10-15 10:41:45</time>
      </trkpt>
      <trkpt lat="38.65459" lon="-0.7188">
        <ele>832.8</ele>
        <time>2022-10-15 10:41:46</time>
      </trkpt>
      <trkpt lat="38.65455" lon="-0.71883">
        <ele>832.8</ele>
        <time>2022-10-15 10:41:47</time>
      </trkpt>
      <trkpt lat="38.65448" lon="-0.71888">
        <ele>832.8</ele>
        <time>2022-10-15 10:41:48</time>
      </trkpt>
      <trkpt lat="38.65448" lon="-0.71888">
        <ele>832.8</ele>
        <time>2022-10-15 10:41:49</time>
      </trkpt>
      <trkpt lat="38.65444" lon="-0.71889">
        <ele>832.8</ele>
        <time>2022-10-15 10:41:50</time>
      </trkpt>
      <trkpt lat="38.6544" lon="-0.71891">
        <ele>832.8</ele>
        <time>2022-10-15 10:41:51</time>
      </trkpt>
      <trkpt lat="38.65437" lon="-0.71894">
        <ele>832.8</ele>
        <time>2022-10-15 10:41:52</time>
      </trkpt>
      <trkpt lat="38.65433" lon="-0.71896">
        <ele>833</ele>
        <time>2022-10-15 10:41:53</time>
      </trkpt>
      <trkpt lat="38.65426" lon="-0.71901">
        <ele>833.2</ele>
        <time>2022-10-15 10:41:54</time>
      </trkpt>
      <trkpt lat="38.65423" lon="-0.71903">
        <ele>833</ele>
        <time>2022-10-15 10:41:55</time>
      </trkpt>
      <trkpt lat="38.65423" lon="-0.71903">
        <ele>833.2</ele>
        <time>2022-10-15 10:41:56</time>
      </trkpt>
      <trkpt lat="38.65415" lon="-0.71908">
        <ele>833.2</ele>
        <time>2022-10-15 10:41:57</time>
      </trkpt>
      <trkpt lat="38.65412" lon="-0.71911">
        <ele>833.2</ele>
        <time>2022-10-15 10:41:58</time>
      </trkpt>
      <trkpt lat="38.65408" lon="-0.71913">
        <ele>833.2</ele>
        <time>2022-10-15 10:41:59</time>
      </trkpt>
      <trkpt lat="38.65404" lon="-0.71916">
        <ele>833.4</ele>
        <time>2022-10-15 10:42:00</time>
      </trkpt>
      <trkpt lat="38.65401" lon="-0.71918">
        <ele>833.4</ele>
        <time>2022-10-15 10:42:01</time>
      </trkpt>
      <trkpt lat="38.65401" lon="-0.71918">
        <ele>833.4</ele>
        <time>2022-10-15 10:42:02</time>
      </trkpt>
      <trkpt lat="38.65395" lon="-0.71923">
        <ele>833.6</ele>
        <time>2022-10-15 10:42:03</time>
      </trkpt>
      <trkpt lat="38.65392" lon="-0.71925">
        <ele>833.8</ele>
        <time>2022-10-15 10:42:04</time>
      </trkpt>
      <trkpt lat="38.65389" lon="-0.71927">
        <ele>833.8</ele>
        <time>2022-10-15 10:42:05</time>
      </trkpt>
      <trkpt lat="38.65387" lon="-0.71929">
        <ele>833.8</ele>
        <time>2022-10-15 10:42:06</time>
      </trkpt>
      <trkpt lat="38.65384" lon="-0.7193">
        <ele>834</ele>
        <time>2022-10-15 10:42:07</time>
      </trkpt>
      <trkpt lat="38.65384" lon="-0.7193">
        <ele>834</ele>
        <time>2022-10-15 10:42:08</time>
      </trkpt>
      <trkpt lat="38.65379" lon="-0.71934">
        <ele>834.2</ele>
        <time>2022-10-15 10:42:09</time>
      </trkpt>
      <trkpt lat="38.65379" lon="-0.71934">
        <ele>834.4</ele>
        <time>2022-10-15 10:42:10</time>
      </trkpt>
      <trkpt lat="38.65374" lon="-0.71938">
        <ele>834.6</ele>
        <time>2022-10-15 10:42:11</time>
      </trkpt>
      <trkpt lat="38.65371" lon="-0.71939">
        <ele>835</ele>
        <time>2022-10-15 10:42:12</time>
      </trkpt>
      <trkpt lat="38.65369" lon="-0.71941">
        <ele>835.4</ele>
        <time>2022-10-15 10:42:13</time>
      </trkpt>
      <trkpt lat="38.65369" lon="-0.71941">
        <ele>835.4</ele>
        <time>2022-10-15 10:42:14</time>
      </trkpt>
      <trkpt lat="38.65366" lon="-0.71943">
        <ele>835.4</ele>
        <time>2022-10-15 10:42:15</time>
      </trkpt>
      <trkpt lat="38.65361" lon="-0.71947">
        <ele>835.6</ele>
        <time>2022-10-15 10:42:16</time>
      </trkpt>
      <trkpt lat="38.65359" lon="-0.71949">
        <ele>835.8</ele>
        <time>2022-10-15 10:42:17</time>
      </trkpt>
      <trkpt lat="38.65356" lon="-0.7195">
        <ele>835.8</ele>
        <time>2022-10-15 10:42:18</time>
      </trkpt>
      <trkpt lat="38.65353" lon="-0.71952">
        <ele>836</ele>
        <time>2022-10-15 10:42:19</time>
      </trkpt>
      <trkpt lat="38.65353" lon="-0.71952">
        <ele>836.2</ele>
        <time>2022-10-15 10:42:20</time>
      </trkpt>
      <trkpt lat="38.65348" lon="-0.71957">
        <ele>836.2</ele>
        <time>2022-10-15 10:42:21</time>
      </trkpt>
      <trkpt lat="38.65345" lon="-0.7196">
        <ele>836.4</ele>
        <time>2022-10-15 10:42:22</time>
      </trkpt>
      <trkpt lat="38.65345" lon="-0.7196">
        <ele>836.6</ele>
        <time>2022-10-15 10:42:23</time>
      </trkpt>
      <trkpt lat="38.65343" lon="-0.71963">
        <ele>836.6</ele>
        <time>2022-10-15 10:42:24</time>
      </trkpt>
      <trkpt lat="38.6534" lon="-0.71966">
        <ele>836.6</ele>
        <time>2022-10-15 10:42:25</time>
      </trkpt>
      <trkpt lat="38.65337" lon="-0.71969">
        <ele>836.6</ele>
        <time>2022-10-15 10:42:26</time>
      </trkpt>
      <trkpt lat="38.65334" lon="-0.71973">
        <ele>836.6</ele>
        <time>2022-10-15 10:42:27</time>
      </trkpt>
      <trkpt lat="38.6533" lon="-0.71976">
        <ele>836.6</ele>
        <time>2022-10-15 10:42:28</time>
      </trkpt>
      <trkpt lat="38.65327" lon="-0.7198">
        <ele>836.6</ele>
        <time>2022-10-15 10:42:29</time>
      </trkpt>
      <trkpt lat="38.65324" lon="-0.71985">
        <ele>836.6</ele>
        <time>2022-10-15 10:42:30</time>
      </trkpt>
      <trkpt lat="38.65321" lon="-0.71989">
        <ele>836.6</ele>
        <time>2022-10-15 10:42:31</time>
      </trkpt>
      <trkpt lat="38.65317" lon="-0.71994">
        <ele>836.6</ele>
        <time>2022-10-15 10:42:32</time>
      </trkpt>
      <trkpt lat="38.65313" lon="-0.71999">
        <ele>836.6</ele>
        <time>2022-10-15 10:42:33</time>
      </trkpt>
      <trkpt lat="38.65309" lon="-0.72004">
        <ele>836.6</ele>
        <time>2022-10-15 10:42:34</time>
      </trkpt>
      <trkpt lat="38.65305" lon="-0.7201">
        <ele>836.4</ele>
        <time>2022-10-15 10:42:35</time>
      </trkpt>
      <trkpt lat="38.65301" lon="-0.72016">
        <ele>836</ele>
        <time>2022-10-15 10:42:36</time>
      </trkpt>
      <trkpt lat="38.65297" lon="-0.72022">
        <ele>835.6</ele>
        <time>2022-10-15 10:42:37</time>
      </trkpt>
      <trkpt lat="38.65292" lon="-0.72028">
        <ele>835.4</ele>
        <time>2022-10-15 10:42:38</time>
      </trkpt>
      <trkpt lat="38.65288" lon="-0.72034">
        <ele>835</ele>
        <time>2022-10-15 10:42:39</time>
      </trkpt>
      <trkpt lat="38.65283" lon="-0.7204">
        <ele>834.4</ele>
        <time>2022-10-15 10:42:40</time>
      </trkpt>
      <trkpt lat="38.65278" lon="-0.72047">
        <ele>833.2</ele>
        <time>2022-10-15 10:42:41</time>
      </trkpt>
      <trkpt lat="38.65273" lon="-0.72054">
        <ele>832.6</ele>
        <time>2022-10-15 10:42:42</time>
      </trkpt>
      <trkpt lat="38.65268" lon="-0.72061">
        <ele>832</ele>
        <time>2022-10-15 10:42:43</time>
      </trkpt>
      <trkpt lat="38.65262" lon="-0.72068">
        <ele>831.4</ele>
        <time>2022-10-15 10:42:44</time>
      </trkpt>
      <trkpt lat="38.65256" lon="-0.72075">
        <ele>830.8</ele>
        <time>2022-10-15 10:42:45</time>
      </trkpt>
      <trkpt lat="38.6525" lon="-0.72083">
        <ele>830.2</ele>
        <time>2022-10-15 10:42:46</time>
      </trkpt>
      <trkpt lat="38.65244" lon="-0.7209">
        <ele>829.6</ele>
        <time>2022-10-15 10:42:47</time>
      </trkpt>
      <trkpt lat="38.65237" lon="-0.72098">
        <ele>828.8</ele>
        <time>2022-10-15 10:42:48</time>
      </trkpt>
      <trkpt lat="38.65231" lon="-0.72107">
        <ele>828.2</ele>
        <time>2022-10-15 10:42:49</time>
      </trkpt>
      <trkpt lat="38.65224" lon="-0.72115">
        <ele>827.8</ele>
        <time>2022-10-15 10:42:50</time>
      </trkpt>
      <trkpt lat="38.65218" lon="-0.72124">
        <ele>827.2</ele>
        <time>2022-10-15 10:42:51</time>
      </trkpt>
      <trkpt lat="38.65212" lon="-0.72132">
        <ele>826.2</ele>
        <time>2022-10-15 10:42:52</time>
      </trkpt>
      <trkpt lat="38.65206" lon="-0.7214">
        <ele>825.4</ele>
        <time>2022-10-15 10:42:53</time>
      </trkpt>
      <trkpt lat="38.65199" lon="-0.72148">
        <ele>824.4</ele>
        <time>2022-10-15 10:42:54</time>
      </trkpt>
      <trkpt lat="38.65193" lon="-0.72155">
        <ele>823.2</ele>
        <time>2022-10-15 10:42:55</time>
      </trkpt>
      <trkpt lat="38.65187" lon="-0.72161">
        <ele>822.4</ele>
        <time>2022-10-15 10:42:56</time>
      </trkpt>
      <trkpt lat="38.65182" lon="-0.72167">
        <ele>822</ele>
        <time>2022-10-15 10:42:57</time>
      </trkpt>
      <trkpt lat="38.65177" lon="-0.72173">
        <ele>821.8</ele>
        <time>2022-10-15 10:42:58</time>
      </trkpt>
      <trkpt lat="38.65172" lon="-0.72179">
        <ele>821.8</ele>
        <time>2022-10-15 10:42:59</time>
      </trkpt>
      <trkpt lat="38.65168" lon="-0.72185">
        <ele>821.8</ele>
        <time>2022-10-15 10:43:00</time>
      </trkpt>
      <trkpt lat="38.65164" lon="-0.72191">
        <ele>821.6</ele>
        <time>2022-10-15 10:43:01</time>
      </trkpt>
      <trkpt lat="38.6516" lon="-0.72197">
        <ele>821.6</ele>
        <time>2022-10-15 10:43:02</time>
      </trkpt>
      <trkpt lat="38.65155" lon="-0.72202">
        <ele>821.6</ele>
        <time>2022-10-15 10:43:03</time>
      </trkpt>
      <trkpt lat="38.65151" lon="-0.72208">
        <ele>821.4</ele>
        <time>2022-10-15 10:43:04</time>
      </trkpt>
      <trkpt lat="38.65147" lon="-0.72213">
        <ele>821.4</ele>
        <time>2022-10-15 10:43:05</time>
      </trkpt>
      <trkpt lat="38.65144" lon="-0.72219">
        <ele>821.4</ele>
        <time>2022-10-15 10:43:06</time>
      </trkpt>
      <trkpt lat="38.6514" lon="-0.72224">
        <ele>821.8</ele>
        <time>2022-10-15 10:43:07</time>
      </trkpt>
      <trkpt lat="38.65136" lon="-0.7223">
        <ele>821.6</ele>
        <time>2022-10-15 10:43:08</time>
      </trkpt>
      <trkpt lat="38.65133" lon="-0.72235">
        <ele>822</ele>
        <time>2022-10-15 10:43:09</time>
      </trkpt>
      <trkpt lat="38.65129" lon="-0.7224">
        <ele>822.2</ele>
        <time>2022-10-15 10:43:10</time>
      </trkpt>
      <trkpt lat="38.65126" lon="-0.72245">
        <ele>822.2</ele>
        <time>2022-10-15 10:43:11</time>
      </trkpt>
      <trkpt lat="38.65122" lon="-0.72248">
        <ele>822.4</ele>
        <time>2022-10-15 10:43:12</time>
      </trkpt>
      <trkpt lat="38.65118" lon="-0.72251">
        <ele>822.4</ele>
        <time>2022-10-15 10:43:13</time>
      </trkpt>
      <trkpt lat="38.65115" lon="-0.72254">
        <ele>822.4</ele>
        <time>2022-10-15 10:43:14</time>
      </trkpt>
      <trkpt lat="38.65111" lon="-0.72256">
        <ele>822.2</ele>
        <time>2022-10-15 10:43:15</time>
      </trkpt>
      <trkpt lat="38.65108" lon="-0.72258">
        <ele>822.4</ele>
        <time>2022-10-15 10:43:16</time>
      </trkpt>
      <trkpt lat="38.65105" lon="-0.72261">
        <ele>822.4</ele>
        <time>2022-10-15 10:43:17</time>
      </trkpt>
      <trkpt lat="38.65102" lon="-0.72264">
        <ele>822.4</ele>
        <time>2022-10-15 10:43:18</time>
      </trkpt>
      <trkpt lat="38.65099" lon="-0.72266">
        <ele>822.4</ele>
        <time>2022-10-15 10:43:19</time>
      </trkpt>
      <trkpt lat="38.65096" lon="-0.72269">
        <ele>822.6</ele>
        <time>2022-10-15 10:43:20</time>
      </trkpt>
      <trkpt lat="38.65094" lon="-0.72271">
        <ele>822.8</ele>
        <time>2022-10-15 10:43:21</time>
      </trkpt>
      <trkpt lat="38.65091" lon="-0.72273">
        <ele>823.2</ele>
        <time>2022-10-15 10:43:22</time>
      </trkpt>
      <trkpt lat="38.65089" lon="-0.72274">
        <ele>823.4</ele>
        <time>2022-10-15 10:43:23</time>
      </trkpt>
      <trkpt lat="38.65086" lon="-0.72276">
        <ele>823.8</ele>
        <time>2022-10-15 10:43:24</time>
      </trkpt>
      <trkpt lat="38.65084" lon="-0.72278">
        <ele>824</ele>
        <time>2022-10-15 10:43:25</time>
      </trkpt>
      <trkpt lat="38.65082" lon="-0.72279">
        <ele>824.2</ele>
        <time>2022-10-15 10:43:26</time>
      </trkpt>
      <trkpt lat="38.65077" lon="-0.72281">
        <ele>824.6</ele>
        <time>2022-10-15 10:43:27</time>
      </trkpt>
      <trkpt lat="38.65077" lon="-0.72281">
        <ele>824.6</ele>
        <time>2022-10-15 10:43:28</time>
      </trkpt>
      <trkpt lat="38.65075" lon="-0.72283">
        <ele>824.8</ele>
        <time>2022-10-15 10:43:29</time>
      </trkpt>
      <trkpt lat="38.65073" lon="-0.72284">
        <ele>824.8</ele>
        <time>2022-10-15 10:43:30</time>
      </trkpt>
      <trkpt lat="38.65071" lon="-0.72285">
        <ele>825</ele>
        <time>2022-10-15 10:43:31</time>
      </trkpt>
      <trkpt lat="38.65068" lon="-0.72286">
        <ele>825.2</ele>
        <time>2022-10-15 10:43:32</time>
      </trkpt>
      <trkpt lat="38.65066" lon="-0.72287">
        <ele>825.4</ele>
        <time>2022-10-15 10:43:33</time>
      </trkpt>
      <trkpt lat="38.65064" lon="-0.72289">
        <ele>825.6</ele>
        <time>2022-10-15 10:43:34</time>
      </trkpt>
      <trkpt lat="38.65062" lon="-0.7229">
        <ele>826</ele>
        <time>2022-10-15 10:43:35</time>
      </trkpt>
      <trkpt lat="38.65059" lon="-0.72291">
        <ele>826.6</ele>
        <time>2022-10-15 10:43:36</time>
      </trkpt>
      <trkpt lat="38.65057" lon="-0.72293">
        <ele>826.8</ele>
        <time>2022-10-15 10:43:37</time>
      </trkpt>
      <trkpt lat="38.65054" lon="-0.72294">
        <ele>827</ele>
        <time>2022-10-15 10:43:38</time>
      </trkpt>
      <trkpt lat="38.65051" lon="-0.72296">
        <ele>827.2</ele>
        <time>2022-10-15 10:43:39</time>
      </trkpt>
      <trkpt lat="38.65046" lon="-0.723">
        <ele>827.4</ele>
        <time>2022-10-15 10:43:40</time>
      </trkpt>
      <trkpt lat="38.65044" lon="-0.72302">
        <ele>827.4</ele>
        <time>2022-10-15 10:43:41</time>
      </trkpt>
      <trkpt lat="38.65044" lon="-0.72302">
        <ele>827.6</ele>
        <time>2022-10-15 10:43:42</time>
      </trkpt>
      <trkpt lat="38.65039" lon="-0.72307">
        <ele>827.6</ele>
        <time>2022-10-15 10:43:43</time>
      </trkpt>
      <trkpt lat="38.65039" lon="-0.72307">
        <ele>827.6</ele>
        <time>2022-10-15 10:43:44</time>
      </trkpt>
      <trkpt lat="38.65037" lon="-0.72309">
        <ele>827.6</ele>
        <time>2022-10-15 10:43:45</time>
      </trkpt>
      <trkpt lat="38.65035" lon="-0.72312">
        <ele>827.6</ele>
        <time>2022-10-15 10:43:46</time>
      </trkpt>
      <trkpt lat="38.65033" lon="-0.72314">
        <ele>827.6</ele>
        <time>2022-10-15 10:43:47</time>
      </trkpt>
      <trkpt lat="38.65029" lon="-0.72319">
        <ele>827.8</ele>
        <time>2022-10-15 10:43:48</time>
      </trkpt>
      <trkpt lat="38.65028" lon="-0.72321">
        <ele>828</ele>
        <time>2022-10-15 10:43:49</time>
      </trkpt>
      <trkpt lat="38.65028" lon="-0.72321">
        <ele>828</ele>
        <time>2022-10-15 10:43:50</time>
      </trkpt>
      <trkpt lat="38.65024" lon="-0.72326">
        <ele>828.2</ele>
        <time>2022-10-15 10:43:51</time>
      </trkpt>
      <trkpt lat="38.65023" lon="-0.72329">
        <ele>828.4</ele>
        <time>2022-10-15 10:43:52</time>
      </trkpt>
      <trkpt lat="38.65023" lon="-0.72329">
        <ele>828.6</ele>
        <time>2022-10-15 10:43:53</time>
      </trkpt>
      <trkpt lat="38.6502" lon="-0.72334">
        <ele>828.8</ele>
        <time>2022-10-15 10:43:54</time>
      </trkpt>
      <trkpt lat="38.65018" lon="-0.72337">
        <ele>828.8</ele>
        <time>2022-10-15 10:43:55</time>
      </trkpt>
      <trkpt lat="38.65018" lon="-0.72337">
        <ele>829</ele>
        <time>2022-10-15 10:43:56</time>
      </trkpt>
      <trkpt lat="38.65016" lon="-0.72342">
        <ele>829.4</ele>
        <time>2022-10-15 10:43:57</time>
      </trkpt>
      <trkpt lat="38.65016" lon="-0.72342">
        <ele>829.4</ele>
        <time>2022-10-15 10:43:58</time>
      </trkpt>
      <trkpt lat="38.65014" lon="-0.72348">
        <ele>829.6</ele>
        <time>2022-10-15 10:43:59</time>
      </trkpt>
      <trkpt lat="38.65012" lon="-0.72351">
        <ele>829.8</ele>
        <time>2022-10-15 10:44:00</time>
      </trkpt>
      <trkpt lat="38.65011" lon="-0.72355">
        <ele>830.2</ele>
        <time>2022-10-15 10:44:01</time>
      </trkpt>
      <trkpt lat="38.65011" lon="-0.72355">
        <ele>830</ele>
        <time>2022-10-15 10:44:02</time>
      </trkpt>
      <trkpt lat="38.65009" lon="-0.72363">
        <ele>830.2</ele>
        <time>2022-10-15 10:44:03</time>
      </trkpt>
      <trkpt lat="38.65009" lon="-0.72363">
        <ele>830.2</ele>
        <time>2022-10-15 10:44:04</time>
      </trkpt>
      <trkpt lat="38.65009" lon="-0.72368">
        <ele>830.2</ele>
        <time>2022-10-15 10:44:05</time>
      </trkpt>
      <trkpt lat="38.65009" lon="-0.72374">
        <ele>830.2</ele>
        <time>2022-10-15 10:44:06</time>
      </trkpt>
      <trkpt lat="38.6501" lon="-0.7238">
        <ele>830.2</ele>
        <time>2022-10-15 10:44:07</time>
      </trkpt>
      <trkpt lat="38.65011" lon="-0.72387">
        <ele>830.2</ele>
        <time>2022-10-15 10:44:08</time>
      </trkpt>
      <trkpt lat="38.65013" lon="-0.72394">
        <ele>830.2</ele>
        <time>2022-10-15 10:44:09</time>
      </trkpt>
      <trkpt lat="38.65014" lon="-0.72402">
        <ele>830.2</ele>
        <time>2022-10-15 10:44:10</time>
      </trkpt>
      <trkpt lat="38.65013" lon="-0.7241">
        <ele>830</ele>
        <time>2022-10-15 10:44:11</time>
      </trkpt>
      <trkpt lat="38.65011" lon="-0.72418">
        <ele>829.8</ele>
        <time>2022-10-15 10:44:12</time>
      </trkpt>
      <trkpt lat="38.65007" lon="-0.72424">
        <ele>829.6</ele>
        <time>2022-10-15 10:44:13</time>
      </trkpt>
      <trkpt lat="38.65003" lon="-0.72428">
        <ele>829.2</ele>
        <time>2022-10-15 10:44:14</time>
      </trkpt>
      <trkpt lat="38.64998" lon="-0.72432">
        <ele>828.6</ele>
        <time>2022-10-15 10:44:15</time>
      </trkpt>
      <trkpt lat="38.64994" lon="-0.72434">
        <ele>828.2</ele>
        <time>2022-10-15 10:44:16</time>
      </trkpt>
      <trkpt lat="38.6499" lon="-0.72436">
        <ele>828</ele>
        <time>2022-10-15 10:44:17</time>
      </trkpt>
      <trkpt lat="38.64987" lon="-0.72437">
        <ele>827.8</ele>
        <time>2022-10-15 10:44:18</time>
      </trkpt>
      <trkpt lat="38.64984" lon="-0.72438">
        <ele>827.8</ele>
        <time>2022-10-15 10:44:19</time>
      </trkpt>
      <trkpt lat="38.64981" lon="-0.72439">
        <ele>827.8</ele>
        <time>2022-10-15 10:44:20</time>
      </trkpt>
      <trkpt lat="38.64978" lon="-0.72441">
        <ele>827.8</ele>
        <time>2022-10-15 10:44:21</time>
      </trkpt>
      <trkpt lat="38.64975" lon="-0.72442">
        <ele>827.8</ele>
        <time>2022-10-15 10:44:22</time>
      </trkpt>
      <trkpt lat="38.64973" lon="-0.72444">
        <ele>827.8</ele>
        <time>2022-10-15 10:44:23</time>
      </trkpt>
      <trkpt lat="38.6497" lon="-0.72446">
        <ele>827.8</ele>
        <time>2022-10-15 10:44:24</time>
      </trkpt>
      <trkpt lat="38.64967" lon="-0.72448">
        <ele>827.8</ele>
        <time>2022-10-15 10:44:25</time>
      </trkpt>
      <trkpt lat="38.64964" lon="-0.7245">
        <ele>827.8</ele>
        <time>2022-10-15 10:44:26</time>
      </trkpt>
      <trkpt lat="38.64961" lon="-0.72453">
        <ele>827.8</ele>
        <time>2022-10-15 10:44:27</time>
      </trkpt>
      <trkpt lat="38.64959" lon="-0.72456">
        <ele>827.8</ele>
        <time>2022-10-15 10:44:28</time>
      </trkpt>
      <trkpt lat="38.64956" lon="-0.72458">
        <ele>828</ele>
        <time>2022-10-15 10:44:29</time>
      </trkpt>
      <trkpt lat="38.64954" lon="-0.72461">
        <ele>828</ele>
        <time>2022-10-15 10:44:30</time>
      </trkpt>
      <trkpt lat="38.64952" lon="-0.72465">
        <ele>828.2</ele>
        <time>2022-10-15 10:44:31</time>
      </trkpt>
      <trkpt lat="38.64951" lon="-0.72469">
        <ele>828.2</ele>
        <time>2022-10-15 10:44:32</time>
      </trkpt>
      <trkpt lat="38.6495" lon="-0.72476">
        <ele>828.2</ele>
        <time>2022-10-15 10:44:33</time>
      </trkpt>
      <trkpt lat="38.6495" lon="-0.72476">
        <ele>828.2</ele>
        <time>2022-10-15 10:44:34</time>
      </trkpt>
      <trkpt lat="38.6495" lon="-0.7248">
        <ele>828.4</ele>
        <time>2022-10-15 10:44:35</time>
      </trkpt>
      <trkpt lat="38.64949" lon="-0.72484">
        <ele>828.4</ele>
        <time>2022-10-15 10:44:36</time>
      </trkpt>
      <trkpt lat="38.64949" lon="-0.72488">
        <ele>828.4</ele>
        <time>2022-10-15 10:44:37</time>
      </trkpt>
      <trkpt lat="38.64949" lon="-0.72492">
        <ele>828.6</ele>
        <time>2022-10-15 10:44:38</time>
      </trkpt>
      <trkpt lat="38.64948" lon="-0.72495">
        <ele>828.6</ele>
        <time>2022-10-15 10:44:39</time>
      </trkpt>
      <trkpt lat="38.64948" lon="-0.72499">
        <ele>828.6</ele>
        <time>2022-10-15 10:44:40</time>
      </trkpt>
      <trkpt lat="38.64947" lon="-0.72503">
        <ele>828.6</ele>
        <time>2022-10-15 10:44:41</time>
      </trkpt>
      <trkpt lat="38.64947" lon="-0.72506">
        <ele>829</ele>
        <time>2022-10-15 10:44:42</time>
      </trkpt>
      <trkpt lat="38.64946" lon="-0.72514">
        <ele>829</ele>
        <time>2022-10-15 10:44:43</time>
      </trkpt>
      <trkpt lat="38.64946" lon="-0.72514">
        <ele>829.2</ele>
        <time>2022-10-15 10:44:44</time>
      </trkpt>
      <trkpt lat="38.64945" lon="-0.72519">
        <ele>829</ele>
        <time>2022-10-15 10:44:45</time>
      </trkpt>
      <trkpt lat="38.64944" lon="-0.72523">
        <ele>829.2</ele>
        <time>2022-10-15 10:44:46</time>
      </trkpt>
      <trkpt lat="38.64942" lon="-0.72528">
        <ele>829.2</ele>
        <time>2022-10-15 10:44:47</time>
      </trkpt>
      <trkpt lat="38.6494" lon="-0.72534">
        <ele>829.2</ele>
        <time>2022-10-15 10:44:48</time>
      </trkpt>
      <trkpt lat="38.64937" lon="-0.7254">
        <ele>829.2</ele>
        <time>2022-10-15 10:44:49</time>
      </trkpt>
      <trkpt lat="38.64934" lon="-0.72547">
        <ele>829.4</ele>
        <time>2022-10-15 10:44:50</time>
      </trkpt>
      <trkpt lat="38.6493" lon="-0.72554">
        <ele>829.4</ele>
        <time>2022-10-15 10:44:51</time>
      </trkpt>
      <trkpt lat="38.64927" lon="-0.72562">
        <ele>829.4</ele>
        <time>2022-10-15 10:44:52</time>
      </trkpt>
      <trkpt lat="38.64923" lon="-0.72571">
        <ele>829.4</ele>
        <time>2022-10-15 10:44:53</time>
      </trkpt>
      <trkpt lat="38.6492" lon="-0.72581">
        <ele>829.4</ele>
        <time>2022-10-15 10:44:54</time>
      </trkpt>
      <trkpt lat="38.64914" lon="-0.72603">
        <ele>828.6</ele>
        <time>2022-10-15 10:44:55</time>
      </trkpt>
      <trkpt lat="38.64914" lon="-0.72603">
        <ele>828.2</ele>
        <time>2022-10-15 10:44:56</time>
      </trkpt>
      <trkpt lat="38.64911" lon="-0.72614">
        <ele>827.6</ele>
        <time>2022-10-15 10:44:57</time>
      </trkpt>
      <trkpt lat="38.64908" lon="-0.72626">
        <ele>826</ele>
        <time>2022-10-15 10:44:58</time>
      </trkpt>
      <trkpt lat="38.64904" lon="-0.72637">
        <ele>825</ele>
        <time>2022-10-15 10:44:59</time>
      </trkpt>
      <trkpt lat="38.64892" lon="-0.72654">
        <ele>823.8</ele>
        <time>2022-10-15 10:45:00</time>
      </trkpt>
      <trkpt lat="38.64892" lon="-0.72654">
        <ele>822.4</ele>
        <time>2022-10-15 10:45:01</time>
      </trkpt>
      <trkpt lat="38.64885" lon="-0.72661">
        <ele>821.4</ele>
        <time>2022-10-15 10:45:02</time>
      </trkpt>
      <trkpt lat="38.64872" lon="-0.72669">
        <ele>820.8</ele>
        <time>2022-10-15 10:45:03</time>
      </trkpt>
      <trkpt lat="38.64868" lon="-0.72672">
        <ele>820.4</ele>
        <time>2022-10-15 10:45:04</time>
      </trkpt>
      <trkpt lat="38.64864" lon="-0.72676">
        <ele>820.2</ele>
        <time>2022-10-15 10:45:05</time>
      </trkpt>
      <trkpt lat="38.6486" lon="-0.72679">
        <ele>820</ele>
        <time>2022-10-15 10:45:06</time>
      </trkpt>
      <trkpt lat="38.64858" lon="-0.72682">
        <ele>820</ele>
        <time>2022-10-15 10:45:07</time>
      </trkpt>
      <trkpt lat="38.64858" lon="-0.72682">
        <ele>820</ele>
        <time>2022-10-15 10:45:08</time>
      </trkpt>
      <trkpt lat="38.64855" lon="-0.72685">
        <ele>820</ele>
        <time>2022-10-15 10:45:09</time>
      </trkpt>
      <trkpt lat="38.64852" lon="-0.72692">
        <ele>820</ele>
        <time>2022-10-15 10:45:10</time>
      </trkpt>
      <trkpt lat="38.64852" lon="-0.72692">
        <ele>820</ele>
        <time>2022-10-15 10:45:11</time>
      </trkpt>
      <trkpt lat="38.64849" lon="-0.72699">
        <ele>820</ele>
        <time>2022-10-15 10:45:12</time>
      </trkpt>
      <trkpt lat="38.64848" lon="-0.72702">
        <ele>820.4</ele>
        <time>2022-10-15 10:45:13</time>
      </trkpt>
      <trkpt lat="38.64848" lon="-0.72702">
        <ele>821.2</ele>
        <time>2022-10-15 10:45:14</time>
      </trkpt>
      <trkpt lat="38.64846" lon="-0.72709">
        <ele>821.8</ele>
        <time>2022-10-15 10:45:15</time>
      </trkpt>
      <trkpt lat="38.64845" lon="-0.72713">
        <ele>822.4</ele>
        <time>2022-10-15 10:45:16</time>
      </trkpt>
      <trkpt lat="38.64844" lon="-0.72716">
        <ele>823</ele>
        <time>2022-10-15 10:45:17</time>
      </trkpt>
      <trkpt lat="38.64843" lon="-0.7272">
        <ele>823.4</ele>
        <time>2022-10-15 10:45:18</time>
      </trkpt>
      <trkpt lat="38.64842" lon="-0.72723">
        <ele>823.6</ele>
        <time>2022-10-15 10:45:19</time>
      </trkpt>
      <trkpt lat="38.64842" lon="-0.72723">
        <ele>824</ele>
        <time>2022-10-15 10:45:20</time>
      </trkpt>
      <trkpt lat="38.64842" lon="-0.72727">
        <ele>824.4</ele>
        <time>2022-10-15 10:45:21</time>
      </trkpt>
      <trkpt lat="38.6484" lon="-0.72734">
        <ele>824.6</ele>
        <time>2022-10-15 10:45:22</time>
      </trkpt>
      <trkpt lat="38.6484" lon="-0.72737">
        <ele>824.8</ele>
        <time>2022-10-15 10:45:23</time>
      </trkpt>
      <trkpt lat="38.64839" lon="-0.7274">
        <ele>825</ele>
        <time>2022-10-15 10:45:24</time>
      </trkpt>
      <trkpt lat="38.64839" lon="-0.72743">
        <ele>825.4</ele>
        <time>2022-10-15 10:45:25</time>
      </trkpt>
      <trkpt lat="38.64839" lon="-0.72743">
        <ele>825.6</ele>
        <time>2022-10-15 10:45:26</time>
      </trkpt>
      <trkpt lat="38.64837" lon="-0.7275">
        <ele>825.8</ele>
        <time>2022-10-15 10:45:27</time>
      </trkpt>
      <trkpt lat="38.64837" lon="-0.72753">
        <ele>826</ele>
        <time>2022-10-15 10:45:28</time>
      </trkpt>
      <trkpt lat="38.64836" lon="-0.72756">
        <ele>826.2</ele>
        <time>2022-10-15 10:45:29</time>
      </trkpt>
      <trkpt lat="38.64836" lon="-0.72759">
        <ele>826.2</ele>
        <time>2022-10-15 10:45:30</time>
      </trkpt>
      <trkpt lat="38.64835" lon="-0.72763">
        <ele>826.2</ele>
        <time>2022-10-15 10:45:31</time>
      </trkpt>
      <trkpt lat="38.64835" lon="-0.72763">
        <ele>826.2</ele>
        <time>2022-10-15 10:45:32</time>
      </trkpt>
      <trkpt lat="38.64834" lon="-0.72769">
        <ele>826.4</ele>
        <time>2022-10-15 10:45:33</time>
      </trkpt>
      <trkpt lat="38.64834" lon="-0.72772">
        <ele>826.6</ele>
        <time>2022-10-15 10:45:34</time>
      </trkpt>
      <trkpt lat="38.64833" lon="-0.72775">
        <ele>826.8</ele>
        <time>2022-10-15 10:45:35</time>
      </trkpt>
      <trkpt lat="38.64832" lon="-0.72778">
        <ele>827</ele>
        <time>2022-10-15 10:45:36</time>
      </trkpt>
      <trkpt lat="38.64832" lon="-0.72781">
        <ele>827.4</ele>
        <time>2022-10-15 10:45:37</time>
      </trkpt>
      <trkpt lat="38.64832" lon="-0.72781">
        <ele>827.4</ele>
        <time>2022-10-15 10:45:38</time>
      </trkpt>
      <trkpt lat="38.6483" lon="-0.72787">
        <ele>827.6</ele>
        <time>2022-10-15 10:45:39</time>
      </trkpt>
      <trkpt lat="38.6483" lon="-0.7279">
        <ele>827.8</ele>
        <time>2022-10-15 10:45:40</time>
      </trkpt>
      <trkpt lat="38.64829" lon="-0.72793">
        <ele>828</ele>
        <time>2022-10-15 10:45:41</time>
      </trkpt>
      <trkpt lat="38.64828" lon="-0.72796">
        <ele>828</ele>
        <time>2022-10-15 10:45:42</time>
      </trkpt>
      <trkpt lat="38.64828" lon="-0.72799">
        <ele>828.2</ele>
        <time>2022-10-15 10:45:43</time>
      </trkpt>
      <trkpt lat="38.64828" lon="-0.72799">
        <ele>828.2</ele>
        <time>2022-10-15 10:45:44</time>
      </trkpt>
      <trkpt lat="38.64826" lon="-0.72804">
        <ele>828.4</ele>
        <time>2022-10-15 10:45:45</time>
      </trkpt>
      <trkpt lat="38.64826" lon="-0.72804">
        <ele>828.8</ele>
        <time>2022-10-15 10:45:46</time>
      </trkpt>
      <trkpt lat="38.64824" lon="-0.72808">
        <ele>829</ele>
        <time>2022-10-15 10:45:47</time>
      </trkpt>
      <trkpt lat="38.64823" lon="-0.72811">
        <ele>829.2</ele>
        <time>2022-10-15 10:45:48</time>
      </trkpt>
      <trkpt lat="38.64821" lon="-0.72813">
        <ele>829.6</ele>
        <time>2022-10-15 10:45:49</time>
      </trkpt>
      <trkpt lat="38.64821" lon="-0.72813">
        <ele>829.8</ele>
        <time>2022-10-15 10:45:50</time>
      </trkpt>
      <trkpt lat="38.64819" lon="-0.72817">
        <ele>830</ele>
        <time>2022-10-15 10:45:51</time>
      </trkpt>
      <trkpt lat="38.64818" lon="-0.72819">
        <ele>830.2</ele>
        <time>2022-10-15 10:45:52</time>
      </trkpt>
      <trkpt lat="38.64816" lon="-0.72822">
        <ele>830.6</ele>
        <time>2022-10-15 10:45:53</time>
      </trkpt>
      <trkpt lat="38.64816" lon="-0.72822">
        <ele>830.8</ele>
        <time>2022-10-15 10:45:54</time>
      </trkpt>
      <trkpt lat="38.64813" lon="-0.72826">
        <ele>831</ele>
        <time>2022-10-15 10:45:55</time>
      </trkpt>
      <trkpt lat="38.64813" lon="-0.72826">
        <ele>831</ele>
        <time>2022-10-15 10:45:56</time>
      </trkpt>
      <trkpt lat="38.64811" lon="-0.72827">
        <ele>831.4</ele>
        <time>2022-10-15 10:45:57</time>
      </trkpt>
      <trkpt lat="38.64809" lon="-0.72829">
        <ele>831.6</ele>
        <time>2022-10-15 10:45:58</time>
      </trkpt>
      <trkpt lat="38.64807" lon="-0.72831">
        <ele>831.8</ele>
        <time>2022-10-15 10:45:59</time>
      </trkpt>
      <trkpt lat="38.64806" lon="-0.72833">
        <ele>832.2</ele>
        <time>2022-10-15 10:46:00</time>
      </trkpt>
      <trkpt lat="38.64804" lon="-0.72835">
        <ele>832.4</ele>
        <time>2022-10-15 10:46:01</time>
      </trkpt>
      <trkpt lat="38.64802" lon="-0.72837">
        <ele>832.6</ele>
        <time>2022-10-15 10:46:02</time>
      </trkpt>
      <trkpt lat="38.64801" lon="-0.72839">
        <ele>832.6</ele>
        <time>2022-10-15 10:46:03</time>
      </trkpt>
      <trkpt lat="38.64799" lon="-0.72841">
        <ele>832.8</ele>
        <time>2022-10-15 10:46:04</time>
      </trkpt>
      <trkpt lat="38.64797" lon="-0.72843">
        <ele>832.8</ele>
        <time>2022-10-15 10:46:05</time>
      </trkpt>
      <trkpt lat="38.64796" lon="-0.72845">
        <ele>833</ele>
        <time>2022-10-15 10:46:06</time>
      </trkpt>
      <trkpt lat="38.64794" lon="-0.72847">
        <ele>833</ele>
        <time>2022-10-15 10:46:07</time>
      </trkpt>
      <trkpt lat="38.64792" lon="-0.72848">
        <ele>833.2</ele>
        <time>2022-10-15 10:46:08</time>
      </trkpt>
      <trkpt lat="38.64791" lon="-0.7285">
        <ele>833.4</ele>
        <time>2022-10-15 10:46:09</time>
      </trkpt>
      <trkpt lat="38.64789" lon="-0.72852">
        <ele>833.6</ele>
        <time>2022-10-15 10:46:10</time>
      </trkpt>
      <trkpt lat="38.64787" lon="-0.72854">
        <ele>834</ele>
        <time>2022-10-15 10:46:11</time>
      </trkpt>
      <trkpt lat="38.64786" lon="-0.72856">
        <ele>834.2</ele>
        <time>2022-10-15 10:46:12</time>
      </trkpt>
      <trkpt lat="38.64784" lon="-0.72858">
        <ele>834.6</ele>
        <time>2022-10-15 10:46:13</time>
      </trkpt>
      <trkpt lat="38.64783" lon="-0.72859">
        <ele>834.6</ele>
        <time>2022-10-15 10:46:14</time>
      </trkpt>
      <trkpt lat="38.6478" lon="-0.72863">
        <ele>834.8</ele>
        <time>2022-10-15 10:46:15</time>
      </trkpt>
      <trkpt lat="38.64778" lon="-0.72865">
        <ele>835</ele>
        <time>2022-10-15 10:46:16</time>
      </trkpt>
      <trkpt lat="38.64777" lon="-0.72867">
        <ele>835.2</ele>
        <time>2022-10-15 10:46:17</time>
      </trkpt>
      <trkpt lat="38.64775" lon="-0.7287">
        <ele>835.4</ele>
        <time>2022-10-15 10:46:18</time>
      </trkpt>
      <trkpt lat="38.64774" lon="-0.72872">
        <ele>835.6</ele>
        <time>2022-10-15 10:46:19</time>
      </trkpt>
      <trkpt lat="38.64774" lon="-0.72872">
        <ele>835.8</ele>
        <time>2022-10-15 10:46:20</time>
      </trkpt>
      <trkpt lat="38.64771" lon="-0.72879">
        <ele>835.8</ele>
        <time>2022-10-15 10:46:21</time>
      </trkpt>
      <trkpt lat="38.64769" lon="-0.72884">
        <ele>835.8</ele>
        <time>2022-10-15 10:46:22</time>
      </trkpt>
      <trkpt lat="38.64769" lon="-0.72884">
        <ele>835.8</ele>
        <time>2022-10-15 10:46:23</time>
      </trkpt>
      <trkpt lat="38.64768" lon="-0.72891">
        <ele>835.8</ele>
        <time>2022-10-15 10:46:24</time>
      </trkpt>
      <trkpt lat="38.64768" lon="-0.72899">
        <ele>835.8</ele>
        <time>2022-10-15 10:46:25</time>
      </trkpt>
      <trkpt lat="38.64769" lon="-0.72908">
        <ele>835.8</ele>
        <time>2022-10-15 10:46:26</time>
      </trkpt>
      <trkpt lat="38.64768" lon="-0.72928">
        <ele>835.8</ele>
        <time>2022-10-15 10:46:27</time>
      </trkpt>
      <trkpt lat="38.64768" lon="-0.72928">
        <ele>835.8</ele>
        <time>2022-10-15 10:46:28</time>
      </trkpt>
      <trkpt lat="38.64765" lon="-0.72937">
        <ele>835.8</ele>
        <time>2022-10-15 10:46:29</time>
      </trkpt>
      <trkpt lat="38.64761" lon="-0.72945">
        <ele>835.6</ele>
        <time>2022-10-15 10:46:30</time>
      </trkpt>
      <trkpt lat="38.64751" lon="-0.72957">
        <ele>834.8</ele>
        <time>2022-10-15 10:46:31</time>
      </trkpt>
      <trkpt lat="38.64751" lon="-0.72957">
        <ele>833.8</ele>
        <time>2022-10-15 10:46:32</time>
      </trkpt>
      <trkpt lat="38.64742" lon="-0.72966">
        <ele>832.4</ele>
        <time>2022-10-15 10:46:33</time>
      </trkpt>
      <trkpt lat="38.64738" lon="-0.7297">
        <ele>831.2</ele>
        <time>2022-10-15 10:46:34</time>
      </trkpt>
      <trkpt lat="38.64735" lon="-0.72974">
        <ele>830.6</ele>
        <time>2022-10-15 10:46:35</time>
      </trkpt>
      <trkpt lat="38.64731" lon="-0.72978">
        <ele>830.2</ele>
        <time>2022-10-15 10:46:36</time>
      </trkpt>
      <trkpt lat="38.64728" lon="-0.72981">
        <ele>830</ele>
        <time>2022-10-15 10:46:37</time>
      </trkpt>
      <trkpt lat="38.64728" lon="-0.72981">
        <ele>830</ele>
        <time>2022-10-15 10:46:38</time>
      </trkpt>
      <trkpt lat="38.64723" lon="-0.72989">
        <ele>830</ele>
        <time>2022-10-15 10:46:39</time>
      </trkpt>
      <trkpt lat="38.64721" lon="-0.72994">
        <ele>829.8</ele>
        <time>2022-10-15 10:46:40</time>
      </trkpt>
      <trkpt lat="38.64718" lon="-0.72999">
        <ele>829.8</ele>
        <time>2022-10-15 10:46:41</time>
      </trkpt>
      <trkpt lat="38.64716" lon="-0.73004">
        <ele>829.8</ele>
        <time>2022-10-15 10:46:42</time>
      </trkpt>
      <trkpt lat="38.64714" lon="-0.73009">
        <ele>829.8</ele>
        <time>2022-10-15 10:46:43</time>
      </trkpt>
      <trkpt lat="38.64714" lon="-0.73009">
        <ele>829.8</ele>
        <time>2022-10-15 10:46:44</time>
      </trkpt>
      <trkpt lat="38.64712" lon="-0.7302">
        <ele>829.8</ele>
        <time>2022-10-15 10:46:45</time>
      </trkpt>
      <trkpt lat="38.64711" lon="-0.73026">
        <ele>830</ele>
        <time>2022-10-15 10:46:46</time>
      </trkpt>
      <trkpt lat="38.6471" lon="-0.73031">
        <ele>830</ele>
        <time>2022-10-15 10:46:47</time>
      </trkpt>
      <trkpt lat="38.6471" lon="-0.73036">
        <ele>830</ele>
        <time>2022-10-15 10:46:48</time>
      </trkpt>
      <trkpt lat="38.6471" lon="-0.73041">
        <ele>830</ele>
        <time>2022-10-15 10:46:49</time>
      </trkpt>
      <trkpt lat="38.6471" lon="-0.73041">
        <ele>830</ele>
        <time>2022-10-15 10:46:50</time>
      </trkpt>
      <trkpt lat="38.64709" lon="-0.73049">
        <ele>830</ele>
        <time>2022-10-15 10:46:51</time>
      </trkpt>
      <trkpt lat="38.64709" lon="-0.73053">
        <ele>830</ele>
        <time>2022-10-15 10:46:52</time>
      </trkpt>
      <trkpt lat="38.64709" lon="-0.73057">
        <ele>830</ele>
        <time>2022-10-15 10:46:53</time>
      </trkpt>
      <trkpt lat="38.64708" lon="-0.7306">
        <ele>830</ele>
        <time>2022-10-15 10:46:54</time>
      </trkpt>
      <trkpt lat="38.64707" lon="-0.73063">
        <ele>830.2</ele>
        <time>2022-10-15 10:46:55</time>
      </trkpt>
      <trkpt lat="38.64707" lon="-0.73063">
        <ele>830.2</ele>
        <time>2022-10-15 10:46:56</time>
      </trkpt>
      <trkpt lat="38.64704" lon="-0.7307">
        <ele>830.2</ele>
        <time>2022-10-15 10:46:57</time>
      </trkpt>
      <trkpt lat="38.64703" lon="-0.73073">
        <ele>830.2</ele>
        <time>2022-10-15 10:46:58</time>
      </trkpt>
      <trkpt lat="38.64701" lon="-0.73076">
        <ele>830.4</ele>
        <time>2022-10-15 10:46:59</time>
      </trkpt>
      <trkpt lat="38.64699" lon="-0.73079">
        <ele>830.8</ele>
        <time>2022-10-15 10:47:00</time>
      </trkpt>
      <trkpt lat="38.64697" lon="-0.73082">
        <ele>831</ele>
        <time>2022-10-15 10:47:01</time>
      </trkpt>
      <trkpt lat="38.64697" lon="-0.73082">
        <ele>831.2</ele>
        <time>2022-10-15 10:47:02</time>
      </trkpt>
      <trkpt lat="38.64694" lon="-0.73089">
        <ele>831.4</ele>
        <time>2022-10-15 10:47:03</time>
      </trkpt>
      <trkpt lat="38.64691" lon="-0.73093">
        <ele>831.4</ele>
        <time>2022-10-15 10:47:04</time>
      </trkpt>
      <trkpt lat="38.6469" lon="-0.73098">
        <ele>831.4</ele>
        <time>2022-10-15 10:47:05</time>
      </trkpt>
      <trkpt lat="38.64688" lon="-0.73104">
        <ele>831.4</ele>
        <time>2022-10-15 10:47:06</time>
      </trkpt>
      <trkpt lat="38.64687" lon="-0.73111">
        <ele>831.4</ele>
        <time>2022-10-15 10:47:07</time>
      </trkpt>
      <trkpt lat="38.64687" lon="-0.73111">
        <ele>831.4</ele>
        <time>2022-10-15 10:47:08</time>
      </trkpt>
      <trkpt lat="38.64685" lon="-0.73127">
        <ele>831.4</ele>
        <time>2022-10-15 10:47:09</time>
      </trkpt>
      <trkpt lat="38.64683" lon="-0.73136">
        <ele>831.4</ele>
        <time>2022-10-15 10:47:10</time>
      </trkpt>
      <trkpt lat="38.6468" lon="-0.73144">
        <ele>831.4</ele>
        <time>2022-10-15 10:47:11</time>
      </trkpt>
      <trkpt lat="38.64674" lon="-0.7315">
        <ele>831.4</ele>
        <time>2022-10-15 10:47:12</time>
      </trkpt>
      <trkpt lat="38.64668" lon="-0.73156">
        <ele>831.2</ele>
        <time>2022-10-15 10:47:13</time>
      </trkpt>
      <trkpt lat="38.64668" lon="-0.73156">
        <ele>830.8</ele>
        <time>2022-10-15 10:47:14</time>
      </trkpt>
      <trkpt lat="38.64655" lon="-0.73164">
        <ele>829</ele>
        <time>2022-10-15 10:47:15</time>
      </trkpt>
      <trkpt lat="38.64649" lon="-0.73169">
        <ele>827.8</ele>
        <time>2022-10-15 10:47:16</time>
      </trkpt>
      <trkpt lat="38.64642" lon="-0.73174">
        <ele>826.8</ele>
        <time>2022-10-15 10:47:17</time>
      </trkpt>
      <trkpt lat="38.64636" lon="-0.7318">
        <ele>825.6</ele>
        <time>2022-10-15 10:47:18</time>
      </trkpt>
      <trkpt lat="38.64629" lon="-0.73186">
        <ele>824.4</ele>
        <time>2022-10-15 10:47:19</time>
      </trkpt>
      <trkpt lat="38.64629" lon="-0.73186">
        <ele>823.6</ele>
        <time>2022-10-15 10:47:20</time>
      </trkpt>
      <trkpt lat="38.64616" lon="-0.73197">
        <ele>823</ele>
        <time>2022-10-15 10:47:21</time>
      </trkpt>
      <trkpt lat="38.64609" lon="-0.73202">
        <ele>822.6</ele>
        <time>2022-10-15 10:47:22</time>
      </trkpt>
      <trkpt lat="38.64603" lon="-0.73206">
        <ele>822</ele>
        <time>2022-10-15 10:47:23</time>
      </trkpt>
      <trkpt lat="38.64596" lon="-0.73211">
        <ele>821.6</ele>
        <time>2022-10-15 10:47:24</time>
      </trkpt>
      <trkpt lat="38.64591" lon="-0.73216">
        <ele>820.8</ele>
        <time>2022-10-15 10:47:25</time>
      </trkpt>
      <trkpt lat="38.64591" lon="-0.73216">
        <ele>820.4</ele>
        <time>2022-10-15 10:47:26</time>
      </trkpt>
      <trkpt lat="38.64584" lon="-0.73229">
        <ele>820</ele>
        <time>2022-10-15 10:47:27</time>
      </trkpt>
      <trkpt lat="38.64582" lon="-0.73238">
        <ele>819.6</ele>
        <time>2022-10-15 10:47:28</time>
      </trkpt>
      <trkpt lat="38.64583" lon="-0.73247">
        <ele>819.2</ele>
        <time>2022-10-15 10:47:29</time>
      </trkpt>
      <trkpt lat="38.64584" lon="-0.73257">
        <ele>819</ele>
        <time>2022-10-15 10:47:30</time>
      </trkpt>
      <trkpt lat="38.64585" lon="-0.73267">
        <ele>818.6</ele>
        <time>2022-10-15 10:47:31</time>
      </trkpt>
      <trkpt lat="38.64585" lon="-0.73267">
        <ele>818.2</ele>
        <time>2022-10-15 10:47:32</time>
      </trkpt>
      <trkpt lat="38.64581" lon="-0.73287">
        <ele>818</ele>
        <time>2022-10-15 10:47:33</time>
      </trkpt>
      <trkpt lat="38.64576" lon="-0.73294">
        <ele>818</ele>
        <time>2022-10-15 10:47:34</time>
      </trkpt>
      <trkpt lat="38.64571" lon="-0.73298">
        <ele>817.6</ele>
        <time>2022-10-15 10:47:35</time>
      </trkpt>
      <trkpt lat="38.64565" lon="-0.73301">
        <ele>817.2</ele>
        <time>2022-10-15 10:47:36</time>
      </trkpt>
      <trkpt lat="38.6456" lon="-0.73303">
        <ele>816.6</ele>
        <time>2022-10-15 10:47:37</time>
      </trkpt>
      <trkpt lat="38.6456" lon="-0.73303">
        <ele>816.2</ele>
        <time>2022-10-15 10:47:38</time>
      </trkpt>
      <trkpt lat="38.64554" lon="-0.73305">
        <ele>816.2</ele>
        <time>2022-10-15 10:47:39</time>
      </trkpt>
      <trkpt lat="38.64552" lon="-0.73307">
        <ele>816</ele>
        <time>2022-10-15 10:47:40</time>
      </trkpt>
      <trkpt lat="38.6455" lon="-0.73309">
        <ele>816</ele>
        <time>2022-10-15 10:47:41</time>
      </trkpt>
      <trkpt lat="38.6455" lon="-0.73309">
        <ele>816</ele>
        <time>2022-10-15 10:47:42</time>
      </trkpt>
      <trkpt lat="38.64548" lon="-0.73311">
        <ele>816</ele>
        <time>2022-10-15 10:47:43</time>
      </trkpt>
      <trkpt lat="38.64547" lon="-0.73313">
        <ele>816</ele>
        <time>2022-10-15 10:47:44</time>
      </trkpt>
      <trkpt lat="38.64545" lon="-0.73315">
        <ele>816</ele>
        <time>2022-10-15 10:47:45</time>
      </trkpt>
      <trkpt lat="38.64544" lon="-0.73316">
        <ele>816</ele>
        <time>2022-10-15 10:47:46</time>
      </trkpt>
      <trkpt lat="38.64543" lon="-0.73318">
        <ele>816.2</ele>
        <time>2022-10-15 10:47:47</time>
      </trkpt>
      <trkpt lat="38.64541" lon="-0.73319">
        <ele>816.4</ele>
        <time>2022-10-15 10:47:48</time>
      </trkpt>
      <trkpt lat="38.6454" lon="-0.73321">
        <ele>816.8</ele>
        <time>2022-10-15 10:47:49</time>
      </trkpt>
      <trkpt lat="38.64538" lon="-0.73322">
        <ele>817.2</ele>
        <time>2022-10-15 10:47:50</time>
      </trkpt>
      <trkpt lat="38.64537" lon="-0.73324">
        <ele>817.4</ele>
        <time>2022-10-15 10:47:51</time>
      </trkpt>
      <trkpt lat="38.64536" lon="-0.73325">
        <ele>817.6</ele>
        <time>2022-10-15 10:47:52</time>
      </trkpt>
      <trkpt lat="38.64535" lon="-0.73327">
        <ele>817.8</ele>
        <time>2022-10-15 10:47:53</time>
      </trkpt>
      <trkpt lat="38.64533" lon="-0.73328">
        <ele>818</ele>
        <time>2022-10-15 10:47:54</time>
      </trkpt>
      <trkpt lat="38.64531" lon="-0.73329">
        <ele>818.2</ele>
        <time>2022-10-15 10:47:55</time>
      </trkpt>
      <trkpt lat="38.6453" lon="-0.7333">
        <ele>818.4</ele>
        <time>2022-10-15 10:47:56</time>
      </trkpt>
      <trkpt lat="38.64528" lon="-0.73331">
        <ele>818.6</ele>
        <time>2022-10-15 10:47:57</time>
      </trkpt>
      <trkpt lat="38.64526" lon="-0.73332">
        <ele>818.8</ele>
        <time>2022-10-15 10:47:58</time>
      </trkpt>
      <trkpt lat="38.64525" lon="-0.73333">
        <ele>819</ele>
        <time>2022-10-15 10:47:59</time>
      </trkpt>
      <trkpt lat="38.64522" lon="-0.73337">
        <ele>819</ele>
        <time>2022-10-15 10:48:00</time>
      </trkpt>
      <trkpt lat="38.6452" lon="-0.73338">
        <ele>819.2</ele>
        <time>2022-10-15 10:48:01</time>
      </trkpt>
      <trkpt lat="38.6452" lon="-0.73338">
        <ele>819.2</ele>
        <time>2022-10-15 10:48:02</time>
      </trkpt>
      <trkpt lat="38.64517" lon="-0.73341">
        <ele>819.2</ele>
        <time>2022-10-15 10:48:03</time>
      </trkpt>
      <trkpt lat="38.64515" lon="-0.73343">
        <ele>819.4</ele>
        <time>2022-10-15 10:48:04</time>
      </trkpt>
      <trkpt lat="38.64513" lon="-0.73344">
        <ele>819.4</ele>
        <time>2022-10-15 10:48:05</time>
      </trkpt>
      <trkpt lat="38.64512" lon="-0.73346">
        <ele>819.6</ele>
        <time>2022-10-15 10:48:06</time>
      </trkpt>
      <trkpt lat="38.6451" lon="-0.73347">
        <ele>819.8</ele>
        <time>2022-10-15 10:48:07</time>
      </trkpt>
      <trkpt lat="38.6451" lon="-0.73347">
        <ele>819.8</ele>
        <time>2022-10-15 10:48:08</time>
      </trkpt>
      <trkpt lat="38.64506" lon="-0.7335">
        <ele>820</ele>
        <time>2022-10-15 10:48:09</time>
      </trkpt>
      <trkpt lat="38.64506" lon="-0.7335">
        <ele>820.2</ele>
        <time>2022-10-15 10:48:10</time>
      </trkpt>
      <trkpt lat="38.64505" lon="-0.73351">
        <ele>820.4</ele>
        <time>2022-10-15 10:48:11</time>
      </trkpt>
      <trkpt lat="38.64501" lon="-0.73354">
        <ele>820.4</ele>
        <time>2022-10-15 10:48:13</time>
      </trkpt>
      <trkpt lat="38.64499" lon="-0.73356">
        <ele>820.4</ele>
        <time>2022-10-15 10:48:14</time>
      </trkpt>
      <trkpt lat="38.64497" lon="-0.73358">
        <ele>820.6</ele>
        <time>2022-10-15 10:48:15</time>
      </trkpt>
      <trkpt lat="38.64494" lon="-0.73361">
        <ele>820.6</ele>
        <time>2022-10-15 10:48:16</time>
      </trkpt>
      <trkpt lat="38.64492" lon="-0.73364">
        <ele>820.6</ele>
        <time>2022-10-15 10:48:17</time>
      </trkpt>
      <trkpt lat="38.6449" lon="-0.73369">
        <ele>820.6</ele>
        <time>2022-10-15 10:48:18</time>
      </trkpt>
      <trkpt lat="38.64489" lon="-0.73374">
        <ele>820.6</ele>
        <time>2022-10-15 10:48:19</time>
      </trkpt>
      <trkpt lat="38.64487" lon="-0.7338">
        <ele>820.6</ele>
        <time>2022-10-15 10:48:20</time>
      </trkpt>
      <trkpt lat="38.64486" lon="-0.73388">
        <ele>820.6</ele>
        <time>2022-10-15 10:48:21</time>
      </trkpt>
      <trkpt lat="38.64484" lon="-0.73396">
        <ele>820.6</ele>
        <time>2022-10-15 10:48:22</time>
      </trkpt>
      <trkpt lat="38.64482" lon="-0.73404">
        <ele>820.4</ele>
        <time>2022-10-15 10:48:23</time>
      </trkpt>
      <trkpt lat="38.64481" lon="-0.73413">
        <ele>820.2</ele>
        <time>2022-10-15 10:48:24</time>
      </trkpt>
      <trkpt lat="38.64481" lon="-0.73423">
        <ele>819.8</ele>
        <time>2022-10-15 10:48:25</time>
      </trkpt>
      <trkpt lat="38.64482" lon="-0.73432">
        <ele>819</ele>
        <time>2022-10-15 10:48:26</time>
      </trkpt>
      <trkpt lat="38.64484" lon="-0.73442">
        <ele>818.4</ele>
        <time>2022-10-15 10:48:27</time>
      </trkpt>
      <trkpt lat="38.64485" lon="-0.73452">
        <ele>817.6</ele>
        <time>2022-10-15 10:48:28</time>
      </trkpt>
      <trkpt lat="38.64485" lon="-0.73462">
        <ele>816.4</ele>
        <time>2022-10-15 10:48:29</time>
      </trkpt>
      <trkpt lat="38.64484" lon="-0.73472">
        <ele>815.2</ele>
        <time>2022-10-15 10:48:30</time>
      </trkpt>
      <trkpt lat="38.64484" lon="-0.73483">
        <ele>814.2</ele>
        <time>2022-10-15 10:48:31</time>
      </trkpt>
      <trkpt lat="38.64483" lon="-0.73493">
        <ele>813.2</ele>
        <time>2022-10-15 10:48:32</time>
      </trkpt>
      <trkpt lat="38.64483" lon="-0.73514">
        <ele>812.2</ele>
        <time>2022-10-15 10:48:33</time>
      </trkpt>
      <trkpt lat="38.64483" lon="-0.73514">
        <ele>811.4</ele>
        <time>2022-10-15 10:48:34</time>
      </trkpt>
      <trkpt lat="38.64483" lon="-0.73524">
        <ele>810.6</ele>
        <time>2022-10-15 10:48:35</time>
      </trkpt>
      <trkpt lat="38.64483" lon="-0.73534">
        <ele>810</ele>
        <time>2022-10-15 10:48:36</time>
      </trkpt>
      <trkpt lat="38.64481" lon="-0.73543">
        <ele>809.4</ele>
        <time>2022-10-15 10:48:37</time>
      </trkpt>
      <trkpt lat="38.64478" lon="-0.73551">
        <ele>808.8</ele>
        <time>2022-10-15 10:48:38</time>
      </trkpt>
      <trkpt lat="38.64474" lon="-0.73559">
        <ele>808.6</ele>
        <time>2022-10-15 10:48:39</time>
      </trkpt>
      <trkpt lat="38.6447" lon="-0.73566">
        <ele>808</ele>
        <time>2022-10-15 10:48:40</time>
      </trkpt>
      <trkpt lat="38.64463" lon="-0.73581">
        <ele>807.8</ele>
        <time>2022-10-15 10:48:41</time>
      </trkpt>
      <trkpt lat="38.64461" lon="-0.73588">
        <ele>807.6</ele>
        <time>2022-10-15 10:48:42</time>
      </trkpt>
      <trkpt lat="38.64461" lon="-0.73588">
        <ele>807.4</ele>
        <time>2022-10-15 10:48:43</time>
      </trkpt>
      <trkpt lat="38.6446" lon="-0.73597">
        <ele>807.4</ele>
        <time>2022-10-15 10:48:44</time>
      </trkpt>
      <trkpt lat="38.64457" lon="-0.73613">
        <ele>807.2</ele>
        <time>2022-10-15 10:48:45</time>
      </trkpt>
      <trkpt lat="38.64454" lon="-0.7362">
        <ele>807.2</ele>
        <time>2022-10-15 10:48:46</time>
      </trkpt>
      <trkpt lat="38.64451" lon="-0.73626">
        <ele>807.2</ele>
        <time>2022-10-15 10:48:47</time>
      </trkpt>
      <trkpt lat="38.64447" lon="-0.73631">
        <ele>807.2</ele>
        <time>2022-10-15 10:48:48</time>
      </trkpt>
      <trkpt lat="38.64447" lon="-0.73631">
        <ele>807.2</ele>
        <time>2022-10-15 10:48:49</time>
      </trkpt>
      <trkpt lat="38.64444" lon="-0.73636">
        <ele>807.2</ele>
        <time>2022-10-15 10:48:50</time>
      </trkpt>
      <trkpt lat="38.64437" lon="-0.73642">
        <ele>807.2</ele>
        <time>2022-10-15 10:48:51</time>
      </trkpt>
      <trkpt lat="38.64434" lon="-0.73646">
        <ele>807.2</ele>
        <time>2022-10-15 10:48:52</time>
      </trkpt>
      <trkpt lat="38.64432" lon="-0.73648">
        <ele>807.2</ele>
        <time>2022-10-15 10:48:53</time>
      </trkpt>
      <trkpt lat="38.64429" lon="-0.73651">
        <ele>807.2</ele>
        <time>2022-10-15 10:48:54</time>
      </trkpt>
      <trkpt lat="38.64427" lon="-0.73653">
        <ele>807.2</ele>
        <time>2022-10-15 10:48:55</time>
      </trkpt>
      <trkpt lat="38.64427" lon="-0.73653">
        <ele>807.2</ele>
        <time>2022-10-15 10:48:56</time>
      </trkpt>
      <trkpt lat="38.64422" lon="-0.73658">
        <ele>807.2</ele>
        <time>2022-10-15 10:48:57</time>
      </trkpt>
      <trkpt lat="38.6442" lon="-0.7366">
        <ele>807.4</ele>
        <time>2022-10-15 10:48:58</time>
      </trkpt>
      <trkpt lat="38.64418" lon="-0.73662">
        <ele>807.8</ele>
        <time>2022-10-15 10:48:59</time>
      </trkpt>
      <trkpt lat="38.64415" lon="-0.73665">
        <ele>808.2</ele>
        <time>2022-10-15 10:49:00</time>
      </trkpt>
      <trkpt lat="38.64413" lon="-0.73668">
        <ele>808.6</ele>
        <time>2022-10-15 10:49:01</time>
      </trkpt>
      <trkpt lat="38.64413" lon="-0.73668">
        <ele>809</ele>
        <time>2022-10-15 10:49:02</time>
      </trkpt>
      <trkpt lat="38.64408" lon="-0.73676">
        <ele>809.4</ele>
        <time>2022-10-15 10:49:03</time>
      </trkpt>
      <trkpt lat="38.64407" lon="-0.73681">
        <ele>809.6</ele>
        <time>2022-10-15 10:49:04</time>
      </trkpt>
      <trkpt lat="38.64408" lon="-0.73686">
        <ele>809.6</ele>
        <time>2022-10-15 10:49:05</time>
      </trkpt>
      <trkpt lat="38.64411" lon="-0.73692">
        <ele>809.6</ele>
        <time>2022-10-15 10:49:06</time>
      </trkpt>
      <trkpt lat="38.64415" lon="-0.73697">
        <ele>809.6</ele>
        <time>2022-10-15 10:49:07</time>
      </trkpt>
      <trkpt lat="38.64415" lon="-0.73697">
        <ele>809.6</ele>
        <time>2022-10-15 10:49:08</time>
      </trkpt>
      <trkpt lat="38.64421" lon="-0.73711">
        <ele>809.6</ele>
        <time>2022-10-15 10:49:09</time>
      </trkpt>
      <trkpt lat="38.64423" lon="-0.7372">
        <ele>809.6</ele>
        <time>2022-10-15 10:49:10</time>
      </trkpt>
      <trkpt lat="38.64422" lon="-0.7373">
        <ele>809.6</ele>
        <time>2022-10-15 10:49:11</time>
      </trkpt>
      <trkpt lat="38.6442" lon="-0.7374">
        <ele>809.4</ele>
        <time>2022-10-15 10:49:12</time>
      </trkpt>
      <trkpt lat="38.64416" lon="-0.7375">
        <ele>809</ele>
        <time>2022-10-15 10:49:13</time>
      </trkpt>
      <trkpt lat="38.64416" lon="-0.7375">
        <ele>808.2</ele>
        <time>2022-10-15 10:49:14</time>
      </trkpt>
      <trkpt lat="38.64405" lon="-0.73766">
        <ele>807.6</ele>
        <time>2022-10-15 10:49:15</time>
      </trkpt>
      <trkpt lat="38.64397" lon="-0.73772">
        <ele>807</ele>
        <time>2022-10-15 10:49:16</time>
      </trkpt>
      <trkpt lat="38.6439" lon="-0.73777">
        <ele>806.2</ele>
        <time>2022-10-15 10:49:17</time>
      </trkpt>
      <trkpt lat="38.64383" lon="-0.73783">
        <ele>805.2</ele>
        <time>2022-10-15 10:49:18</time>
      </trkpt>
      <trkpt lat="38.64376" lon="-0.7379">
        <ele>804</ele>
        <time>2022-10-15 10:49:19</time>
      </trkpt>
      <trkpt lat="38.64376" lon="-0.7379">
        <ele>802.4</ele>
        <time>2022-10-15 10:49:20</time>
      </trkpt>
      <trkpt lat="38.64369" lon="-0.73803">
        <ele>800.8</ele>
        <time>2022-10-15 10:49:21</time>
      </trkpt>
      <trkpt lat="38.64368" lon="-0.73811">
        <ele>799.6</ele>
        <time>2022-10-15 10:49:22</time>
      </trkpt>
      <trkpt lat="38.64369" lon="-0.73818">
        <ele>798.4</ele>
        <time>2022-10-15 10:49:23</time>
      </trkpt>
      <trkpt lat="38.64373" lon="-0.73823">
        <ele>797.6</ele>
        <time>2022-10-15 10:49:24</time>
      </trkpt>
      <trkpt lat="38.64378" lon="-0.73827">
        <ele>797.2</ele>
        <time>2022-10-15 10:49:25</time>
      </trkpt>
      <trkpt lat="38.64378" lon="-0.73827">
        <ele>796.6</ele>
        <time>2022-10-15 10:49:26</time>
      </trkpt>
      <trkpt lat="38.64386" lon="-0.73837">
        <ele>796.2</ele>
        <time>2022-10-15 10:49:27</time>
      </trkpt>
      <trkpt lat="38.64386" lon="-0.73837">
        <ele>796</ele>
        <time>2022-10-15 10:49:28</time>
      </trkpt>
      <trkpt lat="38.64389" lon="-0.73843">
        <ele>796</ele>
        <time>2022-10-15 10:49:29</time>
      </trkpt>
      <trkpt lat="38.6439" lon="-0.73849">
        <ele>795.8</ele>
        <time>2022-10-15 10:49:30</time>
      </trkpt>
      <trkpt lat="38.64389" lon="-0.73856">
        <ele>795.8</ele>
        <time>2022-10-15 10:49:31</time>
      </trkpt>
      <trkpt lat="38.64387" lon="-0.73862">
        <ele>795.6</ele>
        <time>2022-10-15 10:49:32</time>
      </trkpt>
      <trkpt lat="38.64384" lon="-0.73868">
        <ele>795.6</ele>
        <time>2022-10-15 10:49:33</time>
      </trkpt>
      <trkpt lat="38.6438" lon="-0.73874">
        <ele>795.4</ele>
        <time>2022-10-15 10:49:34</time>
      </trkpt>
      <trkpt lat="38.64376" lon="-0.7388">
        <ele>795.4</ele>
        <time>2022-10-15 10:49:35</time>
      </trkpt>
      <trkpt lat="38.64372" lon="-0.73887">
        <ele>795.4</ele>
        <time>2022-10-15 10:49:36</time>
      </trkpt>
      <trkpt lat="38.64369" lon="-0.73894">
        <ele>795.4</ele>
        <time>2022-10-15 10:49:37</time>
      </trkpt>
      <trkpt lat="38.64365" lon="-0.73901">
        <ele>795.2</ele>
        <time>2022-10-15 10:49:38</time>
      </trkpt>
      <trkpt lat="38.6436" lon="-0.73908">
        <ele>795.2</ele>
        <time>2022-10-15 10:49:39</time>
      </trkpt>
      <trkpt lat="38.64355" lon="-0.73915">
        <ele>795</ele>
        <time>2022-10-15 10:49:40</time>
      </trkpt>
      <trkpt lat="38.6435" lon="-0.73922">
        <ele>794.6</ele>
        <time>2022-10-15 10:49:41</time>
      </trkpt>
      <trkpt lat="38.64344" lon="-0.73929">
        <ele>794</ele>
        <time>2022-10-15 10:49:42</time>
      </trkpt>
      <trkpt lat="38.64338" lon="-0.73936">
        <ele>793.6</ele>
        <time>2022-10-15 10:49:43</time>
      </trkpt>
      <trkpt lat="38.64331" lon="-0.73942">
        <ele>793.2</ele>
        <time>2022-10-15 10:49:44</time>
      </trkpt>
      <trkpt lat="38.64324" lon="-0.73949">
        <ele>792.6</ele>
        <time>2022-10-15 10:49:45</time>
      </trkpt>
      <trkpt lat="38.64317" lon="-0.73954">
        <ele>791.8</ele>
        <time>2022-10-15 10:49:46</time>
      </trkpt>
      <trkpt lat="38.64303" lon="-0.73961">
        <ele>791.2</ele>
        <time>2022-10-15 10:49:47</time>
      </trkpt>
      <trkpt lat="38.64295" lon="-0.73962">
        <ele>790.6</ele>
        <time>2022-10-15 10:49:48</time>
      </trkpt>
      <trkpt lat="38.64288" lon="-0.73962">
        <ele>789.8</ele>
        <time>2022-10-15 10:49:49</time>
      </trkpt>
      <trkpt lat="38.64288" lon="-0.73962">
        <ele>788.8</ele>
        <time>2022-10-15 10:49:50</time>
      </trkpt>
      <trkpt lat="38.64274" lon="-0.7396">
        <ele>788.4</ele>
        <time>2022-10-15 10:49:51</time>
      </trkpt>
      <trkpt lat="38.64274" lon="-0.7396">
        <ele>788</ele>
        <time>2022-10-15 10:49:52</time>
      </trkpt>
      <trkpt lat="38.64259" lon="-0.73956">
        <ele>787.8</ele>
        <time>2022-10-15 10:49:53</time>
      </trkpt>
      <trkpt lat="38.64252" lon="-0.73954">
        <ele>787.8</ele>
        <time>2022-10-15 10:49:54</time>
      </trkpt>
      <trkpt lat="38.64246" lon="-0.73951">
        <ele>787.6</ele>
        <time>2022-10-15 10:49:55</time>
      </trkpt>
      <trkpt lat="38.64246" lon="-0.73951">
        <ele>787.6</ele>
        <time>2022-10-15 10:49:56</time>
      </trkpt>
      <trkpt lat="38.64234" lon="-0.73946">
        <ele>787.4</ele>
        <time>2022-10-15 10:49:57</time>
      </trkpt>
      <trkpt lat="38.64227" lon="-0.73944">
        <ele>786.8</ele>
        <time>2022-10-15 10:49:58</time>
      </trkpt>
      <trkpt lat="38.64221" lon="-0.73942">
        <ele>786.6</ele>
        <time>2022-10-15 10:49:59</time>
      </trkpt>
      <trkpt lat="38.64215" lon="-0.7394">
        <ele>786.4</ele>
        <time>2022-10-15 10:50:00</time>
      </trkpt>
      <trkpt lat="38.64209" lon="-0.73939">
        <ele>786.4</ele>
        <time>2022-10-15 10:50:01</time>
      </trkpt>
      <trkpt lat="38.64209" lon="-0.73939">
        <ele>786.4</ele>
        <time>2022-10-15 10:50:02</time>
      </trkpt>
      <trkpt lat="38.64197" lon="-0.73939">
        <ele>786.4</ele>
        <time>2022-10-15 10:50:03</time>
      </trkpt>
      <trkpt lat="38.64197" lon="-0.73939">
        <ele>786.4</ele>
        <time>2022-10-15 10:50:04</time>
      </trkpt>
      <trkpt lat="38.64192" lon="-0.73939">
        <ele>786.4</ele>
        <time>2022-10-15 10:50:05</time>
      </trkpt>
      <trkpt lat="38.64187" lon="-0.7394">
        <ele>786.4</ele>
        <time>2022-10-15 10:50:06</time>
      </trkpt>
      <trkpt lat="38.64183" lon="-0.73941">
        <ele>786.4</ele>
        <time>2022-10-15 10:50:07</time>
      </trkpt>
      <trkpt lat="38.64179" lon="-0.73941">
        <ele>786.4</ele>
        <time>2022-10-15 10:50:08</time>
      </trkpt>
      <trkpt lat="38.64175" lon="-0.73942">
        <ele>786.4</ele>
        <time>2022-10-15 10:50:09</time>
      </trkpt>
      <trkpt lat="38.64171" lon="-0.73942">
        <ele>786.4</ele>
        <time>2022-10-15 10:50:10</time>
      </trkpt>
      <trkpt lat="38.64168" lon="-0.73943">
        <ele>786.4</ele>
        <time>2022-10-15 10:50:11</time>
      </trkpt>
      <trkpt lat="38.64164" lon="-0.73944">
        <ele>786.4</ele>
        <time>2022-10-15 10:50:12</time>
      </trkpt>
      <trkpt lat="38.64161" lon="-0.73946">
        <ele>786.6</ele>
        <time>2022-10-15 10:50:13</time>
      </trkpt>
      <trkpt lat="38.64158" lon="-0.73948">
        <ele>787</ele>
        <time>2022-10-15 10:50:14</time>
      </trkpt>
      <trkpt lat="38.64155" lon="-0.73951">
        <ele>787.2</ele>
        <time>2022-10-15 10:50:15</time>
      </trkpt>
      <trkpt lat="38.64152" lon="-0.73954">
        <ele>787.4</ele>
        <time>2022-10-15 10:50:16</time>
      </trkpt>
      <trkpt lat="38.6415" lon="-0.73959">
        <ele>787.6</ele>
        <time>2022-10-15 10:50:17</time>
      </trkpt>
      <trkpt lat="38.64148" lon="-0.73965">
        <ele>787.6</ele>
        <time>2022-10-15 10:50:18</time>
      </trkpt>
      <trkpt lat="38.64145" lon="-0.73971">
        <ele>787.6</ele>
        <time>2022-10-15 10:50:19</time>
      </trkpt>
      <trkpt lat="38.64142" lon="-0.73977">
        <ele>787.6</ele>
        <time>2022-10-15 10:50:20</time>
      </trkpt>
      <trkpt lat="38.64138" lon="-0.73983">
        <ele>787.6</ele>
        <time>2022-10-15 10:50:21</time>
      </trkpt>
      <trkpt lat="38.64134" lon="-0.73989">
        <ele>787.6</ele>
        <time>2022-10-15 10:50:22</time>
      </trkpt>
      <trkpt lat="38.64129" lon="-0.73995">
        <ele>787.6</ele>
        <time>2022-10-15 10:50:23</time>
      </trkpt>
      <trkpt lat="38.64123" lon="-0.73999">
        <ele>787.6</ele>
        <time>2022-10-15 10:50:24</time>
      </trkpt>
      <trkpt lat="38.64117" lon="-0.74003">
        <ele>787.4</ele>
        <time>2022-10-15 10:50:25</time>
      </trkpt>
      <trkpt lat="38.64111" lon="-0.74007">
        <ele>787</ele>
        <time>2022-10-15 10:50:26</time>
      </trkpt>
      <trkpt lat="38.64099" lon="-0.74014">
        <ele>786.2</ele>
        <time>2022-10-15 10:50:27</time>
      </trkpt>
      <trkpt lat="38.64099" lon="-0.74014">
        <ele>785.4</ele>
        <time>2022-10-15 10:50:28</time>
      </trkpt>
      <trkpt lat="38.64086" lon="-0.74021">
        <ele>784.2</ele>
        <time>2022-10-15 10:50:29</time>
      </trkpt>
      <trkpt lat="38.6408" lon="-0.74024">
        <ele>783.4</ele>
        <time>2022-10-15 10:50:30</time>
      </trkpt>
      <trkpt lat="38.64074" lon="-0.74028">
        <ele>782.8</ele>
        <time>2022-10-15 10:50:31</time>
      </trkpt>
      <trkpt lat="38.64074" lon="-0.74028">
        <ele>782.4</ele>
        <time>2022-10-15 10:50:32</time>
      </trkpt>
      <trkpt lat="38.64062" lon="-0.74035">
        <ele>782</ele>
        <time>2022-10-15 10:50:33</time>
      </trkpt>
      <trkpt lat="38.64056" lon="-0.7404">
        <ele>781.6</ele>
        <time>2022-10-15 10:50:34</time>
      </trkpt>
      <trkpt lat="38.6405" lon="-0.74044">
        <ele>781.6</ele>
        <time>2022-10-15 10:50:35</time>
      </trkpt>
      <trkpt lat="38.64045" lon="-0.74049">
        <ele>781.2</ele>
        <time>2022-10-15 10:50:36</time>
      </trkpt>
      <trkpt lat="38.6404" lon="-0.74054">
        <ele>781.2</ele>
        <time>2022-10-15 10:50:37</time>
      </trkpt>
      <trkpt lat="38.6404" lon="-0.74054">
        <ele>781</ele>
        <time>2022-10-15 10:50:38</time>
      </trkpt>
      <trkpt lat="38.64029" lon="-0.74064">
        <ele>781</ele>
        <time>2022-10-15 10:50:39</time>
      </trkpt>
      <trkpt lat="38.64029" lon="-0.74064">
        <ele>780.8</ele>
        <time>2022-10-15 10:50:40</time>
      </trkpt>
      <trkpt lat="38.64023" lon="-0.74069">
        <ele>780.8</ele>
        <time>2022-10-15 10:50:41</time>
      </trkpt>
      <trkpt lat="38.64015" lon="-0.7408">
        <ele>780.4</ele>
        <time>2022-10-15 10:50:42</time>
      </trkpt>
      <trkpt lat="38.64015" lon="-0.7408">
        <ele>780</ele>
        <time>2022-10-15 10:50:43</time>
      </trkpt>
      <trkpt lat="38.64012" lon="-0.74086">
        <ele>779.6</ele>
        <time>2022-10-15 10:50:44</time>
      </trkpt>
      <trkpt lat="38.64012" lon="-0.74093">
        <ele>779.4</ele>
        <time>2022-10-15 10:50:45</time>
      </trkpt>
      <trkpt lat="38.64013" lon="-0.741">
        <ele>779.2</ele>
        <time>2022-10-15 10:50:46</time>
      </trkpt>
      <trkpt lat="38.6402" lon="-0.74113">
        <ele>778.8</ele>
        <time>2022-10-15 10:50:47</time>
      </trkpt>
      <trkpt lat="38.64026" lon="-0.74118">
        <ele>778.6</ele>
        <time>2022-10-15 10:50:48</time>
      </trkpt>
      <trkpt lat="38.64033" lon="-0.74122">
        <ele>778.4</ele>
        <time>2022-10-15 10:50:49</time>
      </trkpt>
      <trkpt lat="38.64033" lon="-0.74122">
        <ele>778.2</ele>
        <time>2022-10-15 10:50:50</time>
      </trkpt>
      <trkpt lat="38.64049" lon="-0.74127">
        <ele>778.2</ele>
        <time>2022-10-15 10:50:51</time>
      </trkpt>
      <trkpt lat="38.64056" lon="-0.74127">
        <ele>778</ele>
        <time>2022-10-15 10:50:52</time>
      </trkpt>
      <trkpt lat="38.64064" lon="-0.74128">
        <ele>777.8</ele>
        <time>2022-10-15 10:50:53</time>
      </trkpt>
      <trkpt lat="38.6407" lon="-0.74132">
        <ele>777.4</ele>
        <time>2022-10-15 10:50:54</time>
      </trkpt>
      <trkpt lat="38.64073" lon="-0.74138">
        <ele>776.6</ele>
        <time>2022-10-15 10:50:55</time>
      </trkpt>
      <trkpt lat="38.64073" lon="-0.74138">
        <ele>775.8</ele>
        <time>2022-10-15 10:50:56</time>
      </trkpt>
      <trkpt lat="38.64074" lon="-0.74156">
        <ele>775</ele>
        <time>2022-10-15 10:50:57</time>
      </trkpt>
      <trkpt lat="38.64071" lon="-0.74166">
        <ele>774.2</ele>
        <time>2022-10-15 10:50:58</time>
      </trkpt>
      <trkpt lat="38.64067" lon="-0.74175">
        <ele>773.4</ele>
        <time>2022-10-15 10:50:59</time>
      </trkpt>
      <trkpt lat="38.64062" lon="-0.74184">
        <ele>772.6</ele>
        <time>2022-10-15 10:51:00</time>
      </trkpt>
      <trkpt lat="38.64056" lon="-0.74194">
        <ele>772</ele>
        <time>2022-10-15 10:51:01</time>
      </trkpt>
      <trkpt lat="38.64056" lon="-0.74194">
        <ele>771.4</ele>
        <time>2022-10-15 10:51:02</time>
      </trkpt>
      <trkpt lat="38.64047" lon="-0.74212">
        <ele>770.6</ele>
        <time>2022-10-15 10:51:03</time>
      </trkpt>
      <trkpt lat="38.64044" lon="-0.74222">
        <ele>769.2</ele>
        <time>2022-10-15 10:51:04</time>
      </trkpt>
      <trkpt lat="38.64043" lon="-0.74233">
        <ele>767.8</ele>
        <time>2022-10-15 10:51:05</time>
      </trkpt>
      <trkpt lat="38.64043" lon="-0.74245">
        <ele>766.6</ele>
        <time>2022-10-15 10:51:06</time>
      </trkpt>
      <trkpt lat="38.64041" lon="-0.74257">
        <ele>765.2</ele>
        <time>2022-10-15 10:51:07</time>
      </trkpt>
      <trkpt lat="38.64041" lon="-0.74257">
        <ele>764.2</ele>
        <time>2022-10-15 10:51:08</time>
      </trkpt>
      <trkpt lat="38.64031" lon="-0.74282">
        <ele>763.2</ele>
        <time>2022-10-15 10:51:09</time>
      </trkpt>
      <trkpt lat="38.64023" lon="-0.74293">
        <ele>762.2</ele>
        <time>2022-10-15 10:51:10</time>
      </trkpt>
      <trkpt lat="38.64015" lon="-0.74303">
        <ele>761.6</ele>
        <time>2022-10-15 10:51:11</time>
      </trkpt>
      <trkpt lat="38.64006" lon="-0.74314">
        <ele>761.2</ele>
        <time>2022-10-15 10:51:12</time>
      </trkpt>
      <trkpt lat="38.63996" lon="-0.74325">
        <ele>760.6</ele>
        <time>2022-10-15 10:51:13</time>
      </trkpt>
      <trkpt lat="38.63996" lon="-0.74325">
        <ele>759.8</ele>
        <time>2022-10-15 10:51:14</time>
      </trkpt>
      <trkpt lat="38.63987" lon="-0.74336">
        <ele>758.6</ele>
        <time>2022-10-15 10:51:15</time>
      </trkpt>
      <trkpt lat="38.63976" lon="-0.74346">
        <ele>757.2</ele>
        <time>2022-10-15 10:51:16</time>
      </trkpt>
      <trkpt lat="38.63965" lon="-0.74355">
        <ele>755.4</ele>
        <time>2022-10-15 10:51:17</time>
      </trkpt>
      <trkpt lat="38.63953" lon="-0.74363">
        <ele>753.4</ele>
        <time>2022-10-15 10:51:18</time>
      </trkpt>
      <trkpt lat="38.63943" lon="-0.74371">
        <ele>749.4</ele>
        <time>2022-10-15 10:51:19</time>
      </trkpt>
      <trkpt lat="38.63934" lon="-0.74378">
        <ele>747.8</ele>
        <time>2022-10-15 10:51:20</time>
      </trkpt>
      <trkpt lat="38.63926" lon="-0.74385">
        <ele>746</ele>
        <time>2022-10-15 10:51:21</time>
      </trkpt>
      <trkpt lat="38.6392" lon="-0.74392">
        <ele>743.8</ele>
        <time>2022-10-15 10:51:22</time>
      </trkpt>
      <trkpt lat="38.63916" lon="-0.74399">
        <ele>742.4</ele>
        <time>2022-10-15 10:51:23</time>
      </trkpt>
      <trkpt lat="38.63912" lon="-0.74406">
        <ele>741.6</ele>
        <time>2022-10-15 10:51:24</time>
      </trkpt>
      <trkpt lat="38.63909" lon="-0.74412">
        <ele>741</ele>
        <time>2022-10-15 10:51:25</time>
      </trkpt>
      <trkpt lat="38.63906" lon="-0.74417">
        <ele>740.8</ele>
        <time>2022-10-15 10:51:26</time>
      </trkpt>
      <trkpt lat="38.63903" lon="-0.74421">
        <ele>740.4</ele>
        <time>2022-10-15 10:51:27</time>
      </trkpt>
      <trkpt lat="38.63901" lon="-0.74425">
        <ele>740.2</ele>
        <time>2022-10-15 10:51:28</time>
      </trkpt>
      <trkpt lat="38.63899" lon="-0.74429">
        <ele>740</ele>
        <time>2022-10-15 10:51:29</time>
      </trkpt>
      <trkpt lat="38.63898" lon="-0.74432">
        <ele>739.6</ele>
        <time>2022-10-15 10:51:30</time>
      </trkpt>
      <trkpt lat="38.63897" lon="-0.74434">
        <ele>739.4</ele>
        <time>2022-10-15 10:51:31</time>
      </trkpt>
      <trkpt lat="38.63896" lon="-0.74436">
        <ele>739.2</ele>
        <time>2022-10-15 10:51:32</time>
      </trkpt>
      <trkpt lat="38.63894" lon="-0.74438">
        <ele>739.2</ele>
        <time>2022-10-15 10:51:33</time>
      </trkpt>
      <trkpt lat="38.63894" lon="-0.74437">
        <ele>739</ele>
        <time>2022-10-15 10:51:34</time>
      </trkpt>
      <trkpt lat="38.63894" lon="-0.74441">
        <ele>738</ele>
        <time>2022-10-15 10:55:05</time>
      </trkpt>
      <trkpt lat="38.63895" lon="-0.74444">
        <ele>738</ele>
        <time>2022-10-15 10:55:06</time>
      </trkpt>
      <trkpt lat="38.63896" lon="-0.74446">
        <ele>738</ele>
        <time>2022-10-15 10:55:07</time>
      </trkpt>
      <trkpt lat="38.63896" lon="-0.74446">
        <ele>738</ele>
        <time>2022-10-15 10:55:08</time>
      </trkpt>
      <trkpt lat="38.63897" lon="-0.7445">
        <ele>738</ele>
        <time>2022-10-15 10:55:09</time>
      </trkpt>
      <trkpt lat="38.63897" lon="-0.74453">
        <ele>737.8</ele>
        <time>2022-10-15 10:55:10</time>
      </trkpt>
      <trkpt lat="38.63898" lon="-0.74455">
        <ele>737.8</ele>
        <time>2022-10-15 10:55:11</time>
      </trkpt>
      <trkpt lat="38.63898" lon="-0.74457">
        <ele>737.8</ele>
        <time>2022-10-15 10:55:12</time>
      </trkpt>
      <trkpt lat="38.63898" lon="-0.74459">
        <ele>737.6</ele>
        <time>2022-10-15 10:55:13</time>
      </trkpt>
      <trkpt lat="38.63898" lon="-0.74459">
        <ele>737.8</ele>
        <time>2022-10-15 10:55:14</time>
      </trkpt>
      <trkpt lat="38.63897" lon="-0.74463">
        <ele>737.6</ele>
        <time>2022-10-15 10:55:15</time>
      </trkpt>
      <trkpt lat="38.63896" lon="-0.74466">
        <ele>737.4</ele>
        <time>2022-10-15 10:55:16</time>
      </trkpt>
      <trkpt lat="38.63896" lon="-0.74468">
        <ele>737.2</ele>
        <time>2022-10-15 10:55:17</time>
      </trkpt>
      <trkpt lat="38.63895" lon="-0.7447">
        <ele>737.2</ele>
        <time>2022-10-15 10:55:18</time>
      </trkpt>
      <trkpt lat="38.63895" lon="-0.7447">
        <ele>737.2</ele>
        <time>2022-10-15 10:55:19</time>
      </trkpt>
      <trkpt lat="38.63894" lon="-0.74473">
        <ele>737</ele>
        <time>2022-10-15 10:55:20</time>
      </trkpt>
      <trkpt lat="38.63891" lon="-0.74479">
        <ele>737</ele>
        <time>2022-10-15 10:55:21</time>
      </trkpt>
      <trkpt lat="38.63889" lon="-0.74482">
        <ele>737</ele>
        <time>2022-10-15 10:55:22</time>
      </trkpt>
      <trkpt lat="38.63887" lon="-0.74485">
        <ele>737</ele>
        <time>2022-10-15 10:55:23</time>
      </trkpt>
      <trkpt lat="38.63885" lon="-0.74489">
        <ele>737</ele>
        <time>2022-10-15 10:55:24</time>
      </trkpt>
      <trkpt lat="38.63882" lon="-0.74492">
        <ele>736.8</ele>
        <time>2022-10-15 10:55:25</time>
      </trkpt>
      <trkpt lat="38.63882" lon="-0.74492">
        <ele>736.8</ele>
        <time>2022-10-15 10:55:26</time>
      </trkpt>
      <trkpt lat="38.63876" lon="-0.74499">
        <ele>736.8</ele>
        <time>2022-10-15 10:55:27</time>
      </trkpt>
      <trkpt lat="38.63873" lon="-0.74501">
        <ele>736.8</ele>
        <time>2022-10-15 10:55:28</time>
      </trkpt>
      <trkpt lat="38.6387" lon="-0.74503">
        <ele>736.6</ele>
        <time>2022-10-15 10:55:29</time>
      </trkpt>
      <trkpt lat="38.63869" lon="-0.74504">
        <ele>736.4</ele>
        <time>2022-10-15 10:55:30</time>
      </trkpt>
      <trkpt lat="38.63867" lon="-0.74506">
        <ele>736.4</ele>
        <time>2022-10-15 10:55:31</time>
      </trkpt>
      <trkpt lat="38.63867" lon="-0.74506">
        <ele>736.4</ele>
        <time>2022-10-15 10:55:32</time>
      </trkpt>
      <trkpt lat="38.63864" lon="-0.74508">
        <ele>736.4</ele>
        <time>2022-10-15 10:55:33</time>
      </trkpt>
      <trkpt lat="38.63863" lon="-0.7451">
        <ele>736.4</ele>
        <time>2022-10-15 10:55:34</time>
      </trkpt>
      <trkpt lat="38.63862" lon="-0.74511">
        <ele>736.4</ele>
        <time>2022-10-15 10:55:35</time>
      </trkpt>
      <trkpt lat="38.6386" lon="-0.74513">
        <ele>736.4</ele>
        <time>2022-10-15 10:55:36</time>
      </trkpt>
      <trkpt lat="38.63859" lon="-0.74515">
        <ele>736.4</ele>
        <time>2022-10-15 10:55:37</time>
      </trkpt>
      <trkpt lat="38.63859" lon="-0.74515">
        <ele>736.4</ele>
        <time>2022-10-15 10:55:38</time>
      </trkpt>
      <trkpt lat="38.63855" lon="-0.74519">
        <ele>736.4</ele>
        <time>2022-10-15 10:55:39</time>
      </trkpt>
      <trkpt lat="38.63853" lon="-0.74521">
        <ele>736.4</ele>
        <time>2022-10-15 10:55:40</time>
      </trkpt>
      <trkpt lat="38.63851" lon="-0.74523">
        <ele>736.6</ele>
        <time>2022-10-15 10:55:41</time>
      </trkpt>
      <trkpt lat="38.63849" lon="-0.74527">
        <ele>736.6</ele>
        <time>2022-10-15 10:55:42</time>
      </trkpt>
      <trkpt lat="38.63847" lon="-0.74531">
        <ele>736.6</ele>
        <time>2022-10-15 10:55:43</time>
      </trkpt>
      <trkpt lat="38.63847" lon="-0.74531">
        <ele>736.6</ele>
        <time>2022-10-15 10:55:44</time>
      </trkpt>
      <trkpt lat="38.63843" lon="-0.74541">
        <ele>736.6</ele>
        <time>2022-10-15 10:55:45</time>
      </trkpt>
      <trkpt lat="38.63842" lon="-0.74548">
        <ele>736.6</ele>
        <time>2022-10-15 10:55:46</time>
      </trkpt>
      <trkpt lat="38.63841" lon="-0.74556">
        <ele>736.6</ele>
        <time>2022-10-15 10:55:47</time>
      </trkpt>
      <trkpt lat="38.6384" lon="-0.74563">
        <ele>736.6</ele>
        <time>2022-10-15 10:55:48</time>
      </trkpt>
      <trkpt lat="38.63839" lon="-0.74571">
        <ele>736.6</ele>
        <time>2022-10-15 10:55:49</time>
      </trkpt>
      <trkpt lat="38.63839" lon="-0.74571">
        <ele>736.4</ele>
        <time>2022-10-15 10:55:50</time>
      </trkpt>
      <trkpt lat="38.63837" lon="-0.74587">
        <ele>736.2</ele>
        <time>2022-10-15 10:55:51</time>
      </trkpt>
      <trkpt lat="38.63836" lon="-0.74595">
        <ele>735.6</ele>
        <time>2022-10-15 10:55:52</time>
      </trkpt>
      <trkpt lat="38.63837" lon="-0.74603">
        <ele>735</ele>
        <time>2022-10-15 10:55:53</time>
      </trkpt>
      <trkpt lat="38.63837" lon="-0.7461">
        <ele>734.6</ele>
        <time>2022-10-15 10:55:54</time>
      </trkpt>
      <trkpt lat="38.63838" lon="-0.74618">
        <ele>734</ele>
        <time>2022-10-15 10:55:55</time>
      </trkpt>
      <trkpt lat="38.63838" lon="-0.74618">
        <ele>733.6</ele>
        <time>2022-10-15 10:55:56</time>
      </trkpt>
      <trkpt lat="38.63837" lon="-0.74631">
        <ele>733.2</ele>
        <time>2022-10-15 10:55:57</time>
      </trkpt>
      <trkpt lat="38.63836" lon="-0.74636">
        <ele>733</ele>
        <time>2022-10-15 10:55:58</time>
      </trkpt>
      <trkpt lat="38.63835" lon="-0.74641">
        <ele>733</ele>
        <time>2022-10-15 10:55:59</time>
      </trkpt>
      <trkpt lat="38.63833" lon="-0.74645">
        <ele>733</ele>
        <time>2022-10-15 10:56:00</time>
      </trkpt>
      <trkpt lat="38.63831" lon="-0.74649">
        <ele>732.8</ele>
        <time>2022-10-15 10:56:01</time>
      </trkpt>
      <trkpt lat="38.63831" lon="-0.74649">
        <ele>732.8</ele>
        <time>2022-10-15 10:56:02</time>
      </trkpt>
      <trkpt lat="38.63827" lon="-0.74656">
        <ele>732.8</ele>
        <time>2022-10-15 10:56:03</time>
      </trkpt>
      <trkpt lat="38.63824" lon="-0.74659">
        <ele>732.8</ele>
        <time>2022-10-15 10:56:04</time>
      </trkpt>
      <trkpt lat="38.63822" lon="-0.74662">
        <ele>732.8</ele>
        <time>2022-10-15 10:56:05</time>
      </trkpt>
      <trkpt lat="38.63819" lon="-0.74665">
        <ele>732.8</ele>
        <time>2022-10-15 10:56:06</time>
      </trkpt>
      <trkpt lat="38.63817" lon="-0.74668">
        <ele>733.2</ele>
        <time>2022-10-15 10:56:07</time>
      </trkpt>
      <trkpt lat="38.63817" lon="-0.74668">
        <ele>733.6</ele>
        <time>2022-10-15 10:56:08</time>
      </trkpt>
      <trkpt lat="38.63812" lon="-0.74675">
        <ele>734.2</ele>
        <time>2022-10-15 10:56:09</time>
      </trkpt>
      <trkpt lat="38.6381" lon="-0.74679">
        <ele>734.6</ele>
        <time>2022-10-15 10:56:10</time>
      </trkpt>
      <trkpt lat="38.63808" lon="-0.74683">
        <ele>734.8</ele>
        <time>2022-10-15 10:56:11</time>
      </trkpt>
      <trkpt lat="38.63806" lon="-0.74687">
        <ele>735.2</ele>
        <time>2022-10-15 10:56:12</time>
      </trkpt>
      <trkpt lat="38.63804" lon="-0.74691">
        <ele>735.4</ele>
        <time>2022-10-15 10:56:13</time>
      </trkpt>
      <trkpt lat="38.63804" lon="-0.74691">
        <ele>735.4</ele>
        <time>2022-10-15 10:56:14</time>
      </trkpt>
      <trkpt lat="38.63802" lon="-0.74699">
        <ele>735.6</ele>
        <time>2022-10-15 10:56:15</time>
      </trkpt>
      <trkpt lat="38.63801" lon="-0.74703">
        <ele>736</ele>
        <time>2022-10-15 10:56:16</time>
      </trkpt>
      <trkpt lat="38.638" lon="-0.74707">
        <ele>736</ele>
        <time>2022-10-15 10:56:17</time>
      </trkpt>
      <trkpt lat="38.63799" lon="-0.74711">
        <ele>736.2</ele>
        <time>2022-10-15 10:56:18</time>
      </trkpt>
      <trkpt lat="38.63798" lon="-0.74715">
        <ele>736.2</ele>
        <time>2022-10-15 10:56:19</time>
      </trkpt>
      <trkpt lat="38.63798" lon="-0.74715">
        <ele>736.4</ele>
        <time>2022-10-15 10:56:20</time>
      </trkpt>
      <trkpt lat="38.63795" lon="-0.74722">
        <ele>736.4</ele>
        <time>2022-10-15 10:56:21</time>
      </trkpt>
      <trkpt lat="38.63794" lon="-0.74726">
        <ele>736.4</ele>
        <time>2022-10-15 10:56:22</time>
      </trkpt>
      <trkpt lat="38.63793" lon="-0.74731">
        <ele>736.4</ele>
        <time>2022-10-15 10:56:23</time>
      </trkpt>
      <trkpt lat="38.63791" lon="-0.74735">
        <ele>736.6</ele>
        <time>2022-10-15 10:56:24</time>
      </trkpt>
      <trkpt lat="38.63789" lon="-0.74739">
        <ele>736.6</ele>
        <time>2022-10-15 10:56:25</time>
      </trkpt>
      <trkpt lat="38.63789" lon="-0.74739">
        <ele>736.6</ele>
        <time>2022-10-15 10:56:26</time>
      </trkpt>
      <trkpt lat="38.63783" lon="-0.74746">
        <ele>736.8</ele>
        <time>2022-10-15 10:56:27</time>
      </trkpt>
      <trkpt lat="38.6378" lon="-0.74749">
        <ele>736.8</ele>
        <time>2022-10-15 10:56:28</time>
      </trkpt>
      <trkpt lat="38.63777" lon="-0.74751">
        <ele>736.6</ele>
        <time>2022-10-15 10:56:29</time>
      </trkpt>
      <trkpt lat="38.63775" lon="-0.74753">
        <ele>736.6</ele>
        <time>2022-10-15 10:56:30</time>
      </trkpt>
      <trkpt lat="38.63775" lon="-0.74753">
        <ele>736.8</ele>
        <time>2022-10-15 10:56:31</time>
      </trkpt>
      <trkpt lat="38.6377" lon="-0.74757">
        <ele>737.2</ele>
        <time>2022-10-15 10:56:33</time>
      </trkpt>
      <trkpt lat="38.63768" lon="-0.74759">
        <ele>737</ele>
        <time>2022-10-15 10:56:34</time>
      </trkpt>
      <trkpt lat="38.63766" lon="-0.74762">
        <ele>737.2</ele>
        <time>2022-10-15 10:56:35</time>
      </trkpt>
      <trkpt lat="38.63764" lon="-0.74765">
        <ele>737</ele>
        <time>2022-10-15 10:56:36</time>
      </trkpt>
      <trkpt lat="38.63761" lon="-0.74768">
        <ele>737.2</ele>
        <time>2022-10-15 10:56:37</time>
      </trkpt>
      <trkpt lat="38.63759" lon="-0.74772">
        <ele>737.2</ele>
        <time>2022-10-15 10:56:38</time>
      </trkpt>
      <trkpt lat="38.63756" lon="-0.74775">
        <ele>737.2</ele>
        <time>2022-10-15 10:56:39</time>
      </trkpt>
      <trkpt lat="38.63753" lon="-0.74778">
        <ele>737</ele>
        <time>2022-10-15 10:56:40</time>
      </trkpt>
      <trkpt lat="38.6375" lon="-0.74782">
        <ele>737</ele>
        <time>2022-10-15 10:56:41</time>
      </trkpt>
      <trkpt lat="38.63746" lon="-0.74786">
        <ele>736.8</ele>
        <time>2022-10-15 10:56:42</time>
      </trkpt>
      <trkpt lat="38.63743" lon="-0.7479">
        <ele>736.8</ele>
        <time>2022-10-15 10:56:43</time>
      </trkpt>
      <trkpt lat="38.6374" lon="-0.74795">
        <ele>736.8</ele>
        <time>2022-10-15 10:56:44</time>
      </trkpt>
      <trkpt lat="38.63736" lon="-0.748">
        <ele>736.8</ele>
        <time>2022-10-15 10:56:45</time>
      </trkpt>
      <trkpt lat="38.63733" lon="-0.74804">
        <ele>736.8</ele>
        <time>2022-10-15 10:56:46</time>
      </trkpt>
      <trkpt lat="38.63729" lon="-0.74809">
        <ele>736.8</ele>
        <time>2022-10-15 10:56:47</time>
      </trkpt>
      <trkpt lat="38.63726" lon="-0.74813">
        <ele>736.6</ele>
        <time>2022-10-15 10:56:48</time>
      </trkpt>
      <trkpt lat="38.6372" lon="-0.74821">
        <ele>736.4</ele>
        <time>2022-10-15 10:56:49</time>
      </trkpt>
      <trkpt lat="38.6372" lon="-0.74821">
        <ele>736</ele>
        <time>2022-10-15 10:56:50</time>
      </trkpt>
      <trkpt lat="38.63714" lon="-0.74828">
        <ele>735.8</ele>
        <time>2022-10-15 10:56:51</time>
      </trkpt>
      <trkpt lat="38.63711" lon="-0.74832">
        <ele>735.6</ele>
        <time>2022-10-15 10:56:52</time>
      </trkpt>
      <trkpt lat="38.63708" lon="-0.74835">
        <ele>735.6</ele>
        <time>2022-10-15 10:56:53</time>
      </trkpt>
      <trkpt lat="38.63705" lon="-0.74839">
        <ele>735.6</ele>
        <time>2022-10-15 10:56:54</time>
      </trkpt>
      <trkpt lat="38.63702" lon="-0.74842">
        <ele>735.4</ele>
        <time>2022-10-15 10:56:55</time>
      </trkpt>
      <trkpt lat="38.63702" lon="-0.74842">
        <ele>735.4</ele>
        <time>2022-10-15 10:56:56</time>
      </trkpt>
      <trkpt lat="38.63696" lon="-0.7485">
        <ele>735.4</ele>
        <time>2022-10-15 10:56:57</time>
      </trkpt>
      <trkpt lat="38.63693" lon="-0.74854">
        <ele>735.4</ele>
        <time>2022-10-15 10:56:58</time>
      </trkpt>
      <trkpt lat="38.6369" lon="-0.74858">
        <ele>735.2</ele>
        <time>2022-10-15 10:56:59</time>
      </trkpt>
      <trkpt lat="38.63686" lon="-0.74861">
        <ele>735.2</ele>
        <time>2022-10-15 10:57:00</time>
      </trkpt>
      <trkpt lat="38.63683" lon="-0.74865">
        <ele>735.2</ele>
        <time>2022-10-15 10:57:01</time>
      </trkpt>
      <trkpt lat="38.63683" lon="-0.74865">
        <ele>735.2</ele>
        <time>2022-10-15 10:57:02</time>
      </trkpt>
      <trkpt lat="38.63677" lon="-0.74871">
        <ele>735.2</ele>
        <time>2022-10-15 10:57:03</time>
      </trkpt>
      <trkpt lat="38.63674" lon="-0.74874">
        <ele>735.2</ele>
        <time>2022-10-15 10:57:04</time>
      </trkpt>
      <trkpt lat="38.6367" lon="-0.74877">
        <ele>735.2</ele>
        <time>2022-10-15 10:57:05</time>
      </trkpt>
      <trkpt lat="38.63668" lon="-0.7488">
        <ele>735.4</ele>
        <time>2022-10-15 10:57:06</time>
      </trkpt>
      <trkpt lat="38.63665" lon="-0.74883">
        <ele>735.4</ele>
        <time>2022-10-15 10:57:07</time>
      </trkpt>
      <trkpt lat="38.63665" lon="-0.74883">
        <ele>735.4</ele>
        <time>2022-10-15 10:57:08</time>
      </trkpt>
      <trkpt lat="38.63659" lon="-0.74889">
        <ele>735.4</ele>
        <time>2022-10-15 10:57:09</time>
      </trkpt>
      <trkpt lat="38.63656" lon="-0.74893">
        <ele>735.2</ele>
        <time>2022-10-15 10:57:10</time>
      </trkpt>
      <trkpt lat="38.63652" lon="-0.74896">
        <ele>735.2</ele>
        <time>2022-10-15 10:57:11</time>
      </trkpt>
      <trkpt lat="38.63649" lon="-0.749">
        <ele>735.2</ele>
        <time>2022-10-15 10:57:12</time>
      </trkpt>
      <trkpt lat="38.63646" lon="-0.74904">
        <ele>735.2</ele>
        <time>2022-10-15 10:57:13</time>
      </trkpt>
      <trkpt lat="38.63646" lon="-0.74904">
        <ele>735</ele>
        <time>2022-10-15 10:57:14</time>
      </trkpt>
      <trkpt lat="38.63641" lon="-0.74913">
        <ele>735</ele>
        <time>2022-10-15 10:57:15</time>
      </trkpt>
      <trkpt lat="38.63639" lon="-0.74919">
        <ele>735</ele>
        <time>2022-10-15 10:57:16</time>
      </trkpt>
      <trkpt lat="38.63639" lon="-0.74919">
        <ele>735</ele>
        <time>2022-10-15 10:57:17</time>
      </trkpt>
      <trkpt lat="38.63634" lon="-0.74929">
        <ele>735</ele>
        <time>2022-10-15 10:57:18</time>
      </trkpt>
      <trkpt lat="38.6363" lon="-0.74934">
        <ele>735</ele>
        <time>2022-10-15 10:57:19</time>
      </trkpt>
      <trkpt lat="38.6363" lon="-0.74934">
        <ele>735</ele>
        <time>2022-10-15 10:57:20</time>
      </trkpt>
      <trkpt lat="38.63619" lon="-0.74943">
        <ele>735</ele>
        <time>2022-10-15 10:57:21</time>
      </trkpt>
      <trkpt lat="38.63613" lon="-0.74946">
        <ele>734.8</ele>
        <time>2022-10-15 10:57:22</time>
      </trkpt>
      <trkpt lat="38.63608" lon="-0.7495">
        <ele>734.8</ele>
        <time>2022-10-15 10:57:23</time>
      </trkpt>
      <trkpt lat="38.63602" lon="-0.74953">
        <ele>734.8</ele>
        <time>2022-10-15 10:57:24</time>
      </trkpt>
      <trkpt lat="38.63597" lon="-0.74955">
        <ele>734.6</ele>
        <time>2022-10-15 10:57:25</time>
      </trkpt>
      <trkpt lat="38.63597" lon="-0.74955">
        <ele>734.4</ele>
        <time>2022-10-15 10:57:26</time>
      </trkpt>
      <trkpt lat="38.63586" lon="-0.74961">
        <ele>733.8</ele>
        <time>2022-10-15 10:57:27</time>
      </trkpt>
      <trkpt lat="38.63581" lon="-0.74965">
        <ele>733.2</ele>
        <time>2022-10-15 10:57:28</time>
      </trkpt>
      <trkpt lat="38.63576" lon="-0.74969">
        <ele>732.6</ele>
        <time>2022-10-15 10:57:29</time>
      </trkpt>
      <trkpt lat="38.63572" lon="-0.74974">
        <ele>732</ele>
        <time>2022-10-15 10:57:30</time>
      </trkpt>
      <trkpt lat="38.63569" lon="-0.74979">
        <ele>731.6</ele>
        <time>2022-10-15 10:57:31</time>
      </trkpt>
      <trkpt lat="38.63569" lon="-0.74979">
        <ele>731.4</ele>
        <time>2022-10-15 10:57:32</time>
      </trkpt>
      <trkpt lat="38.63562" lon="-0.7499">
        <ele>731.2</ele>
        <time>2022-10-15 10:57:33</time>
      </trkpt>
      <trkpt lat="38.63558" lon="-0.74996">
        <ele>731</ele>
        <time>2022-10-15 10:57:34</time>
      </trkpt>
      <trkpt lat="38.63554" lon="-0.75001">
        <ele>731</ele>
        <time>2022-10-15 10:57:35</time>
      </trkpt>
      <trkpt lat="38.63551" lon="-0.75007">
        <ele>731</ele>
        <time>2022-10-15 10:57:36</time>
      </trkpt>
      <trkpt lat="38.63546" lon="-0.75012">
        <ele>730.8</ele>
        <time>2022-10-15 10:57:37</time>
      </trkpt>
      <trkpt lat="38.63546" lon="-0.75012">
        <ele>730.8</ele>
        <time>2022-10-15 10:57:38</time>
      </trkpt>
      <trkpt lat="38.63538" lon="-0.75021">
        <ele>730.6</ele>
        <time>2022-10-15 10:57:39</time>
      </trkpt>
      <trkpt lat="38.63534" lon="-0.75025">
        <ele>730.6</ele>
        <time>2022-10-15 10:57:40</time>
      </trkpt>
      <trkpt lat="38.6353" lon="-0.75029">
        <ele>730.2</ele>
        <time>2022-10-15 10:57:41</time>
      </trkpt>
      <trkpt lat="38.63526" lon="-0.75034">
        <ele>730.2</ele>
        <time>2022-10-15 10:57:42</time>
      </trkpt>
      <trkpt lat="38.63522" lon="-0.75038">
        <ele>729.8</ele>
        <time>2022-10-15 10:57:43</time>
      </trkpt>
      <trkpt lat="38.63522" lon="-0.75038">
        <ele>729.8</ele>
        <time>2022-10-15 10:57:44</time>
      </trkpt>
      <trkpt lat="38.63514" lon="-0.75047">
        <ele>729.6</ele>
        <time>2022-10-15 10:57:45</time>
      </trkpt>
      <trkpt lat="38.63509" lon="-0.75051">
        <ele>729.6</ele>
        <time>2022-10-15 10:57:46</time>
      </trkpt>
      <trkpt lat="38.63509" lon="-0.75051">
        <ele>729.4</ele>
        <time>2022-10-15 10:57:47</time>
      </trkpt>
      <trkpt lat="38.635" lon="-0.75061">
        <ele>729.4</ele>
        <time>2022-10-15 10:57:48</time>
      </trkpt>
      <trkpt lat="38.63496" lon="-0.75067">
        <ele>729.4</ele>
        <time>2022-10-15 10:57:49</time>
      </trkpt>
      <trkpt lat="38.63496" lon="-0.75067">
        <ele>729.4</ele>
        <time>2022-10-15 10:57:50</time>
      </trkpt>
      <trkpt lat="38.63486" lon="-0.7508">
        <ele>729.2</ele>
        <time>2022-10-15 10:57:51</time>
      </trkpt>
      <trkpt lat="38.63482" lon="-0.75087">
        <ele>729.2</ele>
        <time>2022-10-15 10:57:52</time>
      </trkpt>
      <trkpt lat="38.63477" lon="-0.75096">
        <ele>729.2</ele>
        <time>2022-10-15 10:57:53</time>
      </trkpt>
      <trkpt lat="38.63473" lon="-0.75105">
        <ele>729</ele>
        <time>2022-10-15 10:57:54</time>
      </trkpt>
      <trkpt lat="38.63469" lon="-0.75115">
        <ele>728.8</ele>
        <time>2022-10-15 10:57:55</time>
      </trkpt>
      <trkpt lat="38.63469" lon="-0.75115">
        <ele>728.6</ele>
        <time>2022-10-15 10:57:56</time>
      </trkpt>
      <trkpt lat="38.63458" lon="-0.75134">
        <ele>728.2</ele>
        <time>2022-10-15 10:57:57</time>
      </trkpt>
      <trkpt lat="38.63452" lon="-0.75144">
        <ele>727.8</ele>
        <time>2022-10-15 10:57:58</time>
      </trkpt>
      <trkpt lat="38.63446" lon="-0.75154">
        <ele>727</ele>
        <time>2022-10-15 10:57:59</time>
      </trkpt>
      <trkpt lat="38.6344" lon="-0.75164">
        <ele>726.2</ele>
        <time>2022-10-15 10:58:00</time>
      </trkpt>
      <trkpt lat="38.63434" lon="-0.75174">
        <ele>725.4</ele>
        <time>2022-10-15 10:58:01</time>
      </trkpt>
      <trkpt lat="38.63434" lon="-0.75174">
        <ele>724.6</ele>
        <time>2022-10-15 10:58:02</time>
      </trkpt>
      <trkpt lat="38.63421" lon="-0.75194">
        <ele>724</ele>
        <time>2022-10-15 10:58:03</time>
      </trkpt>
      <trkpt lat="38.63414" lon="-0.75203">
        <ele>723</ele>
        <time>2022-10-15 10:58:04</time>
      </trkpt>
      <trkpt lat="38.63408" lon="-0.75212">
        <ele>721.6</ele>
        <time>2022-10-15 10:58:05</time>
      </trkpt>
      <trkpt lat="38.63402" lon="-0.7522">
        <ele>720.6</ele>
        <time>2022-10-15 10:58:06</time>
      </trkpt>
      <trkpt lat="38.63396" lon="-0.75228">
        <ele>719.4</ele>
        <time>2022-10-15 10:58:07</time>
      </trkpt>
      <trkpt lat="38.63396" lon="-0.75228">
        <ele>717.2</ele>
        <time>2022-10-15 10:58:08</time>
      </trkpt>
      <trkpt lat="38.63387" lon="-0.75245">
        <ele>716.6</ele>
        <time>2022-10-15 10:58:09</time>
      </trkpt>
      <trkpt lat="38.63383" lon="-0.75254">
        <ele>716.2</ele>
        <time>2022-10-15 10:58:10</time>
      </trkpt>
      <trkpt lat="38.63378" lon="-0.75262">
        <ele>716</ele>
        <time>2022-10-15 10:58:11</time>
      </trkpt>
      <trkpt lat="38.63373" lon="-0.75269">
        <ele>716</ele>
        <time>2022-10-15 10:58:12</time>
      </trkpt>
      <trkpt lat="38.63368" lon="-0.75275">
        <ele>715.8</ele>
        <time>2022-10-15 10:58:13</time>
      </trkpt>
      <trkpt lat="38.63368" lon="-0.75275">
        <ele>715.8</ele>
        <time>2022-10-15 10:58:14</time>
      </trkpt>
      <trkpt lat="38.63358" lon="-0.7529">
        <ele>715.8</ele>
        <time>2022-10-15 10:58:15</time>
      </trkpt>
      <trkpt lat="38.63355" lon="-0.75298">
        <ele>715.6</ele>
        <time>2022-10-15 10:58:16</time>
      </trkpt>
      <trkpt lat="38.63353" lon="-0.75306">
        <ele>715.6</ele>
        <time>2022-10-15 10:58:17</time>
      </trkpt>
      <trkpt lat="38.63353" lon="-0.75306">
        <ele>715.4</ele>
        <time>2022-10-15 10:58:18</time>
      </trkpt>
      <trkpt lat="38.63349" lon="-0.75314">
        <ele>715.4</ele>
        <time>2022-10-15 10:58:19</time>
      </trkpt>
      <trkpt lat="38.63344" lon="-0.7532">
        <ele>715.4</ele>
        <time>2022-10-15 10:58:20</time>
      </trkpt>
      <trkpt lat="38.63337" lon="-0.75324">
        <ele>715</ele>
        <time>2022-10-15 10:58:21</time>
      </trkpt>
      <trkpt lat="38.63331" lon="-0.75327">
        <ele>714.6</ele>
        <time>2022-10-15 10:58:22</time>
      </trkpt>
      <trkpt lat="38.63324" lon="-0.75332">
        <ele>714.4</ele>
        <time>2022-10-15 10:58:23</time>
      </trkpt>
      <trkpt lat="38.63319" lon="-0.75337">
        <ele>714.2</ele>
        <time>2022-10-15 10:58:24</time>
      </trkpt>
      <trkpt lat="38.63314" lon="-0.75342">
        <ele>713.8</ele>
        <time>2022-10-15 10:58:25</time>
      </trkpt>
      <trkpt lat="38.63309" lon="-0.75348">
        <ele>713.6</ele>
        <time>2022-10-15 10:58:26</time>
      </trkpt>
      <trkpt lat="38.63305" lon="-0.75354">
        <ele>712.6</ele>
        <time>2022-10-15 10:58:27</time>
      </trkpt>
      <trkpt lat="38.63301" lon="-0.75361">
        <ele>711.8</ele>
        <time>2022-10-15 10:58:28</time>
      </trkpt>
      <trkpt lat="38.63298" lon="-0.75369">
        <ele>711.6</ele>
        <time>2022-10-15 10:58:29</time>
      </trkpt>
      <trkpt lat="38.63296" lon="-0.75376">
        <ele>711.2</ele>
        <time>2022-10-15 10:58:30</time>
      </trkpt>
      <trkpt lat="38.63294" lon="-0.75384">
        <ele>711</ele>
        <time>2022-10-15 10:58:31</time>
      </trkpt>
      <trkpt lat="38.63293" lon="-0.75391">
        <ele>710.8</ele>
        <time>2022-10-15 10:58:32</time>
      </trkpt>
      <trkpt lat="38.63293" lon="-0.75397">
        <ele>710.8</ele>
        <time>2022-10-15 10:58:33</time>
      </trkpt>
      <trkpt lat="38.63293" lon="-0.75404">
        <ele>710.6</ele>
        <time>2022-10-15 10:58:34</time>
      </trkpt>
      <trkpt lat="38.63291" lon="-0.7541">
        <ele>710.6</ele>
        <time>2022-10-15 10:58:35</time>
      </trkpt>
      <trkpt lat="38.63285" lon="-0.75421">
        <ele>710.4</ele>
        <time>2022-10-15 10:58:36</time>
      </trkpt>
      <trkpt lat="38.6328" lon="-0.75423">
        <ele>710.4</ele>
        <time>2022-10-15 10:58:37</time>
      </trkpt>
      <trkpt lat="38.6328" lon="-0.75423">
        <ele>710.4</ele>
        <time>2022-10-15 10:58:38</time>
      </trkpt>
      <trkpt lat="38.63269" lon="-0.75426">
        <ele>710.4</ele>
        <time>2022-10-15 10:58:39</time>
      </trkpt>
      <trkpt lat="38.63265" lon="-0.75427">
        <ele>710.4</ele>
        <time>2022-10-15 10:58:40</time>
      </trkpt>
      <trkpt lat="38.63262" lon="-0.75428">
        <ele>710.4</ele>
        <time>2022-10-15 10:58:41</time>
      </trkpt>
      <trkpt lat="38.63259" lon="-0.7543">
        <ele>709.8</ele>
        <time>2022-10-15 10:58:42</time>
      </trkpt>
      <trkpt lat="38.63257" lon="-0.75432">
        <ele>708.8</ele>
        <time>2022-10-15 10:58:43</time>
      </trkpt>
      <trkpt lat="38.63257" lon="-0.75432">
        <ele>707.4</ele>
        <time>2022-10-15 10:58:44</time>
      </trkpt>
      <trkpt lat="38.63254" lon="-0.75438">
        <ele>706</ele>
        <time>2022-10-15 10:58:45</time>
      </trkpt>
      <trkpt lat="38.63254" lon="-0.75441">
        <ele>704.8</ele>
        <time>2022-10-15 10:58:46</time>
      </trkpt>
      <trkpt lat="38.63252" lon="-0.75443">
        <ele>704</ele>
        <time>2022-10-15 10:58:47</time>
      </trkpt>
      <trkpt lat="38.63251" lon="-0.75444">
        <ele>703.2</ele>
        <time>2022-10-15 10:58:48</time>
      </trkpt>
      <trkpt lat="38.63249" lon="-0.75444">
        <ele>702.8</ele>
        <time>2022-10-15 10:58:49</time>
      </trkpt>
      <trkpt lat="38.63249" lon="-0.75444">
        <ele>702</ele>
        <time>2022-10-15 10:58:50</time>
      </trkpt>
      <trkpt lat="38.63243" lon="-0.7544">
        <ele>701.6</ele>
        <time>2022-10-15 10:58:51</time>
      </trkpt>
      <trkpt lat="38.63239" lon="-0.75437">
        <ele>701</ele>
        <time>2022-10-15 10:58:52</time>
      </trkpt>
      <trkpt lat="38.63236" lon="-0.75434">
        <ele>700.4</ele>
        <time>2022-10-15 10:58:53</time>
      </trkpt>
      <trkpt lat="38.63233" lon="-0.75429">
        <ele>699.8</ele>
        <time>2022-10-15 10:58:54</time>
      </trkpt>
      <trkpt lat="38.63232" lon="-0.75424">
        <ele>699.6</ele>
        <time>2022-10-15 10:58:55</time>
      </trkpt>
      <trkpt lat="38.63232" lon="-0.75424">
        <ele>699.2</ele>
        <time>2022-10-15 10:58:56</time>
      </trkpt>
      <trkpt lat="38.63234" lon="-0.75414">
        <ele>698.6</ele>
        <time>2022-10-15 10:58:57</time>
      </trkpt>
      <trkpt lat="38.63234" lon="-0.7541">
        <ele>697.8</ele>
        <time>2022-10-15 10:58:58</time>
      </trkpt>
      <trkpt lat="38.63234" lon="-0.75406">
        <ele>697</ele>
        <time>2022-10-15 10:58:59</time>
      </trkpt>
      <trkpt lat="38.63232" lon="-0.75403">
        <ele>696</ele>
        <time>2022-10-15 10:59:00</time>
      </trkpt>
      <trkpt lat="38.6323" lon="-0.75403">
        <ele>695</ele>
        <time>2022-10-15 10:59:01</time>
      </trkpt>
      <trkpt lat="38.6323" lon="-0.75403">
        <ele>694.2</ele>
        <time>2022-10-15 10:59:02</time>
      </trkpt>
      <trkpt lat="38.63224" lon="-0.75405">
        <ele>693.6</ele>
        <time>2022-10-15 10:59:03</time>
      </trkpt>
      <trkpt lat="38.63221" lon="-0.75408">
        <ele>692.2</ele>
        <time>2022-10-15 10:59:04</time>
      </trkpt>
      <trkpt lat="38.63218" lon="-0.75412">
        <ele>691.6</ele>
        <time>2022-10-15 10:59:05</time>
      </trkpt>
      <trkpt lat="38.63215" lon="-0.75417">
        <ele>691</ele>
        <time>2022-10-15 10:59:06</time>
      </trkpt>
      <trkpt lat="38.63214" lon="-0.75423">
        <ele>690.6</ele>
        <time>2022-10-15 10:59:07</time>
      </trkpt>
      <trkpt lat="38.63214" lon="-0.75423">
        <ele>690</ele>
        <time>2022-10-15 10:59:08</time>
      </trkpt>
      <trkpt lat="38.6321" lon="-0.75437">
        <ele>689.6</ele>
        <time>2022-10-15 10:59:09</time>
      </trkpt>
      <trkpt lat="38.63208" lon="-0.75443">
        <ele>689</ele>
        <time>2022-10-15 10:59:10</time>
      </trkpt>
      <trkpt lat="38.63204" lon="-0.7545">
        <ele>688.4</ele>
        <time>2022-10-15 10:59:11</time>
      </trkpt>
      <trkpt lat="38.63203" lon="-0.75459">
        <ele>687.6</ele>
        <time>2022-10-15 10:59:12</time>
      </trkpt>
      <trkpt lat="38.63202" lon="-0.75468">
        <ele>687</ele>
        <time>2022-10-15 10:59:13</time>
      </trkpt>
      <trkpt lat="38.63202" lon="-0.75468">
        <ele>686.4</ele>
        <time>2022-10-15 10:59:14</time>
      </trkpt>
      <trkpt lat="38.63199" lon="-0.75486">
        <ele>685.6</ele>
        <time>2022-10-15 10:59:15</time>
      </trkpt>
      <trkpt lat="38.63197" lon="-0.75495">
        <ele>684.8</ele>
        <time>2022-10-15 10:59:16</time>
      </trkpt>
      <trkpt lat="38.63194" lon="-0.75505">
        <ele>684.4</ele>
        <time>2022-10-15 10:59:17</time>
      </trkpt>
      <trkpt lat="38.63191" lon="-0.75516">
        <ele>683.6</ele>
        <time>2022-10-15 10:59:18</time>
      </trkpt>
      <trkpt lat="38.63189" lon="-0.75527">
        <ele>682.4</ele>
        <time>2022-10-15 10:59:19</time>
      </trkpt>
      <trkpt lat="38.63189" lon="-0.75527">
        <ele>681</ele>
        <time>2022-10-15 10:59:20</time>
      </trkpt>
      <trkpt lat="38.63186" lon="-0.75548">
        <ele>680.2</ele>
        <time>2022-10-15 10:59:21</time>
      </trkpt>
      <trkpt lat="38.63185" lon="-0.75558">
        <ele>679.6</ele>
        <time>2022-10-15 10:59:22</time>
      </trkpt>
      <trkpt lat="38.63183" lon="-0.75566">
        <ele>679.2</ele>
        <time>2022-10-15 10:59:23</time>
      </trkpt>
      <trkpt lat="38.6318" lon="-0.75574">
        <ele>678.4</ele>
        <time>2022-10-15 10:59:24</time>
      </trkpt>
      <trkpt lat="38.63177" lon="-0.7558">
        <ele>677.4</ele>
        <time>2022-10-15 10:59:25</time>
      </trkpt>
      <trkpt lat="38.63177" lon="-0.7558">
        <ele>676.2</ele>
        <time>2022-10-15 10:59:26</time>
      </trkpt>
      <trkpt lat="38.6317" lon="-0.75587">
        <ele>675.8</ele>
        <time>2022-10-15 10:59:27</time>
      </trkpt>
      <trkpt lat="38.63167" lon="-0.75589">
        <ele>675.6</ele>
        <time>2022-10-15 10:59:28</time>
      </trkpt>
      <trkpt lat="38.63164" lon="-0.75592">
        <ele>675.4</ele>
        <time>2022-10-15 10:59:29</time>
      </trkpt>
      <trkpt lat="38.63161" lon="-0.75595">
        <ele>675.4</ele>
        <time>2022-10-15 10:59:30</time>
      </trkpt>
      <trkpt lat="38.6316" lon="-0.75599">
        <ele>675.4</ele>
        <time>2022-10-15 10:59:31</time>
      </trkpt>
      <trkpt lat="38.6316" lon="-0.75599">
        <ele>675.4</ele>
        <time>2022-10-15 10:59:32</time>
      </trkpt>
      <trkpt lat="38.63157" lon="-0.75607">
        <ele>675.4</ele>
        <time>2022-10-15 10:59:33</time>
      </trkpt>
      <trkpt lat="38.63156" lon="-0.75611">
        <ele>675.4</ele>
        <time>2022-10-15 10:59:34</time>
      </trkpt>
      <trkpt lat="38.63154" lon="-0.75616">
        <ele>675.4</ele>
        <time>2022-10-15 10:59:35</time>
      </trkpt>
      <trkpt lat="38.63152" lon="-0.75621">
        <ele>675.4</ele>
        <time>2022-10-15 10:59:36</time>
      </trkpt>
      <trkpt lat="38.63149" lon="-0.75626">
        <ele>675.4</ele>
        <time>2022-10-15 10:59:37</time>
      </trkpt>
      <trkpt lat="38.63149" lon="-0.75626">
        <ele>675.4</ele>
        <time>2022-10-15 10:59:38</time>
      </trkpt>
      <trkpt lat="38.63144" lon="-0.75635">
        <ele>675.6</ele>
        <time>2022-10-15 10:59:39</time>
      </trkpt>
      <trkpt lat="38.63141" lon="-0.75638">
        <ele>675.6</ele>
        <time>2022-10-15 10:59:40</time>
      </trkpt>
      <trkpt lat="38.63138" lon="-0.75642">
        <ele>675.8</ele>
        <time>2022-10-15 10:59:41</time>
      </trkpt>
      <trkpt lat="38.63136" lon="-0.75645">
        <ele>675.8</ele>
        <time>2022-10-15 10:59:42</time>
      </trkpt>
      <trkpt lat="38.63133" lon="-0.75648">
        <ele>675.8</ele>
        <time>2022-10-15 10:59:43</time>
      </trkpt>
      <trkpt lat="38.63133" lon="-0.75648">
        <ele>676</ele>
        <time>2022-10-15 10:59:44</time>
      </trkpt>
      <trkpt lat="38.63128" lon="-0.75654">
        <ele>676</ele>
        <time>2022-10-15 10:59:45</time>
      </trkpt>
      <trkpt lat="38.63126" lon="-0.75657">
        <ele>676.2</ele>
        <time>2022-10-15 10:59:46</time>
      </trkpt>
      <trkpt lat="38.63124" lon="-0.7566">
        <ele>676.2</ele>
        <time>2022-10-15 10:59:47</time>
      </trkpt>
      <trkpt lat="38.63122" lon="-0.75662">
        <ele>676.2</ele>
        <time>2022-10-15 10:59:48</time>
      </trkpt>
      <trkpt lat="38.6312" lon="-0.75665">
        <ele>676.2</ele>
        <time>2022-10-15 10:59:49</time>
      </trkpt>
      <trkpt lat="38.6312" lon="-0.75665">
        <ele>676.2</ele>
        <time>2022-10-15 10:59:50</time>
      </trkpt>
      <trkpt lat="38.63117" lon="-0.75668">
        <ele>676.4</ele>
        <time>2022-10-15 10:59:51</time>
      </trkpt>
      <trkpt lat="38.63116" lon="-0.7567">
        <ele>676.6</ele>
        <time>2022-10-15 10:59:52</time>
      </trkpt>
      <trkpt lat="38.63115" lon="-0.75672">
        <ele>676.6</ele>
        <time>2022-10-15 10:59:53</time>
      </trkpt>
      <trkpt lat="38.63113" lon="-0.75674">
        <ele>676.8</ele>
        <time>2022-10-15 10:59:54</time>
      </trkpt>
      <trkpt lat="38.63112" lon="-0.75677">
        <ele>676.8</ele>
        <time>2022-10-15 10:59:55</time>
      </trkpt>
      <trkpt lat="38.63112" lon="-0.75677">
        <ele>677</ele>
        <time>2022-10-15 10:59:56</time>
      </trkpt>
      <trkpt lat="38.63109" lon="-0.75681">
        <ele>677.4</ele>
        <time>2022-10-15 10:59:57</time>
      </trkpt>
      <trkpt lat="38.63107" lon="-0.75684">
        <ele>677.8</ele>
        <time>2022-10-15 10:59:58</time>
      </trkpt>
      <trkpt lat="38.63106" lon="-0.75687">
        <ele>678.2</ele>
        <time>2022-10-15 10:59:59</time>
      </trkpt>
      <trkpt lat="38.63105" lon="-0.75689">
        <ele>678.4</ele>
        <time>2022-10-15 11:00:00</time>
      </trkpt>
      <trkpt lat="38.63104" lon="-0.75692">
        <ele>678.4</ele>
        <time>2022-10-15 11:00:01</time>
      </trkpt>
      <trkpt lat="38.63104" lon="-0.75692">
        <ele>678.6</ele>
        <time>2022-10-15 11:00:02</time>
      </trkpt>
      <trkpt lat="38.63101" lon="-0.75697">
        <ele>678.6</ele>
        <time>2022-10-15 11:00:03</time>
      </trkpt>
      <trkpt lat="38.63101" lon="-0.75697">
        <ele>678.6</ele>
        <time>2022-10-15 11:00:04</time>
      </trkpt>
      <trkpt lat="38.63101" lon="-0.75701">
        <ele>678.8</ele>
        <time>2022-10-15 11:00:05</time>
      </trkpt>
      <trkpt lat="38.631" lon="-0.75704">
        <ele>678.8</ele>
        <time>2022-10-15 11:00:06</time>
      </trkpt>
      <trkpt lat="38.631" lon="-0.75707">
        <ele>679</ele>
        <time>2022-10-15 11:00:07</time>
      </trkpt>
      <trkpt lat="38.63099" lon="-0.7571">
        <ele>679</ele>
        <time>2022-10-15 11:00:08</time>
      </trkpt>
      <trkpt lat="38.63099" lon="-0.75713">
        <ele>679.2</ele>
        <time>2022-10-15 11:00:09</time>
      </trkpt>
      <trkpt lat="38.63099" lon="-0.75716">
        <ele>679.2</ele>
        <time>2022-10-15 11:00:10</time>
      </trkpt>
      <trkpt lat="38.63099" lon="-0.75719">
        <ele>679.4</ele>
        <time>2022-10-15 11:00:11</time>
      </trkpt>
      <trkpt lat="38.63098" lon="-0.75721">
        <ele>679.6</ele>
        <time>2022-10-15 11:00:12</time>
      </trkpt>
      <trkpt lat="38.63098" lon="-0.75723">
        <ele>679.6</ele>
        <time>2022-10-15 11:00:13</time>
      </trkpt>
      <trkpt lat="38.63097" lon="-0.75726">
        <ele>679.6</ele>
        <time>2022-10-15 11:00:14</time>
      </trkpt>
      <trkpt lat="38.63096" lon="-0.75728">
        <ele>679.8</ele>
        <time>2022-10-15 11:00:15</time>
      </trkpt>
      <trkpt lat="38.63095" lon="-0.75731">
        <ele>680</ele>
        <time>2022-10-15 11:00:16</time>
      </trkpt>
      <trkpt lat="38.63095" lon="-0.75733">
        <ele>680</ele>
        <time>2022-10-15 11:00:17</time>
      </trkpt>
      <trkpt lat="38.63094" lon="-0.75734">
        <ele>680</ele>
        <time>2022-10-15 11:00:18</time>
      </trkpt>
      <trkpt lat="38.63093" lon="-0.75736">
        <ele>680.4</ele>
        <time>2022-10-15 11:00:19</time>
      </trkpt>
      <trkpt lat="38.63091" lon="-0.75738">
        <ele>680.6</ele>
        <time>2022-10-15 11:00:20</time>
      </trkpt>
      <trkpt lat="38.6309" lon="-0.75739">
        <ele>680.8</ele>
        <time>2022-10-15 11:00:21</time>
      </trkpt>
      <trkpt lat="38.63087" lon="-0.75743">
        <ele>680.8</ele>
        <time>2022-10-15 11:00:22</time>
      </trkpt>
      <trkpt lat="38.63086" lon="-0.75744">
        <ele>681</ele>
        <time>2022-10-15 11:00:23</time>
      </trkpt>
      <trkpt lat="38.63084" lon="-0.75745">
        <ele>681.4</ele>
        <time>2022-10-15 11:00:24</time>
      </trkpt>
      <trkpt lat="38.63083" lon="-0.75746">
        <ele>681.8</ele>
        <time>2022-10-15 11:00:25</time>
      </trkpt>
      <trkpt lat="38.63083" lon="-0.75746">
        <ele>682</ele>
        <time>2022-10-15 11:00:26</time>
      </trkpt>
      <trkpt lat="38.63081" lon="-0.75748">
        <ele>682.2</ele>
        <time>2022-10-15 11:00:27</time>
      </trkpt>
      <trkpt lat="38.6308" lon="-0.7575">
        <ele>682.4</ele>
        <time>2022-10-15 11:00:28</time>
      </trkpt>
      <trkpt lat="38.63079" lon="-0.75752">
        <ele>682.8</ele>
        <time>2022-10-15 11:00:29</time>
      </trkpt>
      <trkpt lat="38.63078" lon="-0.75754">
        <ele>683.2</ele>
        <time>2022-10-15 11:00:30</time>
      </trkpt>
      <trkpt lat="38.63077" lon="-0.75757">
        <ele>683.4</ele>
        <time>2022-10-15 11:00:31</time>
      </trkpt>
      <trkpt lat="38.63077" lon="-0.75757">
        <ele>683.8</ele>
        <time>2022-10-15 11:00:32</time>
      </trkpt>
      <trkpt lat="38.63076" lon="-0.75762">
        <ele>684</ele>
        <time>2022-10-15 11:00:33</time>
      </trkpt>
      <trkpt lat="38.63075" lon="-0.75764">
        <ele>684.4</ele>
        <time>2022-10-15 11:00:34</time>
      </trkpt>
      <trkpt lat="38.63075" lon="-0.75767">
        <ele>684.6</ele>
        <time>2022-10-15 11:00:35</time>
      </trkpt>
      <trkpt lat="38.63074" lon="-0.75769">
        <ele>684.8</ele>
        <time>2022-10-15 11:00:36</time>
      </trkpt>
      <trkpt lat="38.63074" lon="-0.75772">
        <ele>685</ele>
        <time>2022-10-15 11:00:37</time>
      </trkpt>
      <trkpt lat="38.63074" lon="-0.75772">
        <ele>685.2</ele>
        <time>2022-10-15 11:00:38</time>
      </trkpt>
      <trkpt lat="38.63072" lon="-0.75777">
        <ele>685.4</ele>
        <time>2022-10-15 11:00:39</time>
      </trkpt>
      <trkpt lat="38.63072" lon="-0.7578">
        <ele>685.6</ele>
        <time>2022-10-15 11:00:40</time>
      </trkpt>
      <trkpt lat="38.63071" lon="-0.75782">
        <ele>685.8</ele>
        <time>2022-10-15 11:00:41</time>
      </trkpt>
      <trkpt lat="38.6307" lon="-0.75785">
        <ele>686</ele>
        <time>2022-10-15 11:00:42</time>
      </trkpt>
      <trkpt lat="38.63069" lon="-0.75788">
        <ele>686.2</ele>
        <time>2022-10-15 11:00:43</time>
      </trkpt>
      <trkpt lat="38.63069" lon="-0.75788">
        <ele>686.2</ele>
        <time>2022-10-15 11:00:44</time>
      </trkpt>
      <trkpt lat="38.63066" lon="-0.75795">
        <ele>686.4</ele>
        <time>2022-10-15 11:00:45</time>
      </trkpt>
      <trkpt lat="38.63065" lon="-0.75799">
        <ele>686.4</ele>
        <time>2022-10-15 11:00:46</time>
      </trkpt>
      <trkpt lat="38.63062" lon="-0.75802">
        <ele>686.6</ele>
        <time>2022-10-15 11:00:47</time>
      </trkpt>
      <trkpt lat="38.6306" lon="-0.75806">
        <ele>686.6</ele>
        <time>2022-10-15 11:00:48</time>
      </trkpt>
      <trkpt lat="38.63058" lon="-0.75809">
        <ele>686.6</ele>
        <time>2022-10-15 11:00:49</time>
      </trkpt>
      <trkpt lat="38.63058" lon="-0.75809">
        <ele>686.6</ele>
        <time>2022-10-15 11:00:50</time>
      </trkpt>
      <trkpt lat="38.63052" lon="-0.75817">
        <ele>686.6</ele>
        <time>2022-10-15 11:00:51</time>
      </trkpt>
      <trkpt lat="38.6305" lon="-0.75821">
        <ele>686.6</ele>
        <time>2022-10-15 11:00:52</time>
      </trkpt>
      <trkpt lat="38.63048" lon="-0.75824">
        <ele>686.6</ele>
        <time>2022-10-15 11:00:53</time>
      </trkpt>
      <trkpt lat="38.63045" lon="-0.75827">
        <ele>686.6</ele>
        <time>2022-10-15 11:00:54</time>
      </trkpt>
      <trkpt lat="38.63042" lon="-0.75829">
        <ele>686.6</ele>
        <time>2022-10-15 11:00:55</time>
      </trkpt>
      <trkpt lat="38.63042" lon="-0.75829">
        <ele>686.6</ele>
        <time>2022-10-15 11:00:56</time>
      </trkpt>
      <trkpt lat="38.63035" lon="-0.75834">
        <ele>686.4</ele>
        <time>2022-10-15 11:00:57</time>
      </trkpt>
      <trkpt lat="38.63032" lon="-0.75838">
        <ele>686.4</ele>
        <time>2022-10-15 11:00:58</time>
      </trkpt>
      <trkpt lat="38.63029" lon="-0.75841">
        <ele>686.2</ele>
        <time>2022-10-15 11:00:59</time>
      </trkpt>
      <trkpt lat="38.63026" lon="-0.75845">
        <ele>686.2</ele>
        <time>2022-10-15 11:01:00</time>
      </trkpt>
      <trkpt lat="38.63023" lon="-0.75849">
        <ele>686.2</ele>
        <time>2022-10-15 11:01:01</time>
      </trkpt>
      <trkpt lat="38.63023" lon="-0.75849">
        <ele>686.2</ele>
        <time>2022-10-15 11:01:02</time>
      </trkpt>
      <trkpt lat="38.63016" lon="-0.75856">
        <ele>686.2</ele>
        <time>2022-10-15 11:01:03</time>
      </trkpt>
      <trkpt lat="38.63013" lon="-0.7586">
        <ele>686</ele>
        <time>2022-10-15 11:01:04</time>
      </trkpt>
      <trkpt lat="38.6301" lon="-0.75864">
        <ele>686</ele>
        <time>2022-10-15 11:01:05</time>
      </trkpt>
      <trkpt lat="38.63006" lon="-0.75868">
        <ele>686</ele>
        <time>2022-10-15 11:01:06</time>
      </trkpt>
      <trkpt lat="38.63003" lon="-0.75871">
        <ele>685.8</ele>
        <time>2022-10-15 11:01:07</time>
      </trkpt>
      <trkpt lat="38.63003" lon="-0.75871">
        <ele>685.8</ele>
        <time>2022-10-15 11:01:08</time>
      </trkpt>
      <trkpt lat="38.62996" lon="-0.75879">
        <ele>685.6</ele>
        <time>2022-10-15 11:01:09</time>
      </trkpt>
      <trkpt lat="38.62992" lon="-0.75883">
        <ele>685.6</ele>
        <time>2022-10-15 11:01:10</time>
      </trkpt>
      <trkpt lat="38.62989" lon="-0.75887">
        <ele>685.4</ele>
        <time>2022-10-15 11:01:11</time>
      </trkpt>
      <trkpt lat="38.62986" lon="-0.7589">
        <ele>685.4</ele>
        <time>2022-10-15 11:01:12</time>
      </trkpt>
      <trkpt lat="38.62983" lon="-0.75893">
        <ele>685.2</ele>
        <time>2022-10-15 11:01:13</time>
      </trkpt>
      <trkpt lat="38.62983" lon="-0.75893">
        <ele>685.2</ele>
        <time>2022-10-15 11:01:14</time>
      </trkpt>
      <trkpt lat="38.62977" lon="-0.759">
        <ele>685.2</ele>
        <time>2022-10-15 11:01:15</time>
      </trkpt>
      <trkpt lat="38.62975" lon="-0.75903">
        <ele>685.2</ele>
        <time>2022-10-15 11:01:16</time>
      </trkpt>
      <trkpt lat="38.62972" lon="-0.75906">
        <ele>685.2</ele>
        <time>2022-10-15 11:01:17</time>
      </trkpt>
      <trkpt lat="38.62969" lon="-0.75909">
        <ele>685.2</ele>
        <time>2022-10-15 11:01:18</time>
      </trkpt>
      <trkpt lat="38.62966" lon="-0.75911">
        <ele>685.2</ele>
        <time>2022-10-15 11:01:19</time>
      </trkpt>
      <trkpt lat="38.62966" lon="-0.75911">
        <ele>685.2</ele>
        <time>2022-10-15 11:01:20</time>
      </trkpt>
      <trkpt lat="38.62961" lon="-0.75916">
        <ele>685.2</ele>
        <time>2022-10-15 11:01:21</time>
      </trkpt>
      <trkpt lat="38.62959" lon="-0.75919">
        <ele>685.2</ele>
        <time>2022-10-15 11:01:22</time>
      </trkpt>
      <trkpt lat="38.62957" lon="-0.75922">
        <ele>685.4</ele>
        <time>2022-10-15 11:01:23</time>
      </trkpt>
      <trkpt lat="38.62954" lon="-0.75925">
        <ele>685.4</ele>
        <time>2022-10-15 11:01:24</time>
      </trkpt>
      <trkpt lat="38.62952" lon="-0.75928">
        <ele>685.4</ele>
        <time>2022-10-15 11:01:25</time>
      </trkpt>
      <trkpt lat="38.62952" lon="-0.75928">
        <ele>685.4</ele>
        <time>2022-10-15 11:01:26</time>
      </trkpt>
      <trkpt lat="38.62947" lon="-0.75934">
        <ele>685.6</ele>
        <time>2022-10-15 11:01:27</time>
      </trkpt>
      <trkpt lat="38.62945" lon="-0.75936">
        <ele>686</ele>
        <time>2022-10-15 11:01:28</time>
      </trkpt>
      <trkpt lat="38.62943" lon="-0.75939">
        <ele>686.2</ele>
        <time>2022-10-15 11:01:29</time>
      </trkpt>
      <trkpt lat="38.62942" lon="-0.75942">
        <ele>686.2</ele>
        <time>2022-10-15 11:01:30</time>
      </trkpt>
      <trkpt lat="38.6294" lon="-0.75945">
        <ele>686.4</ele>
        <time>2022-10-15 11:01:31</time>
      </trkpt>
      <trkpt lat="38.6294" lon="-0.75945">
        <ele>686.6</ele>
        <time>2022-10-15 11:01:32</time>
      </trkpt>
      <trkpt lat="38.62937" lon="-0.75951">
        <ele>686.8</ele>
        <time>2022-10-15 11:01:33</time>
      </trkpt>
      <trkpt lat="38.62936" lon="-0.75954">
        <ele>686.8</ele>
        <time>2022-10-15 11:01:34</time>
      </trkpt>
      <trkpt lat="38.62934" lon="-0.75957">
        <ele>687</ele>
        <time>2022-10-15 11:01:35</time>
      </trkpt>
      <trkpt lat="38.62933" lon="-0.7596">
        <ele>687.2</ele>
        <time>2022-10-15 11:01:36</time>
      </trkpt>
      <trkpt lat="38.62931" lon="-0.75962">
        <ele>687.4</ele>
        <time>2022-10-15 11:01:37</time>
      </trkpt>
      <trkpt lat="38.62931" lon="-0.75962">
        <ele>687.6</ele>
        <time>2022-10-15 11:01:38</time>
      </trkpt>
      <trkpt lat="38.62928" lon="-0.75967">
        <ele>687.8</ele>
        <time>2022-10-15 11:01:39</time>
      </trkpt>
      <trkpt lat="38.62927" lon="-0.75969">
        <ele>688</ele>
        <time>2022-10-15 11:01:40</time>
      </trkpt>
      <trkpt lat="38.62926" lon="-0.75971">
        <ele>688.2</ele>
        <time>2022-10-15 11:01:41</time>
      </trkpt>
      <trkpt lat="38.62925" lon="-0.75973">
        <ele>688.6</ele>
        <time>2022-10-15 11:01:42</time>
      </trkpt>
      <trkpt lat="38.62924" lon="-0.75975">
        <ele>688.8</ele>
        <time>2022-10-15 11:01:43</time>
      </trkpt>
      <trkpt lat="38.62924" lon="-0.75975">
        <ele>689</ele>
        <time>2022-10-15 11:01:44</time>
      </trkpt>
      <trkpt lat="38.62923" lon="-0.7598">
        <ele>689.2</ele>
        <time>2022-10-15 11:01:45</time>
      </trkpt>
      <trkpt lat="38.62922" lon="-0.75983">
        <ele>689.4</ele>
        <time>2022-10-15 11:01:46</time>
      </trkpt>
      <trkpt lat="38.62923" lon="-0.75986">
        <ele>689.8</ele>
        <time>2022-10-15 11:01:47</time>
      </trkpt>
      <trkpt lat="38.62923" lon="-0.75991">
        <ele>690</ele>
        <time>2022-10-15 11:01:48</time>
      </trkpt>
      <trkpt lat="38.62923" lon="-0.75991">
        <ele>690</ele>
        <time>2022-10-15 11:01:49</time>
      </trkpt>
      <trkpt lat="38.62924" lon="-0.75997">
        <ele>690</ele>
        <time>2022-10-15 11:01:50</time>
      </trkpt>
      <trkpt lat="38.62924" lon="-0.76003">
        <ele>690</ele>
        <time>2022-10-15 11:01:51</time>
      </trkpt>
      <trkpt lat="38.62924" lon="-0.76011">
        <ele>690</ele>
        <time>2022-10-15 11:01:52</time>
      </trkpt>
      <trkpt lat="38.62924" lon="-0.76019">
        <ele>690</ele>
        <time>2022-10-15 11:01:53</time>
      </trkpt>
      <trkpt lat="38.62924" lon="-0.76028">
        <ele>690</ele>
        <time>2022-10-15 11:01:54</time>
      </trkpt>
      <trkpt lat="38.62925" lon="-0.76038">
        <ele>690</ele>
        <time>2022-10-15 11:01:55</time>
      </trkpt>
      <trkpt lat="38.62925" lon="-0.76048">
        <ele>690</ele>
        <time>2022-10-15 11:01:56</time>
      </trkpt>
      <trkpt lat="38.62925" lon="-0.76058">
        <ele>690</ele>
        <time>2022-10-15 11:01:57</time>
      </trkpt>
      <trkpt lat="38.62925" lon="-0.76068">
        <ele>689.6</ele>
        <time>2022-10-15 11:01:58</time>
      </trkpt>
      <trkpt lat="38.62926" lon="-0.76078">
        <ele>689</ele>
        <time>2022-10-15 11:01:59</time>
      </trkpt>
      <trkpt lat="38.62926" lon="-0.76088">
        <ele>688.4</ele>
        <time>2022-10-15 11:02:00</time>
      </trkpt>
      <trkpt lat="38.62926" lon="-0.76096">
        <ele>687.6</ele>
        <time>2022-10-15 11:02:01</time>
      </trkpt>
      <trkpt lat="38.62926" lon="-0.76104">
        <ele>687</ele>
        <time>2022-10-15 11:02:02</time>
      </trkpt>
      <trkpt lat="38.62926" lon="-0.76112">
        <ele>686.2</ele>
        <time>2022-10-15 11:02:03</time>
      </trkpt>
      <trkpt lat="38.62926" lon="-0.7612">
        <ele>685.4</ele>
        <time>2022-10-15 11:02:04</time>
      </trkpt>
      <trkpt lat="38.62926" lon="-0.76126">
        <ele>684.8</ele>
        <time>2022-10-15 11:02:05</time>
      </trkpt>
      <trkpt lat="38.62926" lon="-0.76133">
        <ele>684.4</ele>
        <time>2022-10-15 11:02:06</time>
      </trkpt>
      <trkpt lat="38.6293" lon="-0.76145">
        <ele>684.4</ele>
        <time>2022-10-15 11:02:07</time>
      </trkpt>
      <trkpt lat="38.6293" lon="-0.76145">
        <ele>684.2</ele>
        <time>2022-10-15 11:02:08</time>
      </trkpt>
      <trkpt lat="38.62936" lon="-0.76154">
        <ele>684.2</ele>
        <time>2022-10-15 11:02:09</time>
      </trkpt>
      <trkpt lat="38.62938" lon="-0.76157">
        <ele>684</ele>
        <time>2022-10-15 11:02:10</time>
      </trkpt>
      <trkpt lat="38.62941" lon="-0.76161">
        <ele>683.8</ele>
        <time>2022-10-15 11:02:11</time>
      </trkpt>
      <trkpt lat="38.62944" lon="-0.76164">
        <ele>683.8</ele>
        <time>2022-10-15 11:02:12</time>
      </trkpt>
      <trkpt lat="38.62946" lon="-0.76167">
        <ele>683.8</ele>
        <time>2022-10-15 11:02:13</time>
      </trkpt>
      <trkpt lat="38.62946" lon="-0.76167">
        <ele>683.8</ele>
        <time>2022-10-15 11:02:14</time>
      </trkpt>
      <trkpt lat="38.6295" lon="-0.76173">
        <ele>683.8</ele>
        <time>2022-10-15 11:02:15</time>
      </trkpt>
      <trkpt lat="38.62951" lon="-0.76175">
        <ele>684</ele>
        <time>2022-10-15 11:02:16</time>
      </trkpt>
      <trkpt lat="38.62952" lon="-0.76177">
        <ele>684</ele>
        <time>2022-10-15 11:02:17</time>
      </trkpt>
      <trkpt lat="38.62953" lon="-0.76178">
        <ele>684</ele>
        <time>2022-10-15 11:02:18</time>
      </trkpt>
      <trkpt lat="38.62953" lon="-0.76179">
        <ele>684</ele>
        <time>2022-10-15 11:02:19</time>
      </trkpt>
      <trkpt lat="38.62953" lon="-0.76179">
        <ele>684</ele>
        <time>2022-10-15 11:02:20</time>
      </trkpt>
      <trkpt lat="38.62953" lon="-0.76181">
        <ele>684</ele>
        <time>2022-10-15 11:02:21</time>
      </trkpt>
      <trkpt lat="38.62953" lon="-0.76182">
        <ele>684.2</ele>
        <time>2022-10-15 11:02:22</time>
      </trkpt>
      <trkpt lat="38.62954" lon="-0.76184">
        <ele>684.2</ele>
        <time>2022-10-15 11:02:23</time>
      </trkpt>
      <trkpt lat="38.62954" lon="-0.76185">
        <ele>684.2</ele>
        <time>2022-10-15 11:02:24</time>
      </trkpt>
      <trkpt lat="38.62954" lon="-0.76186">
        <ele>684.4</ele>
        <time>2022-10-15 11:02:25</time>
      </trkpt>
      <trkpt lat="38.62954" lon="-0.76186">
        <ele>684.4</ele>
        <time>2022-10-15 11:02:26</time>
      </trkpt>
      <trkpt lat="38.62954" lon="-0.76188">
        <ele>684.6</ele>
        <time>2022-10-15 11:02:27</time>
      </trkpt>
      <trkpt lat="38.62954" lon="-0.76188">
        <ele>684.6</ele>
        <time>2022-10-15 11:02:28</time>
      </trkpt>
      <trkpt lat="38.62959" lon="-0.76194">
        <ele>685.6</ele>
        <time>2022-10-15 11:27:20</time>
      </trkpt>
      <trkpt lat="38.6296" lon="-0.76193">
        <ele>685.6</ele>
        <time>2022-10-15 11:27:21</time>
      </trkpt>
      <trkpt lat="38.62961" lon="-0.76193">
        <ele>685.6</ele>
        <time>2022-10-15 11:27:22</time>
      </trkpt>
      <trkpt lat="38.62962" lon="-0.76194">
        <ele>685.6</ele>
        <time>2022-10-15 11:27:23</time>
      </trkpt>
      <trkpt lat="38.62963" lon="-0.76194">
        <ele>685.6</ele>
        <time>2022-10-15 11:27:24</time>
      </trkpt>
      <trkpt lat="38.62963" lon="-0.76194">
        <ele>685.6</ele>
        <time>2022-10-15 11:27:25</time>
      </trkpt>
      <trkpt lat="38.62964" lon="-0.76196">
        <ele>685.6</ele>
        <time>2022-10-15 11:27:26</time>
      </trkpt>
      <trkpt lat="38.62965" lon="-0.76197">
        <ele>685.6</ele>
        <time>2022-10-15 11:27:27</time>
      </trkpt>
      <trkpt lat="38.62966" lon="-0.76199">
        <ele>685.6</ele>
        <time>2022-10-15 11:27:28</time>
      </trkpt>
      <trkpt lat="38.62967" lon="-0.762">
        <ele>685.6</ele>
        <time>2022-10-15 11:27:29</time>
      </trkpt>
      <trkpt lat="38.62968" lon="-0.76201">
        <ele>685.6</ele>
        <time>2022-10-15 11:27:30</time>
      </trkpt>
      <trkpt lat="38.62968" lon="-0.76201">
        <ele>685.4</ele>
        <time>2022-10-15 11:27:31</time>
      </trkpt>
      <trkpt lat="38.62969" lon="-0.76204">
        <ele>685.4</ele>
        <time>2022-10-15 11:27:32</time>
      </trkpt>
      <trkpt lat="38.6297" lon="-0.76205">
        <ele>685.4</ele>
        <time>2022-10-15 11:27:33</time>
      </trkpt>
      <trkpt lat="38.62972" lon="-0.76206">
        <ele>685.4</ele>
        <time>2022-10-15 11:27:34</time>
      </trkpt>
      <trkpt lat="38.62973" lon="-0.76207">
        <ele>685.4</ele>
        <time>2022-10-15 11:27:35</time>
      </trkpt>
      <trkpt lat="38.62974" lon="-0.76208">
        <ele>685.4</ele>
        <time>2022-10-15 11:27:36</time>
      </trkpt>
      <trkpt lat="38.62974" lon="-0.76208">
        <ele>685.4</ele>
        <time>2022-10-15 11:27:37</time>
      </trkpt>
      <trkpt lat="38.62976" lon="-0.76211">
        <ele>685.4</ele>
        <time>2022-10-15 11:27:38</time>
      </trkpt>
      <trkpt lat="38.62978" lon="-0.76212">
        <ele>685.6</ele>
        <time>2022-10-15 11:27:39</time>
      </trkpt>
      <trkpt lat="38.62979" lon="-0.76213">
        <ele>685.6</ele>
        <time>2022-10-15 11:27:40</time>
      </trkpt>
      <trkpt lat="38.6298" lon="-0.76214">
        <ele>685.6</ele>
        <time>2022-10-15 11:27:41</time>
      </trkpt>
      <trkpt lat="38.62981" lon="-0.76216">
        <ele>685.6</ele>
        <time>2022-10-15 11:27:42</time>
      </trkpt>
      <trkpt lat="38.62981" lon="-0.76216">
        <ele>685.6</ele>
        <time>2022-10-15 11:27:43</time>
      </trkpt>
      <trkpt lat="38.62984" lon="-0.76217">
        <ele>685.6</ele>
        <time>2022-10-15 11:27:44</time>
      </trkpt>
      <trkpt lat="38.62985" lon="-0.76218">
        <ele>685.6</ele>
        <time>2022-10-15 11:27:45</time>
      </trkpt>
      <trkpt lat="38.62986" lon="-0.7622">
        <ele>685.8</ele>
        <time>2022-10-15 11:27:46</time>
      </trkpt>
      <trkpt lat="38.62987" lon="-0.76222">
        <ele>685.8</ele>
        <time>2022-10-15 11:27:47</time>
      </trkpt>
      <trkpt lat="38.62987" lon="-0.76224">
        <ele>685.8</ele>
        <time>2022-10-15 11:27:48</time>
      </trkpt>
      <trkpt lat="38.62987" lon="-0.76224">
        <ele>686</ele>
        <time>2022-10-15 11:27:49</time>
      </trkpt>
      <trkpt lat="38.62989" lon="-0.76228">
        <ele>686.2</ele>
        <time>2022-10-15 11:27:50</time>
      </trkpt>
      <trkpt lat="38.6299" lon="-0.7623">
        <ele>686.2</ele>
        <time>2022-10-15 11:27:51</time>
      </trkpt>
      <trkpt lat="38.62991" lon="-0.76232">
        <ele>686.4</ele>
        <time>2022-10-15 11:27:52</time>
      </trkpt>
      <trkpt lat="38.62993" lon="-0.76233">
        <ele>686.4</ele>
        <time>2022-10-15 11:27:53</time>
      </trkpt>
      <trkpt lat="38.62994" lon="-0.76235">
        <ele>686.6</ele>
        <time>2022-10-15 11:27:54</time>
      </trkpt>
      <trkpt lat="38.62994" lon="-0.76235">
        <ele>686.6</ele>
        <time>2022-10-15 11:27:55</time>
      </trkpt>
      <trkpt lat="38.62995" lon="-0.76238">
        <ele>686.6</ele>
        <time>2022-10-15 11:27:56</time>
      </trkpt>
      <trkpt lat="38.62994" lon="-0.7624">
        <ele>686.6</ele>
        <time>2022-10-15 11:27:57</time>
      </trkpt>
      <trkpt lat="38.62994" lon="-0.76242">
        <ele>686.6</ele>
        <time>2022-10-15 11:27:58</time>
      </trkpt>
      <trkpt lat="38.62994" lon="-0.76244">
        <ele>686.6</ele>
        <time>2022-10-15 11:27:59</time>
      </trkpt>
      <trkpt lat="38.62993" lon="-0.76246">
        <ele>686.6</ele>
        <time>2022-10-15 11:28:00</time>
      </trkpt>
      <trkpt lat="38.62993" lon="-0.76246">
        <ele>686.6</ele>
        <time>2022-10-15 11:28:01</time>
      </trkpt>
      <trkpt lat="38.62991" lon="-0.76251">
        <ele>686.6</ele>
        <time>2022-10-15 11:28:02</time>
      </trkpt>
      <trkpt lat="38.6299" lon="-0.76253">
        <ele>686.6</ele>
        <time>2022-10-15 11:28:03</time>
      </trkpt>
      <trkpt lat="38.62989" lon="-0.76256">
        <ele>686.6</ele>
        <time>2022-10-15 11:28:04</time>
      </trkpt>
      <trkpt lat="38.62989" lon="-0.76259">
        <ele>686.6</ele>
        <time>2022-10-15 11:28:05</time>
      </trkpt>
      <trkpt lat="38.62988" lon="-0.76262">
        <ele>686.8</ele>
        <time>2022-10-15 11:28:06</time>
      </trkpt>
      <trkpt lat="38.62988" lon="-0.76262">
        <ele>686.8</ele>
        <time>2022-10-15 11:28:07</time>
      </trkpt>
      <trkpt lat="38.62987" lon="-0.76268">
        <ele>686.8</ele>
        <time>2022-10-15 11:28:08</time>
      </trkpt>
      <trkpt lat="38.62986" lon="-0.7627">
        <ele>686.8</ele>
        <time>2022-10-15 11:28:09</time>
      </trkpt>
      <trkpt lat="38.62985" lon="-0.76273">
        <ele>686.8</ele>
        <time>2022-10-15 11:28:10</time>
      </trkpt>
      <trkpt lat="38.62984" lon="-0.76276">
        <ele>686.8</ele>
        <time>2022-10-15 11:28:11</time>
      </trkpt>
      <trkpt lat="38.62982" lon="-0.76278">
        <ele>686.8</ele>
        <time>2022-10-15 11:28:12</time>
      </trkpt>
      <trkpt lat="38.62982" lon="-0.76278">
        <ele>686.8</ele>
        <time>2022-10-15 11:28:13</time>
      </trkpt>
      <trkpt lat="38.6298" lon="-0.76283">
        <ele>686.8</ele>
        <time>2022-10-15 11:28:14</time>
      </trkpt>
      <trkpt lat="38.62979" lon="-0.76286">
        <ele>686.8</ele>
        <time>2022-10-15 11:28:15</time>
      </trkpt>
      <trkpt lat="38.62978" lon="-0.76288">
        <ele>686.8</ele>
        <time>2022-10-15 11:28:16</time>
      </trkpt>
      <trkpt lat="38.62978" lon="-0.76291">
        <ele>686.8</ele>
        <time>2022-10-15 11:28:17</time>
      </trkpt>
      <trkpt lat="38.62977" lon="-0.76293">
        <ele>686.8</ele>
        <time>2022-10-15 11:28:18</time>
      </trkpt>
      <trkpt lat="38.62977" lon="-0.76293">
        <ele>687</ele>
        <time>2022-10-15 11:28:19</time>
      </trkpt>
      <trkpt lat="38.62975" lon="-0.76298">
        <ele>687</ele>
        <time>2022-10-15 11:28:20</time>
      </trkpt>
      <trkpt lat="38.62974" lon="-0.76301">
        <ele>687</ele>
        <time>2022-10-15 11:28:21</time>
      </trkpt>
      <trkpt lat="38.62973" lon="-0.76304">
        <ele>687</ele>
        <time>2022-10-15 11:28:22</time>
      </trkpt>
      <trkpt lat="38.62972" lon="-0.76307">
        <ele>687</ele>
        <time>2022-10-15 11:28:23</time>
      </trkpt>
      <trkpt lat="38.62971" lon="-0.7631">
        <ele>687</ele>
        <time>2022-10-15 11:28:24</time>
      </trkpt>
      <trkpt lat="38.62971" lon="-0.7631">
        <ele>687</ele>
        <time>2022-10-15 11:28:25</time>
      </trkpt>
      <trkpt lat="38.6297" lon="-0.76315">
        <ele>687</ele>
        <time>2022-10-15 11:28:26</time>
      </trkpt>
      <trkpt lat="38.62969" lon="-0.76318">
        <ele>687.2</ele>
        <time>2022-10-15 11:28:27</time>
      </trkpt>
      <trkpt lat="38.62969" lon="-0.76321">
        <ele>687.2</ele>
        <time>2022-10-15 11:28:28</time>
      </trkpt>
      <trkpt lat="38.62968" lon="-0.76323">
        <ele>687.4</ele>
        <time>2022-10-15 11:28:29</time>
      </trkpt>
      <trkpt lat="38.62968" lon="-0.76326">
        <ele>687.4</ele>
        <time>2022-10-15 11:28:30</time>
      </trkpt>
      <trkpt lat="38.62968" lon="-0.76326">
        <ele>687.6</ele>
        <time>2022-10-15 11:28:31</time>
      </trkpt>
      <trkpt lat="38.62966" lon="-0.76331">
        <ele>687.6</ele>
        <time>2022-10-15 11:28:32</time>
      </trkpt>
      <trkpt lat="38.62966" lon="-0.76333">
        <ele>687.8</ele>
        <time>2022-10-15 11:28:33</time>
      </trkpt>
      <trkpt lat="38.62965" lon="-0.76335">
        <ele>687.8</ele>
        <time>2022-10-15 11:28:34</time>
      </trkpt>
      <trkpt lat="38.62965" lon="-0.76338">
        <ele>688</ele>
        <time>2022-10-15 11:28:35</time>
      </trkpt>
      <trkpt lat="38.62965" lon="-0.76341">
        <ele>688</ele>
        <time>2022-10-15 11:28:36</time>
      </trkpt>
      <trkpt lat="38.62965" lon="-0.76341">
        <ele>688</ele>
        <time>2022-10-15 11:28:37</time>
      </trkpt>
      <trkpt lat="38.62964" lon="-0.76346">
        <ele>688</ele>
        <time>2022-10-15 11:28:38</time>
      </trkpt>
      <trkpt lat="38.62965" lon="-0.76348">
        <ele>688</ele>
        <time>2022-10-15 11:28:39</time>
      </trkpt>
      <trkpt lat="38.62964" lon="-0.76352">
        <ele>688</ele>
        <time>2022-10-15 11:28:40</time>
      </trkpt>
      <trkpt lat="38.62964" lon="-0.76355">
        <ele>688</ele>
        <time>2022-10-15 11:28:41</time>
      </trkpt>
      <trkpt lat="38.62964" lon="-0.76358">
        <ele>688</ele>
        <time>2022-10-15 11:28:42</time>
      </trkpt>
      <trkpt lat="38.62964" lon="-0.76358">
        <ele>688.2</ele>
        <time>2022-10-15 11:28:43</time>
      </trkpt>
      <trkpt lat="38.62964" lon="-0.76364">
        <ele>688.2</ele>
        <time>2022-10-15 11:28:44</time>
      </trkpt>
      <trkpt lat="38.62964" lon="-0.76367">
        <ele>688.2</ele>
        <time>2022-10-15 11:28:45</time>
      </trkpt>
      <trkpt lat="38.62964" lon="-0.7637">
        <ele>688.2</ele>
        <time>2022-10-15 11:28:46</time>
      </trkpt>
      <trkpt lat="38.62965" lon="-0.76374">
        <ele>688.2</ele>
        <time>2022-10-15 11:28:47</time>
      </trkpt>
      <trkpt lat="38.62966" lon="-0.76377">
        <ele>688.2</ele>
        <time>2022-10-15 11:28:48</time>
      </trkpt>
      <trkpt lat="38.62966" lon="-0.76377">
        <ele>688.2</ele>
        <time>2022-10-15 11:28:49</time>
      </trkpt>
      <trkpt lat="38.62966" lon="-0.7638">
        <ele>688.2</ele>
        <time>2022-10-15 11:28:50</time>
      </trkpt>
      <trkpt lat="38.62966" lon="-0.76382">
        <ele>688.2</ele>
        <time>2022-10-15 11:28:51</time>
      </trkpt>
      <trkpt lat="38.62967" lon="-0.76384">
        <ele>688.2</ele>
        <time>2022-10-15 11:28:52</time>
      </trkpt>
      <trkpt lat="38.62966" lon="-0.76387">
        <ele>688.2</ele>
        <time>2022-10-15 11:28:53</time>
      </trkpt>
      <trkpt lat="38.62967" lon="-0.7639">
        <ele>688.2</ele>
        <time>2022-10-15 11:28:54</time>
      </trkpt>
      <trkpt lat="38.62967" lon="-0.76392">
        <ele>688.2</ele>
        <time>2022-10-15 11:28:55</time>
      </trkpt>
      <trkpt lat="38.62967" lon="-0.76395">
        <ele>688.2</ele>
        <time>2022-10-15 11:28:56</time>
      </trkpt>
      <trkpt lat="38.62968" lon="-0.76398">
        <ele>688.2</ele>
        <time>2022-10-15 11:28:57</time>
      </trkpt>
      <trkpt lat="38.62969" lon="-0.76401">
        <ele>688.2</ele>
        <time>2022-10-15 11:28:58</time>
      </trkpt>
      <trkpt lat="38.62969" lon="-0.76404">
        <ele>688.2</ele>
        <time>2022-10-15 11:28:59</time>
      </trkpt>
      <trkpt lat="38.62969" lon="-0.76408">
        <ele>688.2</ele>
        <time>2022-10-15 11:29:00</time>
      </trkpt>
      <trkpt lat="38.6297" lon="-0.76411">
        <ele>688.2</ele>
        <time>2022-10-15 11:29:01</time>
      </trkpt>
      <trkpt lat="38.62971" lon="-0.76414">
        <ele>688.2</ele>
        <time>2022-10-15 11:29:02</time>
      </trkpt>
      <trkpt lat="38.62972" lon="-0.76417">
        <ele>688.2</ele>
        <time>2022-10-15 11:29:03</time>
      </trkpt>
      <trkpt lat="38.62974" lon="-0.76419">
        <ele>688.2</ele>
        <time>2022-10-15 11:29:04</time>
      </trkpt>
      <trkpt lat="38.62975" lon="-0.76422">
        <ele>688.2</ele>
        <time>2022-10-15 11:29:05</time>
      </trkpt>
      <trkpt lat="38.62977" lon="-0.76426">
        <ele>688.2</ele>
        <time>2022-10-15 11:29:06</time>
      </trkpt>
      <trkpt lat="38.62978" lon="-0.7643">
        <ele>688.2</ele>
        <time>2022-10-15 11:29:07</time>
      </trkpt>
      <trkpt lat="38.6298" lon="-0.76438">
        <ele>688.2</ele>
        <time>2022-10-15 11:29:08</time>
      </trkpt>
      <trkpt lat="38.62981" lon="-0.76442">
        <ele>688.2</ele>
        <time>2022-10-15 11:29:09</time>
      </trkpt>
      <trkpt lat="38.62982" lon="-0.76446">
        <ele>688.4</ele>
        <time>2022-10-15 11:29:10</time>
      </trkpt>
      <trkpt lat="38.62982" lon="-0.7645">
        <ele>688.4</ele>
        <time>2022-10-15 11:29:11</time>
      </trkpt>
      <trkpt lat="38.62984" lon="-0.76453">
        <ele>688.4</ele>
        <time>2022-10-15 11:29:12</time>
      </trkpt>
      <trkpt lat="38.62984" lon="-0.76453">
        <ele>688.4</ele>
        <time>2022-10-15 11:29:13</time>
      </trkpt>
      <trkpt lat="38.62988" lon="-0.76459">
        <ele>688.4</ele>
        <time>2022-10-15 11:29:14</time>
      </trkpt>
      <trkpt lat="38.6299" lon="-0.76462">
        <ele>688.4</ele>
        <time>2022-10-15 11:29:15</time>
      </trkpt>
      <trkpt lat="38.62992" lon="-0.76465">
        <ele>688.4</ele>
        <time>2022-10-15 11:29:16</time>
      </trkpt>
      <trkpt lat="38.62993" lon="-0.76469">
        <ele>688.4</ele>
        <time>2022-10-15 11:29:17</time>
      </trkpt>
      <trkpt lat="38.62994" lon="-0.76474">
        <ele>688.4</ele>
        <time>2022-10-15 11:29:18</time>
      </trkpt>
      <trkpt lat="38.62994" lon="-0.76474">
        <ele>688.4</ele>
        <time>2022-10-15 11:29:19</time>
      </trkpt>
      <trkpt lat="38.62997" lon="-0.76485">
        <ele>688.2</ele>
        <time>2022-10-15 11:29:20</time>
      </trkpt>
      <trkpt lat="38.62999" lon="-0.7649">
        <ele>688.2</ele>
        <time>2022-10-15 11:29:21</time>
      </trkpt>
      <trkpt lat="38.63001" lon="-0.76495">
        <ele>688.2</ele>
        <time>2022-10-15 11:29:22</time>
      </trkpt>
      <trkpt lat="38.63003" lon="-0.765">
        <ele>688.2</ele>
        <time>2022-10-15 11:29:23</time>
      </trkpt>
      <trkpt lat="38.63007" lon="-0.76506">
        <ele>688</ele>
        <time>2022-10-15 11:29:24</time>
      </trkpt>
      <trkpt lat="38.63007" lon="-0.76506">
        <ele>687.8</ele>
        <time>2022-10-15 11:29:25</time>
      </trkpt>
      <trkpt lat="38.63012" lon="-0.76516">
        <ele>687.6</ele>
        <time>2022-10-15 11:29:26</time>
      </trkpt>
      <trkpt lat="38.63014" lon="-0.7652">
        <ele>687.4</ele>
        <time>2022-10-15 11:29:27</time>
      </trkpt>
      <trkpt lat="38.63016" lon="-0.76525">
        <ele>687.2</ele>
        <time>2022-10-15 11:29:28</time>
      </trkpt>
      <trkpt lat="38.63018" lon="-0.76529">
        <ele>687</ele>
        <time>2022-10-15 11:29:29</time>
      </trkpt>
      <trkpt lat="38.63019" lon="-0.76533">
        <ele>687</ele>
        <time>2022-10-15 11:29:30</time>
      </trkpt>
      <trkpt lat="38.63019" lon="-0.76533">
        <ele>687</ele>
        <time>2022-10-15 11:29:31</time>
      </trkpt>
      <trkpt lat="38.63022" lon="-0.76538">
        <ele>687</ele>
        <time>2022-10-15 11:29:32</time>
      </trkpt>
      <trkpt lat="38.63023" lon="-0.7654">
        <ele>687</ele>
        <time>2022-10-15 11:29:33</time>
      </trkpt>
      <trkpt lat="38.63023" lon="-0.76543">
        <ele>687</ele>
        <time>2022-10-15 11:29:34</time>
      </trkpt>
      <trkpt lat="38.63023" lon="-0.76546">
        <ele>686.8</ele>
        <time>2022-10-15 11:29:35</time>
      </trkpt>
      <trkpt lat="38.63023" lon="-0.76548">
        <ele>686.8</ele>
        <time>2022-10-15 11:29:36</time>
      </trkpt>
      <trkpt lat="38.63023" lon="-0.76548">
        <ele>686.8</ele>
        <time>2022-10-15 11:29:37</time>
      </trkpt>
      <trkpt lat="38.63021" lon="-0.76552">
        <ele>687</ele>
        <time>2022-10-15 11:29:38</time>
      </trkpt>
      <trkpt lat="38.63021" lon="-0.76554">
        <ele>687</ele>
        <time>2022-10-15 11:29:39</time>
      </trkpt>
      <trkpt lat="38.6302" lon="-0.76554">
        <ele>687</ele>
        <time>2022-10-15 11:29:40</time>
      </trkpt>
      <trkpt lat="38.6302" lon="-0.76556">
        <ele>687</ele>
        <time>2022-10-15 11:29:41</time>
      </trkpt>
      <trkpt lat="38.62999" lon="-0.76585">
        <ele>686.4</ele>
        <time>2022-10-15 11:34:26</time>
      </trkpt>
      <trkpt lat="38.62995" lon="-0.76589">
        <ele>686.4</ele>
        <time>2022-10-15 11:34:27</time>
      </trkpt>
      <trkpt lat="38.62993" lon="-0.76591">
        <ele>686.2</ele>
        <time>2022-10-15 11:34:28</time>
      </trkpt>
      <trkpt lat="38.62991" lon="-0.76593">
        <ele>686.2</ele>
        <time>2022-10-15 11:34:29</time>
      </trkpt>
      <trkpt lat="38.62988" lon="-0.76596">
        <ele>686.2</ele>
        <time>2022-10-15 11:34:30</time>
      </trkpt>
      <trkpt lat="38.62988" lon="-0.76596">
        <ele>686</ele>
        <time>2022-10-15 11:34:31</time>
      </trkpt>
      <trkpt lat="38.62983" lon="-0.76602">
        <ele>685.8</ele>
        <time>2022-10-15 11:34:32</time>
      </trkpt>
      <trkpt lat="38.62981" lon="-0.76606">
        <ele>685.8</ele>
        <time>2022-10-15 11:34:33</time>
      </trkpt>
      <trkpt lat="38.62978" lon="-0.76609">
        <ele>685.6</ele>
        <time>2022-10-15 11:34:34</time>
      </trkpt>
      <trkpt lat="38.62976" lon="-0.76611">
        <ele>685.4</ele>
        <time>2022-10-15 11:34:35</time>
      </trkpt>
      <trkpt lat="38.62973" lon="-0.76613">
        <ele>685.2</ele>
        <time>2022-10-15 11:34:36</time>
      </trkpt>
      <trkpt lat="38.62973" lon="-0.76613">
        <ele>684.8</ele>
        <time>2022-10-15 11:34:37</time>
      </trkpt>
      <trkpt lat="38.62967" lon="-0.76615">
        <ele>684.4</ele>
        <time>2022-10-15 11:34:38</time>
      </trkpt>
      <trkpt lat="38.62964" lon="-0.76616">
        <ele>683.6</ele>
        <time>2022-10-15 11:34:39</time>
      </trkpt>
      <trkpt lat="38.62962" lon="-0.76615">
        <ele>682.8</ele>
        <time>2022-10-15 11:34:40</time>
      </trkpt>
      <trkpt lat="38.62958" lon="-0.76614">
        <ele>682.2</ele>
        <time>2022-10-15 11:34:41</time>
      </trkpt>
      <trkpt lat="38.62952" lon="-0.76613">
        <ele>681.8</ele>
        <time>2022-10-15 11:34:42</time>
      </trkpt>
      <trkpt lat="38.62952" lon="-0.76613">
        <ele>681.6</ele>
        <time>2022-10-15 11:34:43</time>
      </trkpt>
      <trkpt lat="38.62939" lon="-0.76611">
        <ele>681.2</ele>
        <time>2022-10-15 11:34:44</time>
      </trkpt>
      <trkpt lat="38.62932" lon="-0.7661">
        <ele>680.8</ele>
        <time>2022-10-15 11:34:45</time>
      </trkpt>
      <trkpt lat="38.62926" lon="-0.76608">
        <ele>680.2</ele>
        <time>2022-10-15 11:34:46</time>
      </trkpt>
      <trkpt lat="38.6292" lon="-0.76607">
        <ele>679.6</ele>
        <time>2022-10-15 11:34:47</time>
      </trkpt>
      <trkpt lat="38.62913" lon="-0.76605">
        <ele>679</ele>
        <time>2022-10-15 11:34:48</time>
      </trkpt>
      <trkpt lat="38.62913" lon="-0.76605">
        <ele>678.6</ele>
        <time>2022-10-15 11:34:49</time>
      </trkpt>
      <trkpt lat="38.62897" lon="-0.76602">
        <ele>678</ele>
        <time>2022-10-15 11:34:50</time>
      </trkpt>
      <trkpt lat="38.62889" lon="-0.76601">
        <ele>677.6</ele>
        <time>2022-10-15 11:34:51</time>
      </trkpt>
      <trkpt lat="38.62881" lon="-0.766">
        <ele>677.2</ele>
        <time>2022-10-15 11:34:52</time>
      </trkpt>
      <trkpt lat="38.62874" lon="-0.76598">
        <ele>676.8</ele>
        <time>2022-10-15 11:34:53</time>
      </trkpt>
      <trkpt lat="38.62866" lon="-0.76597">
        <ele>676.4</ele>
        <time>2022-10-15 11:34:54</time>
      </trkpt>
      <trkpt lat="38.62866" lon="-0.76597">
        <ele>675.6</ele>
        <time>2022-10-15 11:34:55</time>
      </trkpt>
      <trkpt lat="38.6285" lon="-0.76595">
        <ele>674.8</ele>
        <time>2022-10-15 11:34:56</time>
      </trkpt>
      <trkpt lat="38.62842" lon="-0.76594">
        <ele>673.8</ele>
        <time>2022-10-15 11:34:57</time>
      </trkpt>
      <trkpt lat="38.62835" lon="-0.76592">
        <ele>672.8</ele>
        <time>2022-10-15 11:34:58</time>
      </trkpt>
      <trkpt lat="38.62829" lon="-0.76591">
        <ele>672.2</ele>
        <time>2022-10-15 11:34:59</time>
      </trkpt>
      <trkpt lat="38.62824" lon="-0.7659">
        <ele>671.8</ele>
        <time>2022-10-15 11:35:00</time>
      </trkpt>
      <trkpt lat="38.62824" lon="-0.7659">
        <ele>671.6</ele>
        <time>2022-10-15 11:35:01</time>
      </trkpt>
      <trkpt lat="38.62816" lon="-0.76588">
        <ele>671.4</ele>
        <time>2022-10-15 11:35:02</time>
      </trkpt>
      <trkpt lat="38.62811" lon="-0.76588">
        <ele>670.8</ele>
        <time>2022-10-15 11:35:03</time>
      </trkpt>
      <trkpt lat="38.62808" lon="-0.76589">
        <ele>670.6</ele>
        <time>2022-10-15 11:35:04</time>
      </trkpt>
      <trkpt lat="38.62807" lon="-0.76592">
        <ele>670.4</ele>
        <time>2022-10-15 11:35:05</time>
      </trkpt>
      <trkpt lat="38.62805" lon="-0.76594">
        <ele>670.4</ele>
        <time>2022-10-15 11:35:06</time>
      </trkpt>
      <trkpt lat="38.62805" lon="-0.76594">
        <ele>670.2</ele>
        <time>2022-10-15 11:35:07</time>
      </trkpt>
      <trkpt lat="38.62804" lon="-0.76602">
        <ele>670.2</ele>
        <time>2022-10-15 11:35:08</time>
      </trkpt>
      <trkpt lat="38.62803" lon="-0.76606">
        <ele>670.2</ele>
        <time>2022-10-15 11:35:09</time>
      </trkpt>
      <trkpt lat="38.62803" lon="-0.7661">
        <ele>670</ele>
        <time>2022-10-15 11:35:10</time>
      </trkpt>
      <trkpt lat="38.62802" lon="-0.76614">
        <ele>670</ele>
        <time>2022-10-15 11:35:11</time>
      </trkpt>
      <trkpt lat="38.62802" lon="-0.76618">
        <ele>670</ele>
        <time>2022-10-15 11:35:12</time>
      </trkpt>
      <trkpt lat="38.62802" lon="-0.76618">
        <ele>669.8</ele>
        <time>2022-10-15 11:35:13</time>
      </trkpt>
      <trkpt lat="38.628" lon="-0.76623">
        <ele>669.8</ele>
        <time>2022-10-15 11:35:14</time>
      </trkpt>
      <trkpt lat="38.628" lon="-0.76626">
        <ele>669.8</ele>
        <time>2022-10-15 11:35:15</time>
      </trkpt>
      <trkpt lat="38.62799" lon="-0.7663">
        <ele>669.6</ele>
        <time>2022-10-15 11:35:16</time>
      </trkpt>
      <trkpt lat="38.62798" lon="-0.76633">
        <ele>669.4</ele>
        <time>2022-10-15 11:35:17</time>
      </trkpt>
      <trkpt lat="38.62797" lon="-0.76637">
        <ele>669.2</ele>
        <time>2022-10-15 11:35:18</time>
      </trkpt>
      <trkpt lat="38.62797" lon="-0.76637">
        <ele>669.2</ele>
        <time>2022-10-15 11:35:19</time>
      </trkpt>
      <trkpt lat="38.62793" lon="-0.76642">
        <ele>669.2</ele>
        <time>2022-10-15 11:35:20</time>
      </trkpt>
      <trkpt lat="38.62791" lon="-0.76645">
        <ele>669</ele>
        <time>2022-10-15 11:35:21</time>
      </trkpt>
      <trkpt lat="38.6279" lon="-0.76649">
        <ele>668.8</ele>
        <time>2022-10-15 11:35:22</time>
      </trkpt>
      <trkpt lat="38.6279" lon="-0.76652">
        <ele>668.6</ele>
        <time>2022-10-15 11:35:23</time>
      </trkpt>
      <trkpt lat="38.6279" lon="-0.76656">
        <ele>668.6</ele>
        <time>2022-10-15 11:35:24</time>
      </trkpt>
      <trkpt lat="38.6279" lon="-0.76656">
        <ele>668.4</ele>
        <time>2022-10-15 11:35:25</time>
      </trkpt>
      <trkpt lat="38.62793" lon="-0.76662">
        <ele>668.2</ele>
        <time>2022-10-15 11:35:26</time>
      </trkpt>
      <trkpt lat="38.62795" lon="-0.76665">
        <ele>668</ele>
        <time>2022-10-15 11:35:27</time>
      </trkpt>
      <trkpt lat="38.62797" lon="-0.76669">
        <ele>667.8</ele>
        <time>2022-10-15 11:35:28</time>
      </trkpt>
      <trkpt lat="38.62799" lon="-0.76673">
        <ele>667.6</ele>
        <time>2022-10-15 11:35:29</time>
      </trkpt>
      <trkpt lat="38.628" lon="-0.76677">
        <ele>667.4</ele>
        <time>2022-10-15 11:35:30</time>
      </trkpt>
      <trkpt lat="38.628" lon="-0.76677">
        <ele>667.2</ele>
        <time>2022-10-15 11:35:31</time>
      </trkpt>
      <trkpt lat="38.62804" lon="-0.76686">
        <ele>667.2</ele>
        <time>2022-10-15 11:35:32</time>
      </trkpt>
      <trkpt lat="38.62806" lon="-0.7669">
        <ele>667</ele>
        <time>2022-10-15 11:35:33</time>
      </trkpt>
      <trkpt lat="38.62809" lon="-0.76694">
        <ele>667</ele>
        <time>2022-10-15 11:35:34</time>
      </trkpt>
      <trkpt lat="38.62812" lon="-0.76699">
        <ele>666.8</ele>
        <time>2022-10-15 11:35:35</time>
      </trkpt>
      <trkpt lat="38.62814" lon="-0.76703">
        <ele>666.6</ele>
        <time>2022-10-15 11:35:36</time>
      </trkpt>
      <trkpt lat="38.62814" lon="-0.76703">
        <ele>666.4</ele>
        <time>2022-10-15 11:35:37</time>
      </trkpt>
      <trkpt lat="38.62819" lon="-0.76711">
        <ele>666.2</ele>
        <time>2022-10-15 11:35:38</time>
      </trkpt>
      <trkpt lat="38.62822" lon="-0.76716">
        <ele>665.8</ele>
        <time>2022-10-15 11:35:39</time>
      </trkpt>
      <trkpt lat="38.62824" lon="-0.7672">
        <ele>665.6</ele>
        <time>2022-10-15 11:35:40</time>
      </trkpt>
      <trkpt lat="38.62827" lon="-0.76725">
        <ele>665.4</ele>
        <time>2022-10-15 11:35:41</time>
      </trkpt>
      <trkpt lat="38.62829" lon="-0.76728">
        <ele>665.2</ele>
        <time>2022-10-15 11:35:42</time>
      </trkpt>
      <trkpt lat="38.62829" lon="-0.76728">
        <ele>665</ele>
        <time>2022-10-15 11:35:43</time>
      </trkpt>
      <trkpt lat="38.62832" lon="-0.76734">
        <ele>664.8</ele>
        <time>2022-10-15 11:35:44</time>
      </trkpt>
      <trkpt lat="38.62834" lon="-0.76736">
        <ele>664.8</ele>
        <time>2022-10-15 11:35:45</time>
      </trkpt>
      <trkpt lat="38.62835" lon="-0.76738">
        <ele>664.6</ele>
        <time>2022-10-15 11:35:46</time>
      </trkpt>
      <trkpt lat="38.62836" lon="-0.76739">
        <ele>664.4</ele>
        <time>2022-10-15 11:35:47</time>
      </trkpt>
      <trkpt lat="38.62838" lon="-0.76741">
        <ele>664.2</ele>
        <time>2022-10-15 11:35:48</time>
      </trkpt>
      <trkpt lat="38.62838" lon="-0.76741">
        <ele>664</ele>
        <time>2022-10-15 11:35:49</time>
      </trkpt>
      <trkpt lat="38.6284" lon="-0.76744">
        <ele>664</ele>
        <time>2022-10-15 11:35:50</time>
      </trkpt>
      <trkpt lat="38.62841" lon="-0.76745">
        <ele>663.8</ele>
        <time>2022-10-15 11:35:51</time>
      </trkpt>
      <trkpt lat="38.62842" lon="-0.76746">
        <ele>663.8</ele>
        <time>2022-10-15 11:35:52</time>
      </trkpt>
      <trkpt lat="38.62843" lon="-0.76747">
        <ele>663.8</ele>
        <time>2022-10-15 11:35:53</time>
      </trkpt>
      <trkpt lat="38.62844" lon="-0.76748">
        <ele>663.6</ele>
        <time>2022-10-15 11:35:54</time>
      </trkpt>
      <trkpt lat="38.62844" lon="-0.76748">
        <ele>663.6</ele>
        <time>2022-10-15 11:35:55</time>
      </trkpt>
      <trkpt lat="38.62845" lon="-0.7675">
        <ele>663.6</ele>
        <time>2022-10-15 11:35:56</time>
      </trkpt>
      <trkpt lat="38.62846" lon="-0.76751">
        <ele>663.4</ele>
        <time>2022-10-15 11:35:57</time>
      </trkpt>
      <trkpt lat="38.62847" lon="-0.76753">
        <ele>663.4</ele>
        <time>2022-10-15 11:35:58</time>
      </trkpt>
      <trkpt lat="38.62848" lon="-0.76754">
        <ele>663.2</ele>
        <time>2022-10-15 11:35:59</time>
      </trkpt>
      <trkpt lat="38.62849" lon="-0.76757">
        <ele>663.2</ele>
        <time>2022-10-15 11:36:00</time>
      </trkpt>
      <trkpt lat="38.62849" lon="-0.76758">
        <ele>663</ele>
        <time>2022-10-15 11:36:01</time>
      </trkpt>
      <trkpt lat="38.6285" lon="-0.7676">
        <ele>663</ele>
        <time>2022-10-15 11:36:02</time>
      </trkpt>
      <trkpt lat="38.6285" lon="-0.76762">
        <ele>663</ele>
        <time>2022-10-15 11:36:03</time>
      </trkpt>
      <trkpt lat="38.62851" lon="-0.76765">
        <ele>663</ele>
        <time>2022-10-15 11:36:04</time>
      </trkpt>
      <trkpt lat="38.62852" lon="-0.76768">
        <ele>663</ele>
        <time>2022-10-15 11:36:05</time>
      </trkpt>
      <trkpt lat="38.62852" lon="-0.76771">
        <ele>663</ele>
        <time>2022-10-15 11:36:06</time>
      </trkpt>
      <trkpt lat="38.62853" lon="-0.76773">
        <ele>662.8</ele>
        <time>2022-10-15 11:36:07</time>
      </trkpt>
      <trkpt lat="38.62853" lon="-0.76777">
        <ele>662.8</ele>
        <time>2022-10-15 11:36:08</time>
      </trkpt>
      <trkpt lat="38.62853" lon="-0.7678">
        <ele>662.8</ele>
        <time>2022-10-15 11:36:09</time>
      </trkpt>
      <trkpt lat="38.62854" lon="-0.76783">
        <ele>662.8</ele>
        <time>2022-10-15 11:36:10</time>
      </trkpt>
      <trkpt lat="38.62854" lon="-0.76787">
        <ele>662.8</ele>
        <time>2022-10-15 11:36:11</time>
      </trkpt>
      <trkpt lat="38.62854" lon="-0.7679">
        <ele>662.6</ele>
        <time>2022-10-15 11:36:12</time>
      </trkpt>
      <trkpt lat="38.62854" lon="-0.76794">
        <ele>662.6</ele>
        <time>2022-10-15 11:36:13</time>
      </trkpt>
      <trkpt lat="38.62854" lon="-0.76801">
        <ele>662.6</ele>
        <time>2022-10-15 11:36:14</time>
      </trkpt>
      <trkpt lat="38.62855" lon="-0.76805">
        <ele>662.6</ele>
        <time>2022-10-15 11:36:15</time>
      </trkpt>
      <trkpt lat="38.62855" lon="-0.76808">
        <ele>662.4</ele>
        <time>2022-10-15 11:36:16</time>
      </trkpt>
      <trkpt lat="38.62856" lon="-0.76812">
        <ele>662.4</ele>
        <time>2022-10-15 11:36:17</time>
      </trkpt>
      <trkpt lat="38.62857" lon="-0.76815">
        <ele>662.4</ele>
        <time>2022-10-15 11:36:18</time>
      </trkpt>
      <trkpt lat="38.62857" lon="-0.76815">
        <ele>662.4</ele>
        <time>2022-10-15 11:36:19</time>
      </trkpt>
      <trkpt lat="38.62857" lon="-0.76822">
        <ele>662.4</ele>
        <time>2022-10-15 11:36:20</time>
      </trkpt>
      <trkpt lat="38.62858" lon="-0.76825">
        <ele>662.4</ele>
        <time>2022-10-15 11:36:21</time>
      </trkpt>
      <trkpt lat="38.62858" lon="-0.76829">
        <ele>662.4</ele>
        <time>2022-10-15 11:36:22</time>
      </trkpt>
      <trkpt lat="38.62858" lon="-0.76833">
        <ele>662.4</ele>
        <time>2022-10-15 11:36:23</time>
      </trkpt>
      <trkpt lat="38.62857" lon="-0.76837">
        <ele>662.4</ele>
        <time>2022-10-15 11:36:24</time>
      </trkpt>
      <trkpt lat="38.62857" lon="-0.76837">
        <ele>662.4</ele>
        <time>2022-10-15 11:36:25</time>
      </trkpt>
      <trkpt lat="38.62856" lon="-0.76845">
        <ele>662.4</ele>
        <time>2022-10-15 11:36:26</time>
      </trkpt>
      <trkpt lat="38.62855" lon="-0.76849">
        <ele>662.4</ele>
        <time>2022-10-15 11:36:27</time>
      </trkpt>
      <trkpt lat="38.62854" lon="-0.76854">
        <ele>662.6</ele>
        <time>2022-10-15 11:36:28</time>
      </trkpt>
      <trkpt lat="38.62854" lon="-0.76858">
        <ele>662.8</ele>
        <time>2022-10-15 11:36:29</time>
      </trkpt>
      <trkpt lat="38.62853" lon="-0.76863">
        <ele>662.8</ele>
        <time>2022-10-15 11:36:30</time>
      </trkpt>
      <trkpt lat="38.62853" lon="-0.76863">
        <ele>662.8</ele>
        <time>2022-10-15 11:36:31</time>
      </trkpt>
      <trkpt lat="38.62853" lon="-0.76873">
        <ele>662.8</ele>
        <time>2022-10-15 11:36:32</time>
      </trkpt>
      <trkpt lat="38.62853" lon="-0.76877">
        <ele>662.8</ele>
        <time>2022-10-15 11:36:33</time>
      </trkpt>
      <trkpt lat="38.62854" lon="-0.76882">
        <ele>662.8</ele>
        <time>2022-10-15 11:36:34</time>
      </trkpt>
      <trkpt lat="38.62856" lon="-0.76888">
        <ele>662.8</ele>
        <time>2022-10-15 11:36:35</time>
      </trkpt>
      <trkpt lat="38.62858" lon="-0.76893">
        <ele>662.8</ele>
        <time>2022-10-15 11:36:36</time>
      </trkpt>
      <trkpt lat="38.62858" lon="-0.76893">
        <ele>662.8</ele>
        <time>2022-10-15 11:36:37</time>
      </trkpt>
      <trkpt lat="38.62861" lon="-0.76904">
        <ele>662.8</ele>
        <time>2022-10-15 11:36:38</time>
      </trkpt>
      <trkpt lat="38.62864" lon="-0.76909">
        <ele>662.8</ele>
        <time>2022-10-15 11:36:39</time>
      </trkpt>
      <trkpt lat="38.62867" lon="-0.76914">
        <ele>662.8</ele>
        <time>2022-10-15 11:36:40</time>
      </trkpt>
      <trkpt lat="38.6287" lon="-0.7692">
        <ele>662.6</ele>
        <time>2022-10-15 11:36:41</time>
      </trkpt>
      <trkpt lat="38.6287" lon="-0.76927">
        <ele>662.4</ele>
        <time>2022-10-15 11:36:42</time>
      </trkpt>
      <trkpt lat="38.6287" lon="-0.76927">
        <ele>662.2</ele>
        <time>2022-10-15 11:36:43</time>
      </trkpt>
      <trkpt lat="38.62868" lon="-0.7694">
        <ele>661.6</ele>
        <time>2022-10-15 11:36:44</time>
      </trkpt>
      <trkpt lat="38.62865" lon="-0.76945">
        <ele>661.6</ele>
        <time>2022-10-15 11:36:45</time>
      </trkpt>
      <trkpt lat="38.62863" lon="-0.7695">
        <ele>661.4</ele>
        <time>2022-10-15 11:36:46</time>
      </trkpt>
      <trkpt lat="38.6286" lon="-0.76955">
        <ele>661.2</ele>
        <time>2022-10-15 11:36:47</time>
      </trkpt>
      <trkpt lat="38.62858" lon="-0.76959">
        <ele>660.8</ele>
        <time>2022-10-15 11:36:48</time>
      </trkpt>
      <trkpt lat="38.62858" lon="-0.76959">
        <ele>660.8</ele>
        <time>2022-10-15 11:36:49</time>
      </trkpt>
      <trkpt lat="38.62852" lon="-0.76968">
        <ele>660.8</ele>
        <time>2022-10-15 11:36:50</time>
      </trkpt>
      <trkpt lat="38.6285" lon="-0.76972">
        <ele>660.6</ele>
        <time>2022-10-15 11:36:51</time>
      </trkpt>
      <trkpt lat="38.62847" lon="-0.76977">
        <ele>660.6</ele>
        <time>2022-10-15 11:36:52</time>
      </trkpt>
      <trkpt lat="38.62844" lon="-0.7698">
        <ele>660.6</ele>
        <time>2022-10-15 11:36:53</time>
      </trkpt>
      <trkpt lat="38.62841" lon="-0.76984">
        <ele>660.6</ele>
        <time>2022-10-15 11:36:54</time>
      </trkpt>
      <trkpt lat="38.62841" lon="-0.76984">
        <ele>660.6</ele>
        <time>2022-10-15 11:36:55</time>
      </trkpt>
      <trkpt lat="38.62834" lon="-0.76989">
        <ele>660.6</ele>
        <time>2022-10-15 11:36:56</time>
      </trkpt>
      <trkpt lat="38.62831" lon="-0.76992">
        <ele>660.6</ele>
        <time>2022-10-15 11:36:57</time>
      </trkpt>
      <trkpt lat="38.62827" lon="-0.76994">
        <ele>660.6</ele>
        <time>2022-10-15 11:36:58</time>
      </trkpt>
      <trkpt lat="38.62824" lon="-0.76996">
        <ele>660.6</ele>
        <time>2022-10-15 11:36:59</time>
      </trkpt>
      <trkpt lat="38.6282" lon="-0.76999">
        <ele>660.6</ele>
        <time>2022-10-15 11:37:00</time>
      </trkpt>
      <trkpt lat="38.6282" lon="-0.76999">
        <ele>660.6</ele>
        <time>2022-10-15 11:37:01</time>
      </trkpt>
      <trkpt lat="38.62813" lon="-0.77003">
        <ele>660.6</ele>
        <time>2022-10-15 11:37:02</time>
      </trkpt>
      <trkpt lat="38.62809" lon="-0.77005">
        <ele>660.6</ele>
        <time>2022-10-15 11:37:03</time>
      </trkpt>
      <trkpt lat="38.62806" lon="-0.77007">
        <ele>660.6</ele>
        <time>2022-10-15 11:37:04</time>
      </trkpt>
      <trkpt lat="38.62802" lon="-0.77009">
        <ele>660.6</ele>
        <time>2022-10-15 11:37:05</time>
      </trkpt>
      <trkpt lat="38.62799" lon="-0.77012">
        <ele>660.6</ele>
        <time>2022-10-15 11:37:06</time>
      </trkpt>
      <trkpt lat="38.62799" lon="-0.77012">
        <ele>660.6</ele>
        <time>2022-10-15 11:37:07</time>
      </trkpt>
      <trkpt lat="38.62793" lon="-0.77016">
        <ele>660.6</ele>
        <time>2022-10-15 11:37:08</time>
      </trkpt>
      <trkpt lat="38.6279" lon="-0.77018">
        <ele>660.8</ele>
        <time>2022-10-15 11:37:09</time>
      </trkpt>
      <trkpt lat="38.62787" lon="-0.7702">
        <ele>660.8</ele>
        <time>2022-10-15 11:37:10</time>
      </trkpt>
      <trkpt lat="38.62784" lon="-0.77022">
        <ele>660.8</ele>
        <time>2022-10-15 11:37:11</time>
      </trkpt>
      <trkpt lat="38.62781" lon="-0.77023">
        <ele>660.8</ele>
        <time>2022-10-15 11:37:12</time>
      </trkpt>
      <trkpt lat="38.62781" lon="-0.77023">
        <ele>660.8</ele>
        <time>2022-10-15 11:37:13</time>
      </trkpt>
      <trkpt lat="38.62777" lon="-0.77026">
        <ele>660.8</ele>
        <time>2022-10-15 11:37:14</time>
      </trkpt>
      <trkpt lat="38.62774" lon="-0.77027">
        <ele>660.8</ele>
        <time>2022-10-15 11:37:15</time>
      </trkpt>
      <trkpt lat="38.62772" lon="-0.77028">
        <ele>661</ele>
        <time>2022-10-15 11:37:16</time>
      </trkpt>
      <trkpt lat="38.6277" lon="-0.7703">
        <ele>661</ele>
        <time>2022-10-15 11:37:17</time>
      </trkpt>
      <trkpt lat="38.62768" lon="-0.77031">
        <ele>661</ele>
        <time>2022-10-15 11:37:18</time>
      </trkpt>
      <trkpt lat="38.62768" lon="-0.77031">
        <ele>661</ele>
        <time>2022-10-15 11:37:19</time>
      </trkpt>
      <trkpt lat="38.62763" lon="-0.77034">
        <ele>661.2</ele>
        <time>2022-10-15 11:37:20</time>
      </trkpt>
      <trkpt lat="38.62761" lon="-0.77035">
        <ele>661.2</ele>
        <time>2022-10-15 11:37:21</time>
      </trkpt>
      <trkpt lat="38.62759" lon="-0.77037">
        <ele>661.4</ele>
        <time>2022-10-15 11:37:22</time>
      </trkpt>
      <trkpt lat="38.62757" lon="-0.7704">
        <ele>661.6</ele>
        <time>2022-10-15 11:37:23</time>
      </trkpt>
      <trkpt lat="38.62755" lon="-0.77042">
        <ele>661.8</ele>
        <time>2022-10-15 11:37:24</time>
      </trkpt>
      <trkpt lat="38.62755" lon="-0.77042">
        <ele>661.8</ele>
        <time>2022-10-15 11:37:25</time>
      </trkpt>
      <trkpt lat="38.6275" lon="-0.77047">
        <ele>661.8</ele>
        <time>2022-10-15 11:37:26</time>
      </trkpt>
      <trkpt lat="38.62748" lon="-0.77049">
        <ele>661.8</ele>
        <time>2022-10-15 11:37:27</time>
      </trkpt>
      <trkpt lat="38.62745" lon="-0.77051">
        <ele>662</ele>
        <time>2022-10-15 11:37:28</time>
      </trkpt>
      <trkpt lat="38.62743" lon="-0.77052">
        <ele>662</ele>
        <time>2022-10-15 11:37:29</time>
      </trkpt>
      <trkpt lat="38.62741" lon="-0.77053">
        <ele>662</ele>
        <time>2022-10-15 11:37:30</time>
      </trkpt>
      <trkpt lat="38.62741" lon="-0.77053">
        <ele>662</ele>
        <time>2022-10-15 11:37:31</time>
      </trkpt>
      <trkpt lat="38.62739" lon="-0.77054">
        <ele>662</ele>
        <time>2022-10-15 11:37:32</time>
      </trkpt>
      <trkpt lat="38.62738" lon="-0.77055">
        <ele>662</ele>
        <time>2022-10-15 11:37:33</time>
      </trkpt>
      <trkpt lat="38.62737" lon="-0.77055">
        <ele>662</ele>
        <time>2022-10-15 11:37:34</time>
      </trkpt>
      <trkpt lat="38.62736" lon="-0.77056">
        <ele>662</ele>
        <time>2022-10-15 11:37:35</time>
      </trkpt>
      <trkpt lat="38.62736" lon="-0.77056">
        <ele>662</ele>
        <time>2022-10-15 11:37:36</time>
      </trkpt>
      <trkpt lat="38.62736" lon="-0.77056">
        <ele>662</ele>
        <time>2022-10-15 11:37:37</time>
      </trkpt>
      <trkpt lat="38.62733" lon="-0.77058">
        <ele>662.6</ele>
        <time>2022-10-15 11:37:57</time>
      </trkpt>
      <trkpt lat="38.62732" lon="-0.77059">
        <ele>662.6</ele>
        <time>2022-10-15 11:37:58</time>
      </trkpt>
      <trkpt lat="38.6273" lon="-0.7706">
        <ele>662.8</ele>
        <time>2022-10-15 11:37:59</time>
      </trkpt>
      <trkpt lat="38.62727" lon="-0.77062">
        <ele>662.8</ele>
        <time>2022-10-15 11:38:00</time>
      </trkpt>
      <trkpt lat="38.62727" lon="-0.77062">
        <ele>662.8</ele>
        <time>2022-10-15 11:38:01</time>
      </trkpt>
      <trkpt lat="38.62723" lon="-0.77064">
        <ele>662.8</ele>
        <time>2022-10-15 11:38:02</time>
      </trkpt>
      <trkpt lat="38.62721" lon="-0.77065">
        <ele>663</ele>
        <time>2022-10-15 11:38:03</time>
      </trkpt>
      <trkpt lat="38.62719" lon="-0.77067">
        <ele>663</ele>
        <time>2022-10-15 11:38:04</time>
      </trkpt>
      <trkpt lat="38.62717" lon="-0.77069">
        <ele>663</ele>
        <time>2022-10-15 11:38:05</time>
      </trkpt>
      <trkpt lat="38.62715" lon="-0.77071">
        <ele>663</ele>
        <time>2022-10-15 11:38:06</time>
      </trkpt>
      <trkpt lat="38.62715" lon="-0.77071">
        <ele>663.2</ele>
        <time>2022-10-15 11:38:07</time>
      </trkpt>
      <trkpt lat="38.62711" lon="-0.77074">
        <ele>663.2</ele>
        <time>2022-10-15 11:38:08</time>
      </trkpt>
      <trkpt lat="38.6271" lon="-0.77076">
        <ele>663.2</ele>
        <time>2022-10-15 11:38:09</time>
      </trkpt>
      <trkpt lat="38.62708" lon="-0.77077">
        <ele>663.2</ele>
        <time>2022-10-15 11:38:10</time>
      </trkpt>
      <trkpt lat="38.62707" lon="-0.77079">
        <ele>663.2</ele>
        <time>2022-10-15 11:38:11</time>
      </trkpt>
      <trkpt lat="38.62705" lon="-0.77081">
        <ele>663.4</ele>
        <time>2022-10-15 11:38:12</time>
      </trkpt>
      <trkpt lat="38.62705" lon="-0.77081">
        <ele>663.4</ele>
        <time>2022-10-15 11:38:13</time>
      </trkpt>
      <trkpt lat="38.62702" lon="-0.77084">
        <ele>663.4</ele>
        <time>2022-10-15 11:38:14</time>
      </trkpt>
      <trkpt lat="38.62701" lon="-0.77086">
        <ele>663.6</ele>
        <time>2022-10-15 11:38:15</time>
      </trkpt>
      <trkpt lat="38.62699" lon="-0.77087">
        <ele>663.6</ele>
        <time>2022-10-15 11:38:16</time>
      </trkpt>
      <trkpt lat="38.62697" lon="-0.77089">
        <ele>663.6</ele>
        <time>2022-10-15 11:38:17</time>
      </trkpt>
      <trkpt lat="38.62696" lon="-0.7709">
        <ele>663.8</ele>
        <time>2022-10-15 11:38:18</time>
      </trkpt>
      <trkpt lat="38.62696" lon="-0.7709">
        <ele>663.8</ele>
        <time>2022-10-15 11:38:19</time>
      </trkpt>
      <trkpt lat="38.62692" lon="-0.77093">
        <ele>663.8</ele>
        <time>2022-10-15 11:38:20</time>
      </trkpt>
      <trkpt lat="38.6269" lon="-0.77094">
        <ele>663.8</ele>
        <time>2022-10-15 11:38:21</time>
      </trkpt>
      <trkpt lat="38.62688" lon="-0.77095">
        <ele>664</ele>
        <time>2022-10-15 11:38:22</time>
      </trkpt>
      <trkpt lat="38.62686" lon="-0.77096">
        <ele>664.2</ele>
        <time>2022-10-15 11:38:23</time>
      </trkpt>
      <trkpt lat="38.62684" lon="-0.77097">
        <ele>664.2</ele>
        <time>2022-10-15 11:38:24</time>
      </trkpt>
      <trkpt lat="38.62684" lon="-0.77097">
        <ele>664.2</ele>
        <time>2022-10-15 11:38:25</time>
      </trkpt>
      <trkpt lat="38.62679" lon="-0.771">
        <ele>664.4</ele>
        <time>2022-10-15 11:38:26</time>
      </trkpt>
      <trkpt lat="38.62678" lon="-0.77102">
        <ele>664.4</ele>
        <time>2022-10-15 11:38:27</time>
      </trkpt>
      <trkpt lat="38.62676" lon="-0.77104">
        <ele>664.4</ele>
        <time>2022-10-15 11:38:28</time>
      </trkpt>
      <trkpt lat="38.62675" lon="-0.77107">
        <ele>664.4</ele>
        <time>2022-10-15 11:38:29</time>
      </trkpt>
      <trkpt lat="38.62673" lon="-0.77109">
        <ele>664.4</ele>
        <time>2022-10-15 11:38:30</time>
      </trkpt>
      <trkpt lat="38.62673" lon="-0.77109">
        <ele>664.4</ele>
        <time>2022-10-15 11:38:31</time>
      </trkpt>
      <trkpt lat="38.6267" lon="-0.77113">
        <ele>664.4</ele>
        <time>2022-10-15 11:38:32</time>
      </trkpt>
      <trkpt lat="38.62668" lon="-0.77115">
        <ele>664.4</ele>
        <time>2022-10-15 11:38:33</time>
      </trkpt>
      <trkpt lat="38.62665" lon="-0.77117">
        <ele>664.4</ele>
        <time>2022-10-15 11:38:34</time>
      </trkpt>
      <trkpt lat="38.62663" lon="-0.77119">
        <ele>664.4</ele>
        <time>2022-10-15 11:38:35</time>
      </trkpt>
      <trkpt lat="38.62661" lon="-0.7712">
        <ele>664.4</ele>
        <time>2022-10-15 11:38:36</time>
      </trkpt>
      <trkpt lat="38.62661" lon="-0.7712">
        <ele>664.4</ele>
        <time>2022-10-15 11:38:37</time>
      </trkpt>
      <trkpt lat="38.62656" lon="-0.77124">
        <ele>664.6</ele>
        <time>2022-10-15 11:38:38</time>
      </trkpt>
      <trkpt lat="38.62654" lon="-0.77126">
        <ele>664.6</ele>
        <time>2022-10-15 11:38:39</time>
      </trkpt>
      <trkpt lat="38.62651" lon="-0.77127">
        <ele>664.8</ele>
        <time>2022-10-15 11:38:40</time>
      </trkpt>
      <trkpt lat="38.62649" lon="-0.77128">
        <ele>665</ele>
        <time>2022-10-15 11:38:41</time>
      </trkpt>
      <trkpt lat="38.62647" lon="-0.7713">
        <ele>665.2</ele>
        <time>2022-10-15 11:38:42</time>
      </trkpt>
      <trkpt lat="38.62647" lon="-0.7713">
        <ele>665.6</ele>
        <time>2022-10-15 11:38:43</time>
      </trkpt>
      <trkpt lat="38.62642" lon="-0.77133">
        <ele>666</ele>
        <time>2022-10-15 11:38:44</time>
      </trkpt>
      <trkpt lat="38.6264" lon="-0.77134">
        <ele>666</ele>
        <time>2022-10-15 11:38:45</time>
      </trkpt>
      <trkpt lat="38.62637" lon="-0.77135">
        <ele>666.2</ele>
        <time>2022-10-15 11:38:46</time>
      </trkpt>
      <trkpt lat="38.62635" lon="-0.77136">
        <ele>666.4</ele>
        <time>2022-10-15 11:38:47</time>
      </trkpt>
      <trkpt lat="38.62632" lon="-0.77137">
        <ele>666.6</ele>
        <time>2022-10-15 11:38:48</time>
      </trkpt>
      <trkpt lat="38.62632" lon="-0.77137">
        <ele>666.8</ele>
        <time>2022-10-15 11:38:49</time>
      </trkpt>
      <trkpt lat="38.62627" lon="-0.77139">
        <ele>667</ele>
        <time>2022-10-15 11:38:50</time>
      </trkpt>
      <trkpt lat="38.62625" lon="-0.7714">
        <ele>667.2</ele>
        <time>2022-10-15 11:38:51</time>
      </trkpt>
      <trkpt lat="38.62623" lon="-0.77141">
        <ele>667.2</ele>
        <time>2022-10-15 11:38:52</time>
      </trkpt>
      <trkpt lat="38.6262" lon="-0.77142">
        <ele>667.4</ele>
        <time>2022-10-15 11:38:53</time>
      </trkpt>
      <trkpt lat="38.62618" lon="-0.77143">
        <ele>667.4</ele>
        <time>2022-10-15 11:38:54</time>
      </trkpt>
      <trkpt lat="38.62618" lon="-0.77143">
        <ele>667.4</ele>
        <time>2022-10-15 11:38:55</time>
      </trkpt>
      <trkpt lat="38.62613" lon="-0.77146">
        <ele>667.6</ele>
        <time>2022-10-15 11:38:56</time>
      </trkpt>
      <trkpt lat="38.62611" lon="-0.77147">
        <ele>667.8</ele>
        <time>2022-10-15 11:38:57</time>
      </trkpt>
      <trkpt lat="38.62608" lon="-0.77148">
        <ele>667.8</ele>
        <time>2022-10-15 11:38:58</time>
      </trkpt>
      <trkpt lat="38.62606" lon="-0.7715">
        <ele>668</ele>
        <time>2022-10-15 11:38:59</time>
      </trkpt>
      <trkpt lat="38.62604" lon="-0.77151">
        <ele>668.2</ele>
        <time>2022-10-15 11:39:00</time>
      </trkpt>
      <trkpt lat="38.62604" lon="-0.77151">
        <ele>668.4</ele>
        <time>2022-10-15 11:39:01</time>
      </trkpt>
      <trkpt lat="38.62599" lon="-0.77153">
        <ele>668.4</ele>
        <time>2022-10-15 11:39:02</time>
      </trkpt>
      <trkpt lat="38.62596" lon="-0.77154">
        <ele>668.6</ele>
        <time>2022-10-15 11:39:03</time>
      </trkpt>
      <trkpt lat="38.62594" lon="-0.77155">
        <ele>668.6</ele>
        <time>2022-10-15 11:39:04</time>
      </trkpt>
      <trkpt lat="38.62591" lon="-0.77156">
        <ele>668.8</ele>
        <time>2022-10-15 11:39:05</time>
      </trkpt>
      <trkpt lat="38.62589" lon="-0.77157">
        <ele>668.8</ele>
        <time>2022-10-15 11:39:06</time>
      </trkpt>
      <trkpt lat="38.62589" lon="-0.77157">
        <ele>669</ele>
        <time>2022-10-15 11:39:07</time>
      </trkpt>
      <trkpt lat="38.62584" lon="-0.77159">
        <ele>669</ele>
        <time>2022-10-15 11:39:08</time>
      </trkpt>
      <trkpt lat="38.62582" lon="-0.7716">
        <ele>669.2</ele>
        <time>2022-10-15 11:39:09</time>
      </trkpt>
      <trkpt lat="38.62579" lon="-0.77161">
        <ele>669.2</ele>
        <time>2022-10-15 11:39:10</time>
      </trkpt>
      <trkpt lat="38.62577" lon="-0.77162">
        <ele>669.4</ele>
        <time>2022-10-15 11:39:11</time>
      </trkpt>
      <trkpt lat="38.62575" lon="-0.77163">
        <ele>669.4</ele>
        <time>2022-10-15 11:39:12</time>
      </trkpt>
      <trkpt lat="38.62575" lon="-0.77163">
        <ele>669.6</ele>
        <time>2022-10-15 11:39:13</time>
      </trkpt>
      <trkpt lat="38.6257" lon="-0.77166">
        <ele>669.6</ele>
        <time>2022-10-15 11:39:14</time>
      </trkpt>
      <trkpt lat="38.62568" lon="-0.77168">
        <ele>669.8</ele>
        <time>2022-10-15 11:39:15</time>
      </trkpt>
      <trkpt lat="38.62565" lon="-0.7717">
        <ele>670</ele>
        <time>2022-10-15 11:39:16</time>
      </trkpt>
      <trkpt lat="38.62563" lon="-0.77172">
        <ele>670.2</ele>
        <time>2022-10-15 11:39:17</time>
      </trkpt>
      <trkpt lat="38.62561" lon="-0.77173">
        <ele>670.4</ele>
        <time>2022-10-15 11:39:18</time>
      </trkpt>
      <trkpt lat="38.62561" lon="-0.77173">
        <ele>670.4</ele>
        <time>2022-10-15 11:39:19</time>
      </trkpt>
      <trkpt lat="38.62556" lon="-0.77177">
        <ele>670.6</ele>
        <time>2022-10-15 11:39:20</time>
      </trkpt>
      <trkpt lat="38.62554" lon="-0.77178">
        <ele>670.6</ele>
        <time>2022-10-15 11:39:21</time>
      </trkpt>
      <trkpt lat="38.62552" lon="-0.7718">
        <ele>670.8</ele>
        <time>2022-10-15 11:39:22</time>
      </trkpt>
      <trkpt lat="38.62549" lon="-0.77182">
        <ele>670.8</ele>
        <time>2022-10-15 11:39:23</time>
      </trkpt>
      <trkpt lat="38.62548" lon="-0.77184">
        <ele>670.8</ele>
        <time>2022-10-15 11:39:24</time>
      </trkpt>
      <trkpt lat="38.62548" lon="-0.77184">
        <ele>670.8</ele>
        <time>2022-10-15 11:39:25</time>
      </trkpt>
      <trkpt lat="38.62544" lon="-0.77188">
        <ele>671</ele>
        <time>2022-10-15 11:39:26</time>
      </trkpt>
      <trkpt lat="38.62542" lon="-0.77191">
        <ele>671.2</ele>
        <time>2022-10-15 11:39:27</time>
      </trkpt>
      <trkpt lat="38.62542" lon="-0.77191">
        <ele>671.4</ele>
        <time>2022-10-15 11:39:28</time>
      </trkpt>
      <trkpt lat="38.6254" lon="-0.77193">
        <ele>671.6</ele>
        <time>2022-10-15 11:39:29</time>
      </trkpt>
      <trkpt lat="38.62538" lon="-0.77195">
        <ele>671.6</ele>
        <time>2022-10-15 11:39:30</time>
      </trkpt>
      <trkpt lat="38.62536" lon="-0.77198">
        <ele>671.8</ele>
        <time>2022-10-15 11:39:31</time>
      </trkpt>
      <trkpt lat="38.62534" lon="-0.77201">
        <ele>672</ele>
        <time>2022-10-15 11:39:32</time>
      </trkpt>
      <trkpt lat="38.62533" lon="-0.77203">
        <ele>672</ele>
        <time>2022-10-15 11:39:33</time>
      </trkpt>
      <trkpt lat="38.62531" lon="-0.77206">
        <ele>672.2</ele>
        <time>2022-10-15 11:39:34</time>
      </trkpt>
      <trkpt lat="38.62529" lon="-0.77209">
        <ele>672.4</ele>
        <time>2022-10-15 11:39:35</time>
      </trkpt>
      <trkpt lat="38.62527" lon="-0.77211">
        <ele>672.6</ele>
        <time>2022-10-15 11:39:36</time>
      </trkpt>
      <trkpt lat="38.62525" lon="-0.77214">
        <ele>672.8</ele>
        <time>2022-10-15 11:39:37</time>
      </trkpt>
      <trkpt lat="38.62522" lon="-0.77217">
        <ele>673</ele>
        <time>2022-10-15 11:39:38</time>
      </trkpt>
      <trkpt lat="38.6252" lon="-0.7722">
        <ele>673</ele>
        <time>2022-10-15 11:39:39</time>
      </trkpt>
      <trkpt lat="38.62518" lon="-0.77223">
        <ele>673.2</ele>
        <time>2022-10-15 11:39:40</time>
      </trkpt>
      <trkpt lat="38.62516" lon="-0.77226">
        <ele>673.4</ele>
        <time>2022-10-15 11:39:41</time>
      </trkpt>
      <trkpt lat="38.62513" lon="-0.77229">
        <ele>673.4</ele>
        <time>2022-10-15 11:39:42</time>
      </trkpt>
      <trkpt lat="38.62511" lon="-0.77233">
        <ele>673.4</ele>
        <time>2022-10-15 11:39:43</time>
      </trkpt>
      <trkpt lat="38.62509" lon="-0.77236">
        <ele>673.4</ele>
        <time>2022-10-15 11:39:44</time>
      </trkpt>
      <trkpt lat="38.62507" lon="-0.77239">
        <ele>673.6</ele>
        <time>2022-10-15 11:39:45</time>
      </trkpt>
      <trkpt lat="38.62503" lon="-0.77246">
        <ele>673.6</ele>
        <time>2022-10-15 11:39:46</time>
      </trkpt>
      <trkpt lat="38.62501" lon="-0.7725">
        <ele>673.6</ele>
        <time>2022-10-15 11:39:47</time>
      </trkpt>
      <trkpt lat="38.62499" lon="-0.77253">
        <ele>673.6</ele>
        <time>2022-10-15 11:39:48</time>
      </trkpt>
      <trkpt lat="38.62499" lon="-0.77253">
        <ele>673.8</ele>
        <time>2022-10-15 11:39:49</time>
      </trkpt>
      <trkpt lat="38.62495" lon="-0.77259">
        <ele>673.8</ele>
        <time>2022-10-15 11:39:50</time>
      </trkpt>
      <trkpt lat="38.62493" lon="-0.77263">
        <ele>674</ele>
        <time>2022-10-15 11:39:51</time>
      </trkpt>
      <trkpt lat="38.62491" lon="-0.77266">
        <ele>674</ele>
        <time>2022-10-15 11:39:52</time>
      </trkpt>
      <trkpt lat="38.6249" lon="-0.77269">
        <ele>674.2</ele>
        <time>2022-10-15 11:39:53</time>
      </trkpt>
      <trkpt lat="38.62488" lon="-0.77273">
        <ele>674.2</ele>
        <time>2022-10-15 11:39:54</time>
      </trkpt>
      <trkpt lat="38.62488" lon="-0.77273">
        <ele>674.2</ele>
        <time>2022-10-15 11:39:55</time>
      </trkpt>
      <trkpt lat="38.62485" lon="-0.7728">
        <ele>674.4</ele>
        <time>2022-10-15 11:39:56</time>
      </trkpt>
      <trkpt lat="38.62483" lon="-0.77283">
        <ele>674.4</ele>
        <time>2022-10-15 11:39:57</time>
      </trkpt>
      <trkpt lat="38.62482" lon="-0.77287">
        <ele>674.6</ele>
        <time>2022-10-15 11:39:58</time>
      </trkpt>
      <trkpt lat="38.62481" lon="-0.77291">
        <ele>674.8</ele>
        <time>2022-10-15 11:39:59</time>
      </trkpt>
      <trkpt lat="38.62479" lon="-0.77294">
        <ele>674.8</ele>
        <time>2022-10-15 11:40:00</time>
      </trkpt>
      <trkpt lat="38.62479" lon="-0.77294">
        <ele>674.8</ele>
        <time>2022-10-15 11:40:01</time>
      </trkpt>
      <trkpt lat="38.62477" lon="-0.77302">
        <ele>674.8</ele>
        <time>2022-10-15 11:40:02</time>
      </trkpt>
      <trkpt lat="38.62475" lon="-0.77306">
        <ele>675</ele>
        <time>2022-10-15 11:40:03</time>
      </trkpt>
      <trkpt lat="38.62473" lon="-0.7731">
        <ele>675.4</ele>
        <time>2022-10-15 11:40:04</time>
      </trkpt>
      <trkpt lat="38.62471" lon="-0.77314">
        <ele>675.4</ele>
        <time>2022-10-15 11:40:05</time>
      </trkpt>
      <trkpt lat="38.62469" lon="-0.77318">
        <ele>675.4</ele>
        <time>2022-10-15 11:40:06</time>
      </trkpt>
      <trkpt lat="38.62469" lon="-0.77318">
        <ele>675.6</ele>
        <time>2022-10-15 11:40:07</time>
      </trkpt>
      <trkpt lat="38.62465" lon="-0.77326">
        <ele>675.6</ele>
        <time>2022-10-15 11:40:08</time>
      </trkpt>
      <trkpt lat="38.62463" lon="-0.7733">
        <ele>675.6</ele>
        <time>2022-10-15 11:40:09</time>
      </trkpt>
      <trkpt lat="38.62461" lon="-0.77334">
        <ele>675.6</ele>
        <time>2022-10-15 11:40:10</time>
      </trkpt>
      <trkpt lat="38.62458" lon="-0.77339">
        <ele>675.6</ele>
        <time>2022-10-15 11:40:11</time>
      </trkpt>
      <trkpt lat="38.62456" lon="-0.77343">
        <ele>675.6</ele>
        <time>2022-10-15 11:40:12</time>
      </trkpt>
      <trkpt lat="38.62456" lon="-0.77343">
        <ele>675.6</ele>
        <time>2022-10-15 11:40:13</time>
      </trkpt>
      <trkpt lat="38.62451" lon="-0.77351">
        <ele>675.6</ele>
        <time>2022-10-15 11:40:14</time>
      </trkpt>
      <trkpt lat="38.62448" lon="-0.77355">
        <ele>675.6</ele>
        <time>2022-10-15 11:40:15</time>
      </trkpt>
      <trkpt lat="38.62445" lon="-0.77359">
        <ele>675.6</ele>
        <time>2022-10-15 11:40:16</time>
      </trkpt>
      <trkpt lat="38.62442" lon="-0.77363">
        <ele>675.6</ele>
        <time>2022-10-15 11:40:17</time>
      </trkpt>
      <trkpt lat="38.62439" lon="-0.77368">
        <ele>675.6</ele>
        <time>2022-10-15 11:40:18</time>
      </trkpt>
      <trkpt lat="38.62439" lon="-0.77368">
        <ele>675.6</ele>
        <time>2022-10-15 11:40:19</time>
      </trkpt>
      <trkpt lat="38.62434" lon="-0.77378">
        <ele>675.6</ele>
        <time>2022-10-15 11:40:20</time>
      </trkpt>
      <trkpt lat="38.62432" lon="-0.77383">
        <ele>675.6</ele>
        <time>2022-10-15 11:40:21</time>
      </trkpt>
      <trkpt lat="38.62429" lon="-0.77388">
        <ele>675.6</ele>
        <time>2022-10-15 11:40:22</time>
      </trkpt>
      <trkpt lat="38.62427" lon="-0.77394">
        <ele>675.6</ele>
        <time>2022-10-15 11:40:23</time>
      </trkpt>
      <trkpt lat="38.62425" lon="-0.77399">
        <ele>675.6</ele>
        <time>2022-10-15 11:40:24</time>
      </trkpt>
      <trkpt lat="38.62425" lon="-0.77399">
        <ele>675.4</ele>
        <time>2022-10-15 11:40:25</time>
      </trkpt>
      <trkpt lat="38.62421" lon="-0.7741">
        <ele>675.4</ele>
        <time>2022-10-15 11:40:26</time>
      </trkpt>
      <trkpt lat="38.62419" lon="-0.77416">
        <ele>675.2</ele>
        <time>2022-10-15 11:40:27</time>
      </trkpt>
      <trkpt lat="38.62416" lon="-0.77421">
        <ele>675</ele>
        <time>2022-10-15 11:40:28</time>
      </trkpt>
      <trkpt lat="38.62414" lon="-0.77427">
        <ele>675</ele>
        <time>2022-10-15 11:40:29</time>
      </trkpt>
      <trkpt lat="38.62412" lon="-0.77433">
        <ele>675</ele>
        <time>2022-10-15 11:40:30</time>
      </trkpt>
      <trkpt lat="38.62412" lon="-0.77433">
        <ele>675</ele>
        <time>2022-10-15 11:40:31</time>
      </trkpt>
      <trkpt lat="38.62408" lon="-0.77444">
        <ele>674.8</ele>
        <time>2022-10-15 11:40:32</time>
      </trkpt>
      <trkpt lat="38.62406" lon="-0.7745">
        <ele>674.8</ele>
        <time>2022-10-15 11:40:33</time>
      </trkpt>
      <trkpt lat="38.62404" lon="-0.77455">
        <ele>674.8</ele>
        <time>2022-10-15 11:40:34</time>
      </trkpt>
      <trkpt lat="38.62402" lon="-0.77461">
        <ele>674.8</ele>
        <time>2022-10-15 11:40:35</time>
      </trkpt>
      <trkpt lat="38.62399" lon="-0.77467">
        <ele>674.8</ele>
        <time>2022-10-15 11:40:36</time>
      </trkpt>
      <trkpt lat="38.62399" lon="-0.77467">
        <ele>674.8</ele>
        <time>2022-10-15 11:40:37</time>
      </trkpt>
      <trkpt lat="38.62395" lon="-0.77477">
        <ele>674.8</ele>
        <time>2022-10-15 11:40:38</time>
      </trkpt>
      <trkpt lat="38.62393" lon="-0.77483">
        <ele>674.8</ele>
        <time>2022-10-15 11:40:39</time>
      </trkpt>
      <trkpt lat="38.6239" lon="-0.77488">
        <ele>674.8</ele>
        <time>2022-10-15 11:40:40</time>
      </trkpt>
      <trkpt lat="38.62388" lon="-0.77494">
        <ele>674.8</ele>
        <time>2022-10-15 11:40:41</time>
      </trkpt>
      <trkpt lat="38.62386" lon="-0.77499">
        <ele>674.8</ele>
        <time>2022-10-15 11:40:42</time>
      </trkpt>
      <trkpt lat="38.62386" lon="-0.77499">
        <ele>674.8</ele>
        <time>2022-10-15 11:40:43</time>
      </trkpt>
      <trkpt lat="38.62381" lon="-0.77511">
        <ele>675</ele>
        <time>2022-10-15 11:40:44</time>
      </trkpt>
      <trkpt lat="38.62379" lon="-0.77517">
        <ele>675</ele>
        <time>2022-10-15 11:40:45</time>
      </trkpt>
      <trkpt lat="38.62377" lon="-0.77523">
        <ele>675</ele>
        <time>2022-10-15 11:40:46</time>
      </trkpt>
      <trkpt lat="38.62375" lon="-0.77528">
        <ele>675</ele>
        <time>2022-10-15 11:40:47</time>
      </trkpt>
      <trkpt lat="38.62373" lon="-0.77534">
        <ele>675</ele>
        <time>2022-10-15 11:40:48</time>
      </trkpt>
      <trkpt lat="38.62373" lon="-0.77534">
        <ele>675.2</ele>
        <time>2022-10-15 11:40:49</time>
      </trkpt>
      <trkpt lat="38.62368" lon="-0.77546">
        <ele>675.2</ele>
        <time>2022-10-15 11:40:50</time>
      </trkpt>
      <trkpt lat="38.62365" lon="-0.77551">
        <ele>675.4</ele>
        <time>2022-10-15 11:40:51</time>
      </trkpt>
      <trkpt lat="38.62363" lon="-0.77557">
        <ele>675.6</ele>
        <time>2022-10-15 11:40:52</time>
      </trkpt>
      <trkpt lat="38.6236" lon="-0.77563">
        <ele>675.6</ele>
        <time>2022-10-15 11:40:53</time>
      </trkpt>
      <trkpt lat="38.62358" lon="-0.77569">
        <ele>675.8</ele>
        <time>2022-10-15 11:40:54</time>
      </trkpt>
      <trkpt lat="38.62358" lon="-0.77569">
        <ele>676</ele>
        <time>2022-10-15 11:40:55</time>
      </trkpt>
      <trkpt lat="38.62353" lon="-0.77581">
        <ele>676</ele>
        <time>2022-10-15 11:40:56</time>
      </trkpt>
      <trkpt lat="38.62351" lon="-0.77587">
        <ele>676.2</ele>
        <time>2022-10-15 11:40:57</time>
      </trkpt>
      <trkpt lat="38.62349" lon="-0.77593">
        <ele>676.2</ele>
        <time>2022-10-15 11:40:58</time>
      </trkpt>
      <trkpt lat="38.62346" lon="-0.77599">
        <ele>676.2</ele>
        <time>2022-10-15 11:40:59</time>
      </trkpt>
      <trkpt lat="38.62344" lon="-0.77604">
        <ele>676.2</ele>
        <time>2022-10-15 11:41:00</time>
      </trkpt>
      <trkpt lat="38.62344" lon="-0.77604">
        <ele>676.2</ele>
        <time>2022-10-15 11:41:01</time>
      </trkpt>
      <trkpt lat="38.62339" lon="-0.77615">
        <ele>676.2</ele>
        <time>2022-10-15 11:41:02</time>
      </trkpt>
      <trkpt lat="38.62337" lon="-0.7762">
        <ele>676.2</ele>
        <time>2022-10-15 11:41:03</time>
      </trkpt>
      <trkpt lat="38.62335" lon="-0.77625">
        <ele>676.4</ele>
        <time>2022-10-15 11:41:04</time>
      </trkpt>
      <trkpt lat="38.62332" lon="-0.7763">
        <ele>676.4</ele>
        <time>2022-10-15 11:41:05</time>
      </trkpt>
      <trkpt lat="38.62329" lon="-0.77634">
        <ele>676.4</ele>
        <time>2022-10-15 11:41:06</time>
      </trkpt>
      <trkpt lat="38.62329" lon="-0.77634">
        <ele>676.4</ele>
        <time>2022-10-15 11:41:07</time>
      </trkpt>
      <trkpt lat="38.62324" lon="-0.77643">
        <ele>676.4</ele>
        <time>2022-10-15 11:41:08</time>
      </trkpt>
      <trkpt lat="38.62321" lon="-0.77647">
        <ele>676.4</ele>
        <time>2022-10-15 11:41:09</time>
      </trkpt>
      <trkpt lat="38.62317" lon="-0.7765">
        <ele>676.4</ele>
        <time>2022-10-15 11:41:10</time>
      </trkpt>
      <trkpt lat="38.62314" lon="-0.77654">
        <ele>676.4</ele>
        <time>2022-10-15 11:41:11</time>
      </trkpt>
      <trkpt lat="38.62311" lon="-0.77657">
        <ele>676.4</ele>
        <time>2022-10-15 11:41:12</time>
      </trkpt>
      <trkpt lat="38.62311" lon="-0.77657">
        <ele>676.4</ele>
        <time>2022-10-15 11:41:13</time>
      </trkpt>
      <trkpt lat="38.62308" lon="-0.77661">
        <ele>676.6</ele>
        <time>2022-10-15 11:41:14</time>
      </trkpt>
      <trkpt lat="38.62305" lon="-0.77664">
        <ele>676.6</ele>
        <time>2022-10-15 11:41:15</time>
      </trkpt>
      <trkpt lat="38.62302" lon="-0.77667">
        <ele>676.8</ele>
        <time>2022-10-15 11:41:16</time>
      </trkpt>
      <trkpt lat="38.62299" lon="-0.7767">
        <ele>676.8</ele>
        <time>2022-10-15 11:41:17</time>
      </trkpt>
      <trkpt lat="38.62296" lon="-0.77673">
        <ele>677</ele>
        <time>2022-10-15 11:41:18</time>
      </trkpt>
      <trkpt lat="38.62293" lon="-0.77675">
        <ele>677</ele>
        <time>2022-10-15 11:41:19</time>
      </trkpt>
      <trkpt lat="38.62289" lon="-0.77677">
        <ele>677</ele>
        <time>2022-10-15 11:41:20</time>
      </trkpt>
      <trkpt lat="38.62286" lon="-0.77679">
        <ele>677.2</ele>
        <time>2022-10-15 11:41:21</time>
      </trkpt>
      <trkpt lat="38.62283" lon="-0.77681">
        <ele>677.4</ele>
        <time>2022-10-15 11:41:22</time>
      </trkpt>
      <trkpt lat="38.6228" lon="-0.77683">
        <ele>677.6</ele>
        <time>2022-10-15 11:41:23</time>
      </trkpt>
      <trkpt lat="38.62277" lon="-0.77685">
        <ele>677.8</ele>
        <time>2022-10-15 11:41:24</time>
      </trkpt>
      <trkpt lat="38.62274" lon="-0.77687">
        <ele>677.8</ele>
        <time>2022-10-15 11:41:25</time>
      </trkpt>
      <trkpt lat="38.62271" lon="-0.77689">
        <ele>678</ele>
        <time>2022-10-15 11:41:26</time>
      </trkpt>
      <trkpt lat="38.62268" lon="-0.77691">
        <ele>678.2</ele>
        <time>2022-10-15 11:41:27</time>
      </trkpt>
      <trkpt lat="38.62265" lon="-0.77692">
        <ele>678.2</ele>
        <time>2022-10-15 11:41:28</time>
      </trkpt>
      <trkpt lat="38.62262" lon="-0.77694">
        <ele>678.4</ele>
        <time>2022-10-15 11:41:29</time>
      </trkpt>
      <trkpt lat="38.62259" lon="-0.77695">
        <ele>678.6</ele>
        <time>2022-10-15 11:41:30</time>
      </trkpt>
      <trkpt lat="38.62255" lon="-0.77698">
        <ele>678.6</ele>
        <time>2022-10-15 11:41:31</time>
      </trkpt>
      <trkpt lat="38.62248" lon="-0.77703">
        <ele>679</ele>
        <time>2022-10-15 11:41:32</time>
      </trkpt>
      <trkpt lat="38.62244" lon="-0.77706">
        <ele>679.2</ele>
        <time>2022-10-15 11:41:33</time>
      </trkpt>
      <trkpt lat="38.62241" lon="-0.77709">
        <ele>679.4</ele>
        <time>2022-10-15 11:41:34</time>
      </trkpt>
      <trkpt lat="38.62238" lon="-0.77712">
        <ele>679.4</ele>
        <time>2022-10-15 11:41:35</time>
      </trkpt>
      <trkpt lat="38.62236" lon="-0.77716">
        <ele>679.4</ele>
        <time>2022-10-15 11:41:36</time>
      </trkpt>
      <trkpt lat="38.62236" lon="-0.77716">
        <ele>679.6</ele>
        <time>2022-10-15 11:41:37</time>
      </trkpt>
      <trkpt lat="38.62232" lon="-0.77724">
        <ele>679.6</ele>
        <time>2022-10-15 11:41:38</time>
      </trkpt>
      <trkpt lat="38.62231" lon="-0.77728">
        <ele>679.8</ele>
        <time>2022-10-15 11:41:39</time>
      </trkpt>
      <trkpt lat="38.62229" lon="-0.77732">
        <ele>680</ele>
        <time>2022-10-15 11:41:40</time>
      </trkpt>
      <trkpt lat="38.62228" lon="-0.77737">
        <ele>680</ele>
        <time>2022-10-15 11:41:41</time>
      </trkpt>
      <trkpt lat="38.62226" lon="-0.77741">
        <ele>680.2</ele>
        <time>2022-10-15 11:41:42</time>
      </trkpt>
      <trkpt lat="38.62226" lon="-0.77741">
        <ele>680.2</ele>
        <time>2022-10-15 11:41:43</time>
      </trkpt>
      <trkpt lat="38.62223" lon="-0.77749">
        <ele>680.4</ele>
        <time>2022-10-15 11:41:44</time>
      </trkpt>
      <trkpt lat="38.62221" lon="-0.77754">
        <ele>680.4</ele>
        <time>2022-10-15 11:41:45</time>
      </trkpt>
      <trkpt lat="38.62219" lon="-0.77758">
        <ele>680.6</ele>
        <time>2022-10-15 11:41:46</time>
      </trkpt>
      <trkpt lat="38.62218" lon="-0.77763">
        <ele>680.4</ele>
        <time>2022-10-15 11:41:47</time>
      </trkpt>
      <trkpt lat="38.62216" lon="-0.77767">
        <ele>680.6</ele>
        <time>2022-10-15 11:41:48</time>
      </trkpt>
      <trkpt lat="38.62216" lon="-0.77767">
        <ele>680.6</ele>
        <time>2022-10-15 11:41:49</time>
      </trkpt>
      <trkpt lat="38.62212" lon="-0.77776">
        <ele>680.6</ele>
        <time>2022-10-15 11:41:50</time>
      </trkpt>
      <trkpt lat="38.62212" lon="-0.77776">
        <ele>680.6</ele>
        <time>2022-10-15 11:41:51</time>
      </trkpt>
      <trkpt lat="38.62208" lon="-0.77785">
        <ele>680.6</ele>
        <time>2022-10-15 11:41:52</time>
      </trkpt>
      <trkpt lat="38.62205" lon="-0.7779">
        <ele>680.6</ele>
        <time>2022-10-15 11:41:53</time>
      </trkpt>
      <trkpt lat="38.62203" lon="-0.77795">
        <ele>680.6</ele>
        <time>2022-10-15 11:41:54</time>
      </trkpt>
      <trkpt lat="38.62203" lon="-0.77795">
        <ele>680.6</ele>
        <time>2022-10-15 11:41:55</time>
      </trkpt>
      <trkpt lat="38.62198" lon="-0.77804">
        <ele>680.6</ele>
        <time>2022-10-15 11:41:56</time>
      </trkpt>
      <trkpt lat="38.62196" lon="-0.77809">
        <ele>680.6</ele>
        <time>2022-10-15 11:41:57</time>
      </trkpt>
      <trkpt lat="38.62193" lon="-0.77813">
        <ele>680.6</ele>
        <time>2022-10-15 11:41:58</time>
      </trkpt>
      <trkpt lat="38.62191" lon="-0.77818">
        <ele>680.6</ele>
        <time>2022-10-15 11:41:59</time>
      </trkpt>
      <trkpt lat="38.62188" lon="-0.77822">
        <ele>680.6</ele>
        <time>2022-10-15 11:42:00</time>
      </trkpt>
      <trkpt lat="38.62188" lon="-0.77822">
        <ele>680.6</ele>
        <time>2022-10-15 11:42:01</time>
      </trkpt>
      <trkpt lat="38.62183" lon="-0.77833">
        <ele>680.6</ele>
        <time>2022-10-15 11:42:02</time>
      </trkpt>
      <trkpt lat="38.6218" lon="-0.77838">
        <ele>680.4</ele>
        <time>2022-10-15 11:42:03</time>
      </trkpt>
      <trkpt lat="38.62177" lon="-0.77844">
        <ele>680</ele>
        <time>2022-10-15 11:42:04</time>
      </trkpt>
      <trkpt lat="38.62175" lon="-0.77849">
        <ele>679.8</ele>
        <time>2022-10-15 11:42:05</time>
      </trkpt>
      <trkpt lat="38.62173" lon="-0.77854">
        <ele>679.8</ele>
        <time>2022-10-15 11:42:06</time>
      </trkpt>
      <trkpt lat="38.62173" lon="-0.77854">
        <ele>679.8</ele>
        <time>2022-10-15 11:42:07</time>
      </trkpt>
      <trkpt lat="38.62169" lon="-0.77863">
        <ele>679.8</ele>
        <time>2022-10-15 11:42:08</time>
      </trkpt>
      <trkpt lat="38.62167" lon="-0.77868">
        <ele>679.8</ele>
        <time>2022-10-15 11:42:09</time>
      </trkpt>
      <trkpt lat="38.62164" lon="-0.77873">
        <ele>679.8</ele>
        <time>2022-10-15 11:42:10</time>
      </trkpt>
      <trkpt lat="38.62162" lon="-0.77878">
        <ele>679.8</ele>
        <time>2022-10-15 11:42:11</time>
      </trkpt>
      <trkpt lat="38.6216" lon="-0.77883">
        <ele>679.8</ele>
        <time>2022-10-15 11:42:12</time>
      </trkpt>
      <trkpt lat="38.6216" lon="-0.77883">
        <ele>679.8</ele>
        <time>2022-10-15 11:42:13</time>
      </trkpt>
      <trkpt lat="38.62156" lon="-0.77892">
        <ele>679.8</ele>
        <time>2022-10-15 11:42:14</time>
      </trkpt>
      <trkpt lat="38.62154" lon="-0.77898">
        <ele>679.8</ele>
        <time>2022-10-15 11:42:15</time>
      </trkpt>
      <trkpt lat="38.62152" lon="-0.77903">
        <ele>679.8</ele>
        <time>2022-10-15 11:42:16</time>
      </trkpt>
      <trkpt lat="38.6215" lon="-0.77908">
        <ele>680</ele>
        <time>2022-10-15 11:42:17</time>
      </trkpt>
      <trkpt lat="38.62147" lon="-0.77913">
        <ele>680</ele>
        <time>2022-10-15 11:42:18</time>
      </trkpt>
      <trkpt lat="38.62147" lon="-0.77913">
        <ele>680.2</ele>
        <time>2022-10-15 11:42:19</time>
      </trkpt>
      <trkpt lat="38.62143" lon="-0.77923">
        <ele>680.2</ele>
        <time>2022-10-15 11:42:20</time>
      </trkpt>
      <trkpt lat="38.6214" lon="-0.77929">
        <ele>680.2</ele>
        <time>2022-10-15 11:42:21</time>
      </trkpt>
      <trkpt lat="38.62138" lon="-0.77934">
        <ele>680.4</ele>
        <time>2022-10-15 11:42:22</time>
      </trkpt>
      <trkpt lat="38.62136" lon="-0.77939">
        <ele>680.4</ele>
        <time>2022-10-15 11:42:23</time>
      </trkpt>
      <trkpt lat="38.62133" lon="-0.77944">
        <ele>680.4</ele>
        <time>2022-10-15 11:42:24</time>
      </trkpt>
      <trkpt lat="38.62133" lon="-0.77944">
        <ele>680.6</ele>
        <time>2022-10-15 11:42:25</time>
      </trkpt>
      <trkpt lat="38.62129" lon="-0.77955">
        <ele>680.6</ele>
        <time>2022-10-15 11:42:26</time>
      </trkpt>
      <trkpt lat="38.62129" lon="-0.77955">
        <ele>680.6</ele>
        <time>2022-10-15 11:42:27</time>
      </trkpt>
      <trkpt lat="38.62125" lon="-0.77965">
        <ele>680.8</ele>
        <time>2022-10-15 11:42:28</time>
      </trkpt>
      <trkpt lat="38.62122" lon="-0.7797">
        <ele>680.8</ele>
        <time>2022-10-15 11:42:29</time>
      </trkpt>
      <trkpt lat="38.6212" lon="-0.77975">
        <ele>681</ele>
        <time>2022-10-15 11:42:30</time>
      </trkpt>
      <trkpt lat="38.6212" lon="-0.77975">
        <ele>681</ele>
        <time>2022-10-15 11:42:31</time>
      </trkpt>
      <trkpt lat="38.62116" lon="-0.77985">
        <ele>681</ele>
        <time>2022-10-15 11:42:32</time>
      </trkpt>
      <trkpt lat="38.62114" lon="-0.77991">
        <ele>681</ele>
        <time>2022-10-15 11:42:33</time>
      </trkpt>
      <trkpt lat="38.62112" lon="-0.77996">
        <ele>681.2</ele>
        <time>2022-10-15 11:42:34</time>
      </trkpt>
      <trkpt lat="38.62109" lon="-0.78001">
        <ele>681.2</ele>
        <time>2022-10-15 11:42:35</time>
      </trkpt>
      <trkpt lat="38.62107" lon="-0.78006">
        <ele>681.4</ele>
        <time>2022-10-15 11:42:36</time>
      </trkpt>
      <trkpt lat="38.62107" lon="-0.78006">
        <ele>681.4</ele>
        <time>2022-10-15 11:42:37</time>
      </trkpt>
      <trkpt lat="38.62103" lon="-0.78017">
        <ele>681.4</ele>
        <time>2022-10-15 11:42:38</time>
      </trkpt>
      <trkpt lat="38.621" lon="-0.78022">
        <ele>681.6</ele>
        <time>2022-10-15 11:42:39</time>
      </trkpt>
      <trkpt lat="38.62098" lon="-0.78027">
        <ele>681.6</ele>
        <time>2022-10-15 11:42:40</time>
      </trkpt>
      <trkpt lat="38.62096" lon="-0.78032">
        <ele>681.6</ele>
        <time>2022-10-15 11:42:41</time>
      </trkpt>
      <trkpt lat="38.62094" lon="-0.78037">
        <ele>681.6</ele>
        <time>2022-10-15 11:42:42</time>
      </trkpt>
      <trkpt lat="38.62094" lon="-0.78037">
        <ele>681.8</ele>
        <time>2022-10-15 11:42:43</time>
      </trkpt>
      <trkpt lat="38.6209" lon="-0.78045">
        <ele>681.8</ele>
        <time>2022-10-15 11:42:44</time>
      </trkpt>
      <trkpt lat="38.62087" lon="-0.78049">
        <ele>681.8</ele>
        <time>2022-10-15 11:42:45</time>
      </trkpt>
      <trkpt lat="38.62085" lon="-0.78053">
        <ele>682</ele>
        <time>2022-10-15 11:42:46</time>
      </trkpt>
      <trkpt lat="38.62082" lon="-0.78057">
        <ele>682.2</ele>
        <time>2022-10-15 11:42:47</time>
      </trkpt>
      <trkpt lat="38.6208" lon="-0.78061">
        <ele>682.4</ele>
        <time>2022-10-15 11:42:48</time>
      </trkpt>
      <trkpt lat="38.6208" lon="-0.78061">
        <ele>682.6</ele>
        <time>2022-10-15 11:42:49</time>
      </trkpt>
      <trkpt lat="38.62075" lon="-0.78068">
        <ele>682.6</ele>
        <time>2022-10-15 11:42:50</time>
      </trkpt>
      <trkpt lat="38.62072" lon="-0.78071">
        <ele>682.8</ele>
        <time>2022-10-15 11:42:51</time>
      </trkpt>
      <trkpt lat="38.62069" lon="-0.78074">
        <ele>682.8</ele>
        <time>2022-10-15 11:42:52</time>
      </trkpt>
      <trkpt lat="38.62066" lon="-0.78077">
        <ele>682.8</ele>
        <time>2022-10-15 11:42:53</time>
      </trkpt>
      <trkpt lat="38.62064" lon="-0.7808">
        <ele>682.8</ele>
        <time>2022-10-15 11:42:54</time>
      </trkpt>
      <trkpt lat="38.62064" lon="-0.7808">
        <ele>683</ele>
        <time>2022-10-15 11:42:55</time>
      </trkpt>
      <trkpt lat="38.62059" lon="-0.78084">
        <ele>683</ele>
        <time>2022-10-15 11:42:56</time>
      </trkpt>
      <trkpt lat="38.62057" lon="-0.78086">
        <ele>683</ele>
        <time>2022-10-15 11:42:57</time>
      </trkpt>
      <trkpt lat="38.62054" lon="-0.78089">
        <ele>683.2</ele>
        <time>2022-10-15 11:42:58</time>
      </trkpt>
      <trkpt lat="38.62052" lon="-0.78091">
        <ele>683.4</ele>
        <time>2022-10-15 11:42:59</time>
      </trkpt>
      <trkpt lat="38.62052" lon="-0.78091">
        <ele>683.4</ele>
        <time>2022-10-15 11:43:00</time>
      </trkpt>
      <trkpt lat="38.6205" lon="-0.78093">
        <ele>683.6</ele>
        <time>2022-10-15 11:43:01</time>
      </trkpt>
      <trkpt lat="38.62047" lon="-0.78094">
        <ele>683.6</ele>
        <time>2022-10-15 11:43:02</time>
      </trkpt>
      <trkpt lat="38.62045" lon="-0.78096">
        <ele>683.8</ele>
        <time>2022-10-15 11:43:03</time>
      </trkpt>
      <trkpt lat="38.62043" lon="-0.78098">
        <ele>684</ele>
        <time>2022-10-15 11:43:04</time>
      </trkpt>
      <trkpt lat="38.6204" lon="-0.781">
        <ele>684.2</ele>
        <time>2022-10-15 11:43:05</time>
      </trkpt>
      <trkpt lat="38.62038" lon="-0.78102">
        <ele>684.6</ele>
        <time>2022-10-15 11:43:06</time>
      </trkpt>
      <trkpt lat="38.62036" lon="-0.78104">
        <ele>685</ele>
        <time>2022-10-15 11:43:07</time>
      </trkpt>
      <trkpt lat="38.62033" lon="-0.78106">
        <ele>685</ele>
        <time>2022-10-15 11:43:08</time>
      </trkpt>
      <trkpt lat="38.62031" lon="-0.78108">
        <ele>685.2</ele>
        <time>2022-10-15 11:43:09</time>
      </trkpt>
      <trkpt lat="38.62028" lon="-0.7811">
        <ele>685.4</ele>
        <time>2022-10-15 11:43:10</time>
      </trkpt>
      <trkpt lat="38.62026" lon="-0.78112">
        <ele>685.6</ele>
        <time>2022-10-15 11:43:11</time>
      </trkpt>
      <trkpt lat="38.62024" lon="-0.78115">
        <ele>686</ele>
        <time>2022-10-15 11:43:12</time>
      </trkpt>
      <trkpt lat="38.62021" lon="-0.78117">
        <ele>686.2</ele>
        <time>2022-10-15 11:43:13</time>
      </trkpt>
      <trkpt lat="38.62019" lon="-0.78119">
        <ele>686.4</ele>
        <time>2022-10-15 11:43:14</time>
      </trkpt>
      <trkpt lat="38.62017" lon="-0.78121">
        <ele>686.6</ele>
        <time>2022-10-15 11:43:15</time>
      </trkpt>
      <trkpt lat="38.62014" lon="-0.78123">
        <ele>686.8</ele>
        <time>2022-10-15 11:43:16</time>
      </trkpt>
      <trkpt lat="38.62012" lon="-0.78125">
        <ele>686.8</ele>
        <time>2022-10-15 11:43:17</time>
      </trkpt>
      <trkpt lat="38.62007" lon="-0.78129">
        <ele>687</ele>
        <time>2022-10-15 11:43:18</time>
      </trkpt>
      <trkpt lat="38.62007" lon="-0.78129">
        <ele>687</ele>
        <time>2022-10-15 11:43:19</time>
      </trkpt>
      <trkpt lat="38.62002" lon="-0.78134">
        <ele>687</ele>
        <time>2022-10-15 11:43:20</time>
      </trkpt>
      <trkpt lat="38.61999" lon="-0.78136">
        <ele>687</ele>
        <time>2022-10-15 11:43:21</time>
      </trkpt>
      <trkpt lat="38.61997" lon="-0.78138">
        <ele>687.2</ele>
        <time>2022-10-15 11:43:22</time>
      </trkpt>
      <trkpt lat="38.61994" lon="-0.78141">
        <ele>687.6</ele>
        <time>2022-10-15 11:43:23</time>
      </trkpt>
      <trkpt lat="38.61991" lon="-0.78143">
        <ele>687.8</ele>
        <time>2022-10-15 11:43:24</time>
      </trkpt>
      <trkpt lat="38.61991" lon="-0.78143">
        <ele>688</ele>
        <time>2022-10-15 11:43:25</time>
      </trkpt>
      <trkpt lat="38.61985" lon="-0.78147">
        <ele>688</ele>
        <time>2022-10-15 11:43:26</time>
      </trkpt>
      <trkpt lat="38.61982" lon="-0.78149">
        <ele>688.2</ele>
        <time>2022-10-15 11:43:27</time>
      </trkpt>
      <trkpt lat="38.61979" lon="-0.78151">
        <ele>688.4</ele>
        <time>2022-10-15 11:43:28</time>
      </trkpt>
      <trkpt lat="38.61976" lon="-0.78153">
        <ele>688.4</ele>
        <time>2022-10-15 11:43:29</time>
      </trkpt>
      <trkpt lat="38.61972" lon="-0.78154">
        <ele>688.4</ele>
        <time>2022-10-15 11:43:30</time>
      </trkpt>
      <trkpt lat="38.61972" lon="-0.78154">
        <ele>688.6</ele>
        <time>2022-10-15 11:43:31</time>
      </trkpt>
      <trkpt lat="38.61965" lon="-0.78159">
        <ele>689</ele>
        <time>2022-10-15 11:43:32</time>
      </trkpt>
      <trkpt lat="38.61962" lon="-0.78163">
        <ele>689.2</ele>
        <time>2022-10-15 11:43:33</time>
      </trkpt>
      <trkpt lat="38.61958" lon="-0.78166">
        <ele>689.2</ele>
        <time>2022-10-15 11:43:34</time>
      </trkpt>
      <trkpt lat="38.61956" lon="-0.7817">
        <ele>689.4</ele>
        <time>2022-10-15 11:43:35</time>
      </trkpt>
      <trkpt lat="38.61953" lon="-0.78173">
        <ele>689.6</ele>
        <time>2022-10-15 11:43:36</time>
      </trkpt>
      <trkpt lat="38.61953" lon="-0.78173">
        <ele>689.6</ele>
        <time>2022-10-15 11:43:37</time>
      </trkpt>
      <trkpt lat="38.6195" lon="-0.78178">
        <ele>689.8</ele>
        <time>2022-10-15 11:43:38</time>
      </trkpt>
      <trkpt lat="38.61948" lon="-0.7818">
        <ele>689.8</ele>
        <time>2022-10-15 11:43:39</time>
      </trkpt>
      <trkpt lat="38.61947" lon="-0.78183">
        <ele>690</ele>
        <time>2022-10-15 11:43:40</time>
      </trkpt>
      <trkpt lat="38.61945" lon="-0.78185">
        <ele>690</ele>
        <time>2022-10-15 11:43:41</time>
      </trkpt>
      <trkpt lat="38.61943" lon="-0.78187">
        <ele>690</ele>
        <time>2022-10-15 11:43:42</time>
      </trkpt>
      <trkpt lat="38.61943" lon="-0.78187">
        <ele>690</ele>
        <time>2022-10-15 11:43:43</time>
      </trkpt>
      <trkpt lat="38.61941" lon="-0.78192">
        <ele>690</ele>
        <time>2022-10-15 11:43:44</time>
      </trkpt>
      <trkpt lat="38.61939" lon="-0.78194">
        <ele>690.4</ele>
        <time>2022-10-15 11:43:45</time>
      </trkpt>
      <trkpt lat="38.61937" lon="-0.78197">
        <ele>690.8</ele>
        <time>2022-10-15 11:43:46</time>
      </trkpt>
      <trkpt lat="38.61935" lon="-0.78199">
        <ele>691.2</ele>
        <time>2022-10-15 11:43:47</time>
      </trkpt>
      <trkpt lat="38.61934" lon="-0.78201">
        <ele>691.6</ele>
        <time>2022-10-15 11:43:48</time>
      </trkpt>
      <trkpt lat="38.61934" lon="-0.78201">
        <ele>692</ele>
        <time>2022-10-15 11:43:49</time>
      </trkpt>
      <trkpt lat="38.6193" lon="-0.78206">
        <ele>692.2</ele>
        <time>2022-10-15 11:43:50</time>
      </trkpt>
      <trkpt lat="38.6193" lon="-0.78206">
        <ele>692.4</ele>
        <time>2022-10-15 11:43:51</time>
      </trkpt>
      <trkpt lat="38.61927" lon="-0.7821">
        <ele>692.8</ele>
        <time>2022-10-15 11:43:52</time>
      </trkpt>
      <trkpt lat="38.61925" lon="-0.78213">
        <ele>692.8</ele>
        <time>2022-10-15 11:43:53</time>
      </trkpt>
      <trkpt lat="38.61924" lon="-0.78215">
        <ele>693</ele>
        <time>2022-10-15 11:43:54</time>
      </trkpt>
      <trkpt lat="38.61924" lon="-0.78215">
        <ele>693.2</ele>
        <time>2022-10-15 11:43:55</time>
      </trkpt>
      <trkpt lat="38.6192" lon="-0.78219">
        <ele>693.6</ele>
        <time>2022-10-15 11:43:56</time>
      </trkpt>
      <trkpt lat="38.61918" lon="-0.78221">
        <ele>693.8</ele>
        <time>2022-10-15 11:43:57</time>
      </trkpt>
      <trkpt lat="38.61916" lon="-0.78223">
        <ele>694</ele>
        <time>2022-10-15 11:43:58</time>
      </trkpt>
      <trkpt lat="38.61915" lon="-0.78225">
        <ele>694.2</ele>
        <time>2022-10-15 11:43:59</time>
      </trkpt>
      <trkpt lat="38.61913" lon="-0.78228">
        <ele>694.4</ele>
        <time>2022-10-15 11:44:00</time>
      </trkpt>
      <trkpt lat="38.61913" lon="-0.78228">
        <ele>694.6</ele>
        <time>2022-10-15 11:44:01</time>
      </trkpt>
      <trkpt lat="38.6191" lon="-0.78232">
        <ele>694.6</ele>
        <time>2022-10-15 11:44:02</time>
      </trkpt>
      <trkpt lat="38.61908" lon="-0.78235">
        <ele>694.8</ele>
        <time>2022-10-15 11:44:03</time>
      </trkpt>
      <trkpt lat="38.61906" lon="-0.78237">
        <ele>695</ele>
        <time>2022-10-15 11:44:04</time>
      </trkpt>
      <trkpt lat="38.61904" lon="-0.7824">
        <ele>695</ele>
        <time>2022-10-15 11:44:05</time>
      </trkpt>
      <trkpt lat="38.61904" lon="-0.7824">
        <ele>695.2</ele>
        <time>2022-10-15 11:44:06</time>
      </trkpt>
      <trkpt lat="38.61902" lon="-0.78242">
        <ele>695.2</ele>
        <time>2022-10-15 11:44:07</time>
      </trkpt>
      <trkpt lat="38.61898" lon="-0.78247">
        <ele>695.4</ele>
        <time>2022-10-15 11:44:08</time>
      </trkpt>
      <trkpt lat="38.61896" lon="-0.78249">
        <ele>695.4</ele>
        <time>2022-10-15 11:44:09</time>
      </trkpt>
      <trkpt lat="38.61895" lon="-0.78251">
        <ele>695.6</ele>
        <time>2022-10-15 11:44:10</time>
      </trkpt>
      <trkpt lat="38.61893" lon="-0.78253">
        <ele>695.6</ele>
        <time>2022-10-15 11:44:11</time>
      </trkpt>
      <trkpt lat="38.61893" lon="-0.78253">
        <ele>695.8</ele>
        <time>2022-10-15 11:44:12</time>
      </trkpt>
      <trkpt lat="38.61891" lon="-0.78255">
        <ele>695.8</ele>
        <time>2022-10-15 11:44:13</time>
      </trkpt>
      <trkpt lat="38.61887" lon="-0.7826">
        <ele>695.8</ele>
        <time>2022-10-15 11:44:14</time>
      </trkpt>
      <trkpt lat="38.61887" lon="-0.7826">
        <ele>696</ele>
        <time>2022-10-15 11:44:15</time>
      </trkpt>
      <trkpt lat="38.61883" lon="-0.78264">
        <ele>696</ele>
        <time>2022-10-15 11:44:16</time>
      </trkpt>
      <trkpt lat="38.61881" lon="-0.78267">
        <ele>696</ele>
        <time>2022-10-15 11:44:17</time>
      </trkpt>
      <trkpt lat="38.61879" lon="-0.78269">
        <ele>696</ele>
        <time>2022-10-15 11:44:18</time>
      </trkpt>
      <trkpt lat="38.61879" lon="-0.78269">
        <ele>696</ele>
        <time>2022-10-15 11:44:19</time>
      </trkpt>
      <trkpt lat="38.61874" lon="-0.78275">
        <ele>696</ele>
        <time>2022-10-15 11:44:20</time>
      </trkpt>
      <trkpt lat="38.61872" lon="-0.78277">
        <ele>696</ele>
        <time>2022-10-15 11:44:21</time>
      </trkpt>
      <trkpt lat="38.6187" lon="-0.7828">
        <ele>696</ele>
        <time>2022-10-15 11:44:22</time>
      </trkpt>
      <trkpt lat="38.61867" lon="-0.78283">
        <ele>696.2</ele>
        <time>2022-10-15 11:44:23</time>
      </trkpt>
      <trkpt lat="38.61865" lon="-0.78286">
        <ele>696.2</ele>
        <time>2022-10-15 11:44:24</time>
      </trkpt>
      <trkpt lat="38.61865" lon="-0.78286">
        <ele>696.2</ele>
        <time>2022-10-15 11:44:25</time>
      </trkpt>
      <trkpt lat="38.6186" lon="-0.78291">
        <ele>696.2</ele>
        <time>2022-10-15 11:44:26</time>
      </trkpt>
      <trkpt lat="38.61857" lon="-0.78293">
        <ele>696.2</ele>
        <time>2022-10-15 11:44:27</time>
      </trkpt>
      <trkpt lat="38.61854" lon="-0.78295">
        <ele>696.2</ele>
        <time>2022-10-15 11:44:28</time>
      </trkpt>
      <trkpt lat="38.61851" lon="-0.78297">
        <ele>696.2</ele>
        <time>2022-10-15 11:44:29</time>
      </trkpt>
      <trkpt lat="38.61848" lon="-0.78299">
        <ele>696.2</ele>
        <time>2022-10-15 11:44:30</time>
      </trkpt>
      <trkpt lat="38.61848" lon="-0.78299">
        <ele>696.2</ele>
        <time>2022-10-15 11:44:31</time>
      </trkpt>
      <trkpt lat="38.61843" lon="-0.78302">
        <ele>696.2</ele>
        <time>2022-10-15 11:44:32</time>
      </trkpt>
      <trkpt lat="38.6184" lon="-0.78304">
        <ele>696.2</ele>
        <time>2022-10-15 11:44:33</time>
      </trkpt>
      <trkpt lat="38.61838" lon="-0.78306">
        <ele>696.2</ele>
        <time>2022-10-15 11:44:34</time>
      </trkpt>
      <trkpt lat="38.61835" lon="-0.78307">
        <ele>696.2</ele>
        <time>2022-10-15 11:44:35</time>
      </trkpt>
      <trkpt lat="38.61832" lon="-0.78309">
        <ele>696.2</ele>
        <time>2022-10-15 11:44:36</time>
      </trkpt>
      <trkpt lat="38.61832" lon="-0.78309">
        <ele>696.2</ele>
        <time>2022-10-15 11:44:37</time>
      </trkpt>
      <trkpt lat="38.61827" lon="-0.78312">
        <ele>696.4</ele>
        <time>2022-10-15 11:44:38</time>
      </trkpt>
      <trkpt lat="38.61825" lon="-0.78313">
        <ele>696.4</ele>
        <time>2022-10-15 11:44:39</time>
      </trkpt>
      <trkpt lat="38.61823" lon="-0.78315">
        <ele>696.6</ele>
        <time>2022-10-15 11:44:40</time>
      </trkpt>
      <trkpt lat="38.6182" lon="-0.78316">
        <ele>696.8</ele>
        <time>2022-10-15 11:44:41</time>
      </trkpt>
      <trkpt lat="38.61818" lon="-0.78318">
        <ele>697.2</ele>
        <time>2022-10-15 11:44:42</time>
      </trkpt>
      <trkpt lat="38.61818" lon="-0.78318">
        <ele>697.6</ele>
        <time>2022-10-15 11:44:43</time>
      </trkpt>
      <trkpt lat="38.61814" lon="-0.78321">
        <ele>697.8</ele>
        <time>2022-10-15 11:44:44</time>
      </trkpt>
      <trkpt lat="38.61814" lon="-0.78321">
        <ele>698</ele>
        <time>2022-10-15 11:44:45</time>
      </trkpt>
      <trkpt lat="38.61811" lon="-0.78322">
        <ele>698.4</ele>
        <time>2022-10-15 11:44:46</time>
      </trkpt>
      <trkpt lat="38.61809" lon="-0.78324">
        <ele>698.8</ele>
        <time>2022-10-15 11:44:47</time>
      </trkpt>
      <trkpt lat="38.61807" lon="-0.78325">
        <ele>699.4</ele>
        <time>2022-10-15 11:44:48</time>
      </trkpt>
      <trkpt lat="38.61805" lon="-0.78327">
        <ele>699.8</ele>
        <time>2022-10-15 11:44:49</time>
      </trkpt>
      <trkpt lat="38.61803" lon="-0.78328">
        <ele>700</ele>
        <time>2022-10-15 11:44:50</time>
      </trkpt>
      <trkpt lat="38.618" lon="-0.78329">
        <ele>700.4</ele>
        <time>2022-10-15 11:44:51</time>
      </trkpt>
      <trkpt lat="38.61798" lon="-0.78331">
        <ele>701</ele>
        <time>2022-10-15 11:44:52</time>
      </trkpt>
      <trkpt lat="38.61796" lon="-0.78332">
        <ele>701.2</ele>
        <time>2022-10-15 11:44:53</time>
      </trkpt>
      <trkpt lat="38.61794" lon="-0.78334">
        <ele>701.2</ele>
        <time>2022-10-15 11:44:54</time>
      </trkpt>
      <trkpt lat="38.61791" lon="-0.78335">
        <ele>701.4</ele>
        <time>2022-10-15 11:44:55</time>
      </trkpt>
      <trkpt lat="38.61789" lon="-0.78336">
        <ele>701.6</ele>
        <time>2022-10-15 11:44:56</time>
      </trkpt>
      <trkpt lat="38.61787" lon="-0.78338">
        <ele>701.8</ele>
        <time>2022-10-15 11:44:57</time>
      </trkpt>
      <trkpt lat="38.61785" lon="-0.78339">
        <ele>702.2</ele>
        <time>2022-10-15 11:44:58</time>
      </trkpt>
      <trkpt lat="38.61782" lon="-0.7834">
        <ele>702.6</ele>
        <time>2022-10-15 11:44:59</time>
      </trkpt>
      <trkpt lat="38.6178" lon="-0.78342">
        <ele>703.2</ele>
        <time>2022-10-15 11:45:00</time>
      </trkpt>
      <trkpt lat="38.61778" lon="-0.78343">
        <ele>703.4</ele>
        <time>2022-10-15 11:45:01</time>
      </trkpt>
      <trkpt lat="38.61776" lon="-0.78345">
        <ele>703.6</ele>
        <time>2022-10-15 11:45:02</time>
      </trkpt>
      <trkpt lat="38.61774" lon="-0.78346">
        <ele>703.8</ele>
        <time>2022-10-15 11:45:03</time>
      </trkpt>
      <trkpt lat="38.61772" lon="-0.78347">
        <ele>704</ele>
        <time>2022-10-15 11:45:04</time>
      </trkpt>
      <trkpt lat="38.61768" lon="-0.7835">
        <ele>704</ele>
        <time>2022-10-15 11:45:05</time>
      </trkpt>
      <trkpt lat="38.61765" lon="-0.78351">
        <ele>704.2</ele>
        <time>2022-10-15 11:45:06</time>
      </trkpt>
      <trkpt lat="38.61765" lon="-0.78351">
        <ele>704.2</ele>
        <time>2022-10-15 11:45:07</time>
      </trkpt>
      <trkpt lat="38.61761" lon="-0.78354">
        <ele>704.6</ele>
        <time>2022-10-15 11:45:08</time>
      </trkpt>
      <trkpt lat="38.61761" lon="-0.78354">
        <ele>705</ele>
        <time>2022-10-15 11:45:09</time>
      </trkpt>
      <trkpt lat="38.61757" lon="-0.78356">
        <ele>705.2</ele>
        <time>2022-10-15 11:45:10</time>
      </trkpt>
      <trkpt lat="38.61755" lon="-0.78357">
        <ele>705.4</ele>
        <time>2022-10-15 11:45:11</time>
      </trkpt>
      <trkpt lat="38.61752" lon="-0.78358">
        <ele>705.6</ele>
        <time>2022-10-15 11:45:12</time>
      </trkpt>
      <trkpt lat="38.61752" lon="-0.78358">
        <ele>705.6</ele>
        <time>2022-10-15 11:45:13</time>
      </trkpt>
      <trkpt lat="38.61748" lon="-0.7836">
        <ele>705.8</ele>
        <time>2022-10-15 11:45:14</time>
      </trkpt>
      <trkpt lat="38.61746" lon="-0.78361">
        <ele>706.2</ele>
        <time>2022-10-15 11:45:15</time>
      </trkpt>
      <trkpt lat="38.61745" lon="-0.78362">
        <ele>706.4</ele>
        <time>2022-10-15 11:45:16</time>
      </trkpt>
      <trkpt lat="38.61743" lon="-0.78364">
        <ele>706.8</ele>
        <time>2022-10-15 11:45:17</time>
      </trkpt>
      <trkpt lat="38.61742" lon="-0.78365">
        <ele>707</ele>
        <time>2022-10-15 11:45:18</time>
      </trkpt>
      <trkpt lat="38.61742" lon="-0.78365">
        <ele>707</ele>
        <time>2022-10-15 11:45:19</time>
      </trkpt>
      <trkpt lat="38.61739" lon="-0.78368">
        <ele>707.2</ele>
        <time>2022-10-15 11:45:20</time>
      </trkpt>
      <trkpt lat="38.61738" lon="-0.78369">
        <ele>707.4</ele>
        <time>2022-10-15 11:45:21</time>
      </trkpt>
      <trkpt lat="38.61738" lon="-0.78369">
        <ele>707.6</ele>
        <time>2022-10-15 11:45:22</time>
      </trkpt>
      <trkpt lat="38.61736" lon="-0.78371">
        <ele>707.8</ele>
        <time>2022-10-15 11:45:23</time>
      </trkpt>
      <trkpt lat="38.61734" lon="-0.78372">
        <ele>707.8</ele>
        <time>2022-10-15 11:45:24</time>
      </trkpt>
      <trkpt lat="38.61733" lon="-0.78374">
        <ele>708</ele>
        <time>2022-10-15 11:45:25</time>
      </trkpt>
      <trkpt lat="38.6173" lon="-0.78377">
        <ele>708.4</ele>
        <time>2022-10-15 11:45:26</time>
      </trkpt>
      <trkpt lat="38.61728" lon="-0.78378">
        <ele>708.6</ele>
        <time>2022-10-15 11:45:27</time>
      </trkpt>
      <trkpt lat="38.61727" lon="-0.7838">
        <ele>709.4</ele>
        <time>2022-10-15 11:45:28</time>
      </trkpt>
      <trkpt lat="38.61725" lon="-0.78382">
        <ele>709.4</ele>
        <time>2022-10-15 11:45:29</time>
      </trkpt>
      <trkpt lat="38.61725" lon="-0.78382">
        <ele>709.6</ele>
        <time>2022-10-15 11:45:30</time>
      </trkpt>
      <trkpt lat="38.61724" lon="-0.78384">
        <ele>709.6</ele>
        <time>2022-10-15 11:45:31</time>
      </trkpt>
      <trkpt lat="38.61723" lon="-0.78386">
        <ele>709.8</ele>
        <time>2022-10-15 11:45:32</time>
      </trkpt>
      <trkpt lat="38.61721" lon="-0.78387">
        <ele>709.8</ele>
        <time>2022-10-15 11:45:33</time>
      </trkpt>
      <trkpt lat="38.61718" lon="-0.78391">
        <ele>710</ele>
        <time>2022-10-15 11:45:34</time>
      </trkpt>
      <trkpt lat="38.61717" lon="-0.78392">
        <ele>710</ele>
        <time>2022-10-15 11:45:35</time>
      </trkpt>
      <trkpt lat="38.61717" lon="-0.78392">
        <ele>710</ele>
        <time>2022-10-15 11:45:36</time>
      </trkpt>
      <trkpt lat="38.61715" lon="-0.78394">
        <ele>710.2</ele>
        <time>2022-10-15 11:45:37</time>
      </trkpt>
      <trkpt lat="38.61714" lon="-0.78395">
        <ele>710.2</ele>
        <time>2022-10-15 11:45:38</time>
      </trkpt>
      <trkpt lat="38.61711" lon="-0.78398">
        <ele>710.2</ele>
        <time>2022-10-15 11:45:39</time>
      </trkpt>
      <trkpt lat="38.6171" lon="-0.784">
        <ele>710.2</ele>
        <time>2022-10-15 11:45:40</time>
      </trkpt>
      <trkpt lat="38.61709" lon="-0.78401">
        <ele>710.2</ele>
        <time>2022-10-15 11:45:41</time>
      </trkpt>
      <trkpt lat="38.61709" lon="-0.78401">
        <ele>710.2</ele>
        <time>2022-10-15 11:45:42</time>
      </trkpt>
      <trkpt lat="38.61708" lon="-0.78403">
        <ele>710.4</ele>
        <time>2022-10-15 11:45:43</time>
      </trkpt>
      <trkpt lat="38.61706" lon="-0.78406">
        <ele>710.4</ele>
        <time>2022-10-15 11:45:44</time>
      </trkpt>
      <trkpt lat="38.61705" lon="-0.78407">
        <ele>710.6</ele>
        <time>2022-10-15 11:45:45</time>
      </trkpt>
      <trkpt lat="38.61705" lon="-0.78407">
        <ele>710.6</ele>
        <time>2022-10-15 11:45:46</time>
      </trkpt>
      <trkpt lat="38.61703" lon="-0.78409">
        <ele>710.8</ele>
        <time>2022-10-15 11:45:47</time>
      </trkpt>
      <trkpt lat="38.61702" lon="-0.7841">
        <ele>710.8</ele>
        <time>2022-10-15 11:45:48</time>
      </trkpt>
      <trkpt lat="38.61702" lon="-0.7841">
        <ele>711</ele>
        <time>2022-10-15 11:45:49</time>
      </trkpt>
      <trkpt lat="38.61699" lon="-0.78412">
        <ele>711.2</ele>
        <time>2022-10-15 11:45:50</time>
      </trkpt>
      <trkpt lat="38.61698" lon="-0.78413">
        <ele>711.4</ele>
        <time>2022-10-15 11:45:51</time>
      </trkpt>
      <trkpt lat="38.61697" lon="-0.78414">
        <ele>711.6</ele>
        <time>2022-10-15 11:45:52</time>
      </trkpt>
      <trkpt lat="38.61696" lon="-0.78416">
        <ele>711.6</ele>
        <time>2022-10-15 11:45:53</time>
      </trkpt>
      <trkpt lat="38.61696" lon="-0.78416">
        <ele>711.8</ele>
        <time>2022-10-15 11:45:54</time>
      </trkpt>
      <trkpt lat="38.61695" lon="-0.78416">
        <ele>712</ele>
        <time>2022-10-15 11:45:55</time>
      </trkpt>
      <trkpt lat="38.61693" lon="-0.78419">
        <ele>712.4</ele>
        <time>2022-10-15 11:45:56</time>
      </trkpt>
      <trkpt lat="38.61693" lon="-0.78419">
        <ele>712.4</ele>
        <time>2022-10-15 11:45:57</time>
      </trkpt>
      <trkpt lat="38.6169" lon="-0.7842">
        <ele>712.6</ele>
        <time>2022-10-15 11:45:58</time>
      </trkpt>
      <trkpt lat="38.6169" lon="-0.7842">
        <ele>712.6</ele>
        <time>2022-10-15 11:45:59</time>
      </trkpt>
      <trkpt lat="38.61687" lon="-0.78421">
        <ele>712.6</ele>
        <time>2022-10-15 11:46:00</time>
      </trkpt>
      <trkpt lat="38.61687" lon="-0.78421">
        <ele>712.6</ele>
        <time>2022-10-15 11:46:01</time>
      </trkpt>
      <trkpt lat="38.61685" lon="-0.78423">
        <ele>712.6</ele>
        <time>2022-10-15 11:46:02</time>
      </trkpt>
      <trkpt lat="38.61684" lon="-0.78423">
        <ele>712.6</ele>
        <time>2022-10-15 11:46:03</time>
      </trkpt>
      <trkpt lat="38.61683" lon="-0.78423">
        <ele>712.8</ele>
        <time>2022-10-15 11:46:04</time>
      </trkpt>
      <trkpt lat="38.61681" lon="-0.78423">
        <ele>712.8</ele>
        <time>2022-10-15 11:46:05</time>
      </trkpt>
      <trkpt lat="38.6168" lon="-0.78423">
        <ele>713</ele>
        <time>2022-10-15 11:46:06</time>
      </trkpt>
      <trkpt lat="38.6168" lon="-0.78423">
        <ele>713.2</ele>
        <time>2022-10-15 11:46:07</time>
      </trkpt>
      <trkpt lat="38.61677" lon="-0.78422">
        <ele>713.2</ele>
        <time>2022-10-15 11:46:08</time>
      </trkpt>
      <trkpt lat="38.61676" lon="-0.78422">
        <ele>713.2</ele>
        <time>2022-10-15 11:46:09</time>
      </trkpt>
      <trkpt lat="38.61675" lon="-0.78422">
        <ele>713.2</ele>
        <time>2022-10-15 11:46:10</time>
      </trkpt>
      <trkpt lat="38.61674" lon="-0.78422">
        <ele>713.4</ele>
        <time>2022-10-15 11:46:11</time>
      </trkpt>
      <trkpt lat="38.61674" lon="-0.78422">
        <ele>713.4</ele>
        <time>2022-10-15 11:46:12</time>
      </trkpt>
      <trkpt lat="38.61674" lon="-0.78422">
        <ele>713.4</ele>
        <time>2022-10-15 11:46:13</time>
      </trkpt>
      <trkpt lat="38.61673" lon="-0.78422">
        <ele>713.4</ele>
        <time>2022-10-15 11:46:14</time>
      </trkpt>
      <trkpt lat="38.61672" lon="-0.78421">
        <ele>713.4</ele>
        <time>2022-10-15 11:46:15</time>
      </trkpt>
      <trkpt lat="38.61671" lon="-0.78421">
        <ele>713.4</ele>
        <time>2022-10-15 11:46:16</time>
      </trkpt>
      <trkpt lat="38.6167" lon="-0.78421">
        <ele>713.4</ele>
        <time>2022-10-15 11:46:17</time>
      </trkpt>
      <trkpt lat="38.6167" lon="-0.78421">
        <ele>713.4</ele>
        <time>2022-10-15 11:46:18</time>
      </trkpt>
      <trkpt lat="38.6167" lon="-0.78421">
        <ele>713.4</ele>
        <time>2022-10-15 11:46:19</time>
      </trkpt>
      <trkpt lat="38.61668" lon="-0.78421">
        <ele>713.4</ele>
        <time>2022-10-15 11:46:20</time>
      </trkpt>
      <trkpt lat="38.61668" lon="-0.78421">
        <ele>713.4</ele>
        <time>2022-10-15 11:46:21</time>
      </trkpt>
      <trkpt lat="38.61667" lon="-0.78421">
        <ele>713.4</ele>
        <time>2022-10-15 11:46:22</time>
      </trkpt>
      <trkpt lat="38.61666" lon="-0.78421">
        <ele>713.4</ele>
        <time>2022-10-15 11:46:23</time>
      </trkpt>
      <trkpt lat="38.61665" lon="-0.78421">
        <ele>713.2</ele>
        <time>2022-10-15 11:46:24</time>
      </trkpt>
      <trkpt lat="38.61665" lon="-0.78421">
        <ele>713</ele>
        <time>2022-10-15 11:46:25</time>
      </trkpt>
      <trkpt lat="38.61663" lon="-0.78419">
        <ele>713</ele>
        <time>2022-10-15 11:46:26</time>
      </trkpt>
      <trkpt lat="38.61661" lon="-0.78419">
        <ele>712.8</ele>
        <time>2022-10-15 11:46:27</time>
      </trkpt>
      <trkpt lat="38.6166" lon="-0.78419">
        <ele>712.8</ele>
        <time>2022-10-15 11:46:28</time>
      </trkpt>
      <trkpt lat="38.61659" lon="-0.78419">
        <ele>712.6</ele>
        <time>2022-10-15 11:46:29</time>
      </trkpt>
      <trkpt lat="38.61657" lon="-0.78419">
        <ele>712.6</ele>
        <time>2022-10-15 11:46:30</time>
      </trkpt>
      <trkpt lat="38.61657" lon="-0.78419">
        <ele>712.6</ele>
        <time>2022-10-15 11:46:31</time>
      </trkpt>
      <trkpt lat="38.61656" lon="-0.7842">
        <ele>712.4</ele>
        <time>2022-10-15 11:46:32</time>
      </trkpt>
      <trkpt lat="38.61655" lon="-0.7842">
        <ele>712.4</ele>
        <time>2022-10-15 11:46:33</time>
      </trkpt>
      <trkpt lat="38.61655" lon="-0.78421">
        <ele>712.2</ele>
        <time>2022-10-15 11:46:34</time>
      </trkpt>
      <trkpt lat="38.61654" lon="-0.78422">
        <ele>712.2</ele>
        <time>2022-10-15 11:46:35</time>
      </trkpt>
      <trkpt lat="38.61653" lon="-0.78422">
        <ele>712</ele>
        <time>2022-10-15 11:46:36</time>
      </trkpt>
      <trkpt lat="38.61653" lon="-0.78423">
        <ele>712</ele>
        <time>2022-10-15 11:46:37</time>
      </trkpt>
      <trkpt lat="38.61652" lon="-0.78423">
        <ele>712</ele>
        <time>2022-10-15 11:46:38</time>
      </trkpt>
      <trkpt lat="38.61651" lon="-0.78424">
        <ele>712</ele>
        <time>2022-10-15 11:46:39</time>
      </trkpt>
      <trkpt lat="38.61651" lon="-0.78424">
        <ele>711.8</ele>
        <time>2022-10-15 11:46:40</time>
      </trkpt>
      <trkpt lat="38.61651" lon="-0.78424">
        <ele>711.8</ele>
        <time>2022-10-15 11:46:41</time>
      </trkpt>
      <trkpt lat="38.61651" lon="-0.78424">
        <ele>711.8</ele>
        <time>2022-10-15 11:46:42</time>
      </trkpt>
      <trkpt lat="38.61648" lon="-0.78428">
        <ele>711.8</ele>
        <time>2022-10-15 11:47:02</time>
      </trkpt>
      <trkpt lat="38.61648" lon="-0.78428">
        <ele>711.8</ele>
        <time>2022-10-15 11:47:03</time>
      </trkpt>
      <trkpt lat="38.61647" lon="-0.78429">
        <ele>711.8</ele>
        <time>2022-10-15 11:47:04</time>
      </trkpt>
      <trkpt lat="38.61645" lon="-0.78433">
        <ele>711.8</ele>
        <time>2022-10-15 11:47:05</time>
      </trkpt>
      <trkpt lat="38.61645" lon="-0.78433">
        <ele>711.8</ele>
        <time>2022-10-15 11:47:06</time>
      </trkpt>
      <trkpt lat="38.61645" lon="-0.78434">
        <ele>711.8</ele>
        <time>2022-10-15 11:47:07</time>
      </trkpt>
      <trkpt lat="38.61644" lon="-0.78437">
        <ele>711.8</ele>
        <time>2022-10-15 11:47:08</time>
      </trkpt>
      <trkpt lat="38.61644" lon="-0.78437">
        <ele>711.8</ele>
        <time>2022-10-15 11:47:09</time>
      </trkpt>
      <trkpt lat="38.61644" lon="-0.78439">
        <ele>711.8</ele>
        <time>2022-10-15 11:47:10</time>
      </trkpt>
      <trkpt lat="38.61644" lon="-0.78441">
        <ele>711.8</ele>
        <time>2022-10-15 11:47:11</time>
      </trkpt>
      <trkpt lat="38.61644" lon="-0.78441">
        <ele>711.8</ele>
        <time>2022-10-15 11:47:12</time>
      </trkpt>
      <trkpt lat="38.61644" lon="-0.78442">
        <ele>711.8</ele>
        <time>2022-10-15 11:47:13</time>
      </trkpt>
      <trkpt lat="38.61645" lon="-0.78443">
        <ele>711.8</ele>
        <time>2022-10-15 11:47:14</time>
      </trkpt>
      <trkpt lat="38.61645" lon="-0.78444">
        <ele>711.8</ele>
        <time>2022-10-15 11:47:15</time>
      </trkpt>
      <trkpt lat="38.61646" lon="-0.78445">
        <ele>711.8</ele>
        <time>2022-10-15 11:47:16</time>
      </trkpt>
      <trkpt lat="38.61647" lon="-0.78448">
        <ele>711.8</ele>
        <time>2022-10-15 11:47:17</time>
      </trkpt>
      <trkpt lat="38.61647" lon="-0.78448">
        <ele>712</ele>
        <time>2022-10-15 11:47:18</time>
      </trkpt>
      <trkpt lat="38.61647" lon="-0.7845">
        <ele>712.2</ele>
        <time>2022-10-15 11:47:19</time>
      </trkpt>
      <trkpt lat="38.61647" lon="-0.78456">
        <ele>712.2</ele>
        <time>2022-10-15 11:47:20</time>
      </trkpt>
      <trkpt lat="38.61647" lon="-0.78456">
        <ele>712.4</ele>
        <time>2022-10-15 11:47:21</time>
      </trkpt>
      <trkpt lat="38.61646" lon="-0.7846">
        <ele>712.4</ele>
        <time>2022-10-15 11:47:22</time>
      </trkpt>
      <trkpt lat="38.61645" lon="-0.78464">
        <ele>712.4</ele>
        <time>2022-10-15 11:47:23</time>
      </trkpt>
      <trkpt lat="38.61643" lon="-0.78468">
        <ele>712.4</ele>
        <time>2022-10-15 11:47:24</time>
      </trkpt>
      <trkpt lat="38.61641" lon="-0.78472">
        <ele>712.4</ele>
        <time>2022-10-15 11:47:25</time>
      </trkpt>
      <trkpt lat="38.61638" lon="-0.78478">
        <ele>712.4</ele>
        <time>2022-10-15 11:47:26</time>
      </trkpt>
      <trkpt lat="38.61638" lon="-0.78478">
        <ele>712.4</ele>
        <time>2022-10-15 11:47:27</time>
      </trkpt>
      <trkpt lat="38.61632" lon="-0.7848">
        <ele>712.2</ele>
        <time>2022-10-15 11:47:28</time>
      </trkpt>
      <trkpt lat="38.61629" lon="-0.7848">
        <ele>712.2</ele>
        <time>2022-10-15 11:47:29</time>
      </trkpt>
      <trkpt lat="38.61625" lon="-0.7848">
        <ele>712</ele>
        <time>2022-10-15 11:47:30</time>
      </trkpt>
      <trkpt lat="38.61625" lon="-0.7848">
        <ele>711.6</ele>
        <time>2022-10-15 11:47:31</time>
      </trkpt>
      <trkpt lat="38.61622" lon="-0.78481">
        <ele>711.4</ele>
        <time>2022-10-15 11:47:32</time>
      </trkpt>
      <trkpt lat="38.61619" lon="-0.78484">
        <ele>711.4</ele>
        <time>2022-10-15 11:47:33</time>
      </trkpt>
      <trkpt lat="38.61617" lon="-0.78488">
        <ele>711.2</ele>
        <time>2022-10-15 11:47:34</time>
      </trkpt>
      <trkpt lat="38.61615" lon="-0.78498">
        <ele>711.2</ele>
        <time>2022-10-15 11:47:35</time>
      </trkpt>
      <trkpt lat="38.61615" lon="-0.78498">
        <ele>711</ele>
        <time>2022-10-15 11:47:36</time>
      </trkpt>
      <trkpt lat="38.61613" lon="-0.78503">
        <ele>710.8</ele>
        <time>2022-10-15 11:47:37</time>
      </trkpt>
      <trkpt lat="38.61608" lon="-0.78513">
        <ele>710.4</ele>
        <time>2022-10-15 11:47:38</time>
      </trkpt>
      <trkpt lat="38.61608" lon="-0.78513">
        <ele>710</ele>
        <time>2022-10-15 11:47:39</time>
      </trkpt>
      <trkpt lat="38.61605" lon="-0.78516">
        <ele>709.6</ele>
        <time>2022-10-15 11:47:40</time>
      </trkpt>
      <trkpt lat="38.61602" lon="-0.78524">
        <ele>709.4</ele>
        <time>2022-10-15 11:47:41</time>
      </trkpt>
      <trkpt lat="38.61602" lon="-0.78528">
        <ele>709.2</ele>
        <time>2022-10-15 11:47:42</time>
      </trkpt>
      <trkpt lat="38.61602" lon="-0.78528">
        <ele>709</ele>
        <time>2022-10-15 11:47:43</time>
      </trkpt>
      <trkpt lat="38.61603" lon="-0.78536">
        <ele>708.8</ele>
        <time>2022-10-15 11:47:44</time>
      </trkpt>
      <trkpt lat="38.61603" lon="-0.78536">
        <ele>708.6</ele>
        <time>2022-10-15 11:47:45</time>
      </trkpt>
      <trkpt lat="38.61602" lon="-0.7854">
        <ele>708.6</ele>
        <time>2022-10-15 11:47:46</time>
      </trkpt>
      <trkpt lat="38.61602" lon="-0.78543">
        <ele>708.6</ele>
        <time>2022-10-15 11:47:47</time>
      </trkpt>
      <trkpt lat="38.616" lon="-0.7855">
        <ele>708.4</ele>
        <time>2022-10-15 11:47:48</time>
      </trkpt>
      <trkpt lat="38.616" lon="-0.7855">
        <ele>708.4</ele>
        <time>2022-10-15 11:47:49</time>
      </trkpt>
      <trkpt lat="38.61597" lon="-0.78555">
        <ele>708.4</ele>
        <time>2022-10-15 11:47:50</time>
      </trkpt>
      <trkpt lat="38.61597" lon="-0.78555">
        <ele>708.4</ele>
        <time>2022-10-15 11:47:51</time>
      </trkpt>
      <trkpt lat="38.61592" lon="-0.78561">
        <ele>708.4</ele>
        <time>2022-10-15 11:47:52</time>
      </trkpt>
      <trkpt lat="38.61589" lon="-0.78565">
        <ele>708.6</ele>
        <time>2022-10-15 11:47:53</time>
      </trkpt>
      <trkpt lat="38.61586" lon="-0.78568">
        <ele>708.6</ele>
        <time>2022-10-15 11:47:54</time>
      </trkpt>
      <trkpt lat="38.61586" lon="-0.78568">
        <ele>708.8</ele>
        <time>2022-10-15 11:47:55</time>
      </trkpt>
      <trkpt lat="38.61583" lon="-0.78573">
        <ele>709</ele>
        <time>2022-10-15 11:47:56</time>
      </trkpt>
      <trkpt lat="38.61582" lon="-0.78575">
        <ele>709</ele>
        <time>2022-10-15 11:47:57</time>
      </trkpt>
      <trkpt lat="38.61581" lon="-0.78576">
        <ele>709.2</ele>
        <time>2022-10-15 11:47:58</time>
      </trkpt>
      <trkpt lat="38.6158" lon="-0.78577">
        <ele>709.4</ele>
        <time>2022-10-15 11:47:59</time>
      </trkpt>
      <trkpt lat="38.61579" lon="-0.78579">
        <ele>709.6</ele>
        <time>2022-10-15 11:48:00</time>
      </trkpt>
      <trkpt lat="38.61579" lon="-0.78579">
        <ele>709.6</ele>
        <time>2022-10-15 11:48:01</time>
      </trkpt>
      <trkpt lat="38.61576" lon="-0.78582">
        <ele>709.6</ele>
        <time>2022-10-15 11:48:02</time>
      </trkpt>
      <trkpt lat="38.61574" lon="-0.78583">
        <ele>709.6</ele>
        <time>2022-10-15 11:48:03</time>
      </trkpt>
      <trkpt lat="38.61572" lon="-0.78584">
        <ele>709.6</ele>
        <time>2022-10-15 11:48:04</time>
      </trkpt>
      <trkpt lat="38.6157" lon="-0.78585">
        <ele>709.6</ele>
        <time>2022-10-15 11:48:05</time>
      </trkpt>
      <trkpt lat="38.61568" lon="-0.78586">
        <ele>709.6</ele>
        <time>2022-10-15 11:48:06</time>
      </trkpt>
      <trkpt lat="38.61568" lon="-0.78586">
        <ele>709.6</ele>
        <time>2022-10-15 11:48:07</time>
      </trkpt>
      <trkpt lat="38.61564" lon="-0.78589">
        <ele>709.4</ele>
        <time>2022-10-15 11:48:08</time>
      </trkpt>
      <trkpt lat="38.61561" lon="-0.7859">
        <ele>709.4</ele>
        <time>2022-10-15 11:48:09</time>
      </trkpt>
      <trkpt lat="38.61559" lon="-0.78592">
        <ele>709.2</ele>
        <time>2022-10-15 11:48:10</time>
      </trkpt>
      <trkpt lat="38.61557" lon="-0.78594">
        <ele>709</ele>
        <time>2022-10-15 11:48:11</time>
      </trkpt>
      <trkpt lat="38.61554" lon="-0.78596">
        <ele>709</ele>
        <time>2022-10-15 11:48:12</time>
      </trkpt>
      <trkpt lat="38.61554" lon="-0.78596">
        <ele>709</ele>
        <time>2022-10-15 11:48:13</time>
      </trkpt>
      <trkpt lat="38.61552" lon="-0.78601">
        <ele>709</ele>
        <time>2022-10-15 11:48:14</time>
      </trkpt>
      <trkpt lat="38.61551" lon="-0.78603">
        <ele>708.8</ele>
        <time>2022-10-15 11:48:15</time>
      </trkpt>
      <trkpt lat="38.6155" lon="-0.78605">
        <ele>708.4</ele>
        <time>2022-10-15 11:48:16</time>
      </trkpt>
      <trkpt lat="38.6155" lon="-0.78605">
        <ele>708</ele>
        <time>2022-10-15 11:48:17</time>
      </trkpt>
      <trkpt lat="38.61549" lon="-0.78607">
        <ele>707.8</ele>
        <time>2022-10-15 11:48:18</time>
      </trkpt>
      <trkpt lat="38.61547" lon="-0.78609">
        <ele>707.8</ele>
        <time>2022-10-15 11:48:19</time>
      </trkpt>
      <trkpt lat="38.61545" lon="-0.78612">
        <ele>707.6</ele>
        <time>2022-10-15 11:48:20</time>
      </trkpt>
      <trkpt lat="38.61543" lon="-0.78615">
        <ele>707.4</ele>
        <time>2022-10-15 11:48:21</time>
      </trkpt>
      <trkpt lat="38.61542" lon="-0.78619">
        <ele>707.4</ele>
        <time>2022-10-15 11:48:22</time>
      </trkpt>
      <trkpt lat="38.61541" lon="-0.78623">
        <ele>707.2</ele>
        <time>2022-10-15 11:48:23</time>
      </trkpt>
      <trkpt lat="38.61541" lon="-0.78626">
        <ele>707.2</ele>
        <time>2022-10-15 11:48:24</time>
      </trkpt>
      <trkpt lat="38.61541" lon="-0.78629">
        <ele>707</ele>
        <time>2022-10-15 11:48:25</time>
      </trkpt>
      <trkpt lat="38.61541" lon="-0.78631">
        <ele>707</ele>
        <time>2022-10-15 11:48:26</time>
      </trkpt>
      <trkpt lat="38.61542" lon="-0.78633">
        <ele>707</ele>
        <time>2022-10-15 11:48:27</time>
      </trkpt>
      <trkpt lat="38.61542" lon="-0.78635">
        <ele>707</ele>
        <time>2022-10-15 11:48:28</time>
      </trkpt>
      <trkpt lat="38.61542" lon="-0.78637">
        <ele>707</ele>
        <time>2022-10-15 11:48:29</time>
      </trkpt>
      <trkpt lat="38.61543" lon="-0.78639">
        <ele>707</ele>
        <time>2022-10-15 11:48:30</time>
      </trkpt>
      <trkpt lat="38.61543" lon="-0.78642">
        <ele>706.8</ele>
        <time>2022-10-15 11:48:31</time>
      </trkpt>
      <trkpt lat="38.61543" lon="-0.78645">
        <ele>706.8</ele>
        <time>2022-10-15 11:48:32</time>
      </trkpt>
      <trkpt lat="38.61543" lon="-0.78647">
        <ele>706.8</ele>
        <time>2022-10-15 11:48:33</time>
      </trkpt>
      <trkpt lat="38.61544" lon="-0.7865">
        <ele>706.8</ele>
        <time>2022-10-15 11:48:34</time>
      </trkpt>
      <trkpt lat="38.61542" lon="-0.78655">
        <ele>706.8</ele>
        <time>2022-10-15 11:48:35</time>
      </trkpt>
      <trkpt lat="38.61541" lon="-0.78659">
        <ele>706.8</ele>
        <time>2022-10-15 11:48:36</time>
      </trkpt>
      <trkpt lat="38.61541" lon="-0.78659">
        <ele>707</ele>
        <time>2022-10-15 11:48:37</time>
      </trkpt>
      <trkpt lat="38.61538" lon="-0.78665">
        <ele>707.2</ele>
        <time>2022-10-15 11:48:38</time>
      </trkpt>
      <trkpt lat="38.61538" lon="-0.78665">
        <ele>707.2</ele>
        <time>2022-10-15 11:48:39</time>
      </trkpt>
      <trkpt lat="38.61536" lon="-0.78672">
        <ele>707.4</ele>
        <time>2022-10-15 11:48:40</time>
      </trkpt>
      <trkpt lat="38.61535" lon="-0.78675">
        <ele>707.6</ele>
        <time>2022-10-15 11:48:41</time>
      </trkpt>
      <trkpt lat="38.61533" lon="-0.78678">
        <ele>707.8</ele>
        <time>2022-10-15 11:48:42</time>
      </trkpt>
      <trkpt lat="38.61533" lon="-0.78678">
        <ele>708.2</ele>
        <time>2022-10-15 11:48:43</time>
      </trkpt>
      <trkpt lat="38.61529" lon="-0.78684">
        <ele>708.6</ele>
        <time>2022-10-15 11:48:44</time>
      </trkpt>
      <trkpt lat="38.61526" lon="-0.78687">
        <ele>708.8</ele>
        <time>2022-10-15 11:48:45</time>
      </trkpt>
      <trkpt lat="38.61522" lon="-0.7869">
        <ele>708.8</ele>
        <time>2022-10-15 11:48:46</time>
      </trkpt>
      <trkpt lat="38.61517" lon="-0.78694">
        <ele>708.8</ele>
        <time>2022-10-15 11:48:47</time>
      </trkpt>
      <trkpt lat="38.61517" lon="-0.78694">
        <ele>708.8</ele>
        <time>2022-10-15 11:48:48</time>
      </trkpt>
      <trkpt lat="38.61513" lon="-0.78697">
        <ele>708.8</ele>
        <time>2022-10-15 11:48:49</time>
      </trkpt>
      <trkpt lat="38.61505" lon="-0.78703">
        <ele>708.8</ele>
        <time>2022-10-15 11:48:50</time>
      </trkpt>
      <trkpt lat="38.61505" lon="-0.78703">
        <ele>708.8</ele>
        <time>2022-10-15 11:48:51</time>
      </trkpt>
      <trkpt lat="38.61502" lon="-0.78706">
        <ele>708.8</ele>
        <time>2022-10-15 11:48:52</time>
      </trkpt>
      <trkpt lat="38.615" lon="-0.78712">
        <ele>708.6</ele>
        <time>2022-10-15 11:48:53</time>
      </trkpt>
      <trkpt lat="38.615" lon="-0.78715">
        <ele>707.8</ele>
        <time>2022-10-15 11:48:54</time>
      </trkpt>
      <trkpt lat="38.615" lon="-0.78715">
        <ele>707.2</ele>
        <time>2022-10-15 11:48:55</time>
      </trkpt>
      <trkpt lat="38.61501" lon="-0.78721">
        <ele>706.8</ele>
        <time>2022-10-15 11:48:56</time>
      </trkpt>
      <trkpt lat="38.61501" lon="-0.78721">
        <ele>706.6</ele>
        <time>2022-10-15 11:48:57</time>
      </trkpt>
      <trkpt lat="38.615" lon="-0.78727">
        <ele>706.6</ele>
        <time>2022-10-15 11:48:58</time>
      </trkpt>
      <trkpt lat="38.61499" lon="-0.78729">
        <ele>706.4</ele>
        <time>2022-10-15 11:48:59</time>
      </trkpt>
      <trkpt lat="38.61499" lon="-0.78729">
        <ele>706.4</ele>
        <time>2022-10-15 11:49:00</time>
      </trkpt>
      <trkpt lat="38.61498" lon="-0.78731">
        <ele>706.4</ele>
        <time>2022-10-15 11:49:01</time>
      </trkpt>
      <trkpt lat="38.61496" lon="-0.78734">
        <ele>706.4</ele>
        <time>2022-10-15 11:49:02</time>
      </trkpt>
      <trkpt lat="38.61496" lon="-0.78734">
        <ele>706.4</ele>
        <time>2022-10-15 11:49:03</time>
      </trkpt>
      <trkpt lat="38.61495" lon="-0.78736">
        <ele>706.4</ele>
        <time>2022-10-15 11:49:04</time>
      </trkpt>
      <trkpt lat="38.61493" lon="-0.7874">
        <ele>706.4</ele>
        <time>2022-10-15 11:49:05</time>
      </trkpt>
      <trkpt lat="38.61493" lon="-0.78742">
        <ele>706.6</ele>
        <time>2022-10-15 11:49:06</time>
      </trkpt>
      <trkpt lat="38.61493" lon="-0.78742">
        <ele>706.8</ele>
        <time>2022-10-15 11:49:07</time>
      </trkpt>
      <trkpt lat="38.61491" lon="-0.78747">
        <ele>707</ele>
        <time>2022-10-15 11:49:08</time>
      </trkpt>
      <trkpt lat="38.61491" lon="-0.78747">
        <ele>707.2</ele>
        <time>2022-10-15 11:49:09</time>
      </trkpt>
      <trkpt lat="38.61489" lon="-0.78751">
        <ele>707.4</ele>
        <time>2022-10-15 11:49:10</time>
      </trkpt>
      <trkpt lat="38.61487" lon="-0.78753">
        <ele>707.4</ele>
        <time>2022-10-15 11:49:11</time>
      </trkpt>
      <trkpt lat="38.61486" lon="-0.78755">
        <ele>707.6</ele>
        <time>2022-10-15 11:49:12</time>
      </trkpt>
      <trkpt lat="38.61486" lon="-0.78755">
        <ele>707.6</ele>
        <time>2022-10-15 11:49:13</time>
      </trkpt>
      <trkpt lat="38.61484" lon="-0.78759">
        <ele>707.8</ele>
        <time>2022-10-15 11:49:14</time>
      </trkpt>
      <trkpt lat="38.61484" lon="-0.78759">
        <ele>707.8</ele>
        <time>2022-10-15 11:49:15</time>
      </trkpt>
      <trkpt lat="38.61482" lon="-0.78761">
        <ele>708</ele>
        <time>2022-10-15 11:49:16</time>
      </trkpt>
      <trkpt lat="38.61479" lon="-0.78763">
        <ele>708.4</ele>
        <time>2022-10-15 11:49:17</time>
      </trkpt>
      <trkpt lat="38.61477" lon="-0.78765">
        <ele>708.6</ele>
        <time>2022-10-15 11:49:18</time>
      </trkpt>
      <trkpt lat="38.61477" lon="-0.78765">
        <ele>708.8</ele>
        <time>2022-10-15 11:49:19</time>
      </trkpt>
      <trkpt lat="38.61473" lon="-0.78765">
        <ele>709</ele>
        <time>2022-10-15 11:49:20</time>
      </trkpt>
      <trkpt lat="38.61473" lon="-0.78765">
        <ele>709</ele>
        <time>2022-10-15 11:49:21</time>
      </trkpt>
      <trkpt lat="38.6147" lon="-0.78765">
        <ele>709.2</ele>
        <time>2022-10-15 11:49:22</time>
      </trkpt>
      <trkpt lat="38.61465" lon="-0.78766">
        <ele>709.4</ele>
        <time>2022-10-15 11:49:23</time>
      </trkpt>
      <trkpt lat="38.61464" lon="-0.78767">
        <ele>709.6</ele>
        <time>2022-10-15 11:49:24</time>
      </trkpt>
      <trkpt lat="38.61464" lon="-0.78767">
        <ele>709.8</ele>
        <time>2022-10-15 11:49:25</time>
      </trkpt>
      <trkpt lat="38.61461" lon="-0.78771">
        <ele>710</ele>
        <time>2022-10-15 11:49:26</time>
      </trkpt>
      <trkpt lat="38.6146" lon="-0.78774">
        <ele>710.2</ele>
        <time>2022-10-15 11:49:27</time>
      </trkpt>
      <trkpt lat="38.6146" lon="-0.78776">
        <ele>710.4</ele>
        <time>2022-10-15 11:49:28</time>
      </trkpt>
      <trkpt lat="38.61459" lon="-0.78779">
        <ele>710.6</ele>
        <time>2022-10-15 11:49:29</time>
      </trkpt>
      <trkpt lat="38.61459" lon="-0.78781">
        <ele>710.6</ele>
        <time>2022-10-15 11:49:30</time>
      </trkpt>
      <trkpt lat="38.61459" lon="-0.78781">
        <ele>710.8</ele>
        <time>2022-10-15 11:49:31</time>
      </trkpt>
      <trkpt lat="38.61457" lon="-0.78787">
        <ele>710.8</ele>
        <time>2022-10-15 11:49:32</time>
      </trkpt>
      <trkpt lat="38.61456" lon="-0.7879">
        <ele>710.8</ele>
        <time>2022-10-15 11:49:33</time>
      </trkpt>
      <trkpt lat="38.61455" lon="-0.78792">
        <ele>710.8</ele>
        <time>2022-10-15 11:49:34</time>
      </trkpt>
      <trkpt lat="38.61454" lon="-0.78794">
        <ele>710.8</ele>
        <time>2022-10-15 11:49:35</time>
      </trkpt>
      <trkpt lat="38.61453" lon="-0.78795">
        <ele>710.8</ele>
        <time>2022-10-15 11:49:36</time>
      </trkpt>
      <trkpt lat="38.61453" lon="-0.78795">
        <ele>711</ele>
        <time>2022-10-15 11:49:37</time>
      </trkpt>
      <trkpt lat="38.61451" lon="-0.78798">
        <ele>711</ele>
        <time>2022-10-15 11:49:38</time>
      </trkpt>
      <trkpt lat="38.61451" lon="-0.78799">
        <ele>711.2</ele>
        <time>2022-10-15 11:49:39</time>
      </trkpt>
      <trkpt lat="38.6145" lon="-0.788">
        <ele>711.2</ele>
        <time>2022-10-15 11:49:40</time>
      </trkpt>
      <trkpt lat="38.61449" lon="-0.78801">
        <ele>711.2</ele>
        <time>2022-10-15 11:49:41</time>
      </trkpt>
      <trkpt lat="38.61448" lon="-0.78802">
        <ele>711.2</ele>
        <time>2022-10-15 11:49:42</time>
      </trkpt>
      <trkpt lat="38.61448" lon="-0.78802">
        <ele>711.4</ele>
        <time>2022-10-15 11:49:43</time>
      </trkpt>
      <trkpt lat="38.61446" lon="-0.78804">
        <ele>711.4</ele>
        <time>2022-10-15 11:49:44</time>
      </trkpt>
      <trkpt lat="38.61445" lon="-0.78805">
        <ele>711.6</ele>
        <time>2022-10-15 11:49:45</time>
      </trkpt>
      <trkpt lat="38.61443" lon="-0.78806">
        <ele>711.8</ele>
        <time>2022-10-15 11:49:46</time>
      </trkpt>
      <trkpt lat="38.61442" lon="-0.78808">
        <ele>711.8</ele>
        <time>2022-10-15 11:49:47</time>
      </trkpt>
      <trkpt lat="38.61441" lon="-0.78809">
        <ele>712</ele>
        <time>2022-10-15 11:49:48</time>
      </trkpt>
      <trkpt lat="38.61441" lon="-0.78809">
        <ele>712</ele>
        <time>2022-10-15 11:49:49</time>
      </trkpt>
      <trkpt lat="38.61438" lon="-0.78811">
        <ele>712</ele>
        <time>2022-10-15 11:49:50</time>
      </trkpt>
      <trkpt lat="38.61437" lon="-0.78813">
        <ele>712.2</ele>
        <time>2022-10-15 11:49:51</time>
      </trkpt>
      <trkpt lat="38.61437" lon="-0.78814">
        <ele>712.2</ele>
        <time>2022-10-15 11:49:52</time>
      </trkpt>
      <trkpt lat="38.61436" lon="-0.78816">
        <ele>712.2</ele>
        <time>2022-10-15 11:49:53</time>
      </trkpt>
      <trkpt lat="38.61435" lon="-0.78818">
        <ele>712.2</ele>
        <time>2022-10-15 11:49:54</time>
      </trkpt>
      <trkpt lat="38.61435" lon="-0.78818">
        <ele>712.2</ele>
        <time>2022-10-15 11:49:55</time>
      </trkpt>
      <trkpt lat="38.61432" lon="-0.78821">
        <ele>712.2</ele>
        <time>2022-10-15 11:49:56</time>
      </trkpt>
      <trkpt lat="38.61431" lon="-0.78823">
        <ele>712.2</ele>
        <time>2022-10-15 11:49:57</time>
      </trkpt>
      <trkpt lat="38.61429" lon="-0.78825">
        <ele>712.4</ele>
        <time>2022-10-15 11:49:58</time>
      </trkpt>
      <trkpt lat="38.61428" lon="-0.78826">
        <ele>712.4</ele>
        <time>2022-10-15 11:49:59</time>
      </trkpt>
      <trkpt lat="38.61427" lon="-0.78828">
        <ele>712.4</ele>
        <time>2022-10-15 11:50:00</time>
      </trkpt>
      <trkpt lat="38.61427" lon="-0.78828">
        <ele>712.4</ele>
        <time>2022-10-15 11:50:01</time>
      </trkpt>
      <trkpt lat="38.61423" lon="-0.78831">
        <ele>712.6</ele>
        <time>2022-10-15 11:50:02</time>
      </trkpt>
      <trkpt lat="38.61423" lon="-0.78831">
        <ele>712.6</ele>
        <time>2022-10-15 11:50:03</time>
      </trkpt>
      <trkpt lat="38.61421" lon="-0.78832">
        <ele>712.8</ele>
        <time>2022-10-15 11:50:04</time>
      </trkpt>
      <trkpt lat="38.6142" lon="-0.78833">
        <ele>712.8</ele>
        <time>2022-10-15 11:50:05</time>
      </trkpt>
      <trkpt lat="38.61418" lon="-0.78834">
        <ele>712.8</ele>
        <time>2022-10-15 11:50:06</time>
      </trkpt>
      <trkpt lat="38.61415" lon="-0.78836">
        <ele>712.8</ele>
        <time>2022-10-15 11:50:07</time>
      </trkpt>
      <trkpt lat="38.61413" lon="-0.78838">
        <ele>713</ele>
        <time>2022-10-15 11:50:08</time>
      </trkpt>
      <trkpt lat="38.6141" lon="-0.7884">
        <ele>713</ele>
        <time>2022-10-15 11:50:09</time>
      </trkpt>
      <trkpt lat="38.61407" lon="-0.78843">
        <ele>713</ele>
        <time>2022-10-15 11:50:10</time>
      </trkpt>
      <trkpt lat="38.61403" lon="-0.78847">
        <ele>713</ele>
        <time>2022-10-15 11:50:11</time>
      </trkpt>
      <trkpt lat="38.61399" lon="-0.78851">
        <ele>713</ele>
        <time>2022-10-15 11:50:12</time>
      </trkpt>
      <trkpt lat="38.61394" lon="-0.78855">
        <ele>713</ele>
        <time>2022-10-15 11:50:13</time>
      </trkpt>
      <trkpt lat="38.6139" lon="-0.78859">
        <ele>713</ele>
        <time>2022-10-15 11:50:14</time>
      </trkpt>
      <trkpt lat="38.61386" lon="-0.78863">
        <ele>713</ele>
        <time>2022-10-15 11:50:15</time>
      </trkpt>
      <trkpt lat="38.61382" lon="-0.78867">
        <ele>712.8</ele>
        <time>2022-10-15 11:50:16</time>
      </trkpt>
      <trkpt lat="38.61379" lon="-0.78872">
        <ele>712.4</ele>
        <time>2022-10-15 11:50:17</time>
      </trkpt>
      <trkpt lat="38.61376" lon="-0.78879">
        <ele>711.6</ele>
        <time>2022-10-15 11:50:18</time>
      </trkpt>
      <trkpt lat="38.61374" lon="-0.78888">
        <ele>710.8</ele>
        <time>2022-10-15 11:50:19</time>
      </trkpt>
      <trkpt lat="38.61373" lon="-0.78895">
        <ele>709.6</ele>
        <time>2022-10-15 11:50:20</time>
      </trkpt>
      <trkpt lat="38.61369" lon="-0.78907">
        <ele>708.8</ele>
        <time>2022-10-15 11:50:21</time>
      </trkpt>
      <trkpt lat="38.61368" lon="-0.78911">
        <ele>708.4</ele>
        <time>2022-10-15 11:50:22</time>
      </trkpt>
      <trkpt lat="38.61366" lon="-0.78915">
        <ele>707.6</ele>
        <time>2022-10-15 11:50:23</time>
      </trkpt>
      <trkpt lat="38.61365" lon="-0.78917">
        <ele>707.4</ele>
        <time>2022-10-15 11:50:24</time>
      </trkpt>
      <trkpt lat="38.61365" lon="-0.78917">
        <ele>707.2</ele>
        <time>2022-10-15 11:50:25</time>
      </trkpt>
      <trkpt lat="38.61362" lon="-0.78923">
        <ele>707.2</ele>
        <time>2022-10-15 11:50:26</time>
      </trkpt>
      <trkpt lat="38.61361" lon="-0.78926">
        <ele>707.2</ele>
        <time>2022-10-15 11:50:27</time>
      </trkpt>
      <trkpt lat="38.6136" lon="-0.7893">
        <ele>707.2</ele>
        <time>2022-10-15 11:50:28</time>
      </trkpt>
      <trkpt lat="38.61358" lon="-0.78933">
        <ele>707.2</ele>
        <time>2022-10-15 11:50:29</time>
      </trkpt>
      <trkpt lat="38.61357" lon="-0.78936">
        <ele>707.2</ele>
        <time>2022-10-15 11:50:30</time>
      </trkpt>
      <trkpt lat="38.61357" lon="-0.78936">
        <ele>707.2</ele>
        <time>2022-10-15 11:50:31</time>
      </trkpt>
      <trkpt lat="38.61356" lon="-0.78941">
        <ele>707.2</ele>
        <time>2022-10-15 11:50:32</time>
      </trkpt>
      <trkpt lat="38.61355" lon="-0.78944">
        <ele>707.2</ele>
        <time>2022-10-15 11:50:33</time>
      </trkpt>
      <trkpt lat="38.61355" lon="-0.78948">
        <ele>707.2</ele>
        <time>2022-10-15 11:50:34</time>
      </trkpt>
      <trkpt lat="38.61355" lon="-0.78951">
        <ele>707.2</ele>
        <time>2022-10-15 11:50:35</time>
      </trkpt>
      <trkpt lat="38.61355" lon="-0.78955">
        <ele>707.4</ele>
        <time>2022-10-15 11:50:36</time>
      </trkpt>
      <trkpt lat="38.61355" lon="-0.78955">
        <ele>707.4</ele>
        <time>2022-10-15 11:50:37</time>
      </trkpt>
      <trkpt lat="38.61355" lon="-0.78961">
        <ele>708</ele>
        <time>2022-10-15 11:50:38</time>
      </trkpt>
      <trkpt lat="38.61355" lon="-0.78964">
        <ele>708.4</ele>
        <time>2022-10-15 11:50:39</time>
      </trkpt>
      <trkpt lat="38.61354" lon="-0.78968">
        <ele>708.6</ele>
        <time>2022-10-15 11:50:40</time>
      </trkpt>
      <trkpt lat="38.61353" lon="-0.78971">
        <ele>708.8</ele>
        <time>2022-10-15 11:50:41</time>
      </trkpt>
      <trkpt lat="38.61352" lon="-0.78974">
        <ele>708.8</ele>
        <time>2022-10-15 11:50:42</time>
      </trkpt>
      <trkpt lat="38.61352" lon="-0.78974">
        <ele>709.2</ele>
        <time>2022-10-15 11:50:43</time>
      </trkpt>
      <trkpt lat="38.6135" lon="-0.7898">
        <ele>709.6</ele>
        <time>2022-10-15 11:50:44</time>
      </trkpt>
      <trkpt lat="38.61348" lon="-0.78982">
        <ele>710</ele>
        <time>2022-10-15 11:50:45</time>
      </trkpt>
      <trkpt lat="38.61347" lon="-0.78984">
        <ele>710.4</ele>
        <time>2022-10-15 11:50:46</time>
      </trkpt>
      <trkpt lat="38.61345" lon="-0.78985">
        <ele>710.6</ele>
        <time>2022-10-15 11:50:47</time>
      </trkpt>
      <trkpt lat="38.61343" lon="-0.78986">
        <ele>711</ele>
        <time>2022-10-15 11:50:48</time>
      </trkpt>
      <trkpt lat="38.61343" lon="-0.78986">
        <ele>711.6</ele>
        <time>2022-10-15 11:50:49</time>
      </trkpt>
      <trkpt lat="38.61339" lon="-0.78987">
        <ele>712</ele>
        <time>2022-10-15 11:50:50</time>
      </trkpt>
      <trkpt lat="38.61336" lon="-0.78988">
        <ele>712.2</ele>
        <time>2022-10-15 11:50:51</time>
      </trkpt>
      <trkpt lat="38.61334" lon="-0.78988">
        <ele>712.4</ele>
        <time>2022-10-15 11:50:52</time>
      </trkpt>
      <trkpt lat="38.61332" lon="-0.78989">
        <ele>712.6</ele>
        <time>2022-10-15 11:50:53</time>
      </trkpt>
      <trkpt lat="38.61331" lon="-0.78991">
        <ele>712.8</ele>
        <time>2022-10-15 11:50:54</time>
      </trkpt>
      <trkpt lat="38.61331" lon="-0.78991">
        <ele>713</ele>
        <time>2022-10-15 11:50:55</time>
      </trkpt>
      <trkpt lat="38.61327" lon="-0.78992">
        <ele>713.2</ele>
        <time>2022-10-15 11:50:56</time>
      </trkpt>
      <trkpt lat="38.61326" lon="-0.78993">
        <ele>713.4</ele>
        <time>2022-10-15 11:50:57</time>
      </trkpt>
      <trkpt lat="38.61324" lon="-0.78993">
        <ele>713.4</ele>
        <time>2022-10-15 11:50:58</time>
      </trkpt>
      <trkpt lat="38.61323" lon="-0.78994">
        <ele>713.6</ele>
        <time>2022-10-15 11:50:59</time>
      </trkpt>
      <trkpt lat="38.61321" lon="-0.78995">
        <ele>714</ele>
        <time>2022-10-15 11:51:00</time>
      </trkpt>
      <trkpt lat="38.61321" lon="-0.78995">
        <ele>714.4</ele>
        <time>2022-10-15 11:51:01</time>
      </trkpt>
      <trkpt lat="38.61318" lon="-0.78997">
        <ele>714.6</ele>
        <time>2022-10-15 11:51:02</time>
      </trkpt>
      <trkpt lat="38.61317" lon="-0.78997">
        <ele>715</ele>
        <time>2022-10-15 11:51:03</time>
      </trkpt>
      <trkpt lat="38.61315" lon="-0.78998">
        <ele>715</ele>
        <time>2022-10-15 11:51:04</time>
      </trkpt>
      <trkpt lat="38.61314" lon="-0.78999">
        <ele>715.4</ele>
        <time>2022-10-15 11:51:05</time>
      </trkpt>
      <trkpt lat="38.61313" lon="-0.79">
        <ele>715.8</ele>
        <time>2022-10-15 11:51:06</time>
      </trkpt>
      <trkpt lat="38.61313" lon="-0.79">
        <ele>716</ele>
        <time>2022-10-15 11:51:07</time>
      </trkpt>
      <trkpt lat="38.6131" lon="-0.79002">
        <ele>716.2</ele>
        <time>2022-10-15 11:51:08</time>
      </trkpt>
      <trkpt lat="38.61308" lon="-0.79002">
        <ele>716.4</ele>
        <time>2022-10-15 11:51:09</time>
      </trkpt>
      <trkpt lat="38.61306" lon="-0.79003">
        <ele>716.4</ele>
        <time>2022-10-15 11:51:10</time>
      </trkpt>
      <trkpt lat="38.61305" lon="-0.79004">
        <ele>716.4</ele>
        <time>2022-10-15 11:51:11</time>
      </trkpt>
      <trkpt lat="38.61303" lon="-0.79005">
        <ele>716.4</ele>
        <time>2022-10-15 11:51:12</time>
      </trkpt>
      <trkpt lat="38.61303" lon="-0.79005">
        <ele>716.6</ele>
        <time>2022-10-15 11:51:13</time>
      </trkpt>
      <trkpt lat="38.613" lon="-0.79006">
        <ele>716.6</ele>
        <time>2022-10-15 11:51:14</time>
      </trkpt>
      <trkpt lat="38.61299" lon="-0.79007">
        <ele>716.6</ele>
        <time>2022-10-15 11:51:15</time>
      </trkpt>
      <trkpt lat="38.61298" lon="-0.79008">
        <ele>716.6</ele>
        <time>2022-10-15 11:51:16</time>
      </trkpt>
      <trkpt lat="38.61297" lon="-0.7901">
        <ele>716.6</ele>
        <time>2022-10-15 11:51:17</time>
      </trkpt>
      <trkpt lat="38.61296" lon="-0.79011">
        <ele>716.8</ele>
        <time>2022-10-15 11:51:18</time>
      </trkpt>
      <trkpt lat="38.61296" lon="-0.79011">
        <ele>716.8</ele>
        <time>2022-10-15 11:51:19</time>
      </trkpt>
      <trkpt lat="38.61295" lon="-0.79014">
        <ele>716.8</ele>
        <time>2022-10-15 11:51:20</time>
      </trkpt>
      <trkpt lat="38.61294" lon="-0.79016">
        <ele>716.8</ele>
        <time>2022-10-15 11:51:21</time>
      </trkpt>
      <trkpt lat="38.61293" lon="-0.79018">
        <ele>717</ele>
        <time>2022-10-15 11:51:22</time>
      </trkpt>
      <trkpt lat="38.61293" lon="-0.79021">
        <ele>717</ele>
        <time>2022-10-15 11:51:23</time>
      </trkpt>
      <trkpt lat="38.61293" lon="-0.79023">
        <ele>717.2</ele>
        <time>2022-10-15 11:51:24</time>
      </trkpt>
      <trkpt lat="38.61293" lon="-0.79023">
        <ele>717.4</ele>
        <time>2022-10-15 11:51:25</time>
      </trkpt>
      <trkpt lat="38.61292" lon="-0.79027">
        <ele>717.4</ele>
        <time>2022-10-15 11:51:26</time>
      </trkpt>
      <trkpt lat="38.61292" lon="-0.79029">
        <ele>717.6</ele>
        <time>2022-10-15 11:51:27</time>
      </trkpt>
      <trkpt lat="38.61292" lon="-0.79031">
        <ele>717.8</ele>
        <time>2022-10-15 11:51:28</time>
      </trkpt>
      <trkpt lat="38.61291" lon="-0.79033">
        <ele>718</ele>
        <time>2022-10-15 11:51:29</time>
      </trkpt>
      <trkpt lat="38.61291" lon="-0.79035">
        <ele>718.2</ele>
        <time>2022-10-15 11:51:30</time>
      </trkpt>
      <trkpt lat="38.61291" lon="-0.79035">
        <ele>718.4</ele>
        <time>2022-10-15 11:51:31</time>
      </trkpt>
      <trkpt lat="38.61291" lon="-0.79038">
        <ele>718.6</ele>
        <time>2022-10-15 11:51:32</time>
      </trkpt>
      <trkpt lat="38.61291" lon="-0.7904">
        <ele>718.8</ele>
        <time>2022-10-15 11:51:33</time>
      </trkpt>
      <trkpt lat="38.6129" lon="-0.79042">
        <ele>719.2</ele>
        <time>2022-10-15 11:51:34</time>
      </trkpt>
      <trkpt lat="38.61289" lon="-0.79044">
        <ele>719.4</ele>
        <time>2022-10-15 11:51:35</time>
      </trkpt>
      <trkpt lat="38.61288" lon="-0.79046">
        <ele>719.6</ele>
        <time>2022-10-15 11:51:36</time>
      </trkpt>
      <trkpt lat="38.61288" lon="-0.79046">
        <ele>719.8</ele>
        <time>2022-10-15 11:51:37</time>
      </trkpt>
      <trkpt lat="38.61286" lon="-0.79051">
        <ele>720</ele>
        <time>2022-10-15 11:51:38</time>
      </trkpt>
      <trkpt lat="38.61286" lon="-0.79053">
        <ele>720.2</ele>
        <time>2022-10-15 11:51:39</time>
      </trkpt>
      <trkpt lat="38.61285" lon="-0.79055">
        <ele>720.6</ele>
        <time>2022-10-15 11:51:40</time>
      </trkpt>
      <trkpt lat="38.61284" lon="-0.79057">
        <ele>720.8</ele>
        <time>2022-10-15 11:51:41</time>
      </trkpt>
      <trkpt lat="38.61283" lon="-0.7906">
        <ele>721.2</ele>
        <time>2022-10-15 11:51:42</time>
      </trkpt>
      <trkpt lat="38.61283" lon="-0.7906">
        <ele>721.2</ele>
        <time>2022-10-15 11:51:43</time>
      </trkpt>
      <trkpt lat="38.61281" lon="-0.79064">
        <ele>721.4</ele>
        <time>2022-10-15 11:51:44</time>
      </trkpt>
      <trkpt lat="38.61279" lon="-0.79066">
        <ele>721.8</ele>
        <time>2022-10-15 11:51:45</time>
      </trkpt>
      <trkpt lat="38.61278" lon="-0.79068">
        <ele>722</ele>
        <time>2022-10-15 11:51:46</time>
      </trkpt>
      <trkpt lat="38.61276" lon="-0.7907">
        <ele>722.2</ele>
        <time>2022-10-15 11:51:47</time>
      </trkpt>
      <trkpt lat="38.61276" lon="-0.7907">
        <ele>722.4</ele>
        <time>2022-10-15 11:51:48</time>
      </trkpt>
      <trkpt lat="38.61275" lon="-0.79072">
        <ele>722.6</ele>
        <time>2022-10-15 11:51:49</time>
      </trkpt>
      <trkpt lat="38.61273" lon="-0.79074">
        <ele>722.8</ele>
        <time>2022-10-15 11:51:50</time>
      </trkpt>
      <trkpt lat="38.61271" lon="-0.79076">
        <ele>723</ele>
        <time>2022-10-15 11:51:51</time>
      </trkpt>
      <trkpt lat="38.61269" lon="-0.79078">
        <ele>723.2</ele>
        <time>2022-10-15 11:51:52</time>
      </trkpt>
      <trkpt lat="38.61268" lon="-0.79079">
        <ele>723.4</ele>
        <time>2022-10-15 11:51:53</time>
      </trkpt>
      <trkpt lat="38.61265" lon="-0.7908">
        <ele>723.4</ele>
        <time>2022-10-15 11:51:54</time>
      </trkpt>
      <trkpt lat="38.61263" lon="-0.79082">
        <ele>723.6</ele>
        <time>2022-10-15 11:51:55</time>
      </trkpt>
      <trkpt lat="38.61262" lon="-0.79083">
        <ele>723.6</ele>
        <time>2022-10-15 11:51:56</time>
      </trkpt>
      <trkpt lat="38.6126" lon="-0.79085">
        <ele>723.8</ele>
        <time>2022-10-15 11:51:57</time>
      </trkpt>
      <trkpt lat="38.61258" lon="-0.79086">
        <ele>723.8</ele>
        <time>2022-10-15 11:51:58</time>
      </trkpt>
      <trkpt lat="38.61256" lon="-0.79087">
        <ele>723.8</ele>
        <time>2022-10-15 11:51:59</time>
      </trkpt>
      <trkpt lat="38.61254" lon="-0.79089">
        <ele>724</ele>
        <time>2022-10-15 11:52:00</time>
      </trkpt>
      <trkpt lat="38.61253" lon="-0.7909">
        <ele>724.2</ele>
        <time>2022-10-15 11:52:01</time>
      </trkpt>
      <trkpt lat="38.61251" lon="-0.79091">
        <ele>724.4</ele>
        <time>2022-10-15 11:52:02</time>
      </trkpt>
      <trkpt lat="38.61249" lon="-0.79092">
        <ele>724.6</ele>
        <time>2022-10-15 11:52:03</time>
      </trkpt>
      <trkpt lat="38.61248" lon="-0.79093">
        <ele>724.8</ele>
        <time>2022-10-15 11:52:04</time>
      </trkpt>
      <trkpt lat="38.61246" lon="-0.79094">
        <ele>725</ele>
        <time>2022-10-15 11:52:05</time>
      </trkpt>
      <trkpt lat="38.61242" lon="-0.79095">
        <ele>725</ele>
        <time>2022-10-15 11:52:06</time>
      </trkpt>
      <trkpt lat="38.61242" lon="-0.79095">
        <ele>725.2</ele>
        <time>2022-10-15 11:52:07</time>
      </trkpt>
      <trkpt lat="38.61239" lon="-0.79095">
        <ele>725.4</ele>
        <time>2022-10-15 11:52:08</time>
      </trkpt>
      <trkpt lat="38.61236" lon="-0.79095">
        <ele>725.4</ele>
        <time>2022-10-15 11:52:09</time>
      </trkpt>
      <trkpt lat="38.61234" lon="-0.79094">
        <ele>725.6</ele>
        <time>2022-10-15 11:52:10</time>
      </trkpt>
      <trkpt lat="38.61231" lon="-0.79094">
        <ele>725.8</ele>
        <time>2022-10-15 11:52:11</time>
      </trkpt>
      <trkpt lat="38.61228" lon="-0.79094">
        <ele>725.8</ele>
        <time>2022-10-15 11:52:12</time>
      </trkpt>
      <trkpt lat="38.61228" lon="-0.79094">
        <ele>725.8</ele>
        <time>2022-10-15 11:52:13</time>
      </trkpt>
      <trkpt lat="38.61223" lon="-0.79093">
        <ele>726</ele>
        <time>2022-10-15 11:52:14</time>
      </trkpt>
      <trkpt lat="38.61221" lon="-0.79092">
        <ele>726</ele>
        <time>2022-10-15 11:52:15</time>
      </trkpt>
      <trkpt lat="38.61218" lon="-0.79092">
        <ele>726</ele>
        <time>2022-10-15 11:52:16</time>
      </trkpt>
      <trkpt lat="38.61216" lon="-0.79092">
        <ele>726</ele>
        <time>2022-10-15 11:52:17</time>
      </trkpt>
      <trkpt lat="38.61214" lon="-0.79093">
        <ele>726</ele>
        <time>2022-10-15 11:52:18</time>
      </trkpt>
      <trkpt lat="38.61214" lon="-0.79093">
        <ele>726.2</ele>
        <time>2022-10-15 11:52:19</time>
      </trkpt>
      <trkpt lat="38.6121" lon="-0.79094">
        <ele>726.2</ele>
        <time>2022-10-15 11:52:20</time>
      </trkpt>
      <trkpt lat="38.61207" lon="-0.79094">
        <ele>725.8</ele>
        <time>2022-10-15 11:52:21</time>
      </trkpt>
      <trkpt lat="38.61204" lon="-0.79096">
        <ele>725.8</ele>
        <time>2022-10-15 11:52:22</time>
      </trkpt>
      <trkpt lat="38.61201" lon="-0.79098">
        <ele>725.8</ele>
        <time>2022-10-15 11:52:23</time>
      </trkpt>
      <trkpt lat="38.61198" lon="-0.79099">
        <ele>725.8</ele>
        <time>2022-10-15 11:52:24</time>
      </trkpt>
      <trkpt lat="38.61198" lon="-0.79099">
        <ele>725.8</ele>
        <time>2022-10-15 11:52:25</time>
      </trkpt>
      <trkpt lat="38.61191" lon="-0.79103">
        <ele>725.8</ele>
        <time>2022-10-15 11:52:26</time>
      </trkpt>
      <trkpt lat="38.61187" lon="-0.79105">
        <ele>725.8</ele>
        <time>2022-10-15 11:52:27</time>
      </trkpt>
      <trkpt lat="38.61184" lon="-0.79107">
        <ele>725.6</ele>
        <time>2022-10-15 11:52:28</time>
      </trkpt>
      <trkpt lat="38.6118" lon="-0.79109">
        <ele>725.6</ele>
        <time>2022-10-15 11:52:29</time>
      </trkpt>
      <trkpt lat="38.61176" lon="-0.7911">
        <ele>725.4</ele>
        <time>2022-10-15 11:52:30</time>
      </trkpt>
      <trkpt lat="38.61176" lon="-0.7911">
        <ele>725.4</ele>
        <time>2022-10-15 11:52:31</time>
      </trkpt>
      <trkpt lat="38.61168" lon="-0.79113">
        <ele>725.2</ele>
        <time>2022-10-15 11:52:32</time>
      </trkpt>
      <trkpt lat="38.61164" lon="-0.79115">
        <ele>724.8</ele>
        <time>2022-10-15 11:52:33</time>
      </trkpt>
      <trkpt lat="38.61161" lon="-0.79119">
        <ele>724.6</ele>
        <time>2022-10-15 11:52:34</time>
      </trkpt>
      <trkpt lat="38.61158" lon="-0.79122">
        <ele>724.4</ele>
        <time>2022-10-15 11:52:35</time>
      </trkpt>
      <trkpt lat="38.61154" lon="-0.79126">
        <ele>724.2</ele>
        <time>2022-10-15 11:52:36</time>
      </trkpt>
      <trkpt lat="38.61154" lon="-0.79126">
        <ele>723.8</ele>
        <time>2022-10-15 11:52:37</time>
      </trkpt>
      <trkpt lat="38.61147" lon="-0.79132">
        <ele>723.4</ele>
        <time>2022-10-15 11:52:38</time>
      </trkpt>
      <trkpt lat="38.61144" lon="-0.79135">
        <ele>723.2</ele>
        <time>2022-10-15 11:52:39</time>
      </trkpt>
      <trkpt lat="38.61141" lon="-0.79139">
        <ele>723.2</ele>
        <time>2022-10-15 11:52:40</time>
      </trkpt>
      <trkpt lat="38.61141" lon="-0.79144">
        <ele>723</ele>
        <time>2022-10-15 11:52:41</time>
      </trkpt>
      <trkpt lat="38.61141" lon="-0.79149">
        <ele>722.6</ele>
        <time>2022-10-15 11:52:42</time>
      </trkpt>
      <trkpt lat="38.61141" lon="-0.79149">
        <ele>722.2</ele>
        <time>2022-10-15 11:52:43</time>
      </trkpt>
      <trkpt lat="38.6114" lon="-0.79161">
        <ele>722</ele>
        <time>2022-10-15 11:52:44</time>
      </trkpt>
      <trkpt lat="38.61138" lon="-0.79167">
        <ele>721.8</ele>
        <time>2022-10-15 11:52:45</time>
      </trkpt>
      <trkpt lat="38.61135" lon="-0.7917">
        <ele>721.6</ele>
        <time>2022-10-15 11:52:46</time>
      </trkpt>
      <trkpt lat="38.61131" lon="-0.79173">
        <ele>721.6</ele>
        <time>2022-10-15 11:52:47</time>
      </trkpt>
      <trkpt lat="38.61128" lon="-0.79176">
        <ele>721.4</ele>
        <time>2022-10-15 11:52:48</time>
      </trkpt>
      <trkpt lat="38.61128" lon="-0.79176">
        <ele>721.2</ele>
        <time>2022-10-15 11:52:49</time>
      </trkpt>
      <trkpt lat="38.61123" lon="-0.79183">
        <ele>721.2</ele>
        <time>2022-10-15 11:52:50</time>
      </trkpt>
      <trkpt lat="38.6112" lon="-0.79187">
        <ele>720.8</ele>
        <time>2022-10-15 11:52:51</time>
      </trkpt>
      <trkpt lat="38.61118" lon="-0.79191">
        <ele>720.4</ele>
        <time>2022-10-15 11:52:52</time>
      </trkpt>
      <trkpt lat="38.61117" lon="-0.79195">
        <ele>720.2</ele>
        <time>2022-10-15 11:52:53</time>
      </trkpt>
      <trkpt lat="38.61116" lon="-0.79198">
        <ele>720</ele>
        <time>2022-10-15 11:52:54</time>
      </trkpt>
      <trkpt lat="38.61116" lon="-0.79198">
        <ele>720</ele>
        <time>2022-10-15 11:52:55</time>
      </trkpt>
      <trkpt lat="38.61113" lon="-0.79205">
        <ele>720</ele>
        <time>2022-10-15 11:52:56</time>
      </trkpt>
      <trkpt lat="38.61111" lon="-0.79208">
        <ele>720</ele>
        <time>2022-10-15 11:52:57</time>
      </trkpt>
      <trkpt lat="38.61109" lon="-0.79211">
        <ele>720</ele>
        <time>2022-10-15 11:52:58</time>
      </trkpt>
      <trkpt lat="38.61107" lon="-0.79214">
        <ele>720</ele>
        <time>2022-10-15 11:52:59</time>
      </trkpt>
      <trkpt lat="38.61105" lon="-0.79216">
        <ele>720</ele>
        <time>2022-10-15 11:53:00</time>
      </trkpt>
      <trkpt lat="38.61105" lon="-0.79216">
        <ele>720</ele>
        <time>2022-10-15 11:53:01</time>
      </trkpt>
      <trkpt lat="38.611" lon="-0.7922">
        <ele>720</ele>
        <time>2022-10-15 11:53:02</time>
      </trkpt>
      <trkpt lat="38.61097" lon="-0.79223">
        <ele>720.2</ele>
        <time>2022-10-15 11:53:03</time>
      </trkpt>
      <trkpt lat="38.61093" lon="-0.79225">
        <ele>720.2</ele>
        <time>2022-10-15 11:53:04</time>
      </trkpt>
      <trkpt lat="38.61089" lon="-0.79228">
        <ele>720.2</ele>
        <time>2022-10-15 11:53:05</time>
      </trkpt>
      <trkpt lat="38.61085" lon="-0.79232">
        <ele>720.2</ele>
        <time>2022-10-15 11:53:06</time>
      </trkpt>
      <trkpt lat="38.61085" lon="-0.79232">
        <ele>720.2</ele>
        <time>2022-10-15 11:53:07</time>
      </trkpt>
      <trkpt lat="38.61079" lon="-0.79244">
        <ele>720.2</ele>
        <time>2022-10-15 11:53:08</time>
      </trkpt>
      <trkpt lat="38.61077" lon="-0.7925">
        <ele>720.2</ele>
        <time>2022-10-15 11:53:09</time>
      </trkpt>
      <trkpt lat="38.61073" lon="-0.79257">
        <ele>720.2</ele>
        <time>2022-10-15 11:53:10</time>
      </trkpt>
      <trkpt lat="38.6107" lon="-0.79262">
        <ele>720.2</ele>
        <time>2022-10-15 11:53:11</time>
      </trkpt>
      <trkpt lat="38.61066" lon="-0.79267">
        <ele>720.2</ele>
        <time>2022-10-15 11:53:12</time>
      </trkpt>
      <trkpt lat="38.61066" lon="-0.79267">
        <ele>720</ele>
        <time>2022-10-15 11:53:13</time>
      </trkpt>
      <trkpt lat="38.61059" lon="-0.79275">
        <ele>719.8</ele>
        <time>2022-10-15 11:53:14</time>
      </trkpt>
      <trkpt lat="38.61056" lon="-0.79277">
        <ele>719.6</ele>
        <time>2022-10-15 11:53:15</time>
      </trkpt>
      <trkpt lat="38.61054" lon="-0.7928">
        <ele>719.4</ele>
        <time>2022-10-15 11:53:16</time>
      </trkpt>
      <trkpt lat="38.61052" lon="-0.79281">
        <ele>719.4</ele>
        <time>2022-10-15 11:53:17</time>
      </trkpt>
      <trkpt lat="38.6105" lon="-0.79283">
        <ele>719.4</ele>
        <time>2022-10-15 11:53:18</time>
      </trkpt>
      <trkpt lat="38.6105" lon="-0.79283">
        <ele>719.4</ele>
        <time>2022-10-15 11:53:19</time>
      </trkpt>
      <trkpt lat="38.61047" lon="-0.79287">
        <ele>719.4</ele>
        <time>2022-10-15 11:53:20</time>
      </trkpt>
      <trkpt lat="38.61045" lon="-0.79289">
        <ele>719.4</ele>
        <time>2022-10-15 11:53:21</time>
      </trkpt>
      <trkpt lat="38.61044" lon="-0.79291">
        <ele>719.4</ele>
        <time>2022-10-15 11:53:22</time>
      </trkpt>
      <trkpt lat="38.61042" lon="-0.79294">
        <ele>719.4</ele>
        <time>2022-10-15 11:53:23</time>
      </trkpt>
      <trkpt lat="38.61041" lon="-0.79297">
        <ele>719.4</ele>
        <time>2022-10-15 11:53:24</time>
      </trkpt>
      <trkpt lat="38.61041" lon="-0.79297">
        <ele>719.6</ele>
        <time>2022-10-15 11:53:25</time>
      </trkpt>
      <trkpt lat="38.6104" lon="-0.79302">
        <ele>719.6</ele>
        <time>2022-10-15 11:53:26</time>
      </trkpt>
      <trkpt lat="38.61039" lon="-0.79304">
        <ele>720.2</ele>
        <time>2022-10-15 11:53:27</time>
      </trkpt>
      <trkpt lat="38.61037" lon="-0.79306">
        <ele>720.4</ele>
        <time>2022-10-15 11:53:28</time>
      </trkpt>
      <trkpt lat="38.61036" lon="-0.79308">
        <ele>720.4</ele>
        <time>2022-10-15 11:53:29</time>
      </trkpt>
      <trkpt lat="38.61036" lon="-0.7931">
        <ele>720.6</ele>
        <time>2022-10-15 11:53:30</time>
      </trkpt>
      <trkpt lat="38.61036" lon="-0.7931">
        <ele>720.6</ele>
        <time>2022-10-15 11:53:31</time>
      </trkpt>
      <trkpt lat="38.61033" lon="-0.79314">
        <ele>720.8</ele>
        <time>2022-10-15 11:53:32</time>
      </trkpt>
      <trkpt lat="38.61032" lon="-0.79316">
        <ele>721</ele>
        <time>2022-10-15 11:53:33</time>
      </trkpt>
      <trkpt lat="38.6103" lon="-0.79318">
        <ele>721</ele>
        <time>2022-10-15 11:53:34</time>
      </trkpt>
      <trkpt lat="38.61029" lon="-0.79321">
        <ele>721</ele>
        <time>2022-10-15 11:53:35</time>
      </trkpt>
      <trkpt lat="38.61027" lon="-0.79323">
        <ele>721</ele>
        <time>2022-10-15 11:53:36</time>
      </trkpt>
      <trkpt lat="38.61027" lon="-0.79323">
        <ele>721</ele>
        <time>2022-10-15 11:53:37</time>
      </trkpt>
      <trkpt lat="38.61024" lon="-0.79329">
        <ele>721</ele>
        <time>2022-10-15 11:53:38</time>
      </trkpt>
      <trkpt lat="38.61022" lon="-0.79332">
        <ele>721</ele>
        <time>2022-10-15 11:53:39</time>
      </trkpt>
      <trkpt lat="38.6102" lon="-0.79335">
        <ele>721</ele>
        <time>2022-10-15 11:53:40</time>
      </trkpt>
      <trkpt lat="38.61019" lon="-0.79338">
        <ele>721</ele>
        <time>2022-10-15 11:53:41</time>
      </trkpt>
      <trkpt lat="38.61017" lon="-0.79341">
        <ele>721.2</ele>
        <time>2022-10-15 11:53:42</time>
      </trkpt>
      <trkpt lat="38.61017" lon="-0.79341">
        <ele>721.2</ele>
        <time>2022-10-15 11:53:43</time>
      </trkpt>
      <trkpt lat="38.61014" lon="-0.79345">
        <ele>721.2</ele>
        <time>2022-10-15 11:53:44</time>
      </trkpt>
      <trkpt lat="38.61012" lon="-0.79347">
        <ele>721.2</ele>
        <time>2022-10-15 11:53:45</time>
      </trkpt>
      <trkpt lat="38.6101" lon="-0.79349">
        <ele>721.2</ele>
        <time>2022-10-15 11:53:46</time>
      </trkpt>
      <trkpt lat="38.61008" lon="-0.79351">
        <ele>721.2</ele>
        <time>2022-10-15 11:53:47</time>
      </trkpt>
      <trkpt lat="38.61007" lon="-0.79353">
        <ele>721.2</ele>
        <time>2022-10-15 11:53:48</time>
      </trkpt>
      <trkpt lat="38.61007" lon="-0.79353">
        <ele>721.2</ele>
        <time>2022-10-15 11:53:49</time>
      </trkpt>
      <trkpt lat="38.61006" lon="-0.79358">
        <ele>721.2</ele>
        <time>2022-10-15 11:53:50</time>
      </trkpt>
      <trkpt lat="38.61005" lon="-0.79361">
        <ele>721.2</ele>
        <time>2022-10-15 11:53:51</time>
      </trkpt>
      <trkpt lat="38.61004" lon="-0.79363">
        <ele>721.2</ele>
        <time>2022-10-15 11:53:52</time>
      </trkpt>
      <trkpt lat="38.61003" lon="-0.79366">
        <ele>721.2</ele>
        <time>2022-10-15 11:53:53</time>
      </trkpt>
      <trkpt lat="38.61002" lon="-0.79368">
        <ele>721.4</ele>
        <time>2022-10-15 11:53:54</time>
      </trkpt>
      <trkpt lat="38.61002" lon="-0.79368">
        <ele>721.8</ele>
        <time>2022-10-15 11:53:55</time>
      </trkpt>
      <trkpt lat="38.61001" lon="-0.79371">
        <ele>722</ele>
        <time>2022-10-15 11:53:56</time>
      </trkpt>
      <trkpt lat="38.60999" lon="-0.79373">
        <ele>722.2</ele>
        <time>2022-10-15 11:53:57</time>
      </trkpt>
      <trkpt lat="38.60998" lon="-0.79375">
        <ele>722.2</ele>
        <time>2022-10-15 11:53:58</time>
      </trkpt>
      <trkpt lat="38.60997" lon="-0.79377">
        <ele>722.4</ele>
        <time>2022-10-15 11:53:59</time>
      </trkpt>
      <trkpt lat="38.60996" lon="-0.7938">
        <ele>722.8</ele>
        <time>2022-10-15 11:54:00</time>
      </trkpt>
      <trkpt lat="38.60994" lon="-0.79382">
        <ele>723</ele>
        <time>2022-10-15 11:54:01</time>
      </trkpt>
      <trkpt lat="38.60992" lon="-0.79385">
        <ele>723.2</ele>
        <time>2022-10-15 11:54:02</time>
      </trkpt>
      <trkpt lat="38.6099" lon="-0.79388">
        <ele>723.2</ele>
        <time>2022-10-15 11:54:03</time>
      </trkpt>
      <trkpt lat="38.60987" lon="-0.79392">
        <ele>723.2</ele>
        <time>2022-10-15 11:54:04</time>
      </trkpt>
      <trkpt lat="38.60984" lon="-0.79396">
        <ele>723.2</ele>
        <time>2022-10-15 11:54:05</time>
      </trkpt>
      <trkpt lat="38.6098" lon="-0.79401">
        <ele>723.2</ele>
        <time>2022-10-15 11:54:06</time>
      </trkpt>
      <trkpt lat="38.60976" lon="-0.79407">
        <ele>723.2</ele>
        <time>2022-10-15 11:54:07</time>
      </trkpt>
      <trkpt lat="38.60972" lon="-0.79412">
        <ele>723.2</ele>
        <time>2022-10-15 11:54:08</time>
      </trkpt>
      <trkpt lat="38.60969" lon="-0.79417">
        <ele>723.2</ele>
        <time>2022-10-15 11:54:09</time>
      </trkpt>
      <trkpt lat="38.60966" lon="-0.79423">
        <ele>723.2</ele>
        <time>2022-10-15 11:54:10</time>
      </trkpt>
      <trkpt lat="38.60964" lon="-0.79429">
        <ele>723.2</ele>
        <time>2022-10-15 11:54:11</time>
      </trkpt>
      <trkpt lat="38.60961" lon="-0.79433">
        <ele>722.6</ele>
        <time>2022-10-15 11:54:12</time>
      </trkpt>
      <trkpt lat="38.60958" lon="-0.79438">
        <ele>721.8</ele>
        <time>2022-10-15 11:54:13</time>
      </trkpt>
      <trkpt lat="38.60953" lon="-0.79444">
        <ele>721.4</ele>
        <time>2022-10-15 11:54:14</time>
      </trkpt>
      <trkpt lat="38.60951" lon="-0.79447">
        <ele>721.2</ele>
        <time>2022-10-15 11:54:15</time>
      </trkpt>
      <trkpt lat="38.60949" lon="-0.7945">
        <ele>721.2</ele>
        <time>2022-10-15 11:54:16</time>
      </trkpt>
      <trkpt lat="38.60947" lon="-0.79452">
        <ele>721.2</ele>
        <time>2022-10-15 11:54:17</time>
      </trkpt>
      <trkpt lat="38.60945" lon="-0.79455">
        <ele>721.2</ele>
        <time>2022-10-15 11:54:18</time>
      </trkpt>
      <trkpt lat="38.60945" lon="-0.79455">
        <ele>721.2</ele>
        <time>2022-10-15 11:54:19</time>
      </trkpt>
      <trkpt lat="38.6094" lon="-0.79459">
        <ele>721.2</ele>
        <time>2022-10-15 11:54:20</time>
      </trkpt>
      <trkpt lat="38.60938" lon="-0.79461">
        <ele>721.2</ele>
        <time>2022-10-15 11:54:21</time>
      </trkpt>
      <trkpt lat="38.60936" lon="-0.79464">
        <ele>721.2</ele>
        <time>2022-10-15 11:54:22</time>
      </trkpt>
      <trkpt lat="38.60935" lon="-0.79467">
        <ele>721.4</ele>
        <time>2022-10-15 11:54:23</time>
      </trkpt>
      <trkpt lat="38.60934" lon="-0.79469">
        <ele>721.8</ele>
        <time>2022-10-15 11:54:24</time>
      </trkpt>
      <trkpt lat="38.60934" lon="-0.79469">
        <ele>722</ele>
        <time>2022-10-15 11:54:25</time>
      </trkpt>
      <trkpt lat="38.60931" lon="-0.79474">
        <ele>722.2</ele>
        <time>2022-10-15 11:54:26</time>
      </trkpt>
      <trkpt lat="38.60929" lon="-0.79476">
        <ele>722.4</ele>
        <time>2022-10-15 11:54:27</time>
      </trkpt>
      <trkpt lat="38.60927" lon="-0.79478">
        <ele>722.6</ele>
        <time>2022-10-15 11:54:28</time>
      </trkpt>
      <trkpt lat="38.60925" lon="-0.7948">
        <ele>722.8</ele>
        <time>2022-10-15 11:54:29</time>
      </trkpt>
      <trkpt lat="38.60923" lon="-0.79483">
        <ele>723.2</ele>
        <time>2022-10-15 11:54:30</time>
      </trkpt>
      <trkpt lat="38.60923" lon="-0.79483">
        <ele>723.4</ele>
        <time>2022-10-15 11:54:31</time>
      </trkpt>
      <trkpt lat="38.6092" lon="-0.79489">
        <ele>723.6</ele>
        <time>2022-10-15 11:54:32</time>
      </trkpt>
      <trkpt lat="38.60919" lon="-0.79493">
        <ele>723.6</ele>
        <time>2022-10-15 11:54:33</time>
      </trkpt>
      <trkpt lat="38.60918" lon="-0.79496">
        <ele>723.8</ele>
        <time>2022-10-15 11:54:34</time>
      </trkpt>
      <trkpt lat="38.60917" lon="-0.795">
        <ele>723.8</ele>
        <time>2022-10-15 11:54:35</time>
      </trkpt>
      <trkpt lat="38.60916" lon="-0.79504">
        <ele>724</ele>
        <time>2022-10-15 11:54:36</time>
      </trkpt>
      <trkpt lat="38.60916" lon="-0.79504">
        <ele>724.2</ele>
        <time>2022-10-15 11:54:37</time>
      </trkpt>
      <trkpt lat="38.60913" lon="-0.79512">
        <ele>724.4</ele>
        <time>2022-10-15 11:54:38</time>
      </trkpt>
      <trkpt lat="38.60912" lon="-0.79516">
        <ele>724.6</ele>
        <time>2022-10-15 11:54:39</time>
      </trkpt>
      <trkpt lat="38.6091" lon="-0.79519">
        <ele>724.6</ele>
        <time>2022-10-15 11:54:40</time>
      </trkpt>
      <trkpt lat="38.60908" lon="-0.79523">
        <ele>724.8</ele>
        <time>2022-10-15 11:54:41</time>
      </trkpt>
      <trkpt lat="38.60905" lon="-0.79527">
        <ele>724.8</ele>
        <time>2022-10-15 11:54:42</time>
      </trkpt>
      <trkpt lat="38.60905" lon="-0.79527">
        <ele>724.8</ele>
        <time>2022-10-15 11:54:43</time>
      </trkpt>
      <trkpt lat="38.60901" lon="-0.79536">
        <ele>724.8</ele>
        <time>2022-10-15 11:54:44</time>
      </trkpt>
      <trkpt lat="38.609" lon="-0.79541">
        <ele>724.8</ele>
        <time>2022-10-15 11:54:45</time>
      </trkpt>
      <trkpt lat="38.60898" lon="-0.79545">
        <ele>724.8</ele>
        <time>2022-10-15 11:54:46</time>
      </trkpt>
      <trkpt lat="38.60896" lon="-0.79549">
        <ele>724.8</ele>
        <time>2022-10-15 11:54:47</time>
      </trkpt>
      <trkpt lat="38.60894" lon="-0.79553">
        <ele>724.8</ele>
        <time>2022-10-15 11:54:48</time>
      </trkpt>
      <trkpt lat="38.60894" lon="-0.79553">
        <ele>724.8</ele>
        <time>2022-10-15 11:54:49</time>
      </trkpt>
      <trkpt lat="38.6089" lon="-0.79559">
        <ele>725</ele>
        <time>2022-10-15 11:54:50</time>
      </trkpt>
      <trkpt lat="38.60888" lon="-0.79562">
        <ele>725</ele>
        <time>2022-10-15 11:54:51</time>
      </trkpt>
      <trkpt lat="38.60885" lon="-0.79565">
        <ele>725</ele>
        <time>2022-10-15 11:54:52</time>
      </trkpt>
      <trkpt lat="38.60883" lon="-0.79568">
        <ele>725</ele>
        <time>2022-10-15 11:54:53</time>
      </trkpt>
      <trkpt lat="38.6088" lon="-0.79571">
        <ele>725</ele>
        <time>2022-10-15 11:54:54</time>
      </trkpt>
      <trkpt lat="38.6088" lon="-0.79571">
        <ele>725</ele>
        <time>2022-10-15 11:54:55</time>
      </trkpt>
      <trkpt lat="38.60874" lon="-0.79575">
        <ele>725</ele>
        <time>2022-10-15 11:54:56</time>
      </trkpt>
      <trkpt lat="38.60871" lon="-0.79577">
        <ele>725</ele>
        <time>2022-10-15 11:54:57</time>
      </trkpt>
      <trkpt lat="38.60868" lon="-0.7958">
        <ele>725</ele>
        <time>2022-10-15 11:54:58</time>
      </trkpt>
      <trkpt lat="38.60866" lon="-0.79583">
        <ele>725.2</ele>
        <time>2022-10-15 11:54:59</time>
      </trkpt>
      <trkpt lat="38.60863" lon="-0.79585">
        <ele>725.2</ele>
        <time>2022-10-15 11:55:00</time>
      </trkpt>
      <trkpt lat="38.60863" lon="-0.79585">
        <ele>725.2</ele>
        <time>2022-10-15 11:55:01</time>
      </trkpt>
      <trkpt lat="38.6086" lon="-0.7959">
        <ele>725.2</ele>
        <time>2022-10-15 11:55:02</time>
      </trkpt>
      <trkpt lat="38.60858" lon="-0.79592">
        <ele>725.2</ele>
        <time>2022-10-15 11:55:03</time>
      </trkpt>
      <trkpt lat="38.60856" lon="-0.79596">
        <ele>725.4</ele>
        <time>2022-10-15 11:55:04</time>
      </trkpt>
      <trkpt lat="38.60855" lon="-0.79601">
        <ele>725.4</ele>
        <time>2022-10-15 11:55:05</time>
      </trkpt>
      <trkpt lat="38.60853" lon="-0.79608">
        <ele>725.4</ele>
        <time>2022-10-15 11:55:06</time>
      </trkpt>
      <trkpt lat="38.60853" lon="-0.79608">
        <ele>725.4</ele>
        <time>2022-10-15 11:55:07</time>
      </trkpt>
      <trkpt lat="38.60848" lon="-0.79622">
        <ele>725.2</ele>
        <time>2022-10-15 11:55:08</time>
      </trkpt>
      <trkpt lat="38.60844" lon="-0.79628">
        <ele>725.2</ele>
        <time>2022-10-15 11:55:09</time>
      </trkpt>
      <trkpt lat="38.6084" lon="-0.79634">
        <ele>725.2</ele>
        <time>2022-10-15 11:55:10</time>
      </trkpt>
      <trkpt lat="38.60835" lon="-0.79638">
        <ele>725.2</ele>
        <time>2022-10-15 11:55:11</time>
      </trkpt>
      <trkpt lat="38.60831" lon="-0.79641">
        <ele>725.2</ele>
        <time>2022-10-15 11:55:12</time>
      </trkpt>
      <trkpt lat="38.60831" lon="-0.79641">
        <ele>725.2</ele>
        <time>2022-10-15 11:55:13</time>
      </trkpt>
      <trkpt lat="38.60824" lon="-0.79644">
        <ele>724.6</ele>
        <time>2022-10-15 11:55:14</time>
      </trkpt>
      <trkpt lat="38.60821" lon="-0.79645">
        <ele>723.8</ele>
        <time>2022-10-15 11:55:15</time>
      </trkpt>
      <trkpt lat="38.60818" lon="-0.79648">
        <ele>723.4</ele>
        <time>2022-10-15 11:55:16</time>
      </trkpt>
      <trkpt lat="38.60816" lon="-0.7965">
        <ele>723.2</ele>
        <time>2022-10-15 11:55:17</time>
      </trkpt>
      <trkpt lat="38.60814" lon="-0.79654">
        <ele>723</ele>
        <time>2022-10-15 11:55:18</time>
      </trkpt>
      <trkpt lat="38.60814" lon="-0.79654">
        <ele>723</ele>
        <time>2022-10-15 11:55:19</time>
      </trkpt>
      <trkpt lat="38.60814" lon="-0.7966">
        <ele>722.8</ele>
        <time>2022-10-15 11:55:20</time>
      </trkpt>
      <trkpt lat="38.60814" lon="-0.79666">
        <ele>722.4</ele>
        <time>2022-10-15 11:55:21</time>
      </trkpt>
      <trkpt lat="38.60813" lon="-0.79672">
        <ele>722</ele>
        <time>2022-10-15 11:55:22</time>
      </trkpt>
      <trkpt lat="38.60812" lon="-0.79678">
        <ele>721.8</ele>
        <time>2022-10-15 11:55:23</time>
      </trkpt>
      <trkpt lat="38.6081" lon="-0.79683">
        <ele>721.8</ele>
        <time>2022-10-15 11:55:24</time>
      </trkpt>
      <trkpt lat="38.60807" lon="-0.79688">
        <ele>721.6</ele>
        <time>2022-10-15 11:55:25</time>
      </trkpt>
      <trkpt lat="38.60804" lon="-0.79693">
        <ele>721.6</ele>
        <time>2022-10-15 11:55:26</time>
      </trkpt>
      <trkpt lat="38.60801" lon="-0.79697">
        <ele>721.6</ele>
        <time>2022-10-15 11:55:27</time>
      </trkpt>
      <trkpt lat="38.60797" lon="-0.79701">
        <ele>721.4</ele>
        <time>2022-10-15 11:55:28</time>
      </trkpt>
      <trkpt lat="38.60793" lon="-0.79706">
        <ele>721.4</ele>
        <time>2022-10-15 11:55:29</time>
      </trkpt>
      <trkpt lat="38.60789" lon="-0.7971">
        <ele>721.4</ele>
        <time>2022-10-15 11:55:30</time>
      </trkpt>
      <trkpt lat="38.60786" lon="-0.79714">
        <ele>721.4</ele>
        <time>2022-10-15 11:55:31</time>
      </trkpt>
      <trkpt lat="38.60783" lon="-0.79718">
        <ele>721.4</ele>
        <time>2022-10-15 11:55:32</time>
      </trkpt>
      <trkpt lat="38.60781" lon="-0.79722">
        <ele>721.4</ele>
        <time>2022-10-15 11:55:33</time>
      </trkpt>
      <trkpt lat="38.60778" lon="-0.79725">
        <ele>721.4</ele>
        <time>2022-10-15 11:55:34</time>
      </trkpt>
      <trkpt lat="38.60776" lon="-0.79728">
        <ele>721.4</ele>
        <time>2022-10-15 11:55:35</time>
      </trkpt>
      <trkpt lat="38.60774" lon="-0.79731">
        <ele>721.4</ele>
        <time>2022-10-15 11:55:36</time>
      </trkpt>
      <trkpt lat="38.60771" lon="-0.79734">
        <ele>721.4</ele>
        <time>2022-10-15 11:55:37</time>
      </trkpt>
      <trkpt lat="38.60765" lon="-0.79739">
        <ele>721.4</ele>
        <time>2022-10-15 11:55:38</time>
      </trkpt>
      <trkpt lat="38.60762" lon="-0.79741">
        <ele>721.4</ele>
        <time>2022-10-15 11:55:39</time>
      </trkpt>
      <trkpt lat="38.60758" lon="-0.79744">
        <ele>721.4</ele>
        <time>2022-10-15 11:55:40</time>
      </trkpt>
      <trkpt lat="38.60755" lon="-0.79746">
        <ele>721.8</ele>
        <time>2022-10-15 11:55:41</time>
      </trkpt>
      <trkpt lat="38.60751" lon="-0.79749">
        <ele>722</ele>
        <time>2022-10-15 11:55:42</time>
      </trkpt>
      <trkpt lat="38.60751" lon="-0.79749">
        <ele>722.2</ele>
        <time>2022-10-15 11:55:43</time>
      </trkpt>
      <trkpt lat="38.60745" lon="-0.79757">
        <ele>722.4</ele>
        <time>2022-10-15 11:55:44</time>
      </trkpt>
      <trkpt lat="38.60743" lon="-0.79761">
        <ele>722.6</ele>
        <time>2022-10-15 11:55:45</time>
      </trkpt>
      <trkpt lat="38.6074" lon="-0.79764">
        <ele>722.6</ele>
        <time>2022-10-15 11:55:46</time>
      </trkpt>
      <trkpt lat="38.60737" lon="-0.79767">
        <ele>722.8</ele>
        <time>2022-10-15 11:55:47</time>
      </trkpt>
      <trkpt lat="38.60734" lon="-0.7977">
        <ele>722.8</ele>
        <time>2022-10-15 11:55:48</time>
      </trkpt>
      <trkpt lat="38.60734" lon="-0.7977">
        <ele>722.8</ele>
        <time>2022-10-15 11:55:49</time>
      </trkpt>
      <trkpt lat="38.60726" lon="-0.79776">
        <ele>722.8</ele>
        <time>2022-10-15 11:55:50</time>
      </trkpt>
      <trkpt lat="38.60723" lon="-0.79779">
        <ele>722.8</ele>
        <time>2022-10-15 11:55:51</time>
      </trkpt>
      <trkpt lat="38.60719" lon="-0.79784">
        <ele>722.8</ele>
        <time>2022-10-15 11:55:52</time>
      </trkpt>
      <trkpt lat="38.60716" lon="-0.79788">
        <ele>722.8</ele>
        <time>2022-10-15 11:55:53</time>
      </trkpt>
      <trkpt lat="38.60712" lon="-0.79792">
        <ele>722.8</ele>
        <time>2022-10-15 11:55:54</time>
      </trkpt>
      <trkpt lat="38.60712" lon="-0.79792">
        <ele>722.8</ele>
        <time>2022-10-15 11:55:55</time>
      </trkpt>
      <trkpt lat="38.60702" lon="-0.79798">
        <ele>722.8</ele>
        <time>2022-10-15 11:55:56</time>
      </trkpt>
      <trkpt lat="38.60698" lon="-0.79801">
        <ele>722.8</ele>
        <time>2022-10-15 11:55:57</time>
      </trkpt>
      <trkpt lat="38.60694" lon="-0.79804">
        <ele>722.6</ele>
        <time>2022-10-15 11:55:58</time>
      </trkpt>
      <trkpt lat="38.60691" lon="-0.79809">
        <ele>722.6</ele>
        <time>2022-10-15 11:55:59</time>
      </trkpt>
      <trkpt lat="38.60688" lon="-0.79815">
        <ele>722.4</ele>
        <time>2022-10-15 11:56:00</time>
      </trkpt>
      <trkpt lat="38.60688" lon="-0.79815">
        <ele>722.2</ele>
        <time>2022-10-15 11:56:01</time>
      </trkpt>
      <trkpt lat="38.60681" lon="-0.79825">
        <ele>721.8</ele>
        <time>2022-10-15 11:56:02</time>
      </trkpt>
      <trkpt lat="38.60676" lon="-0.7983">
        <ele>721.8</ele>
        <time>2022-10-15 11:56:03</time>
      </trkpt>
      <trkpt lat="38.60671" lon="-0.79834">
        <ele>721.6</ele>
        <time>2022-10-15 11:56:04</time>
      </trkpt>
      <trkpt lat="38.60665" lon="-0.79838">
        <ele>721.4</ele>
        <time>2022-10-15 11:56:05</time>
      </trkpt>
      <trkpt lat="38.60661" lon="-0.79842">
        <ele>721.2</ele>
        <time>2022-10-15 11:56:06</time>
      </trkpt>
      <trkpt lat="38.60661" lon="-0.79842">
        <ele>721.2</ele>
        <time>2022-10-15 11:56:07</time>
      </trkpt>
      <trkpt lat="38.60652" lon="-0.79853">
        <ele>720.8</ele>
        <time>2022-10-15 11:56:08</time>
      </trkpt>
      <trkpt lat="38.60647" lon="-0.79858">
        <ele>720.6</ele>
        <time>2022-10-15 11:56:09</time>
      </trkpt>
      <trkpt lat="38.60642" lon="-0.79864">
        <ele>720.4</ele>
        <time>2022-10-15 11:56:10</time>
      </trkpt>
      <trkpt lat="38.60638" lon="-0.79869">
        <ele>720</ele>
        <time>2022-10-15 11:56:11</time>
      </trkpt>
      <trkpt lat="38.60633" lon="-0.79873">
        <ele>719.6</ele>
        <time>2022-10-15 11:56:12</time>
      </trkpt>
      <trkpt lat="38.60633" lon="-0.79873">
        <ele>719</ele>
        <time>2022-10-15 11:56:13</time>
      </trkpt>
      <trkpt lat="38.60623" lon="-0.79881">
        <ele>718.6</ele>
        <time>2022-10-15 11:56:14</time>
      </trkpt>
      <trkpt lat="38.60618" lon="-0.79884">
        <ele>718</ele>
        <time>2022-10-15 11:56:15</time>
      </trkpt>
      <trkpt lat="38.60613" lon="-0.79888">
        <ele>717.6</ele>
        <time>2022-10-15 11:56:16</time>
      </trkpt>
      <trkpt lat="38.60608" lon="-0.7989">
        <ele>717</ele>
        <time>2022-10-15 11:56:17</time>
      </trkpt>
      <trkpt lat="38.60604" lon="-0.79892">
        <ele>716.4</ele>
        <time>2022-10-15 11:56:18</time>
      </trkpt>
      <trkpt lat="38.60604" lon="-0.79892">
        <ele>716.2</ele>
        <time>2022-10-15 11:56:19</time>
      </trkpt>
      <trkpt lat="38.60597" lon="-0.79895">
        <ele>716.2</ele>
        <time>2022-10-15 11:56:20</time>
      </trkpt>
      <trkpt lat="38.60594" lon="-0.79896">
        <ele>716</ele>
        <time>2022-10-15 11:56:21</time>
      </trkpt>
      <trkpt lat="38.60591" lon="-0.79897">
        <ele>716</ele>
        <time>2022-10-15 11:56:22</time>
      </trkpt>
      <trkpt lat="38.60589" lon="-0.79899">
        <ele>716</ele>
        <time>2022-10-15 11:56:23</time>
      </trkpt>
      <trkpt lat="38.60587" lon="-0.79901">
        <ele>716</ele>
        <time>2022-10-15 11:56:24</time>
      </trkpt>
      <trkpt lat="38.60587" lon="-0.79901">
        <ele>716</ele>
        <time>2022-10-15 11:56:25</time>
      </trkpt>
      <trkpt lat="38.60583" lon="-0.79905">
        <ele>716</ele>
        <time>2022-10-15 11:56:26</time>
      </trkpt>
      <trkpt lat="38.60581" lon="-0.79907">
        <ele>716</ele>
        <time>2022-10-15 11:56:27</time>
      </trkpt>
      <trkpt lat="38.60577" lon="-0.7991">
        <ele>716</ele>
        <time>2022-10-15 11:56:28</time>
      </trkpt>
      <trkpt lat="38.60574" lon="-0.79913">
        <ele>715.8</ele>
        <time>2022-10-15 11:56:29</time>
      </trkpt>
      <trkpt lat="38.6057" lon="-0.79916">
        <ele>715.8</ele>
        <time>2022-10-15 11:56:30</time>
      </trkpt>
      <trkpt lat="38.6057" lon="-0.79916">
        <ele>715.8</ele>
        <time>2022-10-15 11:56:31</time>
      </trkpt>
      <trkpt lat="38.60563" lon="-0.79921">
        <ele>715.8</ele>
        <time>2022-10-15 11:56:32</time>
      </trkpt>
      <trkpt lat="38.60559" lon="-0.79922">
        <ele>715.6</ele>
        <time>2022-10-15 11:56:33</time>
      </trkpt>
      <trkpt lat="38.60557" lon="-0.79924">
        <ele>715.8</ele>
        <time>2022-10-15 11:56:34</time>
      </trkpt>
      <trkpt lat="38.60554" lon="-0.79925">
        <ele>715.8</ele>
        <time>2022-10-15 11:56:35</time>
      </trkpt>
      <trkpt lat="38.60552" lon="-0.79925">
        <ele>716</ele>
        <time>2022-10-15 11:56:36</time>
      </trkpt>
      <trkpt lat="38.60552" lon="-0.79925">
        <ele>716.2</ele>
        <time>2022-10-15 11:56:37</time>
      </trkpt>
      <trkpt lat="38.60548" lon="-0.79927">
        <ele>716.4</ele>
        <time>2022-10-15 11:56:38</time>
      </trkpt>
      <trkpt lat="38.60545" lon="-0.79928">
        <ele>716.4</ele>
        <time>2022-10-15 11:56:39</time>
      </trkpt>
      <trkpt lat="38.60543" lon="-0.79929">
        <ele>716.4</ele>
        <time>2022-10-15 11:56:40</time>
      </trkpt>
      <trkpt lat="38.6054" lon="-0.7993">
        <ele>716.4</ele>
        <time>2022-10-15 11:56:41</time>
      </trkpt>
      <trkpt lat="38.60537" lon="-0.7993">
        <ele>716.4</ele>
        <time>2022-10-15 11:56:42</time>
      </trkpt>
      <trkpt lat="38.60537" lon="-0.7993">
        <ele>716.4</ele>
        <time>2022-10-15 11:56:43</time>
      </trkpt>
      <trkpt lat="38.60531" lon="-0.7993">
        <ele>716.4</ele>
        <time>2022-10-15 11:56:44</time>
      </trkpt>
      <trkpt lat="38.60529" lon="-0.7993">
        <ele>716.4</ele>
        <time>2022-10-15 11:56:45</time>
      </trkpt>
      <trkpt lat="38.60526" lon="-0.7993">
        <ele>716.6</ele>
        <time>2022-10-15 11:56:46</time>
      </trkpt>
      <trkpt lat="38.60523" lon="-0.7993">
        <ele>716.8</ele>
        <time>2022-10-15 11:56:47</time>
      </trkpt>
      <trkpt lat="38.6052" lon="-0.7993">
        <ele>717</ele>
        <time>2022-10-15 11:56:48</time>
      </trkpt>
      <trkpt lat="38.6052" lon="-0.7993">
        <ele>717</ele>
        <time>2022-10-15 11:56:49</time>
      </trkpt>
      <trkpt lat="38.60514" lon="-0.79929">
        <ele>717</ele>
        <time>2022-10-15 11:56:50</time>
      </trkpt>
      <trkpt lat="38.60511" lon="-0.79929">
        <ele>717.2</ele>
        <time>2022-10-15 11:56:51</time>
      </trkpt>
      <trkpt lat="38.60507" lon="-0.79928">
        <ele>717.4</ele>
        <time>2022-10-15 11:56:52</time>
      </trkpt>
      <trkpt lat="38.60504" lon="-0.79927">
        <ele>717.4</ele>
        <time>2022-10-15 11:56:53</time>
      </trkpt>
      <trkpt lat="38.60501" lon="-0.79927">
        <ele>717.4</ele>
        <time>2022-10-15 11:56:54</time>
      </trkpt>
      <trkpt lat="38.60501" lon="-0.79927">
        <ele>717.4</ele>
        <time>2022-10-15 11:56:55</time>
      </trkpt>
      <trkpt lat="38.60495" lon="-0.79927">
        <ele>717.6</ele>
        <time>2022-10-15 11:56:56</time>
      </trkpt>
      <trkpt lat="38.60492" lon="-0.79927">
        <ele>717.6</ele>
        <time>2022-10-15 11:56:57</time>
      </trkpt>
      <trkpt lat="38.60489" lon="-0.79927">
        <ele>717.6</ele>
        <time>2022-10-15 11:56:58</time>
      </trkpt>
      <trkpt lat="38.60486" lon="-0.79927">
        <ele>717.6</ele>
        <time>2022-10-15 11:56:59</time>
      </trkpt>
      <trkpt lat="38.60483" lon="-0.79926">
        <ele>717.6</ele>
        <time>2022-10-15 11:57:00</time>
      </trkpt>
      <trkpt lat="38.60483" lon="-0.79926">
        <ele>717.6</ele>
        <time>2022-10-15 11:57:01</time>
      </trkpt>
      <trkpt lat="38.60474" lon="-0.79923">
        <ele>717.6</ele>
        <time>2022-10-15 11:57:03</time>
      </trkpt>
      <trkpt lat="38.60468" lon="-0.79919">
        <ele>717.6</ele>
        <time>2022-10-15 11:57:05</time>
      </trkpt>
      <trkpt lat="38.60465" lon="-0.79916">
        <ele>717.6</ele>
        <time>2022-10-15 11:57:07</time>
      </trkpt>
      <trkpt lat="38.60461" lon="-0.79915">
        <ele>717.6</ele>
        <time>2022-10-15 11:57:08</time>
      </trkpt>
      <trkpt lat="38.60457" lon="-0.79915">
        <ele>717.6</ele>
        <time>2022-10-15 11:57:09</time>
      </trkpt>
      <trkpt lat="38.60447" lon="-0.79916">
        <ele>717.4</ele>
        <time>2022-10-15 11:57:11</time>
      </trkpt>
      <trkpt lat="38.60442" lon="-0.79916">
        <ele>717.4</ele>
        <time>2022-10-15 11:57:12</time>
      </trkpt>
      <trkpt lat="38.60437" lon="-0.79916">
        <ele>717.2</ele>
        <time>2022-10-15 11:57:13</time>
      </trkpt>
      <trkpt lat="38.60433" lon="-0.79915">
        <ele>717</ele>
        <time>2022-10-15 11:57:14</time>
      </trkpt>
      <trkpt lat="38.60428" lon="-0.79915">
        <ele>716.8</ele>
        <time>2022-10-15 11:57:15</time>
      </trkpt>
      <trkpt lat="38.60423" lon="-0.79915">
        <ele>716.4</ele>
        <time>2022-10-15 11:57:16</time>
      </trkpt>
      <trkpt lat="38.60418" lon="-0.79915">
        <ele>715.8</ele>
        <time>2022-10-15 11:57:17</time>
      </trkpt>
      <trkpt lat="38.60414" lon="-0.79917">
        <ele>715.2</ele>
        <time>2022-10-15 11:57:18</time>
      </trkpt>
      <trkpt lat="38.60409" lon="-0.79917">
        <ele>715</ele>
        <time>2022-10-15 11:57:19</time>
      </trkpt>
      <trkpt lat="38.60405" lon="-0.79918">
        <ele>714.8</ele>
        <time>2022-10-15 11:57:20</time>
      </trkpt>
      <trkpt lat="38.604" lon="-0.79918">
        <ele>714.6</ele>
        <time>2022-10-15 11:57:21</time>
      </trkpt>
      <trkpt lat="38.60396" lon="-0.79918">
        <ele>714.6</ele>
        <time>2022-10-15 11:57:22</time>
      </trkpt>
      <trkpt lat="38.60393" lon="-0.79917">
        <ele>714.6</ele>
        <time>2022-10-15 11:57:23</time>
      </trkpt>
      <trkpt lat="38.60388" lon="-0.79917">
        <ele>714.4</ele>
        <time>2022-10-15 11:57:25</time>
      </trkpt>
      <trkpt lat="38.60383" lon="-0.79916">
        <ele>714.4</ele>
        <time>2022-10-15 11:57:27</time>
      </trkpt>
      <trkpt lat="38.60382" lon="-0.79916">
        <ele>714.4</ele>
        <time>2022-10-15 11:57:28</time>
      </trkpt>
      <trkpt lat="38.60381" lon="-0.79915">
        <ele>714.6</ele>
        <time>2022-10-15 11:57:29</time>
      </trkpt>
      <trkpt lat="38.60381" lon="-0.79915">
        <ele>714.6</ele>
        <time>2022-10-15 11:57:30</time>
      </trkpt>
      <trkpt lat="38.60381" lon="-0.79915">
        <ele>714.6</ele>
        <time>2022-10-15 11:57:31</time>
      </trkpt>
      <trkpt lat="38.60372" lon="-0.79912">
        <ele>715.8</ele>
        <time>2022-10-15 11:58:27</time>
      </trkpt>
      <trkpt lat="38.6037" lon="-0.79911">
        <ele>715.8</ele>
        <time>2022-10-15 11:58:28</time>
      </trkpt>
      <trkpt lat="38.60368" lon="-0.79911">
        <ele>716</ele>
        <time>2022-10-15 11:58:29</time>
      </trkpt>
      <trkpt lat="38.60366" lon="-0.79911">
        <ele>716</ele>
        <time>2022-10-15 11:58:30</time>
      </trkpt>
      <trkpt lat="38.60366" lon="-0.79911">
        <ele>716</ele>
        <time>2022-10-15 11:58:31</time>
      </trkpt>
      <trkpt lat="38.60362" lon="-0.79909">
        <ele>716</ele>
        <time>2022-10-15 11:58:33</time>
      </trkpt>
      <trkpt lat="38.60361" lon="-0.79908">
        <ele>716</ele>
        <time>2022-10-15 11:58:34</time>
      </trkpt>
      <trkpt lat="38.6036" lon="-0.79908">
        <ele>716</ele>
        <time>2022-10-15 11:58:35</time>
      </trkpt>
      <trkpt lat="38.6036" lon="-0.79908">
        <ele>716.2</ele>
        <time>2022-10-15 11:58:37</time>
      </trkpt>
      <trkpt lat="38.60359" lon="-0.79907">
        <ele>716.2</ele>
        <time>2022-10-15 11:58:38</time>
      </trkpt>
      <trkpt lat="38.60359" lon="-0.79907">
        <ele>716.2</ele>
        <time>2022-10-15 11:58:39</time>
      </trkpt>
      <trkpt lat="38.60324" lon="-0.79961">
        <ele>711</ele>
        <time>2022-10-15 12:02:00</time>
      </trkpt>
      <trkpt lat="38.60324" lon="-0.79961">
        <ele>711</ele>
        <time>2022-10-15 12:02:01</time>
      </trkpt>
      <trkpt lat="38.60324" lon="-0.79964">
        <ele>710.8</ele>
        <time>2022-10-15 12:02:02</time>
      </trkpt>
      <trkpt lat="38.60325" lon="-0.79965">
        <ele>710.6</ele>
        <time>2022-10-15 12:02:03</time>
      </trkpt>
      <trkpt lat="38.60326" lon="-0.79967">
        <ele>710.6</ele>
        <time>2022-10-15 12:02:04</time>
      </trkpt>
      <trkpt lat="38.60326" lon="-0.79969">
        <ele>710</ele>
        <time>2022-10-15 12:02:06</time>
      </trkpt>
      <trkpt lat="38.60326" lon="-0.79969">
        <ele>709.8</ele>
        <time>2022-10-15 12:02:07</time>
      </trkpt>
      <trkpt lat="38.60322" lon="-0.79972">
        <ele>708.6</ele>
        <time>2022-10-15 12:02:15</time>
      </trkpt>
      <trkpt lat="38.60321" lon="-0.79974">
        <ele>708.6</ele>
        <time>2022-10-15 12:02:16</time>
      </trkpt>
      <trkpt lat="38.60319" lon="-0.79976">
        <ele>708.4</ele>
        <time>2022-10-15 12:02:17</time>
      </trkpt>
      <trkpt lat="38.60317" lon="-0.79977">
        <ele>708.6</ele>
        <time>2022-10-15 12:02:18</time>
      </trkpt>
      <trkpt lat="38.60317" lon="-0.79977">
        <ele>708.6</ele>
        <time>2022-10-15 12:02:19</time>
      </trkpt>
      <trkpt lat="38.60311" lon="-0.79979">
        <ele>708.6</ele>
        <time>2022-10-15 12:02:20</time>
      </trkpt>
      <trkpt lat="38.60307" lon="-0.79979">
        <ele>708.4</ele>
        <time>2022-10-15 12:02:21</time>
      </trkpt>
      <trkpt lat="38.60305" lon="-0.7998">
        <ele>708.4</ele>
        <time>2022-10-15 12:02:22</time>
      </trkpt>
      <trkpt lat="38.60302" lon="-0.79981">
        <ele>708</ele>
        <time>2022-10-15 12:02:23</time>
      </trkpt>
      <trkpt lat="38.60302" lon="-0.79981">
        <ele>707.8</ele>
        <time>2022-10-15 12:02:24</time>
      </trkpt>
      <trkpt lat="38.60301" lon="-0.79982">
        <ele>707.4</ele>
        <time>2022-10-15 12:02:25</time>
      </trkpt>
      <trkpt lat="38.60299" lon="-0.79983">
        <ele>707</ele>
        <time>2022-10-15 12:02:26</time>
      </trkpt>
      <trkpt lat="38.60299" lon="-0.79983">
        <ele>706.4</ele>
        <time>2022-10-15 12:02:27</time>
      </trkpt>
      <trkpt lat="38.60298" lon="-0.79983">
        <ele>705.8</ele>
        <time>2022-10-15 12:02:28</time>
      </trkpt>
      <trkpt lat="38.60298" lon="-0.79983">
        <ele>705.2</ele>
        <time>2022-10-15 12:02:29</time>
      </trkpt>
      <trkpt lat="38.60293" lon="-0.7999">
        <ele>703.6</ele>
        <time>2022-10-15 12:02:43</time>
      </trkpt>
      <trkpt lat="38.60291" lon="-0.79993">
        <ele>703.6</ele>
        <time>2022-10-15 12:02:44</time>
      </trkpt>
      <trkpt lat="38.60291" lon="-0.79995">
        <ele>703.6</ele>
        <time>2022-10-15 12:02:45</time>
      </trkpt>
      <trkpt lat="38.6029" lon="-0.79996">
        <ele>703.6</ele>
        <time>2022-10-15 12:02:46</time>
      </trkpt>
      <trkpt lat="38.60289" lon="-0.79999">
        <ele>703</ele>
        <time>2022-10-15 12:02:47</time>
      </trkpt>
      <trkpt lat="38.60288" lon="-0.80001">
        <ele>702.8</ele>
        <time>2022-10-15 12:02:48</time>
      </trkpt>
      <trkpt lat="38.60288" lon="-0.80001">
        <ele>702.6</ele>
        <time>2022-10-15 12:02:49</time>
      </trkpt>
      <trkpt lat="38.60287" lon="-0.80006">
        <ele>702.4</ele>
        <time>2022-10-15 12:02:50</time>
      </trkpt>
      <trkpt lat="38.60286" lon="-0.8001">
        <ele>702.2</ele>
        <time>2022-10-15 12:02:51</time>
      </trkpt>
      <trkpt lat="38.60285" lon="-0.80012">
        <ele>701.8</ele>
        <time>2022-10-15 12:02:52</time>
      </trkpt>
      <trkpt lat="38.60284" lon="-0.80015">
        <ele>701.6</ele>
        <time>2022-10-15 12:02:53</time>
      </trkpt>
      <trkpt lat="38.60282" lon="-0.80018">
        <ele>701.4</ele>
        <time>2022-10-15 12:02:54</time>
      </trkpt>
      <trkpt lat="38.60282" lon="-0.80018">
        <ele>701</ele>
        <time>2022-10-15 12:02:55</time>
      </trkpt>
      <trkpt lat="38.60276" lon="-0.80024">
        <ele>700.6</ele>
        <time>2022-10-15 12:02:56</time>
      </trkpt>
      <trkpt lat="38.60273" lon="-0.80027">
        <ele>700.2</ele>
        <time>2022-10-15 12:02:57</time>
      </trkpt>
      <trkpt lat="38.6027" lon="-0.8003">
        <ele>699.8</ele>
        <time>2022-10-15 12:02:58</time>
      </trkpt>
      <trkpt lat="38.60267" lon="-0.80033">
        <ele>699.2</ele>
        <time>2022-10-15 12:02:59</time>
      </trkpt>
      <trkpt lat="38.60264" lon="-0.80036">
        <ele>698.6</ele>
        <time>2022-10-15 12:03:00</time>
      </trkpt>
      <trkpt lat="38.60264" lon="-0.80036">
        <ele>698.2</ele>
        <time>2022-10-15 12:03:01</time>
      </trkpt>
      <trkpt lat="38.6026" lon="-0.80043">
        <ele>697.4</ele>
        <time>2022-10-15 12:03:02</time>
      </trkpt>
      <trkpt lat="38.60258" lon="-0.80047">
        <ele>696.6</ele>
        <time>2022-10-15 12:03:03</time>
      </trkpt>
      <trkpt lat="38.60255" lon="-0.80052">
        <ele>696</ele>
        <time>2022-10-15 12:03:04</time>
      </trkpt>
      <trkpt lat="38.60252" lon="-0.80057">
        <ele>695.6</ele>
        <time>2022-10-15 12:03:05</time>
      </trkpt>
      <trkpt lat="38.60248" lon="-0.80061">
        <ele>695</ele>
        <time>2022-10-15 12:03:06</time>
      </trkpt>
      <trkpt lat="38.60248" lon="-0.80061">
        <ele>694.4</ele>
        <time>2022-10-15 12:03:07</time>
      </trkpt>
      <trkpt lat="38.60237" lon="-0.80068">
        <ele>693.8</ele>
        <time>2022-10-15 12:03:08</time>
      </trkpt>
      <trkpt lat="38.60231" lon="-0.80071">
        <ele>693.6</ele>
        <time>2022-10-15 12:03:09</time>
      </trkpt>
      <trkpt lat="38.60225" lon="-0.80074">
        <ele>693.4</ele>
        <time>2022-10-15 12:03:10</time>
      </trkpt>
      <trkpt lat="38.60219" lon="-0.80077">
        <ele>693</ele>
        <time>2022-10-15 12:03:11</time>
      </trkpt>
      <trkpt lat="38.60214" lon="-0.8008">
        <ele>692.4</ele>
        <time>2022-10-15 12:03:12</time>
      </trkpt>
      <trkpt lat="38.60214" lon="-0.8008">
        <ele>692</ele>
        <time>2022-10-15 12:03:13</time>
      </trkpt>
      <trkpt lat="38.60206" lon="-0.80088">
        <ele>691.2</ele>
        <time>2022-10-15 12:03:14</time>
      </trkpt>
      <trkpt lat="38.60203" lon="-0.80091">
        <ele>688.8</ele>
        <time>2022-10-15 12:03:15</time>
      </trkpt>
      <trkpt lat="38.602" lon="-0.80094">
        <ele>688</ele>
        <time>2022-10-15 12:03:16</time>
      </trkpt>
      <trkpt lat="38.60199" lon="-0.80095">
        <ele>687.4</ele>
        <time>2022-10-15 12:03:17</time>
      </trkpt>
      <trkpt lat="38.60198" lon="-0.80096">
        <ele>687</ele>
        <time>2022-10-15 12:03:18</time>
      </trkpt>
      <trkpt lat="38.60198" lon="-0.80096">
        <ele>686.8</ele>
        <time>2022-10-15 12:03:19</time>
      </trkpt>
      <trkpt lat="38.60197" lon="-0.80095">
        <ele>686.8</ele>
        <time>2022-10-15 12:03:20</time>
      </trkpt>
      <trkpt lat="38.60197" lon="-0.80095">
        <ele>686.8</ele>
        <time>2022-10-15 12:03:21</time>
      </trkpt>
      <trkpt lat="38.60192" lon="-0.801">
        <ele>686.8</ele>
        <time>2022-10-15 12:04:14</time>
      </trkpt>
      <trkpt lat="38.6019" lon="-0.80102">
        <ele>686.8</ele>
        <time>2022-10-15 12:04:15</time>
      </trkpt>
      <trkpt lat="38.60188" lon="-0.80105">
        <ele>686.4</ele>
        <time>2022-10-15 12:04:16</time>
      </trkpt>
      <trkpt lat="38.60186" lon="-0.80107">
        <ele>686.4</ele>
        <time>2022-10-15 12:04:17</time>
      </trkpt>
      <trkpt lat="38.60184" lon="-0.8011">
        <ele>686.4</ele>
        <time>2022-10-15 12:04:18</time>
      </trkpt>
      <trkpt lat="38.60181" lon="-0.80114">
        <ele>686.4</ele>
        <time>2022-10-15 12:04:19</time>
      </trkpt>
      <trkpt lat="38.60178" lon="-0.80118">
        <ele>686.4</ele>
        <time>2022-10-15 12:04:20</time>
      </trkpt>
      <trkpt lat="38.60175" lon="-0.80122">
        <ele>686.4</ele>
        <time>2022-10-15 12:04:21</time>
      </trkpt>
      <trkpt lat="38.60172" lon="-0.80126">
        <ele>686.4</ele>
        <time>2022-10-15 12:04:22</time>
      </trkpt>
      <trkpt lat="38.60168" lon="-0.8013">
        <ele>685.8</ele>
        <time>2022-10-15 12:04:23</time>
      </trkpt>
      <trkpt lat="38.60164" lon="-0.80134">
        <ele>685.8</ele>
        <time>2022-10-15 12:04:24</time>
      </trkpt>
      <trkpt lat="38.6016" lon="-0.80138">
        <ele>685.6</ele>
        <time>2022-10-15 12:04:25</time>
      </trkpt>
      <trkpt lat="38.60156" lon="-0.80142">
        <ele>685.2</ele>
        <time>2022-10-15 12:04:26</time>
      </trkpt>
      <trkpt lat="38.60153" lon="-0.80147">
        <ele>685</ele>
        <time>2022-10-15 12:04:27</time>
      </trkpt>
      <trkpt lat="38.60145" lon="-0.80155">
        <ele>684.6</ele>
        <time>2022-10-15 12:04:28</time>
      </trkpt>
      <trkpt lat="38.60141" lon="-0.80159">
        <ele>684.4</ele>
        <time>2022-10-15 12:04:29</time>
      </trkpt>
      <trkpt lat="38.60136" lon="-0.80163">
        <ele>684.4</ele>
        <time>2022-10-15 12:04:30</time>
      </trkpt>
      <trkpt lat="38.60136" lon="-0.80163">
        <ele>683.8</ele>
        <time>2022-10-15 12:04:31</time>
      </trkpt>
      <trkpt lat="38.60126" lon="-0.80173">
        <ele>683.6</ele>
        <time>2022-10-15 12:04:32</time>
      </trkpt>
      <trkpt lat="38.6012" lon="-0.80179">
        <ele>683</ele>
        <time>2022-10-15 12:04:33</time>
      </trkpt>
      <trkpt lat="38.60115" lon="-0.80184">
        <ele>682.8</ele>
        <time>2022-10-15 12:04:34</time>
      </trkpt>
      <trkpt lat="38.60102" lon="-0.80198">
        <ele>681.8</ele>
        <time>2022-10-15 12:04:36</time>
      </trkpt>
      <trkpt lat="38.60102" lon="-0.80198">
        <ele>681.6</ele>
        <time>2022-10-15 12:04:37</time>
      </trkpt>
      <trkpt lat="38.60089" lon="-0.80213">
        <ele>681</ele>
        <time>2022-10-15 12:04:38</time>
      </trkpt>
      <trkpt lat="38.60083" lon="-0.8022">
        <ele>679.6</ele>
        <time>2022-10-15 12:04:39</time>
      </trkpt>
      <trkpt lat="38.60078" lon="-0.80228">
        <ele>678.8</ele>
        <time>2022-10-15 12:04:40</time>
      </trkpt>
      <trkpt lat="38.60076" lon="-0.80236">
        <ele>678</ele>
        <time>2022-10-15 12:04:41</time>
      </trkpt>
      <trkpt lat="38.60074" lon="-0.80243">
        <ele>676.8</ele>
        <time>2022-10-15 12:04:42</time>
      </trkpt>
      <trkpt lat="38.60074" lon="-0.80243">
        <ele>676</ele>
        <time>2022-10-15 12:04:43</time>
      </trkpt>
      <trkpt lat="38.6007" lon="-0.80253">
        <ele>675.8</ele>
        <time>2022-10-15 12:04:44</time>
      </trkpt>
      <trkpt lat="38.60068" lon="-0.80257">
        <ele>675.6</ele>
        <time>2022-10-15 12:04:45</time>
      </trkpt>
      <trkpt lat="38.60066" lon="-0.80261">
        <ele>675.4</ele>
        <time>2022-10-15 12:04:46</time>
      </trkpt>
      <trkpt lat="38.60064" lon="-0.80264">
        <ele>675.4</ele>
        <time>2022-10-15 12:04:47</time>
      </trkpt>
      <trkpt lat="38.60062" lon="-0.80267">
        <ele>675.4</ele>
        <time>2022-10-15 12:04:48</time>
      </trkpt>
      <trkpt lat="38.60062" lon="-0.80267">
        <ele>675.2</ele>
        <time>2022-10-15 12:04:49</time>
      </trkpt>
      <trkpt lat="38.60056" lon="-0.80274">
        <ele>674.8</ele>
        <time>2022-10-15 12:04:50</time>
      </trkpt>
      <trkpt lat="38.60052" lon="-0.80277">
        <ele>674.6</ele>
        <time>2022-10-15 12:04:51</time>
      </trkpt>
      <trkpt lat="38.60047" lon="-0.8028">
        <ele>674.4</ele>
        <time>2022-10-15 12:04:52</time>
      </trkpt>
      <trkpt lat="38.60037" lon="-0.80286">
        <ele>674.2</ele>
        <time>2022-10-15 12:04:54</time>
      </trkpt>
      <trkpt lat="38.60026" lon="-0.80296">
        <ele>674.2</ele>
        <time>2022-10-15 12:04:56</time>
      </trkpt>
      <trkpt lat="38.60017" lon="-0.80308">
        <ele>674.2</ele>
        <time>2022-10-15 12:04:58</time>
      </trkpt>
      <trkpt lat="38.60015" lon="-0.80315">
        <ele>674.2</ele>
        <time>2022-10-15 12:04:59</time>
      </trkpt>
      <trkpt lat="38.60015" lon="-0.80322">
        <ele>674.2</ele>
        <time>2022-10-15 12:05:00</time>
      </trkpt>
      <trkpt lat="38.60015" lon="-0.80322">
        <ele>673.6</ele>
        <time>2022-10-15 12:05:01</time>
      </trkpt>
      <trkpt lat="38.60018" lon="-0.80333">
        <ele>673.2</ele>
        <time>2022-10-15 12:05:02</time>
      </trkpt>
      <trkpt lat="38.60021" lon="-0.80336">
        <ele>672.6</ele>
        <time>2022-10-15 12:05:03</time>
      </trkpt>
      <trkpt lat="38.60023" lon="-0.80339">
        <ele>671.6</ele>
        <time>2022-10-15 12:05:04</time>
      </trkpt>
      <trkpt lat="38.60025" lon="-0.80343">
        <ele>670.6</ele>
        <time>2022-10-15 12:05:05</time>
      </trkpt>
      <trkpt lat="38.60027" lon="-0.80346">
        <ele>669.8</ele>
        <time>2022-10-15 12:05:06</time>
      </trkpt>
      <trkpt lat="38.60027" lon="-0.80346">
        <ele>668</ele>
        <time>2022-10-15 12:05:07</time>
      </trkpt>
      <trkpt lat="38.60028" lon="-0.80354">
        <ele>667.2</ele>
        <time>2022-10-15 12:05:08</time>
      </trkpt>
      <trkpt lat="38.6003" lon="-0.80357">
        <ele>666.6</ele>
        <time>2022-10-15 12:05:09</time>
      </trkpt>
      <trkpt lat="38.60031" lon="-0.8036">
        <ele>666.4</ele>
        <time>2022-10-15 12:05:10</time>
      </trkpt>
      <trkpt lat="38.60032" lon="-0.80362">
        <ele>666.2</ele>
        <time>2022-10-15 12:05:11</time>
      </trkpt>
      <trkpt lat="38.60034" lon="-0.80364">
        <ele>666</ele>
        <time>2022-10-15 12:05:12</time>
      </trkpt>
      <trkpt lat="38.60034" lon="-0.80364">
        <ele>665.6</ele>
        <time>2022-10-15 12:05:13</time>
      </trkpt>
      <trkpt lat="38.60035" lon="-0.80371">
        <ele>664.8</ele>
        <time>2022-10-15 12:05:15</time>
      </trkpt>
      <trkpt lat="38.60036" lon="-0.80372">
        <ele>664.6</ele>
        <time>2022-10-15 12:05:16</time>
      </trkpt>
      <trkpt lat="38.60036" lon="-0.80374">
        <ele>664.2</ele>
        <time>2022-10-15 12:05:17</time>
      </trkpt>
      <trkpt lat="38.60037" lon="-0.80375">
        <ele>663.8</ele>
        <time>2022-10-15 12:05:18</time>
      </trkpt>
      <trkpt lat="38.60037" lon="-0.80375">
        <ele>663.4</ele>
        <time>2022-10-15 12:05:19</time>
      </trkpt>
      <trkpt lat="38.60039" lon="-0.80377">
        <ele>663.2</ele>
        <time>2022-10-15 12:05:20</time>
      </trkpt>
      <trkpt lat="38.60039" lon="-0.80378">
        <ele>663</ele>
        <time>2022-10-15 12:05:21</time>
      </trkpt>
      <trkpt lat="38.6004" lon="-0.80379">
        <ele>662.8</ele>
        <time>2022-10-15 12:05:22</time>
      </trkpt>
      <trkpt lat="38.60041" lon="-0.80379">
        <ele>662.6</ele>
        <time>2022-10-15 12:05:23</time>
      </trkpt>
      <trkpt lat="38.60041" lon="-0.8038">
        <ele>662.6</ele>
        <time>2022-10-15 12:05:24</time>
      </trkpt>
      <trkpt lat="38.60041" lon="-0.8038">
        <ele>662.4</ele>
        <time>2022-10-15 12:05:25</time>
      </trkpt>
      <trkpt lat="38.60043" lon="-0.80382">
        <ele>662.2</ele>
        <time>2022-10-15 12:05:26</time>
      </trkpt>
      <trkpt lat="38.60044" lon="-0.80382">
        <ele>662.2</ele>
        <time>2022-10-15 12:05:27</time>
      </trkpt>
      <trkpt lat="38.60045" lon="-0.80382">
        <ele>662.2</ele>
        <time>2022-10-15 12:05:28</time>
      </trkpt>
      <trkpt lat="38.60047" lon="-0.80383">
        <ele>662</ele>
        <time>2022-10-15 12:05:30</time>
      </trkpt>
      <trkpt lat="38.60047" lon="-0.80383">
        <ele>662</ele>
        <time>2022-10-15 12:05:31</time>
      </trkpt>
      <trkpt lat="38.60049" lon="-0.80384">
        <ele>661.8</ele>
        <time>2022-10-15 12:05:32</time>
      </trkpt>
      <trkpt lat="38.60049" lon="-0.80385">
        <ele>661.8</ele>
        <time>2022-10-15 12:05:33</time>
      </trkpt>
      <trkpt lat="38.6005" lon="-0.80385">
        <ele>661.4</ele>
        <time>2022-10-15 12:05:34</time>
      </trkpt>
      <trkpt lat="38.60056" lon="-0.80392">
        <ele>660.4</ele>
        <time>2022-10-15 12:06:10</time>
      </trkpt>
      <trkpt lat="38.60058" lon="-0.80394">
        <ele>660.4</ele>
        <time>2022-10-15 12:06:11</time>
      </trkpt>
      <trkpt lat="38.60061" lon="-0.80398">
        <ele>660.2</ele>
        <time>2022-10-15 12:06:13</time>
      </trkpt>
      <trkpt lat="38.60062" lon="-0.80399">
        <ele>660.2</ele>
        <time>2022-10-15 12:06:14</time>
      </trkpt>
      <trkpt lat="38.60063" lon="-0.80403">
        <ele>660</ele>
        <time>2022-10-15 12:06:15</time>
      </trkpt>
      <trkpt lat="38.60064" lon="-0.80405">
        <ele>659.8</ele>
        <time>2022-10-15 12:06:16</time>
      </trkpt>
      <trkpt lat="38.60064" lon="-0.80407">
        <ele>659.4</ele>
        <time>2022-10-15 12:06:17</time>
      </trkpt>
      <trkpt lat="38.60064" lon="-0.80409">
        <ele>659.2</ele>
        <time>2022-10-15 12:06:18</time>
      </trkpt>
      <trkpt lat="38.60064" lon="-0.80409">
        <ele>658.8</ele>
        <time>2022-10-15 12:06:19</time>
      </trkpt>
      <trkpt lat="38.60064" lon="-0.80412">
        <ele>658.4</ele>
        <time>2022-10-15 12:06:20</time>
      </trkpt>
      <trkpt lat="38.60064" lon="-0.80414">
        <ele>658.2</ele>
        <time>2022-10-15 12:06:21</time>
      </trkpt>
      <trkpt lat="38.60066" lon="-0.80417">
        <ele>657.8</ele>
        <time>2022-10-15 12:06:22</time>
      </trkpt>
      <trkpt lat="38.60069" lon="-0.80422">
        <ele>657.8</ele>
        <time>2022-10-15 12:06:24</time>
      </trkpt>
      <trkpt lat="38.60069" lon="-0.80422">
        <ele>657.8</ele>
        <time>2022-10-15 12:06:25</time>
      </trkpt>
      <trkpt lat="38.6007" lon="-0.80426">
        <ele>657.8</ele>
        <time>2022-10-15 12:06:26</time>
      </trkpt>
      <trkpt lat="38.6007" lon="-0.80431">
        <ele>657.8</ele>
        <time>2022-10-15 12:06:28</time>
      </trkpt>
      <trkpt lat="38.60072" lon="-0.80436">
        <ele>657.4</ele>
        <time>2022-10-15 12:06:30</time>
      </trkpt>
      <trkpt lat="38.60072" lon="-0.80436">
        <ele>657.2</ele>
        <time>2022-10-15 12:06:31</time>
      </trkpt>
      <trkpt lat="38.60078" lon="-0.80442">
        <ele>656.8</ele>
        <time>2022-10-15 12:06:32</time>
      </trkpt>
      <trkpt lat="38.60081" lon="-0.80446">
        <ele>656.8</ele>
        <time>2022-10-15 12:06:33</time>
      </trkpt>
      <trkpt lat="38.60083" lon="-0.8045">
        <ele>656.6</ele>
        <time>2022-10-15 12:06:34</time>
      </trkpt>
      <trkpt lat="38.60085" lon="-0.80455">
        <ele>656.4</ele>
        <time>2022-10-15 12:06:35</time>
      </trkpt>
      <trkpt lat="38.60087" lon="-0.80459">
        <ele>656</ele>
        <time>2022-10-15 12:06:36</time>
      </trkpt>
      <trkpt lat="38.60087" lon="-0.80459">
        <ele>656</ele>
        <time>2022-10-15 12:06:37</time>
      </trkpt>
      <trkpt lat="38.60089" lon="-0.80467">
        <ele>655.4</ele>
        <time>2022-10-15 12:06:38</time>
      </trkpt>
      <trkpt lat="38.60089" lon="-0.80472">
        <ele>654</ele>
        <time>2022-10-15 12:06:40</time>
      </trkpt>
      <trkpt lat="38.60088" lon="-0.80474">
        <ele>653.8</ele>
        <time>2022-10-15 12:06:41</time>
      </trkpt>
      <trkpt lat="38.60088" lon="-0.80477">
        <ele>653.4</ele>
        <time>2022-10-15 12:06:42</time>
      </trkpt>
      <trkpt lat="38.60088" lon="-0.80477">
        <ele>653.4</ele>
        <time>2022-10-15 12:06:43</time>
      </trkpt>
      <trkpt lat="38.60087" lon="-0.80482">
        <ele>653.4</ele>
        <time>2022-10-15 12:06:44</time>
      </trkpt>
      <trkpt lat="38.60087" lon="-0.80485">
        <ele>653.4</ele>
        <time>2022-10-15 12:06:45</time>
      </trkpt>
      <trkpt lat="38.60087" lon="-0.80487">
        <ele>653.4</ele>
        <time>2022-10-15 12:06:46</time>
      </trkpt>
      <trkpt lat="38.60086" lon="-0.8049">
        <ele>653.4</ele>
        <time>2022-10-15 12:06:47</time>
      </trkpt>
      <trkpt lat="38.60086" lon="-0.80493">
        <ele>653.4</ele>
        <time>2022-10-15 12:06:48</time>
      </trkpt>
      <trkpt lat="38.60086" lon="-0.80493">
        <ele>653.4</ele>
        <time>2022-10-15 12:06:49</time>
      </trkpt>
      <trkpt lat="38.60085" lon="-0.80498">
        <ele>653.4</ele>
        <time>2022-10-15 12:06:50</time>
      </trkpt>
      <trkpt lat="38.60085" lon="-0.805">
        <ele>653.4</ele>
        <time>2022-10-15 12:06:51</time>
      </trkpt>
      <trkpt lat="38.60084" lon="-0.80502">
        <ele>653.4</ele>
        <time>2022-10-15 12:06:52</time>
      </trkpt>
      <trkpt lat="38.60083" lon="-0.80505">
        <ele>653.4</ele>
        <time>2022-10-15 12:06:53</time>
      </trkpt>
      <trkpt lat="38.60083" lon="-0.80508">
        <ele>653.4</ele>
        <time>2022-10-15 12:06:54</time>
      </trkpt>
      <trkpt lat="38.60083" lon="-0.80508">
        <ele>653.8</ele>
        <time>2022-10-15 12:06:55</time>
      </trkpt>
      <trkpt lat="38.60083" lon="-0.80514">
        <ele>654</ele>
        <time>2022-10-15 12:06:56</time>
      </trkpt>
      <trkpt lat="38.60084" lon="-0.80516">
        <ele>654</ele>
        <time>2022-10-15 12:06:57</time>
      </trkpt>
      <trkpt lat="38.60084" lon="-0.80519">
        <ele>654.2</ele>
        <time>2022-10-15 12:06:58</time>
      </trkpt>
      <trkpt lat="38.60085" lon="-0.80522">
        <ele>654.6</ele>
        <time>2022-10-15 12:06:59</time>
      </trkpt>
      <trkpt lat="38.60087" lon="-0.80526">
        <ele>654.6</ele>
        <time>2022-10-15 12:07:00</time>
      </trkpt>
      <trkpt lat="38.60087" lon="-0.80526">
        <ele>654.6</ele>
        <time>2022-10-15 12:07:01</time>
      </trkpt>
      <trkpt lat="38.60088" lon="-0.80536">
        <ele>654.6</ele>
        <time>2022-10-15 12:07:02</time>
      </trkpt>
      <trkpt lat="38.60088" lon="-0.80541">
        <ele>654.6</ele>
        <time>2022-10-15 12:07:03</time>
      </trkpt>
      <trkpt lat="38.60088" lon="-0.80546">
        <ele>654.6</ele>
        <time>2022-10-15 12:07:04</time>
      </trkpt>
      <trkpt lat="38.60087" lon="-0.80551">
        <ele>654.6</ele>
        <time>2022-10-15 12:07:05</time>
      </trkpt>
      <trkpt lat="38.60086" lon="-0.80556">
        <ele>654.6</ele>
        <time>2022-10-15 12:07:06</time>
      </trkpt>
      <trkpt lat="38.60086" lon="-0.80556">
        <ele>654.6</ele>
        <time>2022-10-15 12:07:07</time>
      </trkpt>
      <trkpt lat="38.60085" lon="-0.80566">
        <ele>654.2</ele>
        <time>2022-10-15 12:07:08</time>
      </trkpt>
      <trkpt lat="38.60085" lon="-0.80571">
        <ele>653.8</ele>
        <time>2022-10-15 12:07:09</time>
      </trkpt>
      <trkpt lat="38.60084" lon="-0.80576">
        <ele>653.4</ele>
        <time>2022-10-15 12:07:10</time>
      </trkpt>
      <trkpt lat="38.60084" lon="-0.80582">
        <ele>653.2</ele>
        <time>2022-10-15 12:07:11</time>
      </trkpt>
      <trkpt lat="38.60083" lon="-0.80587">
        <ele>653</ele>
        <time>2022-10-15 12:07:12</time>
      </trkpt>
      <trkpt lat="38.60083" lon="-0.80587">
        <ele>652.8</ele>
        <time>2022-10-15 12:07:13</time>
      </trkpt>
      <trkpt lat="38.60082" lon="-0.80598">
        <ele>652.6</ele>
        <time>2022-10-15 12:07:14</time>
      </trkpt>
      <trkpt lat="38.60081" lon="-0.80603">
        <ele>652.6</ele>
        <time>2022-10-15 12:07:15</time>
      </trkpt>
      <trkpt lat="38.6008" lon="-0.80609">
        <ele>652.4</ele>
        <time>2022-10-15 12:07:16</time>
      </trkpt>
      <trkpt lat="38.60079" lon="-0.80614">
        <ele>652.2</ele>
        <time>2022-10-15 12:07:17</time>
      </trkpt>
      <trkpt lat="38.60077" lon="-0.80619">
        <ele>652.2</ele>
        <time>2022-10-15 12:07:18</time>
      </trkpt>
      <trkpt lat="38.60077" lon="-0.80619">
        <ele>652</ele>
        <time>2022-10-15 12:07:19</time>
      </trkpt>
      <trkpt lat="38.60072" lon="-0.80628">
        <ele>652</ele>
        <time>2022-10-15 12:07:20</time>
      </trkpt>
      <trkpt lat="38.60071" lon="-0.80633">
        <ele>651.8</ele>
        <time>2022-10-15 12:07:21</time>
      </trkpt>
      <trkpt lat="38.60073" lon="-0.80638">
        <ele>651.8</ele>
        <time>2022-10-15 12:07:22</time>
      </trkpt>
      <trkpt lat="38.60082" lon="-0.80646">
        <ele>651.2</ele>
        <time>2022-10-15 12:07:24</time>
      </trkpt>
      <trkpt lat="38.60082" lon="-0.80646">
        <ele>650.6</ele>
        <time>2022-10-15 12:07:25</time>
      </trkpt>
      <trkpt lat="38.60093" lon="-0.80653">
        <ele>650.4</ele>
        <time>2022-10-15 12:07:26</time>
      </trkpt>
      <trkpt lat="38.60107" lon="-0.80661">
        <ele>650.2</ele>
        <time>2022-10-15 12:07:28</time>
      </trkpt>
      <trkpt lat="38.60114" lon="-0.80665">
        <ele>650.2</ele>
        <time>2022-10-15 12:07:29</time>
      </trkpt>
      <trkpt lat="38.60122" lon="-0.80668">
        <ele>650.2</ele>
        <time>2022-10-15 12:07:30</time>
      </trkpt>
      <trkpt lat="38.60139" lon="-0.80677">
        <ele>649.4</ele>
        <time>2022-10-15 12:07:32</time>
      </trkpt>
      <trkpt lat="38.60147" lon="-0.80682">
        <ele>648.8</ele>
        <time>2022-10-15 12:07:33</time>
      </trkpt>
      <trkpt lat="38.60154" lon="-0.80686">
        <ele>648</ele>
        <time>2022-10-15 12:07:34</time>
      </trkpt>
      <trkpt lat="38.60161" lon="-0.8069">
        <ele>647</ele>
        <time>2022-10-15 12:07:35</time>
      </trkpt>
      <trkpt lat="38.60167" lon="-0.80694">
        <ele>645.6</ele>
        <time>2022-10-15 12:07:36</time>
      </trkpt>
      <trkpt lat="38.60167" lon="-0.80694">
        <ele>644.4</ele>
        <time>2022-10-15 12:07:37</time>
      </trkpt>
      <trkpt lat="38.60178" lon="-0.807">
        <ele>643</ele>
        <time>2022-10-15 12:07:38</time>
      </trkpt>
      <trkpt lat="38.60183" lon="-0.80702">
        <ele>641.4</ele>
        <time>2022-10-15 12:07:39</time>
      </trkpt>
      <trkpt lat="38.60188" lon="-0.80705">
        <ele>640.2</ele>
        <time>2022-10-15 12:07:40</time>
      </trkpt>
      <trkpt lat="38.60193" lon="-0.80707">
        <ele>639.2</ele>
        <time>2022-10-15 12:07:41</time>
      </trkpt>
      <trkpt lat="38.60197" lon="-0.8071">
        <ele>638.6</ele>
        <time>2022-10-15 12:07:42</time>
      </trkpt>
      <trkpt lat="38.60202" lon="-0.80714">
        <ele>638</ele>
        <time>2022-10-15 12:07:44</time>
      </trkpt>
      <trkpt lat="38.60207" lon="-0.80718">
        <ele>637.6</ele>
        <time>2022-10-15 12:07:45</time>
      </trkpt>
      <trkpt lat="38.60211" lon="-0.80723">
        <ele>637.2</ele>
        <time>2022-10-15 12:07:46</time>
      </trkpt>
      <trkpt lat="38.60221" lon="-0.80734">
        <ele>637</ele>
        <time>2022-10-15 12:07:48</time>
      </trkpt>
      <trkpt lat="38.60226" lon="-0.8074">
        <ele>636.8</ele>
        <time>2022-10-15 12:07:49</time>
      </trkpt>
      <trkpt lat="38.60232" lon="-0.80745">
        <ele>636.4</ele>
        <time>2022-10-15 12:07:50</time>
      </trkpt>
      <trkpt lat="38.60237" lon="-0.80748">
        <ele>636</ele>
        <time>2022-10-15 12:07:51</time>
      </trkpt>
      <trkpt lat="38.60241" lon="-0.80751">
        <ele>635.4</ele>
        <time>2022-10-15 12:07:52</time>
      </trkpt>
      <trkpt lat="38.60246" lon="-0.80752">
        <ele>633</ele>
        <time>2022-10-15 12:07:53</time>
      </trkpt>
      <trkpt lat="38.60251" lon="-0.80754">
        <ele>631.8</ele>
        <time>2022-10-15 12:07:54</time>
      </trkpt>
      <trkpt lat="38.60255" lon="-0.80754">
        <ele>630.6</ele>
        <time>2022-10-15 12:07:55</time>
      </trkpt>
      <trkpt lat="38.60258" lon="-0.80755">
        <ele>629.2</ele>
        <time>2022-10-15 12:07:56</time>
      </trkpt>
      <trkpt lat="38.60261" lon="-0.80756">
        <ele>628.4</ele>
        <time>2022-10-15 12:07:57</time>
      </trkpt>
      <trkpt lat="38.60263" lon="-0.80758">
        <ele>627.8</ele>
        <time>2022-10-15 12:07:58</time>
      </trkpt>
      <trkpt lat="38.60264" lon="-0.80761">
        <ele>627.4</ele>
        <time>2022-10-15 12:07:59</time>
      </trkpt>
      <trkpt lat="38.60263" lon="-0.80765">
        <ele>627</ele>
        <time>2022-10-15 12:08:00</time>
      </trkpt>
      <trkpt lat="38.60261" lon="-0.80768">
        <ele>626.4</ele>
        <time>2022-10-15 12:08:01</time>
      </trkpt>
      <trkpt lat="38.60257" lon="-0.80774">
        <ele>626</ele>
        <time>2022-10-15 12:08:02</time>
      </trkpt>
      <trkpt lat="38.60255" lon="-0.80776">
        <ele>625.4</ele>
        <time>2022-10-15 12:08:03</time>
      </trkpt>
      <trkpt lat="38.60253" lon="-0.80779">
        <ele>625</ele>
        <time>2022-10-15 12:08:04</time>
      </trkpt>
      <trkpt lat="38.60252" lon="-0.80781">
        <ele>624.8</ele>
        <time>2022-10-15 12:08:05</time>
      </trkpt>
      <trkpt lat="38.6025" lon="-0.80783">
        <ele>624.6</ele>
        <time>2022-10-15 12:08:06</time>
      </trkpt>
      <trkpt lat="38.6025" lon="-0.80783">
        <ele>624.4</ele>
        <time>2022-10-15 12:08:07</time>
      </trkpt>
      <trkpt lat="38.60247" lon="-0.80788">
        <ele>624.4</ele>
        <time>2022-10-15 12:08:08</time>
      </trkpt>
      <trkpt lat="38.60246" lon="-0.8079">
        <ele>624.4</ele>
        <time>2022-10-15 12:08:09</time>
      </trkpt>
      <trkpt lat="38.60244" lon="-0.80792">
        <ele>624.4</ele>
        <time>2022-10-15 12:08:10</time>
      </trkpt>
      <trkpt lat="38.60243" lon="-0.80795">
        <ele>624.4</ele>
        <time>2022-10-15 12:08:11</time>
      </trkpt>
      <trkpt lat="38.60241" lon="-0.80797">
        <ele>624.4</ele>
        <time>2022-10-15 12:08:12</time>
      </trkpt>
      <trkpt lat="38.60241" lon="-0.80797">
        <ele>624.4</ele>
        <time>2022-10-15 12:08:13</time>
      </trkpt>
      <trkpt lat="38.60238" lon="-0.80801">
        <ele>624.4</ele>
        <time>2022-10-15 12:08:14</time>
      </trkpt>
      <trkpt lat="38.60237" lon="-0.80803">
        <ele>624.6</ele>
        <time>2022-10-15 12:08:15</time>
      </trkpt>
      <trkpt lat="38.60235" lon="-0.80805">
        <ele>624.8</ele>
        <time>2022-10-15 12:08:16</time>
      </trkpt>
      <trkpt lat="38.60233" lon="-0.80807">
        <ele>625</ele>
        <time>2022-10-15 12:08:17</time>
      </trkpt>
      <trkpt lat="38.60232" lon="-0.80809">
        <ele>625.2</ele>
        <time>2022-10-15 12:08:18</time>
      </trkpt>
      <trkpt lat="38.60232" lon="-0.80809">
        <ele>625.4</ele>
        <time>2022-10-15 12:08:19</time>
      </trkpt>
      <trkpt lat="38.60228" lon="-0.80813">
        <ele>626</ele>
        <time>2022-10-15 12:08:20</time>
      </trkpt>
      <trkpt lat="38.60226" lon="-0.80815">
        <ele>626.4</ele>
        <time>2022-10-15 12:08:21</time>
      </trkpt>
      <trkpt lat="38.60224" lon="-0.80818">
        <ele>626.6</ele>
        <time>2022-10-15 12:08:22</time>
      </trkpt>
      <trkpt lat="38.60223" lon="-0.8082">
        <ele>626.8</ele>
        <time>2022-10-15 12:08:23</time>
      </trkpt>
      <trkpt lat="38.60221" lon="-0.80822">
        <ele>627</ele>
        <time>2022-10-15 12:08:24</time>
      </trkpt>
      <trkpt lat="38.60221" lon="-0.80822">
        <ele>627.2</ele>
        <time>2022-10-15 12:08:25</time>
      </trkpt>
      <trkpt lat="38.60217" lon="-0.80827">
        <ele>627.4</ele>
        <time>2022-10-15 12:08:26</time>
      </trkpt>
      <trkpt lat="38.60216" lon="-0.8083">
        <ele>627.6</ele>
        <time>2022-10-15 12:08:27</time>
      </trkpt>
      <trkpt lat="38.60215" lon="-0.80832">
        <ele>627.8</ele>
        <time>2022-10-15 12:08:28</time>
      </trkpt>
      <trkpt lat="38.60213" lon="-0.80835">
        <ele>627.8</ele>
        <time>2022-10-15 12:08:29</time>
      </trkpt>
      <trkpt lat="38.60212" lon="-0.80837">
        <ele>628</ele>
        <time>2022-10-15 12:08:30</time>
      </trkpt>
      <trkpt lat="38.60212" lon="-0.80837">
        <ele>628.2</ele>
        <time>2022-10-15 12:08:31</time>
      </trkpt>
      <trkpt lat="38.60209" lon="-0.80841">
        <ele>628.2</ele>
        <time>2022-10-15 12:08:32</time>
      </trkpt>
      <trkpt lat="38.60207" lon="-0.80843">
        <ele>628.6</ele>
        <time>2022-10-15 12:08:33</time>
      </trkpt>
      <trkpt lat="38.60205" lon="-0.80845">
        <ele>628.6</ele>
        <time>2022-10-15 12:08:34</time>
      </trkpt>
      <trkpt lat="38.60204" lon="-0.80847">
        <ele>628.8</ele>
        <time>2022-10-15 12:08:35</time>
      </trkpt>
      <trkpt lat="38.60202" lon="-0.80848">
        <ele>629</ele>
        <time>2022-10-15 12:08:36</time>
      </trkpt>
      <trkpt lat="38.60202" lon="-0.80848">
        <ele>629.2</ele>
        <time>2022-10-15 12:08:37</time>
      </trkpt>
      <trkpt lat="38.60198" lon="-0.80849">
        <ele>629.2</ele>
        <time>2022-10-15 12:08:38</time>
      </trkpt>
      <trkpt lat="38.60196" lon="-0.80848">
        <ele>629.4</ele>
        <time>2022-10-15 12:08:39</time>
      </trkpt>
      <trkpt lat="38.60194" lon="-0.80847">
        <ele>629.6</ele>
        <time>2022-10-15 12:08:40</time>
      </trkpt>
      <trkpt lat="38.60193" lon="-0.80845">
        <ele>629.6</ele>
        <time>2022-10-15 12:08:41</time>
      </trkpt>
      <trkpt lat="38.60191" lon="-0.80843">
        <ele>629.8</ele>
        <time>2022-10-15 12:08:42</time>
      </trkpt>
      <trkpt lat="38.60191" lon="-0.80843">
        <ele>630</ele>
        <time>2022-10-15 12:08:43</time>
      </trkpt>
      <trkpt lat="38.60188" lon="-0.80839">
        <ele>630</ele>
        <time>2022-10-15 12:08:44</time>
      </trkpt>
      <trkpt lat="38.60187" lon="-0.80838">
        <ele>630</ele>
        <time>2022-10-15 12:08:45</time>
      </trkpt>
      <trkpt lat="38.60186" lon="-0.80836">
        <ele>630</ele>
        <time>2022-10-15 12:08:46</time>
      </trkpt>
      <trkpt lat="38.60185" lon="-0.80834">
        <ele>630.2</ele>
        <time>2022-10-15 12:08:47</time>
      </trkpt>
      <trkpt lat="38.60183" lon="-0.80832">
        <ele>630.4</ele>
        <time>2022-10-15 12:08:48</time>
      </trkpt>
      <trkpt lat="38.60183" lon="-0.80832">
        <ele>630.4</ele>
        <time>2022-10-15 12:08:49</time>
      </trkpt>
      <trkpt lat="38.60181" lon="-0.80829">
        <ele>630.6</ele>
        <time>2022-10-15 12:08:50</time>
      </trkpt>
      <trkpt lat="38.6018" lon="-0.80828">
        <ele>630.8</ele>
        <time>2022-10-15 12:08:51</time>
      </trkpt>
      <trkpt lat="38.60179" lon="-0.80826">
        <ele>630.8</ele>
        <time>2022-10-15 12:08:52</time>
      </trkpt>
      <trkpt lat="38.60177" lon="-0.80825">
        <ele>631</ele>
        <time>2022-10-15 12:08:53</time>
      </trkpt>
      <trkpt lat="38.60176" lon="-0.80823">
        <ele>631.2</ele>
        <time>2022-10-15 12:08:54</time>
      </trkpt>
      <trkpt lat="38.60176" lon="-0.80823">
        <ele>631.4</ele>
        <time>2022-10-15 12:08:55</time>
      </trkpt>
      <trkpt lat="38.60174" lon="-0.8082">
        <ele>631.6</ele>
        <time>2022-10-15 12:08:56</time>
      </trkpt>
      <trkpt lat="38.60172" lon="-0.80819">
        <ele>631.6</ele>
        <time>2022-10-15 12:08:57</time>
      </trkpt>
      <trkpt lat="38.60171" lon="-0.80818">
        <ele>631.6</ele>
        <time>2022-10-15 12:08:58</time>
      </trkpt>
      <trkpt lat="38.6017" lon="-0.80816">
        <ele>631.8</ele>
        <time>2022-10-15 12:08:59</time>
      </trkpt>
      <trkpt lat="38.60169" lon="-0.80815">
        <ele>632</ele>
        <time>2022-10-15 12:09:00</time>
      </trkpt>
      <trkpt lat="38.60169" lon="-0.80815">
        <ele>632.2</ele>
        <time>2022-10-15 12:09:01</time>
      </trkpt>
      <trkpt lat="38.60167" lon="-0.80812">
        <ele>632.2</ele>
        <time>2022-10-15 12:09:02</time>
      </trkpt>
      <trkpt lat="38.60166" lon="-0.80811">
        <ele>632.4</ele>
        <time>2022-10-15 12:09:03</time>
      </trkpt>
      <trkpt lat="38.60165" lon="-0.8081">
        <ele>632.6</ele>
        <time>2022-10-15 12:09:04</time>
      </trkpt>
      <trkpt lat="38.60165" lon="-0.80809">
        <ele>632.6</ele>
        <time>2022-10-15 12:09:05</time>
      </trkpt>
      <trkpt lat="38.60164" lon="-0.80808">
        <ele>632.8</ele>
        <time>2022-10-15 12:09:06</time>
      </trkpt>
      <trkpt lat="38.60164" lon="-0.80808">
        <ele>632.8</ele>
        <time>2022-10-15 12:09:07</time>
      </trkpt>
      <trkpt lat="38.60163" lon="-0.80805">
        <ele>633</ele>
        <time>2022-10-15 12:09:08</time>
      </trkpt>
      <trkpt lat="38.60163" lon="-0.80804">
        <ele>633</ele>
        <time>2022-10-15 12:09:09</time>
      </trkpt>
      <trkpt lat="38.60162" lon="-0.80804">
        <ele>633.2</ele>
        <time>2022-10-15 12:09:10</time>
      </trkpt>
      <trkpt lat="38.60162" lon="-0.80803">
        <ele>633.2</ele>
        <time>2022-10-15 12:09:11</time>
      </trkpt>
      <trkpt lat="38.60161" lon="-0.80802">
        <ele>633.4</ele>
        <time>2022-10-15 12:09:12</time>
      </trkpt>
      <trkpt lat="38.60161" lon="-0.80802">
        <ele>633.8</ele>
        <time>2022-10-15 12:09:13</time>
      </trkpt>
      <trkpt lat="38.6016" lon="-0.80801">
        <ele>633.8</ele>
        <time>2022-10-15 12:09:14</time>
      </trkpt>
      <trkpt lat="38.60161" lon="-0.808">
        <ele>634</ele>
        <time>2022-10-15 12:09:15</time>
      </trkpt>
      <trkpt lat="38.6016" lon="-0.80799">
        <ele>634.2</ele>
        <time>2022-10-15 12:09:16</time>
      </trkpt>
      <trkpt lat="38.6016" lon="-0.80798">
        <ele>634.4</ele>
        <time>2022-10-15 12:09:17</time>
      </trkpt>
      <trkpt lat="38.60159" lon="-0.80796">
        <ele>634.4</ele>
        <time>2022-10-15 12:09:18</time>
      </trkpt>
      <trkpt lat="38.60159" lon="-0.80796">
        <ele>634.4</ele>
        <time>2022-10-15 12:09:19</time>
      </trkpt>
      <trkpt lat="38.60158" lon="-0.80792">
        <ele>634.4</ele>
        <time>2022-10-15 12:09:20</time>
      </trkpt>
      <trkpt lat="38.60158" lon="-0.8079">
        <ele>634.6</ele>
        <time>2022-10-15 12:09:21</time>
      </trkpt>
      <trkpt lat="38.60157" lon="-0.80789">
        <ele>634.6</ele>
        <time>2022-10-15 12:09:22</time>
      </trkpt>
      <trkpt lat="38.60157" lon="-0.80787">
        <ele>634.6</ele>
        <time>2022-10-15 12:09:23</time>
      </trkpt>
      <trkpt lat="38.60156" lon="-0.80786">
        <ele>634.6</ele>
        <time>2022-10-15 12:09:24</time>
      </trkpt>
      <trkpt lat="38.60156" lon="-0.80786">
        <ele>634.8</ele>
        <time>2022-10-15 12:09:25</time>
      </trkpt>
      <trkpt lat="38.60155" lon="-0.80784">
        <ele>634.8</ele>
        <time>2022-10-15 12:09:26</time>
      </trkpt>
      <trkpt lat="38.60154" lon="-0.80783">
        <ele>635</ele>
        <time>2022-10-15 12:09:27</time>
      </trkpt>
      <trkpt lat="38.60153" lon="-0.80782">
        <ele>635</ele>
        <time>2022-10-15 12:09:28</time>
      </trkpt>
      <trkpt lat="38.60152" lon="-0.80781">
        <ele>635.4</ele>
        <time>2022-10-15 12:09:29</time>
      </trkpt>
      <trkpt lat="38.60151" lon="-0.8078">
        <ele>635.6</ele>
        <time>2022-10-15 12:09:30</time>
      </trkpt>
      <trkpt lat="38.60151" lon="-0.8078">
        <ele>635.8</ele>
        <time>2022-10-15 12:09:31</time>
      </trkpt>
      <trkpt lat="38.60148" lon="-0.80777">
        <ele>635.8</ele>
        <time>2022-10-15 12:09:32</time>
      </trkpt>
      <trkpt lat="38.60147" lon="-0.80775">
        <ele>636</ele>
        <time>2022-10-15 12:09:33</time>
      </trkpt>
      <trkpt lat="38.60146" lon="-0.80774">
        <ele>636</ele>
        <time>2022-10-15 12:09:34</time>
      </trkpt>
      <trkpt lat="38.60144" lon="-0.80773">
        <ele>636</ele>
        <time>2022-10-15 12:09:35</time>
      </trkpt>
      <trkpt lat="38.60143" lon="-0.80772">
        <ele>636</ele>
        <time>2022-10-15 12:09:36</time>
      </trkpt>
      <trkpt lat="38.60143" lon="-0.80772">
        <ele>636</ele>
        <time>2022-10-15 12:09:37</time>
      </trkpt>
      <trkpt lat="38.6014" lon="-0.8077">
        <ele>636</ele>
        <time>2022-10-15 12:09:38</time>
      </trkpt>
      <trkpt lat="38.60139" lon="-0.8077">
        <ele>636</ele>
        <time>2022-10-15 12:09:39</time>
      </trkpt>
      <trkpt lat="38.60137" lon="-0.80769">
        <ele>636.2</ele>
        <time>2022-10-15 12:09:40</time>
      </trkpt>
      <trkpt lat="38.60135" lon="-0.80769">
        <ele>636.2</ele>
        <time>2022-10-15 12:09:41</time>
      </trkpt>
      <trkpt lat="38.60134" lon="-0.80769">
        <ele>636.2</ele>
        <time>2022-10-15 12:09:42</time>
      </trkpt>
      <trkpt lat="38.60134" lon="-0.80769">
        <ele>636.2</ele>
        <time>2022-10-15 12:09:43</time>
      </trkpt>
      <trkpt lat="38.6013" lon="-0.80767">
        <ele>636.2</ele>
        <time>2022-10-15 12:09:44</time>
      </trkpt>
      <trkpt lat="38.60128" lon="-0.80766">
        <ele>636.2</ele>
        <time>2022-10-15 12:09:45</time>
      </trkpt>
      <trkpt lat="38.60126" lon="-0.80765">
        <ele>636.4</ele>
        <time>2022-10-15 12:09:46</time>
      </trkpt>
      <trkpt lat="38.60125" lon="-0.80764">
        <ele>636.8</ele>
        <time>2022-10-15 12:09:47</time>
      </trkpt>
      <trkpt lat="38.60123" lon="-0.80764">
        <ele>637</ele>
        <time>2022-10-15 12:09:48</time>
      </trkpt>
      <trkpt lat="38.60123" lon="-0.80764">
        <ele>637</ele>
        <time>2022-10-15 12:09:49</time>
      </trkpt>
      <trkpt lat="38.60121" lon="-0.80763">
        <ele>637</ele>
        <time>2022-10-15 12:09:50</time>
      </trkpt>
      <trkpt lat="38.6012" lon="-0.80763">
        <ele>637</ele>
        <time>2022-10-15 12:09:51</time>
      </trkpt>
      <trkpt lat="38.6012" lon="-0.80762">
        <ele>637.2</ele>
        <time>2022-10-15 12:09:52</time>
      </trkpt>
      <trkpt lat="38.6012" lon="-0.80762">
        <ele>637.2</ele>
        <time>2022-10-15 12:09:53</time>
      </trkpt>
      <trkpt lat="38.60113" lon="-0.80766">
        <ele>638</ele>
        <time>2022-10-15 12:11:45</time>
      </trkpt>
      <trkpt lat="38.60111" lon="-0.80766">
        <ele>638</ele>
        <time>2022-10-15 12:11:46</time>
      </trkpt>
      <trkpt lat="38.60109" lon="-0.80765">
        <ele>638</ele>
        <time>2022-10-15 12:11:47</time>
      </trkpt>
      <trkpt lat="38.60107" lon="-0.80765">
        <ele>638</ele>
        <time>2022-10-15 12:11:48</time>
      </trkpt>
      <trkpt lat="38.60107" lon="-0.80765">
        <ele>638</ele>
        <time>2022-10-15 12:11:49</time>
      </trkpt>
      <trkpt lat="38.60104" lon="-0.80764">
        <ele>638</ele>
        <time>2022-10-15 12:11:50</time>
      </trkpt>
      <trkpt lat="38.60102" lon="-0.80764">
        <ele>638</ele>
        <time>2022-10-15 12:11:51</time>
      </trkpt>
      <trkpt lat="38.60101" lon="-0.80763">
        <ele>638</ele>
        <time>2022-10-15 12:11:52</time>
      </trkpt>
      <trkpt lat="38.60099" lon="-0.80763">
        <ele>638</ele>
        <time>2022-10-15 12:11:53</time>
      </trkpt>
      <trkpt lat="38.60097" lon="-0.80762">
        <ele>638</ele>
        <time>2022-10-15 12:11:54</time>
      </trkpt>
      <trkpt lat="38.60097" lon="-0.80762">
        <ele>638</ele>
        <time>2022-10-15 12:11:55</time>
      </trkpt>
      <trkpt lat="38.60093" lon="-0.80763">
        <ele>638</ele>
        <time>2022-10-15 12:11:56</time>
      </trkpt>
      <trkpt lat="38.60091" lon="-0.80765">
        <ele>638</ele>
        <time>2022-10-15 12:11:57</time>
      </trkpt>
      <trkpt lat="38.60089" lon="-0.80766">
        <ele>638</ele>
        <time>2022-10-15 12:11:58</time>
      </trkpt>
      <trkpt lat="38.60088" lon="-0.80768">
        <ele>638</ele>
        <time>2022-10-15 12:11:59</time>
      </trkpt>
      <trkpt lat="38.60086" lon="-0.80769">
        <ele>637.8</ele>
        <time>2022-10-15 12:12:00</time>
      </trkpt>
      <trkpt lat="38.60086" lon="-0.80769">
        <ele>637.8</ele>
        <time>2022-10-15 12:12:01</time>
      </trkpt>
      <trkpt lat="38.60084" lon="-0.80773">
        <ele>637.8</ele>
        <time>2022-10-15 12:12:02</time>
      </trkpt>
      <trkpt lat="38.60083" lon="-0.80775">
        <ele>637.8</ele>
        <time>2022-10-15 12:12:03</time>
      </trkpt>
      <trkpt lat="38.60082" lon="-0.80777">
        <ele>637.8</ele>
        <time>2022-10-15 12:12:04</time>
      </trkpt>
      <trkpt lat="38.60082" lon="-0.80779">
        <ele>637.6</ele>
        <time>2022-10-15 12:12:05</time>
      </trkpt>
      <trkpt lat="38.60081" lon="-0.80782">
        <ele>637.6</ele>
        <time>2022-10-15 12:12:06</time>
      </trkpt>
      <trkpt lat="38.60081" lon="-0.80782">
        <ele>637.6</ele>
        <time>2022-10-15 12:12:07</time>
      </trkpt>
      <trkpt lat="38.60082" lon="-0.80786">
        <ele>637.6</ele>
        <time>2022-10-15 12:12:08</time>
      </trkpt>
      <trkpt lat="38.60081" lon="-0.80788">
        <ele>637.6</ele>
        <time>2022-10-15 12:12:09</time>
      </trkpt>
      <trkpt lat="38.60081" lon="-0.8079">
        <ele>637.6</ele>
        <time>2022-10-15 12:12:10</time>
      </trkpt>
      <trkpt lat="38.60082" lon="-0.80791">
        <ele>637.6</ele>
        <time>2022-10-15 12:12:11</time>
      </trkpt>
      <trkpt lat="38.60082" lon="-0.80792">
        <ele>637.6</ele>
        <time>2022-10-15 12:12:12</time>
      </trkpt>
      <trkpt lat="38.60082" lon="-0.80792">
        <ele>637.6</ele>
        <time>2022-10-15 12:12:13</time>
      </trkpt>
      <trkpt lat="38.60082" lon="-0.80793">
        <ele>637.6</ele>
        <time>2022-10-15 12:12:14</time>
      </trkpt>
      <trkpt lat="38.60082" lon="-0.80794">
        <ele>638</ele>
        <time>2022-10-15 12:12:15</time>
      </trkpt>
      <trkpt lat="38.60085" lon="-0.80803">
        <ele>640.8</ele>
        <time>2022-10-15 12:12:36</time>
      </trkpt>
      <trkpt lat="38.60085" lon="-0.80803">
        <ele>640.8</ele>
        <time>2022-10-15 12:12:37</time>
      </trkpt>
      <trkpt lat="38.60086" lon="-0.80808">
        <ele>640.8</ele>
        <time>2022-10-15 12:12:38</time>
      </trkpt>
      <trkpt lat="38.60087" lon="-0.8081">
        <ele>640.8</ele>
        <time>2022-10-15 12:12:39</time>
      </trkpt>
      <trkpt lat="38.60086" lon="-0.80812">
        <ele>640.8</ele>
        <time>2022-10-15 12:12:40</time>
      </trkpt>
      <trkpt lat="38.60086" lon="-0.80814">
        <ele>640.8</ele>
        <time>2022-10-15 12:12:41</time>
      </trkpt>
      <trkpt lat="38.60085" lon="-0.80816">
        <ele>640.8</ele>
        <time>2022-10-15 12:12:42</time>
      </trkpt>
      <trkpt lat="38.60085" lon="-0.80816">
        <ele>640.8</ele>
        <time>2022-10-15 12:12:43</time>
      </trkpt>
      <trkpt lat="38.60085" lon="-0.8082">
        <ele>640.8</ele>
        <time>2022-10-15 12:12:44</time>
      </trkpt>
      <trkpt lat="38.60085" lon="-0.80822">
        <ele>641</ele>
        <time>2022-10-15 12:12:45</time>
      </trkpt>
      <trkpt lat="38.60084" lon="-0.80823">
        <ele>641</ele>
        <time>2022-10-15 12:12:46</time>
      </trkpt>
      <trkpt lat="38.60084" lon="-0.80825">
        <ele>641.2</ele>
        <time>2022-10-15 12:12:47</time>
      </trkpt>
      <trkpt lat="38.60083" lon="-0.80826">
        <ele>641.6</ele>
        <time>2022-10-15 12:12:48</time>
      </trkpt>
      <trkpt lat="38.60083" lon="-0.80826">
        <ele>642</ele>
        <time>2022-10-15 12:12:49</time>
      </trkpt>
      <trkpt lat="38.60082" lon="-0.80829">
        <ele>642.2</ele>
        <time>2022-10-15 12:12:50</time>
      </trkpt>
      <trkpt lat="38.60081" lon="-0.8083">
        <ele>642.4</ele>
        <time>2022-10-15 12:12:51</time>
      </trkpt>
      <trkpt lat="38.60081" lon="-0.80831">
        <ele>642.6</ele>
        <time>2022-10-15 12:12:52</time>
      </trkpt>
      <trkpt lat="38.60081" lon="-0.80834">
        <ele>643</ele>
        <time>2022-10-15 12:12:53</time>
      </trkpt>
      <trkpt lat="38.60081" lon="-0.80836">
        <ele>643.2</ele>
        <time>2022-10-15 12:12:54</time>
      </trkpt>
      <trkpt lat="38.60081" lon="-0.80836">
        <ele>643.4</ele>
        <time>2022-10-15 12:12:55</time>
      </trkpt>
      <trkpt lat="38.6008" lon="-0.80842">
        <ele>643.6</ele>
        <time>2022-10-15 12:12:56</time>
      </trkpt>
      <trkpt lat="38.60081" lon="-0.80845">
        <ele>643.8</ele>
        <time>2022-10-15 12:12:57</time>
      </trkpt>
      <trkpt lat="38.60081" lon="-0.80848">
        <ele>643.8</ele>
        <time>2022-10-15 12:12:58</time>
      </trkpt>
      <trkpt lat="38.60081" lon="-0.80851">
        <ele>644.2</ele>
        <time>2022-10-15 12:12:59</time>
      </trkpt>
      <trkpt lat="38.60081" lon="-0.80855">
        <ele>644.2</ele>
        <time>2022-10-15 12:13:00</time>
      </trkpt>
      <trkpt lat="38.60081" lon="-0.80855">
        <ele>644.2</ele>
        <time>2022-10-15 12:13:01</time>
      </trkpt>
      <trkpt lat="38.60082" lon="-0.80858">
        <ele>644.4</ele>
        <time>2022-10-15 12:13:02</time>
      </trkpt>
      <trkpt lat="38.60083" lon="-0.80867">
        <ele>644.4</ele>
        <time>2022-10-15 12:13:04</time>
      </trkpt>
      <trkpt lat="38.60085" lon="-0.80877">
        <ele>644.4</ele>
        <time>2022-10-15 12:13:06</time>
      </trkpt>
      <trkpt lat="38.60086" lon="-0.80882">
        <ele>644.2</ele>
        <time>2022-10-15 12:13:07</time>
      </trkpt>
      <trkpt lat="38.60086" lon="-0.80887">
        <ele>644.2</ele>
        <time>2022-10-15 12:13:08</time>
      </trkpt>
      <trkpt lat="38.60087" lon="-0.80892">
        <ele>644.2</ele>
        <time>2022-10-15 12:13:09</time>
      </trkpt>
      <trkpt lat="38.60087" lon="-0.80897">
        <ele>644</ele>
        <time>2022-10-15 12:13:10</time>
      </trkpt>
      <trkpt lat="38.60086" lon="-0.80903">
        <ele>643.8</ele>
        <time>2022-10-15 12:13:11</time>
      </trkpt>
      <trkpt lat="38.60086" lon="-0.80908">
        <ele>643.4</ele>
        <time>2022-10-15 12:13:12</time>
      </trkpt>
      <trkpt lat="38.60084" lon="-0.80914">
        <ele>643.2</ele>
        <time>2022-10-15 12:13:13</time>
      </trkpt>
      <trkpt lat="38.60082" lon="-0.8092">
        <ele>643</ele>
        <time>2022-10-15 12:13:14</time>
      </trkpt>
      <trkpt lat="38.6008" lon="-0.80925">
        <ele>642.6</ele>
        <time>2022-10-15 12:13:15</time>
      </trkpt>
      <trkpt lat="38.60077" lon="-0.80929">
        <ele>642.2</ele>
        <time>2022-10-15 12:13:16</time>
      </trkpt>
      <trkpt lat="38.60075" lon="-0.80932">
        <ele>642</ele>
        <time>2022-10-15 12:13:17</time>
      </trkpt>
      <trkpt lat="38.60074" lon="-0.80935">
        <ele>641.8</ele>
        <time>2022-10-15 12:13:18</time>
      </trkpt>
      <trkpt lat="38.60072" lon="-0.80938">
        <ele>641.6</ele>
        <time>2022-10-15 12:13:19</time>
      </trkpt>
      <trkpt lat="38.6007" lon="-0.80944">
        <ele>641.4</ele>
        <time>2022-10-15 12:13:20</time>
      </trkpt>
      <trkpt lat="38.60069" lon="-0.80948">
        <ele>641.4</ele>
        <time>2022-10-15 12:13:21</time>
      </trkpt>
      <trkpt lat="38.60068" lon="-0.80952">
        <ele>641.2</ele>
        <time>2022-10-15 12:13:22</time>
      </trkpt>
      <trkpt lat="38.60067" lon="-0.80955">
        <ele>641.2</ele>
        <time>2022-10-15 12:13:23</time>
      </trkpt>
      <trkpt lat="38.60066" lon="-0.80959">
        <ele>641.2</ele>
        <time>2022-10-15 12:13:24</time>
      </trkpt>
      <trkpt lat="38.60064" lon="-0.80967">
        <ele>641.2</ele>
        <time>2022-10-15 12:13:26</time>
      </trkpt>
      <trkpt lat="38.60063" lon="-0.80972">
        <ele>641.2</ele>
        <time>2022-10-15 12:13:27</time>
      </trkpt>
      <trkpt lat="38.60061" lon="-0.80976">
        <ele>641.2</ele>
        <time>2022-10-15 12:13:28</time>
      </trkpt>
      <trkpt lat="38.60058" lon="-0.8098">
        <ele>641</ele>
        <time>2022-10-15 12:13:29</time>
      </trkpt>
      <trkpt lat="38.60056" lon="-0.80984">
        <ele>641</ele>
        <time>2022-10-15 12:13:30</time>
      </trkpt>
      <trkpt lat="38.60056" lon="-0.80984">
        <ele>641</ele>
        <time>2022-10-15 12:13:31</time>
      </trkpt>
      <trkpt lat="38.60055" lon="-0.80993">
        <ele>641</ele>
        <time>2022-10-15 12:13:32</time>
      </trkpt>
      <trkpt lat="38.60055" lon="-0.80997">
        <ele>641</ele>
        <time>2022-10-15 12:13:33</time>
      </trkpt>
      <trkpt lat="38.60055" lon="-0.81006">
        <ele>641</ele>
        <time>2022-10-15 12:13:35</time>
      </trkpt>
      <trkpt lat="38.60056" lon="-0.8101">
        <ele>640.8</ele>
        <time>2022-10-15 12:13:37</time>
      </trkpt>
      <trkpt lat="38.60058" lon="-0.81019">
        <ele>640.8</ele>
        <time>2022-10-15 12:13:38</time>
      </trkpt>
      <trkpt lat="38.60059" lon="-0.81023">
        <ele>640.8</ele>
        <time>2022-10-15 12:13:39</time>
      </trkpt>
      <trkpt lat="38.6006" lon="-0.81028">
        <ele>640.6</ele>
        <time>2022-10-15 12:13:40</time>
      </trkpt>
      <trkpt lat="38.60062" lon="-0.81032">
        <ele>640.6</ele>
        <time>2022-10-15 12:13:41</time>
      </trkpt>
      <trkpt lat="38.60063" lon="-0.81036">
        <ele>640.6</ele>
        <time>2022-10-15 12:13:42</time>
      </trkpt>
      <trkpt lat="38.60063" lon="-0.81036">
        <ele>640.6</ele>
        <time>2022-10-15 12:13:43</time>
      </trkpt>
      <trkpt lat="38.60065" lon="-0.81044">
        <ele>640.6</ele>
        <time>2022-10-15 12:13:44</time>
      </trkpt>
      <trkpt lat="38.60067" lon="-0.81047">
        <ele>640.6</ele>
        <time>2022-10-15 12:13:45</time>
      </trkpt>
      <trkpt lat="38.60068" lon="-0.81051">
        <ele>640.8</ele>
        <time>2022-10-15 12:13:46</time>
      </trkpt>
      <trkpt lat="38.60069" lon="-0.81054">
        <ele>640.8</ele>
        <time>2022-10-15 12:13:47</time>
      </trkpt>
      <trkpt lat="38.6007" lon="-0.81057">
        <ele>640.8</ele>
        <time>2022-10-15 12:13:48</time>
      </trkpt>
      <trkpt lat="38.6007" lon="-0.81057">
        <ele>641</ele>
        <time>2022-10-15 12:13:49</time>
      </trkpt>
      <trkpt lat="38.60072" lon="-0.81063">
        <ele>641</ele>
        <time>2022-10-15 12:13:50</time>
      </trkpt>
      <trkpt lat="38.60073" lon="-0.81066">
        <ele>641.2</ele>
        <time>2022-10-15 12:13:51</time>
      </trkpt>
      <trkpt lat="38.60075" lon="-0.81069">
        <ele>641.2</ele>
        <time>2022-10-15 12:13:52</time>
      </trkpt>
      <trkpt lat="38.60077" lon="-0.81072">
        <ele>641.2</ele>
        <time>2022-10-15 12:13:53</time>
      </trkpt>
      <trkpt lat="38.60079" lon="-0.81075">
        <ele>641.2</ele>
        <time>2022-10-15 12:13:54</time>
      </trkpt>
      <trkpt lat="38.60079" lon="-0.81075">
        <ele>641.2</ele>
        <time>2022-10-15 12:13:55</time>
      </trkpt>
      <trkpt lat="38.60083" lon="-0.81082">
        <ele>641.2</ele>
        <time>2022-10-15 12:13:56</time>
      </trkpt>
      <trkpt lat="38.60086" lon="-0.81086">
        <ele>641.2</ele>
        <time>2022-10-15 12:13:57</time>
      </trkpt>
      <trkpt lat="38.60088" lon="-0.81089">
        <ele>641.2</ele>
        <time>2022-10-15 12:13:58</time>
      </trkpt>
      <trkpt lat="38.6009" lon="-0.81093">
        <ele>641.2</ele>
        <time>2022-10-15 12:13:59</time>
      </trkpt>
      <trkpt lat="38.60092" lon="-0.81097">
        <ele>641.2</ele>
        <time>2022-10-15 12:14:00</time>
      </trkpt>
      <trkpt lat="38.60092" lon="-0.81097">
        <ele>641.2</ele>
        <time>2022-10-15 12:14:01</time>
      </trkpt>
      <trkpt lat="38.60097" lon="-0.81105">
        <ele>641.2</ele>
        <time>2022-10-15 12:14:02</time>
      </trkpt>
      <trkpt lat="38.60099" lon="-0.8111">
        <ele>641.2</ele>
        <time>2022-10-15 12:14:03</time>
      </trkpt>
      <trkpt lat="38.601" lon="-0.81115">
        <ele>641.2</ele>
        <time>2022-10-15 12:14:04</time>
      </trkpt>
      <trkpt lat="38.60102" lon="-0.8112">
        <ele>641</ele>
        <time>2022-10-15 12:14:05</time>
      </trkpt>
      <trkpt lat="38.60102" lon="-0.81124">
        <ele>641</ele>
        <time>2022-10-15 12:14:06</time>
      </trkpt>
      <trkpt lat="38.60102" lon="-0.81124">
        <ele>641</ele>
        <time>2022-10-15 12:14:07</time>
      </trkpt>
      <trkpt lat="38.60102" lon="-0.81133">
        <ele>640.6</ele>
        <time>2022-10-15 12:14:08</time>
      </trkpt>
      <trkpt lat="38.601" lon="-0.81138">
        <ele>640.2</ele>
        <time>2022-10-15 12:14:09</time>
      </trkpt>
      <trkpt lat="38.60098" lon="-0.81143">
        <ele>639.8</ele>
        <time>2022-10-15 12:14:10</time>
      </trkpt>
      <trkpt lat="38.60096" lon="-0.81149">
        <ele>639</ele>
        <time>2022-10-15 12:14:11</time>
      </trkpt>
      <trkpt lat="38.60093" lon="-0.81154">
        <ele>638.2</ele>
        <time>2022-10-15 12:14:12</time>
      </trkpt>
      <trkpt lat="38.60093" lon="-0.81154">
        <ele>637.4</ele>
        <time>2022-10-15 12:14:13</time>
      </trkpt>
      <trkpt lat="38.60088" lon="-0.81163">
        <ele>636.8</ele>
        <time>2022-10-15 12:14:14</time>
      </trkpt>
      <trkpt lat="38.60086" lon="-0.81168">
        <ele>636</ele>
        <time>2022-10-15 12:14:15</time>
      </trkpt>
      <trkpt lat="38.60086" lon="-0.81173">
        <ele>635.2</ele>
        <time>2022-10-15 12:14:16</time>
      </trkpt>
      <trkpt lat="38.60086" lon="-0.81179">
        <ele>634.2</ele>
        <time>2022-10-15 12:14:17</time>
      </trkpt>
      <trkpt lat="38.60084" lon="-0.81185">
        <ele>633.4</ele>
        <time>2022-10-15 12:14:18</time>
      </trkpt>
      <trkpt lat="38.60084" lon="-0.81185">
        <ele>632.6</ele>
        <time>2022-10-15 12:14:19</time>
      </trkpt>
      <trkpt lat="38.60079" lon="-0.81196">
        <ele>632.2</ele>
        <time>2022-10-15 12:14:20</time>
      </trkpt>
      <trkpt lat="38.60077" lon="-0.81202">
        <ele>631.8</ele>
        <time>2022-10-15 12:14:21</time>
      </trkpt>
      <trkpt lat="38.60076" lon="-0.81208">
        <ele>631.8</ele>
        <time>2022-10-15 12:14:22</time>
      </trkpt>
      <trkpt lat="38.60075" lon="-0.81213">
        <ele>631.6</ele>
        <time>2022-10-15 12:14:23</time>
      </trkpt>
      <trkpt lat="38.60075" lon="-0.81219">
        <ele>631.4</ele>
        <time>2022-10-15 12:14:24</time>
      </trkpt>
      <trkpt lat="38.60075" lon="-0.81219">
        <ele>630.6</ele>
        <time>2022-10-15 12:14:25</time>
      </trkpt>
      <trkpt lat="38.60079" lon="-0.8123">
        <ele>629.8</ele>
        <time>2022-10-15 12:14:26</time>
      </trkpt>
      <trkpt lat="38.60081" lon="-0.81236">
        <ele>629.4</ele>
        <time>2022-10-15 12:14:27</time>
      </trkpt>
      <trkpt lat="38.60086" lon="-0.81248">
        <ele>628.8</ele>
        <time>2022-10-15 12:14:29</time>
      </trkpt>
      <trkpt lat="38.60089" lon="-0.81253">
        <ele>628.6</ele>
        <time>2022-10-15 12:14:30</time>
      </trkpt>
      <trkpt lat="38.60089" lon="-0.81253">
        <ele>628.6</ele>
        <time>2022-10-15 12:14:31</time>
      </trkpt>
      <trkpt lat="38.60097" lon="-0.81269">
        <ele>627.8</ele>
        <time>2022-10-15 12:14:33</time>
      </trkpt>
      <trkpt lat="38.601" lon="-0.81275">
        <ele>627</ele>
        <time>2022-10-15 12:14:34</time>
      </trkpt>
      <trkpt lat="38.60103" lon="-0.8128">
        <ele>626.6</ele>
        <time>2022-10-15 12:14:35</time>
      </trkpt>
      <trkpt lat="38.60105" lon="-0.81286">
        <ele>626.4</ele>
        <time>2022-10-15 12:14:36</time>
      </trkpt>
      <trkpt lat="38.60105" lon="-0.81286">
        <ele>626.2</ele>
        <time>2022-10-15 12:14:37</time>
      </trkpt>
      <trkpt lat="38.60108" lon="-0.81298">
        <ele>626</ele>
        <time>2022-10-15 12:14:38</time>
      </trkpt>
      <trkpt lat="38.6011" lon="-0.81305">
        <ele>625.8</ele>
        <time>2022-10-15 12:14:39</time>
      </trkpt>
      <trkpt lat="38.60111" lon="-0.8131">
        <ele>625.6</ele>
        <time>2022-10-15 12:14:40</time>
      </trkpt>
      <trkpt lat="38.60112" lon="-0.81314">
        <ele>625.4</ele>
        <time>2022-10-15 12:14:41</time>
      </trkpt>
      <trkpt lat="38.60114" lon="-0.81319">
        <ele>624.8</ele>
        <time>2022-10-15 12:14:42</time>
      </trkpt>
      <trkpt lat="38.60115" lon="-0.81327">
        <ele>624.2</ele>
        <time>2022-10-15 12:14:44</time>
      </trkpt>
      <trkpt lat="38.60114" lon="-0.8133">
        <ele>623.4</ele>
        <time>2022-10-15 12:14:45</time>
      </trkpt>
      <trkpt lat="38.60113" lon="-0.81333">
        <ele>623</ele>
        <time>2022-10-15 12:14:46</time>
      </trkpt>
      <trkpt lat="38.60112" lon="-0.81335">
        <ele>622.4</ele>
        <time>2022-10-15 12:14:48</time>
      </trkpt>
      <trkpt lat="38.6011" lon="-0.81338">
        <ele>622</ele>
        <time>2022-10-15 12:14:49</time>
      </trkpt>
      <trkpt lat="38.60109" lon="-0.8134">
        <ele>621.6</ele>
        <time>2022-10-15 12:14:50</time>
      </trkpt>
      <trkpt lat="38.60108" lon="-0.81343">
        <ele>620.6</ele>
        <time>2022-10-15 12:14:51</time>
      </trkpt>
      <trkpt lat="38.60107" lon="-0.81345">
        <ele>620.6</ele>
        <time>2022-10-15 12:14:52</time>
      </trkpt>
      <trkpt lat="38.60106" lon="-0.81348">
        <ele>620.4</ele>
        <time>2022-10-15 12:14:53</time>
      </trkpt>
      <trkpt lat="38.60105" lon="-0.8135">
        <ele>620.4</ele>
        <time>2022-10-15 12:14:54</time>
      </trkpt>
      <trkpt lat="38.60102" lon="-0.81355">
        <ele>620.4</ele>
        <time>2022-10-15 12:14:56</time>
      </trkpt>
      <trkpt lat="38.60101" lon="-0.81358">
        <ele>620.4</ele>
        <time>2022-10-15 12:14:57</time>
      </trkpt>
      <trkpt lat="38.601" lon="-0.8136">
        <ele>620.4</ele>
        <time>2022-10-15 12:14:58</time>
      </trkpt>
      <trkpt lat="38.60099" lon="-0.81363">
        <ele>620.4</ele>
        <time>2022-10-15 12:14:59</time>
      </trkpt>
      <trkpt lat="38.60096" lon="-0.81368">
        <ele>620.4</ele>
        <time>2022-10-15 12:15:00</time>
      </trkpt>
      <trkpt lat="38.60096" lon="-0.81368">
        <ele>620.6</ele>
        <time>2022-10-15 12:15:01</time>
      </trkpt>
      <trkpt lat="38.60094" lon="-0.81373">
        <ele>620.8</ele>
        <time>2022-10-15 12:15:02</time>
      </trkpt>
      <trkpt lat="38.60094" lon="-0.81373">
        <ele>621</ele>
        <time>2022-10-15 12:15:03</time>
      </trkpt>
      <trkpt lat="38.60093" lon="-0.81375">
        <ele>621</ele>
        <time>2022-10-15 12:15:04</time>
      </trkpt>
      <trkpt lat="38.60091" lon="-0.8138">
        <ele>621.2</ele>
        <time>2022-10-15 12:15:05</time>
      </trkpt>
      <trkpt lat="38.6009" lon="-0.81383">
        <ele>621.2</ele>
        <time>2022-10-15 12:15:06</time>
      </trkpt>
      <trkpt lat="38.6009" lon="-0.81383">
        <ele>621.4</ele>
        <time>2022-10-15 12:15:07</time>
      </trkpt>
      <trkpt lat="38.60089" lon="-0.8139">
        <ele>621.4</ele>
        <time>2022-10-15 12:15:08</time>
      </trkpt>
      <trkpt lat="38.60088" lon="-0.81393">
        <ele>621.6</ele>
        <time>2022-10-15 12:15:09</time>
      </trkpt>
      <trkpt lat="38.60088" lon="-0.81396">
        <ele>621.6</ele>
        <time>2022-10-15 12:15:10</time>
      </trkpt>
      <trkpt lat="38.60087" lon="-0.814">
        <ele>621.8</ele>
        <time>2022-10-15 12:15:11</time>
      </trkpt>
      <trkpt lat="38.60087" lon="-0.81403">
        <ele>621.8</ele>
        <time>2022-10-15 12:15:12</time>
      </trkpt>
      <trkpt lat="38.60087" lon="-0.81403">
        <ele>622</ele>
        <time>2022-10-15 12:15:13</time>
      </trkpt>
      <trkpt lat="38.60086" lon="-0.81409">
        <ele>622.2</ele>
        <time>2022-10-15 12:15:14</time>
      </trkpt>
      <trkpt lat="38.60085" lon="-0.81412">
        <ele>622.2</ele>
        <time>2022-10-15 12:15:15</time>
      </trkpt>
      <trkpt lat="38.60085" lon="-0.81416">
        <ele>622.4</ele>
        <time>2022-10-15 12:15:16</time>
      </trkpt>
      <trkpt lat="38.60084" lon="-0.81419">
        <ele>622.6</ele>
        <time>2022-10-15 12:15:17</time>
      </trkpt>
      <trkpt lat="38.60083" lon="-0.81421">
        <ele>622.6</ele>
        <time>2022-10-15 12:15:18</time>
      </trkpt>
      <trkpt lat="38.60083" lon="-0.81421">
        <ele>622.8</ele>
        <time>2022-10-15 12:15:19</time>
      </trkpt>
      <trkpt lat="38.60081" lon="-0.81425">
        <ele>623</ele>
        <time>2022-10-15 12:15:20</time>
      </trkpt>
      <trkpt lat="38.6008" lon="-0.81426">
        <ele>623</ele>
        <time>2022-10-15 12:15:21</time>
      </trkpt>
      <trkpt lat="38.60079" lon="-0.81427">
        <ele>623</ele>
        <time>2022-10-15 12:15:22</time>
      </trkpt>
      <trkpt lat="38.60078" lon="-0.81429">
        <ele>623.2</ele>
        <time>2022-10-15 12:15:23</time>
      </trkpt>
      <trkpt lat="38.60077" lon="-0.8143">
        <ele>623.2</ele>
        <time>2022-10-15 12:15:24</time>
      </trkpt>
      <trkpt lat="38.60077" lon="-0.8143">
        <ele>623.2</ele>
        <time>2022-10-15 12:15:25</time>
      </trkpt>
      <trkpt lat="38.60076" lon="-0.81432">
        <ele>623.4</ele>
        <time>2022-10-15 12:15:26</time>
      </trkpt>
      <trkpt lat="38.60076" lon="-0.81433">
        <ele>623.6</ele>
        <time>2022-10-15 12:15:27</time>
      </trkpt>
      <trkpt lat="38.60075" lon="-0.81435">
        <ele>623.8</ele>
        <time>2022-10-15 12:15:28</time>
      </trkpt>
      <trkpt lat="38.60075" lon="-0.81436">
        <ele>624</ele>
        <time>2022-10-15 12:15:29</time>
      </trkpt>
      <trkpt lat="38.60075" lon="-0.81437">
        <ele>624</ele>
        <time>2022-10-15 12:15:30</time>
      </trkpt>
      <trkpt lat="38.60075" lon="-0.81437">
        <ele>624.2</ele>
        <time>2022-10-15 12:15:31</time>
      </trkpt>
      <trkpt lat="38.60075" lon="-0.8144">
        <ele>624.4</ele>
        <time>2022-10-15 12:15:32</time>
      </trkpt>
      <trkpt lat="38.60075" lon="-0.81442">
        <ele>624.4</ele>
        <time>2022-10-15 12:15:33</time>
      </trkpt>
      <trkpt lat="38.60075" lon="-0.81443">
        <ele>624.6</ele>
        <time>2022-10-15 12:15:34</time>
      </trkpt>
      <trkpt lat="38.60074" lon="-0.81446">
        <ele>625</ele>
        <time>2022-10-15 12:15:35</time>
      </trkpt>
      <trkpt lat="38.60074" lon="-0.81448">
        <ele>625</ele>
        <time>2022-10-15 12:15:36</time>
      </trkpt>
      <trkpt lat="38.60074" lon="-0.81448">
        <ele>625</ele>
        <time>2022-10-15 12:15:37</time>
      </trkpt>
      <trkpt lat="38.60073" lon="-0.81452">
        <ele>625.2</ele>
        <time>2022-10-15 12:15:38</time>
      </trkpt>
      <trkpt lat="38.60073" lon="-0.81454">
        <ele>625.2</ele>
        <time>2022-10-15 12:15:39</time>
      </trkpt>
      <trkpt lat="38.60072" lon="-0.81456">
        <ele>625.4</ele>
        <time>2022-10-15 12:15:40</time>
      </trkpt>
      <trkpt lat="38.60071" lon="-0.81457">
        <ele>625.4</ele>
        <time>2022-10-15 12:15:41</time>
      </trkpt>
      <trkpt lat="38.6007" lon="-0.81458">
        <ele>625.4</ele>
        <time>2022-10-15 12:15:42</time>
      </trkpt>
      <trkpt lat="38.6007" lon="-0.81458">
        <ele>625.4</ele>
        <time>2022-10-15 12:15:43</time>
      </trkpt>
      <trkpt lat="38.60068" lon="-0.8146">
        <ele>625.4</ele>
        <time>2022-10-15 12:15:44</time>
      </trkpt>
      <trkpt lat="38.60068" lon="-0.81462">
        <ele>625.4</ele>
        <time>2022-10-15 12:15:45</time>
      </trkpt>
      <trkpt lat="38.60067" lon="-0.81463">
        <ele>625.6</ele>
        <time>2022-10-15 12:15:46</time>
      </trkpt>
      <trkpt lat="38.60067" lon="-0.81464">
        <ele>625.6</ele>
        <time>2022-10-15 12:15:47</time>
      </trkpt>
      <trkpt lat="38.60067" lon="-0.81464">
        <ele>625.8</ele>
        <time>2022-10-15 12:15:48</time>
      </trkpt>
      <trkpt lat="38.60067" lon="-0.81464">
        <ele>626</ele>
        <time>2022-10-15 12:15:49</time>
      </trkpt>
      <trkpt lat="38.60074" lon="-0.8144">
        <ele>625.6</ele>
        <time>2022-10-15 12:17:06</time>
      </trkpt>
      <trkpt lat="38.60074" lon="-0.8144">
        <ele>625.6</ele>
        <time>2022-10-15 12:17:07</time>
      </trkpt>
      <trkpt lat="38.60074" lon="-0.81437">
        <ele>625.6</ele>
        <time>2022-10-15 12:17:08</time>
      </trkpt>
      <trkpt lat="38.60074" lon="-0.81436">
        <ele>625.6</ele>
        <time>2022-10-15 12:17:09</time>
      </trkpt>
      <trkpt lat="38.60075" lon="-0.81436">
        <ele>625.6</ele>
        <time>2022-10-15 12:17:10</time>
      </trkpt>
      <trkpt lat="38.60078" lon="-0.81428">
        <ele>625</ele>
        <time>2022-10-15 12:17:17</time>
      </trkpt>
      <trkpt lat="38.60079" lon="-0.81426">
        <ele>625</ele>
        <time>2022-10-15 12:17:18</time>
      </trkpt>
      <trkpt lat="38.60079" lon="-0.81426">
        <ele>625</ele>
        <time>2022-10-15 12:17:19</time>
      </trkpt>
      <trkpt lat="38.60083" lon="-0.81419">
        <ele>624.8</ele>
        <time>2022-10-15 12:17:21</time>
      </trkpt>
      <trkpt lat="38.60085" lon="-0.81418">
        <ele>624.8</ele>
        <time>2022-10-15 12:17:22</time>
      </trkpt>
      <trkpt lat="38.60086" lon="-0.81416">
        <ele>624.8</ele>
        <time>2022-10-15 12:17:23</time>
      </trkpt>
      <trkpt lat="38.60086" lon="-0.81414">
        <ele>624.8</ele>
        <time>2022-10-15 12:17:24</time>
      </trkpt>
      <trkpt lat="38.60086" lon="-0.81414">
        <ele>624.6</ele>
        <time>2022-10-15 12:17:25</time>
      </trkpt>
      <trkpt lat="38.60088" lon="-0.81409">
        <ele>624.4</ele>
        <time>2022-10-15 12:17:26</time>
      </trkpt>
      <trkpt lat="38.60089" lon="-0.81406">
        <ele>624</ele>
        <time>2022-10-15 12:17:27</time>
      </trkpt>
      <trkpt lat="38.60089" lon="-0.81404">
        <ele>623.8</ele>
        <time>2022-10-15 12:17:28</time>
      </trkpt>
      <trkpt lat="38.6009" lon="-0.81401">
        <ele>623.6</ele>
        <time>2022-10-15 12:17:29</time>
      </trkpt>
      <trkpt lat="38.6009" lon="-0.81398">
        <ele>623.4</ele>
        <time>2022-10-15 12:17:30</time>
      </trkpt>
      <trkpt lat="38.6009" lon="-0.81398">
        <ele>623</ele>
        <time>2022-10-15 12:17:31</time>
      </trkpt>
      <trkpt lat="38.60091" lon="-0.81391">
        <ele>622.8</ele>
        <time>2022-10-15 12:17:32</time>
      </trkpt>
      <trkpt lat="38.60091" lon="-0.81388">
        <ele>622.8</ele>
        <time>2022-10-15 12:17:33</time>
      </trkpt>
      <trkpt lat="38.60092" lon="-0.81385">
        <ele>622.6</ele>
        <time>2022-10-15 12:17:34</time>
      </trkpt>
      <trkpt lat="38.60093" lon="-0.81381">
        <ele>622.4</ele>
        <time>2022-10-15 12:17:35</time>
      </trkpt>
      <trkpt lat="38.60094" lon="-0.81377">
        <ele>622.4</ele>
        <time>2022-10-15 12:17:36</time>
      </trkpt>
      <trkpt lat="38.60094" lon="-0.81377">
        <ele>622.2</ele>
        <time>2022-10-15 12:17:37</time>
      </trkpt>
      <trkpt lat="38.60096" lon="-0.8137">
        <ele>621.8</ele>
        <time>2022-10-15 12:17:38</time>
      </trkpt>
      <trkpt lat="38.60097" lon="-0.81366">
        <ele>621.6</ele>
        <time>2022-10-15 12:17:39</time>
      </trkpt>
      <trkpt lat="38.60099" lon="-0.81363">
        <ele>621.4</ele>
        <time>2022-10-15 12:17:40</time>
      </trkpt>
      <trkpt lat="38.601" lon="-0.81359">
        <ele>621.2</ele>
        <time>2022-10-15 12:17:41</time>
      </trkpt>
      <trkpt lat="38.60101" lon="-0.81355">
        <ele>621</ele>
        <time>2022-10-15 12:17:42</time>
      </trkpt>
      <trkpt lat="38.60101" lon="-0.81355">
        <ele>620.8</ele>
        <time>2022-10-15 12:17:43</time>
      </trkpt>
      <trkpt lat="38.60104" lon="-0.81348">
        <ele>620.6</ele>
        <time>2022-10-15 12:17:44</time>
      </trkpt>
      <trkpt lat="38.60105" lon="-0.81345">
        <ele>620.6</ele>
        <time>2022-10-15 12:17:45</time>
      </trkpt>
      <trkpt lat="38.60107" lon="-0.81339">
        <ele>620.4</ele>
        <time>2022-10-15 12:17:47</time>
      </trkpt>
      <trkpt lat="38.60108" lon="-0.81336">
        <ele>620.4</ele>
        <time>2022-10-15 12:17:48</time>
      </trkpt>
      <trkpt lat="38.60108" lon="-0.81336">
        <ele>620.4</ele>
        <time>2022-10-15 12:17:49</time>
      </trkpt>
      <trkpt lat="38.6011" lon="-0.81331">
        <ele>620.4</ele>
        <time>2022-10-15 12:17:50</time>
      </trkpt>
      <trkpt lat="38.60112" lon="-0.81329">
        <ele>620.4</ele>
        <time>2022-10-15 12:17:51</time>
      </trkpt>
      <trkpt lat="38.60113" lon="-0.81326">
        <ele>620.4</ele>
        <time>2022-10-15 12:17:52</time>
      </trkpt>
      <trkpt lat="38.60114" lon="-0.81323">
        <ele>620.4</ele>
        <time>2022-10-15 12:17:53</time>
      </trkpt>
      <trkpt lat="38.60115" lon="-0.81321">
        <ele>620.2</ele>
        <time>2022-10-15 12:17:54</time>
      </trkpt>
      <trkpt lat="38.60115" lon="-0.81321">
        <ele>620.2</ele>
        <time>2022-10-15 12:17:55</time>
      </trkpt>
      <trkpt lat="38.60115" lon="-0.81319">
        <ele>620.2</ele>
        <time>2022-10-15 12:17:56</time>
      </trkpt>
      <trkpt lat="38.60116" lon="-0.81318">
        <ele>620</ele>
        <time>2022-10-15 12:17:57</time>
      </trkpt>
      <trkpt lat="38.60117" lon="-0.81319">
        <ele>620</ele>
        <time>2022-10-15 12:17:58</time>
      </trkpt>
      <trkpt lat="38.60119" lon="-0.8132">
        <ele>620</ele>
        <time>2022-10-15 12:17:59</time>
      </trkpt>
      <trkpt lat="38.6012" lon="-0.81322">
        <ele>620</ele>
        <time>2022-10-15 12:18:00</time>
      </trkpt>
      <trkpt lat="38.6012" lon="-0.81322">
        <ele>619.8</ele>
        <time>2022-10-15 12:18:01</time>
      </trkpt>
      <trkpt lat="38.60124" lon="-0.8133">
        <ele>619.8</ele>
        <time>2022-10-15 12:18:02</time>
      </trkpt>
      <trkpt lat="38.60127" lon="-0.81334">
        <ele>619.8</ele>
        <time>2022-10-15 12:18:03</time>
      </trkpt>
      <trkpt lat="38.6013" lon="-0.81337">
        <ele>619.8</ele>
        <time>2022-10-15 12:18:04</time>
      </trkpt>
      <trkpt lat="38.60134" lon="-0.81341">
        <ele>619.6</ele>
        <time>2022-10-15 12:18:05</time>
      </trkpt>
      <trkpt lat="38.60138" lon="-0.81345">
        <ele>619.6</ele>
        <time>2022-10-15 12:18:06</time>
      </trkpt>
      <trkpt lat="38.60138" lon="-0.81345">
        <ele>619.4</ele>
        <time>2022-10-15 12:18:07</time>
      </trkpt>
      <trkpt lat="38.60146" lon="-0.81352">
        <ele>618.8</ele>
        <time>2022-10-15 12:18:08</time>
      </trkpt>
      <trkpt lat="38.60149" lon="-0.81355">
        <ele>618.2</ele>
        <time>2022-10-15 12:18:09</time>
      </trkpt>
      <trkpt lat="38.60153" lon="-0.81358">
        <ele>617.8</ele>
        <time>2022-10-15 12:18:10</time>
      </trkpt>
      <trkpt lat="38.60156" lon="-0.8136">
        <ele>617.2</ele>
        <time>2022-10-15 12:18:11</time>
      </trkpt>
      <trkpt lat="38.60158" lon="-0.81363">
        <ele>616.8</ele>
        <time>2022-10-15 12:18:12</time>
      </trkpt>
      <trkpt lat="38.60158" lon="-0.81363">
        <ele>616.2</ele>
        <time>2022-10-15 12:18:13</time>
      </trkpt>
      <trkpt lat="38.60164" lon="-0.81367">
        <ele>615.4</ele>
        <time>2022-10-15 12:18:14</time>
      </trkpt>
      <trkpt lat="38.60166" lon="-0.8137">
        <ele>614.8</ele>
        <time>2022-10-15 12:18:15</time>
      </trkpt>
      <trkpt lat="38.6017" lon="-0.81373">
        <ele>614.4</ele>
        <time>2022-10-15 12:18:16</time>
      </trkpt>
      <trkpt lat="38.60173" lon="-0.81377">
        <ele>614</ele>
        <time>2022-10-15 12:18:17</time>
      </trkpt>
      <trkpt lat="38.60176" lon="-0.81381">
        <ele>613.6</ele>
        <time>2022-10-15 12:18:18</time>
      </trkpt>
      <trkpt lat="38.60176" lon="-0.81381">
        <ele>613.4</ele>
        <time>2022-10-15 12:18:19</time>
      </trkpt>
      <trkpt lat="38.6018" lon="-0.81386">
        <ele>613.2</ele>
        <time>2022-10-15 12:18:20</time>
      </trkpt>
      <trkpt lat="38.60183" lon="-0.81392">
        <ele>613</ele>
        <time>2022-10-15 12:18:21</time>
      </trkpt>
      <trkpt lat="38.60186" lon="-0.81398">
        <ele>612.6</ele>
        <time>2022-10-15 12:18:22</time>
      </trkpt>
      <trkpt lat="38.6019" lon="-0.81402">
        <ele>612.2</ele>
        <time>2022-10-15 12:18:23</time>
      </trkpt>
      <trkpt lat="38.60193" lon="-0.81406">
        <ele>612</ele>
        <time>2022-10-15 12:18:24</time>
      </trkpt>
      <trkpt lat="38.60196" lon="-0.81409">
        <ele>611.6</ele>
        <time>2022-10-15 12:18:25</time>
      </trkpt>
      <trkpt lat="38.60199" lon="-0.81411">
        <ele>611.2</ele>
        <time>2022-10-15 12:18:26</time>
      </trkpt>
      <trkpt lat="38.60201" lon="-0.81412">
        <ele>610.8</ele>
        <time>2022-10-15 12:18:27</time>
      </trkpt>
      <trkpt lat="38.60204" lon="-0.81413">
        <ele>610.2</ele>
        <time>2022-10-15 12:18:28</time>
      </trkpt>
      <trkpt lat="38.60206" lon="-0.81414">
        <ele>609.2</ele>
        <time>2022-10-15 12:18:29</time>
      </trkpt>
      <trkpt lat="38.60207" lon="-0.81414">
        <ele>608.6</ele>
        <time>2022-10-15 12:18:30</time>
      </trkpt>
      <trkpt lat="38.60207" lon="-0.81414">
        <ele>608.2</ele>
        <time>2022-10-15 12:18:31</time>
      </trkpt>
      <trkpt lat="38.60198" lon="-0.81412">
        <ele>607.4</ele>
        <time>2022-10-15 12:18:52</time>
      </trkpt>
      <trkpt lat="38.60196" lon="-0.81411">
        <ele>607.4</ele>
        <time>2022-10-15 12:18:53</time>
      </trkpt>
      <trkpt lat="38.60194" lon="-0.81409">
        <ele>607.4</ele>
        <time>2022-10-15 12:18:54</time>
      </trkpt>
      <trkpt lat="38.60194" lon="-0.81409">
        <ele>607.4</ele>
        <time>2022-10-15 12:18:55</time>
      </trkpt>
      <trkpt lat="38.60191" lon="-0.81406">
        <ele>607.4</ele>
        <time>2022-10-15 12:18:56</time>
      </trkpt>
      <trkpt lat="38.6019" lon="-0.81404">
        <ele>607.4</ele>
        <time>2022-10-15 12:18:57</time>
      </trkpt>
      <trkpt lat="38.60188" lon="-0.81401">
        <ele>607.4</ele>
        <time>2022-10-15 12:18:58</time>
      </trkpt>
      <trkpt lat="38.60186" lon="-0.81399">
        <ele>607.4</ele>
        <time>2022-10-15 12:18:59</time>
      </trkpt>
      <trkpt lat="38.60185" lon="-0.81397">
        <ele>607.4</ele>
        <time>2022-10-15 12:19:00</time>
      </trkpt>
      <trkpt lat="38.60185" lon="-0.81397">
        <ele>607.4</ele>
        <time>2022-10-15 12:19:01</time>
      </trkpt>
      <trkpt lat="38.60182" lon="-0.81392">
        <ele>607.4</ele>
        <time>2022-10-15 12:19:02</time>
      </trkpt>
      <trkpt lat="38.60181" lon="-0.8139">
        <ele>607.6</ele>
        <time>2022-10-15 12:19:03</time>
      </trkpt>
      <trkpt lat="38.6018" lon="-0.81388">
        <ele>607.8</ele>
        <time>2022-10-15 12:19:04</time>
      </trkpt>
      <trkpt lat="38.60178" lon="-0.81386">
        <ele>608.2</ele>
        <time>2022-10-15 12:19:05</time>
      </trkpt>
      <trkpt lat="38.60177" lon="-0.81383">
        <ele>608.2</ele>
        <time>2022-10-15 12:19:06</time>
      </trkpt>
      <trkpt lat="38.60177" lon="-0.81383">
        <ele>608.2</ele>
        <time>2022-10-15 12:19:07</time>
      </trkpt>
      <trkpt lat="38.60174" lon="-0.81379">
        <ele>608.2</ele>
        <time>2022-10-15 12:19:08</time>
      </trkpt>
      <trkpt lat="38.60172" lon="-0.81377">
        <ele>608.4</ele>
        <time>2022-10-15 12:19:09</time>
      </trkpt>
      <trkpt lat="38.6017" lon="-0.81375">
        <ele>608.4</ele>
        <time>2022-10-15 12:19:10</time>
      </trkpt>
      <trkpt lat="38.60167" lon="-0.81371">
        <ele>608.8</ele>
        <time>2022-10-15 12:19:12</time>
      </trkpt>
      <trkpt lat="38.60167" lon="-0.81371">
        <ele>609</ele>
        <time>2022-10-15 12:19:13</time>
      </trkpt>
      <trkpt lat="38.60162" lon="-0.81368">
        <ele>609.4</ele>
        <time>2022-10-15 12:19:14</time>
      </trkpt>
      <trkpt lat="38.60161" lon="-0.81366">
        <ele>609.4</ele>
        <time>2022-10-15 12:19:15</time>
      </trkpt>
      <trkpt lat="38.60159" lon="-0.81364">
        <ele>609.6</ele>
        <time>2022-10-15 12:19:16</time>
      </trkpt>
      <trkpt lat="38.60157" lon="-0.81363">
        <ele>609.8</ele>
        <time>2022-10-15 12:19:17</time>
      </trkpt>
      <trkpt lat="38.60155" lon="-0.81361">
        <ele>610</ele>
        <time>2022-10-15 12:19:19</time>
      </trkpt>
      <trkpt lat="38.60151" lon="-0.81358">
        <ele>610.2</ele>
        <time>2022-10-15 12:19:20</time>
      </trkpt>
      <trkpt lat="38.60149" lon="-0.81357">
        <ele>610.4</ele>
        <time>2022-10-15 12:19:21</time>
      </trkpt>
      <trkpt lat="38.60147" lon="-0.81354">
        <ele>610.4</ele>
        <time>2022-10-15 12:19:22</time>
      </trkpt>
      <trkpt lat="38.60145" lon="-0.81352">
        <ele>610.6</ele>
        <time>2022-10-15 12:19:23</time>
      </trkpt>
      <trkpt lat="38.60143" lon="-0.81351">
        <ele>611</ele>
        <time>2022-10-15 12:19:24</time>
      </trkpt>
      <trkpt lat="38.60143" lon="-0.81351">
        <ele>611.2</ele>
        <time>2022-10-15 12:19:25</time>
      </trkpt>
      <trkpt lat="38.60139" lon="-0.81347">
        <ele>611.4</ele>
        <time>2022-10-15 12:19:26</time>
      </trkpt>
      <trkpt lat="38.60137" lon="-0.81345">
        <ele>611.8</ele>
        <time>2022-10-15 12:19:27</time>
      </trkpt>
      <trkpt lat="38.60135" lon="-0.81343">
        <ele>612.2</ele>
        <time>2022-10-15 12:19:28</time>
      </trkpt>
      <trkpt lat="38.60133" lon="-0.81341">
        <ele>612.8</ele>
        <time>2022-10-15 12:19:29</time>
      </trkpt>
      <trkpt lat="38.60131" lon="-0.81339">
        <ele>613.4</ele>
        <time>2022-10-15 12:19:30</time>
      </trkpt>
      <trkpt lat="38.60131" lon="-0.81339">
        <ele>613.6</ele>
        <time>2022-10-15 12:19:31</time>
      </trkpt>
      <trkpt lat="38.60127" lon="-0.81335">
        <ele>614</ele>
        <time>2022-10-15 12:19:32</time>
      </trkpt>
      <trkpt lat="38.60125" lon="-0.81332">
        <ele>614.2</ele>
        <time>2022-10-15 12:19:33</time>
      </trkpt>
      <trkpt lat="38.60124" lon="-0.8133">
        <ele>614.4</ele>
        <time>2022-10-15 12:19:34</time>
      </trkpt>
      <trkpt lat="38.60123" lon="-0.81327">
        <ele>614.8</ele>
        <time>2022-10-15 12:19:35</time>
      </trkpt>
      <trkpt lat="38.60121" lon="-0.81325">
        <ele>615</ele>
        <time>2022-10-15 12:19:36</time>
      </trkpt>
      <trkpt lat="38.60121" lon="-0.81325">
        <ele>615.4</ele>
        <time>2022-10-15 12:19:37</time>
      </trkpt>
      <trkpt lat="38.60118" lon="-0.81321">
        <ele>615.8</ele>
        <time>2022-10-15 12:19:38</time>
      </trkpt>
      <trkpt lat="38.60117" lon="-0.81319">
        <ele>616.2</ele>
        <time>2022-10-15 12:19:39</time>
      </trkpt>
      <trkpt lat="38.60116" lon="-0.81317">
        <ele>616.6</ele>
        <time>2022-10-15 12:19:40</time>
      </trkpt>
      <trkpt lat="38.60116" lon="-0.81314">
        <ele>617</ele>
        <time>2022-10-15 12:19:41</time>
      </trkpt>
      <trkpt lat="38.60115" lon="-0.8131">
        <ele>617.4</ele>
        <time>2022-10-15 12:19:42</time>
      </trkpt>
      <trkpt lat="38.60115" lon="-0.8131">
        <ele>617.6</ele>
        <time>2022-10-15 12:19:43</time>
      </trkpt>
      <trkpt lat="38.60116" lon="-0.81303">
        <ele>617.8</ele>
        <time>2022-10-15 12:19:44</time>
      </trkpt>
      <trkpt lat="38.60117" lon="-0.81299">
        <ele>618.2</ele>
        <time>2022-10-15 12:19:45</time>
      </trkpt>
      <trkpt lat="38.60118" lon="-0.81296">
        <ele>618.4</ele>
        <time>2022-10-15 12:19:46</time>
      </trkpt>
      <trkpt lat="38.60119" lon="-0.81292">
        <ele>618.8</ele>
        <time>2022-10-15 12:19:47</time>
      </trkpt>
      <trkpt lat="38.60121" lon="-0.81289">
        <ele>619.2</ele>
        <time>2022-10-15 12:19:48</time>
      </trkpt>
      <trkpt lat="38.60121" lon="-0.81289">
        <ele>619.4</ele>
        <time>2022-10-15 12:19:49</time>
      </trkpt>
      <trkpt lat="38.60124" lon="-0.81281">
        <ele>619.6</ele>
        <time>2022-10-15 12:19:50</time>
      </trkpt>
      <trkpt lat="38.60126" lon="-0.81277">
        <ele>619.6</ele>
        <time>2022-10-15 12:19:51</time>
      </trkpt>
      <trkpt lat="38.60129" lon="-0.81273">
        <ele>619.6</ele>
        <time>2022-10-15 12:19:52</time>
      </trkpt>
      <trkpt lat="38.60131" lon="-0.81269">
        <ele>619.6</ele>
        <time>2022-10-15 12:19:53</time>
      </trkpt>
      <trkpt lat="38.60134" lon="-0.81265">
        <ele>619.6</ele>
        <time>2022-10-15 12:19:54</time>
      </trkpt>
      <trkpt lat="38.60134" lon="-0.81265">
        <ele>619.6</ele>
        <time>2022-10-15 12:19:55</time>
      </trkpt>
      <trkpt lat="38.60138" lon="-0.81256">
        <ele>619.6</ele>
        <time>2022-10-15 12:19:56</time>
      </trkpt>
      <trkpt lat="38.60141" lon="-0.81252">
        <ele>619.6</ele>
        <time>2022-10-15 12:19:57</time>
      </trkpt>
      <trkpt lat="38.60143" lon="-0.81248">
        <ele>619.4</ele>
        <time>2022-10-15 12:19:58</time>
      </trkpt>
      <trkpt lat="38.60146" lon="-0.81244">
        <ele>619</ele>
        <time>2022-10-15 12:19:59</time>
      </trkpt>
      <trkpt lat="38.60149" lon="-0.8124">
        <ele>618.6</ele>
        <time>2022-10-15 12:20:00</time>
      </trkpt>
      <trkpt lat="38.60149" lon="-0.8124">
        <ele>618.4</ele>
        <time>2022-10-15 12:20:01</time>
      </trkpt>
      <trkpt lat="38.60155" lon="-0.81231">
        <ele>618.2</ele>
        <time>2022-10-15 12:20:02</time>
      </trkpt>
      <trkpt lat="38.60158" lon="-0.81226">
        <ele>618</ele>
        <time>2022-10-15 12:20:03</time>
      </trkpt>
      <trkpt lat="38.60162" lon="-0.81222">
        <ele>617.8</ele>
        <time>2022-10-15 12:20:04</time>
      </trkpt>
      <trkpt lat="38.60162" lon="-0.81222">
        <ele>617.6</ele>
        <time>2022-10-15 12:20:05</time>
      </trkpt>
      <trkpt lat="38.60165" lon="-0.81217">
        <ele>617.6</ele>
        <time>2022-10-15 12:20:06</time>
      </trkpt>
      <trkpt lat="38.60168" lon="-0.81212">
        <ele>617.6</ele>
        <time>2022-10-15 12:20:07</time>
      </trkpt>
      <trkpt lat="38.6017" lon="-0.81207">
        <ele>617.4</ele>
        <time>2022-10-15 12:20:08</time>
      </trkpt>
      <trkpt lat="38.60173" lon="-0.81204">
        <ele>617.2</ele>
        <time>2022-10-15 12:20:09</time>
      </trkpt>
      <trkpt lat="38.60175" lon="-0.812">
        <ele>617.2</ele>
        <time>2022-10-15 12:20:10</time>
      </trkpt>
      <trkpt lat="38.60178" lon="-0.81197">
        <ele>617</ele>
        <time>2022-10-15 12:20:11</time>
      </trkpt>
      <trkpt lat="38.60181" lon="-0.81196">
        <ele>617</ele>
        <time>2022-10-15 12:20:12</time>
      </trkpt>
      <trkpt lat="38.60184" lon="-0.81195">
        <ele>616.8</ele>
        <time>2022-10-15 12:20:13</time>
      </trkpt>
      <trkpt lat="38.60187" lon="-0.81196">
        <ele>616.8</ele>
        <time>2022-10-15 12:20:14</time>
      </trkpt>
      <trkpt lat="38.6019" lon="-0.81197">
        <ele>616.8</ele>
        <time>2022-10-15 12:20:15</time>
      </trkpt>
      <trkpt lat="38.60193" lon="-0.812">
        <ele>616.8</ele>
        <time>2022-10-15 12:20:16</time>
      </trkpt>
      <trkpt lat="38.60196" lon="-0.81202">
        <ele>616.6</ele>
        <time>2022-10-15 12:20:17</time>
      </trkpt>
      <trkpt lat="38.60199" lon="-0.81205">
        <ele>616.4</ele>
        <time>2022-10-15 12:20:18</time>
      </trkpt>
      <trkpt lat="38.60203" lon="-0.81207">
        <ele>616.4</ele>
        <time>2022-10-15 12:20:19</time>
      </trkpt>
      <trkpt lat="38.60206" lon="-0.8121">
        <ele>616.4</ele>
        <time>2022-10-15 12:20:20</time>
      </trkpt>
      <trkpt lat="38.6021" lon="-0.81213">
        <ele>616.2</ele>
        <time>2022-10-15 12:20:21</time>
      </trkpt>
      <trkpt lat="38.60213" lon="-0.81217">
        <ele>616</ele>
        <time>2022-10-15 12:20:22</time>
      </trkpt>
      <trkpt lat="38.60221" lon="-0.81225">
        <ele>615.8</ele>
        <time>2022-10-15 12:20:23</time>
      </trkpt>
      <trkpt lat="38.60226" lon="-0.81229">
        <ele>615.6</ele>
        <time>2022-10-15 12:20:24</time>
      </trkpt>
      <trkpt lat="38.60226" lon="-0.81229">
        <ele>615.2</ele>
        <time>2022-10-15 12:20:25</time>
      </trkpt>
      <trkpt lat="38.60234" lon="-0.81236">
        <ele>614.8</ele>
        <time>2022-10-15 12:20:26</time>
      </trkpt>
      <trkpt lat="38.60239" lon="-0.8124">
        <ele>614.4</ele>
        <time>2022-10-15 12:20:27</time>
      </trkpt>
      <trkpt lat="38.60243" lon="-0.81243">
        <ele>614</ele>
        <time>2022-10-15 12:20:28</time>
      </trkpt>
      <trkpt lat="38.60247" lon="-0.81247">
        <ele>613.2</ele>
        <time>2022-10-15 12:20:29</time>
      </trkpt>
      <trkpt lat="38.60251" lon="-0.8125">
        <ele>612.6</ele>
        <time>2022-10-15 12:20:30</time>
      </trkpt>
      <trkpt lat="38.60251" lon="-0.8125">
        <ele>612</ele>
        <time>2022-10-15 12:20:31</time>
      </trkpt>
      <trkpt lat="38.60258" lon="-0.81257">
        <ele>611.6</ele>
        <time>2022-10-15 12:20:32</time>
      </trkpt>
      <trkpt lat="38.60261" lon="-0.81261">
        <ele>611</ele>
        <time>2022-10-15 12:20:33</time>
      </trkpt>
      <trkpt lat="38.60265" lon="-0.81267">
        <ele>610.6</ele>
        <time>2022-10-15 12:20:34</time>
      </trkpt>
      <trkpt lat="38.6027" lon="-0.81274">
        <ele>610.2</ele>
        <time>2022-10-15 12:20:35</time>
      </trkpt>
      <trkpt lat="38.60274" lon="-0.8128">
        <ele>609.8</ele>
        <time>2022-10-15 12:20:36</time>
      </trkpt>
      <trkpt lat="38.60274" lon="-0.8128">
        <ele>609.4</ele>
        <time>2022-10-15 12:20:37</time>
      </trkpt>
      <trkpt lat="38.60284" lon="-0.81296">
        <ele>608.8</ele>
        <time>2022-10-15 12:20:38</time>
      </trkpt>
      <trkpt lat="38.60289" lon="-0.81304">
        <ele>608.6</ele>
        <time>2022-10-15 12:20:39</time>
      </trkpt>
      <trkpt lat="38.60294" lon="-0.81312">
        <ele>608.2</ele>
        <time>2022-10-15 12:20:40</time>
      </trkpt>
      <trkpt lat="38.603" lon="-0.8132">
        <ele>607.6</ele>
        <time>2022-10-15 12:20:41</time>
      </trkpt>
      <trkpt lat="38.60305" lon="-0.81329">
        <ele>606.8</ele>
        <time>2022-10-15 12:20:42</time>
      </trkpt>
      <trkpt lat="38.60305" lon="-0.81329">
        <ele>605.2</ele>
        <time>2022-10-15 12:20:43</time>
      </trkpt>
      <trkpt lat="38.60314" lon="-0.81345">
        <ele>604.2</ele>
        <time>2022-10-15 12:20:44</time>
      </trkpt>
      <trkpt lat="38.60319" lon="-0.81354">
        <ele>603.6</ele>
        <time>2022-10-15 12:20:45</time>
      </trkpt>
      <trkpt lat="38.60323" lon="-0.81362">
        <ele>602.8</ele>
        <time>2022-10-15 12:20:46</time>
      </trkpt>
      <trkpt lat="38.60328" lon="-0.81369">
        <ele>600.8</ele>
        <time>2022-10-15 12:20:47</time>
      </trkpt>
      <trkpt lat="38.60332" lon="-0.81376">
        <ele>600.2</ele>
        <time>2022-10-15 12:20:48</time>
      </trkpt>
      <trkpt lat="38.60332" lon="-0.81376">
        <ele>599.8</ele>
        <time>2022-10-15 12:20:49</time>
      </trkpt>
      <trkpt lat="38.6034" lon="-0.81391">
        <ele>599.6</ele>
        <time>2022-10-15 12:20:50</time>
      </trkpt>
      <trkpt lat="38.60344" lon="-0.81398">
        <ele>599.2</ele>
        <time>2022-10-15 12:20:51</time>
      </trkpt>
      <trkpt lat="38.60347" lon="-0.81404">
        <ele>598.8</ele>
        <time>2022-10-15 12:20:52</time>
      </trkpt>
      <trkpt lat="38.6035" lon="-0.81409">
        <ele>598.2</ele>
        <time>2022-10-15 12:20:53</time>
      </trkpt>
      <trkpt lat="38.60353" lon="-0.81413">
        <ele>598</ele>
        <time>2022-10-15 12:20:54</time>
      </trkpt>
      <trkpt lat="38.60353" lon="-0.81413">
        <ele>597.6</ele>
        <time>2022-10-15 12:20:55</time>
      </trkpt>
      <trkpt lat="38.60358" lon="-0.81421">
        <ele>597.4</ele>
        <time>2022-10-15 12:20:56</time>
      </trkpt>
      <trkpt lat="38.60361" lon="-0.81426">
        <ele>597.4</ele>
        <time>2022-10-15 12:20:57</time>
      </trkpt>
      <trkpt lat="38.60364" lon="-0.8143">
        <ele>597.2</ele>
        <time>2022-10-15 12:20:58</time>
      </trkpt>
      <trkpt lat="38.60366" lon="-0.81434">
        <ele>596.4</ele>
        <time>2022-10-15 12:20:59</time>
      </trkpt>
      <trkpt lat="38.60369" lon="-0.81438">
        <ele>596</ele>
        <time>2022-10-15 12:21:00</time>
      </trkpt>
      <trkpt lat="38.60369" lon="-0.81438">
        <ele>595.6</ele>
        <time>2022-10-15 12:21:01</time>
      </trkpt>
      <trkpt lat="38.60372" lon="-0.81444">
        <ele>595.2</ele>
        <time>2022-10-15 12:21:02</time>
      </trkpt>
      <trkpt lat="38.60373" lon="-0.81447">
        <ele>595</ele>
        <time>2022-10-15 12:21:03</time>
      </trkpt>
      <trkpt lat="38.60375" lon="-0.81449">
        <ele>594.6</ele>
        <time>2022-10-15 12:21:04</time>
      </trkpt>
      <trkpt lat="38.60376" lon="-0.81451">
        <ele>594.4</ele>
        <time>2022-10-15 12:21:05</time>
      </trkpt>
      <trkpt lat="38.60377" lon="-0.81453">
        <ele>594.4</ele>
        <time>2022-10-15 12:21:06</time>
      </trkpt>
      <trkpt lat="38.60377" lon="-0.81453">
        <ele>594.2</ele>
        <time>2022-10-15 12:21:07</time>
      </trkpt>
      <trkpt lat="38.60379" lon="-0.81456">
        <ele>593.8</ele>
        <time>2022-10-15 12:21:08</time>
      </trkpt>
      <trkpt lat="38.60379" lon="-0.81457">
        <ele>593.4</ele>
        <time>2022-10-15 12:21:09</time>
      </trkpt>
      <trkpt lat="38.6038" lon="-0.81458">
        <ele>593.4</ele>
        <time>2022-10-15 12:21:10</time>
      </trkpt>
      <trkpt lat="38.6038" lon="-0.81458">
        <ele>593.2</ele>
        <time>2022-10-15 12:21:11</time>
      </trkpt>
      <trkpt lat="38.6038" lon="-0.81458">
        <ele>593.2</ele>
        <time>2022-10-15 12:21:12</time>
      </trkpt>
      <trkpt lat="38.60383" lon="-0.81461">
        <ele>592.4</ele>
        <time>2022-10-15 12:22:28</time>
      </trkpt>
      <trkpt lat="38.60384" lon="-0.81462">
        <ele>592.4</ele>
        <time>2022-10-15 12:22:29</time>
      </trkpt>
      <trkpt lat="38.60384" lon="-0.81462">
        <ele>592.4</ele>
        <time>2022-10-15 12:22:30</time>
      </trkpt>
      <trkpt lat="38.60386" lon="-0.81463">
        <ele>592.4</ele>
        <time>2022-10-15 12:22:31</time>
      </trkpt>
      <trkpt lat="38.60389" lon="-0.81466">
        <ele>592.4</ele>
        <time>2022-10-15 12:22:32</time>
      </trkpt>
      <trkpt lat="38.60391" lon="-0.81468">
        <ele>592.4</ele>
        <time>2022-10-15 12:22:33</time>
      </trkpt>
      <trkpt lat="38.60393" lon="-0.81471">
        <ele>592.4</ele>
        <time>2022-10-15 12:22:34</time>
      </trkpt>
      <trkpt lat="38.60396" lon="-0.81473">
        <ele>592.4</ele>
        <time>2022-10-15 12:22:35</time>
      </trkpt>
      <trkpt lat="38.60398" lon="-0.81476">
        <ele>592.4</ele>
        <time>2022-10-15 12:22:36</time>
      </trkpt>
      <trkpt lat="38.60398" lon="-0.81476">
        <ele>592.2</ele>
        <time>2022-10-15 12:22:37</time>
      </trkpt>
      <trkpt lat="38.60403" lon="-0.81483">
        <ele>592.2</ele>
        <time>2022-10-15 12:22:38</time>
      </trkpt>
      <trkpt lat="38.60403" lon="-0.81483">
        <ele>592.2</ele>
        <time>2022-10-15 12:22:39</time>
      </trkpt>
      <trkpt lat="38.60409" lon="-0.8149">
        <ele>592</ele>
        <time>2022-10-15 12:22:40</time>
      </trkpt>
      <trkpt lat="38.60412" lon="-0.81493">
        <ele>591.8</ele>
        <time>2022-10-15 12:22:41</time>
      </trkpt>
      <trkpt lat="38.60414" lon="-0.81497">
        <ele>591.6</ele>
        <time>2022-10-15 12:22:42</time>
      </trkpt>
      <trkpt lat="38.60414" lon="-0.81497">
        <ele>591.4</ele>
        <time>2022-10-15 12:22:43</time>
      </trkpt>
      <trkpt lat="38.60419" lon="-0.81502">
        <ele>591.2</ele>
        <time>2022-10-15 12:22:44</time>
      </trkpt>
      <trkpt lat="38.60419" lon="-0.81502">
        <ele>591</ele>
        <time>2022-10-15 12:22:45</time>
      </trkpt>
      <trkpt lat="38.60423" lon="-0.81507">
        <ele>590.6</ele>
        <time>2022-10-15 12:22:46</time>
      </trkpt>
      <trkpt lat="38.60424" lon="-0.8151">
        <ele>590.2</ele>
        <time>2022-10-15 12:22:47</time>
      </trkpt>
      <trkpt lat="38.60426" lon="-0.81512">
        <ele>590</ele>
        <time>2022-10-15 12:22:48</time>
      </trkpt>
      <trkpt lat="38.60426" lon="-0.81512">
        <ele>589.8</ele>
        <time>2022-10-15 12:22:49</time>
      </trkpt>
      <trkpt lat="38.60429" lon="-0.81516">
        <ele>589.8</ele>
        <time>2022-10-15 12:22:50</time>
      </trkpt>
      <trkpt lat="38.60429" lon="-0.81516">
        <ele>589.6</ele>
        <time>2022-10-15 12:22:51</time>
      </trkpt>
      <trkpt lat="38.60431" lon="-0.81517">
        <ele>589.4</ele>
        <time>2022-10-15 12:22:52</time>
      </trkpt>
      <trkpt lat="38.60433" lon="-0.81517">
        <ele>589.4</ele>
        <time>2022-10-15 12:22:53</time>
      </trkpt>
      <trkpt lat="38.60433" lon="-0.81517">
        <ele>589.2</ele>
        <time>2022-10-15 12:22:54</time>
      </trkpt>
      <trkpt lat="38.60433" lon="-0.81517">
        <ele>589.2</ele>
        <time>2022-10-15 12:22:55</time>
      </trkpt>
      <trkpt lat="38.60433" lon="-0.81517">
        <ele>589.2</ele>
        <time>2022-10-15 12:22:56</time>
      </trkpt>
      <trkpt lat="38.60433" lon="-0.81517">
        <ele>589</ele>
        <time>2022-10-15 12:22:57</time>
      </trkpt>
      <trkpt lat="38.60445" lon="-0.81509">
        <ele>588.4</ele>
        <time>2022-10-15 12:23:15</time>
      </trkpt>
      <trkpt lat="38.60447" lon="-0.81506">
        <ele>588.4</ele>
        <time>2022-10-15 12:23:16</time>
      </trkpt>
      <trkpt lat="38.6045" lon="-0.81504">
        <ele>588.4</ele>
        <time>2022-10-15 12:23:17</time>
      </trkpt>
      <trkpt lat="38.60454" lon="-0.81501">
        <ele>588.4</ele>
        <time>2022-10-15 12:23:18</time>
      </trkpt>
      <trkpt lat="38.60454" lon="-0.81501">
        <ele>588.4</ele>
        <time>2022-10-15 12:23:19</time>
      </trkpt>
      <trkpt lat="38.6046" lon="-0.815">
        <ele>588.4</ele>
        <time>2022-10-15 12:23:20</time>
      </trkpt>
      <trkpt lat="38.60464" lon="-0.81503">
        <ele>588.2</ele>
        <time>2022-10-15 12:23:21</time>
      </trkpt>
      <trkpt lat="38.60467" lon="-0.81505">
        <ele>588</ele>
        <time>2022-10-15 12:23:22</time>
      </trkpt>
      <trkpt lat="38.6047" lon="-0.81508">
        <ele>587.8</ele>
        <time>2022-10-15 12:23:23</time>
      </trkpt>
      <trkpt lat="38.60473" lon="-0.81511">
        <ele>587.4</ele>
        <time>2022-10-15 12:23:24</time>
      </trkpt>
      <trkpt lat="38.60473" lon="-0.81511">
        <ele>587.2</ele>
        <time>2022-10-15 12:23:25</time>
      </trkpt>
      <trkpt lat="38.60481" lon="-0.81516">
        <ele>586.6</ele>
        <time>2022-10-15 12:23:26</time>
      </trkpt>
      <trkpt lat="38.60484" lon="-0.8152">
        <ele>586.2</ele>
        <time>2022-10-15 12:23:27</time>
      </trkpt>
      <trkpt lat="38.60488" lon="-0.81525">
        <ele>585.8</ele>
        <time>2022-10-15 12:23:28</time>
      </trkpt>
      <trkpt lat="38.6049" lon="-0.81531">
        <ele>585.6</ele>
        <time>2022-10-15 12:23:29</time>
      </trkpt>
      <trkpt lat="38.60493" lon="-0.81537">
        <ele>585.2</ele>
        <time>2022-10-15 12:23:30</time>
      </trkpt>
      <trkpt lat="38.60493" lon="-0.81537">
        <ele>585</ele>
        <time>2022-10-15 12:23:31</time>
      </trkpt>
      <trkpt lat="38.60499" lon="-0.81551">
        <ele>584.8</ele>
        <time>2022-10-15 12:23:32</time>
      </trkpt>
      <trkpt lat="38.60502" lon="-0.81558">
        <ele>584.6</ele>
        <time>2022-10-15 12:23:33</time>
      </trkpt>
      <trkpt lat="38.60505" lon="-0.81566">
        <ele>584.2</ele>
        <time>2022-10-15 12:23:34</time>
      </trkpt>
      <trkpt lat="38.60508" lon="-0.81574">
        <ele>584</ele>
        <time>2022-10-15 12:23:35</time>
      </trkpt>
      <trkpt lat="38.60511" lon="-0.81581">
        <ele>583.4</ele>
        <time>2022-10-15 12:23:36</time>
      </trkpt>
      <trkpt lat="38.60511" lon="-0.81581">
        <ele>582.8</ele>
        <time>2022-10-15 12:23:37</time>
      </trkpt>
      <trkpt lat="38.60514" lon="-0.81589">
        <ele>582.6</ele>
        <time>2022-10-15 12:23:38</time>
      </trkpt>
      <trkpt lat="38.60518" lon="-0.81596">
        <ele>582.2</ele>
        <time>2022-10-15 12:23:39</time>
      </trkpt>
      <trkpt lat="38.60522" lon="-0.81603">
        <ele>581.6</ele>
        <time>2022-10-15 12:23:40</time>
      </trkpt>
      <trkpt lat="38.60527" lon="-0.8161">
        <ele>581.4</ele>
        <time>2022-10-15 12:23:41</time>
      </trkpt>
      <trkpt lat="38.60532" lon="-0.81616">
        <ele>581</ele>
        <time>2022-10-15 12:23:42</time>
      </trkpt>
      <trkpt lat="38.60538" lon="-0.81621">
        <ele>580.6</ele>
        <time>2022-10-15 12:23:43</time>
      </trkpt>
      <trkpt lat="38.60545" lon="-0.81626">
        <ele>580.2</ele>
        <time>2022-10-15 12:23:44</time>
      </trkpt>
      <trkpt lat="38.60551" lon="-0.81631">
        <ele>579.8</ele>
        <time>2022-10-15 12:23:45</time>
      </trkpt>
      <trkpt lat="38.60558" lon="-0.81635">
        <ele>579.4</ele>
        <time>2022-10-15 12:23:46</time>
      </trkpt>
      <trkpt lat="38.60565" lon="-0.81639">
        <ele>578.8</ele>
        <time>2022-10-15 12:23:47</time>
      </trkpt>
      <trkpt lat="38.60571" lon="-0.81643">
        <ele>578.2</ele>
        <time>2022-10-15 12:23:48</time>
      </trkpt>
      <trkpt lat="38.60576" lon="-0.81648">
        <ele>577.8</ele>
        <time>2022-10-15 12:23:49</time>
      </trkpt>
      <trkpt lat="38.60581" lon="-0.81654">
        <ele>577.2</ele>
        <time>2022-10-15 12:23:50</time>
      </trkpt>
      <trkpt lat="38.60585" lon="-0.81661">
        <ele>576.6</ele>
        <time>2022-10-15 12:23:51</time>
      </trkpt>
      <trkpt lat="38.6059" lon="-0.81667">
        <ele>576</ele>
        <time>2022-10-15 12:23:52</time>
      </trkpt>
      <trkpt lat="38.60595" lon="-0.81674">
        <ele>575.4</ele>
        <time>2022-10-15 12:23:53</time>
      </trkpt>
      <trkpt lat="38.60599" lon="-0.81681">
        <ele>575.2</ele>
        <time>2022-10-15 12:23:54</time>
      </trkpt>
      <trkpt lat="38.60604" lon="-0.81689">
        <ele>575</ele>
        <time>2022-10-15 12:23:55</time>
      </trkpt>
      <trkpt lat="38.60614" lon="-0.81703">
        <ele>574.8</ele>
        <time>2022-10-15 12:23:56</time>
      </trkpt>
      <trkpt lat="38.6062" lon="-0.81709">
        <ele>574.6</ele>
        <time>2022-10-15 12:23:57</time>
      </trkpt>
      <trkpt lat="38.60627" lon="-0.81713">
        <ele>573.8</ele>
        <time>2022-10-15 12:23:58</time>
      </trkpt>
      <trkpt lat="38.60634" lon="-0.81718">
        <ele>573.4</ele>
        <time>2022-10-15 12:23:59</time>
      </trkpt>
      <trkpt lat="38.6064" lon="-0.81723">
        <ele>572.8</ele>
        <time>2022-10-15 12:24:00</time>
      </trkpt>
      <trkpt lat="38.6064" lon="-0.81723">
        <ele>572</ele>
        <time>2022-10-15 12:24:01</time>
      </trkpt>
      <trkpt lat="38.60649" lon="-0.81738">
        <ele>571.2</ele>
        <time>2022-10-15 12:24:02</time>
      </trkpt>
      <trkpt lat="38.60653" lon="-0.81746">
        <ele>570.8</ele>
        <time>2022-10-15 12:24:03</time>
      </trkpt>
      <trkpt lat="38.60655" lon="-0.81755">
        <ele>570.2</ele>
        <time>2022-10-15 12:24:04</time>
      </trkpt>
      <trkpt lat="38.60658" lon="-0.81763">
        <ele>569.6</ele>
        <time>2022-10-15 12:24:05</time>
      </trkpt>
      <trkpt lat="38.60663" lon="-0.8177">
        <ele>569.4</ele>
        <time>2022-10-15 12:24:06</time>
      </trkpt>
      <trkpt lat="38.60663" lon="-0.8177">
        <ele>569.2</ele>
        <time>2022-10-15 12:24:07</time>
      </trkpt>
      <trkpt lat="38.60673" lon="-0.81781">
        <ele>569.2</ele>
        <time>2022-10-15 12:24:08</time>
      </trkpt>
      <trkpt lat="38.60673" lon="-0.81781">
        <ele>568.8</ele>
        <time>2022-10-15 12:24:09</time>
      </trkpt>
      <trkpt lat="38.60684" lon="-0.81792">
        <ele>568</ele>
        <time>2022-10-15 12:24:10</time>
      </trkpt>
      <trkpt lat="38.60689" lon="-0.81799">
        <ele>567.6</ele>
        <time>2022-10-15 12:24:11</time>
      </trkpt>
      <trkpt lat="38.60693" lon="-0.81807">
        <ele>567.2</ele>
        <time>2022-10-15 12:24:12</time>
      </trkpt>
      <trkpt lat="38.60693" lon="-0.81807">
        <ele>566.8</ele>
        <time>2022-10-15 12:24:13</time>
      </trkpt>
      <trkpt lat="38.60701" lon="-0.81821">
        <ele>566.4</ele>
        <time>2022-10-15 12:24:14</time>
      </trkpt>
      <trkpt lat="38.60701" lon="-0.81821">
        <ele>566.4</ele>
        <time>2022-10-15 12:24:15</time>
      </trkpt>
      <trkpt lat="38.60712" lon="-0.81832">
        <ele>566</ele>
        <time>2022-10-15 12:24:16</time>
      </trkpt>
      <trkpt lat="38.60718" lon="-0.81836">
        <ele>566</ele>
        <time>2022-10-15 12:24:17</time>
      </trkpt>
      <trkpt lat="38.60725" lon="-0.81841">
        <ele>565.6</ele>
        <time>2022-10-15 12:24:18</time>
      </trkpt>
      <trkpt lat="38.60725" lon="-0.81841">
        <ele>565.2</ele>
        <time>2022-10-15 12:24:19</time>
      </trkpt>
      <trkpt lat="38.60737" lon="-0.8185">
        <ele>564.8</ele>
        <time>2022-10-15 12:24:20</time>
      </trkpt>
      <trkpt lat="38.60743" lon="-0.81852">
        <ele>564.4</ele>
        <time>2022-10-15 12:24:21</time>
      </trkpt>
      <trkpt lat="38.6075" lon="-0.81854">
        <ele>564</ele>
        <time>2022-10-15 12:24:22</time>
      </trkpt>
      <trkpt lat="38.60756" lon="-0.81855">
        <ele>563.8</ele>
        <time>2022-10-15 12:24:23</time>
      </trkpt>
      <trkpt lat="38.60761" lon="-0.81856">
        <ele>563.4</ele>
        <time>2022-10-15 12:24:24</time>
      </trkpt>
      <trkpt lat="38.60761" lon="-0.81856">
        <ele>563</ele>
        <time>2022-10-15 12:24:25</time>
      </trkpt>
      <trkpt lat="38.60769" lon="-0.81861">
        <ele>562.6</ele>
        <time>2022-10-15 12:24:26</time>
      </trkpt>
      <trkpt lat="38.60769" lon="-0.81861">
        <ele>562.4</ele>
        <time>2022-10-15 12:24:27</time>
      </trkpt>
      <trkpt lat="38.60775" lon="-0.81869">
        <ele>562.4</ele>
        <time>2022-10-15 12:24:28</time>
      </trkpt>
      <trkpt lat="38.60777" lon="-0.81874">
        <ele>562.2</ele>
        <time>2022-10-15 12:24:29</time>
      </trkpt>
      <trkpt lat="38.6078" lon="-0.81879">
        <ele>562.2</ele>
        <time>2022-10-15 12:24:30</time>
      </trkpt>
      <trkpt lat="38.6078" lon="-0.81879">
        <ele>562.2</ele>
        <time>2022-10-15 12:24:31</time>
      </trkpt>
      <trkpt lat="38.60785" lon="-0.8189">
        <ele>562</ele>
        <time>2022-10-15 12:24:32</time>
      </trkpt>
      <trkpt lat="38.60787" lon="-0.81896">
        <ele>562</ele>
        <time>2022-10-15 12:24:33</time>
      </trkpt>
      <trkpt lat="38.60789" lon="-0.81902">
        <ele>561.8</ele>
        <time>2022-10-15 12:24:34</time>
      </trkpt>
      <trkpt lat="38.60791" lon="-0.81909">
        <ele>561.8</ele>
        <time>2022-10-15 12:24:35</time>
      </trkpt>
      <trkpt lat="38.60793" lon="-0.81916">
        <ele>561.4</ele>
        <time>2022-10-15 12:24:36</time>
      </trkpt>
      <trkpt lat="38.60793" lon="-0.81916">
        <ele>561.2</ele>
        <time>2022-10-15 12:24:37</time>
      </trkpt>
      <trkpt lat="38.60796" lon="-0.8193">
        <ele>560.8</ele>
        <time>2022-10-15 12:24:38</time>
      </trkpt>
      <trkpt lat="38.60798" lon="-0.81938">
        <ele>560.6</ele>
        <time>2022-10-15 12:24:39</time>
      </trkpt>
      <trkpt lat="38.60799" lon="-0.81945">
        <ele>560.4</ele>
        <time>2022-10-15 12:24:40</time>
      </trkpt>
      <trkpt lat="38.60801" lon="-0.81952">
        <ele>560.4</ele>
        <time>2022-10-15 12:24:41</time>
      </trkpt>
      <trkpt lat="38.60803" lon="-0.8196">
        <ele>560.2</ele>
        <time>2022-10-15 12:24:42</time>
      </trkpt>
      <trkpt lat="38.60803" lon="-0.8196">
        <ele>559.8</ele>
        <time>2022-10-15 12:24:43</time>
      </trkpt>
      <trkpt lat="38.60803" lon="-0.81976">
        <ele>559.6</ele>
        <time>2022-10-15 12:24:44</time>
      </trkpt>
      <trkpt lat="38.60802" lon="-0.81984">
        <ele>559.2</ele>
        <time>2022-10-15 12:24:45</time>
      </trkpt>
      <trkpt lat="38.60801" lon="-0.81992">
        <ele>559</ele>
        <time>2022-10-15 12:24:46</time>
      </trkpt>
      <trkpt lat="38.608" lon="-0.82">
        <ele>558.6</ele>
        <time>2022-10-15 12:24:47</time>
      </trkpt>
      <trkpt lat="38.60798" lon="-0.82008">
        <ele>558.2</ele>
        <time>2022-10-15 12:24:48</time>
      </trkpt>
      <trkpt lat="38.60798" lon="-0.82008">
        <ele>557.6</ele>
        <time>2022-10-15 12:24:49</time>
      </trkpt>
      <trkpt lat="38.608" lon="-0.82023">
        <ele>557.2</ele>
        <time>2022-10-15 12:24:50</time>
      </trkpt>
      <trkpt lat="38.60802" lon="-0.82031">
        <ele>557</ele>
        <time>2022-10-15 12:24:51</time>
      </trkpt>
      <trkpt lat="38.60805" lon="-0.82037">
        <ele>556.6</ele>
        <time>2022-10-15 12:24:52</time>
      </trkpt>
      <trkpt lat="38.60808" lon="-0.82043">
        <ele>556.2</ele>
        <time>2022-10-15 12:24:53</time>
      </trkpt>
      <trkpt lat="38.6081" lon="-0.82046">
        <ele>555.8</ele>
        <time>2022-10-15 12:24:54</time>
      </trkpt>
      <trkpt lat="38.6081" lon="-0.82046">
        <ele>555.6</ele>
        <time>2022-10-15 12:24:55</time>
      </trkpt>
      <trkpt lat="38.60814" lon="-0.82048">
        <ele>555.6</ele>
        <time>2022-10-15 12:24:56</time>
      </trkpt>
      <trkpt lat="38.60815" lon="-0.8205">
        <ele>555.4</ele>
        <time>2022-10-15 12:24:57</time>
      </trkpt>
      <trkpt lat="38.60816" lon="-0.82052">
        <ele>555.2</ele>
        <time>2022-10-15 12:24:58</time>
      </trkpt>
      <trkpt lat="38.60817" lon="-0.82056">
        <ele>554.8</ele>
        <time>2022-10-15 12:24:59</time>
      </trkpt>
      <trkpt lat="38.60818" lon="-0.82059">
        <ele>554.8</ele>
        <time>2022-10-15 12:25:00</time>
      </trkpt>
      <trkpt lat="38.60818" lon="-0.82059">
        <ele>554.8</ele>
        <time>2022-10-15 12:25:01</time>
      </trkpt>
      <trkpt lat="38.60823" lon="-0.82067">
        <ele>554.6</ele>
        <time>2022-10-15 12:25:02</time>
      </trkpt>
      <trkpt lat="38.60826" lon="-0.82072">
        <ele>554.8</ele>
        <time>2022-10-15 12:25:03</time>
      </trkpt>
      <trkpt lat="38.60829" lon="-0.82076">
        <ele>554.6</ele>
        <time>2022-10-15 12:25:04</time>
      </trkpt>
      <trkpt lat="38.60831" lon="-0.82081">
        <ele>554.6</ele>
        <time>2022-10-15 12:25:05</time>
      </trkpt>
      <trkpt lat="38.60834" lon="-0.82086">
        <ele>554.6</ele>
        <time>2022-10-15 12:25:06</time>
      </trkpt>
      <trkpt lat="38.60834" lon="-0.82086">
        <ele>554.4</ele>
        <time>2022-10-15 12:25:07</time>
      </trkpt>
      <trkpt lat="38.6084" lon="-0.82097">
        <ele>554.2</ele>
        <time>2022-10-15 12:25:08</time>
      </trkpt>
      <trkpt lat="38.60843" lon="-0.82103">
        <ele>554</ele>
        <time>2022-10-15 12:25:09</time>
      </trkpt>
      <trkpt lat="38.60846" lon="-0.82109">
        <ele>553.6</ele>
        <time>2022-10-15 12:25:10</time>
      </trkpt>
      <trkpt lat="38.6085" lon="-0.82115">
        <ele>553.4</ele>
        <time>2022-10-15 12:25:11</time>
      </trkpt>
      <trkpt lat="38.60854" lon="-0.82121">
        <ele>553.2</ele>
        <time>2022-10-15 12:25:12</time>
      </trkpt>
      <trkpt lat="38.60854" lon="-0.82121">
        <ele>552.8</ele>
        <time>2022-10-15 12:25:13</time>
      </trkpt>
      <trkpt lat="38.60862" lon="-0.82134">
        <ele>552.4</ele>
        <time>2022-10-15 12:25:14</time>
      </trkpt>
      <trkpt lat="38.60866" lon="-0.82141">
        <ele>552.4</ele>
        <time>2022-10-15 12:25:15</time>
      </trkpt>
      <trkpt lat="38.6087" lon="-0.82148">
        <ele>552.2</ele>
        <time>2022-10-15 12:25:16</time>
      </trkpt>
      <trkpt lat="38.60874" lon="-0.82155">
        <ele>552</ele>
        <time>2022-10-15 12:25:17</time>
      </trkpt>
      <trkpt lat="38.60878" lon="-0.82162">
        <ele>552</ele>
        <time>2022-10-15 12:25:18</time>
      </trkpt>
      <trkpt lat="38.60878" lon="-0.82162">
        <ele>551.2</ele>
        <time>2022-10-15 12:25:19</time>
      </trkpt>
      <trkpt lat="38.60887" lon="-0.82176">
        <ele>550.8</ele>
        <time>2022-10-15 12:25:20</time>
      </trkpt>
      <trkpt lat="38.60892" lon="-0.82184">
        <ele>550</ele>
        <time>2022-10-15 12:25:21</time>
      </trkpt>
      <trkpt lat="38.60896" lon="-0.82191">
        <ele>549.6</ele>
        <time>2022-10-15 12:25:22</time>
      </trkpt>
      <trkpt lat="38.60896" lon="-0.82191">
        <ele>549</ele>
        <time>2022-10-15 12:25:23</time>
      </trkpt>
      <trkpt lat="38.60901" lon="-0.82199">
        <ele>548.6</ele>
        <time>2022-10-15 12:25:24</time>
      </trkpt>
      <trkpt lat="38.60904" lon="-0.82207">
        <ele>548.4</ele>
        <time>2022-10-15 12:25:25</time>
      </trkpt>
      <trkpt lat="38.60908" lon="-0.82215">
        <ele>548</ele>
        <time>2022-10-15 12:25:26</time>
      </trkpt>
      <trkpt lat="38.6091" lon="-0.82223">
        <ele>547.4</ele>
        <time>2022-10-15 12:25:27</time>
      </trkpt>
      <trkpt lat="38.60911" lon="-0.82231">
        <ele>547</ele>
        <time>2022-10-15 12:25:28</time>
      </trkpt>
      <trkpt lat="38.60911" lon="-0.82238">
        <ele>546.4</ele>
        <time>2022-10-15 12:25:29</time>
      </trkpt>
      <trkpt lat="38.6091" lon="-0.82246">
        <ele>546</ele>
        <time>2022-10-15 12:25:30</time>
      </trkpt>
      <trkpt lat="38.60911" lon="-0.82254">
        <ele>545.6</ele>
        <time>2022-10-15 12:25:31</time>
      </trkpt>
      <trkpt lat="38.60913" lon="-0.82261">
        <ele>545.4</ele>
        <time>2022-10-15 12:25:32</time>
      </trkpt>
      <trkpt lat="38.60917" lon="-0.82267">
        <ele>545.4</ele>
        <time>2022-10-15 12:25:33</time>
      </trkpt>
      <trkpt lat="38.60922" lon="-0.82273">
        <ele>545.2</ele>
        <time>2022-10-15 12:25:34</time>
      </trkpt>
      <trkpt lat="38.60926" lon="-0.82279">
        <ele>545</ele>
        <time>2022-10-15 12:25:35</time>
      </trkpt>
      <trkpt lat="38.60929" lon="-0.82286">
        <ele>544.8</ele>
        <time>2022-10-15 12:25:36</time>
      </trkpt>
      <trkpt lat="38.60931" lon="-0.82294">
        <ele>544.6</ele>
        <time>2022-10-15 12:25:37</time>
      </trkpt>
      <trkpt lat="38.60933" lon="-0.82303">
        <ele>544.6</ele>
        <time>2022-10-15 12:25:38</time>
      </trkpt>
      <trkpt lat="38.60934" lon="-0.82312">
        <ele>544.4</ele>
        <time>2022-10-15 12:25:39</time>
      </trkpt>
      <trkpt lat="38.60935" lon="-0.82321">
        <ele>544</ele>
        <time>2022-10-15 12:25:40</time>
      </trkpt>
      <trkpt lat="38.60937" lon="-0.82339">
        <ele>544</ele>
        <time>2022-10-15 12:25:41</time>
      </trkpt>
      <trkpt lat="38.60938" lon="-0.82348">
        <ele>543.6</ele>
        <time>2022-10-15 12:25:42</time>
      </trkpt>
      <trkpt lat="38.60938" lon="-0.82348">
        <ele>543</ele>
        <time>2022-10-15 12:25:43</time>
      </trkpt>
      <trkpt lat="38.60943" lon="-0.82365">
        <ele>542.8</ele>
        <time>2022-10-15 12:25:44</time>
      </trkpt>
      <trkpt lat="38.60945" lon="-0.82374">
        <ele>542.4</ele>
        <time>2022-10-15 12:25:45</time>
      </trkpt>
      <trkpt lat="38.60948" lon="-0.82382">
        <ele>541.4</ele>
        <time>2022-10-15 12:25:46</time>
      </trkpt>
      <trkpt lat="38.6095" lon="-0.82391">
        <ele>541.2</ele>
        <time>2022-10-15 12:25:47</time>
      </trkpt>
      <trkpt lat="38.60953" lon="-0.82399">
        <ele>540.8</ele>
        <time>2022-10-15 12:25:48</time>
      </trkpt>
      <trkpt lat="38.60953" lon="-0.82399">
        <ele>540.6</ele>
        <time>2022-10-15 12:25:49</time>
      </trkpt>
      <trkpt lat="38.60961" lon="-0.82415">
        <ele>540.2</ele>
        <time>2022-10-15 12:25:50</time>
      </trkpt>
      <trkpt lat="38.60965" lon="-0.82422">
        <ele>540</ele>
        <time>2022-10-15 12:25:51</time>
      </trkpt>
      <trkpt lat="38.6097" lon="-0.8243">
        <ele>539.8</ele>
        <time>2022-10-15 12:25:52</time>
      </trkpt>
      <trkpt lat="38.60974" lon="-0.82437">
        <ele>539.8</ele>
        <time>2022-10-15 12:25:53</time>
      </trkpt>
      <trkpt lat="38.60977" lon="-0.82446">
        <ele>539.4</ele>
        <time>2022-10-15 12:25:54</time>
      </trkpt>
      <trkpt lat="38.60977" lon="-0.82446">
        <ele>539.2</ele>
        <time>2022-10-15 12:25:55</time>
      </trkpt>
      <trkpt lat="38.60983" lon="-0.82464">
        <ele>538.8</ele>
        <time>2022-10-15 12:25:56</time>
      </trkpt>
      <trkpt lat="38.60985" lon="-0.82474">
        <ele>538.6</ele>
        <time>2022-10-15 12:25:57</time>
      </trkpt>
      <trkpt lat="38.60987" lon="-0.82483">
        <ele>538.2</ele>
        <time>2022-10-15 12:25:58</time>
      </trkpt>
      <trkpt lat="38.6099" lon="-0.82493">
        <ele>538</ele>
        <time>2022-10-15 12:25:59</time>
      </trkpt>
      <trkpt lat="38.60994" lon="-0.82501">
        <ele>537.6</ele>
        <time>2022-10-15 12:26:00</time>
      </trkpt>
      <trkpt lat="38.60994" lon="-0.82501">
        <ele>537.4</ele>
        <time>2022-10-15 12:26:01</time>
      </trkpt>
      <trkpt lat="38.61004" lon="-0.82517">
        <ele>537</ele>
        <time>2022-10-15 12:26:02</time>
      </trkpt>
      <trkpt lat="38.61009" lon="-0.82524">
        <ele>536.6</ele>
        <time>2022-10-15 12:26:03</time>
      </trkpt>
      <trkpt lat="38.61014" lon="-0.82532">
        <ele>536.2</ele>
        <time>2022-10-15 12:26:04</time>
      </trkpt>
      <trkpt lat="38.61019" lon="-0.8254">
        <ele>535.6</ele>
        <time>2022-10-15 12:26:05</time>
      </trkpt>
      <trkpt lat="38.61024" lon="-0.82548">
        <ele>535.2</ele>
        <time>2022-10-15 12:26:06</time>
      </trkpt>
      <trkpt lat="38.61024" lon="-0.82548">
        <ele>534.8</ele>
        <time>2022-10-15 12:26:07</time>
      </trkpt>
      <trkpt lat="38.61033" lon="-0.82565">
        <ele>534.6</ele>
        <time>2022-10-15 12:26:08</time>
      </trkpt>
      <trkpt lat="38.61038" lon="-0.82573">
        <ele>534.4</ele>
        <time>2022-10-15 12:26:09</time>
      </trkpt>
      <trkpt lat="38.61042" lon="-0.82581">
        <ele>534.2</ele>
        <time>2022-10-15 12:26:10</time>
      </trkpt>
      <trkpt lat="38.61047" lon="-0.82589">
        <ele>534</ele>
        <time>2022-10-15 12:26:11</time>
      </trkpt>
      <trkpt lat="38.61051" lon="-0.82597">
        <ele>533.8</ele>
        <time>2022-10-15 12:26:12</time>
      </trkpt>
      <trkpt lat="38.61051" lon="-0.82597">
        <ele>532.8</ele>
        <time>2022-10-15 12:26:13</time>
      </trkpt>
      <trkpt lat="38.6106" lon="-0.82613">
        <ele>532.2</ele>
        <time>2022-10-15 12:26:14</time>
      </trkpt>
      <trkpt lat="38.61065" lon="-0.82622">
        <ele>532</ele>
        <time>2022-10-15 12:26:15</time>
      </trkpt>
      <trkpt lat="38.61069" lon="-0.8263">
        <ele>531.8</ele>
        <time>2022-10-15 12:26:16</time>
      </trkpt>
      <trkpt lat="38.61074" lon="-0.82638">
        <ele>531.2</ele>
        <time>2022-10-15 12:26:17</time>
      </trkpt>
      <trkpt lat="38.61078" lon="-0.82646">
        <ele>530.4</ele>
        <time>2022-10-15 12:26:18</time>
      </trkpt>
      <trkpt lat="38.61078" lon="-0.82646">
        <ele>529.8</ele>
        <time>2022-10-15 12:26:19</time>
      </trkpt>
      <trkpt lat="38.61082" lon="-0.82654">
        <ele>529.2</ele>
        <time>2022-10-15 12:26:20</time>
      </trkpt>
      <trkpt lat="38.61087" lon="-0.82661">
        <ele>529</ele>
        <time>2022-10-15 12:26:21</time>
      </trkpt>
      <trkpt lat="38.6109" lon="-0.82669">
        <ele>528.8</ele>
        <time>2022-10-15 12:26:22</time>
      </trkpt>
      <trkpt lat="38.61094" lon="-0.82676">
        <ele>528.4</ele>
        <time>2022-10-15 12:26:23</time>
      </trkpt>
      <trkpt lat="38.61097" lon="-0.82682">
        <ele>528.2</ele>
        <time>2022-10-15 12:26:24</time>
      </trkpt>
      <trkpt lat="38.611" lon="-0.82686">
        <ele>528.2</ele>
        <time>2022-10-15 12:26:25</time>
      </trkpt>
      <trkpt lat="38.61102" lon="-0.8269">
        <ele>528</ele>
        <time>2022-10-15 12:26:26</time>
      </trkpt>
      <trkpt lat="38.61104" lon="-0.82692">
        <ele>528</ele>
        <time>2022-10-15 12:26:27</time>
      </trkpt>
      <trkpt lat="38.61105" lon="-0.82695">
        <ele>528</ele>
        <time>2022-10-15 12:26:28</time>
      </trkpt>
      <trkpt lat="38.61105" lon="-0.82698">
        <ele>528</ele>
        <time>2022-10-15 12:26:29</time>
      </trkpt>
      <trkpt lat="38.61104" lon="-0.82701">
        <ele>528</ele>
        <time>2022-10-15 12:26:30</time>
      </trkpt>
      <trkpt lat="38.61103" lon="-0.82704">
        <ele>528</ele>
        <time>2022-10-15 12:26:31</time>
      </trkpt>
      <trkpt lat="38.61102" lon="-0.82705">
        <ele>528</ele>
        <time>2022-10-15 12:26:32</time>
      </trkpt>
      <trkpt lat="38.61101" lon="-0.82705">
        <ele>528</ele>
        <time>2022-10-15 12:26:34</time>
      </trkpt>
      <trkpt lat="38.61098" lon="-0.82709">
        <ele>529</ele>
        <time>2022-10-15 12:27:09</time>
      </trkpt>
      <trkpt lat="38.61098" lon="-0.82709">
        <ele>529</ele>
        <time>2022-10-15 12:27:10</time>
      </trkpt>
      <trkpt lat="38.61096" lon="-0.82711">
        <ele>529</ele>
        <time>2022-10-15 12:27:11</time>
      </trkpt>
      <trkpt lat="38.61094" lon="-0.82713">
        <ele>529</ele>
        <time>2022-10-15 12:27:12</time>
      </trkpt>
      <trkpt lat="38.61092" lon="-0.82716">
        <ele>529</ele>
        <time>2022-10-15 12:27:13</time>
      </trkpt>
      <trkpt lat="38.6109" lon="-0.82719">
        <ele>528.8</ele>
        <time>2022-10-15 12:27:14</time>
      </trkpt>
      <trkpt lat="38.61088" lon="-0.82723">
        <ele>528.8</ele>
        <time>2022-10-15 12:27:15</time>
      </trkpt>
      <trkpt lat="38.61085" lon="-0.82727">
        <ele>528.8</ele>
        <time>2022-10-15 12:27:16</time>
      </trkpt>
      <trkpt lat="38.61082" lon="-0.8273">
        <ele>528.8</ele>
        <time>2022-10-15 12:27:17</time>
      </trkpt>
      <trkpt lat="38.61074" lon="-0.82738">
        <ele>528.6</ele>
        <time>2022-10-15 12:27:19</time>
      </trkpt>
      <trkpt lat="38.61071" lon="-0.82742">
        <ele>528.4</ele>
        <time>2022-10-15 12:27:20</time>
      </trkpt>
      <trkpt lat="38.61067" lon="-0.82746">
        <ele>528.4</ele>
        <time>2022-10-15 12:27:21</time>
      </trkpt>
      <trkpt lat="38.61063" lon="-0.8275">
        <ele>528.4</ele>
        <time>2022-10-15 12:27:22</time>
      </trkpt>
      <trkpt lat="38.61059" lon="-0.82754">
        <ele>528.2</ele>
        <time>2022-10-15 12:27:23</time>
      </trkpt>
      <trkpt lat="38.61055" lon="-0.82758">
        <ele>528</ele>
        <time>2022-10-15 12:27:24</time>
      </trkpt>
      <trkpt lat="38.61051" lon="-0.82762">
        <ele>527.8</ele>
        <time>2022-10-15 12:27:25</time>
      </trkpt>
      <trkpt lat="38.61046" lon="-0.82766">
        <ele>527.4</ele>
        <time>2022-10-15 12:27:26</time>
      </trkpt>
      <trkpt lat="38.61042" lon="-0.8277">
        <ele>527.4</ele>
        <time>2022-10-15 12:27:27</time>
      </trkpt>
      <trkpt lat="38.61028" lon="-0.82782">
        <ele>527.2</ele>
        <time>2022-10-15 12:27:29</time>
      </trkpt>
      <trkpt lat="38.61023" lon="-0.82786">
        <ele>527.2</ele>
        <time>2022-10-15 12:27:30</time>
      </trkpt>
      <trkpt lat="38.61023" lon="-0.82786">
        <ele>527.2</ele>
        <time>2022-10-15 12:27:31</time>
      </trkpt>
      <trkpt lat="38.61014" lon="-0.82794">
        <ele>527.2</ele>
        <time>2022-10-15 12:27:32</time>
      </trkpt>
      <trkpt lat="38.61009" lon="-0.82799">
        <ele>527.2</ele>
        <time>2022-10-15 12:27:33</time>
      </trkpt>
      <trkpt lat="38.61004" lon="-0.82803">
        <ele>527.2</ele>
        <time>2022-10-15 12:27:34</time>
      </trkpt>
      <trkpt lat="38.60999" lon="-0.82807">
        <ele>527.2</ele>
        <time>2022-10-15 12:27:35</time>
      </trkpt>
      <trkpt lat="38.60994" lon="-0.82812">
        <ele>527.2</ele>
        <time>2022-10-15 12:27:36</time>
      </trkpt>
      <trkpt lat="38.60994" lon="-0.82812">
        <ele>527.2</ele>
        <time>2022-10-15 12:27:37</time>
      </trkpt>
      <trkpt lat="38.60984" lon="-0.8282">
        <ele>527.2</ele>
        <time>2022-10-15 12:27:38</time>
      </trkpt>
      <trkpt lat="38.60979" lon="-0.82825">
        <ele>527.2</ele>
        <time>2022-10-15 12:27:39</time>
      </trkpt>
      <trkpt lat="38.6097" lon="-0.82833">
        <ele>527.2</ele>
        <time>2022-10-15 12:27:41</time>
      </trkpt>
      <trkpt lat="38.60965" lon="-0.82837">
        <ele>527.2</ele>
        <time>2022-10-15 12:27:42</time>
      </trkpt>
      <trkpt lat="38.60965" lon="-0.82837">
        <ele>527.2</ele>
        <time>2022-10-15 12:27:43</time>
      </trkpt>
      <trkpt lat="38.60955" lon="-0.82845">
        <ele>527.2</ele>
        <time>2022-10-15 12:27:44</time>
      </trkpt>
      <trkpt lat="38.6095" lon="-0.82849">
        <ele>527.2</ele>
        <time>2022-10-15 12:27:45</time>
      </trkpt>
      <trkpt lat="38.60946" lon="-0.82853">
        <ele>527.2</ele>
        <time>2022-10-15 12:27:46</time>
      </trkpt>
      <trkpt lat="38.60941" lon="-0.82857">
        <ele>527.2</ele>
        <time>2022-10-15 12:27:47</time>
      </trkpt>
      <trkpt lat="38.60941" lon="-0.82857">
        <ele>527.2</ele>
        <time>2022-10-15 12:27:48</time>
      </trkpt>
      <trkpt lat="38.60936" lon="-0.82861">
        <ele>527</ele>
        <time>2022-10-15 12:27:49</time>
      </trkpt>
      <trkpt lat="38.60927" lon="-0.8287">
        <ele>527</ele>
        <time>2022-10-15 12:27:50</time>
      </trkpt>
      <trkpt lat="38.60922" lon="-0.82875">
        <ele>526.6</ele>
        <time>2022-10-15 12:27:51</time>
      </trkpt>
      <trkpt lat="38.60917" lon="-0.82879">
        <ele>526.4</ele>
        <time>2022-10-15 12:27:52</time>
      </trkpt>
      <trkpt lat="38.60913" lon="-0.82884">
        <ele>526.2</ele>
        <time>2022-10-15 12:27:53</time>
      </trkpt>
      <trkpt lat="38.60908" lon="-0.82889">
        <ele>526</ele>
        <time>2022-10-15 12:27:54</time>
      </trkpt>
      <trkpt lat="38.60908" lon="-0.82889">
        <ele>526</ele>
        <time>2022-10-15 12:27:55</time>
      </trkpt>
      <trkpt lat="38.60899" lon="-0.82898">
        <ele>526</ele>
        <time>2022-10-15 12:27:56</time>
      </trkpt>
      <trkpt lat="38.60899" lon="-0.82898">
        <ele>526</ele>
        <time>2022-10-15 12:27:57</time>
      </trkpt>
      <trkpt lat="38.6089" lon="-0.82907">
        <ele>526</ele>
        <time>2022-10-15 12:27:58</time>
      </trkpt>
      <trkpt lat="38.60885" lon="-0.82912">
        <ele>525.8</ele>
        <time>2022-10-15 12:27:59</time>
      </trkpt>
      <trkpt lat="38.60881" lon="-0.82917">
        <ele>525.8</ele>
        <time>2022-10-15 12:28:00</time>
      </trkpt>
      <trkpt lat="38.60881" lon="-0.82917">
        <ele>525.6</ele>
        <time>2022-10-15 12:28:01</time>
      </trkpt>
      <trkpt lat="38.60871" lon="-0.82926">
        <ele>525.6</ele>
        <time>2022-10-15 12:28:02</time>
      </trkpt>
      <trkpt lat="38.60866" lon="-0.8293">
        <ele>525.4</ele>
        <time>2022-10-15 12:28:03</time>
      </trkpt>
      <trkpt lat="38.60861" lon="-0.82934">
        <ele>525.4</ele>
        <time>2022-10-15 12:28:04</time>
      </trkpt>
      <trkpt lat="38.60856" lon="-0.82938">
        <ele>525.4</ele>
        <time>2022-10-15 12:28:05</time>
      </trkpt>
      <trkpt lat="38.60851" lon="-0.82942">
        <ele>525.4</ele>
        <time>2022-10-15 12:28:06</time>
      </trkpt>
      <trkpt lat="38.60851" lon="-0.82942">
        <ele>525.4</ele>
        <time>2022-10-15 12:28:07</time>
      </trkpt>
      <trkpt lat="38.60841" lon="-0.8295">
        <ele>525.2</ele>
        <time>2022-10-15 12:28:08</time>
      </trkpt>
      <trkpt lat="38.60836" lon="-0.82953">
        <ele>525.2</ele>
        <time>2022-10-15 12:28:09</time>
      </trkpt>
      <trkpt lat="38.60831" lon="-0.82957">
        <ele>525.2</ele>
        <time>2022-10-15 12:28:10</time>
      </trkpt>
      <trkpt lat="38.60825" lon="-0.8296">
        <ele>525.2</ele>
        <time>2022-10-15 12:28:11</time>
      </trkpt>
      <trkpt lat="38.6082" lon="-0.82964">
        <ele>525</ele>
        <time>2022-10-15 12:28:12</time>
      </trkpt>
      <trkpt lat="38.6082" lon="-0.82964">
        <ele>525</ele>
        <time>2022-10-15 12:28:13</time>
      </trkpt>
      <trkpt lat="38.6081" lon="-0.82971">
        <ele>524.8</ele>
        <time>2022-10-15 12:28:14</time>
      </trkpt>
      <trkpt lat="38.60805" lon="-0.82974">
        <ele>524.8</ele>
        <time>2022-10-15 12:28:15</time>
      </trkpt>
      <trkpt lat="38.60799" lon="-0.82978">
        <ele>524.8</ele>
        <time>2022-10-15 12:28:16</time>
      </trkpt>
      <trkpt lat="38.60794" lon="-0.82981">
        <ele>524.8</ele>
        <time>2022-10-15 12:28:17</time>
      </trkpt>
      <trkpt lat="38.60789" lon="-0.82985">
        <ele>524.6</ele>
        <time>2022-10-15 12:28:18</time>
      </trkpt>
      <trkpt lat="38.60789" lon="-0.82985">
        <ele>524.6</ele>
        <time>2022-10-15 12:28:19</time>
      </trkpt>
      <trkpt lat="38.60779" lon="-0.82992">
        <ele>524.6</ele>
        <time>2022-10-15 12:28:20</time>
      </trkpt>
      <trkpt lat="38.60774" lon="-0.82995">
        <ele>524.6</ele>
        <time>2022-10-15 12:28:21</time>
      </trkpt>
      <trkpt lat="38.60769" lon="-0.82998">
        <ele>524.6</ele>
        <time>2022-10-15 12:28:22</time>
      </trkpt>
      <trkpt lat="38.60764" lon="-0.83001">
        <ele>524.6</ele>
        <time>2022-10-15 12:28:23</time>
      </trkpt>
      <trkpt lat="38.60759" lon="-0.83004">
        <ele>524.6</ele>
        <time>2022-10-15 12:28:24</time>
      </trkpt>
      <trkpt lat="38.60759" lon="-0.83004">
        <ele>524.6</ele>
        <time>2022-10-15 12:28:25</time>
      </trkpt>
      <trkpt lat="38.60748" lon="-0.83012">
        <ele>524.6</ele>
        <time>2022-10-15 12:28:26</time>
      </trkpt>
      <trkpt lat="38.60743" lon="-0.83016">
        <ele>524.6</ele>
        <time>2022-10-15 12:28:27</time>
      </trkpt>
      <trkpt lat="38.60738" lon="-0.83019">
        <ele>524.6</ele>
        <time>2022-10-15 12:28:28</time>
      </trkpt>
      <trkpt lat="38.60733" lon="-0.83024">
        <ele>524.4</ele>
        <time>2022-10-15 12:28:29</time>
      </trkpt>
      <trkpt lat="38.60729" lon="-0.83028">
        <ele>524.4</ele>
        <time>2022-10-15 12:28:30</time>
      </trkpt>
      <trkpt lat="38.60729" lon="-0.83028">
        <ele>524.4</ele>
        <time>2022-10-15 12:28:31</time>
      </trkpt>
      <trkpt lat="38.6072" lon="-0.83037">
        <ele>524.4</ele>
        <time>2022-10-15 12:28:32</time>
      </trkpt>
      <trkpt lat="38.60715" lon="-0.83041">
        <ele>524.4</ele>
        <time>2022-10-15 12:28:33</time>
      </trkpt>
      <trkpt lat="38.60711" lon="-0.83046">
        <ele>524.4</ele>
        <time>2022-10-15 12:28:34</time>
      </trkpt>
      <trkpt lat="38.60706" lon="-0.83051">
        <ele>524.6</ele>
        <time>2022-10-15 12:28:35</time>
      </trkpt>
      <trkpt lat="38.60702" lon="-0.83056">
        <ele>524.6</ele>
        <time>2022-10-15 12:28:36</time>
      </trkpt>
      <trkpt lat="38.60702" lon="-0.83056">
        <ele>524.6</ele>
        <time>2022-10-15 12:28:37</time>
      </trkpt>
      <trkpt lat="38.60693" lon="-0.83065">
        <ele>524.6</ele>
        <time>2022-10-15 12:28:38</time>
      </trkpt>
      <trkpt lat="38.60688" lon="-0.8307">
        <ele>524.6</ele>
        <time>2022-10-15 12:28:39</time>
      </trkpt>
      <trkpt lat="38.60684" lon="-0.83075">
        <ele>524.8</ele>
        <time>2022-10-15 12:28:40</time>
      </trkpt>
      <trkpt lat="38.60679" lon="-0.83079">
        <ele>524.8</ele>
        <time>2022-10-15 12:28:41</time>
      </trkpt>
      <trkpt lat="38.60675" lon="-0.83083">
        <ele>524.8</ele>
        <time>2022-10-15 12:28:42</time>
      </trkpt>
      <trkpt lat="38.60675" lon="-0.83083">
        <ele>524.6</ele>
        <time>2022-10-15 12:28:43</time>
      </trkpt>
      <trkpt lat="38.60666" lon="-0.83092">
        <ele>524.6</ele>
        <time>2022-10-15 12:28:44</time>
      </trkpt>
      <trkpt lat="38.60656" lon="-0.831">
        <ele>524.8</ele>
        <time>2022-10-15 12:28:46</time>
      </trkpt>
      <trkpt lat="38.60651" lon="-0.83103">
        <ele>524.8</ele>
        <time>2022-10-15 12:28:47</time>
      </trkpt>
      <trkpt lat="38.60646" lon="-0.83106">
        <ele>524.8</ele>
        <time>2022-10-15 12:28:48</time>
      </trkpt>
      <trkpt lat="38.60646" lon="-0.83106">
        <ele>524.8</ele>
        <time>2022-10-15 12:28:49</time>
      </trkpt>
      <trkpt lat="38.60635" lon="-0.83113">
        <ele>524.8</ele>
        <time>2022-10-15 12:28:50</time>
      </trkpt>
      <trkpt lat="38.6063" lon="-0.83117">
        <ele>524.8</ele>
        <time>2022-10-15 12:28:51</time>
      </trkpt>
      <trkpt lat="38.60626" lon="-0.83121">
        <ele>524.8</ele>
        <time>2022-10-15 12:28:52</time>
      </trkpt>
      <trkpt lat="38.60621" lon="-0.83125">
        <ele>524.8</ele>
        <time>2022-10-15 12:28:53</time>
      </trkpt>
      <trkpt lat="38.60617" lon="-0.83129">
        <ele>524.8</ele>
        <time>2022-10-15 12:28:54</time>
      </trkpt>
      <trkpt lat="38.60617" lon="-0.83129">
        <ele>524.8</ele>
        <time>2022-10-15 12:28:55</time>
      </trkpt>
      <trkpt lat="38.60613" lon="-0.83133">
        <ele>524.8</ele>
        <time>2022-10-15 12:28:56</time>
      </trkpt>
      <trkpt lat="38.60604" lon="-0.83142">
        <ele>524.8</ele>
        <time>2022-10-15 12:28:58</time>
      </trkpt>
      <trkpt lat="38.60599" lon="-0.83147">
        <ele>524.8</ele>
        <time>2022-10-15 12:28:59</time>
      </trkpt>
      <trkpt lat="38.60595" lon="-0.83152">
        <ele>524.8</ele>
        <time>2022-10-15 12:29:00</time>
      </trkpt>
      <trkpt lat="38.6059" lon="-0.83157">
        <ele>524.8</ele>
        <time>2022-10-15 12:29:01</time>
      </trkpt>
      <trkpt lat="38.60586" lon="-0.83163">
        <ele>524.8</ele>
        <time>2022-10-15 12:29:02</time>
      </trkpt>
      <trkpt lat="38.60582" lon="-0.83168">
        <ele>525</ele>
        <time>2022-10-15 12:29:03</time>
      </trkpt>
      <trkpt lat="38.60577" lon="-0.83173">
        <ele>525</ele>
        <time>2022-10-15 12:29:04</time>
      </trkpt>
      <trkpt lat="38.60573" lon="-0.83179">
        <ele>525</ele>
        <time>2022-10-15 12:29:05</time>
      </trkpt>
      <trkpt lat="38.60569" lon="-0.83184">
        <ele>524.8</ele>
        <time>2022-10-15 12:29:06</time>
      </trkpt>
      <trkpt lat="38.60564" lon="-0.83189">
        <ele>524.8</ele>
        <time>2022-10-15 12:29:07</time>
      </trkpt>
      <trkpt lat="38.6056" lon="-0.83194">
        <ele>524.8</ele>
        <time>2022-10-15 12:29:08</time>
      </trkpt>
      <trkpt lat="38.60551" lon="-0.83205">
        <ele>524.8</ele>
        <time>2022-10-15 12:29:10</time>
      </trkpt>
      <trkpt lat="38.60547" lon="-0.8321">
        <ele>524.8</ele>
        <time>2022-10-15 12:29:11</time>
      </trkpt>
      <trkpt lat="38.60543" lon="-0.83215">
        <ele>524.8</ele>
        <time>2022-10-15 12:29:12</time>
      </trkpt>
      <trkpt lat="38.60538" lon="-0.83219">
        <ele>524.8</ele>
        <time>2022-10-15 12:29:13</time>
      </trkpt>
      <trkpt lat="38.60529" lon="-0.83228">
        <ele>524.8</ele>
        <time>2022-10-15 12:29:14</time>
      </trkpt>
      <trkpt lat="38.60524" lon="-0.83232">
        <ele>524.6</ele>
        <time>2022-10-15 12:29:15</time>
      </trkpt>
      <trkpt lat="38.60515" lon="-0.83241">
        <ele>524.4</ele>
        <time>2022-10-15 12:29:17</time>
      </trkpt>
      <trkpt lat="38.6051" lon="-0.83245">
        <ele>524.2</ele>
        <time>2022-10-15 12:29:18</time>
      </trkpt>
      <trkpt lat="38.6051" lon="-0.83245">
        <ele>524.2</ele>
        <time>2022-10-15 12:29:19</time>
      </trkpt>
      <trkpt lat="38.60501" lon="-0.83253">
        <ele>524.2</ele>
        <time>2022-10-15 12:29:20</time>
      </trkpt>
      <trkpt lat="38.60493" lon="-0.8326">
        <ele>524.2</ele>
        <time>2022-10-15 12:29:22</time>
      </trkpt>
      <trkpt lat="38.60488" lon="-0.83264">
        <ele>524.2</ele>
        <time>2022-10-15 12:29:23</time>
      </trkpt>
      <trkpt lat="38.60484" lon="-0.83267">
        <ele>524.2</ele>
        <time>2022-10-15 12:29:24</time>
      </trkpt>
      <trkpt lat="38.60484" lon="-0.83267">
        <ele>524.2</ele>
        <time>2022-10-15 12:29:25</time>
      </trkpt>
      <trkpt lat="38.60476" lon="-0.83274">
        <ele>524.2</ele>
        <time>2022-10-15 12:29:26</time>
      </trkpt>
      <trkpt lat="38.60472" lon="-0.83277">
        <ele>524.4</ele>
        <time>2022-10-15 12:29:27</time>
      </trkpt>
      <trkpt lat="38.60468" lon="-0.83281">
        <ele>524.4</ele>
        <time>2022-10-15 12:29:28</time>
      </trkpt>
      <trkpt lat="38.60464" lon="-0.83284">
        <ele>524.6</ele>
        <time>2022-10-15 12:29:29</time>
      </trkpt>
      <trkpt lat="38.6046" lon="-0.83287">
        <ele>524.6</ele>
        <time>2022-10-15 12:29:30</time>
      </trkpt>
      <trkpt lat="38.6046" lon="-0.83287">
        <ele>524.6</ele>
        <time>2022-10-15 12:29:31</time>
      </trkpt>
      <trkpt lat="38.60452" lon="-0.83293">
        <ele>524.8</ele>
        <time>2022-10-15 12:29:32</time>
      </trkpt>
      <trkpt lat="38.60451" lon="-0.83297">
        <ele>524.8</ele>
        <time>2022-10-15 12:29:33</time>
      </trkpt>
      <trkpt lat="38.60451" lon="-0.833">
        <ele>525</ele>
        <time>2022-10-15 12:29:34</time>
      </trkpt>
      <trkpt lat="38.60453" lon="-0.83304">
        <ele>525</ele>
        <time>2022-10-15 12:29:35</time>
      </trkpt>
      <trkpt lat="38.60455" lon="-0.83308">
        <ele>525</ele>
        <time>2022-10-15 12:29:36</time>
      </trkpt>
      <trkpt lat="38.60455" lon="-0.83308">
        <ele>525.2</ele>
        <time>2022-10-15 12:29:37</time>
      </trkpt>
      <trkpt lat="38.60462" lon="-0.83317">
        <ele>525.2</ele>
        <time>2022-10-15 12:29:38</time>
      </trkpt>
      <trkpt lat="38.60465" lon="-0.83322">
        <ele>525.2</ele>
        <time>2022-10-15 12:29:39</time>
      </trkpt>
      <trkpt lat="38.60469" lon="-0.83328">
        <ele>525.2</ele>
        <time>2022-10-15 12:29:40</time>
      </trkpt>
      <trkpt lat="38.60473" lon="-0.83333">
        <ele>525.2</ele>
        <time>2022-10-15 12:29:41</time>
      </trkpt>
      <trkpt lat="38.60477" lon="-0.83339">
        <ele>525.2</ele>
        <time>2022-10-15 12:29:42</time>
      </trkpt>
      <trkpt lat="38.60477" lon="-0.83339">
        <ele>525.2</ele>
        <time>2022-10-15 12:29:43</time>
      </trkpt>
      <trkpt lat="38.60485" lon="-0.83351">
        <ele>525.2</ele>
        <time>2022-10-15 12:29:44</time>
      </trkpt>
      <trkpt lat="38.60489" lon="-0.83357">
        <ele>525</ele>
        <time>2022-10-15 12:29:45</time>
      </trkpt>
      <trkpt lat="38.60493" lon="-0.83363">
        <ele>524.8</ele>
        <time>2022-10-15 12:29:46</time>
      </trkpt>
      <trkpt lat="38.60497" lon="-0.8337">
        <ele>524.4</ele>
        <time>2022-10-15 12:29:47</time>
      </trkpt>
      <trkpt lat="38.60502" lon="-0.83376">
        <ele>524</ele>
        <time>2022-10-15 12:29:48</time>
      </trkpt>
      <trkpt lat="38.60502" lon="-0.83376">
        <ele>523.6</ele>
        <time>2022-10-15 12:29:49</time>
      </trkpt>
      <trkpt lat="38.60511" lon="-0.83388">
        <ele>522.8</ele>
        <time>2022-10-15 12:29:50</time>
      </trkpt>
      <trkpt lat="38.60516" lon="-0.83394">
        <ele>522.4</ele>
        <time>2022-10-15 12:29:51</time>
      </trkpt>
      <trkpt lat="38.60522" lon="-0.834">
        <ele>522</ele>
        <time>2022-10-15 12:29:52</time>
      </trkpt>
      <trkpt lat="38.60528" lon="-0.83405">
        <ele>521.6</ele>
        <time>2022-10-15 12:29:53</time>
      </trkpt>
      <trkpt lat="38.60533" lon="-0.8341">
        <ele>521.2</ele>
        <time>2022-10-15 12:29:54</time>
      </trkpt>
      <trkpt lat="38.60533" lon="-0.8341">
        <ele>521</ele>
        <time>2022-10-15 12:29:55</time>
      </trkpt>
      <trkpt lat="38.60544" lon="-0.83422">
        <ele>520.8</ele>
        <time>2022-10-15 12:29:56</time>
      </trkpt>
      <trkpt lat="38.6055" lon="-0.83428">
        <ele>520.4</ele>
        <time>2022-10-15 12:29:57</time>
      </trkpt>
      <trkpt lat="38.6055" lon="-0.83428">
        <ele>520</ele>
        <time>2022-10-15 12:29:58</time>
      </trkpt>
      <trkpt lat="38.60561" lon="-0.83439">
        <ele>519.6</ele>
        <time>2022-10-15 12:29:59</time>
      </trkpt>
      <trkpt lat="38.60567" lon="-0.83445">
        <ele>519.4</ele>
        <time>2022-10-15 12:30:00</time>
      </trkpt>
      <trkpt lat="38.60567" lon="-0.83445">
        <ele>518.8</ele>
        <time>2022-10-15 12:30:01</time>
      </trkpt>
      <trkpt lat="38.60578" lon="-0.83454">
        <ele>518.4</ele>
        <time>2022-10-15 12:30:02</time>
      </trkpt>
      <trkpt lat="38.60584" lon="-0.83459">
        <ele>518.2</ele>
        <time>2022-10-15 12:30:03</time>
      </trkpt>
      <trkpt lat="38.60591" lon="-0.83463">
        <ele>518</ele>
        <time>2022-10-15 12:30:04</time>
      </trkpt>
      <trkpt lat="38.60597" lon="-0.83466">
        <ele>517.8</ele>
        <time>2022-10-15 12:30:05</time>
      </trkpt>
      <trkpt lat="38.60603" lon="-0.83469">
        <ele>517.6</ele>
        <time>2022-10-15 12:30:06</time>
      </trkpt>
      <trkpt lat="38.60603" lon="-0.83469">
        <ele>517.6</ele>
        <time>2022-10-15 12:30:07</time>
      </trkpt>
      <trkpt lat="38.60617" lon="-0.83475">
        <ele>517.6</ele>
        <time>2022-10-15 12:30:08</time>
      </trkpt>
      <trkpt lat="38.60623" lon="-0.83479">
        <ele>517.4</ele>
        <time>2022-10-15 12:30:09</time>
      </trkpt>
      <trkpt lat="38.60636" lon="-0.83487">
        <ele>517.2</ele>
        <time>2022-10-15 12:30:11</time>
      </trkpt>
      <trkpt lat="38.60643" lon="-0.83491">
        <ele>517.2</ele>
        <time>2022-10-15 12:30:12</time>
      </trkpt>
      <trkpt lat="38.60643" lon="-0.83491">
        <ele>517.2</ele>
        <time>2022-10-15 12:30:13</time>
      </trkpt>
      <trkpt lat="38.60656" lon="-0.83499">
        <ele>516.8</ele>
        <time>2022-10-15 12:30:14</time>
      </trkpt>
      <trkpt lat="38.60668" lon="-0.83509">
        <ele>516.6</ele>
        <time>2022-10-15 12:30:16</time>
      </trkpt>
      <trkpt lat="38.60674" lon="-0.83514">
        <ele>516</ele>
        <time>2022-10-15 12:30:17</time>
      </trkpt>
      <trkpt lat="38.6068" lon="-0.8352">
        <ele>516</ele>
        <time>2022-10-15 12:30:18</time>
      </trkpt>
      <trkpt lat="38.6068" lon="-0.8352">
        <ele>515.6</ele>
        <time>2022-10-15 12:30:19</time>
      </trkpt>
      <trkpt lat="38.60691" lon="-0.83531">
        <ele>515.4</ele>
        <time>2022-10-15 12:30:20</time>
      </trkpt>
      <trkpt lat="38.60697" lon="-0.83537">
        <ele>515.4</ele>
        <time>2022-10-15 12:30:21</time>
      </trkpt>
      <trkpt lat="38.60702" lon="-0.83543">
        <ele>515</ele>
        <time>2022-10-15 12:30:22</time>
      </trkpt>
      <trkpt lat="38.60707" lon="-0.83549">
        <ele>514.8</ele>
        <time>2022-10-15 12:30:23</time>
      </trkpt>
      <trkpt lat="38.60712" lon="-0.83555">
        <ele>514.6</ele>
        <time>2022-10-15 12:30:24</time>
      </trkpt>
      <trkpt lat="38.60712" lon="-0.83555">
        <ele>514</ele>
        <time>2022-10-15 12:30:25</time>
      </trkpt>
      <trkpt lat="38.60723" lon="-0.83567">
        <ele>514</ele>
        <time>2022-10-15 12:30:26</time>
      </trkpt>
      <trkpt lat="38.60728" lon="-0.83572">
        <ele>513.4</ele>
        <time>2022-10-15 12:30:27</time>
      </trkpt>
      <trkpt lat="38.60735" lon="-0.83576">
        <ele>513.6</ele>
        <time>2022-10-15 12:30:28</time>
      </trkpt>
      <trkpt lat="38.60741" lon="-0.8358">
        <ele>513.4</ele>
        <time>2022-10-15 12:30:29</time>
      </trkpt>
      <trkpt lat="38.60746" lon="-0.83585">
        <ele>513.4</ele>
        <time>2022-10-15 12:30:30</time>
      </trkpt>
      <trkpt lat="38.60746" lon="-0.83585">
        <ele>513.2</ele>
        <time>2022-10-15 12:30:31</time>
      </trkpt>
      <trkpt lat="38.60757" lon="-0.83597">
        <ele>513.2</ele>
        <time>2022-10-15 12:30:32</time>
      </trkpt>
      <trkpt lat="38.60762" lon="-0.83603">
        <ele>513.2</ele>
        <time>2022-10-15 12:30:33</time>
      </trkpt>
      <trkpt lat="38.60766" lon="-0.8361">
        <ele>513.2</ele>
        <time>2022-10-15 12:30:34</time>
      </trkpt>
      <trkpt lat="38.60771" lon="-0.83616">
        <ele>513</ele>
        <time>2022-10-15 12:30:35</time>
      </trkpt>
      <trkpt lat="38.60776" lon="-0.83623">
        <ele>513</ele>
        <time>2022-10-15 12:30:36</time>
      </trkpt>
      <trkpt lat="38.60776" lon="-0.83623">
        <ele>512.8</ele>
        <time>2022-10-15 12:30:37</time>
      </trkpt>
      <trkpt lat="38.60785" lon="-0.83636">
        <ele>512.8</ele>
        <time>2022-10-15 12:30:38</time>
      </trkpt>
      <trkpt lat="38.6079" lon="-0.83643">
        <ele>512.6</ele>
        <time>2022-10-15 12:30:39</time>
      </trkpt>
      <trkpt lat="38.60794" lon="-0.8365">
        <ele>512.4</ele>
        <time>2022-10-15 12:30:40</time>
      </trkpt>
      <trkpt lat="38.60798" lon="-0.83657">
        <ele>512.2</ele>
        <time>2022-10-15 12:30:41</time>
      </trkpt>
      <trkpt lat="38.60798" lon="-0.83657">
        <ele>512</ele>
        <time>2022-10-15 12:30:42</time>
      </trkpt>
      <trkpt lat="38.60802" lon="-0.83664">
        <ele>511.8</ele>
        <time>2022-10-15 12:30:43</time>
      </trkpt>
      <trkpt lat="38.60806" lon="-0.83671">
        <ele>511.8</ele>
        <time>2022-10-15 12:30:44</time>
      </trkpt>
      <trkpt lat="38.60811" lon="-0.83678">
        <ele>511.4</ele>
        <time>2022-10-15 12:30:45</time>
      </trkpt>
      <trkpt lat="38.60815" lon="-0.83685">
        <ele>511.2</ele>
        <time>2022-10-15 12:30:46</time>
      </trkpt>
      <trkpt lat="38.60819" lon="-0.83692">
        <ele>510.8</ele>
        <time>2022-10-15 12:30:47</time>
      </trkpt>
      <trkpt lat="38.60824" lon="-0.83699">
        <ele>510.6</ele>
        <time>2022-10-15 12:30:48</time>
      </trkpt>
      <trkpt lat="38.60828" lon="-0.83707">
        <ele>510.4</ele>
        <time>2022-10-15 12:30:49</time>
      </trkpt>
      <trkpt lat="38.60833" lon="-0.83715">
        <ele>510.2</ele>
        <time>2022-10-15 12:30:50</time>
      </trkpt>
      <trkpt lat="38.60837" lon="-0.83723">
        <ele>510.2</ele>
        <time>2022-10-15 12:30:51</time>
      </trkpt>
      <trkpt lat="38.6084" lon="-0.83731">
        <ele>509.8</ele>
        <time>2022-10-15 12:30:52</time>
      </trkpt>
      <trkpt lat="38.60844" lon="-0.8374">
        <ele>509.6</ele>
        <time>2022-10-15 12:30:53</time>
      </trkpt>
      <trkpt lat="38.60848" lon="-0.83748">
        <ele>509.4</ele>
        <time>2022-10-15 12:30:54</time>
      </trkpt>
      <trkpt lat="38.60852" lon="-0.83756">
        <ele>509.2</ele>
        <time>2022-10-15 12:30:55</time>
      </trkpt>
      <trkpt lat="38.60857" lon="-0.83763">
        <ele>509.2</ele>
        <time>2022-10-15 12:30:56</time>
      </trkpt>
      <trkpt lat="38.60862" lon="-0.83771">
        <ele>508.6</ele>
        <time>2022-10-15 12:30:57</time>
      </trkpt>
      <trkpt lat="38.60867" lon="-0.83778">
        <ele>508</ele>
        <time>2022-10-15 12:30:58</time>
      </trkpt>
      <trkpt lat="38.60872" lon="-0.83784">
        <ele>507.6</ele>
        <time>2022-10-15 12:30:59</time>
      </trkpt>
      <trkpt lat="38.60882" lon="-0.83798">
        <ele>507.2</ele>
        <time>2022-10-15 12:31:00</time>
      </trkpt>
      <trkpt lat="38.60882" lon="-0.83798">
        <ele>507</ele>
        <time>2022-10-15 12:31:01</time>
      </trkpt>
      <trkpt lat="38.60893" lon="-0.8381">
        <ele>506.8</ele>
        <time>2022-10-15 12:31:02</time>
      </trkpt>
      <trkpt lat="38.60898" lon="-0.83815">
        <ele>506.6</ele>
        <time>2022-10-15 12:31:03</time>
      </trkpt>
      <trkpt lat="38.60903" lon="-0.83821">
        <ele>506.6</ele>
        <time>2022-10-15 12:31:04</time>
      </trkpt>
      <trkpt lat="38.60908" lon="-0.83827">
        <ele>506.6</ele>
        <time>2022-10-15 12:31:05</time>
      </trkpt>
      <trkpt lat="38.60912" lon="-0.83834">
        <ele>506.4</ele>
        <time>2022-10-15 12:31:06</time>
      </trkpt>
      <trkpt lat="38.60912" lon="-0.83834">
        <ele>506.4</ele>
        <time>2022-10-15 12:31:07</time>
      </trkpt>
      <trkpt lat="38.60924" lon="-0.83846">
        <ele>506.4</ele>
        <time>2022-10-15 12:31:08</time>
      </trkpt>
      <trkpt lat="38.60931" lon="-0.83851">
        <ele>506.4</ele>
        <time>2022-10-15 12:31:09</time>
      </trkpt>
      <trkpt lat="38.60938" lon="-0.83855">
        <ele>506.2</ele>
        <time>2022-10-15 12:31:10</time>
      </trkpt>
      <trkpt lat="38.60945" lon="-0.83859">
        <ele>506</ele>
        <time>2022-10-15 12:31:11</time>
      </trkpt>
      <trkpt lat="38.60952" lon="-0.83863">
        <ele>505.6</ele>
        <time>2022-10-15 12:31:12</time>
      </trkpt>
      <trkpt lat="38.60952" lon="-0.83863">
        <ele>505.4</ele>
        <time>2022-10-15 12:31:13</time>
      </trkpt>
      <trkpt lat="38.60965" lon="-0.83871">
        <ele>504.8</ele>
        <time>2022-10-15 12:31:14</time>
      </trkpt>
      <trkpt lat="38.60972" lon="-0.83875">
        <ele>504.4</ele>
        <time>2022-10-15 12:31:15</time>
      </trkpt>
      <trkpt lat="38.60978" lon="-0.83879">
        <ele>503.8</ele>
        <time>2022-10-15 12:31:16</time>
      </trkpt>
      <trkpt lat="38.60984" lon="-0.83885">
        <ele>503.4</ele>
        <time>2022-10-15 12:31:17</time>
      </trkpt>
      <trkpt lat="38.6099" lon="-0.83891">
        <ele>503</ele>
        <time>2022-10-15 12:31:18</time>
      </trkpt>
      <trkpt lat="38.6099" lon="-0.83891">
        <ele>502.8</ele>
        <time>2022-10-15 12:31:19</time>
      </trkpt>
      <trkpt lat="38.61001" lon="-0.83903">
        <ele>502.8</ele>
        <time>2022-10-15 12:31:20</time>
      </trkpt>
      <trkpt lat="38.61007" lon="-0.83909">
        <ele>502.8</ele>
        <time>2022-10-15 12:31:21</time>
      </trkpt>
      <trkpt lat="38.61012" lon="-0.83916">
        <ele>502.6</ele>
        <time>2022-10-15 12:31:22</time>
      </trkpt>
      <trkpt lat="38.61018" lon="-0.83922">
        <ele>502.6</ele>
        <time>2022-10-15 12:31:23</time>
      </trkpt>
      <trkpt lat="38.61023" lon="-0.83927">
        <ele>502.6</ele>
        <time>2022-10-15 12:31:24</time>
      </trkpt>
      <trkpt lat="38.61023" lon="-0.83927">
        <ele>502.2</ele>
        <time>2022-10-15 12:31:25</time>
      </trkpt>
      <trkpt lat="38.61034" lon="-0.83937">
        <ele>502</ele>
        <time>2022-10-15 12:31:26</time>
      </trkpt>
      <trkpt lat="38.6104" lon="-0.83942">
        <ele>501.6</ele>
        <time>2022-10-15 12:31:27</time>
      </trkpt>
      <trkpt lat="38.61046" lon="-0.83947">
        <ele>501.2</ele>
        <time>2022-10-15 12:31:28</time>
      </trkpt>
      <trkpt lat="38.61052" lon="-0.83951">
        <ele>501</ele>
        <time>2022-10-15 12:31:29</time>
      </trkpt>
      <trkpt lat="38.61057" lon="-0.83955">
        <ele>500.8</ele>
        <time>2022-10-15 12:31:30</time>
      </trkpt>
      <trkpt lat="38.61057" lon="-0.83955">
        <ele>500.8</ele>
        <time>2022-10-15 12:31:31</time>
      </trkpt>
      <trkpt lat="38.61069" lon="-0.83963">
        <ele>500.8</ele>
        <time>2022-10-15 12:31:32</time>
      </trkpt>
      <trkpt lat="38.61069" lon="-0.83963">
        <ele>500.6</ele>
        <time>2022-10-15 12:31:33</time>
      </trkpt>
      <trkpt lat="38.61081" lon="-0.83971">
        <ele>500.6</ele>
        <time>2022-10-15 12:31:34</time>
      </trkpt>
      <trkpt lat="38.61086" lon="-0.83975">
        <ele>500.6</ele>
        <time>2022-10-15 12:31:35</time>
      </trkpt>
      <trkpt lat="38.61092" lon="-0.83978">
        <ele>500.6</ele>
        <time>2022-10-15 12:31:36</time>
      </trkpt>
      <trkpt lat="38.61092" lon="-0.83978">
        <ele>500.6</ele>
        <time>2022-10-15 12:31:37</time>
      </trkpt>
      <trkpt lat="38.61104" lon="-0.83986">
        <ele>500.4</ele>
        <time>2022-10-15 12:31:38</time>
      </trkpt>
      <trkpt lat="38.6111" lon="-0.8399">
        <ele>500.4</ele>
        <time>2022-10-15 12:31:39</time>
      </trkpt>
      <trkpt lat="38.61115" lon="-0.83994">
        <ele>500.2</ele>
        <time>2022-10-15 12:31:40</time>
      </trkpt>
      <trkpt lat="38.6112" lon="-0.83998">
        <ele>500</ele>
        <time>2022-10-15 12:31:41</time>
      </trkpt>
      <trkpt lat="38.61126" lon="-0.84002">
        <ele>500</ele>
        <time>2022-10-15 12:31:42</time>
      </trkpt>
      <trkpt lat="38.61126" lon="-0.84002">
        <ele>500</ele>
        <time>2022-10-15 12:31:43</time>
      </trkpt>
      <trkpt lat="38.61137" lon="-0.84009">
        <ele>500</ele>
        <time>2022-10-15 12:31:44</time>
      </trkpt>
      <trkpt lat="38.61143" lon="-0.84013">
        <ele>499.8</ele>
        <time>2022-10-15 12:31:45</time>
      </trkpt>
      <trkpt lat="38.61148" lon="-0.84017">
        <ele>499.8</ele>
        <time>2022-10-15 12:31:46</time>
      </trkpt>
      <trkpt lat="38.61154" lon="-0.8402">
        <ele>499.8</ele>
        <time>2022-10-15 12:31:47</time>
      </trkpt>
      <trkpt lat="38.61159" lon="-0.84024">
        <ele>499.8</ele>
        <time>2022-10-15 12:31:48</time>
      </trkpt>
      <trkpt lat="38.61159" lon="-0.84024">
        <ele>499.8</ele>
        <time>2022-10-15 12:31:49</time>
      </trkpt>
      <trkpt lat="38.61171" lon="-0.84031">
        <ele>499.6</ele>
        <time>2022-10-15 12:31:50</time>
      </trkpt>
      <trkpt lat="38.61176" lon="-0.84035">
        <ele>499.6</ele>
        <time>2022-10-15 12:31:51</time>
      </trkpt>
      <trkpt lat="38.61182" lon="-0.84038">
        <ele>499.6</ele>
        <time>2022-10-15 12:31:52</time>
      </trkpt>
      <trkpt lat="38.61187" lon="-0.84042">
        <ele>499.6</ele>
        <time>2022-10-15 12:31:53</time>
      </trkpt>
      <trkpt lat="38.61187" lon="-0.84042">
        <ele>499.6</ele>
        <time>2022-10-15 12:31:54</time>
      </trkpt>
      <trkpt lat="38.61193" lon="-0.84046">
        <ele>499.4</ele>
        <time>2022-10-15 12:31:55</time>
      </trkpt>
      <trkpt lat="38.61204" lon="-0.84053">
        <ele>499.4</ele>
        <time>2022-10-15 12:31:56</time>
      </trkpt>
      <trkpt lat="38.61204" lon="-0.84053">
        <ele>499.4</ele>
        <time>2022-10-15 12:31:57</time>
      </trkpt>
      <trkpt lat="38.61214" lon="-0.84062">
        <ele>499.2</ele>
        <time>2022-10-15 12:31:58</time>
      </trkpt>
      <trkpt lat="38.61218" lon="-0.84067">
        <ele>499</ele>
        <time>2022-10-15 12:31:59</time>
      </trkpt>
      <trkpt lat="38.61222" lon="-0.84073">
        <ele>498.8</ele>
        <time>2022-10-15 12:32:00</time>
      </trkpt>
      <trkpt lat="38.61222" lon="-0.84073">
        <ele>498.6</ele>
        <time>2022-10-15 12:32:01</time>
      </trkpt>
      <trkpt lat="38.6123" lon="-0.84083">
        <ele>498.6</ele>
        <time>2022-10-15 12:32:02</time>
      </trkpt>
      <trkpt lat="38.61234" lon="-0.84089">
        <ele>498.6</ele>
        <time>2022-10-15 12:32:03</time>
      </trkpt>
      <trkpt lat="38.61238" lon="-0.84094">
        <ele>498.4</ele>
        <time>2022-10-15 12:32:04</time>
      </trkpt>
      <trkpt lat="38.61242" lon="-0.841">
        <ele>498.2</ele>
        <time>2022-10-15 12:32:05</time>
      </trkpt>
      <trkpt lat="38.61246" lon="-0.84105">
        <ele>498.4</ele>
        <time>2022-10-15 12:32:06</time>
      </trkpt>
      <trkpt lat="38.61246" lon="-0.84105">
        <ele>498.2</ele>
        <time>2022-10-15 12:32:07</time>
      </trkpt>
      <trkpt lat="38.61254" lon="-0.84116">
        <ele>498.2</ele>
        <time>2022-10-15 12:32:08</time>
      </trkpt>
      <trkpt lat="38.61258" lon="-0.84121">
        <ele>498</ele>
        <time>2022-10-15 12:32:09</time>
      </trkpt>
      <trkpt lat="38.61263" lon="-0.84126">
        <ele>498</ele>
        <time>2022-10-15 12:32:10</time>
      </trkpt>
      <trkpt lat="38.61267" lon="-0.84131">
        <ele>498</ele>
        <time>2022-10-15 12:32:11</time>
      </trkpt>
      <trkpt lat="38.61271" lon="-0.84135">
        <ele>497.8</ele>
        <time>2022-10-15 12:32:12</time>
      </trkpt>
      <trkpt lat="38.61271" lon="-0.84135">
        <ele>497.8</ele>
        <time>2022-10-15 12:32:13</time>
      </trkpt>
      <trkpt lat="38.61279" lon="-0.84145">
        <ele>497.8</ele>
        <time>2022-10-15 12:32:14</time>
      </trkpt>
      <trkpt lat="38.61283" lon="-0.84151">
        <ele>497.8</ele>
        <time>2022-10-15 12:32:15</time>
      </trkpt>
      <trkpt lat="38.61286" lon="-0.84156">
        <ele>497.8</ele>
        <time>2022-10-15 12:32:16</time>
      </trkpt>
      <trkpt lat="38.6129" lon="-0.84161">
        <ele>497.6</ele>
        <time>2022-10-15 12:32:17</time>
      </trkpt>
      <trkpt lat="38.61294" lon="-0.84166">
        <ele>497.6</ele>
        <time>2022-10-15 12:32:18</time>
      </trkpt>
      <trkpt lat="38.61294" lon="-0.84166">
        <ele>497.6</ele>
        <time>2022-10-15 12:32:19</time>
      </trkpt>
      <trkpt lat="38.61302" lon="-0.84176">
        <ele>497.4</ele>
        <time>2022-10-15 12:32:20</time>
      </trkpt>
      <trkpt lat="38.61306" lon="-0.84181">
        <ele>497.4</ele>
        <time>2022-10-15 12:32:21</time>
      </trkpt>
      <trkpt lat="38.6131" lon="-0.84186">
        <ele>497.4</ele>
        <time>2022-10-15 12:32:22</time>
      </trkpt>
      <trkpt lat="38.61314" lon="-0.84191">
        <ele>497.2</ele>
        <time>2022-10-15 12:32:23</time>
      </trkpt>
      <trkpt lat="38.61318" lon="-0.84196">
        <ele>497.2</ele>
        <time>2022-10-15 12:32:24</time>
      </trkpt>
      <trkpt lat="38.61318" lon="-0.84196">
        <ele>497.2</ele>
        <time>2022-10-15 12:32:25</time>
      </trkpt>
      <trkpt lat="38.61326" lon="-0.84206">
        <ele>497.2</ele>
        <time>2022-10-15 12:32:26</time>
      </trkpt>
      <trkpt lat="38.61326" lon="-0.84206">
        <ele>497.2</ele>
        <time>2022-10-15 12:32:27</time>
      </trkpt>
      <trkpt lat="38.6133" lon="-0.84211">
        <ele>497.2</ele>
        <time>2022-10-15 12:32:28</time>
      </trkpt>
      <trkpt lat="38.61334" lon="-0.84216">
        <ele>497.2</ele>
        <time>2022-10-15 12:32:29</time>
      </trkpt>
      <trkpt lat="38.61337" lon="-0.84221">
        <ele>497.2</ele>
        <time>2022-10-15 12:32:30</time>
      </trkpt>
      <trkpt lat="38.61341" lon="-0.84226">
        <ele>497</ele>
        <time>2022-10-15 12:32:31</time>
      </trkpt>
      <trkpt lat="38.61345" lon="-0.84231">
        <ele>497</ele>
        <time>2022-10-15 12:32:32</time>
      </trkpt>
      <trkpt lat="38.61349" lon="-0.84236">
        <ele>497</ele>
        <time>2022-10-15 12:32:33</time>
      </trkpt>
      <trkpt lat="38.61353" lon="-0.84241">
        <ele>496.8</ele>
        <time>2022-10-15 12:32:34</time>
      </trkpt>
      <trkpt lat="38.61357" lon="-0.84247">
        <ele>496.6</ele>
        <time>2022-10-15 12:32:35</time>
      </trkpt>
      <trkpt lat="38.61365" lon="-0.84257">
        <ele>496.6</ele>
        <time>2022-10-15 12:32:36</time>
      </trkpt>
      <trkpt lat="38.61365" lon="-0.84257">
        <ele>496.4</ele>
        <time>2022-10-15 12:32:37</time>
      </trkpt>
      <trkpt lat="38.61369" lon="-0.84263">
        <ele>496.4</ele>
        <time>2022-10-15 12:32:38</time>
      </trkpt>
      <trkpt lat="38.61373" lon="-0.84268">
        <ele>496.2</ele>
        <time>2022-10-15 12:32:39</time>
      </trkpt>
      <trkpt lat="38.61377" lon="-0.84274">
        <ele>496.2</ele>
        <time>2022-10-15 12:32:40</time>
      </trkpt>
      <trkpt lat="38.61381" lon="-0.8428">
        <ele>496.2</ele>
        <time>2022-10-15 12:32:41</time>
      </trkpt>
      <trkpt lat="38.61385" lon="-0.84285">
        <ele>496.2</ele>
        <time>2022-10-15 12:32:42</time>
      </trkpt>
      <trkpt lat="38.61389" lon="-0.84291">
        <ele>496.2</ele>
        <time>2022-10-15 12:32:43</time>
      </trkpt>
      <trkpt lat="38.61394" lon="-0.84296">
        <ele>496.2</ele>
        <time>2022-10-15 12:32:44</time>
      </trkpt>
      <trkpt lat="38.61398" lon="-0.84301">
        <ele>496.2</ele>
        <time>2022-10-15 12:32:45</time>
      </trkpt>
      <trkpt lat="38.61408" lon="-0.8431">
        <ele>496</ele>
        <time>2022-10-15 12:32:46</time>
      </trkpt>
      <trkpt lat="38.61413" lon="-0.84315">
        <ele>496</ele>
        <time>2022-10-15 12:32:47</time>
      </trkpt>
      <trkpt lat="38.61417" lon="-0.84319">
        <ele>496</ele>
        <time>2022-10-15 12:32:48</time>
      </trkpt>
      <trkpt lat="38.61417" lon="-0.84319">
        <ele>496</ele>
        <time>2022-10-15 12:32:49</time>
      </trkpt>
      <trkpt lat="38.61427" lon="-0.84329">
        <ele>496</ele>
        <time>2022-10-15 12:32:50</time>
      </trkpt>
      <trkpt lat="38.61427" lon="-0.84329">
        <ele>496</ele>
        <time>2022-10-15 12:32:51</time>
      </trkpt>
      <trkpt lat="38.61432" lon="-0.84334">
        <ele>496</ele>
        <time>2022-10-15 12:32:52</time>
      </trkpt>
      <trkpt lat="38.61437" lon="-0.84338">
        <ele>495.8</ele>
        <time>2022-10-15 12:32:53</time>
      </trkpt>
      <trkpt lat="38.61441" lon="-0.84343">
        <ele>495.8</ele>
        <time>2022-10-15 12:32:54</time>
      </trkpt>
      <trkpt lat="38.61446" lon="-0.84348">
        <ele>495.8</ele>
        <time>2022-10-15 12:32:55</time>
      </trkpt>
      <trkpt lat="38.61451" lon="-0.84352">
        <ele>495.8</ele>
        <time>2022-10-15 12:32:56</time>
      </trkpt>
      <trkpt lat="38.61455" lon="-0.84357">
        <ele>495.8</ele>
        <time>2022-10-15 12:32:57</time>
      </trkpt>
      <trkpt lat="38.6146" lon="-0.84361">
        <ele>495.8</ele>
        <time>2022-10-15 12:32:58</time>
      </trkpt>
      <trkpt lat="38.61464" lon="-0.84366">
        <ele>495.8</ele>
        <time>2022-10-15 12:32:59</time>
      </trkpt>
      <trkpt lat="38.61469" lon="-0.8437">
        <ele>495.8</ele>
        <time>2022-10-15 12:33:00</time>
      </trkpt>
      <trkpt lat="38.61474" lon="-0.84373">
        <ele>495.8</ele>
        <time>2022-10-15 12:33:01</time>
      </trkpt>
      <trkpt lat="38.61478" lon="-0.84377">
        <ele>495.8</ele>
        <time>2022-10-15 12:33:02</time>
      </trkpt>
      <trkpt lat="38.61482" lon="-0.84381">
        <ele>495.8</ele>
        <time>2022-10-15 12:33:03</time>
      </trkpt>
      <trkpt lat="38.61485" lon="-0.84386">
        <ele>495.8</ele>
        <time>2022-10-15 12:33:04</time>
      </trkpt>
      <trkpt lat="38.61487" lon="-0.84391">
        <ele>495.8</ele>
        <time>2022-10-15 12:33:05</time>
      </trkpt>
      <trkpt lat="38.61488" lon="-0.84397">
        <ele>496</ele>
        <time>2022-10-15 12:33:06</time>
      </trkpt>
      <trkpt lat="38.61487" lon="-0.84402">
        <ele>496</ele>
        <time>2022-10-15 12:33:07</time>
      </trkpt>
      <trkpt lat="38.61484" lon="-0.84407">
        <ele>496</ele>
        <time>2022-10-15 12:33:08</time>
      </trkpt>
      <trkpt lat="38.61481" lon="-0.84411">
        <ele>496</ele>
        <time>2022-10-15 12:33:09</time>
      </trkpt>
      <trkpt lat="38.61476" lon="-0.84415">
        <ele>496</ele>
        <time>2022-10-15 12:33:10</time>
      </trkpt>
      <trkpt lat="38.61472" lon="-0.84418">
        <ele>496</ele>
        <time>2022-10-15 12:33:11</time>
      </trkpt>
      <trkpt lat="38.61467" lon="-0.84421">
        <ele>496</ele>
        <time>2022-10-15 12:33:12</time>
      </trkpt>
      <trkpt lat="38.61462" lon="-0.84425">
        <ele>496</ele>
        <time>2022-10-15 12:33:13</time>
      </trkpt>
      <trkpt lat="38.61457" lon="-0.84429">
        <ele>496</ele>
        <time>2022-10-15 12:33:14</time>
      </trkpt>
      <trkpt lat="38.61452" lon="-0.84432">
        <ele>496</ele>
        <time>2022-10-15 12:33:15</time>
      </trkpt>
      <trkpt lat="38.61447" lon="-0.84435">
        <ele>496</ele>
        <time>2022-10-15 12:33:16</time>
      </trkpt>
      <trkpt lat="38.61442" lon="-0.84439">
        <ele>496</ele>
        <time>2022-10-15 12:33:17</time>
      </trkpt>
      <trkpt lat="38.61437" lon="-0.84442">
        <ele>496</ele>
        <time>2022-10-15 12:33:18</time>
      </trkpt>
      <trkpt lat="38.61432" lon="-0.84446">
        <ele>495.8</ele>
        <time>2022-10-15 12:33:19</time>
      </trkpt>
      <trkpt lat="38.61427" lon="-0.84449">
        <ele>495.8</ele>
        <time>2022-10-15 12:33:20</time>
      </trkpt>
      <trkpt lat="38.61422" lon="-0.84452">
        <ele>495.8</ele>
        <time>2022-10-15 12:33:21</time>
      </trkpt>
      <trkpt lat="38.61416" lon="-0.84456">
        <ele>495.8</ele>
        <time>2022-10-15 12:33:22</time>
      </trkpt>
      <trkpt lat="38.61411" lon="-0.8446">
        <ele>495.8</ele>
        <time>2022-10-15 12:33:23</time>
      </trkpt>
      <trkpt lat="38.61406" lon="-0.84464">
        <ele>495.8</ele>
        <time>2022-10-15 12:33:24</time>
      </trkpt>
      <trkpt lat="38.61401" lon="-0.84467">
        <ele>495.6</ele>
        <time>2022-10-15 12:33:25</time>
      </trkpt>
      <trkpt lat="38.61396" lon="-0.84471">
        <ele>495.6</ele>
        <time>2022-10-15 12:33:26</time>
      </trkpt>
      <trkpt lat="38.6139" lon="-0.84475">
        <ele>495.4</ele>
        <time>2022-10-15 12:33:27</time>
      </trkpt>
      <trkpt lat="38.61385" lon="-0.84478">
        <ele>495.4</ele>
        <time>2022-10-15 12:33:28</time>
      </trkpt>
      <trkpt lat="38.6138" lon="-0.84482">
        <ele>495.4</ele>
        <time>2022-10-15 12:33:29</time>
      </trkpt>
      <trkpt lat="38.61374" lon="-0.84486">
        <ele>495.4</ele>
        <time>2022-10-15 12:33:30</time>
      </trkpt>
      <trkpt lat="38.61369" lon="-0.84489">
        <ele>495.2</ele>
        <time>2022-10-15 12:33:31</time>
      </trkpt>
      <trkpt lat="38.61358" lon="-0.84497">
        <ele>495.2</ele>
        <time>2022-10-15 12:33:32</time>
      </trkpt>
      <trkpt lat="38.61358" lon="-0.84497">
        <ele>495.2</ele>
        <time>2022-10-15 12:33:33</time>
      </trkpt>
      <trkpt lat="38.61352" lon="-0.84501">
        <ele>495.2</ele>
        <time>2022-10-15 12:33:34</time>
      </trkpt>
      <trkpt lat="38.61347" lon="-0.84505">
        <ele>495.2</ele>
        <time>2022-10-15 12:33:35</time>
      </trkpt>
      <trkpt lat="38.61342" lon="-0.84509">
        <ele>495.2</ele>
        <time>2022-10-15 12:33:36</time>
      </trkpt>
      <trkpt lat="38.61336" lon="-0.84512">
        <ele>495.2</ele>
        <time>2022-10-15 12:33:37</time>
      </trkpt>
      <trkpt lat="38.61331" lon="-0.84516">
        <ele>495.2</ele>
        <time>2022-10-15 12:33:38</time>
      </trkpt>
      <trkpt lat="38.61326" lon="-0.8452">
        <ele>495.2</ele>
        <time>2022-10-15 12:33:39</time>
      </trkpt>
      <trkpt lat="38.61321" lon="-0.84524">
        <ele>495.2</ele>
        <time>2022-10-15 12:33:40</time>
      </trkpt>
      <trkpt lat="38.61316" lon="-0.84528">
        <ele>495.2</ele>
        <time>2022-10-15 12:33:41</time>
      </trkpt>
      <trkpt lat="38.61311" lon="-0.84531">
        <ele>495.2</ele>
        <time>2022-10-15 12:33:42</time>
      </trkpt>
      <trkpt lat="38.61306" lon="-0.84535">
        <ele>495.2</ele>
        <time>2022-10-15 12:33:43</time>
      </trkpt>
      <trkpt lat="38.613" lon="-0.84539">
        <ele>495.2</ele>
        <time>2022-10-15 12:33:44</time>
      </trkpt>
      <trkpt lat="38.61296" lon="-0.84543">
        <ele>495.2</ele>
        <time>2022-10-15 12:33:45</time>
      </trkpt>
      <trkpt lat="38.61291" lon="-0.84546">
        <ele>495.2</ele>
        <time>2022-10-15 12:33:46</time>
      </trkpt>
      <trkpt lat="38.61287" lon="-0.84549">
        <ele>495.2</ele>
        <time>2022-10-15 12:33:47</time>
      </trkpt>
      <trkpt lat="38.61282" lon="-0.84552">
        <ele>495.2</ele>
        <time>2022-10-15 12:33:48</time>
      </trkpt>
      <trkpt lat="38.61277" lon="-0.84555">
        <ele>495.2</ele>
        <time>2022-10-15 12:33:49</time>
      </trkpt>
      <trkpt lat="38.61273" lon="-0.84558">
        <ele>495.2</ele>
        <time>2022-10-15 12:33:50</time>
      </trkpt>
      <trkpt lat="38.61268" lon="-0.84561">
        <ele>495.2</ele>
        <time>2022-10-15 12:33:51</time>
      </trkpt>
      <trkpt lat="38.61264" lon="-0.84565">
        <ele>495.2</ele>
        <time>2022-10-15 12:33:52</time>
      </trkpt>
      <trkpt lat="38.61259" lon="-0.84568">
        <ele>495.2</ele>
        <time>2022-10-15 12:33:53</time>
      </trkpt>
      <trkpt lat="38.61254" lon="-0.84571">
        <ele>495.4</ele>
        <time>2022-10-15 12:33:54</time>
      </trkpt>
      <trkpt lat="38.6125" lon="-0.84574">
        <ele>495.4</ele>
        <time>2022-10-15 12:33:55</time>
      </trkpt>
      <trkpt lat="38.61245" lon="-0.84576">
        <ele>495.4</ele>
        <time>2022-10-15 12:33:56</time>
      </trkpt>
      <trkpt lat="38.61241" lon="-0.84579">
        <ele>495.6</ele>
        <time>2022-10-15 12:33:57</time>
      </trkpt>
      <trkpt lat="38.61237" lon="-0.84581">
        <ele>495.6</ele>
        <time>2022-10-15 12:33:58</time>
      </trkpt>
      <trkpt lat="38.61233" lon="-0.84584">
        <ele>495.6</ele>
        <time>2022-10-15 12:33:59</time>
      </trkpt>
      <trkpt lat="38.6123" lon="-0.84587">
        <ele>495.6</ele>
        <time>2022-10-15 12:34:00</time>
      </trkpt>
      <trkpt lat="38.61226" lon="-0.8459">
        <ele>495.6</ele>
        <time>2022-10-15 12:34:01</time>
      </trkpt>
      <trkpt lat="38.61222" lon="-0.84593">
        <ele>495.6</ele>
        <time>2022-10-15 12:34:02</time>
      </trkpt>
      <trkpt lat="38.61219" lon="-0.84596">
        <ele>495.6</ele>
        <time>2022-10-15 12:34:03</time>
      </trkpt>
      <trkpt lat="38.61215" lon="-0.84598">
        <ele>495.6</ele>
        <time>2022-10-15 12:34:04</time>
      </trkpt>
      <trkpt lat="38.61212" lon="-0.846">
        <ele>495.6</ele>
        <time>2022-10-15 12:34:05</time>
      </trkpt>
      <trkpt lat="38.61208" lon="-0.84602">
        <ele>495.6</ele>
        <time>2022-10-15 12:34:06</time>
      </trkpt>
      <trkpt lat="38.61205" lon="-0.84604">
        <ele>495.6</ele>
        <time>2022-10-15 12:34:07</time>
      </trkpt>
      <trkpt lat="38.61202" lon="-0.84604">
        <ele>495.8</ele>
        <time>2022-10-15 12:34:08</time>
      </trkpt>
      <trkpt lat="38.612" lon="-0.84605">
        <ele>495.8</ele>
        <time>2022-10-15 12:34:09</time>
      </trkpt>
      <trkpt lat="38.61198" lon="-0.84606">
        <ele>495.8</ele>
        <time>2022-10-15 12:34:10</time>
      </trkpt>
      <trkpt lat="38.61198" lon="-0.84608">
        <ele>496</ele>
        <time>2022-10-15 12:34:11</time>
      </trkpt>
      <trkpt lat="38.61198" lon="-0.8461">
        <ele>496</ele>
        <time>2022-10-15 12:34:12</time>
      </trkpt>
      <trkpt lat="38.61199" lon="-0.84612">
        <ele>496</ele>
        <time>2022-10-15 12:34:13</time>
      </trkpt>
      <trkpt lat="38.61199" lon="-0.84613">
        <ele>496</ele>
        <time>2022-10-15 12:34:14</time>
      </trkpt>
      <trkpt lat="38.612" lon="-0.84615">
        <ele>496</ele>
        <time>2022-10-15 12:34:15</time>
      </trkpt>
      <trkpt lat="38.612" lon="-0.84616">
        <ele>495.8</ele>
        <time>2022-10-15 12:34:16</time>
      </trkpt>
      <trkpt lat="38.61201" lon="-0.84617">
        <ele>495.8</ele>
        <time>2022-10-15 12:34:17</time>
      </trkpt>
      <trkpt lat="38.61201" lon="-0.84618">
        <ele>495.8</ele>
        <time>2022-10-15 12:34:18</time>
      </trkpt>
      <trkpt lat="38.61201" lon="-0.84619">
        <ele>495.8</ele>
        <time>2022-10-15 12:34:19</time>
      </trkpt>
      <trkpt lat="38.61201" lon="-0.8462">
        <ele>495.8</ele>
        <time>2022-10-15 12:34:20</time>
      </trkpt>
      <trkpt lat="38.61201" lon="-0.84621">
        <ele>495.2</ele>
        <time>2022-10-15 12:34:21</time>
      </trkpt>
      <trkpt lat="38.61201" lon="-0.84622">
        <ele>494.8</ele>
        <time>2022-10-15 12:34:22</time>
      </trkpt>
      <trkpt lat="38.612" lon="-0.84623">
        <ele>494.6</ele>
        <time>2022-10-15 12:34:23</time>
      </trkpt>
      <trkpt lat="38.61199" lon="-0.84624">
        <ele>494.4</ele>
        <time>2022-10-15 12:34:24</time>
      </trkpt>
      <trkpt lat="38.61198" lon="-0.84624">
        <ele>494.4</ele>
        <time>2022-10-15 12:34:25</time>
      </trkpt>
      <trkpt lat="38.61197" lon="-0.84625">
        <ele>494.2</ele>
        <time>2022-10-15 12:34:26</time>
      </trkpt>
      <trkpt lat="38.61194" lon="-0.84625">
        <ele>494.2</ele>
        <time>2022-10-15 12:34:27</time>
      </trkpt>
      <trkpt lat="38.61193" lon="-0.84626">
        <ele>494.2</ele>
        <time>2022-10-15 12:34:28</time>
      </trkpt>
      <trkpt lat="38.61191" lon="-0.84627">
        <ele>494.2</ele>
        <time>2022-10-15 12:34:29</time>
      </trkpt>
      <trkpt lat="38.61173" lon="-0.84637">
        <ele>494</ele>
        <time>2022-10-15 12:34:30</time>
      </trkpt>
      <trkpt lat="38.61171" lon="-0.84639">
        <ele>494</ele>
        <time>2022-10-15 12:34:31</time>
      </trkpt>
      <trkpt lat="38.61168" lon="-0.84641">
        <ele>494</ele>
        <time>2022-10-15 12:34:32</time>
      </trkpt>
      <trkpt lat="38.61166" lon="-0.84642">
        <ele>494</ele>
        <time>2022-10-15 12:34:33</time>
      </trkpt>
      <trkpt lat="38.61164" lon="-0.84644">
        <ele>494</ele>
        <time>2022-10-15 12:34:34</time>
      </trkpt>
      <trkpt lat="38.61161" lon="-0.84646">
        <ele>494</ele>
        <time>2022-10-15 12:34:35</time>
      </trkpt>
      <trkpt lat="38.61158" lon="-0.84647">
        <ele>494</ele>
        <time>2022-10-15 12:34:36</time>
      </trkpt>
      <trkpt lat="38.61157" lon="-0.84649">
        <ele>494</ele>
        <time>2022-10-15 12:34:37</time>
      </trkpt>
      <trkpt lat="38.61155" lon="-0.84652">
        <ele>494</ele>
        <time>2022-10-15 12:34:38</time>
      </trkpt>
      <trkpt lat="38.61153" lon="-0.84655">
        <ele>494</ele>
        <time>2022-10-15 12:34:39</time>
      </trkpt>
      <trkpt lat="38.6115" lon="-0.8465">
        <ele>494</ele>
        <time>2022-10-15 12:34:40</time>
      </trkpt>
      <trkpt lat="38.61147" lon="-0.84654">
        <ele>494</ele>
        <time>2022-10-15 12:34:41</time>
      </trkpt>
      <trkpt lat="38.61145" lon="-0.84657">
        <ele>494.2</ele>
        <time>2022-10-15 12:34:42</time>
      </trkpt>
      <trkpt lat="38.61143" lon="-0.84658">
        <ele>494.2</ele>
        <time>2022-10-15 12:34:43</time>
      </trkpt>
      <trkpt lat="38.61143" lon="-0.84658">
        <ele>494.2</ele>
        <time>2022-10-15 12:34:44</time>
      </trkpt>
      <trkpt lat="38.6114" lon="-0.84659">
        <ele>494.2</ele>
        <time>2022-10-15 12:34:45</time>
      </trkpt>
      <trkpt lat="38.61137" lon="-0.84661">
        <ele>494.2</ele>
        <time>2022-10-15 12:34:46</time>
      </trkpt>
      <trkpt lat="38.61135" lon="-0.84663">
        <ele>494.2</ele>
        <time>2022-10-15 12:34:47</time>
      </trkpt>
      <trkpt lat="38.61132" lon="-0.84665">
        <ele>494.2</ele>
        <time>2022-10-15 12:34:48</time>
      </trkpt>
      <trkpt lat="38.61129" lon="-0.84667">
        <ele>494.2</ele>
        <time>2022-10-15 12:34:49</time>
      </trkpt>
      <trkpt lat="38.61125" lon="-0.84668">
        <ele>494.2</ele>
        <time>2022-10-15 12:34:50</time>
      </trkpt>
      <trkpt lat="38.61122" lon="-0.8467">
        <ele>494.2</ele>
        <time>2022-10-15 12:34:51</time>
      </trkpt>
      <trkpt lat="38.61119" lon="-0.84671">
        <ele>494</ele>
        <time>2022-10-15 12:34:52</time>
      </trkpt>
      <trkpt lat="38.61116" lon="-0.84673">
        <ele>494</ele>
        <time>2022-10-15 12:34:53</time>
      </trkpt>
      <trkpt lat="38.61113" lon="-0.84675">
        <ele>493.8</ele>
        <time>2022-10-15 12:34:54</time>
      </trkpt>
      <trkpt lat="38.61111" lon="-0.84675">
        <ele>494</ele>
        <time>2022-10-15 12:34:55</time>
      </trkpt>
      <trkpt lat="38.6111" lon="-0.84676">
        <ele>493.8</ele>
        <time>2022-10-15 12:34:56</time>
      </trkpt>
      <trkpt lat="38.61109" lon="-0.84676">
        <ele>493.8</ele>
        <time>2022-10-15 12:34:57</time>
      </trkpt>
      <trkpt lat="38.61108" lon="-0.84676">
        <ele>493.8</ele>
        <time>2022-10-15 12:34:58</time>
      </trkpt>
      <trkpt lat="38.61107" lon="-0.84676">
        <ele>493.8</ele>
        <time>2022-10-15 12:34:59</time>
      </trkpt>
      <trkpt lat="38.61107" lon="-0.84676">
        <ele>493.8</ele>
        <time>2022-10-15 12:35:00</time>
      </trkpt>
      <trkpt lat="38.61107" lon="-0.84676">
        <ele>493.8</ele>
        <time>2022-10-15 12:35:01</time>
      </trkpt>
      <trkpt lat="38.61107" lon="-0.84676">
        <ele>493.8</ele>
        <time>2022-10-15 12:35:02</time>
      </trkpt>
      <trkpt lat="38.61106" lon="-0.84676">
        <ele>493.8</ele>
        <time>2022-10-15 12:35:03</time>
      </trkpt>
      <trkpt lat="38.61105" lon="-0.84676">
        <ele>494</ele>
        <time>2022-10-15 12:35:04</time>
      </trkpt>
      <trkpt lat="38.61105" lon="-0.84676">
        <ele>494.2</ele>
        <time>2022-10-15 12:35:05</time>
      </trkpt>
      <trkpt lat="38.61104" lon="-0.84676">
        <ele>494.2</ele>
        <time>2022-10-15 12:35:06</time>
      </trkpt>
      <trkpt lat="38.61104" lon="-0.84676">
        <ele>494.2</ele>
        <time>2022-10-15 12:35:07</time>
      </trkpt>
      <trkpt lat="38.61103" lon="-0.84677">
        <ele>494.4</ele>
        <time>2022-10-15 12:35:08</time>
      </trkpt>
      <trkpt lat="38.61103" lon="-0.84677">
        <ele>494.4</ele>
        <time>2022-10-15 12:35:09</time>
      </trkpt>
      <trkpt lat="38.61103" lon="-0.84677">
        <ele>494.4</ele>
        <time>2022-10-15 12:35:10</time>
      </trkpt>
      <trkpt lat="38.61103" lon="-0.84678">
        <ele>494.4</ele>
        <time>2022-10-15 12:35:11</time>
      </trkpt>
      <trkpt lat="38.61101" lon="-0.84684">
        <ele>494.4</ele>
        <time>2022-10-15 12:35:12</time>
      </trkpt>
      <trkpt lat="38.611" lon="-0.84687">
        <ele>494.4</ele>
        <time>2022-10-15 12:35:13</time>
      </trkpt>
      <trkpt lat="38.61098" lon="-0.84689">
        <ele>494.4</ele>
        <time>2022-10-15 12:35:14</time>
      </trkpt>
      <trkpt lat="38.61096" lon="-0.84692">
        <ele>494.2</ele>
        <time>2022-10-15 12:35:15</time>
      </trkpt>
      <trkpt lat="38.61094" lon="-0.84694">
        <ele>494.2</ele>
        <time>2022-10-15 12:35:16</time>
      </trkpt>
      <trkpt lat="38.61091" lon="-0.84697">
        <ele>494</ele>
        <time>2022-10-15 12:35:20</time>
      </trkpt>
      <trkpt lat="38.61085" lon="-0.84703">
        <ele>493.6</ele>
        <time>2022-10-15 12:35:21</time>
      </trkpt>
      <trkpt lat="38.61082" lon="-0.84705">
        <ele>493.6</ele>
        <time>2022-10-15 12:35:22</time>
      </trkpt>
      <trkpt lat="38.61078" lon="-0.84708">
        <ele>493.4</ele>
        <time>2022-10-15 12:35:23</time>
      </trkpt>
      <trkpt lat="38.61075" lon="-0.84711">
        <ele>493.2</ele>
        <time>2022-10-15 12:35:24</time>
      </trkpt>
      <trkpt lat="38.61072" lon="-0.84714">
        <ele>493</ele>
        <time>2022-10-15 12:35:25</time>
      </trkpt>
      <trkpt lat="38.61068" lon="-0.84717">
        <ele>493</ele>
        <time>2022-10-15 12:35:27</time>
      </trkpt>
      <trkpt lat="38.61064" lon="-0.8472">
        <ele>492.8</ele>
        <time>2022-10-15 12:35:28</time>
      </trkpt>
      <trkpt lat="38.61061" lon="-0.84722">
        <ele>492.8</ele>
        <time>2022-10-15 12:35:29</time>
      </trkpt>
      <trkpt lat="38.61057" lon="-0.84725">
        <ele>492.6</ele>
        <time>2022-10-15 12:35:30</time>
      </trkpt>
      <trkpt lat="38.61053" lon="-0.84728">
        <ele>492.6</ele>
        <time>2022-10-15 12:35:31</time>
      </trkpt>
      <trkpt lat="38.61049" lon="-0.8473">
        <ele>492.6</ele>
        <time>2022-10-15 12:35:32</time>
      </trkpt>
      <trkpt lat="38.61042" lon="-0.84736">
        <ele>492.6</ele>
        <time>2022-10-15 12:35:33</time>
      </trkpt>
      <trkpt lat="38.61035" lon="-0.84742">
        <ele>492.6</ele>
        <time>2022-10-15 12:35:34</time>
      </trkpt>
      <trkpt lat="38.61031" lon="-0.84744">
        <ele>492.6</ele>
        <time>2022-10-15 12:35:35</time>
      </trkpt>
      <trkpt lat="38.61027" lon="-0.84747">
        <ele>492.6</ele>
        <time>2022-10-15 12:35:36</time>
      </trkpt>
      <trkpt lat="38.61024" lon="-0.8475">
        <ele>492.6</ele>
        <time>2022-10-15 12:35:37</time>
      </trkpt>
      <trkpt lat="38.6102" lon="-0.84752">
        <ele>492.6</ele>
        <time>2022-10-15 12:35:39</time>
      </trkpt>
      <trkpt lat="38.61016" lon="-0.84755">
        <ele>492.4</ele>
        <time>2022-10-15 12:35:41</time>
      </trkpt>
      <trkpt lat="38.61012" lon="-0.84758">
        <ele>492.4</ele>
        <time>2022-10-15 12:35:42</time>
      </trkpt>
      <trkpt lat="38.61008" lon="-0.8476">
        <ele>492.4</ele>
        <time>2022-10-15 12:35:43</time>
      </trkpt>
      <trkpt lat="38.61003" lon="-0.84762">
        <ele>492.4</ele>
        <time>2022-10-15 12:35:44</time>
      </trkpt>
      <trkpt lat="38.60999" lon="-0.84764">
        <ele>492.2</ele>
        <time>2022-10-15 12:35:45</time>
      </trkpt>
      <trkpt lat="38.60994" lon="-0.84767">
        <ele>492.2</ele>
        <time>2022-10-15 12:35:46</time>
      </trkpt>
      <trkpt lat="38.6099" lon="-0.84769">
        <ele>492.2</ele>
        <time>2022-10-15 12:35:47</time>
      </trkpt>
      <trkpt lat="38.60986" lon="-0.84772">
        <ele>492.2</ele>
        <time>2022-10-15 12:35:48</time>
      </trkpt>
      <trkpt lat="38.60982" lon="-0.84775">
        <ele>492.2</ele>
        <time>2022-10-15 12:35:49</time>
      </trkpt>
      <trkpt lat="38.60977" lon="-0.84778">
        <ele>492.2</ele>
        <time>2022-10-15 12:35:50</time>
      </trkpt>
      <trkpt lat="38.60968" lon="-0.84783">
        <ele>492.2</ele>
        <time>2022-10-15 12:35:51</time>
      </trkpt>
      <trkpt lat="38.60964" lon="-0.84786">
        <ele>492.2</ele>
        <time>2022-10-15 12:35:52</time>
      </trkpt>
      <trkpt lat="38.60959" lon="-0.84788">
        <ele>492</ele>
        <time>2022-10-15 12:35:53</time>
      </trkpt>
      <trkpt lat="38.60955" lon="-0.84791">
        <ele>492</ele>
        <time>2022-10-15 12:35:54</time>
      </trkpt>
      <trkpt lat="38.60955" lon="-0.84791">
        <ele>492</ele>
        <time>2022-10-15 12:35:55</time>
      </trkpt>
      <trkpt lat="38.60951" lon="-0.84793">
        <ele>492</ele>
        <time>2022-10-15 12:35:56</time>
      </trkpt>
      <trkpt lat="38.60947" lon="-0.84795">
        <ele>492</ele>
        <time>2022-10-15 12:35:57</time>
      </trkpt>
      <trkpt lat="38.60944" lon="-0.84797">
        <ele>492</ele>
        <time>2022-10-15 12:35:58</time>
      </trkpt>
      <trkpt lat="38.6094" lon="-0.84798">
        <ele>492</ele>
        <time>2022-10-15 12:35:59</time>
      </trkpt>
      <trkpt lat="38.60937" lon="-0.848">
        <ele>492</ele>
        <time>2022-10-15 12:36:00</time>
      </trkpt>
      <trkpt lat="38.60934" lon="-0.84801">
        <ele>492</ele>
        <time>2022-10-15 12:36:01</time>
      </trkpt>
      <trkpt lat="38.60931" lon="-0.84803">
        <ele>492</ele>
        <time>2022-10-15 12:36:02</time>
      </trkpt>
      <trkpt lat="38.60928" lon="-0.84805">
        <ele>492.2</ele>
        <time>2022-10-15 12:36:03</time>
      </trkpt>
      <trkpt lat="38.60926" lon="-0.84806">
        <ele>492.2</ele>
        <time>2022-10-15 12:36:04</time>
      </trkpt>
      <trkpt lat="38.60923" lon="-0.84807">
        <ele>492.2</ele>
        <time>2022-10-15 12:36:05</time>
      </trkpt>
      <trkpt lat="38.60921" lon="-0.84808">
        <ele>492.2</ele>
        <time>2022-10-15 12:36:06</time>
      </trkpt>
      <trkpt lat="38.60919" lon="-0.84809">
        <ele>492.4</ele>
        <time>2022-10-15 12:36:07</time>
      </trkpt>
      <trkpt lat="38.60916" lon="-0.84811">
        <ele>492.4</ele>
        <time>2022-10-15 12:36:08</time>
      </trkpt>
      <trkpt lat="38.60914" lon="-0.84812">
        <ele>492.6</ele>
        <time>2022-10-15 12:36:09</time>
      </trkpt>
      <trkpt lat="38.60915" lon="-0.84813">
        <ele>492.6</ele>
        <time>2022-10-15 12:36:10</time>
      </trkpt>
      <trkpt lat="38.60914" lon="-0.84812">
        <ele>492.6</ele>
        <time>2022-10-15 12:36:11</time>
      </trkpt>
      <trkpt lat="38.60913" lon="-0.84814">
        <ele>492.6</ele>
        <time>2022-10-15 12:36:12</time>
      </trkpt>
      <trkpt lat="38.60913" lon="-0.84814">
        <ele>492.8</ele>
        <time>2022-10-15 12:36:14</time>
      </trkpt>
      <trkpt lat="38.60907" lon="-0.84813">
        <ele>492.8</ele>
        <time>2022-10-15 12:36:15</time>
      </trkpt>
      <trkpt lat="38.60904" lon="-0.84816">
        <ele>492.8</ele>
        <time>2022-10-15 12:36:16</time>
      </trkpt>
      <trkpt lat="38.60901" lon="-0.84819">
        <ele>492.8</ele>
        <time>2022-10-15 12:36:17</time>
      </trkpt>
      <trkpt lat="38.609" lon="-0.84823">
        <ele>492.8</ele>
        <time>2022-10-15 12:36:18</time>
      </trkpt>
      <trkpt lat="38.609" lon="-0.84823">
        <ele>492.8</ele>
        <time>2022-10-15 12:36:19</time>
      </trkpt>
      <trkpt lat="38.60894" lon="-0.84834">
        <ele>492.8</ele>
        <time>2022-10-15 12:36:20</time>
      </trkpt>
      <trkpt lat="38.60894" lon="-0.84834">
        <ele>492.8</ele>
        <time>2022-10-15 12:36:21</time>
      </trkpt>
      <trkpt lat="38.60891" lon="-0.84838">
        <ele>492.8</ele>
        <time>2022-10-15 12:36:22</time>
      </trkpt>
      <trkpt lat="38.60888" lon="-0.84841">
        <ele>492.8</ele>
        <time>2022-10-15 12:36:23</time>
      </trkpt>
      <trkpt lat="38.60884" lon="-0.84844">
        <ele>492.8</ele>
        <time>2022-10-15 12:36:24</time>
      </trkpt>
      <trkpt lat="38.60881" lon="-0.84847">
        <ele>492.8</ele>
        <time>2022-10-15 12:36:26</time>
      </trkpt>
      <trkpt lat="38.60877" lon="-0.84849">
        <ele>492.8</ele>
        <time>2022-10-15 12:36:27</time>
      </trkpt>
      <trkpt lat="38.60873" lon="-0.84851">
        <ele>492.8</ele>
        <time>2022-10-15 12:36:28</time>
      </trkpt>
      <trkpt lat="38.6087" lon="-0.84853">
        <ele>492.8</ele>
        <time>2022-10-15 12:36:29</time>
      </trkpt>
      <trkpt lat="38.60866" lon="-0.84855">
        <ele>492.8</ele>
        <time>2022-10-15 12:36:30</time>
      </trkpt>
      <trkpt lat="38.60863" lon="-0.84857">
        <ele>492.6</ele>
        <time>2022-10-15 12:36:31</time>
      </trkpt>
      <trkpt lat="38.6086" lon="-0.8486">
        <ele>492.6</ele>
        <time>2022-10-15 12:36:32</time>
      </trkpt>
      <trkpt lat="38.60857" lon="-0.84863">
        <ele>492.6</ele>
        <time>2022-10-15 12:36:33</time>
      </trkpt>
      <trkpt lat="38.60854" lon="-0.84865">
        <ele>492.6</ele>
        <time>2022-10-15 12:36:34</time>
      </trkpt>
      <trkpt lat="38.60851" lon="-0.84867">
        <ele>492.4</ele>
        <time>2022-10-15 12:36:35</time>
      </trkpt>
      <trkpt lat="38.60849" lon="-0.84868">
        <ele>492.4</ele>
        <time>2022-10-15 12:36:36</time>
      </trkpt>
      <trkpt lat="38.60846" lon="-0.84869">
        <ele>492.4</ele>
        <time>2022-10-15 12:36:37</time>
      </trkpt>
      <trkpt lat="38.60841" lon="-0.84872">
        <ele>492.4</ele>
        <time>2022-10-15 12:36:38</time>
      </trkpt>
      <trkpt lat="38.60838" lon="-0.84874">
        <ele>492.4</ele>
        <time>2022-10-15 12:36:39</time>
      </trkpt>
      <trkpt lat="38.60836" lon="-0.84875">
        <ele>492.4</ele>
        <time>2022-10-15 12:36:40</time>
      </trkpt>
      <trkpt lat="38.60835" lon="-0.84876">
        <ele>492.4</ele>
        <time>2022-10-15 12:36:41</time>
      </trkpt>
      <trkpt lat="38.60834" lon="-0.84877">
        <ele>492.4</ele>
        <time>2022-10-15 12:36:42</time>
      </trkpt>
      <trkpt lat="38.60834" lon="-0.84877">
        <ele>492.4</ele>
        <time>2022-10-15 12:36:44</time>
      </trkpt>
      <trkpt lat="38.60834" lon="-0.84877">
        <ele>492.4</ele>
        <time>2022-10-15 12:36:45</time>
      </trkpt>
      <trkpt lat="38.60835" lon="-0.84883">
        <ele>493</ele>
        <time>2022-10-15 12:36:46</time>
      </trkpt>
      <trkpt lat="38.60835" lon="-0.84885">
        <ele>493</ele>
        <time>2022-10-15 12:36:47</time>
      </trkpt>
      <trkpt lat="38.60836" lon="-0.84887">
        <ele>493</ele>
        <time>2022-10-15 12:36:48</time>
      </trkpt>
      <trkpt lat="38.60835" lon="-0.84889">
        <ele>493.2</ele>
        <time>2022-10-15 12:36:49</time>
      </trkpt>
      <trkpt lat="38.60835" lon="-0.84891">
        <ele>493.2</ele>
        <time>2022-10-15 12:36:50</time>
      </trkpt>
      <trkpt lat="38.60833" lon="-0.84893">
        <ele>493.2</ele>
        <time>2022-10-15 12:37:02</time>
      </trkpt>
      <trkpt lat="38.60831" lon="-0.84895">
        <ele>493.2</ele>
        <time>2022-10-15 12:37:03</time>
      </trkpt>
      <trkpt lat="38.60829" lon="-0.84897">
        <ele>493.2</ele>
        <time>2022-10-15 12:37:04</time>
      </trkpt>
      <trkpt lat="38.60826" lon="-0.84899">
        <ele>493.2</ele>
        <time>2022-10-15 12:37:05</time>
      </trkpt>
      <trkpt lat="38.60823" lon="-0.84901">
        <ele>493.2</ele>
        <time>2022-10-15 12:37:06</time>
      </trkpt>
      <trkpt lat="38.6082" lon="-0.84903">
        <ele>493.4</ele>
        <time>2022-10-15 12:37:07</time>
      </trkpt>
      <trkpt lat="38.60817" lon="-0.84905">
        <ele>493.4</ele>
        <time>2022-10-15 12:37:08</time>
      </trkpt>
      <trkpt lat="38.60814" lon="-0.84907">
        <ele>493.6</ele>
        <time>2022-10-15 12:37:09</time>
      </trkpt>
      <trkpt lat="38.60812" lon="-0.84909">
        <ele>493.6</ele>
        <time>2022-10-15 12:37:10</time>
      </trkpt>
      <trkpt lat="38.6081" lon="-0.8491">
        <ele>493.6</ele>
        <time>2022-10-15 12:37:11</time>
      </trkpt>
      <trkpt lat="38.60805" lon="-0.84914">
        <ele>493.8</ele>
        <time>2022-10-15 12:37:12</time>
      </trkpt>
      <trkpt lat="38.60803" lon="-0.84916">
        <ele>493.8</ele>
        <time>2022-10-15 12:37:13</time>
      </trkpt>
      <trkpt lat="38.60801" lon="-0.84917">
        <ele>493.8</ele>
        <time>2022-10-15 12:37:14</time>
      </trkpt>
      <trkpt lat="38.60799" lon="-0.84919">
        <ele>493.8</ele>
        <time>2022-10-15 12:37:15</time>
      </trkpt>
      <trkpt lat="38.60797" lon="-0.8492">
        <ele>493.8</ele>
        <time>2022-10-15 12:37:16</time>
      </trkpt>
      <trkpt lat="38.60795" lon="-0.84922">
        <ele>493.8</ele>
        <time>2022-10-15 12:37:18</time>
      </trkpt>
      <trkpt lat="38.60792" lon="-0.84924">
        <ele>493.8</ele>
        <time>2022-10-15 12:37:19</time>
      </trkpt>
      <trkpt lat="38.6079" lon="-0.84925">
        <ele>493.8</ele>
        <time>2022-10-15 12:37:20</time>
      </trkpt>
      <trkpt lat="38.60789" lon="-0.84925">
        <ele>493.8</ele>
        <time>2022-10-15 12:37:21</time>
      </trkpt>
      <trkpt lat="38.60789" lon="-0.84925">
        <ele>493.8</ele>
        <time>2022-10-15 12:37:22</time>
      </trkpt>
      <trkpt lat="38.60788" lon="-0.84925">
        <ele>494</ele>
        <time>2022-10-15 12:37:23</time>
      </trkpt>
      <trkpt lat="38.60786" lon="-0.84926">
        <ele>494</ele>
        <time>2022-10-15 12:37:25</time>
      </trkpt>
      <trkpt lat="38.60785" lon="-0.84927">
        <ele>494.2</ele>
        <time>2022-10-15 12:37:26</time>
      </trkpt>
      <trkpt lat="38.60783" lon="-0.84928">
        <ele>494.2</ele>
        <time>2022-10-15 12:37:27</time>
      </trkpt>
      <trkpt lat="38.60782" lon="-0.84928">
        <ele>494</ele>
        <time>2022-10-15 12:37:28</time>
      </trkpt>
      <trkpt lat="38.60782" lon="-0.84928">
        <ele>494.4</ele>
        <time>2022-10-15 12:37:29</time>
      </trkpt>
      <trkpt lat="38.60782" lon="-0.84928">
        <ele>494.4</ele>
        <time>2022-10-15 12:37:30</time>
      </trkpt>
      <trkpt lat="38.60772" lon="-0.84936">
        <ele>494.4</ele>
        <time>2022-10-15 12:37:31</time>
      </trkpt>
      <trkpt lat="38.6077" lon="-0.84937">
        <ele>494.4</ele>
        <time>2022-10-15 12:37:32</time>
      </trkpt>
      <trkpt lat="38.60768" lon="-0.84939">
        <ele>494.4</ele>
        <time>2022-10-15 12:37:33</time>
      </trkpt>
      <trkpt lat="38.60766" lon="-0.8494">
        <ele>494.4</ele>
        <time>2022-10-15 12:37:34</time>
      </trkpt>
      <trkpt lat="38.60764" lon="-0.84942">
        <ele>494.4</ele>
        <time>2022-10-15 12:37:35</time>
      </trkpt>
      <trkpt lat="38.60762" lon="-0.84943">
        <ele>494.4</ele>
        <time>2022-10-15 12:37:51</time>
      </trkpt>
      <trkpt lat="38.60761" lon="-0.84943">
        <ele>494.2</ele>
        <time>2022-10-15 12:37:52</time>
      </trkpt>
      <trkpt lat="38.60759" lon="-0.84944">
        <ele>494.2</ele>
        <time>2022-10-15 12:37:53</time>
      </trkpt>
      <trkpt lat="38.60758" lon="-0.84945">
        <ele>494</ele>
        <time>2022-10-15 12:37:54</time>
      </trkpt>
      <trkpt lat="38.60757" lon="-0.84946">
        <ele>494</ele>
        <time>2022-10-15 12:37:55</time>
      </trkpt>
      <trkpt lat="38.60756" lon="-0.84947">
        <ele>493.8</ele>
        <time>2022-10-15 12:37:56</time>
      </trkpt>
      <trkpt lat="38.60755" lon="-0.84948">
        <ele>493.8</ele>
        <time>2022-10-15 12:37:57</time>
      </trkpt>
      <trkpt lat="38.60754" lon="-0.84948">
        <ele>493.8</ele>
        <time>2022-10-15 12:37:58</time>
      </trkpt>
      <trkpt lat="38.60754" lon="-0.84948">
        <ele>493.8</ele>
        <time>2022-10-15 12:37:59</time>
      </trkpt>
      <trkpt lat="38.60753" lon="-0.84948">
        <ele>493.8</ele>
        <time>2022-10-15 12:38:00</time>
      </trkpt>
      <trkpt lat="38.60751" lon="-0.84949">
        <ele>493.8</ele>
        <time>2022-10-15 12:38:01</time>
      </trkpt>
      <trkpt lat="38.6075" lon="-0.8495">
        <ele>493.8</ele>
        <time>2022-10-15 12:38:02</time>
      </trkpt>
      <trkpt lat="38.60749" lon="-0.84951">
        <ele>493.8</ele>
        <time>2022-10-15 12:38:03</time>
      </trkpt>
      <trkpt lat="38.60748" lon="-0.84952">
        <ele>493.8</ele>
        <time>2022-10-15 12:38:04</time>
      </trkpt>
      <trkpt lat="38.60747" lon="-0.84952">
        <ele>493.8</ele>
        <time>2022-10-15 12:38:05</time>
      </trkpt>
      <trkpt lat="38.60746" lon="-0.84953">
        <ele>493.8</ele>
        <time>2022-10-15 12:38:06</time>
      </trkpt>
      <trkpt lat="38.60745" lon="-0.84954">
        <ele>493.8</ele>
        <time>2022-10-15 12:38:07</time>
      </trkpt>
      <trkpt lat="38.60745" lon="-0.84954">
        <ele>493.8</ele>
        <time>2022-10-15 12:38:08</time>
      </trkpt>
      <trkpt lat="38.60733" lon="-0.8499">
        <ele>494.6</ele>
        <time>2022-10-15 12:38:09</time>
      </trkpt>
      <trkpt lat="38.60732" lon="-0.84993">
        <ele>494.6</ele>
        <time>2022-10-15 12:38:10</time>
      </trkpt>
      <trkpt lat="38.60731" lon="-0.84997">
        <ele>494.6</ele>
        <time>2022-10-15 12:38:11</time>
      </trkpt>
      <trkpt lat="38.6073" lon="-0.85">
        <ele>494.6</ele>
        <time>2022-10-15 12:38:12</time>
      </trkpt>
      <trkpt lat="38.60729" lon="-0.85003">
        <ele>494.6</ele>
        <time>2022-10-15 12:38:13</time>
      </trkpt>
      <trkpt lat="38.60728" lon="-0.85006">
        <ele>494.6</ele>
        <time>2022-10-15 12:39:11</time>
      </trkpt>
      <trkpt lat="38.60727" lon="-0.85009">
        <ele>494.4</ele>
        <time>2022-10-15 12:39:12</time>
      </trkpt>
      <trkpt lat="38.60726" lon="-0.85012">
        <ele>494.4</ele>
        <time>2022-10-15 12:39:13</time>
      </trkpt>
      <trkpt lat="38.60725" lon="-0.85015">
        <ele>494.6</ele>
        <time>2022-10-15 12:39:14</time>
      </trkpt>
      <trkpt lat="38.60725" lon="-0.85019">
        <ele>494.6</ele>
        <time>2022-10-15 12:39:15</time>
      </trkpt>
      <trkpt lat="38.60724" lon="-0.85023">
        <ele>494.6</ele>
        <time>2022-10-15 12:39:16</time>
      </trkpt>
      <trkpt lat="38.60724" lon="-0.85026">
        <ele>494.6</ele>
        <time>2022-10-15 12:39:17</time>
      </trkpt>
      <trkpt lat="38.60724" lon="-0.85029">
        <ele>494.4</ele>
        <time>2022-10-15 12:39:18</time>
      </trkpt>
      <trkpt lat="38.60724" lon="-0.85032">
        <ele>494.4</ele>
        <time>2022-10-15 12:39:19</time>
      </trkpt>
      <trkpt lat="38.60724" lon="-0.85036">
        <ele>494.4</ele>
        <time>2022-10-15 12:39:20</time>
      </trkpt>
      <trkpt lat="38.60723" lon="-0.85039">
        <ele>494.4</ele>
        <time>2022-10-15 12:39:21</time>
      </trkpt>
      <trkpt lat="38.60723" lon="-0.85042">
        <ele>494.4</ele>
        <time>2022-10-15 12:39:22</time>
      </trkpt>
      <trkpt lat="38.60723" lon="-0.85045">
        <ele>494.4</ele>
        <time>2022-10-15 12:39:23</time>
      </trkpt>
      <trkpt lat="38.60722" lon="-0.85049">
        <ele>494.4</ele>
        <time>2022-10-15 12:39:24</time>
      </trkpt>
      <trkpt lat="38.60721" lon="-0.85053">
        <ele>494.4</ele>
        <time>2022-10-15 12:39:25</time>
      </trkpt>
      <trkpt lat="38.60721" lon="-0.85058">
        <ele>494.4</ele>
        <time>2022-10-15 12:39:26</time>
      </trkpt>
      <trkpt lat="38.60721" lon="-0.85063">
        <ele>494.2</ele>
        <time>2022-10-15 12:39:27</time>
      </trkpt>
      <trkpt lat="38.60723" lon="-0.85073">
        <ele>494.2</ele>
        <time>2022-10-15 12:39:28</time>
      </trkpt>
      <trkpt lat="38.60723" lon="-0.85077">
        <ele>494.2</ele>
        <time>2022-10-15 12:39:29</time>
      </trkpt>
      <trkpt lat="38.60723" lon="-0.85082">
        <ele>493.8</ele>
        <time>2022-10-15 12:39:30</time>
      </trkpt>
      <trkpt lat="38.60723" lon="-0.85087">
        <ele>493.6</ele>
        <time>2022-10-15 12:39:31</time>
      </trkpt>
      <trkpt lat="38.60722" lon="-0.85091">
        <ele>493.6</ele>
        <time>2022-10-15 12:39:32</time>
      </trkpt>
      <trkpt lat="38.60722" lon="-0.85096">
        <ele>493.4</ele>
        <time>2022-10-15 12:39:34</time>
      </trkpt>
      <trkpt lat="38.60721" lon="-0.851">
        <ele>493.4</ele>
        <time>2022-10-15 12:39:35</time>
      </trkpt>
      <trkpt lat="38.6072" lon="-0.85104">
        <ele>493.4</ele>
        <time>2022-10-15 12:39:36</time>
      </trkpt>
      <trkpt lat="38.60719" lon="-0.85109">
        <ele>493.4</ele>
        <time>2022-10-15 12:39:37</time>
      </trkpt>
      <trkpt lat="38.60718" lon="-0.85113">
        <ele>493.2</ele>
        <time>2022-10-15 12:39:38</time>
      </trkpt>
      <trkpt lat="38.60718" lon="-0.85117">
        <ele>493.2</ele>
        <time>2022-10-15 12:39:39</time>
      </trkpt>
      <trkpt lat="38.60717" lon="-0.8512">
        <ele>493.2</ele>
        <time>2022-10-15 12:39:40</time>
      </trkpt>
      <trkpt lat="38.60716" lon="-0.85124">
        <ele>493.2</ele>
        <time>2022-10-15 12:39:41</time>
      </trkpt>
      <trkpt lat="38.60715" lon="-0.85127">
        <ele>493.2</ele>
        <time>2022-10-15 12:39:42</time>
      </trkpt>
      <trkpt lat="38.60714" lon="-0.8513">
        <ele>493.2</ele>
        <time>2022-10-15 12:39:43</time>
      </trkpt>
      <trkpt lat="38.60714" lon="-0.85133">
        <ele>493.2</ele>
        <time>2022-10-15 12:39:44</time>
      </trkpt>
      <trkpt lat="38.60714" lon="-0.85135">
        <ele>493.4</ele>
        <time>2022-10-15 12:39:45</time>
      </trkpt>
      <trkpt lat="38.60715" lon="-0.8514">
        <ele>493.4</ele>
        <time>2022-10-15 12:39:46</time>
      </trkpt>
      <trkpt lat="38.60716" lon="-0.85142">
        <ele>493.4</ele>
        <time>2022-10-15 12:39:47</time>
      </trkpt>
      <trkpt lat="38.60716" lon="-0.85144">
        <ele>493.4</ele>
        <time>2022-10-15 12:39:48</time>
      </trkpt>
      <trkpt lat="38.60716" lon="-0.85145">
        <ele>493.4</ele>
        <time>2022-10-15 12:39:49</time>
      </trkpt>
      <trkpt lat="38.60716" lon="-0.85145">
        <ele>493.4</ele>
        <time>2022-10-15 12:39:50</time>
      </trkpt>
      <trkpt lat="38.60716" lon="-0.85145">
        <ele>493.4</ele>
        <time>2022-10-15 12:39:52</time>
      </trkpt>
      <trkpt lat="38.60714" lon="-0.85147">
        <ele>493.2</ele>
        <time>2022-10-15 12:39:53</time>
      </trkpt>
      <trkpt lat="38.60713" lon="-0.85147">
        <ele>493.2</ele>
        <time>2022-10-15 12:39:54</time>
      </trkpt>
      <trkpt lat="38.60711" lon="-0.85147">
        <ele>493.2</ele>
        <time>2022-10-15 12:39:55</time>
      </trkpt>
      <trkpt lat="38.6071" lon="-0.85147">
        <ele>493.2</ele>
        <time>2022-10-15 12:39:56</time>
      </trkpt>
      <trkpt lat="38.60709" lon="-0.85147">
        <ele>493.2</ele>
        <time>2022-10-15 12:39:57</time>
      </trkpt>
      <trkpt lat="38.60708" lon="-0.85147">
        <ele>493.2</ele>
        <time>2022-10-15 12:40:49</time>
      </trkpt>
      <trkpt lat="38.60706" lon="-0.85146">
        <ele>493.2</ele>
        <time>2022-10-15 12:40:50</time>
      </trkpt>
      <trkpt lat="38.60704" lon="-0.85145">
        <ele>493.2</ele>
        <time>2022-10-15 12:40:51</time>
      </trkpt>
      <trkpt lat="38.60702" lon="-0.85145">
        <ele>493.2</ele>
        <time>2022-10-15 12:40:52</time>
      </trkpt>
      <trkpt lat="38.607" lon="-0.85144">
        <ele>493.2</ele>
        <time>2022-10-15 12:40:53</time>
      </trkpt>
      <trkpt lat="38.60697" lon="-0.85143">
        <ele>493.2</ele>
        <time>2022-10-15 12:40:54</time>
      </trkpt>
      <trkpt lat="38.60694" lon="-0.85142">
        <ele>493.2</ele>
        <time>2022-10-15 12:40:55</time>
      </trkpt>
      <trkpt lat="38.60691" lon="-0.85141">
        <ele>493.2</ele>
        <time>2022-10-15 12:40:56</time>
      </trkpt>
      <trkpt lat="38.60688" lon="-0.8514">
        <ele>493.4</ele>
        <time>2022-10-15 12:40:57</time>
      </trkpt>
      <trkpt lat="38.60685" lon="-0.85139">
        <ele>493.4</ele>
        <time>2022-10-15 12:40:58</time>
      </trkpt>
      <trkpt lat="38.60683" lon="-0.85138">
        <ele>493.4</ele>
        <time>2022-10-15 12:40:59</time>
      </trkpt>
      <trkpt lat="38.6068" lon="-0.85138">
        <ele>493.4</ele>
        <time>2022-10-15 12:41:00</time>
      </trkpt>
      <trkpt lat="38.60677" lon="-0.85137">
        <ele>493.6</ele>
        <time>2022-10-15 12:41:01</time>
      </trkpt>
      <trkpt lat="38.60674" lon="-0.85136">
        <ele>493.6</ele>
        <time>2022-10-15 12:41:02</time>
      </trkpt>
      <trkpt lat="38.60671" lon="-0.85135">
        <ele>493.6</ele>
        <time>2022-10-15 12:41:03</time>
      </trkpt>
      <trkpt lat="38.60668" lon="-0.85135">
        <ele>493.8</ele>
        <time>2022-10-15 12:41:04</time>
      </trkpt>
      <trkpt lat="38.60665" lon="-0.85134">
        <ele>494</ele>
        <time>2022-10-15 12:41:05</time>
      </trkpt>
      <trkpt lat="38.60662" lon="-0.85133">
        <ele>494</ele>
        <time>2022-10-15 12:41:06</time>
      </trkpt>
      <trkpt lat="38.60659" lon="-0.85132">
        <ele>494</ele>
        <time>2022-10-15 12:41:07</time>
      </trkpt>
      <trkpt lat="38.60656" lon="-0.85131">
        <ele>494</ele>
        <time>2022-10-15 12:41:08</time>
      </trkpt>
      <trkpt lat="38.60652" lon="-0.8513">
        <ele>494</ele>
        <time>2022-10-15 12:41:09</time>
      </trkpt>
      <trkpt lat="38.60649" lon="-0.8513">
        <ele>494</ele>
        <time>2022-10-15 12:41:10</time>
      </trkpt>
      <trkpt lat="38.60646" lon="-0.85129">
        <ele>494</ele>
        <time>2022-10-15 12:41:11</time>
      </trkpt>
      <trkpt lat="38.60643" lon="-0.85128">
        <ele>494</ele>
        <time>2022-10-15 12:41:12</time>
      </trkpt>
      <trkpt lat="38.6064" lon="-0.85128">
        <ele>493.8</ele>
        <time>2022-10-15 12:41:13</time>
      </trkpt>
      <trkpt lat="38.60637" lon="-0.85128">
        <ele>493.8</ele>
        <time>2022-10-15 12:41:14</time>
      </trkpt>
      <trkpt lat="38.60634" lon="-0.85127">
        <ele>493.8</ele>
        <time>2022-10-15 12:41:15</time>
      </trkpt>
      <trkpt lat="38.6063" lon="-0.85126">
        <ele>493.8</ele>
        <time>2022-10-15 12:41:16</time>
      </trkpt>
      <trkpt lat="38.60627" lon="-0.85125">
        <ele>493.6</ele>
        <time>2022-10-15 12:41:17</time>
      </trkpt>
      <trkpt lat="38.60624" lon="-0.85124">
        <ele>493.6</ele>
        <time>2022-10-15 12:41:18</time>
      </trkpt>
      <trkpt lat="38.60621" lon="-0.85123">
        <ele>493.6</ele>
        <time>2022-10-15 12:41:19</time>
      </trkpt>
      <trkpt lat="38.60619" lon="-0.85121">
        <ele>493.6</ele>
        <time>2022-10-15 12:41:20</time>
      </trkpt>
      <trkpt lat="38.60619" lon="-0.85121">
        <ele>493.6</ele>
        <time>2022-10-15 12:41:21</time>
      </trkpt>
      <trkpt lat="38.60619" lon="-0.85121">
        <ele>493.6</ele>
        <time>2022-10-15 12:41:22</time>
      </trkpt>
      <trkpt lat="38.60616" lon="-0.85121">
        <ele>494</ele>
        <time>2022-10-15 12:41:23</time>
      </trkpt>
      <trkpt lat="38.60611" lon="-0.85122">
        <ele>494</ele>
        <time>2022-10-15 12:41:24</time>
      </trkpt>
      <trkpt lat="38.60608" lon="-0.85122">
        <ele>494</ele>
        <time>2022-10-15 12:41:25</time>
      </trkpt>
      <trkpt lat="38.60604" lon="-0.85121">
        <ele>494</ele>
        <time>2022-10-15 12:41:26</time>
      </trkpt>
      <trkpt lat="38.606" lon="-0.8512">
        <ele>494</ele>
        <time>2022-10-15 12:41:27</time>
      </trkpt>
      <trkpt lat="38.60597" lon="-0.85118">
        <ele>494</ele>
        <time>2022-10-15 12:41:48</time>
      </trkpt>
      <trkpt lat="38.60593" lon="-0.85117">
        <ele>494</ele>
        <time>2022-10-15 12:41:50</time>
      </trkpt>
      <trkpt lat="38.6059" lon="-0.85117">
        <ele>494</ele>
        <time>2022-10-15 12:41:51</time>
      </trkpt>
      <trkpt lat="38.60587" lon="-0.85116">
        <ele>494</ele>
        <time>2022-10-15 12:41:52</time>
      </trkpt>
      <trkpt lat="38.60583" lon="-0.85115">
        <ele>493.8</ele>
        <time>2022-10-15 12:41:53</time>
      </trkpt>
      <trkpt lat="38.60579" lon="-0.85114">
        <ele>493.6</ele>
        <time>2022-10-15 12:41:54</time>
      </trkpt>
      <trkpt lat="38.60576" lon="-0.85114">
        <ele>493.6</ele>
        <time>2022-10-15 12:41:55</time>
      </trkpt>
      <trkpt lat="38.60572" lon="-0.85113">
        <ele>493.4</ele>
        <time>2022-10-15 12:41:56</time>
      </trkpt>
      <trkpt lat="38.60568" lon="-0.85113">
        <ele>493.2</ele>
        <time>2022-10-15 12:41:57</time>
      </trkpt>
      <trkpt lat="38.60564" lon="-0.85112">
        <ele>493.4</ele>
        <time>2022-10-15 12:41:58</time>
      </trkpt>
      <trkpt lat="38.60556" lon="-0.85109">
        <ele>493</ele>
        <time>2022-10-15 12:41:59</time>
      </trkpt>
      <trkpt lat="38.60552" lon="-0.85109">
        <ele>493</ele>
        <time>2022-10-15 12:42:00</time>
      </trkpt>
      <trkpt lat="38.60548" lon="-0.85108">
        <ele>493</ele>
        <time>2022-10-15 12:42:01</time>
      </trkpt>
      <trkpt lat="38.60544" lon="-0.85109">
        <ele>493</ele>
        <time>2022-10-15 12:42:02</time>
      </trkpt>
      <trkpt lat="38.6054" lon="-0.85111">
        <ele>493</ele>
        <time>2022-10-15 12:42:03</time>
      </trkpt>
      <trkpt lat="38.60536" lon="-0.85113">
        <ele>493</ele>
        <time>2022-10-15 12:42:05</time>
      </trkpt>
      <trkpt lat="38.60531" lon="-0.85117">
        <ele>493</ele>
        <time>2022-10-15 12:42:06</time>
      </trkpt>
      <trkpt lat="38.60527" lon="-0.85121">
        <ele>493</ele>
        <time>2022-10-15 12:42:07</time>
      </trkpt>
      <trkpt lat="38.60522" lon="-0.85124">
        <ele>492.8</ele>
        <time>2022-10-15 12:42:08</time>
      </trkpt>
      <trkpt lat="38.60518" lon="-0.85127">
        <ele>492.6</ele>
        <time>2022-10-15 12:42:09</time>
      </trkpt>
      <trkpt lat="38.60514" lon="-0.8513">
        <ele>492.6</ele>
        <time>2022-10-15 12:42:10</time>
      </trkpt>
      <trkpt lat="38.6051" lon="-0.85133">
        <ele>492.4</ele>
        <time>2022-10-15 12:42:11</time>
      </trkpt>
      <trkpt lat="38.60507" lon="-0.85136">
        <ele>492</ele>
        <time>2022-10-15 12:42:12</time>
      </trkpt>
      <trkpt lat="38.60503" lon="-0.85139">
        <ele>491.8</ele>
        <time>2022-10-15 12:42:13</time>
      </trkpt>
      <trkpt lat="38.60499" lon="-0.85142">
        <ele>491.6</ele>
        <time>2022-10-15 12:42:14</time>
      </trkpt>
      <trkpt lat="38.60495" lon="-0.85145">
        <ele>491.4</ele>
        <time>2022-10-15 12:42:15</time>
      </trkpt>
      <trkpt lat="38.60491" lon="-0.85148">
        <ele>491.2</ele>
        <time>2022-10-15 12:42:16</time>
      </trkpt>
      <trkpt lat="38.60487" lon="-0.85152">
        <ele>491.2</ele>
        <time>2022-10-15 12:42:17</time>
      </trkpt>
      <trkpt lat="38.60483" lon="-0.85155">
        <ele>491.2</ele>
        <time>2022-10-15 12:42:18</time>
      </trkpt>
      <trkpt lat="38.60479" lon="-0.85158">
        <ele>491.2</ele>
        <time>2022-10-15 12:42:19</time>
      </trkpt>
      <trkpt lat="38.60474" lon="-0.85161">
        <ele>491.2</ele>
        <time>2022-10-15 12:42:20</time>
      </trkpt>
      <trkpt lat="38.6047" lon="-0.85164">
        <ele>491</ele>
        <time>2022-10-15 12:42:21</time>
      </trkpt>
      <trkpt lat="38.60466" lon="-0.85167">
        <ele>491</ele>
        <time>2022-10-15 12:42:22</time>
      </trkpt>
      <trkpt lat="38.60462" lon="-0.8517">
        <ele>491</ele>
        <time>2022-10-15 12:42:23</time>
      </trkpt>
      <trkpt lat="38.60458" lon="-0.85173">
        <ele>491</ele>
        <time>2022-10-15 12:42:24</time>
      </trkpt>
      <trkpt lat="38.60454" lon="-0.85176">
        <ele>491</ele>
        <time>2022-10-15 12:42:25</time>
      </trkpt>
      <trkpt lat="38.6045" lon="-0.85179">
        <ele>491</ele>
        <time>2022-10-15 12:42:26</time>
      </trkpt>
      <trkpt lat="38.60446" lon="-0.85182">
        <ele>491</ele>
        <time>2022-10-15 12:42:27</time>
      </trkpt>
      <trkpt lat="38.60442" lon="-0.85185">
        <ele>491</ele>
        <time>2022-10-15 12:42:28</time>
      </trkpt>
      <trkpt lat="38.60438" lon="-0.85188">
        <ele>491</ele>
        <time>2022-10-15 12:42:29</time>
      </trkpt>
      <trkpt lat="38.60435" lon="-0.8519">
        <ele>491</ele>
        <time>2022-10-15 12:42:30</time>
      </trkpt>
      <trkpt lat="38.60431" lon="-0.85194">
        <ele>491</ele>
        <time>2022-10-15 12:42:31</time>
      </trkpt>
      <trkpt lat="38.60428" lon="-0.85197">
        <ele>491</ele>
        <time>2022-10-15 12:42:32</time>
      </trkpt>
      <trkpt lat="38.60425" lon="-0.85201">
        <ele>491</ele>
        <time>2022-10-15 12:42:33</time>
      </trkpt>
      <trkpt lat="38.60422" lon="-0.85205">
        <ele>491</ele>
        <time>2022-10-15 12:42:34</time>
      </trkpt>
      <trkpt lat="38.60419" lon="-0.85209">
        <ele>491</ele>
        <time>2022-10-15 12:42:35</time>
      </trkpt>
      <trkpt lat="38.60417" lon="-0.85214">
        <ele>491</ele>
        <time>2022-10-15 12:42:36</time>
      </trkpt>
      <trkpt lat="38.60414" lon="-0.85218">
        <ele>491</ele>
        <time>2022-10-15 12:42:37</time>
      </trkpt>
      <trkpt lat="38.60411" lon="-0.85221">
        <ele>491</ele>
        <time>2022-10-15 12:42:38</time>
      </trkpt>
      <trkpt lat="38.60408" lon="-0.85223">
        <ele>491</ele>
        <time>2022-10-15 12:42:39</time>
      </trkpt>
      <trkpt lat="38.60404" lon="-0.85224">
        <ele>491</ele>
        <time>2022-10-15 12:42:40</time>
      </trkpt>
      <trkpt lat="38.60401" lon="-0.85224">
        <ele>491</ele>
        <time>2022-10-15 12:42:41</time>
      </trkpt>
      <trkpt lat="38.60396" lon="-0.85224">
        <ele>491</ele>
        <time>2022-10-15 12:42:42</time>
      </trkpt>
      <trkpt lat="38.60392" lon="-0.85224">
        <ele>491</ele>
        <time>2022-10-15 12:42:43</time>
      </trkpt>
      <trkpt lat="38.60388" lon="-0.85224">
        <ele>491</ele>
        <time>2022-10-15 12:42:44</time>
      </trkpt>
      <trkpt lat="38.60383" lon="-0.85225">
        <ele>491.2</ele>
        <time>2022-10-15 12:42:45</time>
      </trkpt>
      <trkpt lat="38.60379" lon="-0.85226">
        <ele>491</ele>
        <time>2022-10-15 12:42:46</time>
      </trkpt>
      <trkpt lat="38.60375" lon="-0.85229">
        <ele>491.2</ele>
        <time>2022-10-15 12:42:47</time>
      </trkpt>
      <trkpt lat="38.6037" lon="-0.85231">
        <ele>491.4</ele>
        <time>2022-10-15 12:42:48</time>
      </trkpt>
      <trkpt lat="38.60366" lon="-0.85234">
        <ele>491.4</ele>
        <time>2022-10-15 12:42:49</time>
      </trkpt>
      <trkpt lat="38.60362" lon="-0.85237">
        <ele>491.4</ele>
        <time>2022-10-15 12:42:50</time>
      </trkpt>
      <trkpt lat="38.60358" lon="-0.8524">
        <ele>491.4</ele>
        <time>2022-10-15 12:42:51</time>
      </trkpt>
      <trkpt lat="38.60354" lon="-0.85243">
        <ele>491.4</ele>
        <time>2022-10-15 12:42:52</time>
      </trkpt>
      <trkpt lat="38.6035" lon="-0.85247">
        <ele>491.4</ele>
        <time>2022-10-15 12:42:53</time>
      </trkpt>
      <trkpt lat="38.60346" lon="-0.8525">
        <ele>491.2</ele>
        <time>2022-10-15 12:42:54</time>
      </trkpt>
      <trkpt lat="38.60342" lon="-0.85253">
        <ele>491.2</ele>
        <time>2022-10-15 12:42:55</time>
      </trkpt>
      <trkpt lat="38.60337" lon="-0.85256">
        <ele>491.2</ele>
        <time>2022-10-15 12:42:56</time>
      </trkpt>
      <trkpt lat="38.60333" lon="-0.85259">
        <ele>491.2</ele>
        <time>2022-10-15 12:42:57</time>
      </trkpt>
      <trkpt lat="38.60328" lon="-0.85262">
        <ele>491.2</ele>
        <time>2022-10-15 12:42:58</time>
      </trkpt>
      <trkpt lat="38.60324" lon="-0.85265">
        <ele>491.2</ele>
        <time>2022-10-15 12:42:59</time>
      </trkpt>
      <trkpt lat="38.6032" lon="-0.85268">
        <ele>491.2</ele>
        <time>2022-10-15 12:43:00</time>
      </trkpt>
      <trkpt lat="38.60315" lon="-0.85271">
        <ele>491.2</ele>
        <time>2022-10-15 12:43:01</time>
      </trkpt>
      <trkpt lat="38.60311" lon="-0.85274">
        <ele>491.2</ele>
        <time>2022-10-15 12:43:02</time>
      </trkpt>
      <trkpt lat="38.60306" lon="-0.85277">
        <ele>491</ele>
        <time>2022-10-15 12:43:03</time>
      </trkpt>
      <trkpt lat="38.60302" lon="-0.8528">
        <ele>491</ele>
        <time>2022-10-15 12:43:04</time>
      </trkpt>
      <trkpt lat="38.60297" lon="-0.85283">
        <ele>491</ele>
        <time>2022-10-15 12:43:05</time>
      </trkpt>
      <trkpt lat="38.60293" lon="-0.85286">
        <ele>491</ele>
        <time>2022-10-15 12:43:06</time>
      </trkpt>
      <trkpt lat="38.60289" lon="-0.85289">
        <ele>490.8</ele>
        <time>2022-10-15 12:43:07</time>
      </trkpt>
      <trkpt lat="38.60284" lon="-0.85292">
        <ele>490.8</ele>
        <time>2022-10-15 12:43:08</time>
      </trkpt>
      <trkpt lat="38.6028" lon="-0.85295">
        <ele>490.6</ele>
        <time>2022-10-15 12:43:09</time>
      </trkpt>
      <trkpt lat="38.60276" lon="-0.85298">
        <ele>490.6</ele>
        <time>2022-10-15 12:43:10</time>
      </trkpt>
      <trkpt lat="38.60272" lon="-0.85301">
        <ele>490.6</ele>
        <time>2022-10-15 12:43:11</time>
      </trkpt>
      <trkpt lat="38.60267" lon="-0.85304">
        <ele>490.6</ele>
        <time>2022-10-15 12:43:12</time>
      </trkpt>
      <trkpt lat="38.60263" lon="-0.85307">
        <ele>490.6</ele>
        <time>2022-10-15 12:43:13</time>
      </trkpt>
      <trkpt lat="38.60259" lon="-0.8531">
        <ele>490.4</ele>
        <time>2022-10-15 12:43:14</time>
      </trkpt>
      <trkpt lat="38.60255" lon="-0.85313">
        <ele>490.4</ele>
        <time>2022-10-15 12:43:15</time>
      </trkpt>
      <trkpt lat="38.60251" lon="-0.85316">
        <ele>490.4</ele>
        <time>2022-10-15 12:43:16</time>
      </trkpt>
      <trkpt lat="38.60247" lon="-0.85319">
        <ele>490.4</ele>
        <time>2022-10-15 12:43:17</time>
      </trkpt>
      <trkpt lat="38.60242" lon="-0.85322">
        <ele>490.4</ele>
        <time>2022-10-15 12:43:18</time>
      </trkpt>
      <trkpt lat="38.60238" lon="-0.85325">
        <ele>490.4</ele>
        <time>2022-10-15 12:43:19</time>
      </trkpt>
      <trkpt lat="38.60234" lon="-0.85328">
        <ele>490.4</ele>
        <time>2022-10-15 12:43:20</time>
      </trkpt>
      <trkpt lat="38.6023" lon="-0.85331">
        <ele>490.4</ele>
        <time>2022-10-15 12:43:21</time>
      </trkpt>
      <trkpt lat="38.60226" lon="-0.85334">
        <ele>490.2</ele>
        <time>2022-10-15 12:43:22</time>
      </trkpt>
      <trkpt lat="38.60222" lon="-0.85337">
        <ele>490.2</ele>
        <time>2022-10-15 12:43:23</time>
      </trkpt>
      <trkpt lat="38.60218" lon="-0.8534">
        <ele>490.2</ele>
        <time>2022-10-15 12:43:24</time>
      </trkpt>
      <trkpt lat="38.60213" lon="-0.85343">
        <ele>490.2</ele>
        <time>2022-10-15 12:43:25</time>
      </trkpt>
      <trkpt lat="38.60209" lon="-0.85345">
        <ele>490</ele>
        <time>2022-10-15 12:43:26</time>
      </trkpt>
      <trkpt lat="38.60205" lon="-0.85348">
        <ele>490</ele>
        <time>2022-10-15 12:43:27</time>
      </trkpt>
      <trkpt lat="38.60201" lon="-0.8535">
        <ele>490</ele>
        <time>2022-10-15 12:43:28</time>
      </trkpt>
      <trkpt lat="38.60197" lon="-0.85353">
        <ele>490</ele>
        <time>2022-10-15 12:43:29</time>
      </trkpt>
      <trkpt lat="38.60193" lon="-0.85356">
        <ele>490</ele>
        <time>2022-10-15 12:43:30</time>
      </trkpt>
      <trkpt lat="38.60189" lon="-0.85359">
        <ele>489.8</ele>
        <time>2022-10-15 12:43:31</time>
      </trkpt>
      <trkpt lat="38.60185" lon="-0.85362">
        <ele>489.8</ele>
        <time>2022-10-15 12:43:32</time>
      </trkpt>
      <trkpt lat="38.60181" lon="-0.85364">
        <ele>489.8</ele>
        <time>2022-10-15 12:43:33</time>
      </trkpt>
      <trkpt lat="38.60177" lon="-0.85367">
        <ele>489.8</ele>
        <time>2022-10-15 12:43:34</time>
      </trkpt>
      <trkpt lat="38.60173" lon="-0.8537">
        <ele>490</ele>
        <time>2022-10-15 12:43:35</time>
      </trkpt>
      <trkpt lat="38.6017" lon="-0.85372">
        <ele>490</ele>
        <time>2022-10-15 12:43:36</time>
      </trkpt>
      <trkpt lat="38.60165" lon="-0.85375">
        <ele>490</ele>
        <time>2022-10-15 12:43:37</time>
      </trkpt>
      <trkpt lat="38.60161" lon="-0.85377">
        <ele>490</ele>
        <time>2022-10-15 12:43:38</time>
      </trkpt>
      <trkpt lat="38.60157" lon="-0.8538">
        <ele>490</ele>
        <time>2022-10-15 12:43:39</time>
      </trkpt>
      <trkpt lat="38.60154" lon="-0.85383">
        <ele>490</ele>
        <time>2022-10-15 12:43:40</time>
      </trkpt>
      <trkpt lat="38.60149" lon="-0.85386">
        <ele>490</ele>
        <time>2022-10-15 12:43:41</time>
      </trkpt>
      <trkpt lat="38.60145" lon="-0.85389">
        <ele>490</ele>
        <time>2022-10-15 12:43:42</time>
      </trkpt>
      <trkpt lat="38.60141" lon="-0.85391">
        <ele>490</ele>
        <time>2022-10-15 12:43:43</time>
      </trkpt>
      <trkpt lat="38.60137" lon="-0.85394">
        <ele>490</ele>
        <time>2022-10-15 12:43:44</time>
      </trkpt>
      <trkpt lat="38.60132" lon="-0.85397">
        <ele>490</ele>
        <time>2022-10-15 12:43:45</time>
      </trkpt>
      <trkpt lat="38.60128" lon="-0.85401">
        <ele>490</ele>
        <time>2022-10-15 12:43:46</time>
      </trkpt>
      <trkpt lat="38.60124" lon="-0.85404">
        <ele>490</ele>
        <time>2022-10-15 12:43:47</time>
      </trkpt>
      <trkpt lat="38.6012" lon="-0.85407">
        <ele>490</ele>
        <time>2022-10-15 12:43:48</time>
      </trkpt>
      <trkpt lat="38.60116" lon="-0.8541">
        <ele>489.8</ele>
        <time>2022-10-15 12:43:49</time>
      </trkpt>
      <trkpt lat="38.60112" lon="-0.85413">
        <ele>489.8</ele>
        <time>2022-10-15 12:43:50</time>
      </trkpt>
      <trkpt lat="38.60107" lon="-0.85415">
        <ele>489.8</ele>
        <time>2022-10-15 12:43:51</time>
      </trkpt>
      <trkpt lat="38.60103" lon="-0.85418">
        <ele>489.8</ele>
        <time>2022-10-15 12:43:52</time>
      </trkpt>
      <trkpt lat="38.60099" lon="-0.8542">
        <ele>489.6</ele>
        <time>2022-10-15 12:43:53</time>
      </trkpt>
      <trkpt lat="38.60094" lon="-0.85423">
        <ele>489.6</ele>
        <time>2022-10-15 12:43:54</time>
      </trkpt>
      <trkpt lat="38.6009" lon="-0.85426">
        <ele>489.6</ele>
        <time>2022-10-15 12:43:55</time>
      </trkpt>
      <trkpt lat="38.60086" lon="-0.8543">
        <ele>489.8</ele>
        <time>2022-10-15 12:43:56</time>
      </trkpt>
      <trkpt lat="38.60083" lon="-0.85434">
        <ele>489.4</ele>
        <time>2022-10-15 12:43:57</time>
      </trkpt>
      <trkpt lat="38.60081" lon="-0.8544">
        <ele>489.4</ele>
        <time>2022-10-15 12:43:58</time>
      </trkpt>
      <trkpt lat="38.6008" lon="-0.85445">
        <ele>489.4</ele>
        <time>2022-10-15 12:43:59</time>
      </trkpt>
      <trkpt lat="38.6008" lon="-0.85451">
        <ele>489.6</ele>
        <time>2022-10-15 12:44:00</time>
      </trkpt>
      <trkpt lat="38.60081" lon="-0.85457">
        <ele>489.6</ele>
        <time>2022-10-15 12:44:01</time>
      </trkpt>
      <trkpt lat="38.60082" lon="-0.85462">
        <ele>489.8</ele>
        <time>2022-10-15 12:44:02</time>
      </trkpt>
      <trkpt lat="38.60085" lon="-0.85467">
        <ele>489.8</ele>
        <time>2022-10-15 12:44:03</time>
      </trkpt>
      <trkpt lat="38.60087" lon="-0.85472">
        <ele>489.8</ele>
        <time>2022-10-15 12:44:04</time>
      </trkpt>
      <trkpt lat="38.6009" lon="-0.85476">
        <ele>489.8</ele>
        <time>2022-10-15 12:44:05</time>
      </trkpt>
      <trkpt lat="38.60094" lon="-0.85481">
        <ele>489.8</ele>
        <time>2022-10-15 12:44:06</time>
      </trkpt>
      <trkpt lat="38.60097" lon="-0.85484">
        <ele>489.8</ele>
        <time>2022-10-15 12:44:07</time>
      </trkpt>
      <trkpt lat="38.60101" lon="-0.85488">
        <ele>490</ele>
        <time>2022-10-15 12:44:08</time>
      </trkpt>
      <trkpt lat="38.60105" lon="-0.85491">
        <ele>490</ele>
        <time>2022-10-15 12:44:09</time>
      </trkpt>
      <trkpt lat="38.6011" lon="-0.85493">
        <ele>490</ele>
        <time>2022-10-15 12:44:10</time>
      </trkpt>
      <trkpt lat="38.60114" lon="-0.85495">
        <ele>490.2</ele>
        <time>2022-10-15 12:44:11</time>
      </trkpt>
      <trkpt lat="38.60119" lon="-0.85498">
        <ele>490.2</ele>
        <time>2022-10-15 12:44:12</time>
      </trkpt>
      <trkpt lat="38.60123" lon="-0.855">
        <ele>490.2</ele>
        <time>2022-10-15 12:44:13</time>
      </trkpt>
      <trkpt lat="38.60127" lon="-0.85502">
        <ele>490.2</ele>
        <time>2022-10-15 12:44:14</time>
      </trkpt>
      <trkpt lat="38.60131" lon="-0.85504">
        <ele>490.2</ele>
        <time>2022-10-15 12:44:15</time>
      </trkpt>
      <trkpt lat="38.60136" lon="-0.85507">
        <ele>490.2</ele>
        <time>2022-10-15 12:44:16</time>
      </trkpt>
      <trkpt lat="38.6014" lon="-0.85509">
        <ele>490.2</ele>
        <time>2022-10-15 12:44:17</time>
      </trkpt>
      <trkpt lat="38.60143" lon="-0.85513">
        <ele>490.2</ele>
        <time>2022-10-15 12:44:18</time>
      </trkpt>
      <trkpt lat="38.60145" lon="-0.85517">
        <ele>490.2</ele>
        <time>2022-10-15 12:44:19</time>
      </trkpt>
      <trkpt lat="38.60146" lon="-0.85521">
        <ele>490.2</ele>
        <time>2022-10-15 12:44:20</time>
      </trkpt>
      <trkpt lat="38.60145" lon="-0.85525">
        <ele>490.2</ele>
        <time>2022-10-15 12:44:21</time>
      </trkpt>
      <trkpt lat="38.60142" lon="-0.85529">
        <ele>490.2</ele>
        <time>2022-10-15 12:44:22</time>
      </trkpt>
      <trkpt lat="38.60139" lon="-0.85531">
        <ele>490</ele>
        <time>2022-10-15 12:44:23</time>
      </trkpt>
      <trkpt lat="38.60135" lon="-0.85534">
        <ele>490</ele>
        <time>2022-10-15 12:44:24</time>
      </trkpt>
      <trkpt lat="38.60131" lon="-0.85536">
        <ele>490</ele>
        <time>2022-10-15 12:44:25</time>
      </trkpt>
      <trkpt lat="38.60127" lon="-0.85539">
        <ele>490</ele>
        <time>2022-10-15 12:44:26</time>
      </trkpt>
      <trkpt lat="38.60123" lon="-0.85542">
        <ele>489.8</ele>
        <time>2022-10-15 12:44:27</time>
      </trkpt>
      <trkpt lat="38.60119" lon="-0.85545">
        <ele>489.6</ele>
        <time>2022-10-15 12:44:28</time>
      </trkpt>
      <trkpt lat="38.60115" lon="-0.85548">
        <ele>489.4</ele>
        <time>2022-10-15 12:44:29</time>
      </trkpt>
      <trkpt lat="38.60111" lon="-0.85551">
        <ele>489.2</ele>
        <time>2022-10-15 12:44:30</time>
      </trkpt>
      <trkpt lat="38.60107" lon="-0.85554">
        <ele>489.2</ele>
        <time>2022-10-15 12:44:31</time>
      </trkpt>
      <trkpt lat="38.60103" lon="-0.85557">
        <ele>489</ele>
        <time>2022-10-15 12:44:32</time>
      </trkpt>
      <trkpt lat="38.60099" lon="-0.85559">
        <ele>489</ele>
        <time>2022-10-15 12:44:33</time>
      </trkpt>
      <trkpt lat="38.60095" lon="-0.85562">
        <ele>488.8</ele>
        <time>2022-10-15 12:44:34</time>
      </trkpt>
      <trkpt lat="38.60091" lon="-0.85565">
        <ele>488.8</ele>
        <time>2022-10-15 12:44:35</time>
      </trkpt>
      <trkpt lat="38.60087" lon="-0.85568">
        <ele>488.8</ele>
        <time>2022-10-15 12:44:36</time>
      </trkpt>
      <trkpt lat="38.60083" lon="-0.85571">
        <ele>488.8</ele>
        <time>2022-10-15 12:44:37</time>
      </trkpt>
      <trkpt lat="38.60079" lon="-0.85573">
        <ele>488.6</ele>
        <time>2022-10-15 12:44:38</time>
      </trkpt>
      <trkpt lat="38.60075" lon="-0.85576">
        <ele>488.6</ele>
        <time>2022-10-15 12:44:39</time>
      </trkpt>
      <trkpt lat="38.60071" lon="-0.85579">
        <ele>488.6</ele>
        <time>2022-10-15 12:44:40</time>
      </trkpt>
      <trkpt lat="38.60067" lon="-0.85582">
        <ele>488.6</ele>
        <time>2022-10-15 12:44:41</time>
      </trkpt>
      <trkpt lat="38.60062" lon="-0.85586">
        <ele>488.6</ele>
        <time>2022-10-15 12:44:42</time>
      </trkpt>
      <trkpt lat="38.60058" lon="-0.8559">
        <ele>488.4</ele>
        <time>2022-10-15 12:44:43</time>
      </trkpt>
      <trkpt lat="38.60053" lon="-0.85594">
        <ele>488.6</ele>
        <time>2022-10-15 12:44:44</time>
      </trkpt>
      <trkpt lat="38.60048" lon="-0.85599">
        <ele>488.4</ele>
        <time>2022-10-15 12:44:45</time>
      </trkpt>
      <trkpt lat="38.60044" lon="-0.85604">
        <ele>488.4</ele>
        <time>2022-10-15 12:44:46</time>
      </trkpt>
      <trkpt lat="38.6004" lon="-0.85609">
        <ele>488.4</ele>
        <time>2022-10-15 12:44:47</time>
      </trkpt>
      <trkpt lat="38.60035" lon="-0.85614">
        <ele>488.4</ele>
        <time>2022-10-15 12:44:48</time>
      </trkpt>
      <trkpt lat="38.60031" lon="-0.8562">
        <ele>488.4</ele>
        <time>2022-10-15 12:44:49</time>
      </trkpt>
      <trkpt lat="38.60027" lon="-0.85625">
        <ele>488.4</ele>
        <time>2022-10-15 12:44:50</time>
      </trkpt>
      <trkpt lat="38.60022" lon="-0.8563">
        <ele>488.4</ele>
        <time>2022-10-15 12:44:51</time>
      </trkpt>
      <trkpt lat="38.60018" lon="-0.85636">
        <ele>488.2</ele>
        <time>2022-10-15 12:44:52</time>
      </trkpt>
      <trkpt lat="38.60014" lon="-0.85641">
        <ele>488.2</ele>
        <time>2022-10-15 12:44:53</time>
      </trkpt>
      <trkpt lat="38.6001" lon="-0.85646">
        <ele>488.2</ele>
        <time>2022-10-15 12:44:54</time>
      </trkpt>
      <trkpt lat="38.60006" lon="-0.85651">
        <ele>488.2</ele>
        <time>2022-10-15 12:44:55</time>
      </trkpt>
      <trkpt lat="38.60001" lon="-0.85656">
        <ele>488.2</ele>
        <time>2022-10-15 12:44:56</time>
      </trkpt>
      <trkpt lat="38.59997" lon="-0.85661">
        <ele>488.2</ele>
        <time>2022-10-15 12:44:57</time>
      </trkpt>
      <trkpt lat="38.59988" lon="-0.85672">
        <ele>488.2</ele>
        <time>2022-10-15 12:44:58</time>
      </trkpt>
      <trkpt lat="38.59983" lon="-0.85677">
        <ele>488.2</ele>
        <time>2022-10-15 12:44:59</time>
      </trkpt>
      <trkpt lat="38.59974" lon="-0.85688">
        <ele>488.2</ele>
        <time>2022-10-15 12:45:00</time>
      </trkpt>
      <trkpt lat="38.59974" lon="-0.85688">
        <ele>488.2</ele>
        <time>2022-10-15 12:45:01</time>
      </trkpt>
      <trkpt lat="38.5997" lon="-0.85693">
        <ele>488.2</ele>
        <time>2022-10-15 12:45:02</time>
      </trkpt>
      <trkpt lat="38.59965" lon="-0.85698">
        <ele>488.2</ele>
        <time>2022-10-15 12:45:04</time>
      </trkpt>
      <trkpt lat="38.59961" lon="-0.85703">
        <ele>488.2</ele>
        <time>2022-10-15 12:45:05</time>
      </trkpt>
      <trkpt lat="38.59956" lon="-0.85707">
        <ele>488.2</ele>
        <time>2022-10-15 12:45:06</time>
      </trkpt>
      <trkpt lat="38.59951" lon="-0.85712">
        <ele>488.2</ele>
        <time>2022-10-15 12:45:07</time>
      </trkpt>
      <trkpt lat="38.59946" lon="-0.85716">
        <ele>488.2</ele>
        <time>2022-10-15 12:45:08</time>
      </trkpt>
      <trkpt lat="38.59942" lon="-0.8572">
        <ele>488</ele>
        <time>2022-10-15 12:45:09</time>
      </trkpt>
      <trkpt lat="38.59937" lon="-0.85724">
        <ele>488</ele>
        <time>2022-10-15 12:45:10</time>
      </trkpt>
      <trkpt lat="38.59932" lon="-0.85727">
        <ele>487.8</ele>
        <time>2022-10-15 12:45:11</time>
      </trkpt>
      <trkpt lat="38.59926" lon="-0.8573">
        <ele>487.6</ele>
        <time>2022-10-15 12:45:12</time>
      </trkpt>
      <trkpt lat="38.59921" lon="-0.85732">
        <ele>487.6</ele>
        <time>2022-10-15 12:45:13</time>
      </trkpt>
      <trkpt lat="38.5991" lon="-0.85735">
        <ele>487.4</ele>
        <time>2022-10-15 12:45:14</time>
      </trkpt>
      <trkpt lat="38.5991" lon="-0.85735">
        <ele>487.4</ele>
        <time>2022-10-15 12:45:15</time>
      </trkpt>
      <trkpt lat="38.59904" lon="-0.85736">
        <ele>487.4</ele>
        <time>2022-10-15 12:45:16</time>
      </trkpt>
      <trkpt lat="38.59898" lon="-0.85736">
        <ele>487.2</ele>
        <time>2022-10-15 12:45:17</time>
      </trkpt>
      <trkpt lat="38.59891" lon="-0.85735">
        <ele>487.2</ele>
        <time>2022-10-15 12:45:18</time>
      </trkpt>
      <trkpt lat="38.59885" lon="-0.85734">
        <ele>487.2</ele>
        <time>2022-10-15 12:45:19</time>
      </trkpt>
      <trkpt lat="38.59879" lon="-0.85734">
        <ele>487.2</ele>
        <time>2022-10-15 12:45:20</time>
      </trkpt>
      <trkpt lat="38.59872" lon="-0.85733">
        <ele>487</ele>
        <time>2022-10-15 12:45:21</time>
      </trkpt>
      <trkpt lat="38.59866" lon="-0.85733">
        <ele>487</ele>
        <time>2022-10-15 12:45:22</time>
      </trkpt>
      <trkpt lat="38.59859" lon="-0.85733">
        <ele>487</ele>
        <time>2022-10-15 12:45:23</time>
      </trkpt>
      <trkpt lat="38.59853" lon="-0.85733">
        <ele>486.8</ele>
        <time>2022-10-15 12:45:24</time>
      </trkpt>
      <trkpt lat="38.59847" lon="-0.85734">
        <ele>486.8</ele>
        <time>2022-10-15 12:45:25</time>
      </trkpt>
      <trkpt lat="38.59841" lon="-0.85735">
        <ele>486.8</ele>
        <time>2022-10-15 12:45:26</time>
      </trkpt>
      <trkpt lat="38.59835" lon="-0.85738">
        <ele>486.6</ele>
        <time>2022-10-15 12:45:27</time>
      </trkpt>
      <trkpt lat="38.59829" lon="-0.8574">
        <ele>486.6</ele>
        <time>2022-10-15 12:45:28</time>
      </trkpt>
      <trkpt lat="38.59824" lon="-0.85743">
        <ele>486.6</ele>
        <time>2022-10-15 12:45:29</time>
      </trkpt>
      <trkpt lat="38.59818" lon="-0.85746">
        <ele>486.6</ele>
        <time>2022-10-15 12:45:30</time>
      </trkpt>
      <trkpt lat="38.59814" lon="-0.8575">
        <ele>486.6</ele>
        <time>2022-10-15 12:45:31</time>
      </trkpt>
      <trkpt lat="38.5981" lon="-0.85754">
        <ele>486.6</ele>
        <time>2022-10-15 12:45:32</time>
      </trkpt>
      <trkpt lat="38.59807" lon="-0.85758">
        <ele>486.6</ele>
        <time>2022-10-15 12:45:33</time>
      </trkpt>
      <trkpt lat="38.59804" lon="-0.85762">
        <ele>486.6</ele>
        <time>2022-10-15 12:45:34</time>
      </trkpt>
      <trkpt lat="38.59803" lon="-0.85766">
        <ele>486.6</ele>
        <time>2022-10-15 12:45:35</time>
      </trkpt>
      <trkpt lat="38.59801" lon="-0.8577">
        <ele>486.6</ele>
        <time>2022-10-15 12:45:36</time>
      </trkpt>
      <trkpt lat="38.598" lon="-0.85773">
        <ele>486.6</ele>
        <time>2022-10-15 12:45:37</time>
      </trkpt>
      <trkpt lat="38.59798" lon="-0.85778">
        <ele>486.6</ele>
        <time>2022-10-15 12:45:38</time>
      </trkpt>
      <trkpt lat="38.59797" lon="-0.85782">
        <ele>486.6</ele>
        <time>2022-10-15 12:45:39</time>
      </trkpt>
      <trkpt lat="38.59795" lon="-0.85787">
        <ele>486.6</ele>
        <time>2022-10-15 12:45:40</time>
      </trkpt>
      <trkpt lat="38.59791" lon="-0.85791">
        <ele>486.6</ele>
        <time>2022-10-15 12:45:41</time>
      </trkpt>
      <trkpt lat="38.59787" lon="-0.85793">
        <ele>486.6</ele>
        <time>2022-10-15 12:45:42</time>
      </trkpt>
      <trkpt lat="38.59781" lon="-0.85794">
        <ele>486.6</ele>
        <time>2022-10-15 12:45:43</time>
      </trkpt>
      <trkpt lat="38.59776" lon="-0.85792">
        <ele>486.6</ele>
        <time>2022-10-15 12:45:44</time>
      </trkpt>
      <trkpt lat="38.59771" lon="-0.85789">
        <ele>486.6</ele>
        <time>2022-10-15 12:45:45</time>
      </trkpt>
      <trkpt lat="38.59766" lon="-0.85786">
        <ele>486.6</ele>
        <time>2022-10-15 12:45:46</time>
      </trkpt>
      <trkpt lat="38.5976" lon="-0.85783">
        <ele>486.6</ele>
        <time>2022-10-15 12:45:47</time>
      </trkpt>
      <trkpt lat="38.59755" lon="-0.85781">
        <ele>486.6</ele>
        <time>2022-10-15 12:45:48</time>
      </trkpt>
      <trkpt lat="38.59749" lon="-0.85779">
        <ele>486.4</ele>
        <time>2022-10-15 12:45:49</time>
      </trkpt>
      <trkpt lat="38.59743" lon="-0.85777">
        <ele>485.8</ele>
        <time>2022-10-15 12:45:50</time>
      </trkpt>
      <trkpt lat="38.59737" lon="-0.85776">
        <ele>485.6</ele>
        <time>2022-10-15 12:45:51</time>
      </trkpt>
      <trkpt lat="38.59731" lon="-0.85774">
        <ele>485.4</ele>
        <time>2022-10-15 12:45:52</time>
      </trkpt>
      <trkpt lat="38.59725" lon="-0.85773">
        <ele>485.4</ele>
        <time>2022-10-15 12:45:53</time>
      </trkpt>
      <trkpt lat="38.5972" lon="-0.85771">
        <ele>485.4</ele>
        <time>2022-10-15 12:45:54</time>
      </trkpt>
      <trkpt lat="38.59714" lon="-0.8577">
        <ele>485.4</ele>
        <time>2022-10-15 12:45:55</time>
      </trkpt>
      <trkpt lat="38.59708" lon="-0.85769">
        <ele>485.2</ele>
        <time>2022-10-15 12:45:56</time>
      </trkpt>
      <trkpt lat="38.59703" lon="-0.85767">
        <ele>485.2</ele>
        <time>2022-10-15 12:45:57</time>
      </trkpt>
      <trkpt lat="38.59697" lon="-0.85766">
        <ele>485.2</ele>
        <time>2022-10-15 12:45:58</time>
      </trkpt>
      <trkpt lat="38.59692" lon="-0.85764">
        <ele>485.2</ele>
        <time>2022-10-15 12:45:59</time>
      </trkpt>
      <trkpt lat="38.59687" lon="-0.85763">
        <ele>485.2</ele>
        <time>2022-10-15 12:46:00</time>
      </trkpt>
      <trkpt lat="38.59681" lon="-0.85762">
        <ele>485.2</ele>
        <time>2022-10-15 12:46:01</time>
      </trkpt>
      <trkpt lat="38.59676" lon="-0.85761">
        <ele>485.2</ele>
        <time>2022-10-15 12:46:02</time>
      </trkpt>
      <trkpt lat="38.5967" lon="-0.8576">
        <ele>485.2</ele>
        <time>2022-10-15 12:46:03</time>
      </trkpt>
      <trkpt lat="38.59665" lon="-0.85758">
        <ele>485.4</ele>
        <time>2022-10-15 12:46:04</time>
      </trkpt>
      <trkpt lat="38.5966" lon="-0.85757">
        <ele>485.4</ele>
        <time>2022-10-15 12:46:05</time>
      </trkpt>
      <trkpt lat="38.59654" lon="-0.85756">
        <ele>485.4</ele>
        <time>2022-10-15 12:46:06</time>
      </trkpt>
      <trkpt lat="38.59649" lon="-0.85755">
        <ele>485.4</ele>
        <time>2022-10-15 12:46:07</time>
      </trkpt>
      <trkpt lat="38.59643" lon="-0.85754">
        <ele>485.4</ele>
        <time>2022-10-15 12:46:08</time>
      </trkpt>
      <trkpt lat="38.59638" lon="-0.85752">
        <ele>485.4</ele>
        <time>2022-10-15 12:46:09</time>
      </trkpt>
      <trkpt lat="38.59632" lon="-0.8575">
        <ele>485.4</ele>
        <time>2022-10-15 12:46:10</time>
      </trkpt>
      <trkpt lat="38.59627" lon="-0.85748">
        <ele>485.4</ele>
        <time>2022-10-15 12:46:11</time>
      </trkpt>
      <trkpt lat="38.59621" lon="-0.85746">
        <ele>485.4</ele>
        <time>2022-10-15 12:46:12</time>
      </trkpt>
      <trkpt lat="38.59616" lon="-0.85745">
        <ele>485.4</ele>
        <time>2022-10-15 12:46:13</time>
      </trkpt>
      <trkpt lat="38.5961" lon="-0.85743">
        <ele>485.4</ele>
        <time>2022-10-15 12:46:14</time>
      </trkpt>
      <trkpt lat="38.59605" lon="-0.85742">
        <ele>485.4</ele>
        <time>2022-10-15 12:46:15</time>
      </trkpt>
      <trkpt lat="38.596" lon="-0.85741">
        <ele>485.4</ele>
        <time>2022-10-15 12:46:16</time>
      </trkpt>
      <trkpt lat="38.59595" lon="-0.8574">
        <ele>485.4</ele>
        <time>2022-10-15 12:46:17</time>
      </trkpt>
      <trkpt lat="38.59589" lon="-0.85739">
        <ele>485.4</ele>
        <time>2022-10-15 12:46:18</time>
      </trkpt>
      <trkpt lat="38.59584" lon="-0.85737">
        <ele>485.4</ele>
        <time>2022-10-15 12:46:19</time>
      </trkpt>
      <trkpt lat="38.59579" lon="-0.85736">
        <ele>485.4</ele>
        <time>2022-10-15 12:46:20</time>
      </trkpt>
      <trkpt lat="38.59574" lon="-0.85735">
        <ele>485.4</ele>
        <time>2022-10-15 12:46:21</time>
      </trkpt>
      <trkpt lat="38.59569" lon="-0.85734">
        <ele>485.2</ele>
        <time>2022-10-15 12:46:22</time>
      </trkpt>
      <trkpt lat="38.59564" lon="-0.85735">
        <ele>485.2</ele>
        <time>2022-10-15 12:46:23</time>
      </trkpt>
      <trkpt lat="38.5956" lon="-0.85737">
        <ele>485.2</ele>
        <time>2022-10-15 12:46:24</time>
      </trkpt>
      <trkpt lat="38.59556" lon="-0.8574">
        <ele>485.2</ele>
        <time>2022-10-15 12:46:25</time>
      </trkpt>
      <trkpt lat="38.59553" lon="-0.85745">
        <ele>485.2</ele>
        <time>2022-10-15 12:46:26</time>
      </trkpt>
      <trkpt lat="38.59553" lon="-0.8575">
        <ele>485.2</ele>
        <time>2022-10-15 12:46:27</time>
      </trkpt>
      <trkpt lat="38.59553" lon="-0.85756">
        <ele>485.4</ele>
        <time>2022-10-15 12:46:28</time>
      </trkpt>
      <trkpt lat="38.59554" lon="-0.85763">
        <ele>485.6</ele>
        <time>2022-10-15 12:46:29</time>
      </trkpt>
      <trkpt lat="38.59555" lon="-0.85769">
        <ele>485.6</ele>
        <time>2022-10-15 12:46:30</time>
      </trkpt>
      <trkpt lat="38.59556" lon="-0.85776">
        <ele>485.6</ele>
        <time>2022-10-15 12:46:31</time>
      </trkpt>
      <trkpt lat="38.59556" lon="-0.85783">
        <ele>485.8</ele>
        <time>2022-10-15 12:46:32</time>
      </trkpt>
      <trkpt lat="38.59555" lon="-0.85789">
        <ele>485.8</ele>
        <time>2022-10-15 12:46:33</time>
      </trkpt>
      <trkpt lat="38.59553" lon="-0.85795">
        <ele>485.8</ele>
        <time>2022-10-15 12:46:34</time>
      </trkpt>
      <trkpt lat="38.59546" lon="-0.85803">
        <ele>485.8</ele>
        <time>2022-10-15 12:46:35</time>
      </trkpt>
      <trkpt lat="38.59541" lon="-0.85806">
        <ele>485.6</ele>
        <time>2022-10-15 12:46:36</time>
      </trkpt>
      <trkpt lat="38.59536" lon="-0.85808">
        <ele>485.4</ele>
        <time>2022-10-15 12:46:37</time>
      </trkpt>
      <trkpt lat="38.59519" lon="-0.85815">
        <ele>485</ele>
        <time>2022-10-15 12:46:38</time>
      </trkpt>
      <trkpt lat="38.59508" lon="-0.85819">
        <ele>484.8</ele>
        <time>2022-10-15 12:46:39</time>
      </trkpt>
      <trkpt lat="38.59502" lon="-0.85822">
        <ele>484.6</ele>
        <time>2022-10-15 12:46:41</time>
      </trkpt>
      <trkpt lat="38.59492" lon="-0.85826">
        <ele>484.4</ele>
        <time>2022-10-15 12:46:42</time>
      </trkpt>
      <trkpt lat="38.59486" lon="-0.85829">
        <ele>484.2</ele>
        <time>2022-10-15 12:46:43</time>
      </trkpt>
      <trkpt lat="38.59481" lon="-0.85831">
        <ele>484.2</ele>
        <time>2022-10-15 12:46:46</time>
      </trkpt>
      <trkpt lat="38.59476" lon="-0.85833">
        <ele>484</ele>
        <time>2022-10-15 12:46:48</time>
      </trkpt>
      <trkpt lat="38.59471" lon="-0.85835">
        <ele>484</ele>
        <time>2022-10-15 12:46:49</time>
      </trkpt>
      <trkpt lat="38.59465" lon="-0.85837">
        <ele>483.8</ele>
        <time>2022-10-15 12:46:51</time>
      </trkpt>
      <trkpt lat="38.5946" lon="-0.85839">
        <ele>483.8</ele>
        <time>2022-10-15 12:46:52</time>
      </trkpt>
      <trkpt lat="38.59455" lon="-0.85842">
        <ele>483.8</ele>
        <time>2022-10-15 12:46:53</time>
      </trkpt>
      <trkpt lat="38.5945" lon="-0.85844">
        <ele>483.8</ele>
        <time>2022-10-15 12:46:54</time>
      </trkpt>
      <trkpt lat="38.59445" lon="-0.85846">
        <ele>483.8</ele>
        <time>2022-10-15 12:46:55</time>
      </trkpt>
      <trkpt lat="38.5944" lon="-0.85848">
        <ele>483.8</ele>
        <time>2022-10-15 12:46:56</time>
      </trkpt>
      <trkpt lat="38.59435" lon="-0.8585">
        <ele>483.8</ele>
        <time>2022-10-15 12:46:57</time>
      </trkpt>
      <trkpt lat="38.5943" lon="-0.85852">
        <ele>483.8</ele>
        <time>2022-10-15 12:46:58</time>
      </trkpt>
      <trkpt lat="38.59425" lon="-0.85854">
        <ele>483.8</ele>
        <time>2022-10-15 12:46:59</time>
      </trkpt>
      <trkpt lat="38.5942" lon="-0.85856">
        <ele>484</ele>
        <time>2022-10-15 12:47:00</time>
      </trkpt>
      <trkpt lat="38.59415" lon="-0.85858">
        <ele>484</ele>
        <time>2022-10-15 12:47:01</time>
      </trkpt>
      <trkpt lat="38.5941" lon="-0.8586">
        <ele>484</ele>
        <time>2022-10-15 12:47:02</time>
      </trkpt>
      <trkpt lat="38.59405" lon="-0.85862">
        <ele>484.2</ele>
        <time>2022-10-15 12:47:03</time>
      </trkpt>
      <trkpt lat="38.594" lon="-0.85864">
        <ele>484.2</ele>
        <time>2022-10-15 12:47:04</time>
      </trkpt>
      <trkpt lat="38.59395" lon="-0.85865">
        <ele>484.2</ele>
        <time>2022-10-15 12:47:05</time>
      </trkpt>
      <trkpt lat="38.5939" lon="-0.85867">
        <ele>484.2</ele>
        <time>2022-10-15 12:47:06</time>
      </trkpt>
      <trkpt lat="38.59385" lon="-0.8587">
        <ele>484.4</ele>
        <time>2022-10-15 12:47:07</time>
      </trkpt>
      <trkpt lat="38.5938" lon="-0.85872">
        <ele>484.4</ele>
        <time>2022-10-15 12:47:08</time>
      </trkpt>
      <trkpt lat="38.59375" lon="-0.85874">
        <ele>484.4</ele>
        <time>2022-10-15 12:47:09</time>
      </trkpt>
      <trkpt lat="38.59369" lon="-0.85876">
        <ele>484.4</ele>
        <time>2022-10-15 12:47:10</time>
      </trkpt>
      <trkpt lat="38.59364" lon="-0.85878">
        <ele>484.2</ele>
        <time>2022-10-15 12:47:11</time>
      </trkpt>
      <trkpt lat="38.59359" lon="-0.8588">
        <ele>484.2</ele>
        <time>2022-10-15 12:47:12</time>
      </trkpt>
      <trkpt lat="38.59354" lon="-0.85882">
        <ele>484.2</ele>
        <time>2022-10-15 12:47:13</time>
      </trkpt>
      <trkpt lat="38.59349" lon="-0.85884">
        <ele>484</ele>
        <time>2022-10-15 12:47:14</time>
      </trkpt>
      <trkpt lat="38.59343" lon="-0.85886">
        <ele>484</ele>
        <time>2022-10-15 12:47:15</time>
      </trkpt>
      <trkpt lat="38.59338" lon="-0.85888">
        <ele>484</ele>
        <time>2022-10-15 12:47:16</time>
      </trkpt>
      <trkpt lat="38.59332" lon="-0.8589">
        <ele>484</ele>
        <time>2022-10-15 12:47:17</time>
      </trkpt>
      <trkpt lat="38.59327" lon="-0.85892">
        <ele>484</ele>
        <time>2022-10-15 12:47:18</time>
      </trkpt>
      <trkpt lat="38.59322" lon="-0.85893">
        <ele>484</ele>
        <time>2022-10-15 12:47:19</time>
      </trkpt>
      <trkpt lat="38.59317" lon="-0.85895">
        <ele>484</ele>
        <time>2022-10-15 12:47:20</time>
      </trkpt>
      <trkpt lat="38.59312" lon="-0.85897">
        <ele>483.8</ele>
        <time>2022-10-15 12:47:21</time>
      </trkpt>
      <trkpt lat="38.59307" lon="-0.85899">
        <ele>483.8</ele>
        <time>2022-10-15 12:47:22</time>
      </trkpt>
      <trkpt lat="38.59302" lon="-0.85902">
        <ele>483.8</ele>
        <time>2022-10-15 12:47:23</time>
      </trkpt>
      <trkpt lat="38.59297" lon="-0.85904">
        <ele>483.6</ele>
        <time>2022-10-15 12:47:24</time>
      </trkpt>
      <trkpt lat="38.59292" lon="-0.85906">
        <ele>483.6</ele>
        <time>2022-10-15 12:47:25</time>
      </trkpt>
      <trkpt lat="38.59287" lon="-0.85908">
        <ele>483.6</ele>
        <time>2022-10-15 12:47:26</time>
      </trkpt>
      <trkpt lat="38.59282" lon="-0.8591">
        <ele>483.4</ele>
        <time>2022-10-15 12:47:27</time>
      </trkpt>
      <trkpt lat="38.59277" lon="-0.85912">
        <ele>483.4</ele>
        <time>2022-10-15 12:47:28</time>
      </trkpt>
      <trkpt lat="38.59272" lon="-0.85914">
        <ele>483.2</ele>
        <time>2022-10-15 12:47:29</time>
      </trkpt>
      <trkpt lat="38.59267" lon="-0.85916">
        <ele>483</ele>
        <time>2022-10-15 12:47:30</time>
      </trkpt>
      <trkpt lat="38.59262" lon="-0.85918">
        <ele>483</ele>
        <time>2022-10-15 12:47:31</time>
      </trkpt>
      <trkpt lat="38.59258" lon="-0.8592">
        <ele>483</ele>
        <time>2022-10-15 12:47:32</time>
      </trkpt>
      <trkpt lat="38.59253" lon="-0.85922">
        <ele>483</ele>
        <time>2022-10-15 12:47:33</time>
      </trkpt>
      <trkpt lat="38.59248" lon="-0.85925">
        <ele>483</ele>
        <time>2022-10-15 12:47:34</time>
      </trkpt>
      <trkpt lat="38.59243" lon="-0.85928">
        <ele>482.8</ele>
        <time>2022-10-15 12:47:35</time>
      </trkpt>
      <trkpt lat="38.5924" lon="-0.85931">
        <ele>482.8</ele>
        <time>2022-10-15 12:47:36</time>
      </trkpt>
      <trkpt lat="38.59236" lon="-0.85935">
        <ele>482.8</ele>
        <time>2022-10-15 12:47:37</time>
      </trkpt>
      <trkpt lat="38.59233" lon="-0.85938">
        <ele>483.2</ele>
        <time>2022-10-15 12:47:38</time>
      </trkpt>
      <trkpt lat="38.59229" lon="-0.85941">
        <ele>483.2</ele>
        <time>2022-10-15 12:47:39</time>
      </trkpt>
      <trkpt lat="38.59226" lon="-0.85944">
        <ele>483.2</ele>
        <time>2022-10-15 12:47:40</time>
      </trkpt>
      <trkpt lat="38.59223" lon="-0.85945">
        <ele>483.2</ele>
        <time>2022-10-15 12:47:41</time>
      </trkpt>
      <trkpt lat="38.59219" lon="-0.85944">
        <ele>483.2</ele>
        <time>2022-10-15 12:47:42</time>
      </trkpt>
      <trkpt lat="38.59216" lon="-0.85941">
        <ele>483.4</ele>
        <time>2022-10-15 12:47:43</time>
      </trkpt>
      <trkpt lat="38.59214" lon="-0.85936">
        <ele>483.4</ele>
        <time>2022-10-15 12:47:44</time>
      </trkpt>
      <trkpt lat="38.59211" lon="-0.85931">
        <ele>483.4</ele>
        <time>2022-10-15 12:47:45</time>
      </trkpt>
      <trkpt lat="38.59209" lon="-0.85925">
        <ele>483.6</ele>
        <time>2022-10-15 12:47:46</time>
      </trkpt>
      <trkpt lat="38.59206" lon="-0.85919">
        <ele>483.6</ele>
        <time>2022-10-15 12:47:47</time>
      </trkpt>
      <trkpt lat="38.59203" lon="-0.85914">
        <ele>483.6</ele>
        <time>2022-10-15 12:47:48</time>
      </trkpt>
      <trkpt lat="38.59198" lon="-0.8591">
        <ele>483.6</ele>
        <time>2022-10-15 12:47:49</time>
      </trkpt>
      <trkpt lat="38.59192" lon="-0.85909">
        <ele>483.6</ele>
        <time>2022-10-15 12:47:50</time>
      </trkpt>
      <trkpt lat="38.59187" lon="-0.85909">
        <ele>483.6</ele>
        <time>2022-10-15 12:47:51</time>
      </trkpt>
      <trkpt lat="38.59182" lon="-0.85911">
        <ele>483.6</ele>
        <time>2022-10-15 12:47:52</time>
      </trkpt>
      <trkpt lat="38.59176" lon="-0.85913">
        <ele>483.6</ele>
        <time>2022-10-15 12:47:53</time>
      </trkpt>
      <trkpt lat="38.59171" lon="-0.85915">
        <ele>483.4</ele>
        <time>2022-10-15 12:47:54</time>
      </trkpt>
      <trkpt lat="38.59166" lon="-0.85918">
        <ele>483.2</ele>
        <time>2022-10-15 12:47:55</time>
      </trkpt>
      <trkpt lat="38.5916" lon="-0.85921">
        <ele>482.6</ele>
        <time>2022-10-15 12:47:56</time>
      </trkpt>
      <trkpt lat="38.59155" lon="-0.85923">
        <ele>482.2</ele>
        <time>2022-10-15 12:47:57</time>
      </trkpt>
      <trkpt lat="38.59149" lon="-0.85925">
        <ele>481.8</ele>
        <time>2022-10-15 12:47:58</time>
      </trkpt>
      <trkpt lat="38.59143" lon="-0.85927">
        <ele>481.8</ele>
        <time>2022-10-15 12:47:59</time>
      </trkpt>
      <trkpt lat="38.59138" lon="-0.8593">
        <ele>481.6</ele>
        <time>2022-10-15 12:48:00</time>
      </trkpt>
      <trkpt lat="38.59132" lon="-0.85932">
        <ele>481.6</ele>
        <time>2022-10-15 12:48:01</time>
      </trkpt>
      <trkpt lat="38.59126" lon="-0.85934">
        <ele>481.6</ele>
        <time>2022-10-15 12:48:02</time>
      </trkpt>
      <trkpt lat="38.5912" lon="-0.85936">
        <ele>481.6</ele>
        <time>2022-10-15 12:48:03</time>
      </trkpt>
      <trkpt lat="38.59115" lon="-0.85939">
        <ele>481.6</ele>
        <time>2022-10-15 12:48:04</time>
      </trkpt>
      <trkpt lat="38.59109" lon="-0.85941">
        <ele>481.6</ele>
        <time>2022-10-15 12:48:05</time>
      </trkpt>
      <trkpt lat="38.59103" lon="-0.85944">
        <ele>481.6</ele>
        <time>2022-10-15 12:48:06</time>
      </trkpt>
      <trkpt lat="38.59097" lon="-0.85946">
        <ele>481.6</ele>
        <time>2022-10-15 12:48:07</time>
      </trkpt>
      <trkpt lat="38.59092" lon="-0.85949">
        <ele>481.8</ele>
        <time>2022-10-15 12:48:08</time>
      </trkpt>
      <trkpt lat="38.59086" lon="-0.85952">
        <ele>482</ele>
        <time>2022-10-15 12:48:09</time>
      </trkpt>
      <trkpt lat="38.5908" lon="-0.85955">
        <ele>482.2</ele>
        <time>2022-10-15 12:48:10</time>
      </trkpt>
      <trkpt lat="38.59075" lon="-0.85957">
        <ele>482.2</ele>
        <time>2022-10-15 12:48:11</time>
      </trkpt>
      <trkpt lat="38.59069" lon="-0.8596">
        <ele>482.2</ele>
        <time>2022-10-15 12:48:12</time>
      </trkpt>
      <trkpt lat="38.59063" lon="-0.85963">
        <ele>482.2</ele>
        <time>2022-10-15 12:48:13</time>
      </trkpt>
      <trkpt lat="38.59057" lon="-0.85966">
        <ele>482.2</ele>
        <time>2022-10-15 12:48:14</time>
      </trkpt>
      <trkpt lat="38.59051" lon="-0.85968">
        <ele>482.4</ele>
        <time>2022-10-15 12:48:15</time>
      </trkpt>
      <trkpt lat="38.59045" lon="-0.85971">
        <ele>482.4</ele>
        <time>2022-10-15 12:48:16</time>
      </trkpt>
      <trkpt lat="38.5904" lon="-0.85973">
        <ele>482.4</ele>
        <time>2022-10-15 12:48:17</time>
      </trkpt>
      <trkpt lat="38.59033" lon="-0.85976">
        <ele>482.6</ele>
        <time>2022-10-15 12:48:18</time>
      </trkpt>
      <trkpt lat="38.59028" lon="-0.85978">
        <ele>482.6</ele>
        <time>2022-10-15 12:48:19</time>
      </trkpt>
      <trkpt lat="38.59022" lon="-0.8598">
        <ele>482.6</ele>
        <time>2022-10-15 12:48:20</time>
      </trkpt>
      <trkpt lat="38.59016" lon="-0.85982">
        <ele>482.6</ele>
        <time>2022-10-15 12:48:21</time>
      </trkpt>
      <trkpt lat="38.5901" lon="-0.85985">
        <ele>482.4</ele>
        <time>2022-10-15 12:48:22</time>
      </trkpt>
      <trkpt lat="38.59005" lon="-0.85987">
        <ele>482.4</ele>
        <time>2022-10-15 12:48:23</time>
      </trkpt>
      <trkpt lat="38.58999" lon="-0.8599">
        <ele>482.4</ele>
        <time>2022-10-15 12:48:24</time>
      </trkpt>
      <trkpt lat="38.58994" lon="-0.85993">
        <ele>482.4</ele>
        <time>2022-10-15 12:48:25</time>
      </trkpt>
      <trkpt lat="38.58988" lon="-0.85996">
        <ele>482.2</ele>
        <time>2022-10-15 12:48:26</time>
      </trkpt>
      <trkpt lat="38.58983" lon="-0.85999">
        <ele>482.2</ele>
        <time>2022-10-15 12:48:27</time>
      </trkpt>
      <trkpt lat="38.58977" lon="-0.86002">
        <ele>482.2</ele>
        <time>2022-10-15 12:48:28</time>
      </trkpt>
      <trkpt lat="38.58972" lon="-0.86005">
        <ele>482.2</ele>
        <time>2022-10-15 12:48:29</time>
      </trkpt>
      <trkpt lat="38.58966" lon="-0.86008">
        <ele>482.2</ele>
        <time>2022-10-15 12:48:30</time>
      </trkpt>
      <trkpt lat="38.58961" lon="-0.86011">
        <ele>482</ele>
        <time>2022-10-15 12:48:31</time>
      </trkpt>
      <trkpt lat="38.58955" lon="-0.86014">
        <ele>482</ele>
        <time>2022-10-15 12:48:32</time>
      </trkpt>
      <trkpt lat="38.5895" lon="-0.86017">
        <ele>482</ele>
        <time>2022-10-15 12:48:33</time>
      </trkpt>
      <trkpt lat="38.58944" lon="-0.86021">
        <ele>482</ele>
        <time>2022-10-15 12:48:34</time>
      </trkpt>
      <trkpt lat="38.58939" lon="-0.86023">
        <ele>482</ele>
        <time>2022-10-15 12:48:35</time>
      </trkpt>
      <trkpt lat="38.58933" lon="-0.86026">
        <ele>481.8</ele>
        <time>2022-10-15 12:48:36</time>
      </trkpt>
      <trkpt lat="38.58928" lon="-0.86029">
        <ele>481.6</ele>
        <time>2022-10-15 12:48:37</time>
      </trkpt>
      <trkpt lat="38.58922" lon="-0.86032">
        <ele>481.6</ele>
        <time>2022-10-15 12:48:38</time>
      </trkpt>
      <trkpt lat="38.58917" lon="-0.86034">
        <ele>481.4</ele>
        <time>2022-10-15 12:48:39</time>
      </trkpt>
      <trkpt lat="38.58911" lon="-0.86036">
        <ele>481.4</ele>
        <time>2022-10-15 12:48:40</time>
      </trkpt>
      <trkpt lat="38.58906" lon="-0.86039">
        <ele>481.4</ele>
        <time>2022-10-15 12:48:41</time>
      </trkpt>
      <trkpt lat="38.589" lon="-0.86041">
        <ele>481.4</ele>
        <time>2022-10-15 12:48:42</time>
      </trkpt>
      <trkpt lat="38.58895" lon="-0.86043">
        <ele>481.2</ele>
        <time>2022-10-15 12:48:43</time>
      </trkpt>
      <trkpt lat="38.58889" lon="-0.86045">
        <ele>481.2</ele>
        <time>2022-10-15 12:48:44</time>
      </trkpt>
      <trkpt lat="38.58883" lon="-0.86047">
        <ele>481.2</ele>
        <time>2022-10-15 12:48:45</time>
      </trkpt>
      <trkpt lat="38.58877" lon="-0.86049">
        <ele>481.2</ele>
        <time>2022-10-15 12:48:46</time>
      </trkpt>
      <trkpt lat="38.58872" lon="-0.86052">
        <ele>481.2</ele>
        <time>2022-10-15 12:48:47</time>
      </trkpt>
      <trkpt lat="38.58866" lon="-0.86054">
        <ele>481.2</ele>
        <time>2022-10-15 12:48:48</time>
      </trkpt>
      <trkpt lat="38.5886" lon="-0.86056">
        <ele>481.2</ele>
        <time>2022-10-15 12:48:49</time>
      </trkpt>
      <trkpt lat="38.58854" lon="-0.86058">
        <ele>481.2</ele>
        <time>2022-10-15 12:48:50</time>
      </trkpt>
      <trkpt lat="38.58848" lon="-0.8606">
        <ele>481.2</ele>
        <time>2022-10-15 12:48:51</time>
      </trkpt>
      <trkpt lat="38.58842" lon="-0.86062">
        <ele>481.2</ele>
        <time>2022-10-15 12:48:52</time>
      </trkpt>
      <trkpt lat="38.58836" lon="-0.86065">
        <ele>481.2</ele>
        <time>2022-10-15 12:48:53</time>
      </trkpt>
      <trkpt lat="38.5883" lon="-0.86067">
        <ele>481.2</ele>
        <time>2022-10-15 12:48:54</time>
      </trkpt>
      <trkpt lat="38.58825" lon="-0.86069">
        <ele>481.2</ele>
        <time>2022-10-15 12:48:55</time>
      </trkpt>
      <trkpt lat="38.58819" lon="-0.86072">
        <ele>481.2</ele>
        <time>2022-10-15 12:48:56</time>
      </trkpt>
      <trkpt lat="38.58813" lon="-0.86074">
        <ele>481.2</ele>
        <time>2022-10-15 12:48:57</time>
      </trkpt>
      <trkpt lat="38.58807" lon="-0.86077">
        <ele>481.2</ele>
        <time>2022-10-15 12:48:58</time>
      </trkpt>
      <trkpt lat="38.58801" lon="-0.86079">
        <ele>481.4</ele>
        <time>2022-10-15 12:48:59</time>
      </trkpt>
      <trkpt lat="38.58796" lon="-0.86082">
        <ele>481.4</ele>
        <time>2022-10-15 12:49:00</time>
      </trkpt>
      <trkpt lat="38.5879" lon="-0.86084">
        <ele>481.4</ele>
        <time>2022-10-15 12:49:01</time>
      </trkpt>
      <trkpt lat="38.58784" lon="-0.86087">
        <ele>481.4</ele>
        <time>2022-10-15 12:49:02</time>
      </trkpt>
      <trkpt lat="38.58778" lon="-0.8609">
        <ele>481.4</ele>
        <time>2022-10-15 12:49:03</time>
      </trkpt>
      <trkpt lat="38.58773" lon="-0.86092">
        <ele>481.4</ele>
        <time>2022-10-15 12:49:04</time>
      </trkpt>
      <trkpt lat="38.58767" lon="-0.86095">
        <ele>481.4</ele>
        <time>2022-10-15 12:49:05</time>
      </trkpt>
      <trkpt lat="38.58761" lon="-0.86097">
        <ele>481.4</ele>
        <time>2022-10-15 12:49:06</time>
      </trkpt>
      <trkpt lat="38.58756" lon="-0.86099">
        <ele>481.4</ele>
        <time>2022-10-15 12:49:07</time>
      </trkpt>
      <trkpt lat="38.5875" lon="-0.86102">
        <ele>481.4</ele>
        <time>2022-10-15 12:49:08</time>
      </trkpt>
      <trkpt lat="38.58745" lon="-0.86104">
        <ele>481.4</ele>
        <time>2022-10-15 12:49:09</time>
      </trkpt>
      <trkpt lat="38.58739" lon="-0.86107">
        <ele>481.6</ele>
        <time>2022-10-15 12:49:10</time>
      </trkpt>
      <trkpt lat="38.58734" lon="-0.86111">
        <ele>481.2</ele>
        <time>2022-10-15 12:49:11</time>
      </trkpt>
      <trkpt lat="38.5873" lon="-0.86115">
        <ele>481.4</ele>
        <time>2022-10-15 12:49:12</time>
      </trkpt>
      <trkpt lat="38.58726" lon="-0.86121">
        <ele>481.2</ele>
        <time>2022-10-15 12:49:13</time>
      </trkpt>
      <trkpt lat="38.58723" lon="-0.86127">
        <ele>481.4</ele>
        <time>2022-10-15 12:49:14</time>
      </trkpt>
      <trkpt lat="38.58721" lon="-0.86134">
        <ele>481.6</ele>
        <time>2022-10-15 12:49:15</time>
      </trkpt>
      <trkpt lat="38.58719" lon="-0.86141">
        <ele>481.6</ele>
        <time>2022-10-15 12:49:16</time>
      </trkpt>
      <trkpt lat="38.58718" lon="-0.86148">
        <ele>481.6</ele>
        <time>2022-10-15 12:49:17</time>
      </trkpt>
      <trkpt lat="38.58716" lon="-0.86155">
        <ele>481.6</ele>
        <time>2022-10-15 12:49:18</time>
      </trkpt>
      <trkpt lat="38.58715" lon="-0.86162">
        <ele>481.6</ele>
        <time>2022-10-15 12:49:19</time>
      </trkpt>
      <trkpt lat="38.58714" lon="-0.86169">
        <ele>481.6</ele>
        <time>2022-10-15 12:49:20</time>
      </trkpt>
      <trkpt lat="38.58712" lon="-0.86176">
        <ele>481.6</ele>
        <time>2022-10-15 12:49:21</time>
      </trkpt>
      <trkpt lat="38.58711" lon="-0.86183">
        <ele>481.6</ele>
        <time>2022-10-15 12:49:22</time>
      </trkpt>
      <trkpt lat="38.5871" lon="-0.8619">
        <ele>481.6</ele>
        <time>2022-10-15 12:49:23</time>
      </trkpt>
      <trkpt lat="38.58709" lon="-0.86197">
        <ele>481.6</ele>
        <time>2022-10-15 12:49:24</time>
      </trkpt>
      <trkpt lat="38.58707" lon="-0.86204">
        <ele>481.8</ele>
        <time>2022-10-15 12:49:25</time>
      </trkpt>
      <trkpt lat="38.58705" lon="-0.86211">
        <ele>481.8</ele>
        <time>2022-10-15 12:49:26</time>
      </trkpt>
      <trkpt lat="38.58703" lon="-0.86218">
        <ele>481.8</ele>
        <time>2022-10-15 12:49:27</time>
      </trkpt>
      <trkpt lat="38.58701" lon="-0.86225">
        <ele>481.8</ele>
        <time>2022-10-15 12:49:28</time>
      </trkpt>
      <trkpt lat="38.58699" lon="-0.86232">
        <ele>481.8</ele>
        <time>2022-10-15 12:49:29</time>
      </trkpt>
      <trkpt lat="38.58696" lon="-0.86239">
        <ele>481.8</ele>
        <time>2022-10-15 12:49:30</time>
      </trkpt>
      <trkpt lat="38.58694" lon="-0.86246">
        <ele>481.8</ele>
        <time>2022-10-15 12:49:31</time>
      </trkpt>
      <trkpt lat="38.58692" lon="-0.86253">
        <ele>481.8</ele>
        <time>2022-10-15 12:49:32</time>
      </trkpt>
      <trkpt lat="38.5869" lon="-0.8626">
        <ele>481.8</ele>
        <time>2022-10-15 12:49:33</time>
      </trkpt>
      <trkpt lat="38.58688" lon="-0.86268">
        <ele>481.8</ele>
        <time>2022-10-15 12:49:34</time>
      </trkpt>
      <trkpt lat="38.58687" lon="-0.86275">
        <ele>481.8</ele>
        <time>2022-10-15 12:49:35</time>
      </trkpt>
      <trkpt lat="38.58685" lon="-0.86283">
        <ele>481.8</ele>
        <time>2022-10-15 12:49:36</time>
      </trkpt>
      <trkpt lat="38.58684" lon="-0.8629">
        <ele>481.8</ele>
        <time>2022-10-15 12:49:37</time>
      </trkpt>
      <trkpt lat="38.58682" lon="-0.86298">
        <ele>481.8</ele>
        <time>2022-10-15 12:49:38</time>
      </trkpt>
      <trkpt lat="38.58681" lon="-0.86306">
        <ele>481.8</ele>
        <time>2022-10-15 12:49:39</time>
      </trkpt>
      <trkpt lat="38.5868" lon="-0.86314">
        <ele>481.6</ele>
        <time>2022-10-15 12:49:40</time>
      </trkpt>
      <trkpt lat="38.58679" lon="-0.86322">
        <ele>481.6</ele>
        <time>2022-10-15 12:49:41</time>
      </trkpt>
      <trkpt lat="38.58678" lon="-0.8633">
        <ele>481.6</ele>
        <time>2022-10-15 12:49:42</time>
      </trkpt>
      <trkpt lat="38.58677" lon="-0.86338">
        <ele>481.6</ele>
        <time>2022-10-15 12:49:43</time>
      </trkpt>
      <trkpt lat="38.58677" lon="-0.86346">
        <ele>481.6</ele>
        <time>2022-10-15 12:49:44</time>
      </trkpt>
      <trkpt lat="38.58676" lon="-0.86354">
        <ele>481.6</ele>
        <time>2022-10-15 12:49:45</time>
      </trkpt>
      <trkpt lat="38.58675" lon="-0.86361">
        <ele>481.6</ele>
        <time>2022-10-15 12:49:46</time>
      </trkpt>
      <trkpt lat="38.58675" lon="-0.86369">
        <ele>481.6</ele>
        <time>2022-10-15 12:49:47</time>
      </trkpt>
      <trkpt lat="38.58674" lon="-0.86377">
        <ele>481.6</ele>
        <time>2022-10-15 12:49:48</time>
      </trkpt>
      <trkpt lat="38.58672" lon="-0.86385">
        <ele>481.6</ele>
        <time>2022-10-15 12:49:49</time>
      </trkpt>
      <trkpt lat="38.58671" lon="-0.86392">
        <ele>481.6</ele>
        <time>2022-10-15 12:49:50</time>
      </trkpt>
      <trkpt lat="38.5867" lon="-0.86399">
        <ele>481.6</ele>
        <time>2022-10-15 12:49:51</time>
      </trkpt>
      <trkpt lat="38.58668" lon="-0.86407">
        <ele>481.6</ele>
        <time>2022-10-15 12:49:52</time>
      </trkpt>
      <trkpt lat="38.58667" lon="-0.86414">
        <ele>481.6</ele>
        <time>2022-10-15 12:49:53</time>
      </trkpt>
      <trkpt lat="38.58666" lon="-0.86422">
        <ele>481.4</ele>
        <time>2022-10-15 12:49:54</time>
      </trkpt>
      <trkpt lat="38.58665" lon="-0.86429">
        <ele>481.4</ele>
        <time>2022-10-15 12:49:55</time>
      </trkpt>
      <trkpt lat="38.58664" lon="-0.86437">
        <ele>481.4</ele>
        <time>2022-10-15 12:49:56</time>
      </trkpt>
      <trkpt lat="38.58662" lon="-0.86444">
        <ele>481.4</ele>
        <time>2022-10-15 12:49:57</time>
      </trkpt>
      <trkpt lat="38.58661" lon="-0.86451">
        <ele>481.4</ele>
        <time>2022-10-15 12:49:58</time>
      </trkpt>
      <trkpt lat="38.58659" lon="-0.86459">
        <ele>481.4</ele>
        <time>2022-10-15 12:49:59</time>
      </trkpt>
      <trkpt lat="38.58658" lon="-0.86466">
        <ele>481.2</ele>
        <time>2022-10-15 12:50:00</time>
      </trkpt>
      <trkpt lat="38.58657" lon="-0.86473">
        <ele>481.2</ele>
        <time>2022-10-15 12:50:01</time>
      </trkpt>
      <trkpt lat="38.58655" lon="-0.8648">
        <ele>481</ele>
        <time>2022-10-15 12:50:02</time>
      </trkpt>
      <trkpt lat="38.58654" lon="-0.86486">
        <ele>481</ele>
        <time>2022-10-15 12:50:03</time>
      </trkpt>
      <trkpt lat="38.58653" lon="-0.86493">
        <ele>480.8</ele>
        <time>2022-10-15 12:50:04</time>
      </trkpt>
      <trkpt lat="38.58651" lon="-0.865">
        <ele>480.8</ele>
        <time>2022-10-15 12:50:05</time>
      </trkpt>
      <trkpt lat="38.5865" lon="-0.86506">
        <ele>480.8</ele>
        <time>2022-10-15 12:50:06</time>
      </trkpt>
      <trkpt lat="38.5865" lon="-0.86513">
        <ele>480.8</ele>
        <time>2022-10-15 12:50:07</time>
      </trkpt>
      <trkpt lat="38.58649" lon="-0.8652">
        <ele>480.8</ele>
        <time>2022-10-15 12:50:08</time>
      </trkpt>
      <trkpt lat="38.58649" lon="-0.86527">
        <ele>480.8</ele>
        <time>2022-10-15 12:50:09</time>
      </trkpt>
      <trkpt lat="38.58649" lon="-0.86534">
        <ele>480.8</ele>
        <time>2022-10-15 12:50:10</time>
      </trkpt>
      <trkpt lat="38.58648" lon="-0.86541">
        <ele>480.8</ele>
        <time>2022-10-15 12:50:11</time>
      </trkpt>
      <trkpt lat="38.58648" lon="-0.86548">
        <ele>480.8</ele>
        <time>2022-10-15 12:50:12</time>
      </trkpt>
      <trkpt lat="38.58646" lon="-0.86555">
        <ele>480.8</ele>
        <time>2022-10-15 12:50:13</time>
      </trkpt>
      <trkpt lat="38.58645" lon="-0.86561">
        <ele>480.8</ele>
        <time>2022-10-15 12:50:14</time>
      </trkpt>
      <trkpt lat="38.58644" lon="-0.86568">
        <ele>481</ele>
        <time>2022-10-15 12:50:15</time>
      </trkpt>
      <trkpt lat="38.58642" lon="-0.86574">
        <ele>481</ele>
        <time>2022-10-15 12:50:16</time>
      </trkpt>
      <trkpt lat="38.5864" lon="-0.8658">
        <ele>481</ele>
        <time>2022-10-15 12:50:17</time>
      </trkpt>
      <trkpt lat="38.58638" lon="-0.86587">
        <ele>481.2</ele>
        <time>2022-10-15 12:50:18</time>
      </trkpt>
      <trkpt lat="38.58637" lon="-0.86594">
        <ele>481.2</ele>
        <time>2022-10-15 12:50:19</time>
      </trkpt>
      <trkpt lat="38.58635" lon="-0.866">
        <ele>481.2</ele>
        <time>2022-10-15 12:50:20</time>
      </trkpt>
      <trkpt lat="38.58633" lon="-0.86607">
        <ele>481.2</ele>
        <time>2022-10-15 12:50:21</time>
      </trkpt>
      <trkpt lat="38.58631" lon="-0.86613">
        <ele>481.2</ele>
        <time>2022-10-15 12:50:22</time>
      </trkpt>
      <trkpt lat="38.58629" lon="-0.8662">
        <ele>481</ele>
        <time>2022-10-15 12:50:23</time>
      </trkpt>
      <trkpt lat="38.58627" lon="-0.86627">
        <ele>481</ele>
        <time>2022-10-15 12:50:24</time>
      </trkpt>
      <trkpt lat="38.58626" lon="-0.86634">
        <ele>481</ele>
        <time>2022-10-15 12:50:25</time>
      </trkpt>
      <trkpt lat="38.58624" lon="-0.86641">
        <ele>480.8</ele>
        <time>2022-10-15 12:50:26</time>
      </trkpt>
      <trkpt lat="38.58623" lon="-0.86648">
        <ele>480.8</ele>
        <time>2022-10-15 12:50:27</time>
      </trkpt>
      <trkpt lat="38.58621" lon="-0.86655">
        <ele>480.8</ele>
        <time>2022-10-15 12:50:28</time>
      </trkpt>
      <trkpt lat="38.5862" lon="-0.86662">
        <ele>480.6</ele>
        <time>2022-10-15 12:50:29</time>
      </trkpt>
      <trkpt lat="38.58618" lon="-0.86669">
        <ele>480.8</ele>
        <time>2022-10-15 12:50:30</time>
      </trkpt>
      <trkpt lat="38.58617" lon="-0.86676">
        <ele>480.8</ele>
        <time>2022-10-15 12:50:31</time>
      </trkpt>
      <trkpt lat="38.58616" lon="-0.86683">
        <ele>480.8</ele>
        <time>2022-10-15 12:50:32</time>
      </trkpt>
      <trkpt lat="38.58615" lon="-0.8669">
        <ele>480.8</ele>
        <time>2022-10-15 12:50:33</time>
      </trkpt>
      <trkpt lat="38.58614" lon="-0.86696">
        <ele>480.8</ele>
        <time>2022-10-15 12:50:34</time>
      </trkpt>
      <trkpt lat="38.58612" lon="-0.86703">
        <ele>480.8</ele>
        <time>2022-10-15 12:50:35</time>
      </trkpt>
      <trkpt lat="38.58611" lon="-0.86709">
        <ele>480.8</ele>
        <time>2022-10-15 12:50:36</time>
      </trkpt>
      <trkpt lat="38.5861" lon="-0.86716">
        <ele>480.8</ele>
        <time>2022-10-15 12:50:37</time>
      </trkpt>
      <trkpt lat="38.58608" lon="-0.86728">
        <ele>480.8</ele>
        <time>2022-10-15 12:50:38</time>
      </trkpt>
      <trkpt lat="38.58607" lon="-0.86735">
        <ele>481</ele>
        <time>2022-10-15 12:50:39</time>
      </trkpt>
      <trkpt lat="38.58606" lon="-0.86741">
        <ele>481</ele>
        <time>2022-10-15 12:50:40</time>
      </trkpt>
      <trkpt lat="38.58604" lon="-0.86748">
        <ele>481</ele>
        <time>2022-10-15 12:50:41</time>
      </trkpt>
      <trkpt lat="38.58602" lon="-0.86753">
        <ele>481</ele>
        <time>2022-10-15 12:50:42</time>
      </trkpt>
      <trkpt lat="38.58599" lon="-0.86755">
        <ele>481</ele>
        <time>2022-10-15 12:50:44</time>
      </trkpt>
      <trkpt lat="38.58595" lon="-0.86755">
        <ele>481.2</ele>
        <time>2022-10-15 12:50:45</time>
      </trkpt>
      <trkpt lat="38.58591" lon="-0.86754">
        <ele>481.2</ele>
        <time>2022-10-15 12:50:46</time>
      </trkpt>
      <trkpt lat="38.58587" lon="-0.86753">
        <ele>481.2</ele>
        <time>2022-10-15 12:50:47</time>
      </trkpt>
      <trkpt lat="38.58582" lon="-0.86752">
        <ele>481.2</ele>
        <time>2022-10-15 12:50:48</time>
      </trkpt>
      <trkpt lat="38.58578" lon="-0.86752">
        <ele>481.2</ele>
        <time>2022-10-15 12:50:49</time>
      </trkpt>
      <trkpt lat="38.58573" lon="-0.86751">
        <ele>481.2</ele>
        <time>2022-10-15 12:50:50</time>
      </trkpt>
      <trkpt lat="38.58568" lon="-0.8675">
        <ele>481.2</ele>
        <time>2022-10-15 12:50:51</time>
      </trkpt>
      <trkpt lat="38.58564" lon="-0.8675">
        <ele>481.4</ele>
        <time>2022-10-15 12:50:52</time>
      </trkpt>
      <trkpt lat="38.58559" lon="-0.86749">
        <ele>481.4</ele>
        <time>2022-10-15 12:50:53</time>
      </trkpt>
      <trkpt lat="38.58554" lon="-0.86748">
        <ele>481.4</ele>
        <time>2022-10-15 12:50:54</time>
      </trkpt>
      <trkpt lat="38.58549" lon="-0.86747">
        <ele>481.4</ele>
        <time>2022-10-15 12:50:55</time>
      </trkpt>
      <trkpt lat="38.58544" lon="-0.86746">
        <ele>481.4</ele>
        <time>2022-10-15 12:50:56</time>
      </trkpt>
      <trkpt lat="38.58539" lon="-0.86745">
        <ele>481.6</ele>
        <time>2022-10-15 12:50:57</time>
      </trkpt>
      <trkpt lat="38.58534" lon="-0.86744">
        <ele>481.6</ele>
        <time>2022-10-15 12:50:58</time>
      </trkpt>
      <trkpt lat="38.58529" lon="-0.86743">
        <ele>481.6</ele>
        <time>2022-10-15 12:50:59</time>
      </trkpt>
      <trkpt lat="38.58524" lon="-0.86743">
        <ele>481.6</ele>
        <time>2022-10-15 12:51:00</time>
      </trkpt>
      <trkpt lat="38.58518" lon="-0.86742">
        <ele>481.6</ele>
        <time>2022-10-15 12:51:01</time>
      </trkpt>
      <trkpt lat="38.58513" lon="-0.86741">
        <ele>481.6</ele>
        <time>2022-10-15 12:51:02</time>
      </trkpt>
      <trkpt lat="38.58508" lon="-0.8674">
        <ele>481.6</ele>
        <time>2022-10-15 12:51:03</time>
      </trkpt>
      <trkpt lat="38.58503" lon="-0.86739">
        <ele>481.6</ele>
        <time>2022-10-15 12:51:04</time>
      </trkpt>
      <trkpt lat="38.58498" lon="-0.86738">
        <ele>481.6</ele>
        <time>2022-10-15 12:51:05</time>
      </trkpt>
      <trkpt lat="38.58493" lon="-0.86737">
        <ele>481.6</ele>
        <time>2022-10-15 12:51:06</time>
      </trkpt>
      <trkpt lat="38.58488" lon="-0.86736">
        <ele>481.6</ele>
        <time>2022-10-15 12:51:07</time>
      </trkpt>
      <trkpt lat="38.58483" lon="-0.86735">
        <ele>481.6</ele>
        <time>2022-10-15 12:51:08</time>
      </trkpt>
      <trkpt lat="38.58478" lon="-0.86734">
        <ele>481.6</ele>
        <time>2022-10-15 12:51:09</time>
      </trkpt>
      <trkpt lat="38.58473" lon="-0.86733">
        <ele>481.6</ele>
        <time>2022-10-15 12:51:10</time>
      </trkpt>
      <trkpt lat="38.58468" lon="-0.86732">
        <ele>481.6</ele>
        <time>2022-10-15 12:51:11</time>
      </trkpt>
      <trkpt lat="38.58463" lon="-0.86731">
        <ele>481.6</ele>
        <time>2022-10-15 12:51:12</time>
      </trkpt>
      <trkpt lat="38.58458" lon="-0.8673">
        <ele>481.4</ele>
        <time>2022-10-15 12:51:13</time>
      </trkpt>
      <trkpt lat="38.58453" lon="-0.86729">
        <ele>481.4</ele>
        <time>2022-10-15 12:51:14</time>
      </trkpt>
      <trkpt lat="38.58448" lon="-0.86729">
        <ele>481.2</ele>
        <time>2022-10-15 12:51:15</time>
      </trkpt>
      <trkpt lat="38.58443" lon="-0.86728">
        <ele>481.2</ele>
        <time>2022-10-15 12:51:16</time>
      </trkpt>
      <trkpt lat="38.58438" lon="-0.86727">
        <ele>481</ele>
        <time>2022-10-15 12:51:17</time>
      </trkpt>
      <trkpt lat="38.58433" lon="-0.86726">
        <ele>481</ele>
        <time>2022-10-15 12:51:18</time>
      </trkpt>
      <trkpt lat="38.58428" lon="-0.86725">
        <ele>481</ele>
        <time>2022-10-15 12:51:19</time>
      </trkpt>
      <trkpt lat="38.58423" lon="-0.86724">
        <ele>481</ele>
        <time>2022-10-15 12:51:20</time>
      </trkpt>
      <trkpt lat="38.58419" lon="-0.86723">
        <ele>480.8</ele>
        <time>2022-10-15 12:51:21</time>
      </trkpt>
      <trkpt lat="38.58414" lon="-0.86722">
        <ele>480.8</ele>
        <time>2022-10-15 12:51:22</time>
      </trkpt>
      <trkpt lat="38.58409" lon="-0.86721">
        <ele>480.6</ele>
        <time>2022-10-15 12:51:23</time>
      </trkpt>
      <trkpt lat="38.58404" lon="-0.8672">
        <ele>480.6</ele>
        <time>2022-10-15 12:51:24</time>
      </trkpt>
      <trkpt lat="38.58399" lon="-0.86718">
        <ele>480.6</ele>
        <time>2022-10-15 12:51:25</time>
      </trkpt>
      <trkpt lat="38.58394" lon="-0.86717">
        <ele>480.4</ele>
        <time>2022-10-15 12:51:26</time>
      </trkpt>
      <trkpt lat="38.5839" lon="-0.86715">
        <ele>480.4</ele>
        <time>2022-10-15 12:51:27</time>
      </trkpt>
      <trkpt lat="38.58385" lon="-0.86713">
        <ele>480.2</ele>
        <time>2022-10-15 12:51:28</time>
      </trkpt>
      <trkpt lat="38.58381" lon="-0.86711">
        <ele>480.2</ele>
        <time>2022-10-15 12:51:29</time>
      </trkpt>
      <trkpt lat="38.58376" lon="-0.86709">
        <ele>480.2</ele>
        <time>2022-10-15 12:51:30</time>
      </trkpt>
      <trkpt lat="38.58371" lon="-0.86707">
        <ele>480.2</ele>
        <time>2022-10-15 12:51:31</time>
      </trkpt>
      <trkpt lat="38.58366" lon="-0.86706">
        <ele>480.2</ele>
        <time>2022-10-15 12:51:32</time>
      </trkpt>
      <trkpt lat="38.58361" lon="-0.86704">
        <ele>480.2</ele>
        <time>2022-10-15 12:51:33</time>
      </trkpt>
      <trkpt lat="38.58356" lon="-0.86702">
        <ele>480.2</ele>
        <time>2022-10-15 12:51:34</time>
      </trkpt>
      <trkpt lat="38.58351" lon="-0.86699">
        <ele>480.2</ele>
        <time>2022-10-15 12:51:35</time>
      </trkpt>
      <trkpt lat="38.58347" lon="-0.86697">
        <ele>480.2</ele>
        <time>2022-10-15 12:51:36</time>
      </trkpt>
      <trkpt lat="38.58343" lon="-0.86694">
        <ele>480.2</ele>
        <time>2022-10-15 12:51:37</time>
      </trkpt>
      <trkpt lat="38.58338" lon="-0.86691">
        <ele>480.2</ele>
        <time>2022-10-15 12:51:38</time>
      </trkpt>
      <trkpt lat="38.58334" lon="-0.86688">
        <ele>480.2</ele>
        <time>2022-10-15 12:51:39</time>
      </trkpt>
      <trkpt lat="38.5833" lon="-0.86684">
        <ele>480.2</ele>
        <time>2022-10-15 12:51:40</time>
      </trkpt>
      <trkpt lat="38.58326" lon="-0.86681">
        <ele>480.2</ele>
        <time>2022-10-15 12:51:41</time>
      </trkpt>
      <trkpt lat="38.58322" lon="-0.86677">
        <ele>480.4</ele>
        <time>2022-10-15 12:51:42</time>
      </trkpt>
      <trkpt lat="38.58318" lon="-0.86672">
        <ele>480.6</ele>
        <time>2022-10-15 12:51:43</time>
      </trkpt>
      <trkpt lat="38.58315" lon="-0.86668">
        <ele>480.6</ele>
        <time>2022-10-15 12:51:44</time>
      </trkpt>
      <trkpt lat="38.58311" lon="-0.86664">
        <ele>480.6</ele>
        <time>2022-10-15 12:51:45</time>
      </trkpt>
      <trkpt lat="38.58307" lon="-0.8666">
        <ele>480.8</ele>
        <time>2022-10-15 12:51:46</time>
      </trkpt>
      <trkpt lat="38.58303" lon="-0.86656">
        <ele>481</ele>
        <time>2022-10-15 12:51:47</time>
      </trkpt>
      <trkpt lat="38.58299" lon="-0.86652">
        <ele>481</ele>
        <time>2022-10-15 12:51:48</time>
      </trkpt>
      <trkpt lat="38.58295" lon="-0.86648">
        <ele>481.2</ele>
        <time>2022-10-15 12:51:49</time>
      </trkpt>
      <trkpt lat="38.58291" lon="-0.86643">
        <ele>481.2</ele>
        <time>2022-10-15 12:51:50</time>
      </trkpt>
      <trkpt lat="38.58287" lon="-0.86639">
        <ele>481.2</ele>
        <time>2022-10-15 12:51:51</time>
      </trkpt>
      <trkpt lat="38.58284" lon="-0.86634">
        <ele>481.4</ele>
        <time>2022-10-15 12:51:52</time>
      </trkpt>
      <trkpt lat="38.5828" lon="-0.8663">
        <ele>481.4</ele>
        <time>2022-10-15 12:51:53</time>
      </trkpt>
      <trkpt lat="38.58276" lon="-0.86625">
        <ele>481.4</ele>
        <time>2022-10-15 12:51:54</time>
      </trkpt>
      <trkpt lat="38.58272" lon="-0.8662">
        <ele>481.4</ele>
        <time>2022-10-15 12:51:55</time>
      </trkpt>
      <trkpt lat="38.58268" lon="-0.86616">
        <ele>481.4</ele>
        <time>2022-10-15 12:51:56</time>
      </trkpt>
      <trkpt lat="38.58264" lon="-0.86611">
        <ele>481.4</ele>
        <time>2022-10-15 12:51:57</time>
      </trkpt>
      <trkpt lat="38.5826" lon="-0.86607">
        <ele>481.4</ele>
        <time>2022-10-15 12:51:58</time>
      </trkpt>
      <trkpt lat="38.58257" lon="-0.86602">
        <ele>481.4</ele>
        <time>2022-10-15 12:51:59</time>
      </trkpt>
      <trkpt lat="38.58253" lon="-0.86598">
        <ele>481.4</ele>
        <time>2022-10-15 12:52:00</time>
      </trkpt>
      <trkpt lat="38.58249" lon="-0.86593">
        <ele>481.4</ele>
        <time>2022-10-15 12:52:01</time>
      </trkpt>
      <trkpt lat="38.58245" lon="-0.86588">
        <ele>481.4</ele>
        <time>2022-10-15 12:52:02</time>
      </trkpt>
      <trkpt lat="38.58241" lon="-0.86583">
        <ele>481.4</ele>
        <time>2022-10-15 12:52:03</time>
      </trkpt>
      <trkpt lat="38.58237" lon="-0.86579">
        <ele>481.4</ele>
        <time>2022-10-15 12:52:04</time>
      </trkpt>
      <trkpt lat="38.58233" lon="-0.86574">
        <ele>481.4</ele>
        <time>2022-10-15 12:52:05</time>
      </trkpt>
      <trkpt lat="38.58229" lon="-0.8657">
        <ele>481.4</ele>
        <time>2022-10-15 12:52:06</time>
      </trkpt>
      <trkpt lat="38.58225" lon="-0.86566">
        <ele>481.4</ele>
        <time>2022-10-15 12:52:07</time>
      </trkpt>
      <trkpt lat="38.58221" lon="-0.86561">
        <ele>481.4</ele>
        <time>2022-10-15 12:52:08</time>
      </trkpt>
      <trkpt lat="38.58217" lon="-0.86557">
        <ele>481.4</ele>
        <time>2022-10-15 12:52:09</time>
      </trkpt>
      <trkpt lat="38.58213" lon="-0.86553">
        <ele>481.2</ele>
        <time>2022-10-15 12:52:10</time>
      </trkpt>
      <trkpt lat="38.58209" lon="-0.86548">
        <ele>481.2</ele>
        <time>2022-10-15 12:52:11</time>
      </trkpt>
      <trkpt lat="38.58206" lon="-0.86544">
        <ele>481.2</ele>
        <time>2022-10-15 12:52:12</time>
      </trkpt>
      <trkpt lat="38.58202" lon="-0.8654">
        <ele>481.2</ele>
        <time>2022-10-15 12:52:13</time>
      </trkpt>
      <trkpt lat="38.58198" lon="-0.86535">
        <ele>481.2</ele>
        <time>2022-10-15 12:52:14</time>
      </trkpt>
      <trkpt lat="38.58194" lon="-0.8653">
        <ele>481.2</ele>
        <time>2022-10-15 12:52:15</time>
      </trkpt>
      <trkpt lat="38.58191" lon="-0.86525">
        <ele>481.2</ele>
        <time>2022-10-15 12:52:16</time>
      </trkpt>
      <trkpt lat="38.58187" lon="-0.86521">
        <ele>481.2</ele>
        <time>2022-10-15 12:52:17</time>
      </trkpt>
      <trkpt lat="38.58183" lon="-0.86516">
        <ele>481.2</ele>
        <time>2022-10-15 12:52:18</time>
      </trkpt>
      <trkpt lat="38.58179" lon="-0.86511">
        <ele>481.4</ele>
        <time>2022-10-15 12:52:19</time>
      </trkpt>
      <trkpt lat="38.58176" lon="-0.86507">
        <ele>481.4</ele>
        <time>2022-10-15 12:52:20</time>
      </trkpt>
      <trkpt lat="38.58172" lon="-0.86502">
        <ele>481.4</ele>
        <time>2022-10-15 12:52:21</time>
      </trkpt>
      <trkpt lat="38.58168" lon="-0.86498">
        <ele>481.4</ele>
        <time>2022-10-15 12:52:22</time>
      </trkpt>
      <trkpt lat="38.58164" lon="-0.86493">
        <ele>481.4</ele>
        <time>2022-10-15 12:52:23</time>
      </trkpt>
      <trkpt lat="38.58161" lon="-0.86489">
        <ele>481.6</ele>
        <time>2022-10-15 12:52:24</time>
      </trkpt>
      <trkpt lat="38.58157" lon="-0.86484">
        <ele>481.6</ele>
        <time>2022-10-15 12:52:25</time>
      </trkpt>
      <trkpt lat="38.58153" lon="-0.86479">
        <ele>481.6</ele>
        <time>2022-10-15 12:52:26</time>
      </trkpt>
      <trkpt lat="38.58149" lon="-0.86475">
        <ele>481.6</ele>
        <time>2022-10-15 12:52:27</time>
      </trkpt>
      <trkpt lat="38.58146" lon="-0.8647">
        <ele>481.6</ele>
        <time>2022-10-15 12:52:28</time>
      </trkpt>
      <trkpt lat="38.58142" lon="-0.86466">
        <ele>481.6</ele>
        <time>2022-10-15 12:52:29</time>
      </trkpt>
      <trkpt lat="38.58139" lon="-0.86461">
        <ele>481.6</ele>
        <time>2022-10-15 12:52:30</time>
      </trkpt>
      <trkpt lat="38.58135" lon="-0.86457">
        <ele>481.6</ele>
        <time>2022-10-15 12:52:31</time>
      </trkpt>
      <trkpt lat="38.58132" lon="-0.86452">
        <ele>481.6</ele>
        <time>2022-10-15 12:52:32</time>
      </trkpt>
      <trkpt lat="38.58128" lon="-0.86448">
        <ele>481.6</ele>
        <time>2022-10-15 12:52:33</time>
      </trkpt>
      <trkpt lat="38.58124" lon="-0.86444">
        <ele>481.6</ele>
        <time>2022-10-15 12:52:34</time>
      </trkpt>
      <trkpt lat="38.5812" lon="-0.86441">
        <ele>481.6</ele>
        <time>2022-10-15 12:52:35</time>
      </trkpt>
      <trkpt lat="38.58117" lon="-0.86437">
        <ele>481.6</ele>
        <time>2022-10-15 12:52:36</time>
      </trkpt>
      <trkpt lat="38.58113" lon="-0.86433">
        <ele>481.6</ele>
        <time>2022-10-15 12:52:37</time>
      </trkpt>
      <trkpt lat="38.58108" lon="-0.86429">
        <ele>481.6</ele>
        <time>2022-10-15 12:52:38</time>
      </trkpt>
      <trkpt lat="38.58104" lon="-0.86426">
        <ele>481.6</ele>
        <time>2022-10-15 12:52:39</time>
      </trkpt>
      <trkpt lat="38.581" lon="-0.86422">
        <ele>481.4</ele>
        <time>2022-10-15 12:52:40</time>
      </trkpt>
      <trkpt lat="38.58097" lon="-0.86418">
        <ele>481.4</ele>
        <time>2022-10-15 12:52:41</time>
      </trkpt>
      <trkpt lat="38.58094" lon="-0.86414">
        <ele>481.4</ele>
        <time>2022-10-15 12:52:42</time>
      </trkpt>
      <trkpt lat="38.58092" lon="-0.8641">
        <ele>481.4</ele>
        <time>2022-10-15 12:52:43</time>
      </trkpt>
      <trkpt lat="38.58091" lon="-0.86406">
        <ele>481.6</ele>
        <time>2022-10-15 12:52:44</time>
      </trkpt>
      <trkpt lat="38.5809" lon="-0.86401">
        <ele>481.6</ele>
        <time>2022-10-15 12:52:45</time>
      </trkpt>
      <trkpt lat="38.58089" lon="-0.86396">
        <ele>481.8</ele>
        <time>2022-10-15 12:52:46</time>
      </trkpt>
      <trkpt lat="38.58088" lon="-0.8639">
        <ele>481.8</ele>
        <time>2022-10-15 12:52:47</time>
      </trkpt>
      <trkpt lat="38.58087" lon="-0.86385">
        <ele>481.8</ele>
        <time>2022-10-15 12:52:48</time>
      </trkpt>
      <trkpt lat="38.58086" lon="-0.86378">
        <ele>481.8</ele>
        <time>2022-10-15 12:52:49</time>
      </trkpt>
      <trkpt lat="38.58085" lon="-0.86371">
        <ele>481.6</ele>
        <time>2022-10-15 12:52:50</time>
      </trkpt>
      <trkpt lat="38.58084" lon="-0.86365">
        <ele>481.6</ele>
        <time>2022-10-15 12:52:51</time>
      </trkpt>
      <trkpt lat="38.58082" lon="-0.86359">
        <ele>481.6</ele>
        <time>2022-10-15 12:52:52</time>
      </trkpt>
      <trkpt lat="38.5808" lon="-0.86353">
        <ele>481.6</ele>
        <time>2022-10-15 12:52:53</time>
      </trkpt>
      <trkpt lat="38.58079" lon="-0.86348">
        <ele>481.8</ele>
        <time>2022-10-15 12:52:54</time>
      </trkpt>
      <trkpt lat="38.58078" lon="-0.86343">
        <ele>481.8</ele>
        <time>2022-10-15 12:52:55</time>
      </trkpt>
      <trkpt lat="38.58077" lon="-0.86339">
        <ele>482</ele>
        <time>2022-10-15 12:52:56</time>
      </trkpt>
      <trkpt lat="38.58075" lon="-0.86334">
        <ele>482.2</ele>
        <time>2022-10-15 12:52:57</time>
      </trkpt>
      <trkpt lat="38.58074" lon="-0.8633">
        <ele>482.2</ele>
        <time>2022-10-15 12:52:58</time>
      </trkpt>
      <trkpt lat="38.58074" lon="-0.86325">
        <ele>482.4</ele>
        <time>2022-10-15 12:52:59</time>
      </trkpt>
      <trkpt lat="38.58073" lon="-0.86321">
        <ele>482.6</ele>
        <time>2022-10-15 12:53:00</time>
      </trkpt>
      <trkpt lat="38.58072" lon="-0.86317">
        <ele>482.4</ele>
        <time>2022-10-15 12:53:01</time>
      </trkpt>
      <trkpt lat="38.58069" lon="-0.86314">
        <ele>482.4</ele>
        <time>2022-10-15 12:53:02</time>
      </trkpt>
      <trkpt lat="38.58065" lon="-0.86311">
        <ele>482.2</ele>
        <time>2022-10-15 12:53:03</time>
      </trkpt>
      <trkpt lat="38.58061" lon="-0.86309">
        <ele>482.2</ele>
        <time>2022-10-15 12:53:04</time>
      </trkpt>
      <trkpt lat="38.58056" lon="-0.86309">
        <ele>482</ele>
        <time>2022-10-15 12:53:05</time>
      </trkpt>
      <trkpt lat="38.58051" lon="-0.8631">
        <ele>482</ele>
        <time>2022-10-15 12:53:06</time>
      </trkpt>
      <trkpt lat="38.58046" lon="-0.86311">
        <ele>482</ele>
        <time>2022-10-15 12:53:07</time>
      </trkpt>
      <trkpt lat="38.58042" lon="-0.86311">
        <ele>482</ele>
        <time>2022-10-15 12:53:08</time>
      </trkpt>
      <trkpt lat="38.58037" lon="-0.86311">
        <ele>482</ele>
        <time>2022-10-15 12:53:09</time>
      </trkpt>
      <trkpt lat="38.58027" lon="-0.86309">
        <ele>482</ele>
        <time>2022-10-15 12:53:10</time>
      </trkpt>
      <trkpt lat="38.58022" lon="-0.86307">
        <ele>481.6</ele>
        <time>2022-10-15 12:53:11</time>
      </trkpt>
      <trkpt lat="38.58018" lon="-0.86305">
        <ele>481.4</ele>
        <time>2022-10-15 12:53:12</time>
      </trkpt>
      <trkpt lat="38.58014" lon="-0.86303">
        <ele>481.4</ele>
        <time>2022-10-15 12:53:13</time>
      </trkpt>
      <trkpt lat="38.5801" lon="-0.863">
        <ele>481.4</ele>
        <time>2022-10-15 12:53:14</time>
      </trkpt>
      <trkpt lat="38.58006" lon="-0.86296">
        <ele>481.6</ele>
        <time>2022-10-15 12:53:16</time>
      </trkpt>
      <trkpt lat="38.58003" lon="-0.86292">
        <ele>481.4</ele>
        <time>2022-10-15 12:53:17</time>
      </trkpt>
      <trkpt lat="38.58" lon="-0.86288">
        <ele>481.4</ele>
        <time>2022-10-15 12:53:18</time>
      </trkpt>
      <trkpt lat="38.57996" lon="-0.86284">
        <ele>481.4</ele>
        <time>2022-10-15 12:53:19</time>
      </trkpt>
      <trkpt lat="38.57993" lon="-0.8628">
        <ele>481.2</ele>
        <time>2022-10-15 12:53:20</time>
      </trkpt>
      <trkpt lat="38.5799" lon="-0.86275">
        <ele>481.2</ele>
        <time>2022-10-15 12:53:21</time>
      </trkpt>
      <trkpt lat="38.57986" lon="-0.86271">
        <ele>481.2</ele>
        <time>2022-10-15 12:53:22</time>
      </trkpt>
      <trkpt lat="38.57983" lon="-0.86267">
        <ele>481.2</ele>
        <time>2022-10-15 12:53:23</time>
      </trkpt>
      <trkpt lat="38.5798" lon="-0.86262">
        <ele>481.2</ele>
        <time>2022-10-15 12:53:24</time>
      </trkpt>
      <trkpt lat="38.57977" lon="-0.86258">
        <ele>481.2</ele>
        <time>2022-10-15 12:53:25</time>
      </trkpt>
      <trkpt lat="38.57974" lon="-0.86255">
        <ele>481.4</ele>
        <time>2022-10-15 12:53:26</time>
      </trkpt>
      <trkpt lat="38.57971" lon="-0.86251">
        <ele>481.4</ele>
        <time>2022-10-15 12:53:27</time>
      </trkpt>
      <trkpt lat="38.57967" lon="-0.86247">
        <ele>481.4</ele>
        <time>2022-10-15 12:53:28</time>
      </trkpt>
      <trkpt lat="38.57964" lon="-0.86243">
        <ele>481.4</ele>
        <time>2022-10-15 12:53:29</time>
      </trkpt>
      <trkpt lat="38.5796" lon="-0.86239">
        <ele>481.4</ele>
        <time>2022-10-15 12:53:30</time>
      </trkpt>
      <trkpt lat="38.57957" lon="-0.86235">
        <ele>481.6</ele>
        <time>2022-10-15 12:53:31</time>
      </trkpt>
      <trkpt lat="38.57953" lon="-0.86232">
        <ele>481.6</ele>
        <time>2022-10-15 12:53:32</time>
      </trkpt>
      <trkpt lat="38.57949" lon="-0.86228">
        <ele>481.6</ele>
        <time>2022-10-15 12:53:33</time>
      </trkpt>
      <trkpt lat="38.57946" lon="-0.86224">
        <ele>481.6</ele>
        <time>2022-10-15 12:53:34</time>
      </trkpt>
      <trkpt lat="38.57942" lon="-0.86221">
        <ele>481.6</ele>
        <time>2022-10-15 12:53:35</time>
      </trkpt>
      <trkpt lat="38.57938" lon="-0.86217">
        <ele>481.6</ele>
        <time>2022-10-15 12:53:36</time>
      </trkpt>
      <trkpt lat="38.57934" lon="-0.86212">
        <ele>481.6</ele>
        <time>2022-10-15 12:53:37</time>
      </trkpt>
      <trkpt lat="38.5793" lon="-0.86208">
        <ele>481.6</ele>
        <time>2022-10-15 12:53:38</time>
      </trkpt>
      <trkpt lat="38.57927" lon="-0.86204">
        <ele>481.8</ele>
        <time>2022-10-15 12:53:39</time>
      </trkpt>
      <trkpt lat="38.57923" lon="-0.86199">
        <ele>481.8</ele>
        <time>2022-10-15 12:53:40</time>
      </trkpt>
      <trkpt lat="38.5792" lon="-0.86195">
        <ele>481.8</ele>
        <time>2022-10-15 12:53:41</time>
      </trkpt>
      <trkpt lat="38.57916" lon="-0.86192">
        <ele>481.8</ele>
        <time>2022-10-15 12:53:42</time>
      </trkpt>
      <trkpt lat="38.57913" lon="-0.86188">
        <ele>482</ele>
        <time>2022-10-15 12:53:43</time>
      </trkpt>
      <trkpt lat="38.57909" lon="-0.86184">
        <ele>481.8</ele>
        <time>2022-10-15 12:53:44</time>
      </trkpt>
      <trkpt lat="38.57906" lon="-0.8618">
        <ele>481.8</ele>
        <time>2022-10-15 12:53:45</time>
      </trkpt>
      <trkpt lat="38.57902" lon="-0.86176">
        <ele>481.8</ele>
        <time>2022-10-15 12:53:46</time>
      </trkpt>
      <trkpt lat="38.57898" lon="-0.86172">
        <ele>481.8</ele>
        <time>2022-10-15 12:53:47</time>
      </trkpt>
      <trkpt lat="38.57895" lon="-0.86168">
        <ele>481.8</ele>
        <time>2022-10-15 12:53:48</time>
      </trkpt>
      <trkpt lat="38.57891" lon="-0.86164">
        <ele>481.8</ele>
        <time>2022-10-15 12:53:49</time>
      </trkpt>
      <trkpt lat="38.57888" lon="-0.8616">
        <ele>481.8</ele>
        <time>2022-10-15 12:53:50</time>
      </trkpt>
      <trkpt lat="38.57884" lon="-0.86156">
        <ele>481.8</ele>
        <time>2022-10-15 12:53:51</time>
      </trkpt>
      <trkpt lat="38.57881" lon="-0.86152">
        <ele>481.8</ele>
        <time>2022-10-15 12:53:52</time>
      </trkpt>
      <trkpt lat="38.57878" lon="-0.86148">
        <ele>481.8</ele>
        <time>2022-10-15 12:53:53</time>
      </trkpt>
      <trkpt lat="38.57874" lon="-0.86143">
        <ele>481.8</ele>
        <time>2022-10-15 12:53:54</time>
      </trkpt>
      <trkpt lat="38.57871" lon="-0.86139">
        <ele>481.8</ele>
        <time>2022-10-15 12:53:55</time>
      </trkpt>
      <trkpt lat="38.57867" lon="-0.86135">
        <ele>481.8</ele>
        <time>2022-10-15 12:53:56</time>
      </trkpt>
      <trkpt lat="38.57864" lon="-0.86131">
        <ele>481.8</ele>
        <time>2022-10-15 12:53:57</time>
      </trkpt>
      <trkpt lat="38.5786" lon="-0.86127">
        <ele>481.8</ele>
        <time>2022-10-15 12:53:58</time>
      </trkpt>
      <trkpt lat="38.57856" lon="-0.86123">
        <ele>481.8</ele>
        <time>2022-10-15 12:53:59</time>
      </trkpt>
      <trkpt lat="38.57853" lon="-0.86119">
        <ele>481.8</ele>
        <time>2022-10-15 12:54:00</time>
      </trkpt>
      <trkpt lat="38.57849" lon="-0.86115">
        <ele>481.8</ele>
        <time>2022-10-15 12:54:01</time>
      </trkpt>
      <trkpt lat="38.57845" lon="-0.86111">
        <ele>481.8</ele>
        <time>2022-10-15 12:54:02</time>
      </trkpt>
      <trkpt lat="38.57842" lon="-0.86107">
        <ele>481.8</ele>
        <time>2022-10-15 12:54:03</time>
      </trkpt>
      <trkpt lat="38.57838" lon="-0.86103">
        <ele>481.8</ele>
        <time>2022-10-15 12:54:04</time>
      </trkpt>
      <trkpt lat="38.57835" lon="-0.861">
        <ele>481.8</ele>
        <time>2022-10-15 12:54:05</time>
      </trkpt>
      <trkpt lat="38.57831" lon="-0.86096">
        <ele>481.6</ele>
        <time>2022-10-15 12:54:06</time>
      </trkpt>
      <trkpt lat="38.57827" lon="-0.86092">
        <ele>481.6</ele>
        <time>2022-10-15 12:54:07</time>
      </trkpt>
      <trkpt lat="38.57823" lon="-0.86088">
        <ele>481.6</ele>
        <time>2022-10-15 12:54:08</time>
      </trkpt>
      <trkpt lat="38.5782" lon="-0.86084">
        <ele>481.6</ele>
        <time>2022-10-15 12:54:09</time>
      </trkpt>
      <trkpt lat="38.57817" lon="-0.8608">
        <ele>481.6</ele>
        <time>2022-10-15 12:54:10</time>
      </trkpt>
      <trkpt lat="38.57814" lon="-0.86076">
        <ele>481.6</ele>
        <time>2022-10-15 12:54:11</time>
      </trkpt>
      <trkpt lat="38.57811" lon="-0.86072">
        <ele>481.6</ele>
        <time>2022-10-15 12:54:12</time>
      </trkpt>
      <trkpt lat="38.57808" lon="-0.86068">
        <ele>481.6</ele>
        <time>2022-10-15 12:54:13</time>
      </trkpt>
      <trkpt lat="38.57805" lon="-0.86064">
        <ele>481.4</ele>
        <time>2022-10-15 12:54:14</time>
      </trkpt>
      <trkpt lat="38.57801" lon="-0.86061">
        <ele>481.4</ele>
        <time>2022-10-15 12:54:15</time>
      </trkpt>
      <trkpt lat="38.57797" lon="-0.86058">
        <ele>481.4</ele>
        <time>2022-10-15 12:54:16</time>
      </trkpt>
      <trkpt lat="38.57794" lon="-0.86055">
        <ele>481.4</ele>
        <time>2022-10-15 12:54:17</time>
      </trkpt>
      <trkpt lat="38.5779" lon="-0.86051">
        <ele>481.2</ele>
        <time>2022-10-15 12:54:18</time>
      </trkpt>
      <trkpt lat="38.57786" lon="-0.86048">
        <ele>481.2</ele>
        <time>2022-10-15 12:54:19</time>
      </trkpt>
      <trkpt lat="38.57783" lon="-0.86043">
        <ele>481.2</ele>
        <time>2022-10-15 12:54:20</time>
      </trkpt>
      <trkpt lat="38.57779" lon="-0.86039">
        <ele>481.2</ele>
        <time>2022-10-15 12:54:21</time>
      </trkpt>
      <trkpt lat="38.57776" lon="-0.86035">
        <ele>481.2</ele>
        <time>2022-10-15 12:54:22</time>
      </trkpt>
      <trkpt lat="38.57772" lon="-0.86031">
        <ele>481.2</ele>
        <time>2022-10-15 12:54:23</time>
      </trkpt>
      <trkpt lat="38.57768" lon="-0.86027">
        <ele>481.2</ele>
        <time>2022-10-15 12:54:24</time>
      </trkpt>
      <trkpt lat="38.57764" lon="-0.86022">
        <ele>481</ele>
        <time>2022-10-15 12:54:25</time>
      </trkpt>
      <trkpt lat="38.5776" lon="-0.86018">
        <ele>481.2</ele>
        <time>2022-10-15 12:54:26</time>
      </trkpt>
      <trkpt lat="38.57756" lon="-0.86013">
        <ele>481.2</ele>
        <time>2022-10-15 12:54:27</time>
      </trkpt>
      <trkpt lat="38.57752" lon="-0.86008">
        <ele>481.2</ele>
        <time>2022-10-15 12:54:28</time>
      </trkpt>
      <trkpt lat="38.57748" lon="-0.86003">
        <ele>481.2</ele>
        <time>2022-10-15 12:54:29</time>
      </trkpt>
      <trkpt lat="38.57744" lon="-0.85997">
        <ele>481.2</ele>
        <time>2022-10-15 12:54:30</time>
      </trkpt>
      <trkpt lat="38.57739" lon="-0.85992">
        <ele>481.2</ele>
        <time>2022-10-15 12:54:31</time>
      </trkpt>
      <trkpt lat="38.57735" lon="-0.85987">
        <ele>481.2</ele>
        <time>2022-10-15 12:54:32</time>
      </trkpt>
      <trkpt lat="38.5773" lon="-0.85982">
        <ele>481.2</ele>
        <time>2022-10-15 12:54:33</time>
      </trkpt>
      <trkpt lat="38.57726" lon="-0.85976">
        <ele>481</ele>
        <time>2022-10-15 12:54:34</time>
      </trkpt>
      <trkpt lat="38.57721" lon="-0.85971">
        <ele>481</ele>
        <time>2022-10-15 12:54:35</time>
      </trkpt>
      <trkpt lat="38.57717" lon="-0.85966">
        <ele>481</ele>
        <time>2022-10-15 12:54:36</time>
      </trkpt>
      <trkpt lat="38.57712" lon="-0.85961">
        <ele>480.8</ele>
        <time>2022-10-15 12:54:37</time>
      </trkpt>
      <trkpt lat="38.57708" lon="-0.85955">
        <ele>480.8</ele>
        <time>2022-10-15 12:54:38</time>
      </trkpt>
      <trkpt lat="38.57703" lon="-0.8595">
        <ele>480.8</ele>
        <time>2022-10-15 12:54:39</time>
      </trkpt>
      <trkpt lat="38.57699" lon="-0.85945">
        <ele>480.8</ele>
        <time>2022-10-15 12:54:40</time>
      </trkpt>
      <trkpt lat="38.57694" lon="-0.8594">
        <ele>480.8</ele>
        <time>2022-10-15 12:54:41</time>
      </trkpt>
      <trkpt lat="38.5769" lon="-0.85934">
        <ele>480.8</ele>
        <time>2022-10-15 12:54:42</time>
      </trkpt>
      <trkpt lat="38.57686" lon="-0.85929">
        <ele>480.8</ele>
        <time>2022-10-15 12:54:43</time>
      </trkpt>
      <trkpt lat="38.57681" lon="-0.85924">
        <ele>480.8</ele>
        <time>2022-10-15 12:54:44</time>
      </trkpt>
      <trkpt lat="38.57677" lon="-0.85919">
        <ele>480.8</ele>
        <time>2022-10-15 12:54:45</time>
      </trkpt>
      <trkpt lat="38.57672" lon="-0.85913">
        <ele>480.8</ele>
        <time>2022-10-15 12:54:46</time>
      </trkpt>
      <trkpt lat="38.57668" lon="-0.85908">
        <ele>480.8</ele>
        <time>2022-10-15 12:54:47</time>
      </trkpt>
      <trkpt lat="38.57663" lon="-0.85903">
        <ele>480.8</ele>
        <time>2022-10-15 12:54:48</time>
      </trkpt>
      <trkpt lat="38.57658" lon="-0.85898">
        <ele>480.8</ele>
        <time>2022-10-15 12:54:49</time>
      </trkpt>
      <trkpt lat="38.57654" lon="-0.85893">
        <ele>480.8</ele>
        <time>2022-10-15 12:54:50</time>
      </trkpt>
      <trkpt lat="38.57649" lon="-0.85888">
        <ele>480.8</ele>
        <time>2022-10-15 12:54:51</time>
      </trkpt>
      <trkpt lat="38.57645" lon="-0.85883">
        <ele>480.8</ele>
        <time>2022-10-15 12:54:52</time>
      </trkpt>
      <trkpt lat="38.5764" lon="-0.85878">
        <ele>480.8</ele>
        <time>2022-10-15 12:54:53</time>
      </trkpt>
      <trkpt lat="38.57636" lon="-0.85873">
        <ele>480.6</ele>
        <time>2022-10-15 12:54:54</time>
      </trkpt>
      <trkpt lat="38.57631" lon="-0.85868">
        <ele>480.4</ele>
        <time>2022-10-15 12:54:55</time>
      </trkpt>
      <trkpt lat="38.57627" lon="-0.85863">
        <ele>480.4</ele>
        <time>2022-10-15 12:54:56</time>
      </trkpt>
      <trkpt lat="38.57622" lon="-0.85858">
        <ele>480.4</ele>
        <time>2022-10-15 12:54:57</time>
      </trkpt>
      <trkpt lat="38.57618" lon="-0.85853">
        <ele>480.4</ele>
        <time>2022-10-15 12:54:58</time>
      </trkpt>
      <trkpt lat="38.57613" lon="-0.85848">
        <ele>480.4</ele>
        <time>2022-10-15 12:54:59</time>
      </trkpt>
      <trkpt lat="38.57608" lon="-0.85843">
        <ele>480.4</ele>
        <time>2022-10-15 12:55:00</time>
      </trkpt>
      <trkpt lat="38.57604" lon="-0.85838">
        <ele>480.4</ele>
        <time>2022-10-15 12:55:01</time>
      </trkpt>
      <trkpt lat="38.57599" lon="-0.85834">
        <ele>480.4</ele>
        <time>2022-10-15 12:55:02</time>
      </trkpt>
      <trkpt lat="38.57594" lon="-0.85829">
        <ele>480.4</ele>
        <time>2022-10-15 12:55:03</time>
      </trkpt>
      <trkpt lat="38.57589" lon="-0.85824">
        <ele>480.4</ele>
        <time>2022-10-15 12:55:04</time>
      </trkpt>
      <trkpt lat="38.57585" lon="-0.85819">
        <ele>480.4</ele>
        <time>2022-10-15 12:55:05</time>
      </trkpt>
      <trkpt lat="38.5758" lon="-0.85815">
        <ele>480.4</ele>
        <time>2022-10-15 12:55:06</time>
      </trkpt>
      <trkpt lat="38.57575" lon="-0.8581">
        <ele>480.6</ele>
        <time>2022-10-15 12:55:07</time>
      </trkpt>
      <trkpt lat="38.57571" lon="-0.85804">
        <ele>480.6</ele>
        <time>2022-10-15 12:55:08</time>
      </trkpt>
      <trkpt lat="38.57566" lon="-0.85799">
        <ele>480.6</ele>
        <time>2022-10-15 12:55:09</time>
      </trkpt>
      <trkpt lat="38.57562" lon="-0.85793">
        <ele>480.6</ele>
        <time>2022-10-15 12:55:10</time>
      </trkpt>
      <trkpt lat="38.57555" lon="-0.85782">
        <ele>480.6</ele>
        <time>2022-10-15 12:55:11</time>
      </trkpt>
      <trkpt lat="38.57551" lon="-0.85776">
        <ele>480.6</ele>
        <time>2022-10-15 12:55:12</time>
      </trkpt>
      <trkpt lat="38.57547" lon="-0.8577">
        <ele>480.6</ele>
        <time>2022-10-15 12:55:13</time>
      </trkpt>
      <trkpt lat="38.57539" lon="-0.85759">
        <ele>480.4</ele>
        <time>2022-10-15 12:55:14</time>
      </trkpt>
      <trkpt lat="38.57535" lon="-0.85753">
        <ele>480.4</ele>
        <time>2022-10-15 12:55:15</time>
      </trkpt>
      <trkpt lat="38.57524" lon="-0.85736">
        <ele>480.4</ele>
        <time>2022-10-15 12:55:17</time>
      </trkpt>
      <trkpt lat="38.5752" lon="-0.85729">
        <ele>480.4</ele>
        <time>2022-10-15 12:55:18</time>
      </trkpt>
      <trkpt lat="38.57513" lon="-0.85717">
        <ele>480.4</ele>
        <time>2022-10-15 12:55:19</time>
      </trkpt>
      <trkpt lat="38.5751" lon="-0.8571">
        <ele>480.4</ele>
        <time>2022-10-15 12:55:21</time>
      </trkpt>
      <trkpt lat="38.57506" lon="-0.85704">
        <ele>480.4</ele>
        <time>2022-10-15 12:55:22</time>
      </trkpt>
      <trkpt lat="38.57503" lon="-0.85697">
        <ele>480.4</ele>
        <time>2022-10-15 12:55:25</time>
      </trkpt>
      <trkpt lat="38.575" lon="-0.85691">
        <ele>480.6</ele>
        <time>2022-10-15 12:55:26</time>
      </trkpt>
      <trkpt lat="38.57497" lon="-0.85684">
        <ele>480.8</ele>
        <time>2022-10-15 12:55:28</time>
      </trkpt>
      <trkpt lat="38.57495" lon="-0.85677">
        <ele>480.8</ele>
        <time>2022-10-15 12:55:29</time>
      </trkpt>
      <trkpt lat="38.57493" lon="-0.8567">
        <ele>481</ele>
        <time>2022-10-15 12:55:30</time>
      </trkpt>
      <trkpt lat="38.57492" lon="-0.85662">
        <ele>481</ele>
        <time>2022-10-15 12:55:31</time>
      </trkpt>
      <trkpt lat="38.5749" lon="-0.85655">
        <ele>481</ele>
        <time>2022-10-15 12:55:32</time>
      </trkpt>
      <trkpt lat="38.57488" lon="-0.85647">
        <ele>481</ele>
        <time>2022-10-15 12:55:33</time>
      </trkpt>
      <trkpt lat="38.57486" lon="-0.8564">
        <ele>481</ele>
        <time>2022-10-15 12:55:34</time>
      </trkpt>
      <trkpt lat="38.57483" lon="-0.85632">
        <ele>481.2</ele>
        <time>2022-10-15 12:55:35</time>
      </trkpt>
      <trkpt lat="38.57481" lon="-0.85625">
        <ele>481.2</ele>
        <time>2022-10-15 12:55:36</time>
      </trkpt>
      <trkpt lat="38.57478" lon="-0.85618">
        <ele>481.2</ele>
        <time>2022-10-15 12:55:37</time>
      </trkpt>
      <trkpt lat="38.57476" lon="-0.85611">
        <ele>481.2</ele>
        <time>2022-10-15 12:55:38</time>
      </trkpt>
      <trkpt lat="38.57473" lon="-0.85604">
        <ele>481.2</ele>
        <time>2022-10-15 12:55:39</time>
      </trkpt>
      <trkpt lat="38.5747" lon="-0.85597">
        <ele>481.2</ele>
        <time>2022-10-15 12:55:40</time>
      </trkpt>
      <trkpt lat="38.57467" lon="-0.8559">
        <ele>481.2</ele>
        <time>2022-10-15 12:55:41</time>
      </trkpt>
      <trkpt lat="38.57464" lon="-0.85583">
        <ele>481.4</ele>
        <time>2022-10-15 12:55:42</time>
      </trkpt>
      <trkpt lat="38.57461" lon="-0.85576">
        <ele>481.4</ele>
        <time>2022-10-15 12:55:43</time>
      </trkpt>
      <trkpt lat="38.57459" lon="-0.85569">
        <ele>481.4</ele>
        <time>2022-10-15 12:55:44</time>
      </trkpt>
      <trkpt lat="38.57456" lon="-0.85562">
        <ele>481.4</ele>
        <time>2022-10-15 12:55:45</time>
      </trkpt>
      <trkpt lat="38.57453" lon="-0.85556">
        <ele>481.4</ele>
        <time>2022-10-15 12:55:46</time>
      </trkpt>
      <trkpt lat="38.5745" lon="-0.85549">
        <ele>481.4</ele>
        <time>2022-10-15 12:55:47</time>
      </trkpt>
      <trkpt lat="38.57448" lon="-0.85543">
        <ele>481.4</ele>
        <time>2022-10-15 12:55:48</time>
      </trkpt>
      <trkpt lat="38.57445" lon="-0.85537">
        <ele>481.4</ele>
        <time>2022-10-15 12:55:49</time>
      </trkpt>
      <trkpt lat="38.57442" lon="-0.85531">
        <ele>481.4</ele>
        <time>2022-10-15 12:55:50</time>
      </trkpt>
      <trkpt lat="38.5744" lon="-0.85525">
        <ele>481.4</ele>
        <time>2022-10-15 12:55:51</time>
      </trkpt>
      <trkpt lat="38.57437" lon="-0.85519">
        <ele>481.6</ele>
        <time>2022-10-15 12:55:52</time>
      </trkpt>
      <trkpt lat="38.57435" lon="-0.85512">
        <ele>481.6</ele>
        <time>2022-10-15 12:55:53</time>
      </trkpt>
      <trkpt lat="38.57432" lon="-0.85506">
        <ele>481.6</ele>
        <time>2022-10-15 12:55:54</time>
      </trkpt>
      <trkpt lat="38.5743" lon="-0.855">
        <ele>481.6</ele>
        <time>2022-10-15 12:55:55</time>
      </trkpt>
      <trkpt lat="38.57429" lon="-0.85493">
        <ele>481.6</ele>
        <time>2022-10-15 12:55:56</time>
      </trkpt>
      <trkpt lat="38.57427" lon="-0.85486">
        <ele>481.8</ele>
        <time>2022-10-15 12:55:57</time>
      </trkpt>
      <trkpt lat="38.57425" lon="-0.8548">
        <ele>481.8</ele>
        <time>2022-10-15 12:55:58</time>
      </trkpt>
      <trkpt lat="38.57423" lon="-0.85473">
        <ele>481.8</ele>
        <time>2022-10-15 12:55:59</time>
      </trkpt>
      <trkpt lat="38.57422" lon="-0.85466">
        <ele>481.8</ele>
        <time>2022-10-15 12:56:00</time>
      </trkpt>
      <trkpt lat="38.57421" lon="-0.8546">
        <ele>482</ele>
        <time>2022-10-15 12:56:01</time>
      </trkpt>
      <trkpt lat="38.5742" lon="-0.85453">
        <ele>482</ele>
        <time>2022-10-15 12:56:02</time>
      </trkpt>
      <trkpt lat="38.5742" lon="-0.85446">
        <ele>482</ele>
        <time>2022-10-15 12:56:03</time>
      </trkpt>
      <trkpt lat="38.5742" lon="-0.85439">
        <ele>482</ele>
        <time>2022-10-15 12:56:04</time>
      </trkpt>
      <trkpt lat="38.5742" lon="-0.85432">
        <ele>481.8</ele>
        <time>2022-10-15 12:56:05</time>
      </trkpt>
      <trkpt lat="38.57419" lon="-0.85425">
        <ele>481.8</ele>
        <time>2022-10-15 12:56:06</time>
      </trkpt>
      <trkpt lat="38.57419" lon="-0.85418">
        <ele>481.6</ele>
        <time>2022-10-15 12:56:07</time>
      </trkpt>
      <trkpt lat="38.57418" lon="-0.85411">
        <ele>481.6</ele>
        <time>2022-10-15 12:56:08</time>
      </trkpt>
      <trkpt lat="38.57416" lon="-0.85404">
        <ele>481.4</ele>
        <time>2022-10-15 12:56:09</time>
      </trkpt>
      <trkpt lat="38.57413" lon="-0.85398">
        <ele>481.2</ele>
        <time>2022-10-15 12:56:10</time>
      </trkpt>
      <trkpt lat="38.5741" lon="-0.85393">
        <ele>481.2</ele>
        <time>2022-10-15 12:56:11</time>
      </trkpt>
      <trkpt lat="38.57402" lon="-0.85384">
        <ele>481.2</ele>
        <time>2022-10-15 12:56:12</time>
      </trkpt>
      <trkpt lat="38.57397" lon="-0.85381">
        <ele>481.2</ele>
        <time>2022-10-15 12:56:13</time>
      </trkpt>
      <trkpt lat="38.57388" lon="-0.85376">
        <ele>481.2</ele>
        <time>2022-10-15 12:56:14</time>
      </trkpt>
      <trkpt lat="38.57374" lon="-0.8537">
        <ele>481.2</ele>
        <time>2022-10-15 12:56:15</time>
      </trkpt>
      <trkpt lat="38.57369" lon="-0.85368">
        <ele>481.2</ele>
        <time>2022-10-15 12:56:16</time>
      </trkpt>
      <trkpt lat="38.57364" lon="-0.85365">
        <ele>481.2</ele>
        <time>2022-10-15 12:56:18</time>
      </trkpt>
      <trkpt lat="38.57359" lon="-0.85363">
        <ele>481.2</ele>
        <time>2022-10-15 12:56:19</time>
      </trkpt>
      <trkpt lat="38.57354" lon="-0.85361">
        <ele>481.2</ele>
        <time>2022-10-15 12:56:21</time>
      </trkpt>
      <trkpt lat="38.57349" lon="-0.85358">
        <ele>481.2</ele>
        <time>2022-10-15 12:56:24</time>
      </trkpt>
      <trkpt lat="38.57344" lon="-0.85357">
        <ele>481.4</ele>
        <time>2022-10-15 12:56:25</time>
      </trkpt>
      <trkpt lat="38.57339" lon="-0.85355">
        <ele>481.4</ele>
        <time>2022-10-15 12:56:26</time>
      </trkpt>
      <trkpt lat="38.57334" lon="-0.85354">
        <ele>481.4</ele>
        <time>2022-10-15 12:56:27</time>
      </trkpt>
      <trkpt lat="38.57329" lon="-0.85353">
        <ele>481.4</ele>
        <time>2022-10-15 12:56:28</time>
      </trkpt>
      <trkpt lat="38.57324" lon="-0.85352">
        <ele>481.6</ele>
        <time>2022-10-15 12:56:29</time>
      </trkpt>
      <trkpt lat="38.57319" lon="-0.85351">
        <ele>481.8</ele>
        <time>2022-10-15 12:56:30</time>
      </trkpt>
      <trkpt lat="38.57315" lon="-0.85349">
        <ele>481.8</ele>
        <time>2022-10-15 12:56:31</time>
      </trkpt>
      <trkpt lat="38.5731" lon="-0.85347">
        <ele>481.8</ele>
        <time>2022-10-15 12:56:32</time>
      </trkpt>
      <trkpt lat="38.57306" lon="-0.85344">
        <ele>481.8</ele>
        <time>2022-10-15 12:56:33</time>
      </trkpt>
      <trkpt lat="38.57302" lon="-0.85342">
        <ele>481.8</ele>
        <time>2022-10-15 12:56:34</time>
      </trkpt>
      <trkpt lat="38.57298" lon="-0.85339">
        <ele>481.8</ele>
        <time>2022-10-15 12:56:35</time>
      </trkpt>
      <trkpt lat="38.57293" lon="-0.85336">
        <ele>481.8</ele>
        <time>2022-10-15 12:56:36</time>
      </trkpt>
      <trkpt lat="38.57289" lon="-0.85333">
        <ele>481.8</ele>
        <time>2022-10-15 12:56:37</time>
      </trkpt>
      <trkpt lat="38.57285" lon="-0.8533">
        <ele>481.8</ele>
        <time>2022-10-15 12:56:38</time>
      </trkpt>
      <trkpt lat="38.57281" lon="-0.85327">
        <ele>481.8</ele>
        <time>2022-10-15 12:56:39</time>
      </trkpt>
      <trkpt lat="38.57276" lon="-0.85325">
        <ele>481.8</ele>
        <time>2022-10-15 12:56:40</time>
      </trkpt>
      <trkpt lat="38.57272" lon="-0.85324">
        <ele>481.8</ele>
        <time>2022-10-15 12:56:41</time>
      </trkpt>
      <trkpt lat="38.57267" lon="-0.85324">
        <ele>481.8</ele>
        <time>2022-10-15 12:56:42</time>
      </trkpt>
      <trkpt lat="38.57263" lon="-0.85326">
        <ele>481.8</ele>
        <time>2022-10-15 12:56:43</time>
      </trkpt>
      <trkpt lat="38.5726" lon="-0.85329">
        <ele>481.8</ele>
        <time>2022-10-15 12:56:44</time>
      </trkpt>
      <trkpt lat="38.57257" lon="-0.85331">
        <ele>481.8</ele>
        <time>2022-10-15 12:56:45</time>
      </trkpt>
      <trkpt lat="38.57254" lon="-0.85334">
        <ele>481.8</ele>
        <time>2022-10-15 12:56:46</time>
      </trkpt>
      <trkpt lat="38.57251" lon="-0.85335">
        <ele>481.8</ele>
        <time>2022-10-15 12:56:47</time>
      </trkpt>
      <trkpt lat="38.57247" lon="-0.85335">
        <ele>481.8</ele>
        <time>2022-10-15 12:56:48</time>
      </trkpt>
      <trkpt lat="38.57243" lon="-0.85335">
        <ele>481.8</ele>
        <time>2022-10-15 12:56:49</time>
      </trkpt>
      <trkpt lat="38.57239" lon="-0.85334">
        <ele>481.8</ele>
        <time>2022-10-15 12:56:50</time>
      </trkpt>
      <trkpt lat="38.57235" lon="-0.85332">
        <ele>481.8</ele>
        <time>2022-10-15 12:56:51</time>
      </trkpt>
      <trkpt lat="38.57231" lon="-0.85331">
        <ele>481.8</ele>
        <time>2022-10-15 12:56:52</time>
      </trkpt>
      <trkpt lat="38.57227" lon="-0.8533">
        <ele>481.8</ele>
        <time>2022-10-15 12:56:53</time>
      </trkpt>
      <trkpt lat="38.57223" lon="-0.85329">
        <ele>481.6</ele>
        <time>2022-10-15 12:56:54</time>
      </trkpt>
      <trkpt lat="38.57219" lon="-0.85328">
        <ele>481.8</ele>
        <time>2022-10-15 12:56:55</time>
      </trkpt>
      <trkpt lat="38.57215" lon="-0.85327">
        <ele>481.8</ele>
        <time>2022-10-15 12:56:56</time>
      </trkpt>
      <trkpt lat="38.57212" lon="-0.85326">
        <ele>481.8</ele>
        <time>2022-10-15 12:56:57</time>
      </trkpt>
      <trkpt lat="38.57208" lon="-0.85325">
        <ele>481.8</ele>
        <time>2022-10-15 12:56:58</time>
      </trkpt>
      <trkpt lat="38.57204" lon="-0.85324">
        <ele>481.8</ele>
        <time>2022-10-15 12:56:59</time>
      </trkpt>
      <trkpt lat="38.572" lon="-0.85322">
        <ele>481.8</ele>
        <time>2022-10-15 12:57:00</time>
      </trkpt>
      <trkpt lat="38.57196" lon="-0.85321">
        <ele>481.8</ele>
        <time>2022-10-15 12:57:01</time>
      </trkpt>
      <trkpt lat="38.57192" lon="-0.85319">
        <ele>481.8</ele>
        <time>2022-10-15 12:57:02</time>
      </trkpt>
      <trkpt lat="38.57188" lon="-0.85318">
        <ele>481.8</ele>
        <time>2022-10-15 12:57:03</time>
      </trkpt>
      <trkpt lat="38.57184" lon="-0.85316">
        <ele>481.8</ele>
        <time>2022-10-15 12:57:04</time>
      </trkpt>
      <trkpt lat="38.57179" lon="-0.85314">
        <ele>481.8</ele>
        <time>2022-10-15 12:57:05</time>
      </trkpt>
      <trkpt lat="38.57175" lon="-0.85312">
        <ele>481.8</ele>
        <time>2022-10-15 12:57:06</time>
      </trkpt>
      <trkpt lat="38.5717" lon="-0.85311">
        <ele>481.8</ele>
        <time>2022-10-15 12:57:07</time>
      </trkpt>
      <trkpt lat="38.57166" lon="-0.85309">
        <ele>481.8</ele>
        <time>2022-10-15 12:57:08</time>
      </trkpt>
      <trkpt lat="38.57161" lon="-0.85306">
        <ele>481.8</ele>
        <time>2022-10-15 12:57:09</time>
      </trkpt>
      <trkpt lat="38.57157" lon="-0.85303">
        <ele>482</ele>
        <time>2022-10-15 12:57:10</time>
      </trkpt>
      <trkpt lat="38.57154" lon="-0.853">
        <ele>482</ele>
        <time>2022-10-15 12:57:11</time>
      </trkpt>
      <trkpt lat="38.5715" lon="-0.85297">
        <ele>482</ele>
        <time>2022-10-15 12:57:12</time>
      </trkpt>
      <trkpt lat="38.57146" lon="-0.85293">
        <ele>482</ele>
        <time>2022-10-15 12:57:13</time>
      </trkpt>
      <trkpt lat="38.57142" lon="-0.8529">
        <ele>482.2</ele>
        <time>2022-10-15 12:57:14</time>
      </trkpt>
      <trkpt lat="38.57138" lon="-0.85286">
        <ele>482.2</ele>
        <time>2022-10-15 12:57:15</time>
      </trkpt>
      <trkpt lat="38.57134" lon="-0.85283">
        <ele>482.2</ele>
        <time>2022-10-15 12:57:16</time>
      </trkpt>
      <trkpt lat="38.5713" lon="-0.85279">
        <ele>482.2</ele>
        <time>2022-10-15 12:57:17</time>
      </trkpt>
      <trkpt lat="38.57126" lon="-0.85275">
        <ele>482.2</ele>
        <time>2022-10-15 12:57:18</time>
      </trkpt>
      <trkpt lat="38.57122" lon="-0.85271">
        <ele>482.2</ele>
        <time>2022-10-15 12:57:19</time>
      </trkpt>
      <trkpt lat="38.57118" lon="-0.85267">
        <ele>482.2</ele>
        <time>2022-10-15 12:57:20</time>
      </trkpt>
      <trkpt lat="38.57115" lon="-0.85263">
        <ele>482.4</ele>
        <time>2022-10-15 12:57:21</time>
      </trkpt>
      <trkpt lat="38.57112" lon="-0.85259">
        <ele>482.4</ele>
        <time>2022-10-15 12:57:22</time>
      </trkpt>
      <trkpt lat="38.57109" lon="-0.85254">
        <ele>482.4</ele>
        <time>2022-10-15 12:57:23</time>
      </trkpt>
      <trkpt lat="38.57106" lon="-0.8525">
        <ele>482.4</ele>
        <time>2022-10-15 12:57:24</time>
      </trkpt>
      <trkpt lat="38.57103" lon="-0.85246">
        <ele>482.4</ele>
        <time>2022-10-15 12:57:25</time>
      </trkpt>
      <trkpt lat="38.571" lon="-0.85242">
        <ele>482.4</ele>
        <time>2022-10-15 12:57:26</time>
      </trkpt>
      <trkpt lat="38.57097" lon="-0.85238">
        <ele>482.4</ele>
        <time>2022-10-15 12:57:27</time>
      </trkpt>
      <trkpt lat="38.57094" lon="-0.85233">
        <ele>482.4</ele>
        <time>2022-10-15 12:57:28</time>
      </trkpt>
      <trkpt lat="38.57091" lon="-0.85229">
        <ele>482.4</ele>
        <time>2022-10-15 12:57:29</time>
      </trkpt>
      <trkpt lat="38.57087" lon="-0.85225">
        <ele>482.4</ele>
        <time>2022-10-15 12:57:30</time>
      </trkpt>
      <trkpt lat="38.57084" lon="-0.8522">
        <ele>482.4</ele>
        <time>2022-10-15 12:57:31</time>
      </trkpt>
      <trkpt lat="38.57081" lon="-0.85215">
        <ele>482.4</ele>
        <time>2022-10-15 12:57:32</time>
      </trkpt>
      <trkpt lat="38.57078" lon="-0.8521">
        <ele>482.4</ele>
        <time>2022-10-15 12:57:33</time>
      </trkpt>
      <trkpt lat="38.57075" lon="-0.85206">
        <ele>482.4</ele>
        <time>2022-10-15 12:57:34</time>
      </trkpt>
      <trkpt lat="38.57071" lon="-0.85202">
        <ele>482.4</ele>
        <time>2022-10-15 12:57:35</time>
      </trkpt>
      <trkpt lat="38.57068" lon="-0.85197">
        <ele>482.4</ele>
        <time>2022-10-15 12:57:36</time>
      </trkpt>
      <trkpt lat="38.57065" lon="-0.85193">
        <ele>482.4</ele>
        <time>2022-10-15 12:57:37</time>
      </trkpt>
      <trkpt lat="38.57061" lon="-0.85189">
        <ele>482.4</ele>
        <time>2022-10-15 12:57:38</time>
      </trkpt>
      <trkpt lat="38.57058" lon="-0.85185">
        <ele>482.4</ele>
        <time>2022-10-15 12:57:39</time>
      </trkpt>
      <trkpt lat="38.57055" lon="-0.85181">
        <ele>482.4</ele>
        <time>2022-10-15 12:57:40</time>
      </trkpt>
      <trkpt lat="38.57052" lon="-0.85177">
        <ele>482.4</ele>
        <time>2022-10-15 12:57:41</time>
      </trkpt>
      <trkpt lat="38.57049" lon="-0.85173">
        <ele>482.4</ele>
        <time>2022-10-15 12:57:42</time>
      </trkpt>
      <trkpt lat="38.57046" lon="-0.85169">
        <ele>482.4</ele>
        <time>2022-10-15 12:57:43</time>
      </trkpt>
      <trkpt lat="38.57043" lon="-0.85165">
        <ele>482.2</ele>
        <time>2022-10-15 12:57:44</time>
      </trkpt>
      <trkpt lat="38.57039" lon="-0.85161">
        <ele>482.2</ele>
        <time>2022-10-15 12:57:45</time>
      </trkpt>
      <trkpt lat="38.57036" lon="-0.85157">
        <ele>482.2</ele>
        <time>2022-10-15 12:57:46</time>
      </trkpt>
      <trkpt lat="38.57032" lon="-0.85154">
        <ele>482.2</ele>
        <time>2022-10-15 12:57:47</time>
      </trkpt>
      <trkpt lat="38.57029" lon="-0.8515">
        <ele>482.2</ele>
        <time>2022-10-15 12:57:48</time>
      </trkpt>
      <trkpt lat="38.57025" lon="-0.85146">
        <ele>482.2</ele>
        <time>2022-10-15 12:57:49</time>
      </trkpt>
      <trkpt lat="38.57022" lon="-0.85142">
        <ele>482.2</ele>
        <time>2022-10-15 12:57:50</time>
      </trkpt>
      <trkpt lat="38.57018" lon="-0.85139">
        <ele>482.2</ele>
        <time>2022-10-15 12:57:51</time>
      </trkpt>
      <trkpt lat="38.57014" lon="-0.85135">
        <ele>482.4</ele>
        <time>2022-10-15 12:57:52</time>
      </trkpt>
      <trkpt lat="38.57011" lon="-0.85132">
        <ele>482.4</ele>
        <time>2022-10-15 12:57:53</time>
      </trkpt>
      <trkpt lat="38.57007" lon="-0.85128">
        <ele>482.8</ele>
        <time>2022-10-15 12:57:54</time>
      </trkpt>
      <trkpt lat="38.57004" lon="-0.85125">
        <ele>482.8</ele>
        <time>2022-10-15 12:57:55</time>
      </trkpt>
      <trkpt lat="38.57" lon="-0.85122">
        <ele>483</ele>
        <time>2022-10-15 12:57:56</time>
      </trkpt>
      <trkpt lat="38.56997" lon="-0.85119">
        <ele>483.2</ele>
        <time>2022-10-15 12:57:57</time>
      </trkpt>
      <trkpt lat="38.56994" lon="-0.85115">
        <ele>483.2</ele>
        <time>2022-10-15 12:57:58</time>
      </trkpt>
      <trkpt lat="38.5699" lon="-0.85112">
        <ele>483.2</ele>
        <time>2022-10-15 12:57:59</time>
      </trkpt>
      <trkpt lat="38.56986" lon="-0.85109">
        <ele>483.2</ele>
        <time>2022-10-15 12:58:00</time>
      </trkpt>
      <trkpt lat="38.56983" lon="-0.85105">
        <ele>483.4</ele>
        <time>2022-10-15 12:58:01</time>
      </trkpt>
      <trkpt lat="38.56979" lon="-0.85102">
        <ele>483.4</ele>
        <time>2022-10-15 12:58:02</time>
      </trkpt>
      <trkpt lat="38.56976" lon="-0.85098">
        <ele>483.4</ele>
        <time>2022-10-15 12:58:03</time>
      </trkpt>
      <trkpt lat="38.56973" lon="-0.85094">
        <ele>483.6</ele>
        <time>2022-10-15 12:58:04</time>
      </trkpt>
      <trkpt lat="38.56969" lon="-0.8509">
        <ele>483.6</ele>
        <time>2022-10-15 12:58:05</time>
      </trkpt>
      <trkpt lat="38.56966" lon="-0.85086">
        <ele>483.8</ele>
        <time>2022-10-15 12:58:06</time>
      </trkpt>
      <trkpt lat="38.56963" lon="-0.85082">
        <ele>483.8</ele>
        <time>2022-10-15 12:58:07</time>
      </trkpt>
      <trkpt lat="38.56959" lon="-0.85078">
        <ele>483.8</ele>
        <time>2022-10-15 12:58:08</time>
      </trkpt>
      <trkpt lat="38.56956" lon="-0.85074">
        <ele>483.8</ele>
        <time>2022-10-15 12:58:09</time>
      </trkpt>
      <trkpt lat="38.56952" lon="-0.8507">
        <ele>483.8</ele>
        <time>2022-10-15 12:58:10</time>
      </trkpt>
      <trkpt lat="38.56949" lon="-0.85066">
        <ele>483.8</ele>
        <time>2022-10-15 12:58:11</time>
      </trkpt>
      <trkpt lat="38.56945" lon="-0.85061">
        <ele>483.8</ele>
        <time>2022-10-15 12:58:12</time>
      </trkpt>
      <trkpt lat="38.56942" lon="-0.85057">
        <ele>483.8</ele>
        <time>2022-10-15 12:58:13</time>
      </trkpt>
      <trkpt lat="38.56939" lon="-0.85052">
        <ele>483.8</ele>
        <time>2022-10-15 12:58:14</time>
      </trkpt>
      <trkpt lat="38.56935" lon="-0.85048">
        <ele>483.8</ele>
        <time>2022-10-15 12:58:15</time>
      </trkpt>
      <trkpt lat="38.56932" lon="-0.85043">
        <ele>484</ele>
        <time>2022-10-15 12:58:16</time>
      </trkpt>
      <trkpt lat="38.56928" lon="-0.85039">
        <ele>484</ele>
        <time>2022-10-15 12:58:17</time>
      </trkpt>
      <trkpt lat="38.56925" lon="-0.85035">
        <ele>484</ele>
        <time>2022-10-15 12:58:18</time>
      </trkpt>
      <trkpt lat="38.56922" lon="-0.8503">
        <ele>484.2</ele>
        <time>2022-10-15 12:58:19</time>
      </trkpt>
      <trkpt lat="38.56918" lon="-0.85025">
        <ele>484.2</ele>
        <time>2022-10-15 12:58:20</time>
      </trkpt>
      <trkpt lat="38.56912" lon="-0.85015">
        <ele>484.2</ele>
        <time>2022-10-15 12:58:21</time>
      </trkpt>
      <trkpt lat="38.56909" lon="-0.85011">
        <ele>484.2</ele>
        <time>2022-10-15 12:58:22</time>
      </trkpt>
      <trkpt lat="38.56905" lon="-0.85007">
        <ele>484.4</ele>
        <time>2022-10-15 12:58:23</time>
      </trkpt>
      <trkpt lat="38.56898" lon="-0.84999">
        <ele>484.4</ele>
        <time>2022-10-15 12:58:24</time>
      </trkpt>
      <trkpt lat="38.56898" lon="-0.84999">
        <ele>484.4</ele>
        <time>2022-10-15 12:58:25</time>
      </trkpt>
      <trkpt lat="38.56894" lon="-0.84995">
        <ele>484.4</ele>
        <time>2022-10-15 12:58:27</time>
      </trkpt>
      <trkpt lat="38.56891" lon="-0.84991">
        <ele>484.4</ele>
        <time>2022-10-15 12:58:28</time>
      </trkpt>
      <trkpt lat="38.56887" lon="-0.84987">
        <ele>484.4</ele>
        <time>2022-10-15 12:58:29</time>
      </trkpt>
      <trkpt lat="38.56883" lon="-0.84983">
        <ele>484.6</ele>
        <time>2022-10-15 12:58:30</time>
      </trkpt>
      <trkpt lat="38.5688" lon="-0.84979">
        <ele>484.6</ele>
        <time>2022-10-15 12:58:31</time>
      </trkpt>
      <trkpt lat="38.56877" lon="-0.84976">
        <ele>484.6</ele>
        <time>2022-10-15 12:58:32</time>
      </trkpt>
      <trkpt lat="38.56873" lon="-0.84971">
        <ele>484.6</ele>
        <time>2022-10-15 12:58:33</time>
      </trkpt>
      <trkpt lat="38.5687" lon="-0.84967">
        <ele>484.6</ele>
        <time>2022-10-15 12:58:34</time>
      </trkpt>
      <trkpt lat="38.56864" lon="-0.84959">
        <ele>484.8</ele>
        <time>2022-10-15 12:58:35</time>
      </trkpt>
      <trkpt lat="38.56864" lon="-0.84959">
        <ele>484.8</ele>
        <time>2022-10-15 12:58:36</time>
      </trkpt>
      <trkpt lat="38.5686" lon="-0.84955">
        <ele>484.8</ele>
        <time>2022-10-15 12:58:37</time>
      </trkpt>
      <trkpt lat="38.56857" lon="-0.84951">
        <ele>485</ele>
        <time>2022-10-15 12:58:38</time>
      </trkpt>
      <trkpt lat="38.56854" lon="-0.84948">
        <ele>485.2</ele>
        <time>2022-10-15 12:58:39</time>
      </trkpt>
      <trkpt lat="38.56852" lon="-0.84944">
        <ele>485.2</ele>
        <time>2022-10-15 12:58:40</time>
      </trkpt>
      <trkpt lat="38.56849" lon="-0.84941">
        <ele>485.4</ele>
        <time>2022-10-15 12:58:41</time>
      </trkpt>
      <trkpt lat="38.56847" lon="-0.84938">
        <ele>485.4</ele>
        <time>2022-10-15 12:58:42</time>
      </trkpt>
      <trkpt lat="38.56844" lon="-0.84935">
        <ele>485.4</ele>
        <time>2022-10-15 12:58:43</time>
      </trkpt>
      <trkpt lat="38.56842" lon="-0.84933">
        <ele>485.4</ele>
        <time>2022-10-15 12:58:44</time>
      </trkpt>
      <trkpt lat="38.5684" lon="-0.84931">
        <ele>485.4</ele>
        <time>2022-10-15 12:58:45</time>
      </trkpt>
      <trkpt lat="38.56839" lon="-0.84929">
        <ele>485.6</ele>
        <time>2022-10-15 12:58:46</time>
      </trkpt>
      <trkpt lat="38.56838" lon="-0.84927">
        <ele>485.6</ele>
        <time>2022-10-15 12:58:47</time>
      </trkpt>
      <trkpt lat="38.56836" lon="-0.84925">
        <ele>485.6</ele>
        <time>2022-10-15 12:58:48</time>
      </trkpt>
      <trkpt lat="38.56835" lon="-0.84922">
        <ele>485.6</ele>
        <time>2022-10-15 12:58:49</time>
      </trkpt>
      <trkpt lat="38.56833" lon="-0.84918">
        <ele>485.6</ele>
        <time>2022-10-15 12:58:50</time>
      </trkpt>
      <trkpt lat="38.56831" lon="-0.84915">
        <ele>485.6</ele>
        <time>2022-10-15 12:58:51</time>
      </trkpt>
      <trkpt lat="38.56829" lon="-0.84912">
        <ele>485.8</ele>
        <time>2022-10-15 12:58:52</time>
      </trkpt>
      <trkpt lat="38.56827" lon="-0.84909">
        <ele>485.8</ele>
        <time>2022-10-15 12:58:53</time>
      </trkpt>
      <trkpt lat="38.56826" lon="-0.84906">
        <ele>485.8</ele>
        <time>2022-10-15 12:58:54</time>
      </trkpt>
      <trkpt lat="38.56824" lon="-0.84903">
        <ele>485.8</ele>
        <time>2022-10-15 12:58:55</time>
      </trkpt>
      <trkpt lat="38.56822" lon="-0.84901">
        <ele>485.8</ele>
        <time>2022-10-15 12:58:56</time>
      </trkpt>
      <trkpt lat="38.5682" lon="-0.84898">
        <ele>485.8</ele>
        <time>2022-10-15 12:58:57</time>
      </trkpt>
      <trkpt lat="38.56819" lon="-0.84897">
        <ele>485.8</ele>
        <time>2022-10-15 12:58:58</time>
      </trkpt>
      <trkpt lat="38.56818" lon="-0.84895">
        <ele>485.8</ele>
        <time>2022-10-15 12:58:59</time>
      </trkpt>
      <trkpt lat="38.56817" lon="-0.84895">
        <ele>485.8</ele>
        <time>2022-10-15 12:59:00</time>
      </trkpt>
      <trkpt lat="38.56817" lon="-0.84894">
        <ele>485.8</ele>
        <time>2022-10-15 12:59:01</time>
      </trkpt>
      <trkpt lat="38.56816" lon="-0.84894">
        <ele>485.8</ele>
        <time>2022-10-15 12:59:02</time>
      </trkpt>
      <trkpt lat="38.56815" lon="-0.84893">
        <ele>485.8</ele>
        <time>2022-10-15 12:59:03</time>
      </trkpt>
      <trkpt lat="38.56814" lon="-0.84892">
        <ele>485.8</ele>
        <time>2022-10-15 12:59:04</time>
      </trkpt>
      <trkpt lat="38.56813" lon="-0.84891">
        <ele>485.8</ele>
        <time>2022-10-15 12:59:05</time>
      </trkpt>
      <trkpt lat="38.56811" lon="-0.84889">
        <ele>485.8</ele>
        <time>2022-10-15 12:59:06</time>
      </trkpt>
      <trkpt lat="38.5681" lon="-0.84888">
        <ele>485.8</ele>
        <time>2022-10-15 12:59:07</time>
      </trkpt>
      <trkpt lat="38.56809" lon="-0.84887">
        <ele>485.8</ele>
        <time>2022-10-15 12:59:08</time>
      </trkpt>
      <trkpt lat="38.56808" lon="-0.84886">
        <ele>485.8</ele>
        <time>2022-10-15 12:59:09</time>
      </trkpt>
      <trkpt lat="38.56807" lon="-0.84886">
        <ele>485.8</ele>
        <time>2022-10-15 12:59:10</time>
      </trkpt>
      <trkpt lat="38.56805" lon="-0.84885">
        <ele>485.6</ele>
        <time>2022-10-15 12:59:11</time>
      </trkpt>
      <trkpt lat="38.56805" lon="-0.84884">
        <ele>485.6</ele>
        <time>2022-10-15 12:59:12</time>
      </trkpt>
      <trkpt lat="38.56804" lon="-0.84883">
        <ele>485.6</ele>
        <time>2022-10-15 12:59:13</time>
      </trkpt>
      <trkpt lat="38.56803" lon="-0.84882">
        <ele>485.8</ele>
        <time>2022-10-15 12:59:14</time>
      </trkpt>
      <trkpt lat="38.56803" lon="-0.84882">
        <ele>485.6</ele>
        <time>2022-10-15 12:59:15</time>
      </trkpt>
      <trkpt lat="38.56803" lon="-0.84882">
        <ele>485.6</ele>
        <time>2022-10-15 12:59:16</time>
      </trkpt>
      <trkpt lat="38.56797" lon="-0.8488">
        <ele>486.4</ele>
        <time>2022-10-15 12:59:17</time>
      </trkpt>
      <trkpt lat="38.56796" lon="-0.84879">
        <ele>486.4</ele>
        <time>2022-10-15 12:59:18</time>
      </trkpt>
      <trkpt lat="38.56794" lon="-0.84877">
        <ele>486.4</ele>
        <time>2022-10-15 12:59:19</time>
      </trkpt>
      <trkpt lat="38.56792" lon="-0.84875">
        <ele>486.4</ele>
        <time>2022-10-15 12:59:20</time>
      </trkpt>
      <trkpt lat="38.5679" lon="-0.84874">
        <ele>486.2</ele>
        <time>2022-10-15 12:59:21</time>
      </trkpt>
      <trkpt lat="38.56788" lon="-0.84872">
        <ele>486.2</ele>
        <time>2022-10-15 13:04:12</time>
      </trkpt>
      <trkpt lat="38.56786" lon="-0.84871">
        <ele>486.2</ele>
        <time>2022-10-15 13:04:13</time>
      </trkpt>
      <trkpt lat="38.56785" lon="-0.84868">
        <ele>486.2</ele>
        <time>2022-10-15 13:04:14</time>
      </trkpt>
      <trkpt lat="38.56783" lon="-0.84865">
        <ele>486.2</ele>
        <time>2022-10-15 13:04:15</time>
      </trkpt>
      <trkpt lat="38.56781" lon="-0.84862">
        <ele>486</ele>
        <time>2022-10-15 13:04:16</time>
      </trkpt>
      <trkpt lat="38.56779" lon="-0.8486">
        <ele>486</ele>
        <time>2022-10-15 13:04:17</time>
      </trkpt>
      <trkpt lat="38.56776" lon="-0.84857">
        <ele>486</ele>
        <time>2022-10-15 13:04:18</time>
      </trkpt>
      <trkpt lat="38.56774" lon="-0.84854">
        <ele>486</ele>
        <time>2022-10-15 13:04:19</time>
      </trkpt>
      <trkpt lat="38.56772" lon="-0.84852">
        <ele>486</ele>
        <time>2022-10-15 13:04:20</time>
      </trkpt>
      <trkpt lat="38.56769" lon="-0.84849">
        <ele>486</ele>
        <time>2022-10-15 13:04:21</time>
      </trkpt>
      <trkpt lat="38.56766" lon="-0.84846">
        <ele>486</ele>
        <time>2022-10-15 13:04:22</time>
      </trkpt>
      <trkpt lat="38.56764" lon="-0.84842">
        <ele>486</ele>
        <time>2022-10-15 13:04:23</time>
      </trkpt>
      <trkpt lat="38.56762" lon="-0.84839">
        <ele>486</ele>
        <time>2022-10-15 13:04:24</time>
      </trkpt>
      <trkpt lat="38.5676" lon="-0.84835">
        <ele>485.8</ele>
        <time>2022-10-15 13:04:25</time>
      </trkpt>
      <trkpt lat="38.56757" lon="-0.84831">
        <ele>485.8</ele>
        <time>2022-10-15 13:04:26</time>
      </trkpt>
      <trkpt lat="38.56755" lon="-0.84828">
        <ele>485.8</ele>
        <time>2022-10-15 13:04:27</time>
      </trkpt>
      <trkpt lat="38.56752" lon="-0.84825">
        <ele>485.6</ele>
        <time>2022-10-15 13:04:28</time>
      </trkpt>
      <trkpt lat="38.5675" lon="-0.84823">
        <ele>485.6</ele>
        <time>2022-10-15 13:04:29</time>
      </trkpt>
      <trkpt lat="38.56747" lon="-0.8482">
        <ele>485.6</ele>
        <time>2022-10-15 13:04:30</time>
      </trkpt>
      <trkpt lat="38.56745" lon="-0.84817">
        <ele>485.4</ele>
        <time>2022-10-15 13:04:31</time>
      </trkpt>
      <trkpt lat="38.56742" lon="-0.84814">
        <ele>485.4</ele>
        <time>2022-10-15 13:04:32</time>
      </trkpt>
      <trkpt lat="38.5674" lon="-0.84811">
        <ele>485.4</ele>
        <time>2022-10-15 13:04:33</time>
      </trkpt>
      <trkpt lat="38.56738" lon="-0.84808">
        <ele>485.4</ele>
        <time>2022-10-15 13:04:34</time>
      </trkpt>
      <trkpt lat="38.56736" lon="-0.84804">
        <ele>485.4</ele>
        <time>2022-10-15 13:04:35</time>
      </trkpt>
      <trkpt lat="38.56733" lon="-0.84801">
        <ele>485.4</ele>
        <time>2022-10-15 13:04:36</time>
      </trkpt>
      <trkpt lat="38.5673" lon="-0.84798">
        <ele>485.4</ele>
        <time>2022-10-15 13:04:37</time>
      </trkpt>
      <trkpt lat="38.56728" lon="-0.84795">
        <ele>485.4</ele>
        <time>2022-10-15 13:04:38</time>
      </trkpt>
      <trkpt lat="38.56722" lon="-0.84788">
        <ele>485.4</ele>
        <time>2022-10-15 13:04:39</time>
      </trkpt>
      <trkpt lat="38.56722" lon="-0.84788">
        <ele>485.4</ele>
        <time>2022-10-15 13:04:40</time>
      </trkpt>
      <trkpt lat="38.56719" lon="-0.84785">
        <ele>485.4</ele>
        <time>2022-10-15 13:04:41</time>
      </trkpt>
      <trkpt lat="38.56717" lon="-0.84781">
        <ele>485.4</ele>
        <time>2022-10-15 13:04:42</time>
      </trkpt>
      <trkpt lat="38.56714" lon="-0.84777">
        <ele>485.4</ele>
        <time>2022-10-15 13:04:43</time>
      </trkpt>
      <trkpt lat="38.56711" lon="-0.84774">
        <ele>485.4</ele>
        <time>2022-10-15 13:04:44</time>
      </trkpt>
      <trkpt lat="38.56708" lon="-0.8477">
        <ele>485.4</ele>
        <time>2022-10-15 13:04:45</time>
      </trkpt>
      <trkpt lat="38.56705" lon="-0.84766">
        <ele>485.4</ele>
        <time>2022-10-15 13:04:46</time>
      </trkpt>
      <trkpt lat="38.56702" lon="-0.84762">
        <ele>485.4</ele>
        <time>2022-10-15 13:04:47</time>
      </trkpt>
      <trkpt lat="38.567" lon="-0.84759">
        <ele>485.4</ele>
        <time>2022-10-15 13:04:48</time>
      </trkpt>
      <trkpt lat="38.56697" lon="-0.84755">
        <ele>485.4</ele>
        <time>2022-10-15 13:04:49</time>
      </trkpt>
      <trkpt lat="38.56694" lon="-0.84751">
        <ele>485.4</ele>
        <time>2022-10-15 13:04:50</time>
      </trkpt>
      <trkpt lat="38.56688" lon="-0.84743">
        <ele>485.4</ele>
        <time>2022-10-15 13:04:51</time>
      </trkpt>
      <trkpt lat="38.56688" lon="-0.84743">
        <ele>485.4</ele>
        <time>2022-10-15 13:04:52</time>
      </trkpt>
      <trkpt lat="38.56685" lon="-0.84739">
        <ele>485.4</ele>
        <time>2022-10-15 13:04:53</time>
      </trkpt>
      <trkpt lat="38.56682" lon="-0.84735">
        <ele>485.4</ele>
        <time>2022-10-15 13:04:54</time>
      </trkpt>
      <trkpt lat="38.56679" lon="-0.84731">
        <ele>485.4</ele>
        <time>2022-10-15 13:04:55</time>
      </trkpt>
      <trkpt lat="38.56676" lon="-0.84727">
        <ele>485.4</ele>
        <time>2022-10-15 13:04:56</time>
      </trkpt>
      <trkpt lat="38.56673" lon="-0.84723">
        <ele>485.4</ele>
        <time>2022-10-15 13:04:57</time>
      </trkpt>
      <trkpt lat="38.5667" lon="-0.84719">
        <ele>485.4</ele>
        <time>2022-10-15 13:04:58</time>
      </trkpt>
      <trkpt lat="38.56666" lon="-0.84715">
        <ele>485.4</ele>
        <time>2022-10-15 13:04:59</time>
      </trkpt>
      <trkpt lat="38.56663" lon="-0.84711">
        <ele>485.4</ele>
        <time>2022-10-15 13:05:00</time>
      </trkpt>
      <trkpt lat="38.5666" lon="-0.84707">
        <ele>485.4</ele>
        <time>2022-10-15 13:05:01</time>
      </trkpt>
      <trkpt lat="38.56657" lon="-0.84703">
        <ele>485.4</ele>
        <time>2022-10-15 13:05:02</time>
      </trkpt>
      <trkpt lat="38.56654" lon="-0.84699">
        <ele>485.4</ele>
        <time>2022-10-15 13:05:03</time>
      </trkpt>
      <trkpt lat="38.56652" lon="-0.84695">
        <ele>485.4</ele>
        <time>2022-10-15 13:05:04</time>
      </trkpt>
      <trkpt lat="38.56649" lon="-0.84691">
        <ele>485.4</ele>
        <time>2022-10-15 13:05:05</time>
      </trkpt>
      <trkpt lat="38.56646" lon="-0.84687">
        <ele>485.4</ele>
        <time>2022-10-15 13:05:06</time>
      </trkpt>
      <trkpt lat="38.56642" lon="-0.84683">
        <ele>485.4</ele>
        <time>2022-10-15 13:05:07</time>
      </trkpt>
      <trkpt lat="38.56639" lon="-0.84679">
        <ele>485.4</ele>
        <time>2022-10-15 13:05:08</time>
      </trkpt>
      <trkpt lat="38.56636" lon="-0.84675">
        <ele>485.4</ele>
        <time>2022-10-15 13:05:09</time>
      </trkpt>
      <trkpt lat="38.56633" lon="-0.84671">
        <ele>485.4</ele>
        <time>2022-10-15 13:05:10</time>
      </trkpt>
      <trkpt lat="38.5663" lon="-0.84667">
        <ele>485.4</ele>
        <time>2022-10-15 13:05:11</time>
      </trkpt>
      <trkpt lat="38.56627" lon="-0.84663">
        <ele>485.4</ele>
        <time>2022-10-15 13:05:12</time>
      </trkpt>
      <trkpt lat="38.56624" lon="-0.84659">
        <ele>485.6</ele>
        <time>2022-10-15 13:05:13</time>
      </trkpt>
      <trkpt lat="38.56621" lon="-0.84655">
        <ele>485.6</ele>
        <time>2022-10-15 13:05:14</time>
      </trkpt>
      <trkpt lat="38.56615" lon="-0.84648">
        <ele>485.6</ele>
        <time>2022-10-15 13:05:15</time>
      </trkpt>
      <trkpt lat="38.56615" lon="-0.84648">
        <ele>485.6</ele>
        <time>2022-10-15 13:05:16</time>
      </trkpt>
      <trkpt lat="38.56612" lon="-0.84644">
        <ele>485.6</ele>
        <time>2022-10-15 13:05:17</time>
      </trkpt>
      <trkpt lat="38.5661" lon="-0.8464">
        <ele>485.6</ele>
        <time>2022-10-15 13:05:18</time>
      </trkpt>
      <trkpt lat="38.56607" lon="-0.84637">
        <ele>485.6</ele>
        <time>2022-10-15 13:05:19</time>
      </trkpt>
      <trkpt lat="38.56604" lon="-0.84633">
        <ele>485.6</ele>
        <time>2022-10-15 13:05:20</time>
      </trkpt>
      <trkpt lat="38.56601" lon="-0.84629">
        <ele>485.6</ele>
        <time>2022-10-15 13:05:21</time>
      </trkpt>
      <trkpt lat="38.56599" lon="-0.84625">
        <ele>485.6</ele>
        <time>2022-10-15 13:05:22</time>
      </trkpt>
      <trkpt lat="38.56596" lon="-0.84621">
        <ele>485.6</ele>
        <time>2022-10-15 13:05:23</time>
      </trkpt>
      <trkpt lat="38.56593" lon="-0.84617">
        <ele>485.6</ele>
        <time>2022-10-15 13:05:24</time>
      </trkpt>
      <trkpt lat="38.56589" lon="-0.84613">
        <ele>485.6</ele>
        <time>2022-10-15 13:05:25</time>
      </trkpt>
      <trkpt lat="38.56586" lon="-0.84609">
        <ele>485.6</ele>
        <time>2022-10-15 13:05:26</time>
      </trkpt>
      <trkpt lat="38.56583" lon="-0.84605">
        <ele>485.6</ele>
        <time>2022-10-15 13:05:27</time>
      </trkpt>
      <trkpt lat="38.5658" lon="-0.84601">
        <ele>485.6</ele>
        <time>2022-10-15 13:05:28</time>
      </trkpt>
      <trkpt lat="38.56577" lon="-0.84597">
        <ele>485.6</ele>
        <time>2022-10-15 13:05:29</time>
      </trkpt>
      <trkpt lat="38.56574" lon="-0.84592">
        <ele>485.8</ele>
        <time>2022-10-15 13:05:30</time>
      </trkpt>
      <trkpt lat="38.56571" lon="-0.84588">
        <ele>485.8</ele>
        <time>2022-10-15 13:05:31</time>
      </trkpt>
      <trkpt lat="38.56568" lon="-0.84584">
        <ele>485.8</ele>
        <time>2022-10-15 13:05:32</time>
      </trkpt>
      <trkpt lat="38.56565" lon="-0.8458">
        <ele>485.8</ele>
        <time>2022-10-15 13:05:33</time>
      </trkpt>
      <trkpt lat="38.56562" lon="-0.84575">
        <ele>485.6</ele>
        <time>2022-10-15 13:05:34</time>
      </trkpt>
      <trkpt lat="38.56558" lon="-0.84571">
        <ele>485.6</ele>
        <time>2022-10-15 13:05:35</time>
      </trkpt>
      <trkpt lat="38.56555" lon="-0.84567">
        <ele>485.6</ele>
        <time>2022-10-15 13:05:36</time>
      </trkpt>
      <trkpt lat="38.56552" lon="-0.84563">
        <ele>485.6</ele>
        <time>2022-10-15 13:05:37</time>
      </trkpt>
      <trkpt lat="38.56549" lon="-0.84559">
        <ele>485.6</ele>
        <time>2022-10-15 13:05:38</time>
      </trkpt>
      <trkpt lat="38.56546" lon="-0.84555">
        <ele>485.6</ele>
        <time>2022-10-15 13:05:39</time>
      </trkpt>
      <trkpt lat="38.56543" lon="-0.84551">
        <ele>485.6</ele>
        <time>2022-10-15 13:05:40</time>
      </trkpt>
      <trkpt lat="38.5654" lon="-0.84547">
        <ele>485.6</ele>
        <time>2022-10-15 13:05:41</time>
      </trkpt>
      <trkpt lat="38.56537" lon="-0.84543">
        <ele>485.6</ele>
        <time>2022-10-15 13:05:42</time>
      </trkpt>
      <trkpt lat="38.56534" lon="-0.84539">
        <ele>485.6</ele>
        <time>2022-10-15 13:05:43</time>
      </trkpt>
      <trkpt lat="38.56531" lon="-0.84535">
        <ele>485.6</ele>
        <time>2022-10-15 13:05:44</time>
      </trkpt>
      <trkpt lat="38.56528" lon="-0.84531">
        <ele>485.6</ele>
        <time>2022-10-15 13:05:45</time>
      </trkpt>
      <trkpt lat="38.56525" lon="-0.84527">
        <ele>485.6</ele>
        <time>2022-10-15 13:05:46</time>
      </trkpt>
      <trkpt lat="38.56522" lon="-0.84523">
        <ele>485.6</ele>
        <time>2022-10-15 13:05:47</time>
      </trkpt>
      <trkpt lat="38.56519" lon="-0.84519">
        <ele>485.6</ele>
        <time>2022-10-15 13:05:48</time>
      </trkpt>
      <trkpt lat="38.56516" lon="-0.84515">
        <ele>485.6</ele>
        <time>2022-10-15 13:05:49</time>
      </trkpt>
      <trkpt lat="38.56513" lon="-0.84511">
        <ele>485.6</ele>
        <time>2022-10-15 13:05:50</time>
      </trkpt>
      <trkpt lat="38.5651" lon="-0.84507">
        <ele>485.6</ele>
        <time>2022-10-15 13:05:51</time>
      </trkpt>
      <trkpt lat="38.56507" lon="-0.84503">
        <ele>485.6</ele>
        <time>2022-10-15 13:05:52</time>
      </trkpt>
      <trkpt lat="38.56504" lon="-0.845">
        <ele>485.6</ele>
        <time>2022-10-15 13:05:53</time>
      </trkpt>
      <trkpt lat="38.56498" lon="-0.84491">
        <ele>485.6</ele>
        <time>2022-10-15 13:05:54</time>
      </trkpt>
      <trkpt lat="38.56495" lon="-0.84487">
        <ele>485.6</ele>
        <time>2022-10-15 13:05:55</time>
      </trkpt>
      <trkpt lat="38.56492" lon="-0.84483">
        <ele>485.6</ele>
        <time>2022-10-15 13:05:56</time>
      </trkpt>
      <trkpt lat="38.56489" lon="-0.8448">
        <ele>485.6</ele>
        <time>2022-10-15 13:05:57</time>
      </trkpt>
      <trkpt lat="38.56486" lon="-0.84475">
        <ele>485.6</ele>
        <time>2022-10-15 13:05:58</time>
      </trkpt>
      <trkpt lat="38.56483" lon="-0.84471">
        <ele>485.6</ele>
        <time>2022-10-15 13:06:00</time>
      </trkpt>
      <trkpt lat="38.5648" lon="-0.84467">
        <ele>485.6</ele>
        <time>2022-10-15 13:06:01</time>
      </trkpt>
      <trkpt lat="38.56477" lon="-0.84463">
        <ele>485.8</ele>
        <time>2022-10-15 13:06:02</time>
      </trkpt>
      <trkpt lat="38.56474" lon="-0.84459">
        <ele>485.8</ele>
        <time>2022-10-15 13:06:03</time>
      </trkpt>
      <trkpt lat="38.56471" lon="-0.84456">
        <ele>485.8</ele>
        <time>2022-10-15 13:06:04</time>
      </trkpt>
      <trkpt lat="38.56468" lon="-0.84452">
        <ele>485.8</ele>
        <time>2022-10-15 13:06:05</time>
      </trkpt>
      <trkpt lat="38.56465" lon="-0.84447">
        <ele>485.8</ele>
        <time>2022-10-15 13:06:06</time>
      </trkpt>
      <trkpt lat="38.56459" lon="-0.84439">
        <ele>485.8</ele>
        <time>2022-10-15 13:06:07</time>
      </trkpt>
      <trkpt lat="38.56456" lon="-0.84435">
        <ele>485.8</ele>
        <time>2022-10-15 13:06:08</time>
      </trkpt>
      <trkpt lat="38.56453" lon="-0.84431">
        <ele>485.8</ele>
        <time>2022-10-15 13:06:09</time>
      </trkpt>
      <trkpt lat="38.5645" lon="-0.84427">
        <ele>485.8</ele>
        <time>2022-10-15 13:06:10</time>
      </trkpt>
      <trkpt lat="38.56447" lon="-0.84423">
        <ele>485.6</ele>
        <time>2022-10-15 13:06:11</time>
      </trkpt>
      <trkpt lat="38.56444" lon="-0.84419">
        <ele>485.6</ele>
        <time>2022-10-15 13:06:13</time>
      </trkpt>
      <trkpt lat="38.56441" lon="-0.84415">
        <ele>485.6</ele>
        <time>2022-10-15 13:06:14</time>
      </trkpt>
      <trkpt lat="38.56435" lon="-0.84408">
        <ele>485.6</ele>
        <time>2022-10-15 13:06:15</time>
      </trkpt>
      <trkpt lat="38.56435" lon="-0.84408">
        <ele>485.6</ele>
        <time>2022-10-15 13:06:16</time>
      </trkpt>
      <trkpt lat="38.56432" lon="-0.84406">
        <ele>485.6</ele>
        <time>2022-10-15 13:06:17</time>
      </trkpt>
      <trkpt lat="38.56428" lon="-0.84405">
        <ele>485.4</ele>
        <time>2022-10-15 13:06:18</time>
      </trkpt>
      <trkpt lat="38.56424" lon="-0.84407">
        <ele>485.4</ele>
        <time>2022-10-15 13:06:19</time>
      </trkpt>
      <trkpt lat="38.56421" lon="-0.8441">
        <ele>485.4</ele>
        <time>2022-10-15 13:06:20</time>
      </trkpt>
      <trkpt lat="38.56418" lon="-0.84413">
        <ele>485.4</ele>
        <time>2022-10-15 13:06:21</time>
      </trkpt>
      <trkpt lat="38.56415" lon="-0.84416">
        <ele>485.4</ele>
        <time>2022-10-15 13:06:22</time>
      </trkpt>
      <trkpt lat="38.56412" lon="-0.84419">
        <ele>485.4</ele>
        <time>2022-10-15 13:06:23</time>
      </trkpt>
      <trkpt lat="38.56409" lon="-0.84421">
        <ele>485.6</ele>
        <time>2022-10-15 13:06:24</time>
      </trkpt>
      <trkpt lat="38.56406" lon="-0.84424">
        <ele>485.8</ele>
        <time>2022-10-15 13:06:25</time>
      </trkpt>
      <trkpt lat="38.56403" lon="-0.84427">
        <ele>486.2</ele>
        <time>2022-10-15 13:06:26</time>
      </trkpt>
      <trkpt lat="38.564" lon="-0.84429">
        <ele>486.4</ele>
        <time>2022-10-15 13:06:27</time>
      </trkpt>
      <trkpt lat="38.56398" lon="-0.84432">
        <ele>486.6</ele>
        <time>2022-10-15 13:06:28</time>
      </trkpt>
      <trkpt lat="38.56395" lon="-0.84434">
        <ele>486.6</ele>
        <time>2022-10-15 13:06:29</time>
      </trkpt>
      <trkpt lat="38.56392" lon="-0.84437">
        <ele>486.8</ele>
        <time>2022-10-15 13:06:30</time>
      </trkpt>
      <trkpt lat="38.5639" lon="-0.84439">
        <ele>487</ele>
        <time>2022-10-15 13:06:31</time>
      </trkpt>
      <trkpt lat="38.56387" lon="-0.84442">
        <ele>487</ele>
        <time>2022-10-15 13:06:32</time>
      </trkpt>
      <trkpt lat="38.56384" lon="-0.84444">
        <ele>487.2</ele>
        <time>2022-10-15 13:06:33</time>
      </trkpt>
      <trkpt lat="38.56381" lon="-0.84447">
        <ele>487.4</ele>
        <time>2022-10-15 13:06:34</time>
      </trkpt>
      <trkpt lat="38.56378" lon="-0.84449">
        <ele>487.4</ele>
        <time>2022-10-15 13:06:35</time>
      </trkpt>
      <trkpt lat="38.56376" lon="-0.84452">
        <ele>487.6</ele>
        <time>2022-10-15 13:06:36</time>
      </trkpt>
      <trkpt lat="38.56373" lon="-0.84454">
        <ele>487.6</ele>
        <time>2022-10-15 13:06:37</time>
      </trkpt>
      <trkpt lat="38.5637" lon="-0.84457">
        <ele>487.6</ele>
        <time>2022-10-15 13:06:38</time>
      </trkpt>
      <trkpt lat="38.56365" lon="-0.84462">
        <ele>487.8</ele>
        <time>2022-10-15 13:06:39</time>
      </trkpt>
      <trkpt lat="38.56365" lon="-0.84462">
        <ele>487.8</ele>
        <time>2022-10-15 13:06:40</time>
      </trkpt>
      <trkpt lat="38.56363" lon="-0.84464">
        <ele>487.8</ele>
        <time>2022-10-15 13:06:41</time>
      </trkpt>
      <trkpt lat="38.5636" lon="-0.84467">
        <ele>488.2</ele>
        <time>2022-10-15 13:06:42</time>
      </trkpt>
      <trkpt lat="38.56357" lon="-0.84469">
        <ele>488.4</ele>
        <time>2022-10-15 13:06:43</time>
      </trkpt>
      <trkpt lat="38.56355" lon="-0.84472">
        <ele>488.4</ele>
        <time>2022-10-15 13:06:44</time>
      </trkpt>
      <trkpt lat="38.56352" lon="-0.84474">
        <ele>488.6</ele>
        <time>2022-10-15 13:06:45</time>
      </trkpt>
      <trkpt lat="38.56349" lon="-0.84477">
        <ele>488.8</ele>
        <time>2022-10-15 13:06:46</time>
      </trkpt>
      <trkpt lat="38.56347" lon="-0.84479">
        <ele>489</ele>
        <time>2022-10-15 13:06:47</time>
      </trkpt>
      <trkpt lat="38.56344" lon="-0.84482">
        <ele>489.2</ele>
        <time>2022-10-15 13:06:48</time>
      </trkpt>
      <trkpt lat="38.56341" lon="-0.84484">
        <ele>489.4</ele>
        <time>2022-10-15 13:06:49</time>
      </trkpt>
      <trkpt lat="38.56338" lon="-0.84487">
        <ele>489.4</ele>
        <time>2022-10-15 13:06:50</time>
      </trkpt>
      <trkpt lat="38.56333" lon="-0.84492">
        <ele>489.8</ele>
        <time>2022-10-15 13:06:51</time>
      </trkpt>
      <trkpt lat="38.56333" lon="-0.84492">
        <ele>490</ele>
        <time>2022-10-15 13:06:52</time>
      </trkpt>
      <trkpt lat="38.5633" lon="-0.84495">
        <ele>490.2</ele>
        <time>2022-10-15 13:06:53</time>
      </trkpt>
      <trkpt lat="38.56327" lon="-0.84497">
        <ele>490.4</ele>
        <time>2022-10-15 13:06:54</time>
      </trkpt>
      <trkpt lat="38.56324" lon="-0.845">
        <ele>490.6</ele>
        <time>2022-10-15 13:06:55</time>
      </trkpt>
      <trkpt lat="38.56322" lon="-0.84502">
        <ele>490.8</ele>
        <time>2022-10-15 13:06:56</time>
      </trkpt>
      <trkpt lat="38.56319" lon="-0.84504">
        <ele>491</ele>
        <time>2022-10-15 13:06:57</time>
      </trkpt>
      <trkpt lat="38.56316" lon="-0.84506">
        <ele>491</ele>
        <time>2022-10-15 13:06:58</time>
      </trkpt>
      <trkpt lat="38.56313" lon="-0.84507">
        <ele>491</ele>
        <time>2022-10-15 13:06:59</time>
      </trkpt>
      <trkpt lat="38.5631" lon="-0.84507">
        <ele>491.2</ele>
        <time>2022-10-15 13:07:00</time>
      </trkpt>
      <trkpt lat="38.56306" lon="-0.84506">
        <ele>491.2</ele>
        <time>2022-10-15 13:07:01</time>
      </trkpt>
      <trkpt lat="38.56303" lon="-0.84504">
        <ele>491.2</ele>
        <time>2022-10-15 13:07:02</time>
      </trkpt>
      <trkpt lat="38.563" lon="-0.84502">
        <ele>491.2</ele>
        <time>2022-10-15 13:07:03</time>
      </trkpt>
      <trkpt lat="38.56297" lon="-0.84499">
        <ele>491.2</ele>
        <time>2022-10-15 13:07:04</time>
      </trkpt>
      <trkpt lat="38.56294" lon="-0.84496">
        <ele>491.2</ele>
        <time>2022-10-15 13:07:05</time>
      </trkpt>
      <trkpt lat="38.56292" lon="-0.84493">
        <ele>491.4</ele>
        <time>2022-10-15 13:07:06</time>
      </trkpt>
      <trkpt lat="38.5629" lon="-0.84489">
        <ele>491.4</ele>
        <time>2022-10-15 13:07:07</time>
      </trkpt>
      <trkpt lat="38.56287" lon="-0.84486">
        <ele>491.4</ele>
        <time>2022-10-15 13:07:08</time>
      </trkpt>
      <trkpt lat="38.56285" lon="-0.84483">
        <ele>491.4</ele>
        <time>2022-10-15 13:07:09</time>
      </trkpt>
      <trkpt lat="38.56283" lon="-0.8448">
        <ele>491.6</ele>
        <time>2022-10-15 13:07:10</time>
      </trkpt>
      <trkpt lat="38.56281" lon="-0.84477">
        <ele>491.6</ele>
        <time>2022-10-15 13:07:11</time>
      </trkpt>
      <trkpt lat="38.56279" lon="-0.84474">
        <ele>491.8</ele>
        <time>2022-10-15 13:07:12</time>
      </trkpt>
      <trkpt lat="38.56276" lon="-0.84471">
        <ele>491.8</ele>
        <time>2022-10-15 13:07:13</time>
      </trkpt>
      <trkpt lat="38.56274" lon="-0.84468">
        <ele>491.8</ele>
        <time>2022-10-15 13:07:14</time>
      </trkpt>
      <trkpt lat="38.56273" lon="-0.84464">
        <ele>492</ele>
        <time>2022-10-15 13:07:15</time>
      </trkpt>
      <trkpt lat="38.56271" lon="-0.8446">
        <ele>492.4</ele>
        <time>2022-10-15 13:07:16</time>
      </trkpt>
      <trkpt lat="38.5627" lon="-0.84455">
        <ele>492.4</ele>
        <time>2022-10-15 13:07:17</time>
      </trkpt>
      <trkpt lat="38.56268" lon="-0.84451">
        <ele>492.6</ele>
        <time>2022-10-15 13:07:18</time>
      </trkpt>
      <trkpt lat="38.56267" lon="-0.84447">
        <ele>492.6</ele>
        <time>2022-10-15 13:07:19</time>
      </trkpt>
      <trkpt lat="38.56265" lon="-0.84442">
        <ele>492.6</ele>
        <time>2022-10-15 13:07:20</time>
      </trkpt>
      <trkpt lat="38.56263" lon="-0.84438">
        <ele>492.6</ele>
        <time>2022-10-15 13:07:21</time>
      </trkpt>
      <trkpt lat="38.56261" lon="-0.84434">
        <ele>492.6</ele>
        <time>2022-10-15 13:07:22</time>
      </trkpt>
      <trkpt lat="38.5626" lon="-0.8443">
        <ele>492.6</ele>
        <time>2022-10-15 13:07:23</time>
      </trkpt>
      <trkpt lat="38.56258" lon="-0.84425">
        <ele>492.6</ele>
        <time>2022-10-15 13:07:24</time>
      </trkpt>
      <trkpt lat="38.56257" lon="-0.84421">
        <ele>492.6</ele>
        <time>2022-10-15 13:07:25</time>
      </trkpt>
      <trkpt lat="38.56255" lon="-0.84417">
        <ele>492.6</ele>
        <time>2022-10-15 13:07:26</time>
      </trkpt>
      <trkpt lat="38.56254" lon="-0.84413">
        <ele>492.6</ele>
        <time>2022-10-15 13:07:27</time>
      </trkpt>
      <trkpt lat="38.56252" lon="-0.84409">
        <ele>492.6</ele>
        <time>2022-10-15 13:07:28</time>
      </trkpt>
      <trkpt lat="38.56251" lon="-0.84404">
        <ele>492.6</ele>
        <time>2022-10-15 13:07:29</time>
      </trkpt>
      <trkpt lat="38.5625" lon="-0.844">
        <ele>492.4</ele>
        <time>2022-10-15 13:07:30</time>
      </trkpt>
      <trkpt lat="38.56247" lon="-0.84391">
        <ele>492.4</ele>
        <time>2022-10-15 13:07:31</time>
      </trkpt>
      <trkpt lat="38.56247" lon="-0.84391">
        <ele>492.4</ele>
        <time>2022-10-15 13:07:32</time>
      </trkpt>
      <trkpt lat="38.56246" lon="-0.84387">
        <ele>492.4</ele>
        <time>2022-10-15 13:07:33</time>
      </trkpt>
      <trkpt lat="38.56244" lon="-0.84382">
        <ele>492.4</ele>
        <time>2022-10-15 13:07:34</time>
      </trkpt>
      <trkpt lat="38.56242" lon="-0.84378">
        <ele>492.4</ele>
        <time>2022-10-15 13:07:35</time>
      </trkpt>
      <trkpt lat="38.5624" lon="-0.84369">
        <ele>492.4</ele>
        <time>2022-10-15 13:07:36</time>
      </trkpt>
      <trkpt lat="38.5624" lon="-0.84369">
        <ele>492.6</ele>
        <time>2022-10-15 13:07:37</time>
      </trkpt>
      <trkpt lat="38.56239" lon="-0.84364">
        <ele>492.6</ele>
        <time>2022-10-15 13:07:38</time>
      </trkpt>
      <trkpt lat="38.56238" lon="-0.84359">
        <ele>492.6</ele>
        <time>2022-10-15 13:07:39</time>
      </trkpt>
      <trkpt lat="38.56237" lon="-0.84355">
        <ele>492.6</ele>
        <time>2022-10-15 13:07:40</time>
      </trkpt>
      <trkpt lat="38.56235" lon="-0.84347">
        <ele>492.6</ele>
        <time>2022-10-15 13:07:41</time>
      </trkpt>
      <trkpt lat="38.56235" lon="-0.84347">
        <ele>492.6</ele>
        <time>2022-10-15 13:07:42</time>
      </trkpt>
      <trkpt lat="38.56235" lon="-0.84342">
        <ele>492.6</ele>
        <time>2022-10-15 13:07:43</time>
      </trkpt>
      <trkpt lat="38.56234" lon="-0.84338">
        <ele>492.8</ele>
        <time>2022-10-15 13:07:44</time>
      </trkpt>
      <trkpt lat="38.56233" lon="-0.84333">
        <ele>492.8</ele>
        <time>2022-10-15 13:07:45</time>
      </trkpt>
      <trkpt lat="38.56231" lon="-0.84329">
        <ele>492.8</ele>
        <time>2022-10-15 13:07:46</time>
      </trkpt>
      <trkpt lat="38.56228" lon="-0.84325">
        <ele>492.8</ele>
        <time>2022-10-15 13:07:47</time>
      </trkpt>
      <trkpt lat="38.56226" lon="-0.84321">
        <ele>492.8</ele>
        <time>2022-10-15 13:07:48</time>
      </trkpt>
      <trkpt lat="38.56224" lon="-0.84317">
        <ele>492.8</ele>
        <time>2022-10-15 13:07:49</time>
      </trkpt>
      <trkpt lat="38.56222" lon="-0.84313">
        <ele>492.6</ele>
        <time>2022-10-15 13:07:50</time>
      </trkpt>
      <trkpt lat="38.56216" lon="-0.84306">
        <ele>492.6</ele>
        <time>2022-10-15 13:07:51</time>
      </trkpt>
      <trkpt lat="38.56213" lon="-0.84303">
        <ele>492.6</ele>
        <time>2022-10-15 13:07:52</time>
      </trkpt>
      <trkpt lat="38.56213" lon="-0.84303">
        <ele>492.6</ele>
        <time>2022-10-15 13:07:53</time>
      </trkpt>
      <trkpt lat="38.5621" lon="-0.843">
        <ele>492.6</ele>
        <time>2022-10-15 13:07:54</time>
      </trkpt>
      <trkpt lat="38.56207" lon="-0.84297">
        <ele>492.6</ele>
        <time>2022-10-15 13:07:55</time>
      </trkpt>
      <trkpt lat="38.56204" lon="-0.84293">
        <ele>492.6</ele>
        <time>2022-10-15 13:07:56</time>
      </trkpt>
      <trkpt lat="38.56201" lon="-0.8429">
        <ele>492.6</ele>
        <time>2022-10-15 13:07:57</time>
      </trkpt>
      <trkpt lat="38.56199" lon="-0.84286">
        <ele>492.6</ele>
        <time>2022-10-15 13:07:58</time>
      </trkpt>
      <trkpt lat="38.56196" lon="-0.84283">
        <ele>492.6</ele>
        <time>2022-10-15 13:07:59</time>
      </trkpt>
      <trkpt lat="38.56194" lon="-0.8428">
        <ele>492.6</ele>
        <time>2022-10-15 13:08:00</time>
      </trkpt>
      <trkpt lat="38.56191" lon="-0.84276">
        <ele>492.6</ele>
        <time>2022-10-15 13:08:01</time>
      </trkpt>
      <trkpt lat="38.56189" lon="-0.84272">
        <ele>492.6</ele>
        <time>2022-10-15 13:08:02</time>
      </trkpt>
      <trkpt lat="38.56186" lon="-0.84269">
        <ele>492.6</ele>
        <time>2022-10-15 13:08:03</time>
      </trkpt>
      <trkpt lat="38.56183" lon="-0.84266">
        <ele>492.6</ele>
        <time>2022-10-15 13:08:04</time>
      </trkpt>
      <trkpt lat="38.56181" lon="-0.84262">
        <ele>492.6</ele>
        <time>2022-10-15 13:08:05</time>
      </trkpt>
      <trkpt lat="38.56176" lon="-0.84255">
        <ele>492.6</ele>
        <time>2022-10-15 13:08:06</time>
      </trkpt>
      <trkpt lat="38.56176" lon="-0.84255">
        <ele>492.6</ele>
        <time>2022-10-15 13:08:07</time>
      </trkpt>
      <trkpt lat="38.56173" lon="-0.84253">
        <ele>492.6</ele>
        <time>2022-10-15 13:08:08</time>
      </trkpt>
      <trkpt lat="38.5617" lon="-0.8425">
        <ele>492.6</ele>
        <time>2022-10-15 13:08:09</time>
      </trkpt>
      <trkpt lat="38.56167" lon="-0.84246">
        <ele>492.6</ele>
        <time>2022-10-15 13:08:10</time>
      </trkpt>
      <trkpt lat="38.56164" lon="-0.84243">
        <ele>492.6</ele>
        <time>2022-10-15 13:08:11</time>
      </trkpt>
      <trkpt lat="38.56162" lon="-0.84239">
        <ele>492.6</ele>
        <time>2022-10-15 13:08:12</time>
      </trkpt>
      <trkpt lat="38.56159" lon="-0.84235">
        <ele>492.6</ele>
        <time>2022-10-15 13:08:13</time>
      </trkpt>
      <trkpt lat="38.56156" lon="-0.84231">
        <ele>492.6</ele>
        <time>2022-10-15 13:08:14</time>
      </trkpt>
      <trkpt lat="38.56153" lon="-0.84228">
        <ele>492.6</ele>
        <time>2022-10-15 13:08:15</time>
      </trkpt>
      <trkpt lat="38.5615" lon="-0.84224">
        <ele>492.4</ele>
        <time>2022-10-15 13:08:16</time>
      </trkpt>
      <trkpt lat="38.56148" lon="-0.8422">
        <ele>492.4</ele>
        <time>2022-10-15 13:08:17</time>
      </trkpt>
      <trkpt lat="38.56141" lon="-0.84212">
        <ele>492.4</ele>
        <time>2022-10-15 13:08:18</time>
      </trkpt>
      <trkpt lat="38.56141" lon="-0.84212">
        <ele>492.4</ele>
        <time>2022-10-15 13:08:19</time>
      </trkpt>
      <trkpt lat="38.56138" lon="-0.84207">
        <ele>492.2</ele>
        <time>2022-10-15 13:08:20</time>
      </trkpt>
      <trkpt lat="38.56131" lon="-0.842">
        <ele>492.2</ele>
        <time>2022-10-15 13:08:21</time>
      </trkpt>
      <trkpt lat="38.56131" lon="-0.842">
        <ele>492.2</ele>
        <time>2022-10-15 13:08:22</time>
      </trkpt>
      <trkpt lat="38.56127" lon="-0.84196">
        <ele>492.2</ele>
        <time>2022-10-15 13:08:23</time>
      </trkpt>
      <trkpt lat="38.56124" lon="-0.84192">
        <ele>492.2</ele>
        <time>2022-10-15 13:08:24</time>
      </trkpt>
      <trkpt lat="38.56122" lon="-0.84188">
        <ele>492.2</ele>
        <time>2022-10-15 13:08:25</time>
      </trkpt>
      <trkpt lat="38.56119" lon="-0.84183">
        <ele>492.2</ele>
        <time>2022-10-15 13:08:26</time>
      </trkpt>
      <trkpt lat="38.56117" lon="-0.84179">
        <ele>492.2</ele>
        <time>2022-10-15 13:08:27</time>
      </trkpt>
      <trkpt lat="38.56114" lon="-0.84174">
        <ele>492.2</ele>
        <time>2022-10-15 13:08:28</time>
      </trkpt>
      <trkpt lat="38.56111" lon="-0.8417">
        <ele>492.2</ele>
        <time>2022-10-15 13:08:29</time>
      </trkpt>
      <trkpt lat="38.56108" lon="-0.84165">
        <ele>492</ele>
        <time>2022-10-15 13:08:30</time>
      </trkpt>
      <trkpt lat="38.56104" lon="-0.8416">
        <ele>492</ele>
        <time>2022-10-15 13:08:31</time>
      </trkpt>
      <trkpt lat="38.56101" lon="-0.84154">
        <ele>491.8</ele>
        <time>2022-10-15 13:08:32</time>
      </trkpt>
      <trkpt lat="38.56097" lon="-0.84149">
        <ele>492</ele>
        <time>2022-10-15 13:08:33</time>
      </trkpt>
      <trkpt lat="38.56094" lon="-0.84143">
        <ele>491.8</ele>
        <time>2022-10-15 13:08:34</time>
      </trkpt>
      <trkpt lat="38.5609" lon="-0.84137">
        <ele>491.8</ele>
        <time>2022-10-15 13:08:35</time>
      </trkpt>
      <trkpt lat="38.56086" lon="-0.84132">
        <ele>491.8</ele>
        <time>2022-10-15 13:08:36</time>
      </trkpt>
      <trkpt lat="38.56082" lon="-0.84126">
        <ele>491.8</ele>
        <time>2022-10-15 13:08:37</time>
      </trkpt>
      <trkpt lat="38.56079" lon="-0.84121">
        <ele>491.6</ele>
        <time>2022-10-15 13:08:38</time>
      </trkpt>
      <trkpt lat="38.56075" lon="-0.84116">
        <ele>491.4</ele>
        <time>2022-10-15 13:08:39</time>
      </trkpt>
      <trkpt lat="38.56072" lon="-0.8411">
        <ele>491.4</ele>
        <time>2022-10-15 13:08:40</time>
      </trkpt>
      <trkpt lat="38.56068" lon="-0.84105">
        <ele>491.2</ele>
        <time>2022-10-15 13:08:41</time>
      </trkpt>
      <trkpt lat="38.56065" lon="-0.84099">
        <ele>491.2</ele>
        <time>2022-10-15 13:08:42</time>
      </trkpt>
      <trkpt lat="38.56061" lon="-0.84094">
        <ele>491.2</ele>
        <time>2022-10-15 13:08:43</time>
      </trkpt>
      <trkpt lat="38.56058" lon="-0.84089">
        <ele>491</ele>
        <time>2022-10-15 13:08:44</time>
      </trkpt>
      <trkpt lat="38.56054" lon="-0.84084">
        <ele>491</ele>
        <time>2022-10-15 13:08:45</time>
      </trkpt>
      <trkpt lat="38.56051" lon="-0.84079">
        <ele>490.8</ele>
        <time>2022-10-15 13:08:46</time>
      </trkpt>
      <trkpt lat="38.56048" lon="-0.84074">
        <ele>490.8</ele>
        <time>2022-10-15 13:08:47</time>
      </trkpt>
      <trkpt lat="38.56044" lon="-0.84069">
        <ele>490.8</ele>
        <time>2022-10-15 13:08:48</time>
      </trkpt>
      <trkpt lat="38.56041" lon="-0.84064">
        <ele>490.8</ele>
        <time>2022-10-15 13:08:49</time>
      </trkpt>
      <trkpt lat="38.56038" lon="-0.84059">
        <ele>490.8</ele>
        <time>2022-10-15 13:08:50</time>
      </trkpt>
      <trkpt lat="38.56031" lon="-0.8405">
        <ele>490.8</ele>
        <time>2022-10-15 13:08:51</time>
      </trkpt>
      <trkpt lat="38.56031" lon="-0.8405">
        <ele>490.8</ele>
        <time>2022-10-15 13:08:52</time>
      </trkpt>
      <trkpt lat="38.56028" lon="-0.84045">
        <ele>491</ele>
        <time>2022-10-15 13:08:53</time>
      </trkpt>
      <trkpt lat="38.56021" lon="-0.84036">
        <ele>491</ele>
        <time>2022-10-15 13:08:54</time>
      </trkpt>
      <trkpt lat="38.56021" lon="-0.84036">
        <ele>491.2</ele>
        <time>2022-10-15 13:08:55</time>
      </trkpt>
      <trkpt lat="38.56019" lon="-0.84031">
        <ele>491.2</ele>
        <time>2022-10-15 13:08:56</time>
      </trkpt>
      <trkpt lat="38.56016" lon="-0.84027">
        <ele>491.2</ele>
        <time>2022-10-15 13:08:57</time>
      </trkpt>
      <trkpt lat="38.56013" lon="-0.84022">
        <ele>491.4</ele>
        <time>2022-10-15 13:08:58</time>
      </trkpt>
      <trkpt lat="38.56011" lon="-0.84017">
        <ele>491.4</ele>
        <time>2022-10-15 13:08:59</time>
      </trkpt>
      <trkpt lat="38.56011" lon="-0.84012">
        <ele>491.6</ele>
        <time>2022-10-15 13:09:00</time>
      </trkpt>
      <trkpt lat="38.56011" lon="-0.84007">
        <ele>491.6</ele>
        <time>2022-10-15 13:09:01</time>
      </trkpt>
      <trkpt lat="38.56013" lon="-0.84002">
        <ele>491.8</ele>
        <time>2022-10-15 13:09:02</time>
      </trkpt>
      <trkpt lat="38.56016" lon="-0.83997">
        <ele>491.8</ele>
        <time>2022-10-15 13:09:03</time>
      </trkpt>
      <trkpt lat="38.56019" lon="-0.83992">
        <ele>491.8</ele>
        <time>2022-10-15 13:09:04</time>
      </trkpt>
      <trkpt lat="38.56022" lon="-0.83988">
        <ele>491.8</ele>
        <time>2022-10-15 13:09:05</time>
      </trkpt>
      <trkpt lat="38.56025" lon="-0.83983">
        <ele>492</ele>
        <time>2022-10-15 13:09:06</time>
      </trkpt>
      <trkpt lat="38.56028" lon="-0.83978">
        <ele>492</ele>
        <time>2022-10-15 13:09:07</time>
      </trkpt>
      <trkpt lat="38.5603" lon="-0.83974">
        <ele>492</ele>
        <time>2022-10-15 13:09:08</time>
      </trkpt>
      <trkpt lat="38.56033" lon="-0.83969">
        <ele>492.2</ele>
        <time>2022-10-15 13:09:09</time>
      </trkpt>
      <trkpt lat="38.56036" lon="-0.83964">
        <ele>492.4</ele>
        <time>2022-10-15 13:09:10</time>
      </trkpt>
      <trkpt lat="38.56038" lon="-0.83959">
        <ele>492.4</ele>
        <time>2022-10-15 13:09:11</time>
      </trkpt>
      <trkpt lat="38.56041" lon="-0.83954">
        <ele>492.6</ele>
        <time>2022-10-15 13:09:12</time>
      </trkpt>
      <trkpt lat="38.56043" lon="-0.83949">
        <ele>492.6</ele>
        <time>2022-10-15 13:09:13</time>
      </trkpt>
      <trkpt lat="38.56046" lon="-0.83944">
        <ele>492.6</ele>
        <time>2022-10-15 13:09:14</time>
      </trkpt>
      <trkpt lat="38.56048" lon="-0.83939">
        <ele>492.6</ele>
        <time>2022-10-15 13:09:15</time>
      </trkpt>
      <trkpt lat="38.56049" lon="-0.83933">
        <ele>492.6</ele>
        <time>2022-10-15 13:09:16</time>
      </trkpt>
      <trkpt lat="38.56049" lon="-0.83928">
        <ele>492.8</ele>
        <time>2022-10-15 13:09:17</time>
      </trkpt>
      <trkpt lat="38.56048" lon="-0.83922">
        <ele>492.8</ele>
        <time>2022-10-15 13:09:18</time>
      </trkpt>
      <trkpt lat="38.56047" lon="-0.83917">
        <ele>492.8</ele>
        <time>2022-10-15 13:09:19</time>
      </trkpt>
      <trkpt lat="38.56045" lon="-0.83912">
        <ele>492.8</ele>
        <time>2022-10-15 13:09:20</time>
      </trkpt>
      <trkpt lat="38.56044" lon="-0.83906">
        <ele>492.8</ele>
        <time>2022-10-15 13:09:21</time>
      </trkpt>
      <trkpt lat="38.56043" lon="-0.83901">
        <ele>492.8</ele>
        <time>2022-10-15 13:09:22</time>
      </trkpt>
      <trkpt lat="38.56043" lon="-0.83895">
        <ele>492.6</ele>
        <time>2022-10-15 13:09:23</time>
      </trkpt>
      <trkpt lat="38.56042" lon="-0.8389">
        <ele>492.6</ele>
        <time>2022-10-15 13:09:24</time>
      </trkpt>
      <trkpt lat="38.56042" lon="-0.83885">
        <ele>492.6</ele>
        <time>2022-10-15 13:09:25</time>
      </trkpt>
      <trkpt lat="38.5604" lon="-0.83881">
        <ele>492.4</ele>
        <time>2022-10-15 13:09:26</time>
      </trkpt>
      <trkpt lat="38.56038" lon="-0.83877">
        <ele>492.4</ele>
        <time>2022-10-15 13:09:27</time>
      </trkpt>
      <trkpt lat="38.56036" lon="-0.83875">
        <ele>492.2</ele>
        <time>2022-10-15 13:09:28</time>
      </trkpt>
      <trkpt lat="38.56029" lon="-0.83871">
        <ele>492.2</ele>
        <time>2022-10-15 13:09:29</time>
      </trkpt>
      <trkpt lat="38.56026" lon="-0.8387">
        <ele>492.2</ele>
        <time>2022-10-15 13:09:30</time>
      </trkpt>
      <trkpt lat="38.56022" lon="-0.83868">
        <ele>492.2</ele>
        <time>2022-10-15 13:09:31</time>
      </trkpt>
      <trkpt lat="38.56022" lon="-0.83868">
        <ele>492</ele>
        <time>2022-10-15 13:09:32</time>
      </trkpt>
      <trkpt lat="38.56015" lon="-0.83865">
        <ele>492</ele>
        <time>2022-10-15 13:09:33</time>
      </trkpt>
      <trkpt lat="38.56015" lon="-0.83865">
        <ele>492</ele>
        <time>2022-10-15 13:09:34</time>
      </trkpt>
      <trkpt lat="38.56011" lon="-0.83864">
        <ele>492</ele>
        <time>2022-10-15 13:09:35</time>
      </trkpt>
      <trkpt lat="38.56007" lon="-0.83862">
        <ele>492</ele>
        <time>2022-10-15 13:09:36</time>
      </trkpt>
      <trkpt lat="38.56004" lon="-0.8386">
        <ele>492</ele>
        <time>2022-10-15 13:09:37</time>
      </trkpt>
      <trkpt lat="38.56002" lon="-0.83857">
        <ele>492</ele>
        <time>2022-10-15 13:09:38</time>
      </trkpt>
      <trkpt lat="38.56002" lon="-0.83853">
        <ele>492</ele>
        <time>2022-10-15 13:09:39</time>
      </trkpt>
      <trkpt lat="38.56003" lon="-0.83849">
        <ele>492</ele>
        <time>2022-10-15 13:09:40</time>
      </trkpt>
      <trkpt lat="38.56005" lon="-0.83838">
        <ele>492</ele>
        <time>2022-10-15 13:09:41</time>
      </trkpt>
      <trkpt lat="38.56005" lon="-0.83838">
        <ele>491.8</ele>
        <time>2022-10-15 13:09:42</time>
      </trkpt>
      <trkpt lat="38.56006" lon="-0.83832">
        <ele>491.8</ele>
        <time>2022-10-15 13:09:43</time>
      </trkpt>
      <trkpt lat="38.56006" lon="-0.83826">
        <ele>491.8</ele>
        <time>2022-10-15 13:09:44</time>
      </trkpt>
      <trkpt lat="38.56007" lon="-0.83821">
        <ele>491.6</ele>
        <time>2022-10-15 13:09:45</time>
      </trkpt>
      <trkpt lat="38.56008" lon="-0.83815">
        <ele>491.6</ele>
        <time>2022-10-15 13:09:46</time>
      </trkpt>
      <trkpt lat="38.56009" lon="-0.8381">
        <ele>491.6</ele>
        <time>2022-10-15 13:09:47</time>
      </trkpt>
      <trkpt lat="38.56012" lon="-0.83801">
        <ele>491.4</ele>
        <time>2022-10-15 13:09:48</time>
      </trkpt>
      <trkpt lat="38.56012" lon="-0.83801">
        <ele>491.4</ele>
        <time>2022-10-15 13:09:49</time>
      </trkpt>
      <trkpt lat="38.56012" lon="-0.83796">
        <ele>491.4</ele>
        <time>2022-10-15 13:09:50</time>
      </trkpt>
      <trkpt lat="38.56014" lon="-0.83791">
        <ele>491.4</ele>
        <time>2022-10-15 13:09:51</time>
      </trkpt>
      <trkpt lat="38.56014" lon="-0.83786">
        <ele>491.4</ele>
        <time>2022-10-15 13:09:52</time>
      </trkpt>
      <trkpt lat="38.56016" lon="-0.83779">
        <ele>491.4</ele>
        <time>2022-10-15 13:09:53</time>
      </trkpt>
      <trkpt lat="38.56016" lon="-0.83779">
        <ele>491.4</ele>
        <time>2022-10-15 13:09:54</time>
      </trkpt>
      <trkpt lat="38.56017" lon="-0.83775">
        <ele>491.4</ele>
        <time>2022-10-15 13:09:55</time>
      </trkpt>
      <trkpt lat="38.56018" lon="-0.8377">
        <ele>491.4</ele>
        <time>2022-10-15 13:09:56</time>
      </trkpt>
      <trkpt lat="38.56018" lon="-0.83765">
        <ele>491.4</ele>
        <time>2022-10-15 13:09:57</time>
      </trkpt>
      <trkpt lat="38.56018" lon="-0.8376">
        <ele>491.4</ele>
        <time>2022-10-15 13:09:58</time>
      </trkpt>
      <trkpt lat="38.56018" lon="-0.83754">
        <ele>491.4</ele>
        <time>2022-10-15 13:09:59</time>
      </trkpt>
      <trkpt lat="38.56018" lon="-0.83749">
        <ele>491.8</ele>
        <time>2022-10-15 13:10:00</time>
      </trkpt>
      <trkpt lat="38.56017" lon="-0.83743">
        <ele>492</ele>
        <time>2022-10-15 13:10:01</time>
      </trkpt>
      <trkpt lat="38.56016" lon="-0.83736">
        <ele>492</ele>
        <time>2022-10-15 13:10:02</time>
      </trkpt>
      <trkpt lat="38.5601" lon="-0.83725">
        <ele>492</ele>
        <time>2022-10-15 13:10:03</time>
      </trkpt>
      <trkpt lat="38.56007" lon="-0.83719">
        <ele>492</ele>
        <time>2022-10-15 13:10:04</time>
      </trkpt>
      <trkpt lat="38.56003" lon="-0.83714">
        <ele>492</ele>
        <time>2022-10-15 13:10:05</time>
      </trkpt>
      <trkpt lat="38.55999" lon="-0.83709">
        <ele>492</ele>
        <time>2022-10-15 13:10:06</time>
      </trkpt>
      <trkpt lat="38.55995" lon="-0.83705">
        <ele>492.2</ele>
        <time>2022-10-15 13:10:07</time>
      </trkpt>
      <trkpt lat="38.55991" lon="-0.83703">
        <ele>492.2</ele>
        <time>2022-10-15 13:10:09</time>
      </trkpt>
      <trkpt lat="38.55987" lon="-0.83701">
        <ele>492.2</ele>
        <time>2022-10-15 13:10:10</time>
      </trkpt>
      <trkpt lat="38.55982" lon="-0.83698">
        <ele>492.2</ele>
        <time>2022-10-15 13:10:11</time>
      </trkpt>
      <trkpt lat="38.55979" lon="-0.83694">
        <ele>492.2</ele>
        <time>2022-10-15 13:10:12</time>
      </trkpt>
      <trkpt lat="38.55975" lon="-0.83689">
        <ele>492</ele>
        <time>2022-10-15 13:10:13</time>
      </trkpt>
      <trkpt lat="38.55973" lon="-0.83683">
        <ele>492</ele>
        <time>2022-10-15 13:10:14</time>
      </trkpt>
      <trkpt lat="38.55971" lon="-0.83677">
        <ele>492</ele>
        <time>2022-10-15 13:10:15</time>
      </trkpt>
      <trkpt lat="38.5597" lon="-0.83672">
        <ele>492</ele>
        <time>2022-10-15 13:10:16</time>
      </trkpt>
      <trkpt lat="38.55971" lon="-0.83666">
        <ele>492</ele>
        <time>2022-10-15 13:10:17</time>
      </trkpt>
      <trkpt lat="38.55972" lon="-0.83661">
        <ele>492</ele>
        <time>2022-10-15 13:10:18</time>
      </trkpt>
      <trkpt lat="38.55973" lon="-0.83657">
        <ele>492</ele>
        <time>2022-10-15 13:10:19</time>
      </trkpt>
      <trkpt lat="38.55973" lon="-0.83652">
        <ele>492</ele>
        <time>2022-10-15 13:10:20</time>
      </trkpt>
      <trkpt lat="38.55974" lon="-0.83647">
        <ele>492</ele>
        <time>2022-10-15 13:10:21</time>
      </trkpt>
      <trkpt lat="38.55973" lon="-0.83641">
        <ele>492</ele>
        <time>2022-10-15 13:10:22</time>
      </trkpt>
      <trkpt lat="38.55972" lon="-0.83636">
        <ele>492</ele>
        <time>2022-10-15 13:10:23</time>
      </trkpt>
      <trkpt lat="38.5597" lon="-0.8363">
        <ele>492</ele>
        <time>2022-10-15 13:10:24</time>
      </trkpt>
      <trkpt lat="38.55968" lon="-0.83625">
        <ele>492</ele>
        <time>2022-10-15 13:10:25</time>
      </trkpt>
      <trkpt lat="38.55966" lon="-0.83619">
        <ele>492</ele>
        <time>2022-10-15 13:10:26</time>
      </trkpt>
      <trkpt lat="38.55964" lon="-0.83613">
        <ele>492</ele>
        <time>2022-10-15 13:10:27</time>
      </trkpt>
      <trkpt lat="38.55962" lon="-0.83608">
        <ele>492</ele>
        <time>2022-10-15 13:10:28</time>
      </trkpt>
      <trkpt lat="38.55959" lon="-0.83602">
        <ele>492</ele>
        <time>2022-10-15 13:10:29</time>
      </trkpt>
      <trkpt lat="38.55957" lon="-0.83597">
        <ele>492</ele>
        <time>2022-10-15 13:10:30</time>
      </trkpt>
      <trkpt lat="38.55954" lon="-0.83592">
        <ele>492</ele>
        <time>2022-10-15 13:10:31</time>
      </trkpt>
      <trkpt lat="38.55951" lon="-0.83588">
        <ele>492</ele>
        <time>2022-10-15 13:10:32</time>
      </trkpt>
      <trkpt lat="38.55943" lon="-0.8358">
        <ele>491.8</ele>
        <time>2022-10-15 13:10:33</time>
      </trkpt>
      <trkpt lat="38.55943" lon="-0.8358">
        <ele>491.8</ele>
        <time>2022-10-15 13:10:34</time>
      </trkpt>
      <trkpt lat="38.55939" lon="-0.83576">
        <ele>491.6</ele>
        <time>2022-10-15 13:10:35</time>
      </trkpt>
      <trkpt lat="38.55931" lon="-0.83568">
        <ele>491.6</ele>
        <time>2022-10-15 13:10:36</time>
      </trkpt>
      <trkpt lat="38.55931" lon="-0.83568">
        <ele>491.6</ele>
        <time>2022-10-15 13:10:37</time>
      </trkpt>
      <trkpt lat="38.55927" lon="-0.83564">
        <ele>491.4</ele>
        <time>2022-10-15 13:10:38</time>
      </trkpt>
      <trkpt lat="38.55924" lon="-0.8356">
        <ele>491.4</ele>
        <time>2022-10-15 13:10:39</time>
      </trkpt>
      <trkpt lat="38.55921" lon="-0.83556">
        <ele>491.4</ele>
        <time>2022-10-15 13:10:40</time>
      </trkpt>
      <trkpt lat="38.55919" lon="-0.8355">
        <ele>491.4</ele>
        <time>2022-10-15 13:10:41</time>
      </trkpt>
      <trkpt lat="38.55917" lon="-0.83545">
        <ele>491.4</ele>
        <time>2022-10-15 13:10:42</time>
      </trkpt>
      <trkpt lat="38.55916" lon="-0.83539">
        <ele>491.4</ele>
        <time>2022-10-15 13:10:43</time>
      </trkpt>
      <trkpt lat="38.55914" lon="-0.83533">
        <ele>491.4</ele>
        <time>2022-10-15 13:10:44</time>
      </trkpt>
      <trkpt lat="38.55913" lon="-0.83527">
        <ele>491.4</ele>
        <time>2022-10-15 13:10:45</time>
      </trkpt>
      <trkpt lat="38.55912" lon="-0.83522">
        <ele>491.4</ele>
        <time>2022-10-15 13:10:46</time>
      </trkpt>
      <trkpt lat="38.55911" lon="-0.83518">
        <ele>491.6</ele>
        <time>2022-10-15 13:10:47</time>
      </trkpt>
      <trkpt lat="38.55909" lon="-0.83513">
        <ele>491.6</ele>
        <time>2022-10-15 13:10:48</time>
      </trkpt>
      <trkpt lat="38.55908" lon="-0.83509">
        <ele>491.8</ele>
        <time>2022-10-15 13:10:49</time>
      </trkpt>
      <trkpt lat="38.55905" lon="-0.83504">
        <ele>491.8</ele>
        <time>2022-10-15 13:10:50</time>
      </trkpt>
      <trkpt lat="38.559" lon="-0.83494">
        <ele>491.8</ele>
        <time>2022-10-15 13:10:51</time>
      </trkpt>
      <trkpt lat="38.559" lon="-0.83494">
        <ele>491.8</ele>
        <time>2022-10-15 13:10:52</time>
      </trkpt>
      <trkpt lat="38.55897" lon="-0.83489">
        <ele>491.8</ele>
        <time>2022-10-15 13:10:53</time>
      </trkpt>
      <trkpt lat="38.55895" lon="-0.83484">
        <ele>491.8</ele>
        <time>2022-10-15 13:10:54</time>
      </trkpt>
      <trkpt lat="38.55892" lon="-0.83478">
        <ele>491.8</ele>
        <time>2022-10-15 13:10:55</time>
      </trkpt>
      <trkpt lat="38.5589" lon="-0.83474">
        <ele>491.8</ele>
        <time>2022-10-15 13:10:56</time>
      </trkpt>
      <trkpt lat="38.55887" lon="-0.8347">
        <ele>491.8</ele>
        <time>2022-10-15 13:10:57</time>
      </trkpt>
      <trkpt lat="38.55885" lon="-0.83465">
        <ele>491.8</ele>
        <time>2022-10-15 13:10:58</time>
      </trkpt>
      <trkpt lat="38.55882" lon="-0.83461">
        <ele>491.8</ele>
        <time>2022-10-15 13:10:59</time>
      </trkpt>
      <trkpt lat="38.55878" lon="-0.83454">
        <ele>491.8</ele>
        <time>2022-10-15 13:11:00</time>
      </trkpt>
      <trkpt lat="38.55878" lon="-0.83454">
        <ele>491.8</ele>
        <time>2022-10-15 13:11:01</time>
      </trkpt>
      <trkpt lat="38.55875" lon="-0.83451">
        <ele>492</ele>
        <time>2022-10-15 13:11:02</time>
      </trkpt>
      <trkpt lat="38.55871" lon="-0.83448">
        <ele>492</ele>
        <time>2022-10-15 13:11:03</time>
      </trkpt>
      <trkpt lat="38.55868" lon="-0.83446">
        <ele>492</ele>
        <time>2022-10-15 13:11:04</time>
      </trkpt>
      <trkpt lat="38.55865" lon="-0.83444">
        <ele>492</ele>
        <time>2022-10-15 13:11:05</time>
      </trkpt>
      <trkpt lat="38.55862" lon="-0.83442">
        <ele>491.8</ele>
        <time>2022-10-15 13:11:06</time>
      </trkpt>
      <trkpt lat="38.55859" lon="-0.8344">
        <ele>491.8</ele>
        <time>2022-10-15 13:11:07</time>
      </trkpt>
      <trkpt lat="38.55857" lon="-0.83438">
        <ele>491.8</ele>
        <time>2022-10-15 13:11:08</time>
      </trkpt>
      <trkpt lat="38.55854" lon="-0.83436">
        <ele>492</ele>
        <time>2022-10-15 13:11:09</time>
      </trkpt>
      <trkpt lat="38.55853" lon="-0.83435">
        <ele>492</ele>
        <time>2022-10-15 13:11:10</time>
      </trkpt>
      <trkpt lat="38.55851" lon="-0.83433">
        <ele>492</ele>
        <time>2022-10-15 13:11:11</time>
      </trkpt>
      <trkpt lat="38.55849" lon="-0.83432">
        <ele>492</ele>
        <time>2022-10-15 13:11:12</time>
      </trkpt>
      <trkpt lat="38.55847" lon="-0.8343">
        <ele>492</ele>
        <time>2022-10-15 13:11:13</time>
      </trkpt>
      <trkpt lat="38.55845" lon="-0.83429">
        <ele>492</ele>
        <time>2022-10-15 13:11:14</time>
      </trkpt>
      <trkpt lat="38.55841" lon="-0.83426">
        <ele>492.2</ele>
        <time>2022-10-15 13:11:15</time>
      </trkpt>
      <trkpt lat="38.55841" lon="-0.83426">
        <ele>492.2</ele>
        <time>2022-10-15 13:11:16</time>
      </trkpt>
      <trkpt lat="38.55835" lon="-0.83422">
        <ele>492.2</ele>
        <time>2022-10-15 13:11:17</time>
      </trkpt>
      <trkpt lat="38.55833" lon="-0.83421">
        <ele>492.2</ele>
        <time>2022-10-15 13:11:18</time>
      </trkpt>
      <trkpt lat="38.55833" lon="-0.83421">
        <ele>492.2</ele>
        <time>2022-10-15 13:11:19</time>
      </trkpt>
      <trkpt lat="38.5583" lon="-0.83419">
        <ele>492.2</ele>
        <time>2022-10-15 13:11:20</time>
      </trkpt>
      <trkpt lat="38.55824" lon="-0.83415">
        <ele>492.2</ele>
        <time>2022-10-15 13:11:21</time>
      </trkpt>
      <trkpt lat="38.55824" lon="-0.83415">
        <ele>492.2</ele>
        <time>2022-10-15 13:11:22</time>
      </trkpt>
      <trkpt lat="38.55822" lon="-0.83413">
        <ele>492.2</ele>
        <time>2022-10-15 13:11:23</time>
      </trkpt>
      <trkpt lat="38.55819" lon="-0.83412">
        <ele>492.2</ele>
        <time>2022-10-15 13:11:24</time>
      </trkpt>
      <trkpt lat="38.55817" lon="-0.8341">
        <ele>492.2</ele>
        <time>2022-10-15 13:11:25</time>
      </trkpt>
      <trkpt lat="38.55814" lon="-0.83408">
        <ele>492.2</ele>
        <time>2022-10-15 13:11:26</time>
      </trkpt>
      <trkpt lat="38.55809" lon="-0.83404">
        <ele>492.2</ele>
        <time>2022-10-15 13:11:27</time>
      </trkpt>
      <trkpt lat="38.55809" lon="-0.83404">
        <ele>492.2</ele>
        <time>2022-10-15 13:11:28</time>
      </trkpt>
      <trkpt lat="38.55806" lon="-0.83402">
        <ele>492.2</ele>
        <time>2022-10-15 13:11:29</time>
      </trkpt>
      <trkpt lat="38.55803" lon="-0.834">
        <ele>492.2</ele>
        <time>2022-10-15 13:11:30</time>
      </trkpt>
      <trkpt lat="38.55801" lon="-0.83398">
        <ele>492.2</ele>
        <time>2022-10-15 13:11:31</time>
      </trkpt>
      <trkpt lat="38.55798" lon="-0.83397">
        <ele>492.2</ele>
        <time>2022-10-15 13:11:32</time>
      </trkpt>
      <trkpt lat="38.55795" lon="-0.83395">
        <ele>492.2</ele>
        <time>2022-10-15 13:11:33</time>
      </trkpt>
      <trkpt lat="38.55792" lon="-0.83392">
        <ele>492.2</ele>
        <time>2022-10-15 13:11:34</time>
      </trkpt>
      <trkpt lat="38.55789" lon="-0.83391">
        <ele>492.2</ele>
        <time>2022-10-15 13:11:35</time>
      </trkpt>
      <trkpt lat="38.55782" lon="-0.83389">
        <ele>492.2</ele>
        <time>2022-10-15 13:11:36</time>
      </trkpt>
      <trkpt lat="38.55782" lon="-0.83389">
        <ele>492.2</ele>
        <time>2022-10-15 13:11:37</time>
      </trkpt>
      <trkpt lat="38.55778" lon="-0.83388">
        <ele>492.2</ele>
        <time>2022-10-15 13:11:38</time>
      </trkpt>
      <trkpt lat="38.55775" lon="-0.83387">
        <ele>492.2</ele>
        <time>2022-10-15 13:11:39</time>
      </trkpt>
      <trkpt lat="38.55772" lon="-0.83385">
        <ele>492.2</ele>
        <time>2022-10-15 13:11:40</time>
      </trkpt>
      <trkpt lat="38.55765" lon="-0.83381">
        <ele>492.2</ele>
        <time>2022-10-15 13:11:41</time>
      </trkpt>
      <trkpt lat="38.55765" lon="-0.83381">
        <ele>492.2</ele>
        <time>2022-10-15 13:11:42</time>
      </trkpt>
      <trkpt lat="38.55762" lon="-0.8338">
        <ele>492.2</ele>
        <time>2022-10-15 13:11:43</time>
      </trkpt>
      <trkpt lat="38.55758" lon="-0.83378">
        <ele>492.2</ele>
        <time>2022-10-15 13:11:44</time>
      </trkpt>
      <trkpt lat="38.55755" lon="-0.83376">
        <ele>492.2</ele>
        <time>2022-10-15 13:11:45</time>
      </trkpt>
      <trkpt lat="38.55751" lon="-0.83375">
        <ele>492.2</ele>
        <time>2022-10-15 13:11:46</time>
      </trkpt>
      <trkpt lat="38.55747" lon="-0.83373">
        <ele>492.2</ele>
        <time>2022-10-15 13:11:47</time>
      </trkpt>
      <trkpt lat="38.55745" lon="-0.83371">
        <ele>492.2</ele>
        <time>2022-10-15 13:11:48</time>
      </trkpt>
      <trkpt lat="38.55743" lon="-0.83368">
        <ele>492.2</ele>
        <time>2022-10-15 13:11:49</time>
      </trkpt>
      <trkpt lat="38.55741" lon="-0.83365">
        <ele>492.2</ele>
        <time>2022-10-15 13:11:50</time>
      </trkpt>
      <trkpt lat="38.5574" lon="-0.83361">
        <ele>492.2</ele>
        <time>2022-10-15 13:11:51</time>
      </trkpt>
      <trkpt lat="38.55741" lon="-0.83357">
        <ele>492</ele>
        <time>2022-10-15 13:11:52</time>
      </trkpt>
      <trkpt lat="38.55741" lon="-0.83352">
        <ele>492</ele>
        <time>2022-10-15 13:11:53</time>
      </trkpt>
      <trkpt lat="38.55741" lon="-0.83348">
        <ele>492</ele>
        <time>2022-10-15 13:11:54</time>
      </trkpt>
      <trkpt lat="38.55741" lon="-0.83343">
        <ele>491.8</ele>
        <time>2022-10-15 13:11:55</time>
      </trkpt>
      <trkpt lat="38.55738" lon="-0.83337">
        <ele>491.8</ele>
        <time>2022-10-15 13:11:56</time>
      </trkpt>
      <trkpt lat="38.55735" lon="-0.83332">
        <ele>491.6</ele>
        <time>2022-10-15 13:11:57</time>
      </trkpt>
      <trkpt lat="38.55732" lon="-0.83328">
        <ele>491.8</ele>
        <time>2022-10-15 13:11:58</time>
      </trkpt>
      <trkpt lat="38.55728" lon="-0.83328">
        <ele>491.6</ele>
        <time>2022-10-15 13:11:59</time>
      </trkpt>
      <trkpt lat="38.55724" lon="-0.83328">
        <ele>491.2</ele>
        <time>2022-10-15 13:12:00</time>
      </trkpt>
      <trkpt lat="38.5572" lon="-0.8333">
        <ele>490.6</ele>
        <time>2022-10-15 13:12:01</time>
      </trkpt>
      <trkpt lat="38.55717" lon="-0.83332">
        <ele>490.4</ele>
        <time>2022-10-15 13:12:02</time>
      </trkpt>
      <trkpt lat="38.55714" lon="-0.83334">
        <ele>490.2</ele>
        <time>2022-10-15 13:12:03</time>
      </trkpt>
      <trkpt lat="38.5571" lon="-0.83336">
        <ele>490</ele>
        <time>2022-10-15 13:12:04</time>
      </trkpt>
      <trkpt lat="38.5571" lon="-0.83336">
        <ele>489.8</ele>
        <time>2022-10-15 13:12:05</time>
      </trkpt>
      <trkpt lat="38.55707" lon="-0.83337">
        <ele>489.8</ele>
        <time>2022-10-15 13:12:06</time>
      </trkpt>
      <trkpt lat="38.55704" lon="-0.83338">
        <ele>489.8</ele>
        <time>2022-10-15 13:12:07</time>
      </trkpt>
      <trkpt lat="38.55702" lon="-0.83339">
        <ele>489.6</ele>
        <time>2022-10-15 13:12:08</time>
      </trkpt>
      <trkpt lat="38.55698" lon="-0.83341">
        <ele>489.8</ele>
        <time>2022-10-15 13:12:09</time>
      </trkpt>
      <trkpt lat="38.55698" lon="-0.83341">
        <ele>489.6</ele>
        <time>2022-10-15 13:12:10</time>
      </trkpt>
      <trkpt lat="38.55697" lon="-0.83341">
        <ele>489.6</ele>
        <time>2022-10-15 13:12:11</time>
      </trkpt>
      <trkpt lat="38.55695" lon="-0.83343">
        <ele>489.6</ele>
        <time>2022-10-15 13:12:12</time>
      </trkpt>
      <trkpt lat="38.55693" lon="-0.83344">
        <ele>489.6</ele>
        <time>2022-10-15 13:12:13</time>
      </trkpt>
      <trkpt lat="38.55691" lon="-0.83345">
        <ele>489.6</ele>
        <time>2022-10-15 13:12:14</time>
      </trkpt>
      <trkpt lat="38.55689" lon="-0.83346">
        <ele>489.8</ele>
        <time>2022-10-15 13:12:15</time>
      </trkpt>
      <trkpt lat="38.55687" lon="-0.83348">
        <ele>490</ele>
        <time>2022-10-15 13:12:16</time>
      </trkpt>
      <trkpt lat="38.55685" lon="-0.83349">
        <ele>490.4</ele>
        <time>2022-10-15 13:12:17</time>
      </trkpt>
      <trkpt lat="38.55681" lon="-0.8335">
        <ele>490.6</ele>
        <time>2022-10-15 13:12:18</time>
      </trkpt>
      <trkpt lat="38.55681" lon="-0.8335">
        <ele>490.6</ele>
        <time>2022-10-15 13:12:19</time>
      </trkpt>
      <trkpt lat="38.55678" lon="-0.83351">
        <ele>490.6</ele>
        <time>2022-10-15 13:12:20</time>
      </trkpt>
      <trkpt lat="38.55676" lon="-0.83351">
        <ele>490.8</ele>
        <time>2022-10-15 13:12:21</time>
      </trkpt>
      <trkpt lat="38.55673" lon="-0.83351">
        <ele>491</ele>
        <time>2022-10-15 13:12:22</time>
      </trkpt>
      <trkpt lat="38.55667" lon="-0.83351">
        <ele>491.2</ele>
        <time>2022-10-15 13:12:23</time>
      </trkpt>
      <trkpt lat="38.55664" lon="-0.83351">
        <ele>491.4</ele>
        <time>2022-10-15 13:12:24</time>
      </trkpt>
      <trkpt lat="38.55664" lon="-0.83351">
        <ele>491.4</ele>
        <time>2022-10-15 13:12:25</time>
      </trkpt>
      <trkpt lat="38.55662" lon="-0.83351">
        <ele>491.4</ele>
        <time>2022-10-15 13:12:26</time>
      </trkpt>
      <trkpt lat="38.55659" lon="-0.83351">
        <ele>491.4</ele>
        <time>2022-10-15 13:12:27</time>
      </trkpt>
      <trkpt lat="38.55656" lon="-0.8335">
        <ele>491.4</ele>
        <time>2022-10-15 13:12:28</time>
      </trkpt>
      <trkpt lat="38.55654" lon="-0.83349">
        <ele>491.4</ele>
        <time>2022-10-15 13:12:29</time>
      </trkpt>
      <trkpt lat="38.55653" lon="-0.83347">
        <ele>491.6</ele>
        <time>2022-10-15 13:12:30</time>
      </trkpt>
      <trkpt lat="38.55652" lon="-0.83344">
        <ele>491.4</ele>
        <time>2022-10-15 13:12:31</time>
      </trkpt>
      <trkpt lat="38.55651" lon="-0.83342">
        <ele>491.6</ele>
        <time>2022-10-15 13:12:32</time>
      </trkpt>
      <trkpt lat="38.55649" lon="-0.83341">
        <ele>491.6</ele>
        <time>2022-10-15 13:12:33</time>
      </trkpt>
      <trkpt lat="38.55647" lon="-0.8334">
        <ele>491.8</ele>
        <time>2022-10-15 13:12:34</time>
      </trkpt>
      <trkpt lat="38.55645" lon="-0.8334">
        <ele>491.8</ele>
        <time>2022-10-15 13:12:35</time>
      </trkpt>
      <trkpt lat="38.55643" lon="-0.8334">
        <ele>491.8</ele>
        <time>2022-10-15 13:12:36</time>
      </trkpt>
      <trkpt lat="38.55641" lon="-0.83339">
        <ele>491.8</ele>
        <time>2022-10-15 13:12:37</time>
      </trkpt>
      <trkpt lat="38.55639" lon="-0.83339">
        <ele>491.8</ele>
        <time>2022-10-15 13:12:38</time>
      </trkpt>
      <trkpt lat="38.55637" lon="-0.8334">
        <ele>492.2</ele>
        <time>2022-10-15 13:12:39</time>
      </trkpt>
      <trkpt lat="38.55634" lon="-0.8334">
        <ele>492.6</ele>
        <time>2022-10-15 13:12:40</time>
      </trkpt>
      <trkpt lat="38.55632" lon="-0.8334">
        <ele>493.2</ele>
        <time>2022-10-15 13:12:41</time>
      </trkpt>
      <trkpt lat="38.55629" lon="-0.8334">
        <ele>493.4</ele>
        <time>2022-10-15 13:12:42</time>
      </trkpt>
      <trkpt lat="38.55626" lon="-0.8334">
        <ele>494</ele>
        <time>2022-10-15 13:12:43</time>
      </trkpt>
      <trkpt lat="38.55624" lon="-0.8334">
        <ele>494.2</ele>
        <time>2022-10-15 13:12:44</time>
      </trkpt>
      <trkpt lat="38.55618" lon="-0.83339">
        <ele>494.4</ele>
        <time>2022-10-15 13:12:45</time>
      </trkpt>
      <trkpt lat="38.55618" lon="-0.83339">
        <ele>494.6</ele>
        <time>2022-10-15 13:12:46</time>
      </trkpt>
      <trkpt lat="38.55616" lon="-0.83338">
        <ele>494.8</ele>
        <time>2022-10-15 13:12:47</time>
      </trkpt>
      <trkpt lat="38.55614" lon="-0.83338">
        <ele>494.8</ele>
        <time>2022-10-15 13:12:48</time>
      </trkpt>
      <trkpt lat="38.55611" lon="-0.83337">
        <ele>494.8</ele>
        <time>2022-10-15 13:12:49</time>
      </trkpt>
      <trkpt lat="38.55608" lon="-0.83338">
        <ele>494.8</ele>
        <time>2022-10-15 13:12:50</time>
      </trkpt>
      <trkpt lat="38.55605" lon="-0.83339">
        <ele>495</ele>
        <time>2022-10-15 13:12:51</time>
      </trkpt>
      <trkpt lat="38.55603" lon="-0.8334">
        <ele>495</ele>
        <time>2022-10-15 13:12:52</time>
      </trkpt>
      <trkpt lat="38.55598" lon="-0.83341">
        <ele>495</ele>
        <time>2022-10-15 13:12:53</time>
      </trkpt>
      <trkpt lat="38.55598" lon="-0.83341">
        <ele>495.2</ele>
        <time>2022-10-15 13:12:54</time>
      </trkpt>
      <trkpt lat="38.55595" lon="-0.83342">
        <ele>495.2</ele>
        <time>2022-10-15 13:12:55</time>
      </trkpt>
      <trkpt lat="38.55593" lon="-0.83343">
        <ele>495.4</ele>
        <time>2022-10-15 13:12:56</time>
      </trkpt>
      <trkpt lat="38.5559" lon="-0.83344">
        <ele>495.4</ele>
        <time>2022-10-15 13:12:57</time>
      </trkpt>
      <trkpt lat="38.55587" lon="-0.83344">
        <ele>495.4</ele>
        <time>2022-10-15 13:12:58</time>
      </trkpt>
      <trkpt lat="38.55585" lon="-0.83343">
        <ele>495.6</ele>
        <time>2022-10-15 13:12:59</time>
      </trkpt>
      <trkpt lat="38.55583" lon="-0.83341">
        <ele>495.8</ele>
        <time>2022-10-15 13:13:00</time>
      </trkpt>
      <trkpt lat="38.5558" lon="-0.8334">
        <ele>496</ele>
        <time>2022-10-15 13:13:01</time>
      </trkpt>
      <trkpt lat="38.55578" lon="-0.83339">
        <ele>496</ele>
        <time>2022-10-15 13:13:02</time>
      </trkpt>
      <trkpt lat="38.55575" lon="-0.83339">
        <ele>496.2</ele>
        <time>2022-10-15 13:13:03</time>
      </trkpt>
      <trkpt lat="38.55572" lon="-0.8334">
        <ele>496.2</ele>
        <time>2022-10-15 13:13:04</time>
      </trkpt>
      <trkpt lat="38.55569" lon="-0.83342">
        <ele>496.4</ele>
        <time>2022-10-15 13:13:05</time>
      </trkpt>
      <trkpt lat="38.55565" lon="-0.83344">
        <ele>496.6</ele>
        <time>2022-10-15 13:13:06</time>
      </trkpt>
      <trkpt lat="38.55562" lon="-0.83346">
        <ele>496.8</ele>
        <time>2022-10-15 13:13:07</time>
      </trkpt>
      <trkpt lat="38.55559" lon="-0.83348">
        <ele>497</ele>
        <time>2022-10-15 13:13:08</time>
      </trkpt>
      <trkpt lat="38.55556" lon="-0.8335">
        <ele>497</ele>
        <time>2022-10-15 13:13:09</time>
      </trkpt>
      <trkpt lat="38.55553" lon="-0.83352">
        <ele>497</ele>
        <time>2022-10-15 13:13:10</time>
      </trkpt>
      <trkpt lat="38.55549" lon="-0.83354">
        <ele>497</ele>
        <time>2022-10-15 13:13:11</time>
      </trkpt>
      <trkpt lat="38.55545" lon="-0.83356">
        <ele>497</ele>
        <time>2022-10-15 13:13:12</time>
      </trkpt>
      <trkpt lat="38.55542" lon="-0.83358">
        <ele>497</ele>
        <time>2022-10-15 13:13:13</time>
      </trkpt>
      <trkpt lat="38.55538" lon="-0.8336">
        <ele>497</ele>
        <time>2022-10-15 13:13:14</time>
      </trkpt>
      <trkpt lat="38.55535" lon="-0.83363">
        <ele>497</ele>
        <time>2022-10-15 13:13:15</time>
      </trkpt>
      <trkpt lat="38.55531" lon="-0.83366">
        <ele>497</ele>
        <time>2022-10-15 13:13:16</time>
      </trkpt>
      <trkpt lat="38.55528" lon="-0.83369">
        <ele>497</ele>
        <time>2022-10-15 13:13:17</time>
      </trkpt>
      <trkpt lat="38.55525" lon="-0.83371">
        <ele>497</ele>
        <time>2022-10-15 13:13:18</time>
      </trkpt>
      <trkpt lat="38.55521" lon="-0.83373">
        <ele>497</ele>
        <time>2022-10-15 13:13:19</time>
      </trkpt>
      <trkpt lat="38.55517" lon="-0.83375">
        <ele>497</ele>
        <time>2022-10-15 13:13:20</time>
      </trkpt>
      <trkpt lat="38.55513" lon="-0.83377">
        <ele>497</ele>
        <time>2022-10-15 13:13:21</time>
      </trkpt>
      <trkpt lat="38.5551" lon="-0.83377">
        <ele>497</ele>
        <time>2022-10-15 13:13:22</time>
      </trkpt>
      <trkpt lat="38.55503" lon="-0.83378">
        <ele>497</ele>
        <time>2022-10-15 13:13:23</time>
      </trkpt>
      <trkpt lat="38.55503" lon="-0.83378">
        <ele>497</ele>
        <time>2022-10-15 13:13:24</time>
      </trkpt>
      <trkpt lat="38.55496" lon="-0.83378">
        <ele>497.2</ele>
        <time>2022-10-15 13:13:25</time>
      </trkpt>
      <trkpt lat="38.55496" lon="-0.83378">
        <ele>497.2</ele>
        <time>2022-10-15 13:13:26</time>
      </trkpt>
      <trkpt lat="38.55493" lon="-0.83378">
        <ele>497.4</ele>
        <time>2022-10-15 13:13:27</time>
      </trkpt>
      <trkpt lat="38.55489" lon="-0.83379">
        <ele>497.4</ele>
        <time>2022-10-15 13:13:28</time>
      </trkpt>
      <trkpt lat="38.55486" lon="-0.8338">
        <ele>497.6</ele>
        <time>2022-10-15 13:13:29</time>
      </trkpt>
      <trkpt lat="38.55483" lon="-0.8338">
        <ele>497.8</ele>
        <time>2022-10-15 13:13:30</time>
      </trkpt>
      <trkpt lat="38.5548" lon="-0.83381">
        <ele>498</ele>
        <time>2022-10-15 13:13:31</time>
      </trkpt>
      <trkpt lat="38.55477" lon="-0.83382">
        <ele>498.2</ele>
        <time>2022-10-15 13:13:32</time>
      </trkpt>
      <trkpt lat="38.55474" lon="-0.83383">
        <ele>498.4</ele>
        <time>2022-10-15 13:13:33</time>
      </trkpt>
      <trkpt lat="38.5547" lon="-0.83384">
        <ele>498.6</ele>
        <time>2022-10-15 13:13:34</time>
      </trkpt>
      <trkpt lat="38.55468" lon="-0.83385">
        <ele>498.8</ele>
        <time>2022-10-15 13:13:35</time>
      </trkpt>
      <trkpt lat="38.55465" lon="-0.83387">
        <ele>498.8</ele>
        <time>2022-10-15 13:13:36</time>
      </trkpt>
      <trkpt lat="38.55462" lon="-0.83388">
        <ele>499.2</ele>
        <time>2022-10-15 13:13:37</time>
      </trkpt>
      <trkpt lat="38.55459" lon="-0.8339">
        <ele>499.4</ele>
        <time>2022-10-15 13:13:38</time>
      </trkpt>
      <trkpt lat="38.55456" lon="-0.83391">
        <ele>499.8</ele>
        <time>2022-10-15 13:13:39</time>
      </trkpt>
      <trkpt lat="38.55452" lon="-0.83393">
        <ele>499.8</ele>
        <time>2022-10-15 13:13:40</time>
      </trkpt>
      <trkpt lat="38.55449" lon="-0.83395">
        <ele>500</ele>
        <time>2022-10-15 13:13:41</time>
      </trkpt>
      <trkpt lat="38.55446" lon="-0.83397">
        <ele>500</ele>
        <time>2022-10-15 13:13:42</time>
      </trkpt>
      <trkpt lat="38.55443" lon="-0.83399">
        <ele>500</ele>
        <time>2022-10-15 13:13:43</time>
      </trkpt>
      <trkpt lat="38.5544" lon="-0.834">
        <ele>500</ele>
        <time>2022-10-15 13:13:44</time>
      </trkpt>
      <trkpt lat="38.55437" lon="-0.83403">
        <ele>500.2</ele>
        <time>2022-10-15 13:13:45</time>
      </trkpt>
      <trkpt lat="38.55434" lon="-0.83405">
        <ele>500.2</ele>
        <time>2022-10-15 13:13:46</time>
      </trkpt>
      <trkpt lat="38.5543" lon="-0.83408">
        <ele>500.4</ele>
        <time>2022-10-15 13:13:47</time>
      </trkpt>
      <trkpt lat="38.55423" lon="-0.83415">
        <ele>500.4</ele>
        <time>2022-10-15 13:13:48</time>
      </trkpt>
      <trkpt lat="38.5542" lon="-0.83419">
        <ele>500.6</ele>
        <time>2022-10-15 13:13:49</time>
      </trkpt>
      <trkpt lat="38.5542" lon="-0.83419">
        <ele>500.6</ele>
        <time>2022-10-15 13:13:50</time>
      </trkpt>
      <trkpt lat="38.55414" lon="-0.83428">
        <ele>500.8</ele>
        <time>2022-10-15 13:13:51</time>
      </trkpt>
      <trkpt lat="38.55414" lon="-0.83428">
        <ele>500.8</ele>
        <time>2022-10-15 13:13:52</time>
      </trkpt>
      <trkpt lat="38.55411" lon="-0.83432">
        <ele>500.8</ele>
        <time>2022-10-15 13:13:53</time>
      </trkpt>
      <trkpt lat="38.55408" lon="-0.83436">
        <ele>500.8</ele>
        <time>2022-10-15 13:13:54</time>
      </trkpt>
      <trkpt lat="38.55402" lon="-0.83444">
        <ele>500.8</ele>
        <time>2022-10-15 13:13:55</time>
      </trkpt>
      <trkpt lat="38.55402" lon="-0.83444">
        <ele>500.8</ele>
        <time>2022-10-15 13:13:56</time>
      </trkpt>
      <trkpt lat="38.55399" lon="-0.83448">
        <ele>500.8</ele>
        <time>2022-10-15 13:13:57</time>
      </trkpt>
      <trkpt lat="38.55396" lon="-0.83452">
        <ele>500.8</ele>
        <time>2022-10-15 13:13:58</time>
      </trkpt>
      <trkpt lat="38.55389" lon="-0.8346">
        <ele>500.8</ele>
        <time>2022-10-15 13:13:59</time>
      </trkpt>
      <trkpt lat="38.55389" lon="-0.8346">
        <ele>500.8</ele>
        <time>2022-10-15 13:14:00</time>
      </trkpt>
      <trkpt lat="38.55386" lon="-0.83464">
        <ele>500.8</ele>
        <time>2022-10-15 13:14:01</time>
      </trkpt>
      <trkpt lat="38.55384" lon="-0.83468">
        <ele>500.8</ele>
        <time>2022-10-15 13:14:02</time>
      </trkpt>
      <trkpt lat="38.55378" lon="-0.83476">
        <ele>500.8</ele>
        <time>2022-10-15 13:14:03</time>
      </trkpt>
      <trkpt lat="38.55378" lon="-0.83476">
        <ele>500.8</ele>
        <time>2022-10-15 13:14:04</time>
      </trkpt>
      <trkpt lat="38.55372" lon="-0.83484">
        <ele>500.8</ele>
        <time>2022-10-15 13:14:05</time>
      </trkpt>
      <trkpt lat="38.55372" lon="-0.83484">
        <ele>500.8</ele>
        <time>2022-10-15 13:14:06</time>
      </trkpt>
      <trkpt lat="38.55369" lon="-0.83488">
        <ele>500.8</ele>
        <time>2022-10-15 13:14:07</time>
      </trkpt>
      <trkpt lat="38.55366" lon="-0.83492">
        <ele>500.8</ele>
        <time>2022-10-15 13:14:08</time>
      </trkpt>
      <trkpt lat="38.55359" lon="-0.835">
        <ele>500.8</ele>
        <time>2022-10-15 13:14:09</time>
      </trkpt>
      <trkpt lat="38.55359" lon="-0.835">
        <ele>500.8</ele>
        <time>2022-10-15 13:14:10</time>
      </trkpt>
      <trkpt lat="38.55356" lon="-0.83504">
        <ele>500.8</ele>
        <time>2022-10-15 13:14:11</time>
      </trkpt>
      <trkpt lat="38.5535" lon="-0.83511">
        <ele>500.8</ele>
        <time>2022-10-15 13:14:12</time>
      </trkpt>
      <trkpt lat="38.5535" lon="-0.83511">
        <ele>500.8</ele>
        <time>2022-10-15 13:14:13</time>
      </trkpt>
      <trkpt lat="38.55347" lon="-0.83516">
        <ele>500.8</ele>
        <time>2022-10-15 13:14:14</time>
      </trkpt>
      <trkpt lat="38.55344" lon="-0.83519">
        <ele>500.8</ele>
        <time>2022-10-15 13:14:15</time>
      </trkpt>
      <trkpt lat="38.55341" lon="-0.83523">
        <ele>500.8</ele>
        <time>2022-10-15 13:14:16</time>
      </trkpt>
      <trkpt lat="38.55338" lon="-0.83527">
        <ele>500.8</ele>
        <time>2022-10-15 13:14:17</time>
      </trkpt>
      <trkpt lat="38.55335" lon="-0.83531">
        <ele>500.8</ele>
        <time>2022-10-15 13:14:18</time>
      </trkpt>
      <trkpt lat="38.55332" lon="-0.83534">
        <ele>500.8</ele>
        <time>2022-10-15 13:14:19</time>
      </trkpt>
      <trkpt lat="38.55329" lon="-0.83538">
        <ele>500.8</ele>
        <time>2022-10-15 13:14:20</time>
      </trkpt>
      <trkpt lat="38.55326" lon="-0.83542">
        <ele>500.8</ele>
        <time>2022-10-15 13:14:21</time>
      </trkpt>
      <trkpt lat="38.55323" lon="-0.83545">
        <ele>500.8</ele>
        <time>2022-10-15 13:14:22</time>
      </trkpt>
      <trkpt lat="38.55317" lon="-0.83553">
        <ele>500.8</ele>
        <time>2022-10-15 13:14:23</time>
      </trkpt>
      <trkpt lat="38.55317" lon="-0.83553">
        <ele>501</ele>
        <time>2022-10-15 13:14:24</time>
      </trkpt>
      <trkpt lat="38.55314" lon="-0.83557">
        <ele>501</ele>
        <time>2022-10-15 13:14:25</time>
      </trkpt>
      <trkpt lat="38.55311" lon="-0.83561">
        <ele>501</ele>
        <time>2022-10-15 13:14:26</time>
      </trkpt>
      <trkpt lat="38.55308" lon="-0.83565">
        <ele>501</ele>
        <time>2022-10-15 13:14:27</time>
      </trkpt>
      <trkpt lat="38.55304" lon="-0.83568">
        <ele>501</ele>
        <time>2022-10-15 13:14:28</time>
      </trkpt>
      <trkpt lat="38.553" lon="-0.8357">
        <ele>501</ele>
        <time>2022-10-15 13:14:29</time>
      </trkpt>
      <trkpt lat="38.55296" lon="-0.83571">
        <ele>501</ele>
        <time>2022-10-15 13:14:30</time>
      </trkpt>
      <trkpt lat="38.55292" lon="-0.83572">
        <ele>501</ele>
        <time>2022-10-15 13:14:31</time>
      </trkpt>
      <trkpt lat="38.55288" lon="-0.83572">
        <ele>501</ele>
        <time>2022-10-15 13:14:32</time>
      </trkpt>
      <trkpt lat="38.5528" lon="-0.8357">
        <ele>501</ele>
        <time>2022-10-15 13:14:33</time>
      </trkpt>
      <trkpt lat="38.5528" lon="-0.8357">
        <ele>501.2</ele>
        <time>2022-10-15 13:14:34</time>
      </trkpt>
      <trkpt lat="38.55276" lon="-0.83569">
        <ele>501.2</ele>
        <time>2022-10-15 13:14:35</time>
      </trkpt>
      <trkpt lat="38.55272" lon="-0.83568">
        <ele>501.2</ele>
        <time>2022-10-15 13:14:36</time>
      </trkpt>
      <trkpt lat="38.55268" lon="-0.83567">
        <ele>501.2</ele>
        <time>2022-10-15 13:14:37</time>
      </trkpt>
      <trkpt lat="38.55264" lon="-0.83565">
        <ele>501.4</ele>
        <time>2022-10-15 13:14:38</time>
      </trkpt>
      <trkpt lat="38.55261" lon="-0.83564">
        <ele>501.6</ele>
        <time>2022-10-15 13:14:39</time>
      </trkpt>
      <trkpt lat="38.55257" lon="-0.83562">
        <ele>501.6</ele>
        <time>2022-10-15 13:14:40</time>
      </trkpt>
      <trkpt lat="38.55254" lon="-0.83561">
        <ele>501.8</ele>
        <time>2022-10-15 13:14:41</time>
      </trkpt>
      <trkpt lat="38.5525" lon="-0.83561">
        <ele>502</ele>
        <time>2022-10-15 13:14:42</time>
      </trkpt>
      <trkpt lat="38.55246" lon="-0.8356">
        <ele>502</ele>
        <time>2022-10-15 13:14:43</time>
      </trkpt>
      <trkpt lat="38.55242" lon="-0.83558">
        <ele>502.2</ele>
        <time>2022-10-15 13:14:44</time>
      </trkpt>
      <trkpt lat="38.55235" lon="-0.83556">
        <ele>502.2</ele>
        <time>2022-10-15 13:14:45</time>
      </trkpt>
      <trkpt lat="38.55235" lon="-0.83556">
        <ele>502.4</ele>
        <time>2022-10-15 13:14:46</time>
      </trkpt>
      <trkpt lat="38.55231" lon="-0.83555">
        <ele>502.6</ele>
        <time>2022-10-15 13:14:47</time>
      </trkpt>
      <trkpt lat="38.55228" lon="-0.83554">
        <ele>502.8</ele>
        <time>2022-10-15 13:14:48</time>
      </trkpt>
      <trkpt lat="38.55224" lon="-0.83554">
        <ele>502.8</ele>
        <time>2022-10-15 13:14:49</time>
      </trkpt>
      <trkpt lat="38.55221" lon="-0.83553">
        <ele>503.2</ele>
        <time>2022-10-15 13:14:50</time>
      </trkpt>
      <trkpt lat="38.55217" lon="-0.83553">
        <ele>503.6</ele>
        <time>2022-10-15 13:14:51</time>
      </trkpt>
      <trkpt lat="38.55213" lon="-0.83553">
        <ele>503.8</ele>
        <time>2022-10-15 13:14:52</time>
      </trkpt>
      <trkpt lat="38.55209" lon="-0.83553">
        <ele>504</ele>
        <time>2022-10-15 13:14:53</time>
      </trkpt>
      <trkpt lat="38.55201" lon="-0.83554">
        <ele>504</ele>
        <time>2022-10-15 13:14:54</time>
      </trkpt>
      <trkpt lat="38.55201" lon="-0.83554">
        <ele>504.2</ele>
        <time>2022-10-15 13:14:55</time>
      </trkpt>
      <trkpt lat="38.55197" lon="-0.83554">
        <ele>504.2</ele>
        <time>2022-10-15 13:14:56</time>
      </trkpt>
      <trkpt lat="38.55193" lon="-0.83555">
        <ele>504.4</ele>
        <time>2022-10-15 13:14:57</time>
      </trkpt>
      <trkpt lat="38.55189" lon="-0.83556">
        <ele>504.6</ele>
        <time>2022-10-15 13:14:58</time>
      </trkpt>
      <trkpt lat="38.55185" lon="-0.83556">
        <ele>504.6</ele>
        <time>2022-10-15 13:14:59</time>
      </trkpt>
      <trkpt lat="38.55178" lon="-0.83557">
        <ele>505.2</ele>
        <time>2022-10-15 13:15:00</time>
      </trkpt>
      <trkpt lat="38.55178" lon="-0.83557">
        <ele>505.2</ele>
        <time>2022-10-15 13:15:01</time>
      </trkpt>
      <trkpt lat="38.55174" lon="-0.83557">
        <ele>505.4</ele>
        <time>2022-10-15 13:15:02</time>
      </trkpt>
      <trkpt lat="38.55171" lon="-0.83559">
        <ele>505.4</ele>
        <time>2022-10-15 13:15:03</time>
      </trkpt>
      <trkpt lat="38.55167" lon="-0.83562">
        <ele>505.4</ele>
        <time>2022-10-15 13:15:04</time>
      </trkpt>
      <trkpt lat="38.55164" lon="-0.83565">
        <ele>505.6</ele>
        <time>2022-10-15 13:15:05</time>
      </trkpt>
      <trkpt lat="38.55158" lon="-0.83572">
        <ele>505.6</ele>
        <time>2022-10-15 13:15:06</time>
      </trkpt>
      <trkpt lat="38.55158" lon="-0.83572">
        <ele>505.8</ele>
        <time>2022-10-15 13:15:07</time>
      </trkpt>
      <trkpt lat="38.55155" lon="-0.83576">
        <ele>505.8</ele>
        <time>2022-10-15 13:15:08</time>
      </trkpt>
      <trkpt lat="38.55145" lon="-0.83586">
        <ele>506</ele>
        <time>2022-10-15 13:15:09</time>
      </trkpt>
      <trkpt lat="38.55141" lon="-0.83589">
        <ele>506</ele>
        <time>2022-10-15 13:15:10</time>
      </trkpt>
      <trkpt lat="38.55137" lon="-0.83591">
        <ele>506</ele>
        <time>2022-10-15 13:15:11</time>
      </trkpt>
      <trkpt lat="38.55123" lon="-0.83599">
        <ele>506</ele>
        <time>2022-10-15 13:15:12</time>
      </trkpt>
      <trkpt lat="38.55123" lon="-0.83599">
        <ele>506</ele>
        <time>2022-10-15 13:15:13</time>
      </trkpt>
      <trkpt lat="38.55118" lon="-0.83602">
        <ele>506</ele>
        <time>2022-10-15 13:15:16</time>
      </trkpt>
      <trkpt lat="38.55113" lon="-0.83606">
        <ele>506</ele>
        <time>2022-10-15 13:15:17</time>
      </trkpt>
      <trkpt lat="38.55108" lon="-0.83609">
        <ele>506</ele>
        <time>2022-10-15 13:15:18</time>
      </trkpt>
      <trkpt lat="38.55103" lon="-0.83611">
        <ele>506</ele>
        <time>2022-10-15 13:15:20</time>
      </trkpt>
      <trkpt lat="38.55098" lon="-0.83614">
        <ele>506</ele>
        <time>2022-10-15 13:15:21</time>
      </trkpt>
      <trkpt lat="38.55094" lon="-0.83617">
        <ele>506</ele>
        <time>2022-10-15 13:15:22</time>
      </trkpt>
      <trkpt lat="38.55089" lon="-0.83619">
        <ele>506</ele>
        <time>2022-10-15 13:15:23</time>
      </trkpt>
      <trkpt lat="38.55084" lon="-0.83621">
        <ele>506</ele>
        <time>2022-10-15 13:15:24</time>
      </trkpt>
      <trkpt lat="38.5508" lon="-0.83623">
        <ele>505.8</ele>
        <time>2022-10-15 13:15:25</time>
      </trkpt>
      <trkpt lat="38.55074" lon="-0.83623">
        <ele>505.8</ele>
        <time>2022-10-15 13:15:26</time>
      </trkpt>
      <trkpt lat="38.55064" lon="-0.83622">
        <ele>505.6</ele>
        <time>2022-10-15 13:15:27</time>
      </trkpt>
      <trkpt lat="38.55064" lon="-0.83622">
        <ele>505.4</ele>
        <time>2022-10-15 13:15:28</time>
      </trkpt>
      <trkpt lat="38.55059" lon="-0.83621">
        <ele>505.4</ele>
        <time>2022-10-15 13:15:29</time>
      </trkpt>
      <trkpt lat="38.55053" lon="-0.83622">
        <ele>505.4</ele>
        <time>2022-10-15 13:15:30</time>
      </trkpt>
      <trkpt lat="38.55049" lon="-0.83624">
        <ele>505.4</ele>
        <time>2022-10-15 13:15:31</time>
      </trkpt>
      <trkpt lat="38.55044" lon="-0.83627">
        <ele>505.4</ele>
        <time>2022-10-15 13:15:32</time>
      </trkpt>
      <trkpt lat="38.55035" lon="-0.83633">
        <ele>505.4</ele>
        <time>2022-10-15 13:15:33</time>
      </trkpt>
      <trkpt lat="38.55035" lon="-0.83633">
        <ele>505.4</ele>
        <time>2022-10-15 13:15:34</time>
      </trkpt>
      <trkpt lat="38.55027" lon="-0.8364">
        <ele>505.4</ele>
        <time>2022-10-15 13:15:35</time>
      </trkpt>
      <trkpt lat="38.55027" lon="-0.8364">
        <ele>505.4</ele>
        <time>2022-10-15 13:15:36</time>
      </trkpt>
      <trkpt lat="38.55023" lon="-0.83643">
        <ele>505.4</ele>
        <time>2022-10-15 13:15:37</time>
      </trkpt>
      <trkpt lat="38.55018" lon="-0.83647">
        <ele>505.4</ele>
        <time>2022-10-15 13:15:38</time>
      </trkpt>
      <trkpt lat="38.55014" lon="-0.8365">
        <ele>505.4</ele>
        <time>2022-10-15 13:15:39</time>
      </trkpt>
      <trkpt lat="38.55006" lon="-0.83658">
        <ele>505.4</ele>
        <time>2022-10-15 13:15:40</time>
      </trkpt>
      <trkpt lat="38.54982" lon="-0.83679">
        <ele>505.6</ele>
        <time>2022-10-15 13:15:41</time>
      </trkpt>
      <trkpt lat="38.54982" lon="-0.83679">
        <ele>505.6</ele>
        <time>2022-10-15 13:15:42</time>
      </trkpt>
      <trkpt lat="38.54975" lon="-0.83686">
        <ele>505.6</ele>
        <time>2022-10-15 13:15:43</time>
      </trkpt>
      <trkpt lat="38.54971" lon="-0.83689">
        <ele>505.6</ele>
        <time>2022-10-15 13:15:44</time>
      </trkpt>
      <trkpt lat="38.54971" lon="-0.83689">
        <ele>505.8</ele>
        <time>2022-10-15 13:15:46</time>
      </trkpt>
      <trkpt lat="38.54963" lon="-0.83696">
        <ele>505.8</ele>
        <time>2022-10-15 13:15:51</time>
      </trkpt>
      <trkpt lat="38.54963" lon="-0.83696">
        <ele>505.8</ele>
        <time>2022-10-15 13:15:52</time>
      </trkpt>
      <trkpt lat="38.54956" lon="-0.83703">
        <ele>506</ele>
        <time>2022-10-15 13:15:53</time>
      </trkpt>
      <trkpt lat="38.54952" lon="-0.83706">
        <ele>506</ele>
        <time>2022-10-15 13:15:54</time>
      </trkpt>
      <trkpt lat="38.54952" lon="-0.83706">
        <ele>506</ele>
        <time>2022-10-15 13:15:55</time>
      </trkpt>
      <trkpt lat="38.54948" lon="-0.83709">
        <ele>506</ele>
        <time>2022-10-15 13:15:56</time>
      </trkpt>
      <trkpt lat="38.54945" lon="-0.83713">
        <ele>506.4</ele>
        <time>2022-10-15 13:15:57</time>
      </trkpt>
      <trkpt lat="38.54941" lon="-0.83716">
        <ele>506.4</ele>
        <time>2022-10-15 13:15:58</time>
      </trkpt>
      <trkpt lat="38.54934" lon="-0.83721">
        <ele>506.6</ele>
        <time>2022-10-15 13:15:59</time>
      </trkpt>
      <trkpt lat="38.54934" lon="-0.83721">
        <ele>506.6</ele>
        <time>2022-10-15 13:16:00</time>
      </trkpt>
      <trkpt lat="38.5493" lon="-0.83724">
        <ele>506.8</ele>
        <time>2022-10-15 13:16:01</time>
      </trkpt>
      <trkpt lat="38.54927" lon="-0.83726">
        <ele>506.8</ele>
        <time>2022-10-15 13:16:02</time>
      </trkpt>
      <trkpt lat="38.54923" lon="-0.83728">
        <ele>506.8</ele>
        <time>2022-10-15 13:16:03</time>
      </trkpt>
      <trkpt lat="38.54916" lon="-0.8373">
        <ele>506.8</ele>
        <time>2022-10-15 13:16:04</time>
      </trkpt>
      <trkpt lat="38.54912" lon="-0.83731">
        <ele>506.8</ele>
        <time>2022-10-15 13:16:05</time>
      </trkpt>
      <trkpt lat="38.54909" lon="-0.83731">
        <ele>506.8</ele>
        <time>2022-10-15 13:16:06</time>
      </trkpt>
      <trkpt lat="38.54905" lon="-0.83731">
        <ele>507</ele>
        <time>2022-10-15 13:16:07</time>
      </trkpt>
      <trkpt lat="38.549" lon="-0.8373">
        <ele>507</ele>
        <time>2022-10-15 13:16:08</time>
      </trkpt>
      <trkpt lat="38.54898" lon="-0.8373">
        <ele>507</ele>
        <time>2022-10-15 13:16:10</time>
      </trkpt>
      <trkpt lat="38.54896" lon="-0.8373">
        <ele>507.2</ele>
        <time>2022-10-15 13:16:11</time>
      </trkpt>
      <trkpt lat="38.54893" lon="-0.8373">
        <ele>507.2</ele>
        <time>2022-10-15 13:16:12</time>
      </trkpt>
      <trkpt lat="38.54892" lon="-0.8373">
        <ele>507.2</ele>
        <time>2022-10-15 13:16:13</time>
      </trkpt>
      <trkpt lat="38.54891" lon="-0.83728">
        <ele>507.4</ele>
        <time>2022-10-15 13:16:15</time>
      </trkpt>
      <trkpt lat="38.54891" lon="-0.83725">
        <ele>507.4</ele>
        <time>2022-10-15 13:16:16</time>
      </trkpt>
      <trkpt lat="38.54891" lon="-0.83722">
        <ele>507.6</ele>
        <time>2022-10-15 13:16:17</time>
      </trkpt>
      <trkpt lat="38.54892" lon="-0.83718">
        <ele>507.6</ele>
        <time>2022-10-15 13:16:18</time>
      </trkpt>
      <trkpt lat="38.54895" lon="-0.8371">
        <ele>507.6</ele>
        <time>2022-10-15 13:16:19</time>
      </trkpt>
      <trkpt lat="38.54895" lon="-0.8371">
        <ele>507.8</ele>
        <time>2022-10-15 13:16:20</time>
      </trkpt>
      <trkpt lat="38.54896" lon="-0.837">
        <ele>507.8</ele>
        <time>2022-10-15 13:16:21</time>
      </trkpt>
      <trkpt lat="38.54896" lon="-0.837">
        <ele>508.2</ele>
        <time>2022-10-15 13:16:22</time>
      </trkpt>
      <trkpt lat="38.54897" lon="-0.8369">
        <ele>508.2</ele>
        <time>2022-10-15 13:16:23</time>
      </trkpt>
      <trkpt lat="38.54897" lon="-0.83685">
        <ele>508.4</ele>
        <time>2022-10-15 13:16:24</time>
      </trkpt>
      <trkpt lat="38.54897" lon="-0.83685">
        <ele>508.4</ele>
        <time>2022-10-15 13:16:25</time>
      </trkpt>
      <trkpt lat="38.54897" lon="-0.8368">
        <ele>508.4</ele>
        <time>2022-10-15 13:16:26</time>
      </trkpt>
      <trkpt lat="38.54898" lon="-0.83675">
        <ele>508.4</ele>
        <time>2022-10-15 13:16:27</time>
      </trkpt>
      <trkpt lat="38.54898" lon="-0.8367">
        <ele>508.4</ele>
        <time>2022-10-15 13:16:28</time>
      </trkpt>
      <trkpt lat="38.54899" lon="-0.83665">
        <ele>508.4</ele>
        <time>2022-10-15 13:16:29</time>
      </trkpt>
      <trkpt lat="38.549" lon="-0.83654">
        <ele>508.4</ele>
        <time>2022-10-15 13:16:30</time>
      </trkpt>
      <trkpt lat="38.549" lon="-0.83654">
        <ele>508.4</ele>
        <time>2022-10-15 13:16:31</time>
      </trkpt>
      <trkpt lat="38.54901" lon="-0.83649">
        <ele>508.4</ele>
        <time>2022-10-15 13:16:32</time>
      </trkpt>
      <trkpt lat="38.54902" lon="-0.83639">
        <ele>508.4</ele>
        <time>2022-10-15 13:16:33</time>
      </trkpt>
      <trkpt lat="38.54902" lon="-0.83639">
        <ele>508.4</ele>
        <time>2022-10-15 13:16:34</time>
      </trkpt>
      <trkpt lat="38.54903" lon="-0.83628">
        <ele>508.4</ele>
        <time>2022-10-15 13:16:35</time>
      </trkpt>
      <trkpt lat="38.54903" lon="-0.83623">
        <ele>508.4</ele>
        <time>2022-10-15 13:16:36</time>
      </trkpt>
      <trkpt lat="38.54903" lon="-0.83623">
        <ele>508.4</ele>
        <time>2022-10-15 13:16:37</time>
      </trkpt>
      <trkpt lat="38.54903" lon="-0.83618">
        <ele>508.4</ele>
        <time>2022-10-15 13:16:38</time>
      </trkpt>
      <trkpt lat="38.54903" lon="-0.83614">
        <ele>508.2</ele>
        <time>2022-10-15 13:16:39</time>
      </trkpt>
      <trkpt lat="38.54904" lon="-0.83609">
        <ele>508.2</ele>
        <time>2022-10-15 13:16:40</time>
      </trkpt>
      <trkpt lat="38.54904" lon="-0.83604">
        <ele>508.2</ele>
        <time>2022-10-15 13:16:41</time>
      </trkpt>
      <trkpt lat="38.54904" lon="-0.83599">
        <ele>508.2</ele>
        <time>2022-10-15 13:16:42</time>
      </trkpt>
      <trkpt lat="38.54905" lon="-0.83595">
        <ele>508.2</ele>
        <time>2022-10-15 13:16:43</time>
      </trkpt>
      <trkpt lat="38.54905" lon="-0.8359">
        <ele>508.2</ele>
        <time>2022-10-15 13:16:44</time>
      </trkpt>
      <trkpt lat="38.54905" lon="-0.8358">
        <ele>508.2</ele>
        <time>2022-10-15 13:16:45</time>
      </trkpt>
      <trkpt lat="38.54905" lon="-0.8358">
        <ele>508.2</ele>
        <time>2022-10-15 13:16:46</time>
      </trkpt>
      <trkpt lat="38.54905" lon="-0.83576">
        <ele>508.2</ele>
        <time>2022-10-15 13:16:47</time>
      </trkpt>
      <trkpt lat="38.54906" lon="-0.83571">
        <ele>508.4</ele>
        <time>2022-10-15 13:16:48</time>
      </trkpt>
      <trkpt lat="38.54906" lon="-0.83566">
        <ele>508.4</ele>
        <time>2022-10-15 13:16:49</time>
      </trkpt>
      <trkpt lat="38.54906" lon="-0.83561">
        <ele>508.4</ele>
        <time>2022-10-15 13:16:50</time>
      </trkpt>
      <trkpt lat="38.54907" lon="-0.83551">
        <ele>508.4</ele>
        <time>2022-10-15 13:16:51</time>
      </trkpt>
      <trkpt lat="38.54907" lon="-0.83546">
        <ele>508.4</ele>
        <time>2022-10-15 13:16:52</time>
      </trkpt>
      <trkpt lat="38.54907" lon="-0.83541">
        <ele>508.4</ele>
        <time>2022-10-15 13:16:53</time>
      </trkpt>
      <trkpt lat="38.54908" lon="-0.83536">
        <ele>508.6</ele>
        <time>2022-10-15 13:16:54</time>
      </trkpt>
      <trkpt lat="38.54908" lon="-0.83531">
        <ele>508.8</ele>
        <time>2022-10-15 13:16:55</time>
      </trkpt>
      <trkpt lat="38.54908" lon="-0.83531">
        <ele>508.8</ele>
        <time>2022-10-15 13:16:56</time>
      </trkpt>
      <trkpt lat="38.54909" lon="-0.83522">
        <ele>509</ele>
        <time>2022-10-15 13:16:57</time>
      </trkpt>
      <trkpt lat="38.54908" lon="-0.83517">
        <ele>509</ele>
        <time>2022-10-15 13:16:58</time>
      </trkpt>
      <trkpt lat="38.54908" lon="-0.83512">
        <ele>509.2</ele>
        <time>2022-10-15 13:16:59</time>
      </trkpt>
      <trkpt lat="38.54908" lon="-0.83506">
        <ele>509.2</ele>
        <time>2022-10-15 13:17:00</time>
      </trkpt>
      <trkpt lat="38.54908" lon="-0.83501">
        <ele>509.2</ele>
        <time>2022-10-15 13:17:01</time>
      </trkpt>
      <trkpt lat="38.54908" lon="-0.83501">
        <ele>509.4</ele>
        <time>2022-10-15 13:17:02</time>
      </trkpt>
      <trkpt lat="38.54908" lon="-0.83491">
        <ele>509.4</ele>
        <time>2022-10-15 13:17:03</time>
      </trkpt>
      <trkpt lat="38.54907" lon="-0.83486">
        <ele>509.6</ele>
        <time>2022-10-15 13:17:04</time>
      </trkpt>
      <trkpt lat="38.54907" lon="-0.8348">
        <ele>509.6</ele>
        <time>2022-10-15 13:17:05</time>
      </trkpt>
      <trkpt lat="38.54907" lon="-0.83475">
        <ele>509.6</ele>
        <time>2022-10-15 13:17:06</time>
      </trkpt>
      <trkpt lat="38.54906" lon="-0.8347">
        <ele>509.6</ele>
        <time>2022-10-15 13:17:07</time>
      </trkpt>
      <trkpt lat="38.54906" lon="-0.8347">
        <ele>509.8</ele>
        <time>2022-10-15 13:17:08</time>
      </trkpt>
      <trkpt lat="38.54905" lon="-0.83459">
        <ele>510</ele>
        <time>2022-10-15 13:17:09</time>
      </trkpt>
      <trkpt lat="38.54905" lon="-0.83454">
        <ele>510.2</ele>
        <time>2022-10-15 13:17:10</time>
      </trkpt>
      <trkpt lat="38.54905" lon="-0.83449">
        <ele>510.4</ele>
        <time>2022-10-15 13:17:11</time>
      </trkpt>
      <trkpt lat="38.54905" lon="-0.83443">
        <ele>510.6</ele>
        <time>2022-10-15 13:17:12</time>
      </trkpt>
      <trkpt lat="38.54905" lon="-0.83439">
        <ele>511.2</ele>
        <time>2022-10-15 13:17:13</time>
      </trkpt>
      <trkpt lat="38.54905" lon="-0.83439">
        <ele>511.4</ele>
        <time>2022-10-15 13:17:14</time>
      </trkpt>
      <trkpt lat="38.54906" lon="-0.8343">
        <ele>511.8</ele>
        <time>2022-10-15 13:17:15</time>
      </trkpt>
      <trkpt lat="38.54907" lon="-0.83426">
        <ele>512</ele>
        <time>2022-10-15 13:17:16</time>
      </trkpt>
      <trkpt lat="38.54907" lon="-0.83422">
        <ele>512.2</ele>
        <time>2022-10-15 13:17:17</time>
      </trkpt>
      <trkpt lat="38.54908" lon="-0.83417">
        <ele>512.4</ele>
        <time>2022-10-15 13:17:18</time>
      </trkpt>
      <trkpt lat="38.54907" lon="-0.83413">
        <ele>512.6</ele>
        <time>2022-10-15 13:17:19</time>
      </trkpt>
      <trkpt lat="38.54907" lon="-0.83413">
        <ele>512.6</ele>
        <time>2022-10-15 13:17:20</time>
      </trkpt>
      <trkpt lat="38.54905" lon="-0.83405">
        <ele>512.8</ele>
        <time>2022-10-15 13:17:21</time>
      </trkpt>
      <trkpt lat="38.54904" lon="-0.83401">
        <ele>512.8</ele>
        <time>2022-10-15 13:17:22</time>
      </trkpt>
      <trkpt lat="38.54903" lon="-0.83396">
        <ele>513.2</ele>
        <time>2022-10-15 13:17:23</time>
      </trkpt>
      <trkpt lat="38.54902" lon="-0.83393">
        <ele>513.4</ele>
        <time>2022-10-15 13:17:24</time>
      </trkpt>
      <trkpt lat="38.54901" lon="-0.83389">
        <ele>513.6</ele>
        <time>2022-10-15 13:17:25</time>
      </trkpt>
      <trkpt lat="38.54901" lon="-0.83389">
        <ele>513.6</ele>
        <time>2022-10-15 13:17:26</time>
      </trkpt>
      <trkpt lat="38.54899" lon="-0.83381">
        <ele>513.8</ele>
        <time>2022-10-15 13:17:27</time>
      </trkpt>
      <trkpt lat="38.54898" lon="-0.83376">
        <ele>514</ele>
        <time>2022-10-15 13:17:28</time>
      </trkpt>
      <trkpt lat="38.54897" lon="-0.83371">
        <ele>514</ele>
        <time>2022-10-15 13:17:29</time>
      </trkpt>
      <trkpt lat="38.54896" lon="-0.83366">
        <ele>514.2</ele>
        <time>2022-10-15 13:17:30</time>
      </trkpt>
      <trkpt lat="38.54894" lon="-0.83361">
        <ele>514.2</ele>
        <time>2022-10-15 13:17:31</time>
      </trkpt>
      <trkpt lat="38.54894" lon="-0.83361">
        <ele>514.2</ele>
        <time>2022-10-15 13:17:32</time>
      </trkpt>
      <trkpt lat="38.54892" lon="-0.8335">
        <ele>514.4</ele>
        <time>2022-10-15 13:17:33</time>
      </trkpt>
      <trkpt lat="38.54891" lon="-0.83345">
        <ele>514.6</ele>
        <time>2022-10-15 13:17:34</time>
      </trkpt>
      <trkpt lat="38.5489" lon="-0.8334">
        <ele>514.6</ele>
        <time>2022-10-15 13:17:35</time>
      </trkpt>
      <trkpt lat="38.54889" lon="-0.83335">
        <ele>514.6</ele>
        <time>2022-10-15 13:17:36</time>
      </trkpt>
      <trkpt lat="38.54888" lon="-0.8333">
        <ele>514.6</ele>
        <time>2022-10-15 13:17:37</time>
      </trkpt>
      <trkpt lat="38.54888" lon="-0.8333">
        <ele>514.8</ele>
        <time>2022-10-15 13:17:38</time>
      </trkpt>
      <trkpt lat="38.54887" lon="-0.83319">
        <ele>514.8</ele>
        <time>2022-10-15 13:17:39</time>
      </trkpt>
      <trkpt lat="38.54886" lon="-0.83314">
        <ele>514.8</ele>
        <time>2022-10-15 13:17:40</time>
      </trkpt>
      <trkpt lat="38.54886" lon="-0.83314">
        <ele>514.8</ele>
        <time>2022-10-15 13:17:41</time>
      </trkpt>
      <trkpt lat="38.54885" lon="-0.83309">
        <ele>515</ele>
        <time>2022-10-15 13:17:42</time>
      </trkpt>
      <trkpt lat="38.54885" lon="-0.83305">
        <ele>515</ele>
        <time>2022-10-15 13:17:43</time>
      </trkpt>
      <trkpt lat="38.54885" lon="-0.83301">
        <ele>515</ele>
        <time>2022-10-15 13:17:44</time>
      </trkpt>
      <trkpt lat="38.54885" lon="-0.83297">
        <ele>514.8</ele>
        <time>2022-10-15 13:17:45</time>
      </trkpt>
      <trkpt lat="38.54887" lon="-0.83293">
        <ele>514.8</ele>
        <time>2022-10-15 13:17:46</time>
      </trkpt>
      <trkpt lat="38.54889" lon="-0.8329">
        <ele>514.8</ele>
        <time>2022-10-15 13:17:47</time>
      </trkpt>
      <trkpt lat="38.54893" lon="-0.83286">
        <ele>514.8</ele>
        <time>2022-10-15 13:17:48</time>
      </trkpt>
      <trkpt lat="38.54893" lon="-0.83286">
        <ele>514.8</ele>
        <time>2022-10-15 13:17:49</time>
      </trkpt>
      <trkpt lat="38.54895" lon="-0.83285">
        <ele>514.8</ele>
        <time>2022-10-15 13:17:50</time>
      </trkpt>
      <trkpt lat="38.54896" lon="-0.83283">
        <ele>514.8</ele>
        <time>2022-10-15 13:17:51</time>
      </trkpt>
      <trkpt lat="38.54899" lon="-0.8328">
        <ele>514.6</ele>
        <time>2022-10-15 13:17:52</time>
      </trkpt>
      <trkpt lat="38.54899" lon="-0.83277">
        <ele>514.6</ele>
        <time>2022-10-15 13:17:53</time>
      </trkpt>
      <trkpt lat="38.54899" lon="-0.83274">
        <ele>514.6</ele>
        <time>2022-10-15 13:17:54</time>
      </trkpt>
      <trkpt lat="38.54898" lon="-0.83271">
        <ele>514.4</ele>
        <time>2022-10-15 13:17:55</time>
      </trkpt>
      <trkpt lat="38.54898" lon="-0.83271">
        <ele>514.4</ele>
        <time>2022-10-15 13:17:56</time>
      </trkpt>
      <trkpt lat="38.54896" lon="-0.83264">
        <ele>514.2</ele>
        <time>2022-10-15 13:17:57</time>
      </trkpt>
      <trkpt lat="38.54894" lon="-0.8326">
        <ele>514.2</ele>
        <time>2022-10-15 13:17:58</time>
      </trkpt>
      <trkpt lat="38.54894" lon="-0.8326">
        <ele>514</ele>
        <time>2022-10-15 13:17:59</time>
      </trkpt>
      <trkpt lat="38.54891" lon="-0.83249">
        <ele>513.8</ele>
        <time>2022-10-15 13:18:00</time>
      </trkpt>
      <trkpt lat="38.54889" lon="-0.83243">
        <ele>513.4</ele>
        <time>2022-10-15 13:18:01</time>
      </trkpt>
      <trkpt lat="38.54889" lon="-0.83243">
        <ele>513.2</ele>
        <time>2022-10-15 13:18:02</time>
      </trkpt>
      <trkpt lat="38.54884" lon="-0.83231">
        <ele>512.8</ele>
        <time>2022-10-15 13:18:03</time>
      </trkpt>
      <trkpt lat="38.54882" lon="-0.83225">
        <ele>512.4</ele>
        <time>2022-10-15 13:18:04</time>
      </trkpt>
      <trkpt lat="38.54879" lon="-0.83219">
        <ele>511.8</ele>
        <time>2022-10-15 13:18:05</time>
      </trkpt>
      <trkpt lat="38.54876" lon="-0.83214">
        <ele>511.4</ele>
        <time>2022-10-15 13:18:06</time>
      </trkpt>
      <trkpt lat="38.54873" lon="-0.83208">
        <ele>511</ele>
        <time>2022-10-15 13:18:07</time>
      </trkpt>
      <trkpt lat="38.54873" lon="-0.83208">
        <ele>510.4</ele>
        <time>2022-10-15 13:18:08</time>
      </trkpt>
      <trkpt lat="38.54867" lon="-0.83197">
        <ele>510</ele>
        <time>2022-10-15 13:18:09</time>
      </trkpt>
      <trkpt lat="38.54864" lon="-0.83191">
        <ele>509.8</ele>
        <time>2022-10-15 13:18:10</time>
      </trkpt>
      <trkpt lat="38.54861" lon="-0.83185">
        <ele>509.8</ele>
        <time>2022-10-15 13:18:11</time>
      </trkpt>
      <trkpt lat="38.54858" lon="-0.8318">
        <ele>509.6</ele>
        <time>2022-10-15 13:18:12</time>
      </trkpt>
      <trkpt lat="38.54855" lon="-0.83173">
        <ele>509</ele>
        <time>2022-10-15 13:18:13</time>
      </trkpt>
      <trkpt lat="38.54855" lon="-0.83173">
        <ele>509</ele>
        <time>2022-10-15 13:18:14</time>
      </trkpt>
      <trkpt lat="38.54849" lon="-0.83162">
        <ele>509</ele>
        <time>2022-10-15 13:18:15</time>
      </trkpt>
      <trkpt lat="38.54846" lon="-0.83156">
        <ele>508.8</ele>
        <time>2022-10-15 13:18:16</time>
      </trkpt>
      <trkpt lat="38.54843" lon="-0.8315">
        <ele>508.8</ele>
        <time>2022-10-15 13:18:17</time>
      </trkpt>
      <trkpt lat="38.5484" lon="-0.83144">
        <ele>508.6</ele>
        <time>2022-10-15 13:18:18</time>
      </trkpt>
      <trkpt lat="38.54837" lon="-0.83138">
        <ele>508.6</ele>
        <time>2022-10-15 13:18:19</time>
      </trkpt>
      <trkpt lat="38.54837" lon="-0.83138">
        <ele>508.6</ele>
        <time>2022-10-15 13:18:20</time>
      </trkpt>
      <trkpt lat="38.5483" lon="-0.83127">
        <ele>508.6</ele>
        <time>2022-10-15 13:18:21</time>
      </trkpt>
      <trkpt lat="38.54827" lon="-0.83121">
        <ele>508.4</ele>
        <time>2022-10-15 13:18:22</time>
      </trkpt>
      <trkpt lat="38.54824" lon="-0.83115">
        <ele>508.4</ele>
        <time>2022-10-15 13:18:23</time>
      </trkpt>
      <trkpt lat="38.54821" lon="-0.83107">
        <ele>508.4</ele>
        <time>2022-10-15 13:18:24</time>
      </trkpt>
      <trkpt lat="38.54819" lon="-0.83099">
        <ele>508.2</ele>
        <time>2022-10-15 13:18:25</time>
      </trkpt>
      <trkpt lat="38.54813" lon="-0.83082">
        <ele>508.2</ele>
        <time>2022-10-15 13:18:26</time>
      </trkpt>
      <trkpt lat="38.5481" lon="-0.83073">
        <ele>508.2</ele>
        <time>2022-10-15 13:18:27</time>
      </trkpt>
      <trkpt lat="38.54807" lon="-0.83064">
        <ele>508.2</ele>
        <time>2022-10-15 13:18:28</time>
      </trkpt>
      <trkpt lat="38.54804" lon="-0.83055">
        <ele>508</ele>
        <time>2022-10-15 13:18:29</time>
      </trkpt>
      <trkpt lat="38.548" lon="-0.83046">
        <ele>507.8</ele>
        <time>2022-10-15 13:18:30</time>
      </trkpt>
      <trkpt lat="38.548" lon="-0.83046">
        <ele>507.4</ele>
        <time>2022-10-15 13:18:32</time>
      </trkpt>
      <trkpt lat="38.54794" lon="-0.83027">
        <ele>506.8</ele>
        <time>2022-10-15 13:18:33</time>
      </trkpt>
      <trkpt lat="38.5479" lon="-0.83018">
        <ele>506.2</ele>
        <time>2022-10-15 13:18:34</time>
      </trkpt>
      <trkpt lat="38.54787" lon="-0.83009">
        <ele>505.8</ele>
        <time>2022-10-15 13:18:35</time>
      </trkpt>
      <trkpt lat="38.54783" lon="-0.83">
        <ele>505</ele>
        <time>2022-10-15 13:18:36</time>
      </trkpt>
      <trkpt lat="38.54778" lon="-0.82991">
        <ele>504.4</ele>
        <time>2022-10-15 13:18:37</time>
      </trkpt>
      <trkpt lat="38.54778" lon="-0.82991">
        <ele>504</ele>
        <time>2022-10-15 13:18:38</time>
      </trkpt>
      <trkpt lat="38.54771" lon="-0.82972">
        <ele>503.6</ele>
        <time>2022-10-15 13:18:39</time>
      </trkpt>
      <trkpt lat="38.54767" lon="-0.82964">
        <ele>503.4</ele>
        <time>2022-10-15 13:18:40</time>
      </trkpt>
      <trkpt lat="38.54764" lon="-0.82955">
        <ele>502.8</ele>
        <time>2022-10-15 13:18:41</time>
      </trkpt>
      <trkpt lat="38.54756" lon="-0.82938">
        <ele>502</ele>
        <time>2022-10-15 13:18:42</time>
      </trkpt>
      <trkpt lat="38.54756" lon="-0.82938">
        <ele>501.6</ele>
        <time>2022-10-15 13:18:43</time>
      </trkpt>
      <trkpt lat="38.54749" lon="-0.8292">
        <ele>501</ele>
        <time>2022-10-15 13:18:44</time>
      </trkpt>
      <trkpt lat="38.54746" lon="-0.82911">
        <ele>500.8</ele>
        <time>2022-10-15 13:18:45</time>
      </trkpt>
      <trkpt lat="38.54742" lon="-0.82902">
        <ele>500.6</ele>
        <time>2022-10-15 13:18:46</time>
      </trkpt>
      <trkpt lat="38.54739" lon="-0.82893">
        <ele>500.6</ele>
        <time>2022-10-15 13:18:48</time>
      </trkpt>
      <trkpt lat="38.54739" lon="-0.82893">
        <ele>499.8</ele>
        <time>2022-10-15 13:18:49</time>
      </trkpt>
      <trkpt lat="38.54737" lon="-0.82884">
        <ele>499.4</ele>
        <time>2022-10-15 13:18:50</time>
      </trkpt>
      <trkpt lat="38.54733" lon="-0.82867">
        <ele>498.6</ele>
        <time>2022-10-15 13:18:51</time>
      </trkpt>
      <trkpt lat="38.54731" lon="-0.82858">
        <ele>498.2</ele>
        <time>2022-10-15 13:18:52</time>
      </trkpt>
      <trkpt lat="38.54731" lon="-0.82849">
        <ele>498</ele>
        <time>2022-10-15 13:18:53</time>
      </trkpt>
      <trkpt lat="38.54731" lon="-0.82841">
        <ele>497.8</ele>
        <time>2022-10-15 13:18:54</time>
      </trkpt>
      <trkpt lat="38.54731" lon="-0.82841">
        <ele>497.6</ele>
        <time>2022-10-15 13:18:55</time>
      </trkpt>
      <trkpt lat="38.54731" lon="-0.82832">
        <ele>497.4</ele>
        <time>2022-10-15 13:18:56</time>
      </trkpt>
      <trkpt lat="38.5473" lon="-0.82823">
        <ele>497.2</ele>
        <time>2022-10-15 13:18:57</time>
      </trkpt>
      <trkpt lat="38.5473" lon="-0.82814">
        <ele>496.6</ele>
        <time>2022-10-15 13:18:58</time>
      </trkpt>
      <trkpt lat="38.54728" lon="-0.82797">
        <ele>496.4</ele>
        <time>2022-10-15 13:18:59</time>
      </trkpt>
      <trkpt lat="38.54727" lon="-0.8279">
        <ele>496</ele>
        <time>2022-10-15 13:19:00</time>
      </trkpt>
      <trkpt lat="38.54726" lon="-0.82782">
        <ele>495.6</ele>
        <time>2022-10-15 13:19:01</time>
      </trkpt>
      <trkpt lat="38.54726" lon="-0.82782">
        <ele>495.2</ele>
        <time>2022-10-15 13:19:02</time>
      </trkpt>
      <trkpt lat="38.54725" lon="-0.82766">
        <ele>494.8</ele>
        <time>2022-10-15 13:19:03</time>
      </trkpt>
      <trkpt lat="38.54724" lon="-0.82758">
        <ele>494.4</ele>
        <time>2022-10-15 13:19:04</time>
      </trkpt>
      <trkpt lat="38.54724" lon="-0.8275">
        <ele>494.2</ele>
        <time>2022-10-15 13:19:05</time>
      </trkpt>
      <trkpt lat="38.54723" lon="-0.82742">
        <ele>494</ele>
        <time>2022-10-15 13:19:06</time>
      </trkpt>
      <trkpt lat="38.54721" lon="-0.82734">
        <ele>493.8</ele>
        <time>2022-10-15 13:19:07</time>
      </trkpt>
      <trkpt lat="38.54721" lon="-0.82734">
        <ele>493.6</ele>
        <time>2022-10-15 13:19:08</time>
      </trkpt>
      <trkpt lat="38.5472" lon="-0.82726">
        <ele>493.6</ele>
        <time>2022-10-15 13:19:09</time>
      </trkpt>
      <trkpt lat="38.54718" lon="-0.82718">
        <ele>493.4</ele>
        <time>2022-10-15 13:19:10</time>
      </trkpt>
      <trkpt lat="38.54715" lon="-0.82711">
        <ele>493.4</ele>
        <time>2022-10-15 13:19:11</time>
      </trkpt>
      <trkpt lat="38.5471" lon="-0.82696">
        <ele>493.2</ele>
        <time>2022-10-15 13:19:12</time>
      </trkpt>
      <trkpt lat="38.5471" lon="-0.82696">
        <ele>493.2</ele>
        <time>2022-10-15 13:19:13</time>
      </trkpt>
      <trkpt lat="38.54707" lon="-0.82689">
        <ele>493</ele>
        <time>2022-10-15 13:19:14</time>
      </trkpt>
      <trkpt lat="38.54701" lon="-0.82675">
        <ele>492.8</ele>
        <time>2022-10-15 13:19:15</time>
      </trkpt>
      <trkpt lat="38.54701" lon="-0.82675">
        <ele>492.6</ele>
        <time>2022-10-15 13:19:16</time>
      </trkpt>
      <trkpt lat="38.54698" lon="-0.82669">
        <ele>491.8</ele>
        <time>2022-10-15 13:19:17</time>
      </trkpt>
      <trkpt lat="38.54695" lon="-0.82662">
        <ele>491.4</ele>
        <time>2022-10-15 13:19:18</time>
      </trkpt>
      <trkpt lat="38.54691" lon="-0.82656">
        <ele>491.2</ele>
        <time>2022-10-15 13:19:19</time>
      </trkpt>
      <trkpt lat="38.54688" lon="-0.8265">
        <ele>491</ele>
        <time>2022-10-15 13:19:20</time>
      </trkpt>
      <trkpt lat="38.54685" lon="-0.82644">
        <ele>491</ele>
        <time>2022-10-15 13:19:21</time>
      </trkpt>
      <trkpt lat="38.54682" lon="-0.82637">
        <ele>490.8</ele>
        <time>2022-10-15 13:19:22</time>
      </trkpt>
      <trkpt lat="38.54679" lon="-0.82631">
        <ele>490.6</ele>
        <time>2022-10-15 13:19:23</time>
      </trkpt>
      <trkpt lat="38.54676" lon="-0.82625">
        <ele>490.4</ele>
        <time>2022-10-15 13:19:24</time>
      </trkpt>
      <trkpt lat="38.54673" lon="-0.82619">
        <ele>489.8</ele>
        <time>2022-10-15 13:19:25</time>
      </trkpt>
      <trkpt lat="38.5467" lon="-0.82613">
        <ele>489.6</ele>
        <time>2022-10-15 13:19:26</time>
      </trkpt>
      <trkpt lat="38.54666" lon="-0.82606">
        <ele>489.2</ele>
        <time>2022-10-15 13:19:27</time>
      </trkpt>
      <trkpt lat="38.54663" lon="-0.82599">
        <ele>489.2</ele>
        <time>2022-10-15 13:19:28</time>
      </trkpt>
      <trkpt lat="38.54661" lon="-0.82592">
        <ele>488.8</ele>
        <time>2022-10-15 13:19:29</time>
      </trkpt>
      <trkpt lat="38.54658" lon="-0.82584">
        <ele>488.8</ele>
        <time>2022-10-15 13:19:30</time>
      </trkpt>
      <trkpt lat="38.54656" lon="-0.82576">
        <ele>488.6</ele>
        <time>2022-10-15 13:19:31</time>
      </trkpt>
      <trkpt lat="38.54655" lon="-0.82568">
        <ele>488.6</ele>
        <time>2022-10-15 13:19:32</time>
      </trkpt>
      <trkpt lat="38.54653" lon="-0.8256">
        <ele>488.6</ele>
        <time>2022-10-15 13:19:33</time>
      </trkpt>
      <trkpt lat="38.54652" lon="-0.82535">
        <ele>487.8</ele>
        <time>2022-10-15 13:19:34</time>
      </trkpt>
      <trkpt lat="38.54651" lon="-0.82527">
        <ele>487.6</ele>
        <time>2022-10-15 13:19:35</time>
      </trkpt>
      <trkpt lat="38.54651" lon="-0.82527">
        <ele>487.6</ele>
        <time>2022-10-15 13:19:36</time>
      </trkpt>
      <trkpt lat="38.54651" lon="-0.82519">
        <ele>487.4</ele>
        <time>2022-10-15 13:19:37</time>
      </trkpt>
      <trkpt lat="38.54649" lon="-0.82511">
        <ele>487.2</ele>
        <time>2022-10-15 13:19:38</time>
      </trkpt>
      <trkpt lat="38.54648" lon="-0.82504">
        <ele>486.8</ele>
        <time>2022-10-15 13:19:40</time>
      </trkpt>
      <trkpt lat="38.54647" lon="-0.82497">
        <ele>486.2</ele>
        <time>2022-10-15 13:19:41</time>
      </trkpt>
      <trkpt lat="38.54646" lon="-0.82481">
        <ele>485.8</ele>
        <time>2022-10-15 13:19:42</time>
      </trkpt>
      <trkpt lat="38.54646" lon="-0.82481">
        <ele>485.6</ele>
        <time>2022-10-15 13:19:43</time>
      </trkpt>
      <trkpt lat="38.54647" lon="-0.82457">
        <ele>485.4</ele>
        <time>2022-10-15 13:19:44</time>
      </trkpt>
      <trkpt lat="38.54648" lon="-0.82448">
        <ele>485.2</ele>
        <time>2022-10-15 13:19:45</time>
      </trkpt>
      <trkpt lat="38.54648" lon="-0.82448">
        <ele>485</ele>
        <time>2022-10-15 13:19:46</time>
      </trkpt>
      <trkpt lat="38.54648" lon="-0.82439">
        <ele>485</ele>
        <time>2022-10-15 13:19:47</time>
      </trkpt>
      <trkpt lat="38.54648" lon="-0.82431">
        <ele>484.8</ele>
        <time>2022-10-15 13:19:48</time>
      </trkpt>
      <trkpt lat="38.54647" lon="-0.82422">
        <ele>484.4</ele>
        <time>2022-10-15 13:19:50</time>
      </trkpt>
      <trkpt lat="38.54641" lon="-0.82406">
        <ele>484.2</ele>
        <time>2022-10-15 13:19:51</time>
      </trkpt>
      <trkpt lat="38.54638" lon="-0.82399">
        <ele>484</ele>
        <time>2022-10-15 13:19:52</time>
      </trkpt>
      <trkpt lat="38.54638" lon="-0.82399">
        <ele>483.4</ele>
        <time>2022-10-15 13:19:53</time>
      </trkpt>
      <trkpt lat="38.54636" lon="-0.82392">
        <ele>483</ele>
        <time>2022-10-15 13:19:54</time>
      </trkpt>
      <trkpt lat="38.54633" lon="-0.82385">
        <ele>482.8</ele>
        <time>2022-10-15 13:19:55</time>
      </trkpt>
      <trkpt lat="38.5463" lon="-0.82378">
        <ele>482.2</ele>
        <time>2022-10-15 13:19:56</time>
      </trkpt>
      <trkpt lat="38.54628" lon="-0.8237">
        <ele>481.8</ele>
        <time>2022-10-15 13:19:57</time>
      </trkpt>
      <trkpt lat="38.54626" lon="-0.82356">
        <ele>481.4</ele>
        <time>2022-10-15 13:19:58</time>
      </trkpt>
      <trkpt lat="38.54626" lon="-0.82348">
        <ele>481.2</ele>
        <time>2022-10-15 13:19:59</time>
      </trkpt>
      <trkpt lat="38.54626" lon="-0.82334">
        <ele>480.6</ele>
        <time>2022-10-15 13:20:00</time>
      </trkpt>
      <trkpt lat="38.54625" lon="-0.82322">
        <ele>480.4</ele>
        <time>2022-10-15 13:20:01</time>
      </trkpt>
      <trkpt lat="38.54625" lon="-0.82322">
        <ele>480</ele>
        <time>2022-10-15 13:20:02</time>
      </trkpt>
      <trkpt lat="38.54623" lon="-0.82317">
        <ele>479.8</ele>
        <time>2022-10-15 13:20:03</time>
      </trkpt>
      <trkpt lat="38.54615" lon="-0.82313">
        <ele>479.6</ele>
        <time>2022-10-15 13:20:04</time>
      </trkpt>
      <trkpt lat="38.54615" lon="-0.82313">
        <ele>479.6</ele>
        <time>2022-10-15 13:20:07</time>
      </trkpt>
      <trkpt lat="38.54611" lon="-0.82314">
        <ele>479.2</ele>
        <time>2022-10-15 13:20:08</time>
      </trkpt>
      <trkpt lat="38.54606" lon="-0.82316">
        <ele>479</ele>
        <time>2022-10-15 13:20:09</time>
      </trkpt>
      <trkpt lat="38.54601" lon="-0.82318">
        <ele>478.8</ele>
        <time>2022-10-15 13:20:10</time>
      </trkpt>
      <trkpt lat="38.54597" lon="-0.82322">
        <ele>478.6</ele>
        <time>2022-10-15 13:20:11</time>
      </trkpt>
      <trkpt lat="38.54592" lon="-0.82325">
        <ele>478.4</ele>
        <time>2022-10-15 13:20:12</time>
      </trkpt>
      <trkpt lat="38.54587" lon="-0.82329">
        <ele>478.4</ele>
        <time>2022-10-15 13:20:13</time>
      </trkpt>
      <trkpt lat="38.54583" lon="-0.82333">
        <ele>478.4</ele>
        <time>2022-10-15 13:20:14</time>
      </trkpt>
      <trkpt lat="38.54578" lon="-0.82337">
        <ele>478.2</ele>
        <time>2022-10-15 13:20:15</time>
      </trkpt>
      <trkpt lat="38.54574" lon="-0.82341">
        <ele>478.2</ele>
        <time>2022-10-15 13:20:16</time>
      </trkpt>
      <trkpt lat="38.54569" lon="-0.82344">
        <ele>478.2</ele>
        <time>2022-10-15 13:20:17</time>
      </trkpt>
      <trkpt lat="38.54564" lon="-0.82346">
        <ele>477.8</ele>
        <time>2022-10-15 13:20:18</time>
      </trkpt>
      <trkpt lat="38.54559" lon="-0.82345">
        <ele>477.8</ele>
        <time>2022-10-15 13:20:19</time>
      </trkpt>
      <trkpt lat="38.54554" lon="-0.82343">
        <ele>477.6</ele>
        <time>2022-10-15 13:20:20</time>
      </trkpt>
      <trkpt lat="38.5455" lon="-0.82338">
        <ele>477.4</ele>
        <time>2022-10-15 13:20:21</time>
      </trkpt>
      <trkpt lat="38.54547" lon="-0.82333">
        <ele>477.4</ele>
        <time>2022-10-15 13:20:22</time>
      </trkpt>
      <trkpt lat="38.54546" lon="-0.82328">
        <ele>477.2</ele>
        <time>2022-10-15 13:20:23</time>
      </trkpt>
      <trkpt lat="38.54546" lon="-0.82323">
        <ele>477.2</ele>
        <time>2022-10-15 13:20:24</time>
      </trkpt>
      <trkpt lat="38.54548" lon="-0.82318">
        <ele>477.2</ele>
        <time>2022-10-15 13:20:25</time>
      </trkpt>
      <trkpt lat="38.5455" lon="-0.82313">
        <ele>477.2</ele>
        <time>2022-10-15 13:20:26</time>
      </trkpt>
      <trkpt lat="38.54551" lon="-0.82308">
        <ele>477.2</ele>
        <time>2022-10-15 13:20:27</time>
      </trkpt>
      <trkpt lat="38.54553" lon="-0.82303">
        <ele>477</ele>
        <time>2022-10-15 13:20:28</time>
      </trkpt>
      <trkpt lat="38.54555" lon="-0.82297">
        <ele>477</ele>
        <time>2022-10-15 13:20:29</time>
      </trkpt>
      <trkpt lat="38.54556" lon="-0.82292">
        <ele>477</ele>
        <time>2022-10-15 13:20:30</time>
      </trkpt>
      <trkpt lat="38.54558" lon="-0.82286">
        <ele>477</ele>
        <time>2022-10-15 13:20:31</time>
      </trkpt>
      <trkpt lat="38.54559" lon="-0.82281">
        <ele>477</ele>
        <time>2022-10-15 13:20:32</time>
      </trkpt>
      <trkpt lat="38.54561" lon="-0.82276">
        <ele>477</ele>
        <time>2022-10-15 13:20:33</time>
      </trkpt>
      <trkpt lat="38.54563" lon="-0.82272">
        <ele>477</ele>
        <time>2022-10-15 13:20:34</time>
      </trkpt>
      <trkpt lat="38.54564" lon="-0.82267">
        <ele>477.2</ele>
        <time>2022-10-15 13:20:35</time>
      </trkpt>
      <trkpt lat="38.54566" lon="-0.82262">
        <ele>477.2</ele>
        <time>2022-10-15 13:20:36</time>
      </trkpt>
      <trkpt lat="38.54568" lon="-0.82257">
        <ele>477.4</ele>
        <time>2022-10-15 13:20:37</time>
      </trkpt>
      <trkpt lat="38.54569" lon="-0.82253">
        <ele>477.6</ele>
        <time>2022-10-15 13:20:38</time>
      </trkpt>
      <trkpt lat="38.54571" lon="-0.82248">
        <ele>477.6</ele>
        <time>2022-10-15 13:20:39</time>
      </trkpt>
      <trkpt lat="38.54573" lon="-0.82243">
        <ele>477.8</ele>
        <time>2022-10-15 13:20:40</time>
      </trkpt>
      <trkpt lat="38.54575" lon="-0.82239">
        <ele>477.8</ele>
        <time>2022-10-15 13:20:41</time>
      </trkpt>
      <trkpt lat="38.54581" lon="-0.8223">
        <ele>477.8</ele>
        <time>2022-10-15 13:20:42</time>
      </trkpt>
      <trkpt lat="38.54581" lon="-0.8223">
        <ele>477.8</ele>
        <time>2022-10-15 13:20:43</time>
      </trkpt>
      <trkpt lat="38.54585" lon="-0.82226">
        <ele>477.8</ele>
        <time>2022-10-15 13:20:44</time>
      </trkpt>
      <trkpt lat="38.54588" lon="-0.82222">
        <ele>477.8</ele>
        <time>2022-10-15 13:20:45</time>
      </trkpt>
      <trkpt lat="38.54592" lon="-0.82218">
        <ele>478</ele>
        <time>2022-10-15 13:20:46</time>
      </trkpt>
      <trkpt lat="38.54596" lon="-0.82213">
        <ele>478</ele>
        <time>2022-10-15 13:20:47</time>
      </trkpt>
      <trkpt lat="38.54599" lon="-0.82209">
        <ele>478</ele>
        <time>2022-10-15 13:20:48</time>
      </trkpt>
      <trkpt lat="38.54602" lon="-0.82204">
        <ele>478</ele>
        <time>2022-10-15 13:20:49</time>
      </trkpt>
      <trkpt lat="38.54604" lon="-0.82198">
        <ele>478</ele>
        <time>2022-10-15 13:20:50</time>
      </trkpt>
      <trkpt lat="38.54604" lon="-0.82186">
        <ele>478</ele>
        <time>2022-10-15 13:20:51</time>
      </trkpt>
      <trkpt lat="38.54604" lon="-0.82186">
        <ele>478</ele>
        <time>2022-10-15 13:20:52</time>
      </trkpt>
      <trkpt lat="38.54601" lon="-0.82181">
        <ele>478</ele>
        <time>2022-10-15 13:20:53</time>
      </trkpt>
      <trkpt lat="38.54598" lon="-0.82177">
        <ele>477.8</ele>
        <time>2022-10-15 13:20:54</time>
      </trkpt>
      <trkpt lat="38.54594" lon="-0.82173">
        <ele>477.8</ele>
        <time>2022-10-15 13:20:55</time>
      </trkpt>
      <trkpt lat="38.54589" lon="-0.82169">
        <ele>477.8</ele>
        <time>2022-10-15 13:20:56</time>
      </trkpt>
      <trkpt lat="38.54585" lon="-0.82165">
        <ele>477.8</ele>
        <time>2022-10-15 13:20:57</time>
      </trkpt>
      <trkpt lat="38.54581" lon="-0.82161">
        <ele>477.8</ele>
        <time>2022-10-15 13:20:58</time>
      </trkpt>
      <trkpt lat="38.54577" lon="-0.82158">
        <ele>477.8</ele>
        <time>2022-10-15 13:20:59</time>
      </trkpt>
      <trkpt lat="38.54572" lon="-0.82154">
        <ele>477.8</ele>
        <time>2022-10-15 13:21:00</time>
      </trkpt>
      <trkpt lat="38.54568" lon="-0.8215">
        <ele>477.6</ele>
        <time>2022-10-15 13:21:01</time>
      </trkpt>
      <trkpt lat="38.54564" lon="-0.82146">
        <ele>477.6</ele>
        <time>2022-10-15 13:21:02</time>
      </trkpt>
      <trkpt lat="38.54559" lon="-0.82142">
        <ele>477.4</ele>
        <time>2022-10-15 13:21:03</time>
      </trkpt>
      <trkpt lat="38.54555" lon="-0.82138">
        <ele>477.4</ele>
        <time>2022-10-15 13:21:04</time>
      </trkpt>
      <trkpt lat="38.54547" lon="-0.82131">
        <ele>477.2</ele>
        <time>2022-10-15 13:21:05</time>
      </trkpt>
      <trkpt lat="38.54547" lon="-0.82131">
        <ele>477</ele>
        <time>2022-10-15 13:21:06</time>
      </trkpt>
      <trkpt lat="38.54543" lon="-0.82127">
        <ele>477</ele>
        <time>2022-10-15 13:21:07</time>
      </trkpt>
      <trkpt lat="38.54539" lon="-0.82123">
        <ele>477</ele>
        <time>2022-10-15 13:21:08</time>
      </trkpt>
      <trkpt lat="38.54534" lon="-0.82119">
        <ele>476.8</ele>
        <time>2022-10-15 13:21:09</time>
      </trkpt>
      <trkpt lat="38.5453" lon="-0.82116">
        <ele>477</ele>
        <time>2022-10-15 13:21:10</time>
      </trkpt>
      <trkpt lat="38.54525" lon="-0.82112">
        <ele>477</ele>
        <time>2022-10-15 13:21:11</time>
      </trkpt>
      <trkpt lat="38.54521" lon="-0.82108">
        <ele>476.8</ele>
        <time>2022-10-15 13:21:12</time>
      </trkpt>
      <trkpt lat="38.54517" lon="-0.82105">
        <ele>476.8</ele>
        <time>2022-10-15 13:21:13</time>
      </trkpt>
      <trkpt lat="38.54513" lon="-0.82101">
        <ele>476.8</ele>
        <time>2022-10-15 13:21:14</time>
      </trkpt>
      <trkpt lat="38.54508" lon="-0.82098">
        <ele>476.8</ele>
        <time>2022-10-15 13:21:15</time>
      </trkpt>
      <trkpt lat="38.54504" lon="-0.82095">
        <ele>477</ele>
        <time>2022-10-15 13:21:16</time>
      </trkpt>
      <trkpt lat="38.545" lon="-0.82091">
        <ele>477</ele>
        <time>2022-10-15 13:21:17</time>
      </trkpt>
      <trkpt lat="38.54496" lon="-0.82088">
        <ele>477</ele>
        <time>2022-10-15 13:21:18</time>
      </trkpt>
      <trkpt lat="38.54492" lon="-0.82084">
        <ele>477</ele>
        <time>2022-10-15 13:21:19</time>
      </trkpt>
      <trkpt lat="38.54488" lon="-0.82081">
        <ele>477</ele>
        <time>2022-10-15 13:21:20</time>
      </trkpt>
      <trkpt lat="38.54484" lon="-0.82077">
        <ele>477</ele>
        <time>2022-10-15 13:21:21</time>
      </trkpt>
      <trkpt lat="38.54479" lon="-0.82074">
        <ele>477</ele>
        <time>2022-10-15 13:21:22</time>
      </trkpt>
      <trkpt lat="38.54475" lon="-0.8207">
        <ele>477</ele>
        <time>2022-10-15 13:21:23</time>
      </trkpt>
      <trkpt lat="38.54467" lon="-0.82064">
        <ele>477</ele>
        <time>2022-10-15 13:21:24</time>
      </trkpt>
      <trkpt lat="38.54463" lon="-0.82061">
        <ele>477</ele>
        <time>2022-10-15 13:21:25</time>
      </trkpt>
      <trkpt lat="38.54463" lon="-0.82061">
        <ele>477</ele>
        <time>2022-10-15 13:21:26</time>
      </trkpt>
      <trkpt lat="38.54454" lon="-0.82055">
        <ele>477</ele>
        <time>2022-10-15 13:21:27</time>
      </trkpt>
      <trkpt lat="38.5445" lon="-0.82051">
        <ele>477</ele>
        <time>2022-10-15 13:21:28</time>
      </trkpt>
      <trkpt lat="38.54446" lon="-0.82048">
        <ele>477</ele>
        <time>2022-10-15 13:21:29</time>
      </trkpt>
      <trkpt lat="38.54441" lon="-0.82045">
        <ele>477</ele>
        <time>2022-10-15 13:21:30</time>
      </trkpt>
      <trkpt lat="38.54437" lon="-0.82041">
        <ele>477</ele>
        <time>2022-10-15 13:21:31</time>
      </trkpt>
      <trkpt lat="38.54437" lon="-0.82041">
        <ele>477</ele>
        <time>2022-10-15 13:21:32</time>
      </trkpt>
      <trkpt lat="38.54427" lon="-0.82034">
        <ele>477</ele>
        <time>2022-10-15 13:21:33</time>
      </trkpt>
      <trkpt lat="38.54423" lon="-0.82031">
        <ele>476.8</ele>
        <time>2022-10-15 13:21:34</time>
      </trkpt>
      <trkpt lat="38.54418" lon="-0.82027">
        <ele>476.8</ele>
        <time>2022-10-15 13:21:35</time>
      </trkpt>
      <trkpt lat="38.54413" lon="-0.82024">
        <ele>476.8</ele>
        <time>2022-10-15 13:21:36</time>
      </trkpt>
      <trkpt lat="38.54409" lon="-0.82021">
        <ele>476.6</ele>
        <time>2022-10-15 13:21:37</time>
      </trkpt>
      <trkpt lat="38.54409" lon="-0.82021">
        <ele>476.4</ele>
        <time>2022-10-15 13:21:38</time>
      </trkpt>
      <trkpt lat="38.544" lon="-0.82016">
        <ele>476.2</ele>
        <time>2022-10-15 13:21:39</time>
      </trkpt>
      <trkpt lat="38.54396" lon="-0.82013">
        <ele>476</ele>
        <time>2022-10-15 13:21:40</time>
      </trkpt>
      <trkpt lat="38.54391" lon="-0.8201">
        <ele>476</ele>
        <time>2022-10-15 13:21:41</time>
      </trkpt>
      <trkpt lat="38.54387" lon="-0.82007">
        <ele>475.8</ele>
        <time>2022-10-15 13:21:42</time>
      </trkpt>
      <trkpt lat="38.54382" lon="-0.82005">
        <ele>475.8</ele>
        <time>2022-10-15 13:21:43</time>
      </trkpt>
      <trkpt lat="38.54382" lon="-0.82005">
        <ele>475.8</ele>
        <time>2022-10-15 13:21:44</time>
      </trkpt>
      <trkpt lat="38.54374" lon="-0.81999">
        <ele>475.6</ele>
        <time>2022-10-15 13:21:45</time>
      </trkpt>
      <trkpt lat="38.5437" lon="-0.81997">
        <ele>475.6</ele>
        <time>2022-10-15 13:21:46</time>
      </trkpt>
      <trkpt lat="38.54366" lon="-0.81993">
        <ele>475.6</ele>
        <time>2022-10-15 13:21:47</time>
      </trkpt>
      <trkpt lat="38.54361" lon="-0.8199">
        <ele>475.6</ele>
        <time>2022-10-15 13:21:48</time>
      </trkpt>
      <trkpt lat="38.54357" lon="-0.81987">
        <ele>475.6</ele>
        <time>2022-10-15 13:21:49</time>
      </trkpt>
      <trkpt lat="38.54357" lon="-0.81987">
        <ele>475.6</ele>
        <time>2022-10-15 13:21:50</time>
      </trkpt>
      <trkpt lat="38.54348" lon="-0.8198">
        <ele>475.6</ele>
        <time>2022-10-15 13:21:51</time>
      </trkpt>
      <trkpt lat="38.54344" lon="-0.81978">
        <ele>475.6</ele>
        <time>2022-10-15 13:21:52</time>
      </trkpt>
      <trkpt lat="38.5434" lon="-0.81975">
        <ele>475.6</ele>
        <time>2022-10-15 13:21:53</time>
      </trkpt>
      <trkpt lat="38.54336" lon="-0.81972">
        <ele>475.6</ele>
        <time>2022-10-15 13:21:54</time>
      </trkpt>
      <trkpt lat="38.54332" lon="-0.81969">
        <ele>475.6</ele>
        <time>2022-10-15 13:21:55</time>
      </trkpt>
      <trkpt lat="38.54332" lon="-0.81969">
        <ele>475.6</ele>
        <time>2022-10-15 13:21:56</time>
      </trkpt>
      <trkpt lat="38.54325" lon="-0.81962">
        <ele>475.6</ele>
        <time>2022-10-15 13:21:57</time>
      </trkpt>
      <trkpt lat="38.54322" lon="-0.81958">
        <ele>475.6</ele>
        <time>2022-10-15 13:21:58</time>
      </trkpt>
      <trkpt lat="38.54318" lon="-0.81954">
        <ele>475.6</ele>
        <time>2022-10-15 13:21:59</time>
      </trkpt>
      <trkpt lat="38.54313" lon="-0.8195">
        <ele>475.6</ele>
        <time>2022-10-15 13:22:00</time>
      </trkpt>
      <trkpt lat="38.54308" lon="-0.81947">
        <ele>475.6</ele>
        <time>2022-10-15 13:22:01</time>
      </trkpt>
      <trkpt lat="38.54308" lon="-0.81947">
        <ele>475.4</ele>
        <time>2022-10-15 13:22:02</time>
      </trkpt>
      <trkpt lat="38.54296" lon="-0.81946">
        <ele>475.4</ele>
        <time>2022-10-15 13:22:03</time>
      </trkpt>
      <trkpt lat="38.54291" lon="-0.81946">
        <ele>475.2</ele>
        <time>2022-10-15 13:22:04</time>
      </trkpt>
      <trkpt lat="38.54285" lon="-0.81947">
        <ele>475.2</ele>
        <time>2022-10-15 13:22:05</time>
      </trkpt>
      <trkpt lat="38.5428" lon="-0.81947">
        <ele>475</ele>
        <time>2022-10-15 13:22:06</time>
      </trkpt>
      <trkpt lat="38.54275" lon="-0.81948">
        <ele>475</ele>
        <time>2022-10-15 13:22:07</time>
      </trkpt>
      <trkpt lat="38.54275" lon="-0.81948">
        <ele>474.8</ele>
        <time>2022-10-15 13:22:08</time>
      </trkpt>
      <trkpt lat="38.54266" lon="-0.81948">
        <ele>474.6</ele>
        <time>2022-10-15 13:22:09</time>
      </trkpt>
      <trkpt lat="38.54261" lon="-0.81947">
        <ele>474.4</ele>
        <time>2022-10-15 13:22:10</time>
      </trkpt>
      <trkpt lat="38.54256" lon="-0.81946">
        <ele>474.4</ele>
        <time>2022-10-15 13:22:11</time>
      </trkpt>
      <trkpt lat="38.54252" lon="-0.81946">
        <ele>474.4</ele>
        <time>2022-10-15 13:22:12</time>
      </trkpt>
      <trkpt lat="38.54247" lon="-0.81945">
        <ele>474.4</ele>
        <time>2022-10-15 13:22:13</time>
      </trkpt>
      <trkpt lat="38.54247" lon="-0.81945">
        <ele>474.4</ele>
        <time>2022-10-15 13:22:14</time>
      </trkpt>
      <trkpt lat="38.54237" lon="-0.81942">
        <ele>474.4</ele>
        <time>2022-10-15 13:22:15</time>
      </trkpt>
      <trkpt lat="38.54233" lon="-0.81941">
        <ele>474.2</ele>
        <time>2022-10-15 13:22:16</time>
      </trkpt>
      <trkpt lat="38.54228" lon="-0.81939">
        <ele>474.2</ele>
        <time>2022-10-15 13:22:17</time>
      </trkpt>
      <trkpt lat="38.54223" lon="-0.81938">
        <ele>474.2</ele>
        <time>2022-10-15 13:22:18</time>
      </trkpt>
      <trkpt lat="38.54218" lon="-0.81936">
        <ele>474.2</ele>
        <time>2022-10-15 13:22:19</time>
      </trkpt>
      <trkpt lat="38.54218" lon="-0.81936">
        <ele>474.2</ele>
        <time>2022-10-15 13:22:20</time>
      </trkpt>
      <trkpt lat="38.54209" lon="-0.81931">
        <ele>474.2</ele>
        <time>2022-10-15 13:22:21</time>
      </trkpt>
      <trkpt lat="38.54205" lon="-0.81928">
        <ele>474.2</ele>
        <time>2022-10-15 13:22:22</time>
      </trkpt>
      <trkpt lat="38.54201" lon="-0.81924">
        <ele>474.2</ele>
        <time>2022-10-15 13:22:23</time>
      </trkpt>
      <trkpt lat="38.54195" lon="-0.81913">
        <ele>474.2</ele>
        <time>2022-10-15 13:22:24</time>
      </trkpt>
      <trkpt lat="38.5419" lon="-0.81901">
        <ele>474.2</ele>
        <time>2022-10-15 13:22:25</time>
      </trkpt>
      <trkpt lat="38.54187" lon="-0.81888">
        <ele>474</ele>
        <time>2022-10-15 13:22:26</time>
      </trkpt>
      <trkpt lat="38.54185" lon="-0.81882">
        <ele>474</ele>
        <time>2022-10-15 13:22:27</time>
      </trkpt>
      <trkpt lat="38.54184" lon="-0.81875">
        <ele>474</ele>
        <time>2022-10-15 13:22:28</time>
      </trkpt>
      <trkpt lat="38.5418" lon="-0.81864">
        <ele>473.8</ele>
        <time>2022-10-15 13:22:31</time>
      </trkpt>
      <trkpt lat="38.54178" lon="-0.81859">
        <ele>473.6</ele>
        <time>2022-10-15 13:22:32</time>
      </trkpt>
      <trkpt lat="38.54176" lon="-0.81855">
        <ele>473.6</ele>
        <time>2022-10-15 13:22:34</time>
      </trkpt>
      <trkpt lat="38.54172" lon="-0.81848">
        <ele>473.6</ele>
        <time>2022-10-15 13:22:35</time>
      </trkpt>
      <trkpt lat="38.54172" lon="-0.81848">
        <ele>473.6</ele>
        <time>2022-10-15 13:22:37</time>
      </trkpt>
      <trkpt lat="38.54169" lon="-0.81843">
        <ele>473.6</ele>
        <time>2022-10-15 13:22:38</time>
      </trkpt>
      <trkpt lat="38.54168" lon="-0.81841">
        <ele>473.6</ele>
        <time>2022-10-15 13:22:39</time>
      </trkpt>
      <trkpt lat="38.54167" lon="-0.81838">
        <ele>473.6</ele>
        <time>2022-10-15 13:22:40</time>
      </trkpt>
      <trkpt lat="38.54165" lon="-0.81836">
        <ele>473.6</ele>
        <time>2022-10-15 13:22:42</time>
      </trkpt>
      <trkpt lat="38.54164" lon="-0.81834">
        <ele>473.8</ele>
        <time>2022-10-15 13:22:43</time>
      </trkpt>
      <trkpt lat="38.54164" lon="-0.81834">
        <ele>473.6</ele>
        <time>2022-10-15 13:22:44</time>
      </trkpt>
      <trkpt lat="38.54161" lon="-0.81827">
        <ele>474</ele>
        <time>2022-10-15 13:22:45</time>
      </trkpt>
      <trkpt lat="38.5416" lon="-0.81825">
        <ele>474</ele>
        <time>2022-10-15 13:22:46</time>
      </trkpt>
      <trkpt lat="38.54159" lon="-0.81823">
        <ele>474</ele>
        <time>2022-10-15 13:22:47</time>
      </trkpt>
      <trkpt lat="38.54159" lon="-0.81823">
        <ele>474.2</ele>
        <time>2022-10-15 13:22:48</time>
      </trkpt>
      <trkpt lat="38.54158" lon="-0.81822">
        <ele>474.2</ele>
        <time>2022-10-15 13:22:49</time>
      </trkpt>
      <trkpt lat="38.54157" lon="-0.8182">
        <ele>474.2</ele>
        <time>2022-10-15 13:22:51</time>
      </trkpt>
      <trkpt lat="38.54156" lon="-0.81817">
        <ele>474.2</ele>
        <time>2022-10-15 13:22:52</time>
      </trkpt>
      <trkpt lat="38.54155" lon="-0.81816">
        <ele>474.2</ele>
        <time>2022-10-15 13:22:53</time>
      </trkpt>
      <trkpt lat="38.54155" lon="-0.81816">
        <ele>474.2</ele>
        <time>2022-10-15 13:22:54</time>
      </trkpt>
      <trkpt lat="38.54154" lon="-0.81814">
        <ele>474.2</ele>
        <time>2022-10-15 13:22:55</time>
      </trkpt>
      <trkpt lat="38.54153" lon="-0.81813">
        <ele>474.2</ele>
        <time>2022-10-15 13:22:56</time>
      </trkpt>
      <trkpt lat="38.54153" lon="-0.81813">
        <ele>474.2</ele>
        <time>2022-10-15 13:22:58</time>
      </trkpt>
      <trkpt lat="38.54151" lon="-0.81806">
        <ele>474.6</ele>
        <time>2022-10-15 13:23:00</time>
      </trkpt>
      <trkpt lat="38.54151" lon="-0.81806">
        <ele>474.8</ele>
        <time>2022-10-15 13:23:01</time>
      </trkpt>
      <trkpt lat="38.54151" lon="-0.81801">
        <ele>474.8</ele>
        <time>2022-10-15 13:23:02</time>
      </trkpt>
      <trkpt lat="38.54151" lon="-0.81798">
        <ele>474.8</ele>
        <time>2022-10-15 13:23:03</time>
      </trkpt>
      <trkpt lat="38.54151" lon="-0.81795">
        <ele>475</ele>
        <time>2022-10-15 13:23:05</time>
      </trkpt>
      <trkpt lat="38.5415" lon="-0.81792">
        <ele>475</ele>
        <time>2022-10-15 13:27:36</time>
      </trkpt>
      <trkpt lat="38.5415" lon="-0.81789">
        <ele>475</ele>
        <time>2022-10-15 13:27:37</time>
      </trkpt>
      <trkpt lat="38.5415" lon="-0.81789">
        <ele>475</ele>
        <time>2022-10-15 13:27:38</time>
      </trkpt>
      <trkpt lat="38.5415" lon="-0.81782">
        <ele>475</ele>
        <time>2022-10-15 13:27:39</time>
      </trkpt>
      <trkpt lat="38.54149" lon="-0.81779">
        <ele>475</ele>
        <time>2022-10-15 13:27:40</time>
      </trkpt>
      <trkpt lat="38.54148" lon="-0.81768">
        <ele>475</ele>
        <time>2022-10-15 13:27:41</time>
      </trkpt>
      <trkpt lat="38.54146" lon="-0.81761">
        <ele>475</ele>
        <time>2022-10-15 13:27:42</time>
      </trkpt>
      <trkpt lat="38.54146" lon="-0.81757">
        <ele>475</ele>
        <time>2022-10-15 13:27:43</time>
      </trkpt>
      <trkpt lat="38.54144" lon="-0.81751">
        <ele>475</ele>
        <time>2022-10-15 13:27:44</time>
      </trkpt>
      <trkpt lat="38.54143" lon="-0.81748">
        <ele>475</ele>
        <time>2022-10-15 13:27:45</time>
      </trkpt>
      <trkpt lat="38.5414" lon="-0.81738">
        <ele>475.2</ele>
        <time>2022-10-15 13:27:49</time>
      </trkpt>
      <trkpt lat="38.54138" lon="-0.81735">
        <ele>475.4</ele>
        <time>2022-10-15 13:27:50</time>
      </trkpt>
      <trkpt lat="38.54137" lon="-0.81733">
        <ele>475.6</ele>
        <time>2022-10-15 13:27:51</time>
      </trkpt>
      <trkpt lat="38.54132" lon="-0.81729">
        <ele>476</ele>
        <time>2022-10-15 13:27:53</time>
      </trkpt>
      <trkpt lat="38.5413" lon="-0.81729">
        <ele>476.2</ele>
        <time>2022-10-15 13:27:54</time>
      </trkpt>
      <trkpt lat="38.54126" lon="-0.81728">
        <ele>476.6</ele>
        <time>2022-10-15 13:27:57</time>
      </trkpt>
      <trkpt lat="38.54126" lon="-0.81728">
        <ele>476.8</ele>
        <time>2022-10-15 13:27:58</time>
      </trkpt>
      <trkpt lat="38.54122" lon="-0.81726">
        <ele>477.2</ele>
        <time>2022-10-15 13:27:59</time>
      </trkpt>
      <trkpt lat="38.54121" lon="-0.81724">
        <ele>477.4</ele>
        <time>2022-10-15 13:28:02</time>
      </trkpt>
      <trkpt lat="38.5412" lon="-0.8172">
        <ele>477.6</ele>
        <time>2022-10-15 13:28:03</time>
      </trkpt>
      <trkpt lat="38.5412" lon="-0.8171">
        <ele>477.6</ele>
        <time>2022-10-15 13:28:06</time>
      </trkpt>
      <trkpt lat="38.5412" lon="-0.8171">
        <ele>477.6</ele>
        <time>2022-10-15 13:28:07</time>
      </trkpt>
      <trkpt lat="38.5412" lon="-0.81699">
        <ele>477.6</ele>
        <time>2022-10-15 13:28:08</time>
      </trkpt>
      <trkpt lat="38.54123" lon="-0.81678">
        <ele>477.6</ele>
        <time>2022-10-15 13:28:09</time>
      </trkpt>
      <trkpt lat="38.54124" lon="-0.81671">
        <ele>477.6</ele>
        <time>2022-10-15 13:28:10</time>
      </trkpt>
      <trkpt lat="38.54124" lon="-0.81671">
        <ele>477.6</ele>
        <time>2022-10-15 13:28:12</time>
      </trkpt>
      <trkpt lat="38.54126" lon="-0.81646">
        <ele>477.2</ele>
        <time>2022-10-15 13:28:13</time>
      </trkpt>
      <trkpt lat="38.54127" lon="-0.81637">
        <ele>476.8</ele>
        <time>2022-10-15 13:28:14</time>
      </trkpt>
      <trkpt lat="38.54127" lon="-0.81629">
        <ele>476.4</ele>
        <time>2022-10-15 13:28:17</time>
      </trkpt>
      <trkpt lat="38.54128" lon="-0.8162">
        <ele>476</ele>
        <time>2022-10-15 13:28:18</time>
      </trkpt>
      <trkpt lat="38.54128" lon="-0.8162">
        <ele>475.6</ele>
        <time>2022-10-15 13:28:19</time>
      </trkpt>
      <trkpt lat="38.54129" lon="-0.81607">
        <ele>475</ele>
        <time>2022-10-15 13:28:21</time>
      </trkpt>
      <trkpt lat="38.54129" lon="-0.81602">
        <ele>474.8</ele>
        <time>2022-10-15 13:28:22</time>
      </trkpt>
      <trkpt lat="38.54128" lon="-0.81598">
        <ele>474.4</ele>
        <time>2022-10-15 13:28:23</time>
      </trkpt>
      <trkpt lat="38.54128" lon="-0.81594">
        <ele>474</ele>
        <time>2022-10-15 13:28:24</time>
      </trkpt>
      <trkpt lat="38.54128" lon="-0.8159">
        <ele>473.8</ele>
        <time>2022-10-15 13:28:25</time>
      </trkpt>
      <trkpt lat="38.54128" lon="-0.8159">
        <ele>473.2</ele>
        <time>2022-10-15 13:28:26</time>
      </trkpt>
      <trkpt lat="38.54127" lon="-0.81583">
        <ele>473</ele>
        <time>2022-10-15 13:28:27</time>
      </trkpt>
      <trkpt lat="38.54127" lon="-0.8158">
        <ele>472.8</ele>
        <time>2022-10-15 13:28:28</time>
      </trkpt>
      <trkpt lat="38.54126" lon="-0.81576">
        <ele>472.8</ele>
        <time>2022-10-15 13:28:29</time>
      </trkpt>
      <trkpt lat="38.54124" lon="-0.81572">
        <ele>472.6</ele>
        <time>2022-10-15 13:28:30</time>
      </trkpt>
      <trkpt lat="38.54122" lon="-0.81568">
        <ele>472.6</ele>
        <time>2022-10-15 13:28:31</time>
      </trkpt>
      <trkpt lat="38.54122" lon="-0.81568">
        <ele>472.4</ele>
        <time>2022-10-15 13:28:32</time>
      </trkpt>
      <trkpt lat="38.54118" lon="-0.81561">
        <ele>472.4</ele>
        <time>2022-10-15 13:28:33</time>
      </trkpt>
      <trkpt lat="38.54116" lon="-0.81557">
        <ele>472.4</ele>
        <time>2022-10-15 13:28:34</time>
      </trkpt>
      <trkpt lat="38.54115" lon="-0.81553">
        <ele>472.2</ele>
        <time>2022-10-15 13:28:35</time>
      </trkpt>
      <trkpt lat="38.54113" lon="-0.81549">
        <ele>472.2</ele>
        <time>2022-10-15 13:28:36</time>
      </trkpt>
      <trkpt lat="38.54112" lon="-0.81545">
        <ele>472</ele>
        <time>2022-10-15 13:28:37</time>
      </trkpt>
      <trkpt lat="38.54112" lon="-0.81545">
        <ele>471.8</ele>
        <time>2022-10-15 13:28:38</time>
      </trkpt>
      <trkpt lat="38.54108" lon="-0.81537">
        <ele>471.6</ele>
        <time>2022-10-15 13:28:39</time>
      </trkpt>
      <trkpt lat="38.54104" lon="-0.81528">
        <ele>471.4</ele>
        <time>2022-10-15 13:28:40</time>
      </trkpt>
      <trkpt lat="38.54102" lon="-0.81523">
        <ele>471.4</ele>
        <time>2022-10-15 13:28:41</time>
      </trkpt>
      <trkpt lat="38.54101" lon="-0.81518">
        <ele>471.2</ele>
        <time>2022-10-15 13:28:42</time>
      </trkpt>
      <trkpt lat="38.54101" lon="-0.81518">
        <ele>471</ele>
        <time>2022-10-15 13:28:43</time>
      </trkpt>
      <trkpt lat="38.54101" lon="-0.81511">
        <ele>471</ele>
        <time>2022-10-15 13:28:44</time>
      </trkpt>
      <trkpt lat="38.54101" lon="-0.81507">
        <ele>471</ele>
        <time>2022-10-15 13:28:46</time>
      </trkpt>
      <trkpt lat="38.54102" lon="-0.81503">
        <ele>470.8</ele>
        <time>2022-10-15 13:28:47</time>
      </trkpt>
      <trkpt lat="38.54102" lon="-0.81499">
        <ele>470.4</ele>
        <time>2022-10-15 13:28:48</time>
      </trkpt>
      <trkpt lat="38.54103" lon="-0.81495">
        <ele>470.2</ele>
        <time>2022-10-15 13:28:49</time>
      </trkpt>
      <trkpt lat="38.54103" lon="-0.81495">
        <ele>470</ele>
        <time>2022-10-15 13:28:50</time>
      </trkpt>
      <trkpt lat="38.54103" lon="-0.81483">
        <ele>469.8</ele>
        <time>2022-10-15 13:28:51</time>
      </trkpt>
      <trkpt lat="38.54103" lon="-0.81476">
        <ele>469.8</ele>
        <time>2022-10-15 13:28:52</time>
      </trkpt>
      <trkpt lat="38.54102" lon="-0.81469">
        <ele>469.6</ele>
        <time>2022-10-15 13:28:53</time>
      </trkpt>
      <trkpt lat="38.54101" lon="-0.81462">
        <ele>469.6</ele>
        <time>2022-10-15 13:28:54</time>
      </trkpt>
      <trkpt lat="38.54099" lon="-0.81455">
        <ele>469.6</ele>
        <time>2022-10-15 13:28:55</time>
      </trkpt>
      <trkpt lat="38.54099" lon="-0.81455">
        <ele>469.4</ele>
        <time>2022-10-15 13:28:56</time>
      </trkpt>
      <trkpt lat="38.54096" lon="-0.81441">
        <ele>469.2</ele>
        <time>2022-10-15 13:28:57</time>
      </trkpt>
      <trkpt lat="38.54093" lon="-0.81435">
        <ele>468.6</ele>
        <time>2022-10-15 13:28:58</time>
      </trkpt>
      <trkpt lat="38.54091" lon="-0.81429">
        <ele>467.8</ele>
        <time>2022-10-15 13:28:59</time>
      </trkpt>
      <trkpt lat="38.54088" lon="-0.81423">
        <ele>467</ele>
        <time>2022-10-15 13:29:00</time>
      </trkpt>
      <trkpt lat="38.54085" lon="-0.81417">
        <ele>466.4</ele>
        <time>2022-10-15 13:29:01</time>
      </trkpt>
      <trkpt lat="38.54085" lon="-0.81417">
        <ele>465.8</ele>
        <time>2022-10-15 13:29:02</time>
      </trkpt>
      <trkpt lat="38.54078" lon="-0.81405">
        <ele>465.2</ele>
        <time>2022-10-15 13:29:03</time>
      </trkpt>
      <trkpt lat="38.54075" lon="-0.81399">
        <ele>464.8</ele>
        <time>2022-10-15 13:29:04</time>
      </trkpt>
      <trkpt lat="38.54072" lon="-0.81394">
        <ele>464.6</ele>
        <time>2022-10-15 13:29:05</time>
      </trkpt>
      <trkpt lat="38.54069" lon="-0.81389">
        <ele>464.4</ele>
        <time>2022-10-15 13:29:06</time>
      </trkpt>
      <trkpt lat="38.54067" lon="-0.81384">
        <ele>464.2</ele>
        <time>2022-10-15 13:29:07</time>
      </trkpt>
      <trkpt lat="38.54067" lon="-0.81384">
        <ele>464</ele>
        <time>2022-10-15 13:29:08</time>
      </trkpt>
      <trkpt lat="38.54061" lon="-0.81373">
        <ele>463.8</ele>
        <time>2022-10-15 13:29:09</time>
      </trkpt>
      <trkpt lat="38.54061" lon="-0.81373">
        <ele>463.6</ele>
        <time>2022-10-15 13:29:10</time>
      </trkpt>
      <trkpt lat="38.54055" lon="-0.81364">
        <ele>463.4</ele>
        <time>2022-10-15 13:29:11</time>
      </trkpt>
      <trkpt lat="38.54052" lon="-0.81359">
        <ele>463.4</ele>
        <time>2022-10-15 13:29:12</time>
      </trkpt>
      <trkpt lat="38.54048" lon="-0.81354">
        <ele>463.4</ele>
        <time>2022-10-15 13:29:13</time>
      </trkpt>
      <trkpt lat="38.54048" lon="-0.81354">
        <ele>463.2</ele>
        <time>2022-10-15 13:29:14</time>
      </trkpt>
      <trkpt lat="38.5404" lon="-0.81346">
        <ele>463.2</ele>
        <time>2022-10-15 13:29:15</time>
      </trkpt>
      <trkpt lat="38.54035" lon="-0.81342">
        <ele>463.2</ele>
        <time>2022-10-15 13:29:16</time>
      </trkpt>
      <trkpt lat="38.54032" lon="-0.81338">
        <ele>463.2</ele>
        <time>2022-10-15 13:29:17</time>
      </trkpt>
      <trkpt lat="38.54028" lon="-0.81333">
        <ele>463.2</ele>
        <time>2022-10-15 13:29:18</time>
      </trkpt>
      <trkpt lat="38.54025" lon="-0.81329">
        <ele>463.2</ele>
        <time>2022-10-15 13:29:19</time>
      </trkpt>
      <trkpt lat="38.54025" lon="-0.81329">
        <ele>463.2</ele>
        <time>2022-10-15 13:29:20</time>
      </trkpt>
      <trkpt lat="38.54018" lon="-0.81321">
        <ele>463.2</ele>
        <time>2022-10-15 13:29:21</time>
      </trkpt>
      <trkpt lat="38.54018" lon="-0.81321">
        <ele>463.2</ele>
        <time>2022-10-15 13:29:22</time>
      </trkpt>
      <trkpt lat="38.5401" lon="-0.81317">
        <ele>463.4</ele>
        <time>2022-10-15 13:29:23</time>
      </trkpt>
      <trkpt lat="38.54005" lon="-0.81315">
        <ele>463.4</ele>
        <time>2022-10-15 13:29:24</time>
      </trkpt>
      <trkpt lat="38.54" lon="-0.81314">
        <ele>463.4</ele>
        <time>2022-10-15 13:29:25</time>
      </trkpt>
      <trkpt lat="38.54" lon="-0.81314">
        <ele>463.4</ele>
        <time>2022-10-15 13:29:26</time>
      </trkpt>
      <trkpt lat="38.5399" lon="-0.8131">
        <ele>463.4</ele>
        <time>2022-10-15 13:29:27</time>
      </trkpt>
      <trkpt lat="38.53985" lon="-0.81308">
        <ele>463.4</ele>
        <time>2022-10-15 13:29:28</time>
      </trkpt>
      <trkpt lat="38.5398" lon="-0.81306">
        <ele>463.6</ele>
        <time>2022-10-15 13:29:29</time>
      </trkpt>
      <trkpt lat="38.53975" lon="-0.81305">
        <ele>463.6</ele>
        <time>2022-10-15 13:29:30</time>
      </trkpt>
      <trkpt lat="38.5397" lon="-0.81303">
        <ele>463.6</ele>
        <time>2022-10-15 13:29:31</time>
      </trkpt>
      <trkpt lat="38.5397" lon="-0.81303">
        <ele>463.6</ele>
        <time>2022-10-15 13:29:32</time>
      </trkpt>
      <trkpt lat="38.5396" lon="-0.813">
        <ele>463.6</ele>
        <time>2022-10-15 13:29:33</time>
      </trkpt>
      <trkpt lat="38.5396" lon="-0.813">
        <ele>463.6</ele>
        <time>2022-10-15 13:29:34</time>
      </trkpt>
      <trkpt lat="38.53949" lon="-0.81298">
        <ele>463.6</ele>
        <time>2022-10-15 13:29:35</time>
      </trkpt>
      <trkpt lat="38.53944" lon="-0.81297">
        <ele>463.6</ele>
        <time>2022-10-15 13:29:36</time>
      </trkpt>
      <trkpt lat="38.53939" lon="-0.81297">
        <ele>463.2</ele>
        <time>2022-10-15 13:29:37</time>
      </trkpt>
      <trkpt lat="38.53939" lon="-0.81297">
        <ele>463.2</ele>
        <time>2022-10-15 13:29:38</time>
      </trkpt>
      <trkpt lat="38.53928" lon="-0.813">
        <ele>463.2</ele>
        <time>2022-10-15 13:29:39</time>
      </trkpt>
      <trkpt lat="38.53923" lon="-0.81302">
        <ele>463</ele>
        <time>2022-10-15 13:29:40</time>
      </trkpt>
      <trkpt lat="38.53919" lon="-0.81304">
        <ele>463.2</ele>
        <time>2022-10-15 13:29:41</time>
      </trkpt>
      <trkpt lat="38.53914" lon="-0.81307">
        <ele>463</ele>
        <time>2022-10-15 13:29:42</time>
      </trkpt>
      <trkpt lat="38.53909" lon="-0.81309">
        <ele>463</ele>
        <time>2022-10-15 13:29:43</time>
      </trkpt>
      <trkpt lat="38.53909" lon="-0.81309">
        <ele>463</ele>
        <time>2022-10-15 13:29:44</time>
      </trkpt>
      <trkpt lat="38.539" lon="-0.81315">
        <ele>462.4</ele>
        <time>2022-10-15 13:29:45</time>
      </trkpt>
      <trkpt lat="38.53896" lon="-0.81318">
        <ele>462</ele>
        <time>2022-10-15 13:29:46</time>
      </trkpt>
      <trkpt lat="38.53891" lon="-0.8132">
        <ele>461.8</ele>
        <time>2022-10-15 13:29:47</time>
      </trkpt>
      <trkpt lat="38.53887" lon="-0.81323">
        <ele>461.6</ele>
        <time>2022-10-15 13:29:48</time>
      </trkpt>
      <trkpt lat="38.53883" lon="-0.81327">
        <ele>461.6</ele>
        <time>2022-10-15 13:29:49</time>
      </trkpt>
      <trkpt lat="38.53883" lon="-0.81327">
        <ele>461.6</ele>
        <time>2022-10-15 13:29:50</time>
      </trkpt>
      <trkpt lat="38.53874" lon="-0.81333">
        <ele>461.6</ele>
        <time>2022-10-15 13:29:51</time>
      </trkpt>
      <trkpt lat="38.5387" lon="-0.81337">
        <ele>461.6</ele>
        <time>2022-10-15 13:29:52</time>
      </trkpt>
      <trkpt lat="38.53866" lon="-0.81341">
        <ele>461.6</ele>
        <time>2022-10-15 13:29:53</time>
      </trkpt>
      <trkpt lat="38.53862" lon="-0.81345">
        <ele>461.6</ele>
        <time>2022-10-15 13:29:54</time>
      </trkpt>
      <trkpt lat="38.53858" lon="-0.81349">
        <ele>461.6</ele>
        <time>2022-10-15 13:29:55</time>
      </trkpt>
      <trkpt lat="38.53851" lon="-0.81358">
        <ele>461.6</ele>
        <time>2022-10-15 13:29:56</time>
      </trkpt>
      <trkpt lat="38.53848" lon="-0.81362">
        <ele>461.6</ele>
        <time>2022-10-15 13:29:57</time>
      </trkpt>
      <trkpt lat="38.53845" lon="-0.81368">
        <ele>461.6</ele>
        <time>2022-10-15 13:29:58</time>
      </trkpt>
      <trkpt lat="38.53841" lon="-0.81373">
        <ele>461.6</ele>
        <time>2022-10-15 13:29:59</time>
      </trkpt>
      <trkpt lat="38.53838" lon="-0.81378">
        <ele>461.6</ele>
        <time>2022-10-15 13:30:00</time>
      </trkpt>
      <trkpt lat="38.53832" lon="-0.81387">
        <ele>461.8</ele>
        <time>2022-10-15 13:30:02</time>
      </trkpt>
      <trkpt lat="38.53827" lon="-0.81396">
        <ele>461.8</ele>
        <time>2022-10-15 13:30:03</time>
      </trkpt>
      <trkpt lat="38.53823" lon="-0.81403">
        <ele>461.8</ele>
        <time>2022-10-15 13:30:04</time>
      </trkpt>
      <trkpt lat="38.53823" lon="-0.81403">
        <ele>462</ele>
        <time>2022-10-15 13:30:05</time>
      </trkpt>
      <trkpt lat="38.5382" lon="-0.81407">
        <ele>462</ele>
        <time>2022-10-15 13:30:06</time>
      </trkpt>
      <trkpt lat="38.53819" lon="-0.81409">
        <ele>462</ele>
        <time>2022-10-15 13:30:08</time>
      </trkpt>
      <trkpt lat="38.53818" lon="-0.8141">
        <ele>462</ele>
        <time>2022-10-15 13:30:10</time>
      </trkpt>
      <trkpt lat="38.53817" lon="-0.81411">
        <ele>462.2</ele>
        <time>2022-10-15 13:30:12</time>
      </trkpt>
      <trkpt lat="38.53817" lon="-0.81411">
        <ele>462.2</ele>
        <time>2022-10-15 13:30:13</time>
      </trkpt>
      <trkpt lat="38.53817" lon="-0.81411">
        <ele>462.4</ele>
        <time>2022-10-15 13:30:14</time>
      </trkpt>
      <trkpt lat="38.53815" lon="-0.81411">
        <ele>462.4</ele>
        <time>2022-10-15 13:30:15</time>
      </trkpt>
      <trkpt lat="38.53814" lon="-0.81412">
        <ele>462.6</ele>
        <time>2022-10-15 13:30:16</time>
      </trkpt>
      <trkpt lat="38.53814" lon="-0.81413">
        <ele>462.6</ele>
        <time>2022-10-15 13:30:17</time>
      </trkpt>
      <trkpt lat="38.53813" lon="-0.81414">
        <ele>462.6</ele>
        <time>2022-10-15 13:30:18</time>
      </trkpt>
      <trkpt lat="38.53813" lon="-0.81414">
        <ele>462.6</ele>
        <time>2022-10-15 13:30:19</time>
      </trkpt>
      <trkpt lat="38.53813" lon="-0.81414">
        <ele>462.6</ele>
        <time>2022-10-15 13:30:20</time>
      </trkpt>
      <trkpt lat="38.53812" lon="-0.81416">
        <ele>462.6</ele>
        <time>2022-10-15 13:30:21</time>
      </trkpt>
      <trkpt lat="38.53811" lon="-0.81416">
        <ele>462.6</ele>
        <time>2022-10-15 13:30:22</time>
      </trkpt>
      <trkpt lat="38.53811" lon="-0.81416">
        <ele>462.6</ele>
        <time>2022-10-15 13:30:23</time>
      </trkpt>
      <trkpt lat="38.53811" lon="-0.81417">
        <ele>462.6</ele>
        <time>2022-10-15 13:30:24</time>
      </trkpt>
      <trkpt lat="38.5381" lon="-0.81417">
        <ele>462.6</ele>
        <time>2022-10-15 13:30:25</time>
      </trkpt>
      <trkpt lat="38.5381" lon="-0.81417">
        <ele>462.6</ele>
        <time>2022-10-15 13:30:26</time>
      </trkpt>
      <trkpt lat="38.53806" lon="-0.81423">
        <ele>462.8</ele>
        <time>2022-10-15 13:30:27</time>
      </trkpt>
      <trkpt lat="38.53805" lon="-0.81425">
        <ele>462.8</ele>
        <time>2022-10-15 13:30:28</time>
      </trkpt>
      <trkpt lat="38.53805" lon="-0.81425">
        <ele>462.8</ele>
        <time>2022-10-15 13:30:29</time>
      </trkpt>
      <trkpt lat="38.53802" lon="-0.81429">
        <ele>462.8</ele>
        <time>2022-10-15 13:30:30</time>
      </trkpt>
      <trkpt lat="38.53801" lon="-0.81431">
        <ele>462.8</ele>
        <time>2022-10-15 13:30:31</time>
      </trkpt>
      <trkpt lat="38.538" lon="-0.81432">
        <ele>462.8</ele>
        <time>2022-10-15 13:30:35</time>
      </trkpt>
      <trkpt lat="38.53799" lon="-0.81432">
        <ele>462.8</ele>
        <time>2022-10-15 13:30:36</time>
      </trkpt>
      <trkpt lat="38.53797" lon="-0.81431">
        <ele>462.8</ele>
        <time>2022-10-15 13:30:37</time>
      </trkpt>
      <trkpt lat="38.53797" lon="-0.81431">
        <ele>462.8</ele>
        <time>2022-10-15 13:30:38</time>
      </trkpt>
      <trkpt lat="38.53794" lon="-0.81427">
        <ele>463</ele>
        <time>2022-10-15 13:30:39</time>
      </trkpt>
      <trkpt lat="38.53792" lon="-0.81425">
        <ele>463</ele>
        <time>2022-10-15 13:30:40</time>
      </trkpt>
      <trkpt lat="38.5379" lon="-0.81423">
        <ele>463</ele>
        <time>2022-10-15 13:30:41</time>
      </trkpt>
      <trkpt lat="38.53789" lon="-0.81421">
        <ele>463.2</ele>
        <time>2022-10-15 13:30:42</time>
      </trkpt>
      <trkpt lat="38.53789" lon="-0.81419">
        <ele>463.2</ele>
        <time>2022-10-15 13:30:43</time>
      </trkpt>
      <trkpt lat="38.53789" lon="-0.81419">
        <ele>463.4</ele>
        <time>2022-10-15 13:30:44</time>
      </trkpt>
      <trkpt lat="38.53791" lon="-0.81415">
        <ele>463.4</ele>
        <time>2022-10-15 13:30:45</time>
      </trkpt>
      <trkpt lat="38.53795" lon="-0.8141">
        <ele>463.4</ele>
        <time>2022-10-15 13:30:46</time>
      </trkpt>
      <trkpt lat="38.53797" lon="-0.81407">
        <ele>463.4</ele>
        <time>2022-10-15 13:30:47</time>
      </trkpt>
      <trkpt lat="38.53797" lon="-0.81407">
        <ele>463.4</ele>
        <time>2022-10-15 13:30:48</time>
      </trkpt>
      <trkpt lat="38.53798" lon="-0.81404">
        <ele>463.4</ele>
        <time>2022-10-15 13:30:49</time>
      </trkpt>
      <trkpt lat="38.53796" lon="-0.81402">
        <ele>463.4</ele>
        <time>2022-10-15 13:30:50</time>
      </trkpt>
      <trkpt lat="38.53796" lon="-0.81402">
        <ele>463.4</ele>
        <time>2022-10-15 13:30:52</time>
      </trkpt>
      <trkpt lat="38.53793" lon="-0.81404">
        <ele>463.4</ele>
        <time>2022-10-15 13:30:53</time>
      </trkpt>
      <trkpt lat="38.53792" lon="-0.81406">
        <ele>463.4</ele>
        <time>2022-10-15 13:30:54</time>
      </trkpt>
      <trkpt lat="38.5379" lon="-0.81409">
        <ele>463.2</ele>
        <time>2022-10-15 13:30:55</time>
      </trkpt>
      <trkpt lat="38.5379" lon="-0.81409">
        <ele>463</ele>
        <time>2022-10-15 13:30:56</time>
      </trkpt>
      <trkpt lat="38.53787" lon="-0.81414">
        <ele>462.8</ele>
        <time>2022-10-15 13:30:57</time>
      </trkpt>
      <trkpt lat="38.53787" lon="-0.81414">
        <ele>463</ele>
        <time>2022-10-15 13:30:58</time>
      </trkpt>
      <trkpt lat="38.53782" lon="-0.81424">
        <ele>462.6</ele>
        <time>2022-10-15 13:30:59</time>
      </trkpt>
      <trkpt lat="38.5378" lon="-0.81426">
        <ele>462.6</ele>
        <time>2022-10-15 13:31:00</time>
      </trkpt>
      <trkpt lat="38.53776" lon="-0.81429">
        <ele>462.4</ele>
        <time>2022-10-15 13:31:01</time>
      </trkpt>
      <trkpt lat="38.53774" lon="-0.81429">
        <ele>462.6</ele>
        <time>2022-10-15 13:31:02</time>
      </trkpt>
      <trkpt lat="38.53772" lon="-0.81428">
        <ele>462.4</ele>
        <time>2022-10-15 13:31:03</time>
      </trkpt>
      <trkpt lat="38.5377" lon="-0.81426">
        <ele>462.4</ele>
        <time>2022-10-15 13:31:05</time>
      </trkpt>
      <trkpt lat="38.53769" lon="-0.81423">
        <ele>462.4</ele>
        <time>2022-10-15 13:31:07</time>
      </trkpt>
      <trkpt lat="38.53769" lon="-0.81423">
        <ele>462.4</ele>
        <time>2022-10-15 13:31:08</time>
      </trkpt>
      <trkpt lat="38.53764" lon="-0.8142">
        <ele>462.2</ele>
        <time>2022-10-15 13:31:09</time>
      </trkpt>
      <trkpt lat="38.53761" lon="-0.81419">
        <ele>462.2</ele>
        <time>2022-10-15 13:31:10</time>
      </trkpt>
      <trkpt lat="38.53759" lon="-0.81417">
        <ele>462.2</ele>
        <time>2022-10-15 13:31:11</time>
      </trkpt>
      <trkpt lat="38.53756" lon="-0.81415">
        <ele>462.2</ele>
        <time>2022-10-15 13:31:12</time>
      </trkpt>
      <trkpt lat="38.53752" lon="-0.81414">
        <ele>462.2</ele>
        <time>2022-10-15 13:31:13</time>
      </trkpt>
      <trkpt lat="38.53752" lon="-0.81414">
        <ele>462.2</ele>
        <time>2022-10-15 13:31:14</time>
      </trkpt>
      <trkpt lat="38.53746" lon="-0.8141">
        <ele>462.2</ele>
        <time>2022-10-15 13:31:15</time>
      </trkpt>
      <trkpt lat="38.53743" lon="-0.81408">
        <ele>462.2</ele>
        <time>2022-10-15 13:31:16</time>
      </trkpt>
      <trkpt lat="38.5374" lon="-0.81406">
        <ele>462.2</ele>
        <time>2022-10-15 13:31:17</time>
      </trkpt>
      <trkpt lat="38.53737" lon="-0.81405">
        <ele>462.2</ele>
        <time>2022-10-15 13:31:18</time>
      </trkpt>
      <trkpt lat="38.53735" lon="-0.81405">
        <ele>462.2</ele>
        <time>2022-10-15 13:31:19</time>
      </trkpt>
      <trkpt lat="38.53735" lon="-0.81405">
        <ele>462.4</ele>
        <time>2022-10-15 13:31:20</time>
      </trkpt>
      <trkpt lat="38.53729" lon="-0.81403">
        <ele>462.4</ele>
        <time>2022-10-15 13:31:21</time>
      </trkpt>
      <trkpt lat="38.53726" lon="-0.81401">
        <ele>462.6</ele>
        <time>2022-10-15 13:31:22</time>
      </trkpt>
      <trkpt lat="38.53726" lon="-0.81401">
        <ele>462.6</ele>
        <time>2022-10-15 13:31:23</time>
      </trkpt>
      <trkpt lat="38.53719" lon="-0.81398">
        <ele>462.6</ele>
        <time>2022-10-15 13:31:24</time>
      </trkpt>
      <trkpt lat="38.53716" lon="-0.81396">
        <ele>462.8</ele>
        <time>2022-10-15 13:31:25</time>
      </trkpt>
      <trkpt lat="38.53716" lon="-0.81396">
        <ele>463</ele>
        <time>2022-10-15 13:31:26</time>
      </trkpt>
      <trkpt lat="38.53708" lon="-0.81395">
        <ele>463.6</ele>
        <time>2022-10-15 13:31:27</time>
      </trkpt>
      <trkpt lat="38.53704" lon="-0.81394">
        <ele>464</ele>
        <time>2022-10-15 13:31:28</time>
      </trkpt>
      <trkpt lat="38.537" lon="-0.81394">
        <ele>464.8</ele>
        <time>2022-10-15 13:31:29</time>
      </trkpt>
      <trkpt lat="38.53695" lon="-0.81393">
        <ele>465</ele>
        <time>2022-10-15 13:31:30</time>
      </trkpt>
      <trkpt lat="38.53691" lon="-0.81393">
        <ele>465.2</ele>
        <time>2022-10-15 13:31:31</time>
      </trkpt>
      <trkpt lat="38.53691" lon="-0.81393">
        <ele>465.4</ele>
        <time>2022-10-15 13:31:32</time>
      </trkpt>
      <trkpt lat="38.53683" lon="-0.81392">
        <ele>465.4</ele>
        <time>2022-10-15 13:31:33</time>
      </trkpt>
      <trkpt lat="38.53679" lon="-0.81392">
        <ele>465.6</ele>
        <time>2022-10-15 13:31:34</time>
      </trkpt>
      <trkpt lat="38.53675" lon="-0.81393">
        <ele>465.8</ele>
        <time>2022-10-15 13:31:35</time>
      </trkpt>
      <trkpt lat="38.53671" lon="-0.81393">
        <ele>465.8</ele>
        <time>2022-10-15 13:31:36</time>
      </trkpt>
      <trkpt lat="38.53668" lon="-0.81393">
        <ele>465.8</ele>
        <time>2022-10-15 13:31:37</time>
      </trkpt>
      <trkpt lat="38.53668" lon="-0.81393">
        <ele>465.8</ele>
        <time>2022-10-15 13:31:38</time>
      </trkpt>
      <trkpt lat="38.5366" lon="-0.81392">
        <ele>465.8</ele>
        <time>2022-10-15 13:31:39</time>
      </trkpt>
      <trkpt lat="38.53656" lon="-0.81391">
        <ele>465.8</ele>
        <time>2022-10-15 13:31:40</time>
      </trkpt>
      <trkpt lat="38.53652" lon="-0.8139">
        <ele>465.8</ele>
        <time>2022-10-15 13:31:41</time>
      </trkpt>
      <trkpt lat="38.53648" lon="-0.81388">
        <ele>465.8</ele>
        <time>2022-10-15 13:31:42</time>
      </trkpt>
      <trkpt lat="38.53645" lon="-0.81387">
        <ele>465.8</ele>
        <time>2022-10-15 13:31:43</time>
      </trkpt>
      <trkpt lat="38.53645" lon="-0.81387">
        <ele>465.8</ele>
        <time>2022-10-15 13:31:44</time>
      </trkpt>
      <trkpt lat="38.5364" lon="-0.81384">
        <ele>465.8</ele>
        <time>2022-10-15 13:31:45</time>
      </trkpt>
      <trkpt lat="38.53637" lon="-0.81383">
        <ele>465.8</ele>
        <time>2022-10-15 13:31:46</time>
      </trkpt>
      <trkpt lat="38.53635" lon="-0.81382">
        <ele>465.8</ele>
        <time>2022-10-15 13:31:47</time>
      </trkpt>
      <trkpt lat="38.53633" lon="-0.81381">
        <ele>465.8</ele>
        <time>2022-10-15 13:31:48</time>
      </trkpt>
      <trkpt lat="38.53632" lon="-0.81381">
        <ele>465.8</ele>
        <time>2022-10-15 13:31:49</time>
      </trkpt>
      <trkpt lat="38.53632" lon="-0.81381">
        <ele>465.8</ele>
        <time>2022-10-15 13:31:50</time>
      </trkpt>
      <trkpt lat="38.53628" lon="-0.81383">
        <ele>465.6</ele>
        <time>2022-10-15 13:31:51</time>
      </trkpt>
      <trkpt lat="38.53627" lon="-0.81384">
        <ele>465.6</ele>
        <time>2022-10-15 13:31:52</time>
      </trkpt>
      <trkpt lat="38.53627" lon="-0.81386">
        <ele>465.6</ele>
        <time>2022-10-15 13:31:53</time>
      </trkpt>
      <trkpt lat="38.53627" lon="-0.81392">
        <ele>465.6</ele>
        <time>2022-10-15 13:31:54</time>
      </trkpt>
      <trkpt lat="38.53627" lon="-0.81392">
        <ele>465.6</ele>
        <time>2022-10-15 13:31:55</time>
      </trkpt>
      <trkpt lat="38.53627" lon="-0.81398">
        <ele>465.6</ele>
        <time>2022-10-15 13:31:56</time>
      </trkpt>
      <trkpt lat="38.53627" lon="-0.81402">
        <ele>465.6</ele>
        <time>2022-10-15 13:31:57</time>
      </trkpt>
      <trkpt lat="38.53627" lon="-0.81402">
        <ele>465.6</ele>
        <time>2022-10-15 13:31:58</time>
      </trkpt>
      <trkpt lat="38.53626" lon="-0.81411">
        <ele>465.4</ele>
        <time>2022-10-15 13:32:00</time>
      </trkpt>
      <trkpt lat="38.53625" lon="-0.81417">
        <ele>465.2</ele>
        <time>2022-10-15 13:32:01</time>
      </trkpt>
      <trkpt lat="38.53625" lon="-0.81417">
        <ele>465.2</ele>
        <time>2022-10-15 13:32:02</time>
      </trkpt>
      <trkpt lat="38.53623" lon="-0.81427">
        <ele>465.2</ele>
        <time>2022-10-15 13:32:03</time>
      </trkpt>
      <trkpt lat="38.53623" lon="-0.81427">
        <ele>465</ele>
        <time>2022-10-15 13:32:04</time>
      </trkpt>
      <trkpt lat="38.53622" lon="-0.8143">
        <ele>465</ele>
        <time>2022-10-15 13:32:05</time>
      </trkpt>
      <trkpt lat="38.53618" lon="-0.81434">
        <ele>465</ele>
        <time>2022-10-15 13:32:06</time>
      </trkpt>
      <trkpt lat="38.53616" lon="-0.81436">
        <ele>464.8</ele>
        <time>2022-10-15 13:32:07</time>
      </trkpt>
      <trkpt lat="38.53616" lon="-0.81436">
        <ele>464.6</ele>
        <time>2022-10-15 13:32:08</time>
      </trkpt>
      <trkpt lat="38.53611" lon="-0.81438">
        <ele>464.4</ele>
        <time>2022-10-15 13:32:09</time>
      </trkpt>
      <trkpt lat="38.53608" lon="-0.81438">
        <ele>464.4</ele>
        <time>2022-10-15 13:32:10</time>
      </trkpt>
      <trkpt lat="38.53605" lon="-0.81438">
        <ele>464.4</ele>
        <time>2022-10-15 13:32:11</time>
      </trkpt>
      <trkpt lat="38.53603" lon="-0.81439">
        <ele>464.2</ele>
        <time>2022-10-15 13:32:12</time>
      </trkpt>
      <trkpt lat="38.536" lon="-0.81439">
        <ele>464.2</ele>
        <time>2022-10-15 13:32:13</time>
      </trkpt>
      <trkpt lat="38.536" lon="-0.81439">
        <ele>464.2</ele>
        <time>2022-10-15 13:32:14</time>
      </trkpt>
      <trkpt lat="38.53595" lon="-0.81441">
        <ele>464</ele>
        <time>2022-10-15 13:32:15</time>
      </trkpt>
      <trkpt lat="38.53593" lon="-0.81442">
        <ele>463.8</ele>
        <time>2022-10-15 13:32:16</time>
      </trkpt>
      <trkpt lat="38.53591" lon="-0.81442">
        <ele>463.6</ele>
        <time>2022-10-15 13:32:17</time>
      </trkpt>
      <trkpt lat="38.53586" lon="-0.81443">
        <ele>463.4</ele>
        <time>2022-10-15 13:32:18</time>
      </trkpt>
      <trkpt lat="38.53586" lon="-0.81443">
        <ele>463.4</ele>
        <time>2022-10-15 13:32:19</time>
      </trkpt>
      <trkpt lat="38.5358" lon="-0.81444">
        <ele>463.2</ele>
        <time>2022-10-15 13:32:20</time>
      </trkpt>
      <trkpt lat="38.5358" lon="-0.81444">
        <ele>463.2</ele>
        <time>2022-10-15 13:32:21</time>
      </trkpt>
      <trkpt lat="38.53576" lon="-0.81446">
        <ele>463.4</ele>
        <time>2022-10-15 13:32:22</time>
      </trkpt>
      <trkpt lat="38.53575" lon="-0.81446">
        <ele>463.4</ele>
        <time>2022-10-15 13:32:24</time>
      </trkpt>
      <trkpt lat="38.53574" lon="-0.81446">
        <ele>463.4</ele>
        <time>2022-10-15 13:32:25</time>
      </trkpt>
      <trkpt lat="38.53574" lon="-0.81446">
        <ele>463.4</ele>
        <time>2022-10-15 13:32:26</time>
      </trkpt>
      <trkpt lat="38.53583" lon="-0.81449">
        <ele>463.4</ele>
        <time>2022-10-15 13:32:27</time>
      </trkpt>
      <trkpt lat="38.53589" lon="-0.81447">
        <ele>463.4</ele>
        <time>2022-10-15 13:32:28</time>
      </trkpt>
      <trkpt lat="38.53592" lon="-0.81446">
        <ele>463.4</ele>
        <time>2022-10-15 13:32:29</time>
      </trkpt>
      <trkpt lat="38.53602" lon="-0.81441">
        <ele>463.4</ele>
        <time>2022-10-15 13:32:30</time>
      </trkpt>
      <trkpt lat="38.53609" lon="-0.81437">
        <ele>463.4</ele>
        <time>2022-10-15 13:32:31</time>
      </trkpt>
      <trkpt lat="38.53611" lon="-0.81434">
        <ele>463.4</ele>
        <time>2022-10-15 13:33:09</time>
      </trkpt>
      <trkpt lat="38.53611" lon="-0.81434">
        <ele>463.4</ele>
        <time>2022-10-15 13:33:11</time>
      </trkpt>
      <trkpt lat="38.53617" lon="-0.81428">
        <ele>463.4</ele>
        <time>2022-10-15 13:33:13</time>
      </trkpt>
      <trkpt lat="38.53618" lon="-0.81424">
        <ele>463.4</ele>
        <time>2022-10-15 13:33:15</time>
      </trkpt>
      <trkpt lat="38.53618" lon="-0.81424">
        <ele>463.6</ele>
        <time>2022-10-15 13:33:17</time>
      </trkpt>
      <trkpt lat="38.5362" lon="-0.81416">
        <ele>463.8</ele>
        <time>2022-10-15 13:33:18</time>
      </trkpt>
      <trkpt lat="38.5362" lon="-0.81411">
        <ele>463.8</ele>
        <time>2022-10-15 13:33:19</time>
      </trkpt>
      <trkpt lat="38.5362" lon="-0.814">
        <ele>463.8</ele>
        <time>2022-10-15 13:33:20</time>
      </trkpt>
      <trkpt lat="38.5362" lon="-0.81395">
        <ele>463.8</ele>
        <time>2022-10-15 13:33:21</time>
      </trkpt>
      <trkpt lat="38.53619" lon="-0.81389">
        <ele>464</ele>
        <time>2022-10-15 13:33:22</time>
      </trkpt>
      <trkpt lat="38.53619" lon="-0.81384">
        <ele>464</ele>
        <time>2022-10-15 13:33:23</time>
      </trkpt>
      <trkpt lat="38.53617" lon="-0.81378">
        <ele>464</ele>
        <time>2022-10-15 13:33:24</time>
      </trkpt>
      <trkpt lat="38.53617" lon="-0.81378">
        <ele>464</ele>
        <time>2022-10-15 13:33:26</time>
      </trkpt>
      <trkpt lat="38.53615" lon="-0.81368">
        <ele>464</ele>
        <time>2022-10-15 13:33:27</time>
      </trkpt>
      <trkpt lat="38.53614" lon="-0.81362">
        <ele>464</ele>
        <time>2022-10-15 13:33:28</time>
      </trkpt>
      <trkpt lat="38.53612" lon="-0.81357">
        <ele>464</ele>
        <time>2022-10-15 13:33:29</time>
      </trkpt>
      <trkpt lat="38.5361" lon="-0.81352">
        <ele>464</ele>
        <time>2022-10-15 13:33:30</time>
      </trkpt>
      <trkpt lat="38.53608" lon="-0.81347">
        <ele>464</ele>
        <time>2022-10-15 13:33:31</time>
      </trkpt>
      <trkpt lat="38.53608" lon="-0.81347">
        <ele>464</ele>
        <time>2022-10-15 13:33:32</time>
      </trkpt>
      <trkpt lat="38.53603" lon="-0.81337">
        <ele>464</ele>
        <time>2022-10-15 13:33:33</time>
      </trkpt>
      <trkpt lat="38.536" lon="-0.81332">
        <ele>464</ele>
        <time>2022-10-15 13:33:34</time>
      </trkpt>
      <trkpt lat="38.53597" lon="-0.81327">
        <ele>464</ele>
        <time>2022-10-15 13:33:35</time>
      </trkpt>
      <trkpt lat="38.53595" lon="-0.81322">
        <ele>464.2</ele>
        <time>2022-10-15 13:33:36</time>
      </trkpt>
      <trkpt lat="38.53592" lon="-0.81317">
        <ele>464.2</ele>
        <time>2022-10-15 13:33:37</time>
      </trkpt>
      <trkpt lat="38.53592" lon="-0.81317">
        <ele>464.2</ele>
        <time>2022-10-15 13:33:38</time>
      </trkpt>
      <trkpt lat="38.53584" lon="-0.81307">
        <ele>464.2</ele>
        <time>2022-10-15 13:33:39</time>
      </trkpt>
      <trkpt lat="38.5358" lon="-0.81302">
        <ele>464.4</ele>
        <time>2022-10-15 13:33:40</time>
      </trkpt>
      <trkpt lat="38.53576" lon="-0.81298">
        <ele>464.4</ele>
        <time>2022-10-15 13:33:41</time>
      </trkpt>
      <trkpt lat="38.53571" lon="-0.81294">
        <ele>464.4</ele>
        <time>2022-10-15 13:33:42</time>
      </trkpt>
      <trkpt lat="38.53571" lon="-0.81294">
        <ele>464.4</ele>
        <time>2022-10-15 13:33:43</time>
      </trkpt>
      <trkpt lat="38.53565" lon="-0.81289">
        <ele>464.4</ele>
        <time>2022-10-15 13:33:44</time>
      </trkpt>
      <trkpt lat="38.53554" lon="-0.81281">
        <ele>464.2</ele>
        <time>2022-10-15 13:33:45</time>
      </trkpt>
      <trkpt lat="38.53548" lon="-0.81277">
        <ele>464.2</ele>
        <time>2022-10-15 13:33:46</time>
      </trkpt>
      <trkpt lat="38.53542" lon="-0.81274">
        <ele>464.2</ele>
        <time>2022-10-15 13:33:47</time>
      </trkpt>
      <trkpt lat="38.53536" lon="-0.81271">
        <ele>464</ele>
        <time>2022-10-15 13:33:48</time>
      </trkpt>
      <trkpt lat="38.53529" lon="-0.81269">
        <ele>464</ele>
        <time>2022-10-15 13:33:49</time>
      </trkpt>
      <trkpt lat="38.53529" lon="-0.81269">
        <ele>463.6</ele>
        <time>2022-10-15 13:33:50</time>
      </trkpt>
      <trkpt lat="38.53516" lon="-0.81262">
        <ele>463.4</ele>
        <time>2022-10-15 13:33:51</time>
      </trkpt>
      <trkpt lat="38.53516" lon="-0.81262">
        <ele>463.2</ele>
        <time>2022-10-15 13:33:52</time>
      </trkpt>
      <trkpt lat="38.53504" lon="-0.81252">
        <ele>462.8</ele>
        <time>2022-10-15 13:33:53</time>
      </trkpt>
      <trkpt lat="38.53499" lon="-0.81247">
        <ele>462.6</ele>
        <time>2022-10-15 13:33:54</time>
      </trkpt>
      <trkpt lat="38.53499" lon="-0.81247">
        <ele>462.4</ele>
        <time>2022-10-15 13:33:55</time>
      </trkpt>
      <trkpt lat="38.53493" lon="-0.81242">
        <ele>462.2</ele>
        <time>2022-10-15 13:33:56</time>
      </trkpt>
      <trkpt lat="38.53479" lon="-0.81235">
        <ele>462</ele>
        <time>2022-10-15 13:33:57</time>
      </trkpt>
      <trkpt lat="38.53473" lon="-0.81231">
        <ele>461.8</ele>
        <time>2022-10-15 13:33:58</time>
      </trkpt>
      <trkpt lat="38.53466" lon="-0.81228">
        <ele>461.6</ele>
        <time>2022-10-15 13:33:59</time>
      </trkpt>
      <trkpt lat="38.53459" lon="-0.81226">
        <ele>461.6</ele>
        <time>2022-10-15 13:34:00</time>
      </trkpt>
      <trkpt lat="38.53452" lon="-0.81224">
        <ele>461.4</ele>
        <time>2022-10-15 13:34:01</time>
      </trkpt>
      <trkpt lat="38.53452" lon="-0.81224">
        <ele>461.2</ele>
        <time>2022-10-15 13:34:02</time>
      </trkpt>
      <trkpt lat="38.53437" lon="-0.81223">
        <ele>461.2</ele>
        <time>2022-10-15 13:34:03</time>
      </trkpt>
      <trkpt lat="38.5343" lon="-0.81223">
        <ele>461.2</ele>
        <time>2022-10-15 13:34:04</time>
      </trkpt>
      <trkpt lat="38.53424" lon="-0.81223">
        <ele>461</ele>
        <time>2022-10-15 13:34:05</time>
      </trkpt>
      <trkpt lat="38.53417" lon="-0.81224">
        <ele>461</ele>
        <time>2022-10-15 13:34:06</time>
      </trkpt>
      <trkpt lat="38.53411" lon="-0.81224">
        <ele>461</ele>
        <time>2022-10-15 13:34:07</time>
      </trkpt>
      <trkpt lat="38.53411" lon="-0.81224">
        <ele>460.8</ele>
        <time>2022-10-15 13:34:08</time>
      </trkpt>
      <trkpt lat="38.53399" lon="-0.81226">
        <ele>460.8</ele>
        <time>2022-10-15 13:34:09</time>
      </trkpt>
      <trkpt lat="38.53399" lon="-0.81226">
        <ele>460.8</ele>
        <time>2022-10-15 13:34:10</time>
      </trkpt>
      <trkpt lat="38.53388" lon="-0.81223">
        <ele>460.8</ele>
        <time>2022-10-15 13:34:11</time>
      </trkpt>
      <trkpt lat="38.53383" lon="-0.8122">
        <ele>460.8</ele>
        <time>2022-10-15 13:34:12</time>
      </trkpt>
      <trkpt lat="38.53379" lon="-0.81216">
        <ele>460.8</ele>
        <time>2022-10-15 13:34:13</time>
      </trkpt>
      <trkpt lat="38.53379" lon="-0.81216">
        <ele>460.8</ele>
        <time>2022-10-15 13:34:14</time>
      </trkpt>
      <trkpt lat="38.53374" lon="-0.81206">
        <ele>460.8</ele>
        <time>2022-10-15 13:34:15</time>
      </trkpt>
      <trkpt lat="38.53373" lon="-0.81202">
        <ele>460.8</ele>
        <time>2022-10-15 13:34:16</time>
      </trkpt>
      <trkpt lat="38.53372" lon="-0.812">
        <ele>461</ele>
        <time>2022-10-15 13:34:17</time>
      </trkpt>
      <trkpt lat="38.53371" lon="-0.81197">
        <ele>461</ele>
        <time>2022-10-15 13:34:18</time>
      </trkpt>
      <trkpt lat="38.53371" lon="-0.81196">
        <ele>461.2</ele>
        <time>2022-10-15 13:34:19</time>
      </trkpt>
      <trkpt lat="38.53371" lon="-0.81196">
        <ele>461.2</ele>
        <time>2022-10-15 13:34:20</time>
      </trkpt>
      <trkpt lat="38.53369" lon="-0.81195">
        <ele>461.4</ele>
        <time>2022-10-15 13:34:21</time>
      </trkpt>
      <trkpt lat="38.53369" lon="-0.81195">
        <ele>461.4</ele>
        <time>2022-10-15 13:34:22</time>
      </trkpt>
      <trkpt lat="38.5337" lon="-0.81194">
        <ele>461.6</ele>
        <time>2022-10-15 13:34:23</time>
      </trkpt>
      <trkpt lat="38.53369" lon="-0.81193">
        <ele>462.6</ele>
        <time>2022-10-15 13:34:24</time>
      </trkpt>
      <trkpt lat="38.53365" lon="-0.81193">
        <ele>462.6</ele>
        <time>2022-10-15 13:34:25</time>
      </trkpt>
      <trkpt lat="38.53363" lon="-0.81194">
        <ele>462.6</ele>
        <time>2022-10-15 13:34:26</time>
      </trkpt>
      <trkpt lat="38.53359" lon="-0.81194">
        <ele>462.6</ele>
        <time>2022-10-15 13:34:27</time>
      </trkpt>
      <trkpt lat="38.53355" lon="-0.81194">
        <ele>462.6</ele>
        <time>2022-10-15 13:34:28</time>
      </trkpt>
      <trkpt lat="38.53351" lon="-0.81192">
        <ele>462.6</ele>
        <time>2022-10-15 13:35:31</time>
      </trkpt>
      <trkpt lat="38.53351" lon="-0.81192">
        <ele>462.6</ele>
        <time>2022-10-15 13:35:32</time>
      </trkpt>
      <trkpt lat="38.53344" lon="-0.81186">
        <ele>462.4</ele>
        <time>2022-10-15 13:35:33</time>
      </trkpt>
      <trkpt lat="38.53344" lon="-0.81186">
        <ele>462.4</ele>
        <time>2022-10-15 13:35:34</time>
      </trkpt>
      <trkpt lat="38.53339" lon="-0.8118">
        <ele>462.4</ele>
        <time>2022-10-15 13:35:35</time>
      </trkpt>
      <trkpt lat="38.53335" lon="-0.81179">
        <ele>462.4</ele>
        <time>2022-10-15 13:35:36</time>
      </trkpt>
      <trkpt lat="38.5333" lon="-0.81178">
        <ele>462.4</ele>
        <time>2022-10-15 13:35:37</time>
      </trkpt>
      <trkpt lat="38.5333" lon="-0.81178">
        <ele>462.4</ele>
        <time>2022-10-15 13:35:38</time>
      </trkpt>
      <trkpt lat="38.5332" lon="-0.81178">
        <ele>462.4</ele>
        <time>2022-10-15 13:35:39</time>
      </trkpt>
      <trkpt lat="38.53315" lon="-0.81178">
        <ele>462.4</ele>
        <time>2022-10-15 13:35:40</time>
      </trkpt>
      <trkpt lat="38.5331" lon="-0.81178">
        <ele>462.4</ele>
        <time>2022-10-15 13:35:41</time>
      </trkpt>
      <trkpt lat="38.53305" lon="-0.81179">
        <ele>462.8</ele>
        <time>2022-10-15 13:35:42</time>
      </trkpt>
      <trkpt lat="38.533" lon="-0.81178">
        <ele>463</ele>
        <time>2022-10-15 13:35:43</time>
      </trkpt>
      <trkpt lat="38.533" lon="-0.81178">
        <ele>463.2</ele>
        <time>2022-10-15 13:35:44</time>
      </trkpt>
      <trkpt lat="38.53291" lon="-0.81178">
        <ele>463.2</ele>
        <time>2022-10-15 13:35:45</time>
      </trkpt>
      <trkpt lat="38.53286" lon="-0.81179">
        <ele>463.2</ele>
        <time>2022-10-15 13:35:46</time>
      </trkpt>
      <trkpt lat="38.53281" lon="-0.81178">
        <ele>463.2</ele>
        <time>2022-10-15 13:35:47</time>
      </trkpt>
      <trkpt lat="38.53276" lon="-0.81178">
        <ele>463.2</ele>
        <time>2022-10-15 13:35:48</time>
      </trkpt>
      <trkpt lat="38.53271" lon="-0.81178">
        <ele>463.2</ele>
        <time>2022-10-15 13:35:49</time>
      </trkpt>
      <trkpt lat="38.53271" lon="-0.81178">
        <ele>463.4</ele>
        <time>2022-10-15 13:35:50</time>
      </trkpt>
      <trkpt lat="38.53262" lon="-0.81177">
        <ele>463.4</ele>
        <time>2022-10-15 13:35:51</time>
      </trkpt>
      <trkpt lat="38.53257" lon="-0.81177">
        <ele>463.4</ele>
        <time>2022-10-15 13:35:52</time>
      </trkpt>
      <trkpt lat="38.53252" lon="-0.81177">
        <ele>463.4</ele>
        <time>2022-10-15 13:35:53</time>
      </trkpt>
      <trkpt lat="38.53247" lon="-0.81177">
        <ele>463.4</ele>
        <time>2022-10-15 13:35:54</time>
      </trkpt>
      <trkpt lat="38.53242" lon="-0.81176">
        <ele>463.2</ele>
        <time>2022-10-15 13:35:55</time>
      </trkpt>
      <trkpt lat="38.53242" lon="-0.81176">
        <ele>463.2</ele>
        <time>2022-10-15 13:35:56</time>
      </trkpt>
      <trkpt lat="38.53232" lon="-0.81176">
        <ele>463.2</ele>
        <time>2022-10-15 13:35:57</time>
      </trkpt>
      <trkpt lat="38.53222" lon="-0.81176">
        <ele>463.2</ele>
        <time>2022-10-15 13:35:58</time>
      </trkpt>
      <trkpt lat="38.53217" lon="-0.81176">
        <ele>463.2</ele>
        <time>2022-10-15 13:35:59</time>
      </trkpt>
      <trkpt lat="38.53213" lon="-0.81176">
        <ele>463.2</ele>
        <time>2022-10-15 13:36:00</time>
      </trkpt>
      <trkpt lat="38.53213" lon="-0.81176">
        <ele>463.2</ele>
        <time>2022-10-15 13:36:01</time>
      </trkpt>
      <trkpt lat="38.53203" lon="-0.81176">
        <ele>463</ele>
        <time>2022-10-15 13:36:02</time>
      </trkpt>
      <trkpt lat="38.53198" lon="-0.81176">
        <ele>463</ele>
        <time>2022-10-15 13:36:04</time>
      </trkpt>
      <trkpt lat="38.53193" lon="-0.81176">
        <ele>463</ele>
        <time>2022-10-15 13:36:05</time>
      </trkpt>
      <trkpt lat="38.53188" lon="-0.81176">
        <ele>463.2</ele>
        <time>2022-10-15 13:36:06</time>
      </trkpt>
      <trkpt lat="38.53183" lon="-0.81175">
        <ele>463</ele>
        <time>2022-10-15 13:36:07</time>
      </trkpt>
      <trkpt lat="38.53183" lon="-0.81175">
        <ele>462.8</ele>
        <time>2022-10-15 13:36:08</time>
      </trkpt>
      <trkpt lat="38.53173" lon="-0.81175">
        <ele>462.8</ele>
        <time>2022-10-15 13:36:09</time>
      </trkpt>
      <trkpt lat="38.53168" lon="-0.81175">
        <ele>462.6</ele>
        <time>2022-10-15 13:36:10</time>
      </trkpt>
      <trkpt lat="38.53162" lon="-0.81175">
        <ele>462.6</ele>
        <time>2022-10-15 13:36:11</time>
      </trkpt>
      <trkpt lat="38.53157" lon="-0.81175">
        <ele>462.4</ele>
        <time>2022-10-15 13:36:12</time>
      </trkpt>
      <trkpt lat="38.53152" lon="-0.81175">
        <ele>462.4</ele>
        <time>2022-10-15 13:36:13</time>
      </trkpt>
      <trkpt lat="38.53152" lon="-0.81175">
        <ele>462.2</ele>
        <time>2022-10-15 13:36:14</time>
      </trkpt>
      <trkpt lat="38.53141" lon="-0.81175">
        <ele>462.2</ele>
        <time>2022-10-15 13:36:15</time>
      </trkpt>
      <trkpt lat="38.53136" lon="-0.81175">
        <ele>462</ele>
        <time>2022-10-15 13:36:16</time>
      </trkpt>
      <trkpt lat="38.53131" lon="-0.81175">
        <ele>462</ele>
        <time>2022-10-15 13:36:17</time>
      </trkpt>
      <trkpt lat="38.53125" lon="-0.81175">
        <ele>461.8</ele>
        <time>2022-10-15 13:36:18</time>
      </trkpt>
      <trkpt lat="38.5312" lon="-0.81175">
        <ele>461.8</ele>
        <time>2022-10-15 13:36:19</time>
      </trkpt>
      <trkpt lat="38.5312" lon="-0.81175">
        <ele>461.6</ele>
        <time>2022-10-15 13:36:20</time>
      </trkpt>
      <trkpt lat="38.53109" lon="-0.81174">
        <ele>461.4</ele>
        <time>2022-10-15 13:36:21</time>
      </trkpt>
      <trkpt lat="38.53104" lon="-0.81174">
        <ele>461.4</ele>
        <time>2022-10-15 13:36:22</time>
      </trkpt>
      <trkpt lat="38.53098" lon="-0.81174">
        <ele>461.4</ele>
        <time>2022-10-15 13:36:23</time>
      </trkpt>
      <trkpt lat="38.53093" lon="-0.81174">
        <ele>461.2</ele>
        <time>2022-10-15 13:36:24</time>
      </trkpt>
      <trkpt lat="38.53087" lon="-0.81174">
        <ele>461.2</ele>
        <time>2022-10-15 13:36:25</time>
      </trkpt>
      <trkpt lat="38.53087" lon="-0.81174">
        <ele>461</ele>
        <time>2022-10-15 13:36:26</time>
      </trkpt>
      <trkpt lat="38.53075" lon="-0.81173">
        <ele>460.8</ele>
        <time>2022-10-15 13:36:27</time>
      </trkpt>
      <trkpt lat="38.53069" lon="-0.81173">
        <ele>460.8</ele>
        <time>2022-10-15 13:36:28</time>
      </trkpt>
      <trkpt lat="38.53063" lon="-0.81173">
        <ele>460.8</ele>
        <time>2022-10-15 13:36:29</time>
      </trkpt>
      <trkpt lat="38.53057" lon="-0.81173">
        <ele>460.6</ele>
        <time>2022-10-15 13:36:30</time>
      </trkpt>
      <trkpt lat="38.53052" lon="-0.81173">
        <ele>460.6</ele>
        <time>2022-10-15 13:36:31</time>
      </trkpt>
      <trkpt lat="38.53052" lon="-0.81173">
        <ele>460.6</ele>
        <time>2022-10-15 13:36:32</time>
      </trkpt>
      <trkpt lat="38.53041" lon="-0.81172">
        <ele>460.6</ele>
        <time>2022-10-15 13:36:33</time>
      </trkpt>
      <trkpt lat="38.53035" lon="-0.81172">
        <ele>460.6</ele>
        <time>2022-10-15 13:36:34</time>
      </trkpt>
      <trkpt lat="38.5303" lon="-0.81172">
        <ele>460.6</ele>
        <time>2022-10-15 13:36:35</time>
      </trkpt>
      <trkpt lat="38.53025" lon="-0.81172">
        <ele>460.6</ele>
        <time>2022-10-15 13:36:36</time>
      </trkpt>
      <trkpt lat="38.53019" lon="-0.81171">
        <ele>460.4</ele>
        <time>2022-10-15 13:36:37</time>
      </trkpt>
      <trkpt lat="38.53019" lon="-0.81171">
        <ele>460.4</ele>
        <time>2022-10-15 13:36:38</time>
      </trkpt>
      <trkpt lat="38.53009" lon="-0.81171">
        <ele>460.4</ele>
        <time>2022-10-15 13:36:39</time>
      </trkpt>
      <trkpt lat="38.53003" lon="-0.8117">
        <ele>460.2</ele>
        <time>2022-10-15 13:36:40</time>
      </trkpt>
      <trkpt lat="38.52998" lon="-0.8117">
        <ele>460</ele>
        <time>2022-10-15 13:36:41</time>
      </trkpt>
      <trkpt lat="38.52992" lon="-0.8117">
        <ele>460</ele>
        <time>2022-10-15 13:36:42</time>
      </trkpt>
      <trkpt lat="38.52987" lon="-0.8117">
        <ele>459.8</ele>
        <time>2022-10-15 13:36:43</time>
      </trkpt>
      <trkpt lat="38.52987" lon="-0.8117">
        <ele>459.8</ele>
        <time>2022-10-15 13:36:44</time>
      </trkpt>
      <trkpt lat="38.52976" lon="-0.81169">
        <ele>459.8</ele>
        <time>2022-10-15 13:36:45</time>
      </trkpt>
      <trkpt lat="38.52971" lon="-0.81169">
        <ele>459.6</ele>
        <time>2022-10-15 13:36:46</time>
      </trkpt>
      <trkpt lat="38.52965" lon="-0.81169">
        <ele>459.6</ele>
        <time>2022-10-15 13:36:47</time>
      </trkpt>
      <trkpt lat="38.5296" lon="-0.81169">
        <ele>459.4</ele>
        <time>2022-10-15 13:36:48</time>
      </trkpt>
      <trkpt lat="38.52954" lon="-0.81169">
        <ele>459.4</ele>
        <time>2022-10-15 13:36:49</time>
      </trkpt>
      <trkpt lat="38.52954" lon="-0.81169">
        <ele>459.2</ele>
        <time>2022-10-15 13:36:50</time>
      </trkpt>
      <trkpt lat="38.52944" lon="-0.81169">
        <ele>459.2</ele>
        <time>2022-10-15 13:36:51</time>
      </trkpt>
      <trkpt lat="38.52938" lon="-0.81169">
        <ele>459.2</ele>
        <time>2022-10-15 13:36:52</time>
      </trkpt>
      <trkpt lat="38.52933" lon="-0.81169">
        <ele>459.2</ele>
        <time>2022-10-15 13:36:53</time>
      </trkpt>
      <trkpt lat="38.52928" lon="-0.81168">
        <ele>459.2</ele>
        <time>2022-10-15 13:36:54</time>
      </trkpt>
      <trkpt lat="38.52923" lon="-0.81168">
        <ele>459</ele>
        <time>2022-10-15 13:36:55</time>
      </trkpt>
      <trkpt lat="38.52923" lon="-0.81168">
        <ele>459</ele>
        <time>2022-10-15 13:36:56</time>
      </trkpt>
      <trkpt lat="38.52913" lon="-0.81167">
        <ele>458.8</ele>
        <time>2022-10-15 13:36:57</time>
      </trkpt>
      <trkpt lat="38.52908" lon="-0.81167">
        <ele>458.6</ele>
        <time>2022-10-15 13:36:58</time>
      </trkpt>
      <trkpt lat="38.52903" lon="-0.81167">
        <ele>458.6</ele>
        <time>2022-10-15 13:36:59</time>
      </trkpt>
      <trkpt lat="38.52898" lon="-0.81167">
        <ele>458.4</ele>
        <time>2022-10-15 13:37:00</time>
      </trkpt>
      <trkpt lat="38.52893" lon="-0.81167">
        <ele>458.4</ele>
        <time>2022-10-15 13:37:01</time>
      </trkpt>
      <trkpt lat="38.52893" lon="-0.81167">
        <ele>458.4</ele>
        <time>2022-10-15 13:37:02</time>
      </trkpt>
      <trkpt lat="38.52883" lon="-0.81167">
        <ele>458.4</ele>
        <time>2022-10-15 13:37:03</time>
      </trkpt>
      <trkpt lat="38.52878" lon="-0.81167">
        <ele>458.2</ele>
        <time>2022-10-15 13:37:04</time>
      </trkpt>
      <trkpt lat="38.52872" lon="-0.81167">
        <ele>458.2</ele>
        <time>2022-10-15 13:37:05</time>
      </trkpt>
      <trkpt lat="38.52867" lon="-0.81167">
        <ele>458.2</ele>
        <time>2022-10-15 13:37:06</time>
      </trkpt>
      <trkpt lat="38.52862" lon="-0.81167">
        <ele>458.2</ele>
        <time>2022-10-15 13:37:07</time>
      </trkpt>
      <trkpt lat="38.52862" lon="-0.81167">
        <ele>458.2</ele>
        <time>2022-10-15 13:37:08</time>
      </trkpt>
      <trkpt lat="38.52851" lon="-0.81167">
        <ele>458.2</ele>
        <time>2022-10-15 13:37:09</time>
      </trkpt>
      <trkpt lat="38.52845" lon="-0.81167">
        <ele>458.2</ele>
        <time>2022-10-15 13:37:10</time>
      </trkpt>
      <trkpt lat="38.5284" lon="-0.81167">
        <ele>458</ele>
        <time>2022-10-15 13:37:11</time>
      </trkpt>
      <trkpt lat="38.52834" lon="-0.81167">
        <ele>458</ele>
        <time>2022-10-15 13:37:12</time>
      </trkpt>
      <trkpt lat="38.52829" lon="-0.81166">
        <ele>458</ele>
        <time>2022-10-15 13:37:13</time>
      </trkpt>
      <trkpt lat="38.52829" lon="-0.81166">
        <ele>458</ele>
        <time>2022-10-15 13:37:14</time>
      </trkpt>
      <trkpt lat="38.52818" lon="-0.81166">
        <ele>458</ele>
        <time>2022-10-15 13:37:15</time>
      </trkpt>
      <trkpt lat="38.52813" lon="-0.81166">
        <ele>458</ele>
        <time>2022-10-15 13:37:16</time>
      </trkpt>
      <trkpt lat="38.52807" lon="-0.81166">
        <ele>458</ele>
        <time>2022-10-15 13:37:17</time>
      </trkpt>
      <trkpt lat="38.52802" lon="-0.81166">
        <ele>458</ele>
        <time>2022-10-15 13:37:18</time>
      </trkpt>
      <trkpt lat="38.52796" lon="-0.81166">
        <ele>458</ele>
        <time>2022-10-15 13:37:19</time>
      </trkpt>
      <trkpt lat="38.52796" lon="-0.81166">
        <ele>457.8</ele>
        <time>2022-10-15 13:37:20</time>
      </trkpt>
      <trkpt lat="38.52785" lon="-0.81165">
        <ele>457.8</ele>
        <time>2022-10-15 13:37:21</time>
      </trkpt>
      <trkpt lat="38.52779" lon="-0.81165">
        <ele>457.8</ele>
        <time>2022-10-15 13:37:22</time>
      </trkpt>
      <trkpt lat="38.52773" lon="-0.81165">
        <ele>457.8</ele>
        <time>2022-10-15 13:37:23</time>
      </trkpt>
      <trkpt lat="38.52768" lon="-0.81165">
        <ele>457.8</ele>
        <time>2022-10-15 13:37:24</time>
      </trkpt>
      <trkpt lat="38.52762" lon="-0.81165">
        <ele>457.8</ele>
        <time>2022-10-15 13:37:25</time>
      </trkpt>
      <trkpt lat="38.52762" lon="-0.81165">
        <ele>457.8</ele>
        <time>2022-10-15 13:37:26</time>
      </trkpt>
      <trkpt lat="38.52751" lon="-0.81164">
        <ele>457.8</ele>
        <time>2022-10-15 13:37:27</time>
      </trkpt>
      <trkpt lat="38.52745" lon="-0.81164">
        <ele>457.6</ele>
        <time>2022-10-15 13:37:28</time>
      </trkpt>
      <trkpt lat="38.5274" lon="-0.81164">
        <ele>457.6</ele>
        <time>2022-10-15 13:37:29</time>
      </trkpt>
      <trkpt lat="38.52734" lon="-0.81164">
        <ele>457.6</ele>
        <time>2022-10-15 13:37:30</time>
      </trkpt>
      <trkpt lat="38.52729" lon="-0.81164">
        <ele>457.6</ele>
        <time>2022-10-15 13:37:31</time>
      </trkpt>
      <trkpt lat="38.52729" lon="-0.81164">
        <ele>457.6</ele>
        <time>2022-10-15 13:37:32</time>
      </trkpt>
      <trkpt lat="38.52718" lon="-0.81163">
        <ele>457.6</ele>
        <time>2022-10-15 13:37:33</time>
      </trkpt>
      <trkpt lat="38.52712" lon="-0.81163">
        <ele>457.4</ele>
        <time>2022-10-15 13:37:34</time>
      </trkpt>
      <trkpt lat="38.52707" lon="-0.81163">
        <ele>457.4</ele>
        <time>2022-10-15 13:37:35</time>
      </trkpt>
      <trkpt lat="38.52696" lon="-0.81163">
        <ele>457.2</ele>
        <time>2022-10-15 13:37:36</time>
      </trkpt>
      <trkpt lat="38.52696" lon="-0.81163">
        <ele>457.2</ele>
        <time>2022-10-15 13:37:37</time>
      </trkpt>
      <trkpt lat="38.52685" lon="-0.81163">
        <ele>457</ele>
        <time>2022-10-15 13:37:38</time>
      </trkpt>
      <trkpt lat="38.52679" lon="-0.81163">
        <ele>457</ele>
        <time>2022-10-15 13:37:39</time>
      </trkpt>
      <trkpt lat="38.52668" lon="-0.81162">
        <ele>457</ele>
        <time>2022-10-15 13:37:40</time>
      </trkpt>
      <trkpt lat="38.52663" lon="-0.81162">
        <ele>457</ele>
        <time>2022-10-15 13:37:42</time>
      </trkpt>
      <trkpt lat="38.52663" lon="-0.81162">
        <ele>456.8</ele>
        <time>2022-10-15 13:37:43</time>
      </trkpt>
      <trkpt lat="38.52651" lon="-0.81162">
        <ele>456.8</ele>
        <time>2022-10-15 13:37:44</time>
      </trkpt>
      <trkpt lat="38.52646" lon="-0.81162">
        <ele>456.8</ele>
        <time>2022-10-15 13:37:45</time>
      </trkpt>
      <trkpt lat="38.52641" lon="-0.81162">
        <ele>456.8</ele>
        <time>2022-10-15 13:37:47</time>
      </trkpt>
      <trkpt lat="38.52635" lon="-0.81161">
        <ele>456.8</ele>
        <time>2022-10-15 13:37:48</time>
      </trkpt>
      <trkpt lat="38.52629" lon="-0.81161">
        <ele>456.8</ele>
        <time>2022-10-15 13:37:49</time>
      </trkpt>
      <trkpt lat="38.52629" lon="-0.81161">
        <ele>456.8</ele>
        <time>2022-10-15 13:37:50</time>
      </trkpt>
      <trkpt lat="38.52618" lon="-0.81161">
        <ele>456.8</ele>
        <time>2022-10-15 13:37:51</time>
      </trkpt>
      <trkpt lat="38.52613" lon="-0.81161">
        <ele>456.6</ele>
        <time>2022-10-15 13:37:52</time>
      </trkpt>
      <trkpt lat="38.52607" lon="-0.8116">
        <ele>456.6</ele>
        <time>2022-10-15 13:37:53</time>
      </trkpt>
      <trkpt lat="38.52602" lon="-0.8116">
        <ele>456.4</ele>
        <time>2022-10-15 13:37:54</time>
      </trkpt>
      <trkpt lat="38.52597" lon="-0.8116">
        <ele>456.4</ele>
        <time>2022-10-15 13:37:55</time>
      </trkpt>
      <trkpt lat="38.52586" lon="-0.8116">
        <ele>456.4</ele>
        <time>2022-10-15 13:37:56</time>
      </trkpt>
      <trkpt lat="38.5258" lon="-0.8116">
        <ele>456.4</ele>
        <time>2022-10-15 13:37:57</time>
      </trkpt>
      <trkpt lat="38.52569" lon="-0.81159">
        <ele>456.4</ele>
        <time>2022-10-15 13:37:58</time>
      </trkpt>
      <trkpt lat="38.52563" lon="-0.81159">
        <ele>456.4</ele>
        <time>2022-10-15 13:37:59</time>
      </trkpt>
      <trkpt lat="38.52551" lon="-0.81158">
        <ele>456.4</ele>
        <time>2022-10-15 13:38:01</time>
      </trkpt>
      <trkpt lat="38.52545" lon="-0.81158">
        <ele>456.4</ele>
        <time>2022-10-15 13:38:02</time>
      </trkpt>
      <trkpt lat="38.52539" lon="-0.81158">
        <ele>456.4</ele>
        <time>2022-10-15 13:38:03</time>
      </trkpt>
      <trkpt lat="38.52527" lon="-0.81158">
        <ele>456.4</ele>
        <time>2022-10-15 13:38:05</time>
      </trkpt>
      <trkpt lat="38.52527" lon="-0.81158">
        <ele>456.4</ele>
        <time>2022-10-15 13:38:07</time>
      </trkpt>
      <trkpt lat="38.52515" lon="-0.81157">
        <ele>456.4</ele>
        <time>2022-10-15 13:38:08</time>
      </trkpt>
      <trkpt lat="38.52509" lon="-0.81157">
        <ele>456.4</ele>
        <time>2022-10-15 13:38:09</time>
      </trkpt>
      <trkpt lat="38.52503" lon="-0.81157">
        <ele>456.4</ele>
        <time>2022-10-15 13:38:10</time>
      </trkpt>
      <trkpt lat="38.52491" lon="-0.81156">
        <ele>456.4</ele>
        <time>2022-10-15 13:38:12</time>
      </trkpt>
      <trkpt lat="38.52479" lon="-0.81155">
        <ele>456.2</ele>
        <time>2022-10-15 13:38:13</time>
      </trkpt>
      <trkpt lat="38.52473" lon="-0.81155">
        <ele>456</ele>
        <time>2022-10-15 13:38:14</time>
      </trkpt>
      <trkpt lat="38.52467" lon="-0.81154">
        <ele>456</ele>
        <time>2022-10-15 13:38:15</time>
      </trkpt>
      <trkpt lat="38.52461" lon="-0.81154">
        <ele>455.6</ele>
        <time>2022-10-15 13:38:16</time>
      </trkpt>
      <trkpt lat="38.52455" lon="-0.81154">
        <ele>455.6</ele>
        <time>2022-10-15 13:38:18</time>
      </trkpt>
      <trkpt lat="38.52455" lon="-0.81154">
        <ele>455.6</ele>
        <time>2022-10-15 13:38:20</time>
      </trkpt>
      <trkpt lat="38.52443" lon="-0.81153">
        <ele>455.6</ele>
        <time>2022-10-15 13:38:21</time>
      </trkpt>
      <trkpt lat="38.52437" lon="-0.81153">
        <ele>455.4</ele>
        <time>2022-10-15 13:38:22</time>
      </trkpt>
      <trkpt lat="38.52431" lon="-0.81153">
        <ele>455.4</ele>
        <time>2022-10-15 13:38:23</time>
      </trkpt>
      <trkpt lat="38.52425" lon="-0.81153">
        <ele>455.4</ele>
        <time>2022-10-15 13:38:24</time>
      </trkpt>
      <trkpt lat="38.52419" lon="-0.81153">
        <ele>455.4</ele>
        <time>2022-10-15 13:38:25</time>
      </trkpt>
      <trkpt lat="38.52419" lon="-0.81153">
        <ele>455.4</ele>
        <time>2022-10-15 13:38:26</time>
      </trkpt>
      <trkpt lat="38.524" lon="-0.81151">
        <ele>455.4</ele>
        <time>2022-10-15 13:38:27</time>
      </trkpt>
      <trkpt lat="38.52394" lon="-0.8115">
        <ele>455.4</ele>
        <time>2022-10-15 13:38:28</time>
      </trkpt>
      <trkpt lat="38.52388" lon="-0.81149">
        <ele>455.4</ele>
        <time>2022-10-15 13:38:29</time>
      </trkpt>
      <trkpt lat="38.52382" lon="-0.81148">
        <ele>455.2</ele>
        <time>2022-10-15 13:38:30</time>
      </trkpt>
      <trkpt lat="38.52382" lon="-0.81148">
        <ele>455.2</ele>
        <time>2022-10-15 13:38:31</time>
      </trkpt>
      <trkpt lat="38.5237" lon="-0.81147">
        <ele>455.2</ele>
        <time>2022-10-15 13:38:33</time>
      </trkpt>
      <trkpt lat="38.52364" lon="-0.81146">
        <ele>455.2</ele>
        <time>2022-10-15 13:38:34</time>
      </trkpt>
      <trkpt lat="38.52358" lon="-0.81145">
        <ele>455.2</ele>
        <time>2022-10-15 13:38:35</time>
      </trkpt>
      <trkpt lat="38.52352" lon="-0.81144">
        <ele>455.2</ele>
        <time>2022-10-15 13:38:36</time>
      </trkpt>
      <trkpt lat="38.52346" lon="-0.81143">
        <ele>455.2</ele>
        <time>2022-10-15 13:38:37</time>
      </trkpt>
      <trkpt lat="38.52346" lon="-0.81143">
        <ele>455</ele>
        <time>2022-10-15 13:38:38</time>
      </trkpt>
      <trkpt lat="38.52334" lon="-0.81142">
        <ele>455</ele>
        <time>2022-10-15 13:38:39</time>
      </trkpt>
      <trkpt lat="38.52327" lon="-0.81141">
        <ele>455</ele>
        <time>2022-10-15 13:38:40</time>
      </trkpt>
      <trkpt lat="38.52321" lon="-0.81141">
        <ele>455</ele>
        <time>2022-10-15 13:38:41</time>
      </trkpt>
      <trkpt lat="38.52315" lon="-0.81139">
        <ele>455</ele>
        <time>2022-10-15 13:38:42</time>
      </trkpt>
      <trkpt lat="38.52309" lon="-0.81138">
        <ele>454.8</ele>
        <time>2022-10-15 13:38:43</time>
      </trkpt>
      <trkpt lat="38.52309" lon="-0.81138">
        <ele>454.8</ele>
        <time>2022-10-15 13:38:44</time>
      </trkpt>
      <trkpt lat="38.52297" lon="-0.81137">
        <ele>454.8</ele>
        <time>2022-10-15 13:38:45</time>
      </trkpt>
      <trkpt lat="38.5229" lon="-0.81136">
        <ele>454.8</ele>
        <time>2022-10-15 13:38:46</time>
      </trkpt>
      <trkpt lat="38.52284" lon="-0.81136">
        <ele>454.6</ele>
        <time>2022-10-15 13:38:47</time>
      </trkpt>
      <trkpt lat="38.52277" lon="-0.81135">
        <ele>454.6</ele>
        <time>2022-10-15 13:38:48</time>
      </trkpt>
      <trkpt lat="38.52277" lon="-0.81135">
        <ele>454.4</ele>
        <time>2022-10-15 13:38:49</time>
      </trkpt>
      <trkpt lat="38.52269" lon="-0.81136">
        <ele>454.4</ele>
        <time>2022-10-15 13:38:50</time>
      </trkpt>
      <trkpt lat="38.52254" lon="-0.81134">
        <ele>454.4</ele>
        <time>2022-10-15 13:38:51</time>
      </trkpt>
      <trkpt lat="38.52254" lon="-0.81134">
        <ele>454.2</ele>
        <time>2022-10-15 13:38:52</time>
      </trkpt>
      <trkpt lat="38.5224" lon="-0.81127">
        <ele>454.2</ele>
        <time>2022-10-15 13:38:53</time>
      </trkpt>
      <trkpt lat="38.52234" lon="-0.81124">
        <ele>454.2</ele>
        <time>2022-10-15 13:38:54</time>
      </trkpt>
      <trkpt lat="38.52228" lon="-0.81121">
        <ele>454</ele>
        <time>2022-10-15 13:38:55</time>
      </trkpt>
      <trkpt lat="38.52228" lon="-0.81121">
        <ele>453.8</ele>
        <time>2022-10-15 13:38:56</time>
      </trkpt>
      <trkpt lat="38.52216" lon="-0.81116">
        <ele>453.6</ele>
        <time>2022-10-15 13:38:57</time>
      </trkpt>
      <trkpt lat="38.52211" lon="-0.81114">
        <ele>453.6</ele>
        <time>2022-10-15 13:38:58</time>
      </trkpt>
      <trkpt lat="38.52205" lon="-0.81111">
        <ele>453.4</ele>
        <time>2022-10-15 13:38:59</time>
      </trkpt>
      <trkpt lat="38.522" lon="-0.81109">
        <ele>453.4</ele>
        <time>2022-10-15 13:39:00</time>
      </trkpt>
      <trkpt lat="38.52194" lon="-0.81106">
        <ele>453.2</ele>
        <time>2022-10-15 13:39:01</time>
      </trkpt>
      <trkpt lat="38.52194" lon="-0.81106">
        <ele>453.2</ele>
        <time>2022-10-15 13:39:02</time>
      </trkpt>
      <trkpt lat="38.52181" lon="-0.81101">
        <ele>453</ele>
        <time>2022-10-15 13:39:03</time>
      </trkpt>
      <trkpt lat="38.52175" lon="-0.81098">
        <ele>453</ele>
        <time>2022-10-15 13:39:04</time>
      </trkpt>
      <trkpt lat="38.52168" lon="-0.81095">
        <ele>453</ele>
        <time>2022-10-15 13:39:05</time>
      </trkpt>
      <trkpt lat="38.52161" lon="-0.81092">
        <ele>452.8</ele>
        <time>2022-10-15 13:39:06</time>
      </trkpt>
      <trkpt lat="38.52154" lon="-0.81089">
        <ele>452.8</ele>
        <time>2022-10-15 13:39:07</time>
      </trkpt>
      <trkpt lat="38.52154" lon="-0.81089">
        <ele>452.8</ele>
        <time>2022-10-15 13:39:08</time>
      </trkpt>
      <trkpt lat="38.52138" lon="-0.81082">
        <ele>452.8</ele>
        <time>2022-10-15 13:39:09</time>
      </trkpt>
      <trkpt lat="38.5213" lon="-0.81078">
        <ele>452.8</ele>
        <time>2022-10-15 13:39:10</time>
      </trkpt>
      <trkpt lat="38.52121" lon="-0.81075">
        <ele>452.8</ele>
        <time>2022-10-15 13:39:11</time>
      </trkpt>
      <trkpt lat="38.52112" lon="-0.81072">
        <ele>452.4</ele>
        <time>2022-10-15 13:39:12</time>
      </trkpt>
      <trkpt lat="38.52104" lon="-0.81069">
        <ele>451.4</ele>
        <time>2022-10-15 13:39:13</time>
      </trkpt>
      <trkpt lat="38.52104" lon="-0.81069">
        <ele>450.6</ele>
        <time>2022-10-15 13:39:14</time>
      </trkpt>
      <trkpt lat="38.52088" lon="-0.81061">
        <ele>450.2</ele>
        <time>2022-10-15 13:39:15</time>
      </trkpt>
      <trkpt lat="38.52082" lon="-0.81058">
        <ele>449.6</ele>
        <time>2022-10-15 13:39:16</time>
      </trkpt>
      <trkpt lat="38.52075" lon="-0.81054">
        <ele>448.8</ele>
        <time>2022-10-15 13:39:17</time>
      </trkpt>
      <trkpt lat="38.52068" lon="-0.81051">
        <ele>448.2</ele>
        <time>2022-10-15 13:39:18</time>
      </trkpt>
      <trkpt lat="38.52062" lon="-0.81047">
        <ele>447.8</ele>
        <time>2022-10-15 13:39:19</time>
      </trkpt>
      <trkpt lat="38.52062" lon="-0.81047">
        <ele>447.6</ele>
        <time>2022-10-15 13:39:20</time>
      </trkpt>
      <trkpt lat="38.52049" lon="-0.8104">
        <ele>447.6</ele>
        <time>2022-10-15 13:39:21</time>
      </trkpt>
      <trkpt lat="38.52043" lon="-0.81037">
        <ele>447.4</ele>
        <time>2022-10-15 13:39:22</time>
      </trkpt>
      <trkpt lat="38.52036" lon="-0.81034">
        <ele>447.4</ele>
        <time>2022-10-15 13:39:23</time>
      </trkpt>
      <trkpt lat="38.5203" lon="-0.81032">
        <ele>447.4</ele>
        <time>2022-10-15 13:39:24</time>
      </trkpt>
      <trkpt lat="38.52024" lon="-0.81029">
        <ele>447.4</ele>
        <time>2022-10-15 13:39:25</time>
      </trkpt>
      <trkpt lat="38.52024" lon="-0.81029">
        <ele>447.4</ele>
        <time>2022-10-15 13:39:26</time>
      </trkpt>
      <trkpt lat="38.52012" lon="-0.81025">
        <ele>447.4</ele>
        <time>2022-10-15 13:39:27</time>
      </trkpt>
      <trkpt lat="38.52006" lon="-0.81023">
        <ele>447.6</ele>
        <time>2022-10-15 13:39:28</time>
      </trkpt>
      <trkpt lat="38.52" lon="-0.81021">
        <ele>447.6</ele>
        <time>2022-10-15 13:39:29</time>
      </trkpt>
      <trkpt lat="38.51994" lon="-0.81018">
        <ele>447.6</ele>
        <time>2022-10-15 13:39:30</time>
      </trkpt>
      <trkpt lat="38.51988" lon="-0.81015">
        <ele>447.8</ele>
        <time>2022-10-15 13:39:31</time>
      </trkpt>
      <trkpt lat="38.51988" lon="-0.81015">
        <ele>448.2</ele>
        <time>2022-10-15 13:39:32</time>
      </trkpt>
      <trkpt lat="38.51976" lon="-0.81008">
        <ele>448.4</ele>
        <time>2022-10-15 13:39:33</time>
      </trkpt>
      <trkpt lat="38.5197" lon="-0.81005">
        <ele>448.6</ele>
        <time>2022-10-15 13:39:34</time>
      </trkpt>
      <trkpt lat="38.51965" lon="-0.81003">
        <ele>448.6</ele>
        <time>2022-10-15 13:39:35</time>
      </trkpt>
      <trkpt lat="38.51959" lon="-0.81">
        <ele>448.8</ele>
        <time>2022-10-15 13:39:36</time>
      </trkpt>
      <trkpt lat="38.51953" lon="-0.80997">
        <ele>448.8</ele>
        <time>2022-10-15 13:39:37</time>
      </trkpt>
      <trkpt lat="38.51953" lon="-0.80997">
        <ele>448.8</ele>
        <time>2022-10-15 13:39:38</time>
      </trkpt>
      <trkpt lat="38.51942" lon="-0.80991">
        <ele>448.8</ele>
        <time>2022-10-15 13:39:39</time>
      </trkpt>
      <trkpt lat="38.51936" lon="-0.80988">
        <ele>448.8</ele>
        <time>2022-10-15 13:39:40</time>
      </trkpt>
      <trkpt lat="38.5193" lon="-0.80985">
        <ele>448.8</ele>
        <time>2022-10-15 13:39:41</time>
      </trkpt>
      <trkpt lat="38.51924" lon="-0.80982">
        <ele>448.8</ele>
        <time>2022-10-15 13:39:42</time>
      </trkpt>
      <trkpt lat="38.51919" lon="-0.80979">
        <ele>448.8</ele>
        <time>2022-10-15 13:39:43</time>
      </trkpt>
      <trkpt lat="38.51919" lon="-0.80979">
        <ele>449</ele>
        <time>2022-10-15 13:39:44</time>
      </trkpt>
      <trkpt lat="38.51908" lon="-0.80974">
        <ele>449</ele>
        <time>2022-10-15 13:39:45</time>
      </trkpt>
      <trkpt lat="38.51902" lon="-0.80971">
        <ele>449</ele>
        <time>2022-10-15 13:39:46</time>
      </trkpt>
      <trkpt lat="38.51897" lon="-0.80967">
        <ele>449</ele>
        <time>2022-10-15 13:39:47</time>
      </trkpt>
      <trkpt lat="38.51892" lon="-0.80964">
        <ele>449</ele>
        <time>2022-10-15 13:39:48</time>
      </trkpt>
      <trkpt lat="38.51886" lon="-0.8096">
        <ele>449</ele>
        <time>2022-10-15 13:39:49</time>
      </trkpt>
      <trkpt lat="38.51886" lon="-0.8096">
        <ele>449</ele>
        <time>2022-10-15 13:39:50</time>
      </trkpt>
      <trkpt lat="38.51875" lon="-0.80954">
        <ele>449</ele>
        <time>2022-10-15 13:39:51</time>
      </trkpt>
      <trkpt lat="38.5187" lon="-0.80951">
        <ele>449</ele>
        <time>2022-10-15 13:39:52</time>
      </trkpt>
      <trkpt lat="38.51864" lon="-0.80949">
        <ele>449</ele>
        <time>2022-10-15 13:39:53</time>
      </trkpt>
      <trkpt lat="38.51858" lon="-0.80947">
        <ele>449</ele>
        <time>2022-10-15 13:39:54</time>
      </trkpt>
      <trkpt lat="38.51852" lon="-0.80945">
        <ele>449</ele>
        <time>2022-10-15 13:39:55</time>
      </trkpt>
      <trkpt lat="38.51852" lon="-0.80945">
        <ele>449.2</ele>
        <time>2022-10-15 13:39:56</time>
      </trkpt>
      <trkpt lat="38.51841" lon="-0.8094">
        <ele>449.2</ele>
        <time>2022-10-15 13:39:57</time>
      </trkpt>
      <trkpt lat="38.51835" lon="-0.80937">
        <ele>449.2</ele>
        <time>2022-10-15 13:39:58</time>
      </trkpt>
      <trkpt lat="38.5183" lon="-0.80933">
        <ele>449.2</ele>
        <time>2022-10-15 13:39:59</time>
      </trkpt>
      <trkpt lat="38.51824" lon="-0.8093">
        <ele>449.2</ele>
        <time>2022-10-15 13:40:00</time>
      </trkpt>
      <trkpt lat="38.51819" lon="-0.80926">
        <ele>449.2</ele>
        <time>2022-10-15 13:40:01</time>
      </trkpt>
      <trkpt lat="38.51819" lon="-0.80926">
        <ele>449.2</ele>
        <time>2022-10-15 13:40:02</time>
      </trkpt>
      <trkpt lat="38.51808" lon="-0.8092">
        <ele>449.2</ele>
        <time>2022-10-15 13:40:03</time>
      </trkpt>
      <trkpt lat="38.51802" lon="-0.80917">
        <ele>449.2</ele>
        <time>2022-10-15 13:40:04</time>
      </trkpt>
      <trkpt lat="38.51796" lon="-0.80914">
        <ele>449.4</ele>
        <time>2022-10-15 13:40:05</time>
      </trkpt>
      <trkpt lat="38.51791" lon="-0.80913">
        <ele>449.4</ele>
        <time>2022-10-15 13:40:06</time>
      </trkpt>
      <trkpt lat="38.51785" lon="-0.80911">
        <ele>449.4</ele>
        <time>2022-10-15 13:40:07</time>
      </trkpt>
      <trkpt lat="38.51785" lon="-0.80911">
        <ele>449.4</ele>
        <time>2022-10-15 13:40:08</time>
      </trkpt>
      <trkpt lat="38.51774" lon="-0.80907">
        <ele>449.4</ele>
        <time>2022-10-15 13:40:09</time>
      </trkpt>
      <trkpt lat="38.51769" lon="-0.80905">
        <ele>449.4</ele>
        <time>2022-10-15 13:40:10</time>
      </trkpt>
      <trkpt lat="38.51764" lon="-0.80903">
        <ele>449.4</ele>
        <time>2022-10-15 13:40:11</time>
      </trkpt>
      <trkpt lat="38.51759" lon="-0.80901">
        <ele>449.4</ele>
        <time>2022-10-15 13:40:12</time>
      </trkpt>
      <trkpt lat="38.51755" lon="-0.80899">
        <ele>449.2</ele>
        <time>2022-10-15 13:40:13</time>
      </trkpt>
      <trkpt lat="38.51755" lon="-0.80899">
        <ele>449.2</ele>
        <time>2022-10-15 13:40:14</time>
      </trkpt>
      <trkpt lat="38.51746" lon="-0.80894">
        <ele>449.4</ele>
        <time>2022-10-15 13:40:15</time>
      </trkpt>
      <trkpt lat="38.51741" lon="-0.80891">
        <ele>449.4</ele>
        <time>2022-10-15 13:40:16</time>
      </trkpt>
      <trkpt lat="38.51738" lon="-0.80889">
        <ele>449.4</ele>
        <time>2022-10-15 13:40:17</time>
      </trkpt>
      <trkpt lat="38.51734" lon="-0.80887">
        <ele>449.4</ele>
        <time>2022-10-15 13:40:18</time>
      </trkpt>
      <trkpt lat="38.51731" lon="-0.80884">
        <ele>449.4</ele>
        <time>2022-10-15 13:40:19</time>
      </trkpt>
      <trkpt lat="38.51731" lon="-0.80884">
        <ele>449.4</ele>
        <time>2022-10-15 13:40:20</time>
      </trkpt>
      <trkpt lat="38.51724" lon="-0.80879">
        <ele>449.4</ele>
        <time>2022-10-15 13:40:21</time>
      </trkpt>
      <trkpt lat="38.5172" lon="-0.80877">
        <ele>449.4</ele>
        <time>2022-10-15 13:40:22</time>
      </trkpt>
      <trkpt lat="38.51716" lon="-0.80874">
        <ele>449.4</ele>
        <time>2022-10-15 13:40:23</time>
      </trkpt>
      <trkpt lat="38.51712" lon="-0.80872">
        <ele>449.4</ele>
        <time>2022-10-15 13:40:24</time>
      </trkpt>
      <trkpt lat="38.51708" lon="-0.80869">
        <ele>449.6</ele>
        <time>2022-10-15 13:40:25</time>
      </trkpt>
      <trkpt lat="38.51708" lon="-0.80869">
        <ele>449.6</ele>
        <time>2022-10-15 13:40:26</time>
      </trkpt>
      <trkpt lat="38.51699" lon="-0.80865">
        <ele>449.6</ele>
        <time>2022-10-15 13:40:27</time>
      </trkpt>
      <trkpt lat="38.51695" lon="-0.80862">
        <ele>449.6</ele>
        <time>2022-10-15 13:40:28</time>
      </trkpt>
      <trkpt lat="38.51691" lon="-0.8086">
        <ele>449.6</ele>
        <time>2022-10-15 13:40:29</time>
      </trkpt>
      <trkpt lat="38.51686" lon="-0.80857">
        <ele>449.6</ele>
        <time>2022-10-15 13:40:30</time>
      </trkpt>
      <trkpt lat="38.51682" lon="-0.80855">
        <ele>449.4</ele>
        <time>2022-10-15 13:40:31</time>
      </trkpt>
      <trkpt lat="38.51682" lon="-0.80855">
        <ele>449.4</ele>
        <time>2022-10-15 13:40:32</time>
      </trkpt>
      <trkpt lat="38.51673" lon="-0.80851">
        <ele>449.4</ele>
        <time>2022-10-15 13:40:33</time>
      </trkpt>
      <trkpt lat="38.51669" lon="-0.80849">
        <ele>449.4</ele>
        <time>2022-10-15 13:40:34</time>
      </trkpt>
      <trkpt lat="38.51664" lon="-0.80847">
        <ele>449.4</ele>
        <time>2022-10-15 13:40:35</time>
      </trkpt>
      <trkpt lat="38.5166" lon="-0.80845">
        <ele>449.2</ele>
        <time>2022-10-15 13:40:36</time>
      </trkpt>
      <trkpt lat="38.51655" lon="-0.80843">
        <ele>449.4</ele>
        <time>2022-10-15 13:40:37</time>
      </trkpt>
      <trkpt lat="38.51655" lon="-0.80843">
        <ele>449.2</ele>
        <time>2022-10-15 13:40:38</time>
      </trkpt>
      <trkpt lat="38.51647" lon="-0.80839">
        <ele>449.2</ele>
        <time>2022-10-15 13:40:39</time>
      </trkpt>
      <trkpt lat="38.51642" lon="-0.80836">
        <ele>449.2</ele>
        <time>2022-10-15 13:40:40</time>
      </trkpt>
      <trkpt lat="38.51638" lon="-0.80834">
        <ele>449.2</ele>
        <time>2022-10-15 13:40:41</time>
      </trkpt>
      <trkpt lat="38.51633" lon="-0.80831">
        <ele>449.2</ele>
        <time>2022-10-15 13:40:42</time>
      </trkpt>
      <trkpt lat="38.51629" lon="-0.80829">
        <ele>449</ele>
        <time>2022-10-15 13:40:43</time>
      </trkpt>
      <trkpt lat="38.51629" lon="-0.80829">
        <ele>449</ele>
        <time>2022-10-15 13:40:44</time>
      </trkpt>
      <trkpt lat="38.5162" lon="-0.80824">
        <ele>449</ele>
        <time>2022-10-15 13:40:45</time>
      </trkpt>
      <trkpt lat="38.51616" lon="-0.80823">
        <ele>448.8</ele>
        <time>2022-10-15 13:40:46</time>
      </trkpt>
      <trkpt lat="38.51611" lon="-0.80821">
        <ele>448.8</ele>
        <time>2022-10-15 13:40:47</time>
      </trkpt>
      <trkpt lat="38.51607" lon="-0.80819">
        <ele>448.6</ele>
        <time>2022-10-15 13:40:48</time>
      </trkpt>
      <trkpt lat="38.51602" lon="-0.80817">
        <ele>448.6</ele>
        <time>2022-10-15 13:40:49</time>
      </trkpt>
      <trkpt lat="38.51602" lon="-0.80817">
        <ele>448.4</ele>
        <time>2022-10-15 13:40:50</time>
      </trkpt>
      <trkpt lat="38.51594" lon="-0.80813">
        <ele>448.4</ele>
        <time>2022-10-15 13:40:51</time>
      </trkpt>
      <trkpt lat="38.5159" lon="-0.80811">
        <ele>448.4</ele>
        <time>2022-10-15 13:40:52</time>
      </trkpt>
      <trkpt lat="38.51585" lon="-0.8081">
        <ele>448.2</ele>
        <time>2022-10-15 13:40:53</time>
      </trkpt>
      <trkpt lat="38.51581" lon="-0.80808">
        <ele>448.2</ele>
        <time>2022-10-15 13:40:54</time>
      </trkpt>
      <trkpt lat="38.51577" lon="-0.80806">
        <ele>448.2</ele>
        <time>2022-10-15 13:40:55</time>
      </trkpt>
      <trkpt lat="38.51577" lon="-0.80806">
        <ele>448</ele>
        <time>2022-10-15 13:40:56</time>
      </trkpt>
      <trkpt lat="38.51568" lon="-0.80801">
        <ele>448</ele>
        <time>2022-10-15 13:40:57</time>
      </trkpt>
      <trkpt lat="38.51564" lon="-0.80799">
        <ele>448</ele>
        <time>2022-10-15 13:40:58</time>
      </trkpt>
      <trkpt lat="38.5156" lon="-0.80797">
        <ele>448</ele>
        <time>2022-10-15 13:40:59</time>
      </trkpt>
      <trkpt lat="38.51555" lon="-0.80796">
        <ele>448</ele>
        <time>2022-10-15 13:41:00</time>
      </trkpt>
      <trkpt lat="38.51555" lon="-0.80796">
        <ele>448</ele>
        <time>2022-10-15 13:41:01</time>
      </trkpt>
      <trkpt lat="38.51551" lon="-0.80794">
        <ele>447.8</ele>
        <time>2022-10-15 13:41:02</time>
      </trkpt>
      <trkpt lat="38.51542" lon="-0.8079">
        <ele>447.8</ele>
        <time>2022-10-15 13:41:03</time>
      </trkpt>
      <trkpt lat="38.51537" lon="-0.80788">
        <ele>447.6</ele>
        <time>2022-10-15 13:41:04</time>
      </trkpt>
      <trkpt lat="38.51533" lon="-0.80786">
        <ele>447.6</ele>
        <time>2022-10-15 13:41:05</time>
      </trkpt>
      <trkpt lat="38.51528" lon="-0.80784">
        <ele>447.6</ele>
        <time>2022-10-15 13:41:06</time>
      </trkpt>
      <trkpt lat="38.51524" lon="-0.80782">
        <ele>447.4</ele>
        <time>2022-10-15 13:41:07</time>
      </trkpt>
      <trkpt lat="38.51524" lon="-0.80782">
        <ele>447.4</ele>
        <time>2022-10-15 13:41:08</time>
      </trkpt>
      <trkpt lat="38.51514" lon="-0.80778">
        <ele>447.4</ele>
        <time>2022-10-15 13:41:09</time>
      </trkpt>
      <trkpt lat="38.5151" lon="-0.80776">
        <ele>447.2</ele>
        <time>2022-10-15 13:41:10</time>
      </trkpt>
      <trkpt lat="38.51505" lon="-0.80773">
        <ele>447.2</ele>
        <time>2022-10-15 13:41:11</time>
      </trkpt>
      <trkpt lat="38.515" lon="-0.80771">
        <ele>447.2</ele>
        <time>2022-10-15 13:41:12</time>
      </trkpt>
      <trkpt lat="38.51495" lon="-0.80768">
        <ele>447</ele>
        <time>2022-10-15 13:41:13</time>
      </trkpt>
      <trkpt lat="38.51495" lon="-0.80768">
        <ele>447</ele>
        <time>2022-10-15 13:41:14</time>
      </trkpt>
      <trkpt lat="38.51486" lon="-0.80764">
        <ele>447</ele>
        <time>2022-10-15 13:41:15</time>
      </trkpt>
      <trkpt lat="38.51481" lon="-0.80761">
        <ele>447</ele>
        <time>2022-10-15 13:41:16</time>
      </trkpt>
      <trkpt lat="38.51476" lon="-0.80759">
        <ele>446.8</ele>
        <time>2022-10-15 13:41:17</time>
      </trkpt>
      <trkpt lat="38.51472" lon="-0.80757">
        <ele>446.4</ele>
        <time>2022-10-15 13:41:18</time>
      </trkpt>
      <trkpt lat="38.51467" lon="-0.80754">
        <ele>446.2</ele>
        <time>2022-10-15 13:41:19</time>
      </trkpt>
      <trkpt lat="38.51467" lon="-0.80754">
        <ele>446.2</ele>
        <time>2022-10-15 13:41:20</time>
      </trkpt>
      <trkpt lat="38.51458" lon="-0.80749">
        <ele>446</ele>
        <time>2022-10-15 13:41:21</time>
      </trkpt>
      <trkpt lat="38.51454" lon="-0.80747">
        <ele>446</ele>
        <time>2022-10-15 13:41:22</time>
      </trkpt>
      <trkpt lat="38.51449" lon="-0.80746">
        <ele>445.8</ele>
        <time>2022-10-15 13:41:23</time>
      </trkpt>
      <trkpt lat="38.51444" lon="-0.80744">
        <ele>445.8</ele>
        <time>2022-10-15 13:41:24</time>
      </trkpt>
      <trkpt lat="38.5144" lon="-0.80742">
        <ele>445.6</ele>
        <time>2022-10-15 13:41:25</time>
      </trkpt>
      <trkpt lat="38.5144" lon="-0.80742">
        <ele>445.4</ele>
        <time>2022-10-15 13:41:26</time>
      </trkpt>
      <trkpt lat="38.5143" lon="-0.80738">
        <ele>445.4</ele>
        <time>2022-10-15 13:41:27</time>
      </trkpt>
      <trkpt lat="38.51426" lon="-0.80736">
        <ele>445.4</ele>
        <time>2022-10-15 13:41:28</time>
      </trkpt>
      <trkpt lat="38.51421" lon="-0.80734">
        <ele>445.4</ele>
        <time>2022-10-15 13:41:29</time>
      </trkpt>
      <trkpt lat="38.51416" lon="-0.80732">
        <ele>445.2</ele>
        <time>2022-10-15 13:41:30</time>
      </trkpt>
      <trkpt lat="38.51411" lon="-0.8073">
        <ele>445.2</ele>
        <time>2022-10-15 13:41:31</time>
      </trkpt>
      <trkpt lat="38.51411" lon="-0.8073">
        <ele>445.2</ele>
        <time>2022-10-15 13:41:32</time>
      </trkpt>
      <trkpt lat="38.51402" lon="-0.80725">
        <ele>445.2</ele>
        <time>2022-10-15 13:41:33</time>
      </trkpt>
      <trkpt lat="38.51397" lon="-0.80723">
        <ele>445.2</ele>
        <time>2022-10-15 13:41:34</time>
      </trkpt>
      <trkpt lat="38.51392" lon="-0.80721">
        <ele>445</ele>
        <time>2022-10-15 13:41:35</time>
      </trkpt>
      <trkpt lat="38.51387" lon="-0.8072">
        <ele>445</ele>
        <time>2022-10-15 13:41:36</time>
      </trkpt>
      <trkpt lat="38.51382" lon="-0.80718">
        <ele>445</ele>
        <time>2022-10-15 13:41:37</time>
      </trkpt>
      <trkpt lat="38.51382" lon="-0.80718">
        <ele>444.8</ele>
        <time>2022-10-15 13:41:38</time>
      </trkpt>
      <trkpt lat="38.51373" lon="-0.80715">
        <ele>444.8</ele>
        <time>2022-10-15 13:41:39</time>
      </trkpt>
      <trkpt lat="38.51368" lon="-0.80713">
        <ele>444.8</ele>
        <time>2022-10-15 13:41:40</time>
      </trkpt>
      <trkpt lat="38.51364" lon="-0.80711">
        <ele>444.6</ele>
        <time>2022-10-15 13:41:41</time>
      </trkpt>
      <trkpt lat="38.51359" lon="-0.8071">
        <ele>444.6</ele>
        <time>2022-10-15 13:41:42</time>
      </trkpt>
      <trkpt lat="38.51355" lon="-0.80708">
        <ele>444.6</ele>
        <time>2022-10-15 13:41:43</time>
      </trkpt>
      <trkpt lat="38.51355" lon="-0.80708">
        <ele>444.6</ele>
        <time>2022-10-15 13:41:44</time>
      </trkpt>
      <trkpt lat="38.51347" lon="-0.80704">
        <ele>444.6</ele>
        <time>2022-10-15 13:41:45</time>
      </trkpt>
      <trkpt lat="38.51343" lon="-0.80702">
        <ele>444.6</ele>
        <time>2022-10-15 13:41:46</time>
      </trkpt>
      <trkpt lat="38.51339" lon="-0.807">
        <ele>444.6</ele>
        <time>2022-10-15 13:41:47</time>
      </trkpt>
      <trkpt lat="38.51336" lon="-0.80698">
        <ele>444.6</ele>
        <time>2022-10-15 13:41:48</time>
      </trkpt>
      <trkpt lat="38.51332" lon="-0.80695">
        <ele>444.6</ele>
        <time>2022-10-15 13:41:49</time>
      </trkpt>
      <trkpt lat="38.51332" lon="-0.80695">
        <ele>444.6</ele>
        <time>2022-10-15 13:41:50</time>
      </trkpt>
      <trkpt lat="38.51324" lon="-0.8069">
        <ele>444.6</ele>
        <time>2022-10-15 13:41:51</time>
      </trkpt>
      <trkpt lat="38.5132" lon="-0.80688">
        <ele>444.8</ele>
        <time>2022-10-15 13:41:52</time>
      </trkpt>
      <trkpt lat="38.51316" lon="-0.80686">
        <ele>444.8</ele>
        <time>2022-10-15 13:41:53</time>
      </trkpt>
      <trkpt lat="38.51312" lon="-0.80685">
        <ele>444.8</ele>
        <time>2022-10-15 13:41:54</time>
      </trkpt>
      <trkpt lat="38.51308" lon="-0.80683">
        <ele>445</ele>
        <time>2022-10-15 13:41:55</time>
      </trkpt>
      <trkpt lat="38.51308" lon="-0.80683">
        <ele>445</ele>
        <time>2022-10-15 13:41:56</time>
      </trkpt>
      <trkpt lat="38.51301" lon="-0.80678">
        <ele>445.2</ele>
        <time>2022-10-15 13:41:57</time>
      </trkpt>
      <trkpt lat="38.51297" lon="-0.80676">
        <ele>445.2</ele>
        <time>2022-10-15 13:41:58</time>
      </trkpt>
      <trkpt lat="38.51293" lon="-0.80674">
        <ele>445.2</ele>
        <time>2022-10-15 13:41:59</time>
      </trkpt>
      <trkpt lat="38.51289" lon="-0.80672">
        <ele>445.2</ele>
        <time>2022-10-15 13:42:00</time>
      </trkpt>
      <trkpt lat="38.51285" lon="-0.8067">
        <ele>445.4</ele>
        <time>2022-10-15 13:42:01</time>
      </trkpt>
      <trkpt lat="38.51285" lon="-0.8067">
        <ele>445.4</ele>
        <time>2022-10-15 13:42:02</time>
      </trkpt>
      <trkpt lat="38.51277" lon="-0.80665">
        <ele>445.6</ele>
        <time>2022-10-15 13:42:03</time>
      </trkpt>
      <trkpt lat="38.51273" lon="-0.80663">
        <ele>445.6</ele>
        <time>2022-10-15 13:42:04</time>
      </trkpt>
      <trkpt lat="38.5127" lon="-0.8066">
        <ele>445.8</ele>
        <time>2022-10-15 13:42:05</time>
      </trkpt>
      <trkpt lat="38.51266" lon="-0.80658">
        <ele>445.8</ele>
        <time>2022-10-15 13:42:06</time>
      </trkpt>
      <trkpt lat="38.51262" lon="-0.80655">
        <ele>445.8</ele>
        <time>2022-10-15 13:42:07</time>
      </trkpt>
      <trkpt lat="38.51262" lon="-0.80655">
        <ele>446</ele>
        <time>2022-10-15 13:42:08</time>
      </trkpt>
      <trkpt lat="38.51256" lon="-0.8065">
        <ele>446</ele>
        <time>2022-10-15 13:42:09</time>
      </trkpt>
      <trkpt lat="38.51253" lon="-0.80647">
        <ele>446.2</ele>
        <time>2022-10-15 13:42:10</time>
      </trkpt>
      <trkpt lat="38.5125" lon="-0.80645">
        <ele>446.4</ele>
        <time>2022-10-15 13:42:11</time>
      </trkpt>
      <trkpt lat="38.51247" lon="-0.80642">
        <ele>446.4</ele>
        <time>2022-10-15 13:42:12</time>
      </trkpt>
      <trkpt lat="38.51244" lon="-0.8064">
        <ele>446.4</ele>
        <time>2022-10-15 13:42:13</time>
      </trkpt>
      <trkpt lat="38.51244" lon="-0.8064">
        <ele>446.6</ele>
        <time>2022-10-15 13:42:14</time>
      </trkpt>
      <trkpt lat="38.51238" lon="-0.80636">
        <ele>446.6</ele>
        <time>2022-10-15 13:42:15</time>
      </trkpt>
      <trkpt lat="38.51235" lon="-0.80633">
        <ele>446.6</ele>
        <time>2022-10-15 13:42:16</time>
      </trkpt>
      <trkpt lat="38.51233" lon="-0.80632">
        <ele>446.8</ele>
        <time>2022-10-15 13:42:17</time>
      </trkpt>
      <trkpt lat="38.51229" lon="-0.8063">
        <ele>447</ele>
        <time>2022-10-15 13:42:18</time>
      </trkpt>
      <trkpt lat="38.51226" lon="-0.80628">
        <ele>447.4</ele>
        <time>2022-10-15 13:42:19</time>
      </trkpt>
      <trkpt lat="38.51226" lon="-0.80628">
        <ele>447.4</ele>
        <time>2022-10-15 13:42:20</time>
      </trkpt>
      <trkpt lat="38.5122" lon="-0.80625">
        <ele>447.6</ele>
        <time>2022-10-15 13:42:21</time>
      </trkpt>
      <trkpt lat="38.51216" lon="-0.80623">
        <ele>448</ele>
        <time>2022-10-15 13:42:22</time>
      </trkpt>
      <trkpt lat="38.51212" lon="-0.80621">
        <ele>448.4</ele>
        <time>2022-10-15 13:42:23</time>
      </trkpt>
      <trkpt lat="38.51209" lon="-0.8062">
        <ele>449</ele>
        <time>2022-10-15 13:42:24</time>
      </trkpt>
      <trkpt lat="38.51205" lon="-0.80618">
        <ele>449</ele>
        <time>2022-10-15 13:42:25</time>
      </trkpt>
      <trkpt lat="38.51205" lon="-0.80618">
        <ele>449.2</ele>
        <time>2022-10-15 13:42:26</time>
      </trkpt>
      <trkpt lat="38.51197" lon="-0.80613">
        <ele>449.2</ele>
        <time>2022-10-15 13:42:27</time>
      </trkpt>
      <trkpt lat="38.51194" lon="-0.80611">
        <ele>449.4</ele>
        <time>2022-10-15 13:42:28</time>
      </trkpt>
      <trkpt lat="38.5119" lon="-0.80608">
        <ele>449.4</ele>
        <time>2022-10-15 13:42:29</time>
      </trkpt>
      <trkpt lat="38.51186" lon="-0.80605">
        <ele>449.4</ele>
        <time>2022-10-15 13:42:30</time>
      </trkpt>
      <trkpt lat="38.51183" lon="-0.80601">
        <ele>449.4</ele>
        <time>2022-10-15 13:42:31</time>
      </trkpt>
      <trkpt lat="38.51183" lon="-0.80601">
        <ele>449.4</ele>
        <time>2022-10-15 13:42:32</time>
      </trkpt>
      <trkpt lat="38.51175" lon="-0.80596">
        <ele>449.4</ele>
        <time>2022-10-15 13:42:33</time>
      </trkpt>
      <trkpt lat="38.51171" lon="-0.80593">
        <ele>449.4</ele>
        <time>2022-10-15 13:42:34</time>
      </trkpt>
      <trkpt lat="38.51167" lon="-0.80591">
        <ele>449.4</ele>
        <time>2022-10-15 13:42:35</time>
      </trkpt>
      <trkpt lat="38.51163" lon="-0.80589">
        <ele>449.4</ele>
        <time>2022-10-15 13:42:36</time>
      </trkpt>
      <trkpt lat="38.51159" lon="-0.80587">
        <ele>449.2</ele>
        <time>2022-10-15 13:42:37</time>
      </trkpt>
      <trkpt lat="38.51159" lon="-0.80587">
        <ele>449.2</ele>
        <time>2022-10-15 13:42:38</time>
      </trkpt>
      <trkpt lat="38.51151" lon="-0.80584">
        <ele>449.2</ele>
        <time>2022-10-15 13:42:39</time>
      </trkpt>
      <trkpt lat="38.51147" lon="-0.80582">
        <ele>449.2</ele>
        <time>2022-10-15 13:42:40</time>
      </trkpt>
      <trkpt lat="38.51139" lon="-0.80579">
        <ele>449</ele>
        <time>2022-10-15 13:42:41</time>
      </trkpt>
      <trkpt lat="38.51135" lon="-0.80577">
        <ele>449</ele>
        <time>2022-10-15 13:42:42</time>
      </trkpt>
      <trkpt lat="38.51135" lon="-0.80577">
        <ele>449</ele>
        <time>2022-10-15 13:42:43</time>
      </trkpt>
      <trkpt lat="38.51128" lon="-0.80573">
        <ele>448.8</ele>
        <time>2022-10-15 13:42:44</time>
      </trkpt>
      <trkpt lat="38.51124" lon="-0.80571">
        <ele>448.8</ele>
        <time>2022-10-15 13:42:45</time>
      </trkpt>
      <trkpt lat="38.5112" lon="-0.8057">
        <ele>448.8</ele>
        <time>2022-10-15 13:42:47</time>
      </trkpt>
      <trkpt lat="38.51116" lon="-0.80568">
        <ele>448.8</ele>
        <time>2022-10-15 13:42:48</time>
      </trkpt>
      <trkpt lat="38.51112" lon="-0.80566">
        <ele>448.6</ele>
        <time>2022-10-15 13:42:49</time>
      </trkpt>
      <trkpt lat="38.51105" lon="-0.80563">
        <ele>448.4</ele>
        <time>2022-10-15 13:42:50</time>
      </trkpt>
      <trkpt lat="38.51101" lon="-0.80561">
        <ele>448.4</ele>
        <time>2022-10-15 13:42:51</time>
      </trkpt>
      <trkpt lat="38.51093" lon="-0.80559">
        <ele>448.4</ele>
        <time>2022-10-15 13:42:52</time>
      </trkpt>
      <trkpt lat="38.5109" lon="-0.80557">
        <ele>448.4</ele>
        <time>2022-10-15 13:42:53</time>
      </trkpt>
      <trkpt lat="38.51079" lon="-0.80552">
        <ele>448.6</ele>
        <time>2022-10-15 13:42:54</time>
      </trkpt>
      <trkpt lat="38.51075" lon="-0.8055">
        <ele>448.6</ele>
        <time>2022-10-15 13:42:56</time>
      </trkpt>
      <trkpt lat="38.51072" lon="-0.80548">
        <ele>448.6</ele>
        <time>2022-10-15 13:42:57</time>
      </trkpt>
      <trkpt lat="38.51068" lon="-0.80546">
        <ele>448.6</ele>
        <time>2022-10-15 13:42:59</time>
      </trkpt>
      <trkpt lat="38.51068" lon="-0.80546">
        <ele>448.6</ele>
        <time>2022-10-15 13:43:01</time>
      </trkpt>
      <trkpt lat="38.51056" lon="-0.80541">
        <ele>448.8</ele>
        <time>2022-10-15 13:43:03</time>
      </trkpt>
      <trkpt lat="38.51053" lon="-0.80539">
        <ele>448.8</ele>
        <time>2022-10-15 13:43:04</time>
      </trkpt>
      <trkpt lat="38.51049" lon="-0.80538">
        <ele>448.8</ele>
        <time>2022-10-15 13:43:05</time>
      </trkpt>
      <trkpt lat="38.51046" lon="-0.80536">
        <ele>448.8</ele>
        <time>2022-10-15 13:43:06</time>
      </trkpt>
      <trkpt lat="38.51046" lon="-0.80536">
        <ele>448.8</ele>
        <time>2022-10-15 13:43:07</time>
      </trkpt>
      <trkpt lat="38.51038" lon="-0.80532">
        <ele>448.8</ele>
        <time>2022-10-15 13:43:09</time>
      </trkpt>
      <trkpt lat="38.51035" lon="-0.80531">
        <ele>448.6</ele>
        <time>2022-10-15 13:43:10</time>
      </trkpt>
      <trkpt lat="38.51032" lon="-0.80529">
        <ele>448.6</ele>
        <time>2022-10-15 13:43:11</time>
      </trkpt>
      <trkpt lat="38.51028" lon="-0.80527">
        <ele>448.6</ele>
        <time>2022-10-15 13:43:12</time>
      </trkpt>
      <trkpt lat="38.51025" lon="-0.80525">
        <ele>448.4</ele>
        <time>2022-10-15 13:43:13</time>
      </trkpt>
      <trkpt lat="38.51025" lon="-0.80525">
        <ele>448.4</ele>
        <time>2022-10-15 13:43:14</time>
      </trkpt>
      <trkpt lat="38.51018" lon="-0.80521">
        <ele>448.4</ele>
        <time>2022-10-15 13:43:15</time>
      </trkpt>
      <trkpt lat="38.51014" lon="-0.8052">
        <ele>448.4</ele>
        <time>2022-10-15 13:43:16</time>
      </trkpt>
      <trkpt lat="38.51011" lon="-0.80518">
        <ele>448.4</ele>
        <time>2022-10-15 13:43:17</time>
      </trkpt>
      <trkpt lat="38.51007" lon="-0.80517">
        <ele>448.4</ele>
        <time>2022-10-15 13:43:18</time>
      </trkpt>
      <trkpt lat="38.51004" lon="-0.80515">
        <ele>448.4</ele>
        <time>2022-10-15 13:43:19</time>
      </trkpt>
      <trkpt lat="38.51004" lon="-0.80515">
        <ele>448.4</ele>
        <time>2022-10-15 13:43:20</time>
      </trkpt>
      <trkpt lat="38.50997" lon="-0.80512">
        <ele>448.4</ele>
        <time>2022-10-15 13:43:21</time>
      </trkpt>
      <trkpt lat="38.50993" lon="-0.8051">
        <ele>448.4</ele>
        <time>2022-10-15 13:43:22</time>
      </trkpt>
      <trkpt lat="38.5099" lon="-0.80508">
        <ele>448.4</ele>
        <time>2022-10-15 13:43:23</time>
      </trkpt>
      <trkpt lat="38.50986" lon="-0.80506">
        <ele>448.6</ele>
        <time>2022-10-15 13:43:24</time>
      </trkpt>
      <trkpt lat="38.50982" lon="-0.80504">
        <ele>448.6</ele>
        <time>2022-10-15 13:43:25</time>
      </trkpt>
      <trkpt lat="38.50982" lon="-0.80504">
        <ele>448.6</ele>
        <time>2022-10-15 13:43:26</time>
      </trkpt>
      <trkpt lat="38.50975" lon="-0.805">
        <ele>448.8</ele>
        <time>2022-10-15 13:43:27</time>
      </trkpt>
      <trkpt lat="38.50971" lon="-0.80499">
        <ele>448.8</ele>
        <time>2022-10-15 13:43:28</time>
      </trkpt>
      <trkpt lat="38.50967" lon="-0.80497">
        <ele>448.8</ele>
        <time>2022-10-15 13:43:29</time>
      </trkpt>
      <trkpt lat="38.50963" lon="-0.80495">
        <ele>448.8</ele>
        <time>2022-10-15 13:43:30</time>
      </trkpt>
      <trkpt lat="38.50959" lon="-0.80494">
        <ele>448.8</ele>
        <time>2022-10-15 13:43:31</time>
      </trkpt>
      <trkpt lat="38.50959" lon="-0.80494">
        <ele>448.8</ele>
        <time>2022-10-15 13:43:32</time>
      </trkpt>
      <trkpt lat="38.50951" lon="-0.8049">
        <ele>448.8</ele>
        <time>2022-10-15 13:43:33</time>
      </trkpt>
      <trkpt lat="38.50947" lon="-0.80488">
        <ele>448.8</ele>
        <time>2022-10-15 13:43:34</time>
      </trkpt>
      <trkpt lat="38.50943" lon="-0.80486">
        <ele>448.6</ele>
        <time>2022-10-15 13:43:35</time>
      </trkpt>
      <trkpt lat="38.50939" lon="-0.80484">
        <ele>448.4</ele>
        <time>2022-10-15 13:43:36</time>
      </trkpt>
      <trkpt lat="38.50935" lon="-0.80482">
        <ele>448.4</ele>
        <time>2022-10-15 13:43:37</time>
      </trkpt>
      <trkpt lat="38.50935" lon="-0.80482">
        <ele>448.2</ele>
        <time>2022-10-15 13:43:38</time>
      </trkpt>
      <trkpt lat="38.50927" lon="-0.80477">
        <ele>448.2</ele>
        <time>2022-10-15 13:43:39</time>
      </trkpt>
      <trkpt lat="38.50923" lon="-0.80475">
        <ele>448.2</ele>
        <time>2022-10-15 13:43:40</time>
      </trkpt>
      <trkpt lat="38.50919" lon="-0.80473">
        <ele>448</ele>
        <time>2022-10-15 13:43:41</time>
      </trkpt>
      <trkpt lat="38.50915" lon="-0.8047">
        <ele>448</ele>
        <time>2022-10-15 13:43:42</time>
      </trkpt>
      <trkpt lat="38.50911" lon="-0.80468">
        <ele>448</ele>
        <time>2022-10-15 13:43:43</time>
      </trkpt>
      <trkpt lat="38.50911" lon="-0.80468">
        <ele>448</ele>
        <time>2022-10-15 13:43:44</time>
      </trkpt>
      <trkpt lat="38.50902" lon="-0.80464">
        <ele>448</ele>
        <time>2022-10-15 13:43:45</time>
      </trkpt>
      <trkpt lat="38.50898" lon="-0.80461">
        <ele>448</ele>
        <time>2022-10-15 13:43:46</time>
      </trkpt>
      <trkpt lat="38.50893" lon="-0.80459">
        <ele>447.8</ele>
        <time>2022-10-15 13:43:47</time>
      </trkpt>
      <trkpt lat="38.50889" lon="-0.80458">
        <ele>447.8</ele>
        <time>2022-10-15 13:43:48</time>
      </trkpt>
      <trkpt lat="38.50884" lon="-0.80456">
        <ele>447.8</ele>
        <time>2022-10-15 13:43:49</time>
      </trkpt>
      <trkpt lat="38.50884" lon="-0.80456">
        <ele>447.6</ele>
        <time>2022-10-15 13:43:50</time>
      </trkpt>
      <trkpt lat="38.50875" lon="-0.80452">
        <ele>447.6</ele>
        <time>2022-10-15 13:43:51</time>
      </trkpt>
      <trkpt lat="38.50871" lon="-0.8045">
        <ele>447.6</ele>
        <time>2022-10-15 13:43:52</time>
      </trkpt>
      <trkpt lat="38.50866" lon="-0.80447">
        <ele>447.4</ele>
        <time>2022-10-15 13:43:53</time>
      </trkpt>
      <trkpt lat="38.50861" lon="-0.80445">
        <ele>447.4</ele>
        <time>2022-10-15 13:43:54</time>
      </trkpt>
      <trkpt lat="38.50857" lon="-0.80442">
        <ele>447.2</ele>
        <time>2022-10-15 13:43:55</time>
      </trkpt>
      <trkpt lat="38.50857" lon="-0.80442">
        <ele>447.2</ele>
        <time>2022-10-15 13:43:56</time>
      </trkpt>
      <trkpt lat="38.50848" lon="-0.80437">
        <ele>447</ele>
        <time>2022-10-15 13:43:57</time>
      </trkpt>
      <trkpt lat="38.50843" lon="-0.80435">
        <ele>446.8</ele>
        <time>2022-10-15 13:43:58</time>
      </trkpt>
      <trkpt lat="38.50839" lon="-0.80432">
        <ele>446.6</ele>
        <time>2022-10-15 13:43:59</time>
      </trkpt>
      <trkpt lat="38.50834" lon="-0.8043">
        <ele>446.6</ele>
        <time>2022-10-15 13:44:00</time>
      </trkpt>
      <trkpt lat="38.5083" lon="-0.80427">
        <ele>446.6</ele>
        <time>2022-10-15 13:44:01</time>
      </trkpt>
      <trkpt lat="38.5083" lon="-0.80427">
        <ele>446.4</ele>
        <time>2022-10-15 13:44:02</time>
      </trkpt>
      <trkpt lat="38.50821" lon="-0.80422">
        <ele>446.4</ele>
        <time>2022-10-15 13:44:03</time>
      </trkpt>
      <trkpt lat="38.50816" lon="-0.8042">
        <ele>446.2</ele>
        <time>2022-10-15 13:44:04</time>
      </trkpt>
      <trkpt lat="38.50811" lon="-0.80417">
        <ele>446.2</ele>
        <time>2022-10-15 13:44:05</time>
      </trkpt>
      <trkpt lat="38.50806" lon="-0.80415">
        <ele>446.2</ele>
        <time>2022-10-15 13:44:06</time>
      </trkpt>
      <trkpt lat="38.50802" lon="-0.80413">
        <ele>446.2</ele>
        <time>2022-10-15 13:44:07</time>
      </trkpt>
      <trkpt lat="38.50802" lon="-0.80413">
        <ele>446.2</ele>
        <time>2022-10-15 13:44:08</time>
      </trkpt>
      <trkpt lat="38.50792" lon="-0.80408">
        <ele>446.2</ele>
        <time>2022-10-15 13:44:09</time>
      </trkpt>
      <trkpt lat="38.50787" lon="-0.80405">
        <ele>446</ele>
        <time>2022-10-15 13:44:10</time>
      </trkpt>
      <trkpt lat="38.50782" lon="-0.80403">
        <ele>446</ele>
        <time>2022-10-15 13:44:11</time>
      </trkpt>
      <trkpt lat="38.50778" lon="-0.804">
        <ele>446</ele>
        <time>2022-10-15 13:44:12</time>
      </trkpt>
      <trkpt lat="38.50773" lon="-0.80398">
        <ele>445.8</ele>
        <time>2022-10-15 13:44:13</time>
      </trkpt>
      <trkpt lat="38.50773" lon="-0.80398">
        <ele>445.8</ele>
        <time>2022-10-15 13:44:14</time>
      </trkpt>
      <trkpt lat="38.50763" lon="-0.80394">
        <ele>445.6</ele>
        <time>2022-10-15 13:44:15</time>
      </trkpt>
      <trkpt lat="38.50758" lon="-0.80392">
        <ele>445.6</ele>
        <time>2022-10-15 13:44:16</time>
      </trkpt>
      <trkpt lat="38.50753" lon="-0.80389">
        <ele>445.4</ele>
        <time>2022-10-15 13:44:17</time>
      </trkpt>
      <trkpt lat="38.50748" lon="-0.80387">
        <ele>445.4</ele>
        <time>2022-10-15 13:44:18</time>
      </trkpt>
      <trkpt lat="38.50743" lon="-0.80385">
        <ele>445.2</ele>
        <time>2022-10-15 13:44:19</time>
      </trkpt>
      <trkpt lat="38.50743" lon="-0.80385">
        <ele>445</ele>
        <time>2022-10-15 13:44:20</time>
      </trkpt>
      <trkpt lat="38.50734" lon="-0.8038">
        <ele>445</ele>
        <time>2022-10-15 13:44:21</time>
      </trkpt>
      <trkpt lat="38.50729" lon="-0.80377">
        <ele>445</ele>
        <time>2022-10-15 13:44:22</time>
      </trkpt>
      <trkpt lat="38.50725" lon="-0.80375">
        <ele>445</ele>
        <time>2022-10-15 13:44:23</time>
      </trkpt>
      <trkpt lat="38.5072" lon="-0.80373">
        <ele>444.8</ele>
        <time>2022-10-15 13:44:24</time>
      </trkpt>
      <trkpt lat="38.50716" lon="-0.8037">
        <ele>444.6</ele>
        <time>2022-10-15 13:44:25</time>
      </trkpt>
      <trkpt lat="38.50716" lon="-0.8037">
        <ele>444.2</ele>
        <time>2022-10-15 13:44:26</time>
      </trkpt>
      <trkpt lat="38.50707" lon="-0.80366">
        <ele>444</ele>
        <time>2022-10-15 13:44:27</time>
      </trkpt>
      <trkpt lat="38.50702" lon="-0.80363">
        <ele>444</ele>
        <time>2022-10-15 13:44:28</time>
      </trkpt>
      <trkpt lat="38.50698" lon="-0.80361">
        <ele>444</ele>
        <time>2022-10-15 13:44:29</time>
      </trkpt>
      <trkpt lat="38.50694" lon="-0.80359">
        <ele>443.8</ele>
        <time>2022-10-15 13:44:30</time>
      </trkpt>
      <trkpt lat="38.50689" lon="-0.80357">
        <ele>444</ele>
        <time>2022-10-15 13:44:31</time>
      </trkpt>
      <trkpt lat="38.50689" lon="-0.80357">
        <ele>443.8</ele>
        <time>2022-10-15 13:44:32</time>
      </trkpt>
      <trkpt lat="38.5068" lon="-0.80352">
        <ele>443.6</ele>
        <time>2022-10-15 13:44:33</time>
      </trkpt>
      <trkpt lat="38.50676" lon="-0.8035">
        <ele>443.8</ele>
        <time>2022-10-15 13:44:34</time>
      </trkpt>
      <trkpt lat="38.50672" lon="-0.80347">
        <ele>443.8</ele>
        <time>2022-10-15 13:44:35</time>
      </trkpt>
      <trkpt lat="38.50667" lon="-0.80345">
        <ele>443.8</ele>
        <time>2022-10-15 13:44:36</time>
      </trkpt>
      <trkpt lat="38.50663" lon="-0.80342">
        <ele>443.8</ele>
        <time>2022-10-15 13:44:37</time>
      </trkpt>
      <trkpt lat="38.50663" lon="-0.80342">
        <ele>443.8</ele>
        <time>2022-10-15 13:44:38</time>
      </trkpt>
      <trkpt lat="38.50654" lon="-0.80337">
        <ele>443.8</ele>
        <time>2022-10-15 13:44:39</time>
      </trkpt>
      <trkpt lat="38.5065" lon="-0.80335">
        <ele>443.8</ele>
        <time>2022-10-15 13:44:40</time>
      </trkpt>
      <trkpt lat="38.50645" lon="-0.80333">
        <ele>443.8</ele>
        <time>2022-10-15 13:44:41</time>
      </trkpt>
      <trkpt lat="38.5064" lon="-0.80331">
        <ele>443.8</ele>
        <time>2022-10-15 13:44:42</time>
      </trkpt>
      <trkpt lat="38.50636" lon="-0.80328">
        <ele>443.8</ele>
        <time>2022-10-15 13:44:43</time>
      </trkpt>
      <trkpt lat="38.50636" lon="-0.80328">
        <ele>443.8</ele>
        <time>2022-10-15 13:44:44</time>
      </trkpt>
      <trkpt lat="38.50627" lon="-0.80324">
        <ele>443.8</ele>
        <time>2022-10-15 13:44:45</time>
      </trkpt>
      <trkpt lat="38.50623" lon="-0.80321">
        <ele>443.8</ele>
        <time>2022-10-15 13:44:46</time>
      </trkpt>
      <trkpt lat="38.50618" lon="-0.80319">
        <ele>443.8</ele>
        <time>2022-10-15 13:44:47</time>
      </trkpt>
      <trkpt lat="38.50614" lon="-0.80316">
        <ele>443.8</ele>
        <time>2022-10-15 13:44:48</time>
      </trkpt>
      <trkpt lat="38.5061" lon="-0.80314">
        <ele>443.8</ele>
        <time>2022-10-15 13:44:49</time>
      </trkpt>
      <trkpt lat="38.5061" lon="-0.80314">
        <ele>443.8</ele>
        <time>2022-10-15 13:44:50</time>
      </trkpt>
      <trkpt lat="38.50601" lon="-0.80309">
        <ele>443.8</ele>
        <time>2022-10-15 13:44:51</time>
      </trkpt>
      <trkpt lat="38.50596" lon="-0.80307">
        <ele>443.6</ele>
        <time>2022-10-15 13:44:52</time>
      </trkpt>
      <trkpt lat="38.50592" lon="-0.80305">
        <ele>443.6</ele>
        <time>2022-10-15 13:44:53</time>
      </trkpt>
      <trkpt lat="38.50587" lon="-0.80302">
        <ele>443.6</ele>
        <time>2022-10-15 13:44:54</time>
      </trkpt>
      <trkpt lat="38.50583" lon="-0.803">
        <ele>443.4</ele>
        <time>2022-10-15 13:44:55</time>
      </trkpt>
      <trkpt lat="38.50583" lon="-0.803">
        <ele>443.2</ele>
        <time>2022-10-15 13:44:56</time>
      </trkpt>
      <trkpt lat="38.50574" lon="-0.80296">
        <ele>443</ele>
        <time>2022-10-15 13:44:57</time>
      </trkpt>
      <trkpt lat="38.5057" lon="-0.80294">
        <ele>442.8</ele>
        <time>2022-10-15 13:44:58</time>
      </trkpt>
      <trkpt lat="38.50565" lon="-0.80291">
        <ele>442.8</ele>
        <time>2022-10-15 13:44:59</time>
      </trkpt>
      <trkpt lat="38.50561" lon="-0.80289">
        <ele>442.6</ele>
        <time>2022-10-15 13:45:00</time>
      </trkpt>
      <trkpt lat="38.50557" lon="-0.80286">
        <ele>442.6</ele>
        <time>2022-10-15 13:45:01</time>
      </trkpt>
      <trkpt lat="38.50557" lon="-0.80286">
        <ele>442.4</ele>
        <time>2022-10-15 13:45:02</time>
      </trkpt>
      <trkpt lat="38.50548" lon="-0.80282">
        <ele>442.4</ele>
        <time>2022-10-15 13:45:03</time>
      </trkpt>
      <trkpt lat="38.50544" lon="-0.8028">
        <ele>442.4</ele>
        <time>2022-10-15 13:45:04</time>
      </trkpt>
      <trkpt lat="38.5054" lon="-0.80277">
        <ele>442.2</ele>
        <time>2022-10-15 13:45:05</time>
      </trkpt>
      <trkpt lat="38.50535" lon="-0.80275">
        <ele>442.2</ele>
        <time>2022-10-15 13:45:06</time>
      </trkpt>
      <trkpt lat="38.50531" lon="-0.80273">
        <ele>442</ele>
        <time>2022-10-15 13:45:07</time>
      </trkpt>
      <trkpt lat="38.50531" lon="-0.80273">
        <ele>441.8</ele>
        <time>2022-10-15 13:45:08</time>
      </trkpt>
      <trkpt lat="38.50523" lon="-0.80268">
        <ele>441.8</ele>
        <time>2022-10-15 13:45:09</time>
      </trkpt>
      <trkpt lat="38.50519" lon="-0.80266">
        <ele>441.6</ele>
        <time>2022-10-15 13:45:10</time>
      </trkpt>
      <trkpt lat="38.50514" lon="-0.80264">
        <ele>441.6</ele>
        <time>2022-10-15 13:45:11</time>
      </trkpt>
      <trkpt lat="38.5051" lon="-0.80261">
        <ele>441.6</ele>
        <time>2022-10-15 13:45:12</time>
      </trkpt>
      <trkpt lat="38.50506" lon="-0.80259">
        <ele>441.6</ele>
        <time>2022-10-15 13:45:13</time>
      </trkpt>
      <trkpt lat="38.50506" lon="-0.80259">
        <ele>441.8</ele>
        <time>2022-10-15 13:45:14</time>
      </trkpt>
      <trkpt lat="38.50497" lon="-0.80255">
        <ele>441.8</ele>
        <time>2022-10-15 13:45:15</time>
      </trkpt>
      <trkpt lat="38.50493" lon="-0.80253">
        <ele>441.8</ele>
        <time>2022-10-15 13:45:16</time>
      </trkpt>
      <trkpt lat="38.50489" lon="-0.80252">
        <ele>441.8</ele>
        <time>2022-10-15 13:45:17</time>
      </trkpt>
      <trkpt lat="38.50484" lon="-0.8025">
        <ele>441.8</ele>
        <time>2022-10-15 13:45:18</time>
      </trkpt>
      <trkpt lat="38.5048" lon="-0.80247">
        <ele>441.8</ele>
        <time>2022-10-15 13:45:19</time>
      </trkpt>
      <trkpt lat="38.5048" lon="-0.80247">
        <ele>441.6</ele>
        <time>2022-10-15 13:45:20</time>
      </trkpt>
      <trkpt lat="38.50472" lon="-0.80242">
        <ele>441.6</ele>
        <time>2022-10-15 13:45:21</time>
      </trkpt>
      <trkpt lat="38.50467" lon="-0.8024">
        <ele>441.6</ele>
        <time>2022-10-15 13:45:22</time>
      </trkpt>
      <trkpt lat="38.50463" lon="-0.80237">
        <ele>441.6</ele>
        <time>2022-10-15 13:45:23</time>
      </trkpt>
      <trkpt lat="38.50459" lon="-0.80235">
        <ele>441.6</ele>
        <time>2022-10-15 13:45:24</time>
      </trkpt>
      <trkpt lat="38.50455" lon="-0.80232">
        <ele>441.6</ele>
        <time>2022-10-15 13:45:25</time>
      </trkpt>
      <trkpt lat="38.50455" lon="-0.80232">
        <ele>441.6</ele>
        <time>2022-10-15 13:45:26</time>
      </trkpt>
      <trkpt lat="38.50446" lon="-0.80226">
        <ele>441.6</ele>
        <time>2022-10-15 13:45:27</time>
      </trkpt>
      <trkpt lat="38.50442" lon="-0.80223">
        <ele>441.6</ele>
        <time>2022-10-15 13:45:28</time>
      </trkpt>
      <trkpt lat="38.50438" lon="-0.80221">
        <ele>441.6</ele>
        <time>2022-10-15 13:45:29</time>
      </trkpt>
      <trkpt lat="38.50434" lon="-0.80219">
        <ele>441.6</ele>
        <time>2022-10-15 13:45:30</time>
      </trkpt>
      <trkpt lat="38.50429" lon="-0.80216">
        <ele>441.4</ele>
        <time>2022-10-15 13:45:31</time>
      </trkpt>
      <trkpt lat="38.50429" lon="-0.80216">
        <ele>441.4</ele>
        <time>2022-10-15 13:45:32</time>
      </trkpt>
      <trkpt lat="38.50421" lon="-0.80212">
        <ele>441.4</ele>
        <time>2022-10-15 13:45:33</time>
      </trkpt>
      <trkpt lat="38.50417" lon="-0.8021">
        <ele>441</ele>
        <time>2022-10-15 13:45:34</time>
      </trkpt>
      <trkpt lat="38.50413" lon="-0.80208">
        <ele>440.6</ele>
        <time>2022-10-15 13:45:35</time>
      </trkpt>
      <trkpt lat="38.50408" lon="-0.80206">
        <ele>440.6</ele>
        <time>2022-10-15 13:45:36</time>
      </trkpt>
      <trkpt lat="38.50404" lon="-0.80204">
        <ele>440.4</ele>
        <time>2022-10-15 13:45:37</time>
      </trkpt>
      <trkpt lat="38.50404" lon="-0.80204">
        <ele>440.4</ele>
        <time>2022-10-15 13:45:38</time>
      </trkpt>
      <trkpt lat="38.50396" lon="-0.80201">
        <ele>440.2</ele>
        <time>2022-10-15 13:45:39</time>
      </trkpt>
      <trkpt lat="38.50391" lon="-0.80199">
        <ele>440.2</ele>
        <time>2022-10-15 13:45:40</time>
      </trkpt>
      <trkpt lat="38.50387" lon="-0.80196">
        <ele>440</ele>
        <time>2022-10-15 13:45:41</time>
      </trkpt>
      <trkpt lat="38.50383" lon="-0.80194">
        <ele>440</ele>
        <time>2022-10-15 13:45:42</time>
      </trkpt>
      <trkpt lat="38.50379" lon="-0.80192">
        <ele>440</ele>
        <time>2022-10-15 13:45:43</time>
      </trkpt>
      <trkpt lat="38.50379" lon="-0.80192">
        <ele>440</ele>
        <time>2022-10-15 13:45:44</time>
      </trkpt>
      <trkpt lat="38.5037" lon="-0.80187">
        <ele>440</ele>
        <time>2022-10-15 13:45:45</time>
      </trkpt>
      <trkpt lat="38.50366" lon="-0.80185">
        <ele>439.8</ele>
        <time>2022-10-15 13:45:46</time>
      </trkpt>
      <trkpt lat="38.50361" lon="-0.80184">
        <ele>439.8</ele>
        <time>2022-10-15 13:45:47</time>
      </trkpt>
      <trkpt lat="38.50361" lon="-0.80184">
        <ele>439.8</ele>
        <time>2022-10-15 13:45:48</time>
      </trkpt>
      <trkpt lat="38.50357" lon="-0.80184">
        <ele>439.8</ele>
        <time>2022-10-15 13:45:49</time>
      </trkpt>
      <trkpt lat="38.50353" lon="-0.80183">
        <ele>439.8</ele>
        <time>2022-10-15 13:45:50</time>
      </trkpt>
      <trkpt lat="38.50347" lon="-0.8018">
        <ele>439.8</ele>
        <time>2022-10-15 13:45:51</time>
      </trkpt>
      <trkpt lat="38.50343" lon="-0.80179">
        <ele>439.8</ele>
        <time>2022-10-15 13:45:52</time>
      </trkpt>
      <trkpt lat="38.5034" lon="-0.80177">
        <ele>439.8</ele>
        <time>2022-10-15 13:45:53</time>
      </trkpt>
      <trkpt lat="38.50337" lon="-0.80175">
        <ele>439.8</ele>
        <time>2022-10-15 13:45:54</time>
      </trkpt>
      <trkpt lat="38.50334" lon="-0.80173">
        <ele>439.8</ele>
        <time>2022-10-15 13:45:55</time>
      </trkpt>
      <trkpt lat="38.50334" lon="-0.80173">
        <ele>440</ele>
        <time>2022-10-15 13:45:56</time>
      </trkpt>
      <trkpt lat="38.50327" lon="-0.8017">
        <ele>440</ele>
        <time>2022-10-15 13:45:57</time>
      </trkpt>
      <trkpt lat="38.50323" lon="-0.80169">
        <ele>440</ele>
        <time>2022-10-15 13:45:58</time>
      </trkpt>
      <trkpt lat="38.5032" lon="-0.80167">
        <ele>440.2</ele>
        <time>2022-10-15 13:45:59</time>
      </trkpt>
      <trkpt lat="38.50316" lon="-0.80165">
        <ele>440.4</ele>
        <time>2022-10-15 13:46:00</time>
      </trkpt>
      <trkpt lat="38.50312" lon="-0.80164">
        <ele>440.4</ele>
        <time>2022-10-15 13:46:01</time>
      </trkpt>
      <trkpt lat="38.50312" lon="-0.80164">
        <ele>440.4</ele>
        <time>2022-10-15 13:46:02</time>
      </trkpt>
      <trkpt lat="38.50304" lon="-0.80161">
        <ele>440.4</ele>
        <time>2022-10-15 13:46:03</time>
      </trkpt>
      <trkpt lat="38.503" lon="-0.80159">
        <ele>440.4</ele>
        <time>2022-10-15 13:46:04</time>
      </trkpt>
      <trkpt lat="38.50296" lon="-0.80156">
        <ele>440.4</ele>
        <time>2022-10-15 13:46:05</time>
      </trkpt>
      <trkpt lat="38.50292" lon="-0.80154">
        <ele>440.4</ele>
        <time>2022-10-15 13:46:06</time>
      </trkpt>
      <trkpt lat="38.50288" lon="-0.80152">
        <ele>440.4</ele>
        <time>2022-10-15 13:46:07</time>
      </trkpt>
      <trkpt lat="38.50288" lon="-0.80152">
        <ele>440.4</ele>
        <time>2022-10-15 13:46:08</time>
      </trkpt>
      <trkpt lat="38.5028" lon="-0.80149">
        <ele>440.4</ele>
        <time>2022-10-15 13:46:09</time>
      </trkpt>
      <trkpt lat="38.50276" lon="-0.80147">
        <ele>440.2</ele>
        <time>2022-10-15 13:46:10</time>
      </trkpt>
      <trkpt lat="38.50272" lon="-0.80145">
        <ele>440.2</ele>
        <time>2022-10-15 13:46:11</time>
      </trkpt>
      <trkpt lat="38.50268" lon="-0.80142">
        <ele>440</ele>
        <time>2022-10-15 13:46:12</time>
      </trkpt>
      <trkpt lat="38.50265" lon="-0.8014">
        <ele>440</ele>
        <time>2022-10-15 13:46:13</time>
      </trkpt>
      <trkpt lat="38.50265" lon="-0.8014">
        <ele>440</ele>
        <time>2022-10-15 13:46:14</time>
      </trkpt>
      <trkpt lat="38.50258" lon="-0.80135">
        <ele>440</ele>
        <time>2022-10-15 13:46:15</time>
      </trkpt>
      <trkpt lat="38.50254" lon="-0.80133">
        <ele>439.8</ele>
        <time>2022-10-15 13:46:16</time>
      </trkpt>
      <trkpt lat="38.5025" lon="-0.80131">
        <ele>439.8</ele>
        <time>2022-10-15 13:46:17</time>
      </trkpt>
      <trkpt lat="38.50246" lon="-0.80129">
        <ele>439.8</ele>
        <time>2022-10-15 13:46:18</time>
      </trkpt>
      <trkpt lat="38.50243" lon="-0.80126">
        <ele>439.6</ele>
        <time>2022-10-15 13:46:19</time>
      </trkpt>
      <trkpt lat="38.50243" lon="-0.80126">
        <ele>439.6</ele>
        <time>2022-10-15 13:46:20</time>
      </trkpt>
      <trkpt lat="38.50235" lon="-0.80123">
        <ele>439.6</ele>
        <time>2022-10-15 13:46:21</time>
      </trkpt>
      <trkpt lat="38.50231" lon="-0.80123">
        <ele>439.4</ele>
        <time>2022-10-15 13:46:22</time>
      </trkpt>
      <trkpt lat="38.50227" lon="-0.80123">
        <ele>439.4</ele>
        <time>2022-10-15 13:46:23</time>
      </trkpt>
      <trkpt lat="38.50223" lon="-0.80123">
        <ele>439.4</ele>
        <time>2022-10-15 13:46:24</time>
      </trkpt>
      <trkpt lat="38.5022" lon="-0.80123">
        <ele>439.2</ele>
        <time>2022-10-15 13:46:25</time>
      </trkpt>
      <trkpt lat="38.5022" lon="-0.80123">
        <ele>439</ele>
        <time>2022-10-15 13:46:26</time>
      </trkpt>
      <trkpt lat="38.50215" lon="-0.80121">
        <ele>438.8</ele>
        <time>2022-10-15 13:46:27</time>
      </trkpt>
      <trkpt lat="38.50213" lon="-0.80119">
        <ele>438.8</ele>
        <time>2022-10-15 13:46:28</time>
      </trkpt>
      <trkpt lat="38.50212" lon="-0.80118">
        <ele>438.8</ele>
        <time>2022-10-15 13:46:29</time>
      </trkpt>
      <trkpt lat="38.50211" lon="-0.80118">
        <ele>438.8</ele>
        <time>2022-10-15 13:46:30</time>
      </trkpt>
      <trkpt lat="38.50211" lon="-0.80118">
        <ele>438.8</ele>
        <time>2022-10-15 13:46:31</time>
      </trkpt>
      <trkpt lat="38.50208" lon="-0.80117">
        <ele>439.8</ele>
        <time>2022-10-15 13:46:32</time>
      </trkpt>
      <trkpt lat="38.50205" lon="-0.80115">
        <ele>439.8</ele>
        <time>2022-10-15 13:46:33</time>
      </trkpt>
      <trkpt lat="38.50203" lon="-0.80113">
        <ele>439.8</ele>
        <time>2022-10-15 13:46:34</time>
      </trkpt>
      <trkpt lat="38.50201" lon="-0.80112">
        <ele>439.8</ele>
        <time>2022-10-15 13:46:35</time>
      </trkpt>
      <trkpt lat="38.50201" lon="-0.80112">
        <ele>439.8</ele>
        <time>2022-10-15 13:46:36</time>
      </trkpt>
      <trkpt lat="38.50196" lon="-0.80108">
        <ele>439.8</ele>
        <time>2022-10-15 13:47:21</time>
      </trkpt>
      <trkpt lat="38.50193" lon="-0.80107">
        <ele>439.8</ele>
        <time>2022-10-15 13:47:22</time>
      </trkpt>
      <trkpt lat="38.50191" lon="-0.80105">
        <ele>439.8</ele>
        <time>2022-10-15 13:47:23</time>
      </trkpt>
      <trkpt lat="38.50188" lon="-0.80103">
        <ele>439.4</ele>
        <time>2022-10-15 13:47:24</time>
      </trkpt>
      <trkpt lat="38.50186" lon="-0.80101">
        <ele>439.2</ele>
        <time>2022-10-15 13:47:25</time>
      </trkpt>
      <trkpt lat="38.50186" lon="-0.80101">
        <ele>439.2</ele>
        <time>2022-10-15 13:47:26</time>
      </trkpt>
      <trkpt lat="38.5018" lon="-0.80096">
        <ele>439.2</ele>
        <time>2022-10-15 13:47:27</time>
      </trkpt>
      <trkpt lat="38.50177" lon="-0.80093">
        <ele>439.2</ele>
        <time>2022-10-15 13:47:28</time>
      </trkpt>
      <trkpt lat="38.50173" lon="-0.80091">
        <ele>439</ele>
        <time>2022-10-15 13:47:29</time>
      </trkpt>
      <trkpt lat="38.5017" lon="-0.80088">
        <ele>439</ele>
        <time>2022-10-15 13:47:30</time>
      </trkpt>
      <trkpt lat="38.50166" lon="-0.80086">
        <ele>439</ele>
        <time>2022-10-15 13:47:31</time>
      </trkpt>
      <trkpt lat="38.50166" lon="-0.80086">
        <ele>439</ele>
        <time>2022-10-15 13:47:32</time>
      </trkpt>
      <trkpt lat="38.50159" lon="-0.80081">
        <ele>438.8</ele>
        <time>2022-10-15 13:47:33</time>
      </trkpt>
      <trkpt lat="38.50155" lon="-0.80079">
        <ele>438.8</ele>
        <time>2022-10-15 13:47:34</time>
      </trkpt>
      <trkpt lat="38.50151" lon="-0.80077">
        <ele>438.8</ele>
        <time>2022-10-15 13:47:35</time>
      </trkpt>
      <trkpt lat="38.50147" lon="-0.80076">
        <ele>438.6</ele>
        <time>2022-10-15 13:47:36</time>
      </trkpt>
      <trkpt lat="38.50143" lon="-0.80076">
        <ele>438.4</ele>
        <time>2022-10-15 13:47:37</time>
      </trkpt>
      <trkpt lat="38.50143" lon="-0.80076">
        <ele>438</ele>
        <time>2022-10-15 13:47:38</time>
      </trkpt>
      <trkpt lat="38.50136" lon="-0.80074">
        <ele>437.8</ele>
        <time>2022-10-15 13:47:39</time>
      </trkpt>
      <trkpt lat="38.50132" lon="-0.80073">
        <ele>437.6</ele>
        <time>2022-10-15 13:47:40</time>
      </trkpt>
      <trkpt lat="38.50129" lon="-0.80073">
        <ele>437.4</ele>
        <time>2022-10-15 13:47:41</time>
      </trkpt>
      <trkpt lat="38.50126" lon="-0.80074">
        <ele>437.4</ele>
        <time>2022-10-15 13:47:42</time>
      </trkpt>
      <trkpt lat="38.50122" lon="-0.80075">
        <ele>437.4</ele>
        <time>2022-10-15 13:47:43</time>
      </trkpt>
      <trkpt lat="38.50122" lon="-0.80075">
        <ele>437.2</ele>
        <time>2022-10-15 13:47:44</time>
      </trkpt>
      <trkpt lat="38.50114" lon="-0.80074">
        <ele>437.2</ele>
        <time>2022-10-15 13:47:45</time>
      </trkpt>
      <trkpt lat="38.5011" lon="-0.80073">
        <ele>437</ele>
        <time>2022-10-15 13:47:46</time>
      </trkpt>
      <trkpt lat="38.50105" lon="-0.8007">
        <ele>437</ele>
        <time>2022-10-15 13:47:47</time>
      </trkpt>
      <trkpt lat="38.501" lon="-0.80067">
        <ele>436.8</ele>
        <time>2022-10-15 13:47:48</time>
      </trkpt>
      <trkpt lat="38.50096" lon="-0.80063">
        <ele>436.8</ele>
        <time>2022-10-15 13:47:49</time>
      </trkpt>
      <trkpt lat="38.50096" lon="-0.80063">
        <ele>436.8</ele>
        <time>2022-10-15 13:47:50</time>
      </trkpt>
      <trkpt lat="38.50087" lon="-0.80053">
        <ele>436.8</ele>
        <time>2022-10-15 13:47:51</time>
      </trkpt>
      <trkpt lat="38.50082" lon="-0.80048">
        <ele>436.6</ele>
        <time>2022-10-15 13:47:52</time>
      </trkpt>
      <trkpt lat="38.50078" lon="-0.80044">
        <ele>436.4</ele>
        <time>2022-10-15 13:47:53</time>
      </trkpt>
      <trkpt lat="38.50073" lon="-0.80039">
        <ele>436.2</ele>
        <time>2022-10-15 13:47:54</time>
      </trkpt>
      <trkpt lat="38.50068" lon="-0.80036">
        <ele>435.8</ele>
        <time>2022-10-15 13:47:55</time>
      </trkpt>
      <trkpt lat="38.50068" lon="-0.80036">
        <ele>435.4</ele>
        <time>2022-10-15 13:47:56</time>
      </trkpt>
      <trkpt lat="38.50059" lon="-0.80029">
        <ele>434.8</ele>
        <time>2022-10-15 13:47:57</time>
      </trkpt>
      <trkpt lat="38.50055" lon="-0.80027">
        <ele>434.4</ele>
        <time>2022-10-15 13:47:58</time>
      </trkpt>
      <trkpt lat="38.50051" lon="-0.80024">
        <ele>434.2</ele>
        <time>2022-10-15 13:47:59</time>
      </trkpt>
      <trkpt lat="38.50047" lon="-0.80022">
        <ele>434</ele>
        <time>2022-10-15 13:48:00</time>
      </trkpt>
      <trkpt lat="38.50043" lon="-0.8002">
        <ele>434</ele>
        <time>2022-10-15 13:48:01</time>
      </trkpt>
      <trkpt lat="38.50043" lon="-0.8002">
        <ele>434</ele>
        <time>2022-10-15 13:48:02</time>
      </trkpt>
      <trkpt lat="38.50034" lon="-0.80018">
        <ele>434</ele>
        <time>2022-10-15 13:48:03</time>
      </trkpt>
      <trkpt lat="38.5003" lon="-0.80016">
        <ele>434</ele>
        <time>2022-10-15 13:48:04</time>
      </trkpt>
      <trkpt lat="38.50026" lon="-0.80014">
        <ele>434</ele>
        <time>2022-10-15 13:48:05</time>
      </trkpt>
      <trkpt lat="38.50022" lon="-0.80012">
        <ele>434</ele>
        <time>2022-10-15 13:48:06</time>
      </trkpt>
      <trkpt lat="38.50018" lon="-0.8001">
        <ele>434</ele>
        <time>2022-10-15 13:48:07</time>
      </trkpt>
      <trkpt lat="38.50018" lon="-0.8001">
        <ele>434</ele>
        <time>2022-10-15 13:48:08</time>
      </trkpt>
      <trkpt lat="38.50011" lon="-0.80007">
        <ele>434</ele>
        <time>2022-10-15 13:48:09</time>
      </trkpt>
      <trkpt lat="38.50007" lon="-0.80006">
        <ele>434</ele>
        <time>2022-10-15 13:48:10</time>
      </trkpt>
      <trkpt lat="38.50003" lon="-0.80004">
        <ele>434.2</ele>
        <time>2022-10-15 13:48:11</time>
      </trkpt>
      <trkpt lat="38.5" lon="-0.80002">
        <ele>434.4</ele>
        <time>2022-10-15 13:48:12</time>
      </trkpt>
      <trkpt lat="38.49996" lon="-0.8">
        <ele>434.6</ele>
        <time>2022-10-15 13:48:13</time>
      </trkpt>
      <trkpt lat="38.49996" lon="-0.8">
        <ele>434.8</ele>
        <time>2022-10-15 13:48:14</time>
      </trkpt>
      <trkpt lat="38.49989" lon="-0.79997">
        <ele>434.8</ele>
        <time>2022-10-15 13:48:15</time>
      </trkpt>
      <trkpt lat="38.49985" lon="-0.79995">
        <ele>435</ele>
        <time>2022-10-15 13:48:16</time>
      </trkpt>
      <trkpt lat="38.49981" lon="-0.79993">
        <ele>435</ele>
        <time>2022-10-15 13:48:17</time>
      </trkpt>
      <trkpt lat="38.49977" lon="-0.79991">
        <ele>435</ele>
        <time>2022-10-15 13:48:18</time>
      </trkpt>
      <trkpt lat="38.49973" lon="-0.79989">
        <ele>435.4</ele>
        <time>2022-10-15 13:48:19</time>
      </trkpt>
      <trkpt lat="38.49973" lon="-0.79989">
        <ele>435.4</ele>
        <time>2022-10-15 13:48:20</time>
      </trkpt>
      <trkpt lat="38.49965" lon="-0.79987">
        <ele>435.4</ele>
        <time>2022-10-15 13:48:21</time>
      </trkpt>
      <trkpt lat="38.49961" lon="-0.79986">
        <ele>435.4</ele>
        <time>2022-10-15 13:48:22</time>
      </trkpt>
      <trkpt lat="38.49958" lon="-0.79985">
        <ele>435.4</ele>
        <time>2022-10-15 13:48:23</time>
      </trkpt>
      <trkpt lat="38.49954" lon="-0.79982">
        <ele>435.4</ele>
        <time>2022-10-15 13:48:24</time>
      </trkpt>
      <trkpt lat="38.49951" lon="-0.7998">
        <ele>435.4</ele>
        <time>2022-10-15 13:48:25</time>
      </trkpt>
      <trkpt lat="38.49947" lon="-0.79977">
        <ele>435.4</ele>
        <time>2022-10-15 13:48:26</time>
      </trkpt>
      <trkpt lat="38.49944" lon="-0.79975">
        <ele>435.4</ele>
        <time>2022-10-15 13:48:27</time>
      </trkpt>
      <trkpt lat="38.4994" lon="-0.79973">
        <ele>435.4</ele>
        <time>2022-10-15 13:48:28</time>
      </trkpt>
      <trkpt lat="38.49936" lon="-0.79971">
        <ele>435.2</ele>
        <time>2022-10-15 13:48:29</time>
      </trkpt>
      <trkpt lat="38.49932" lon="-0.79968">
        <ele>435</ele>
        <time>2022-10-15 13:48:30</time>
      </trkpt>
      <trkpt lat="38.49928" lon="-0.79966">
        <ele>434.8</ele>
        <time>2022-10-15 13:48:31</time>
      </trkpt>
      <trkpt lat="38.49925" lon="-0.79963">
        <ele>434.8</ele>
        <time>2022-10-15 13:48:32</time>
      </trkpt>
      <trkpt lat="38.49921" lon="-0.7996">
        <ele>434.8</ele>
        <time>2022-10-15 13:48:33</time>
      </trkpt>
      <trkpt lat="38.49917" lon="-0.79957">
        <ele>434.6</ele>
        <time>2022-10-15 13:48:34</time>
      </trkpt>
      <trkpt lat="38.49914" lon="-0.79955">
        <ele>434.4</ele>
        <time>2022-10-15 13:48:35</time>
      </trkpt>
      <trkpt lat="38.4991" lon="-0.79953">
        <ele>434.2</ele>
        <time>2022-10-15 13:48:36</time>
      </trkpt>
      <trkpt lat="38.49906" lon="-0.79951">
        <ele>434</ele>
        <time>2022-10-15 13:48:37</time>
      </trkpt>
      <trkpt lat="38.49906" lon="-0.79951">
        <ele>434</ele>
        <time>2022-10-15 13:48:38</time>
      </trkpt>
      <trkpt lat="38.49899" lon="-0.79948">
        <ele>434</ele>
        <time>2022-10-15 13:48:39</time>
      </trkpt>
      <trkpt lat="38.49895" lon="-0.79946">
        <ele>434</ele>
        <time>2022-10-15 13:48:40</time>
      </trkpt>
      <trkpt lat="38.49892" lon="-0.79945">
        <ele>434</ele>
        <time>2022-10-15 13:48:41</time>
      </trkpt>
      <trkpt lat="38.49888" lon="-0.79943">
        <ele>434</ele>
        <time>2022-10-15 13:48:42</time>
      </trkpt>
      <trkpt lat="38.49885" lon="-0.79942">
        <ele>434</ele>
        <time>2022-10-15 13:48:43</time>
      </trkpt>
      <trkpt lat="38.49885" lon="-0.79942">
        <ele>434</ele>
        <time>2022-10-15 13:48:44</time>
      </trkpt>
      <trkpt lat="38.49878" lon="-0.79938">
        <ele>434.2</ele>
        <time>2022-10-15 13:48:45</time>
      </trkpt>
      <trkpt lat="38.49874" lon="-0.79936">
        <ele>434.4</ele>
        <time>2022-10-15 13:48:46</time>
      </trkpt>
      <trkpt lat="38.4987" lon="-0.79934">
        <ele>434.4</ele>
        <time>2022-10-15 13:48:47</time>
      </trkpt>
      <trkpt lat="38.49867" lon="-0.79933">
        <ele>434.6</ele>
        <time>2022-10-15 13:48:48</time>
      </trkpt>
      <trkpt lat="38.49863" lon="-0.79931">
        <ele>434.6</ele>
        <time>2022-10-15 13:48:49</time>
      </trkpt>
      <trkpt lat="38.49863" lon="-0.79931">
        <ele>434.6</ele>
        <time>2022-10-15 13:48:50</time>
      </trkpt>
      <trkpt lat="38.49856" lon="-0.79928">
        <ele>434.8</ele>
        <time>2022-10-15 13:48:51</time>
      </trkpt>
      <trkpt lat="38.49852" lon="-0.79927">
        <ele>434.8</ele>
        <time>2022-10-15 13:48:52</time>
      </trkpt>
      <trkpt lat="38.49849" lon="-0.79925">
        <ele>434.8</ele>
        <time>2022-10-15 13:48:53</time>
      </trkpt>
      <trkpt lat="38.49844" lon="-0.79925">
        <ele>434.8</ele>
        <time>2022-10-15 13:48:54</time>
      </trkpt>
      <trkpt lat="38.4984" lon="-0.79926">
        <ele>434.8</ele>
        <time>2022-10-15 13:48:55</time>
      </trkpt>
      <trkpt lat="38.4984" lon="-0.79926">
        <ele>435</ele>
        <time>2022-10-15 13:48:56</time>
      </trkpt>
      <trkpt lat="38.49832" lon="-0.79929">
        <ele>435</ele>
        <time>2022-10-15 13:48:57</time>
      </trkpt>
      <trkpt lat="38.49828" lon="-0.7993">
        <ele>435</ele>
        <time>2022-10-15 13:48:58</time>
      </trkpt>
      <trkpt lat="38.49824" lon="-0.79931">
        <ele>435</ele>
        <time>2022-10-15 13:48:59</time>
      </trkpt>
      <trkpt lat="38.4982" lon="-0.7993">
        <ele>435</ele>
        <time>2022-10-15 13:49:00</time>
      </trkpt>
      <trkpt lat="38.49816" lon="-0.79928">
        <ele>435</ele>
        <time>2022-10-15 13:49:01</time>
      </trkpt>
      <trkpt lat="38.49816" lon="-0.79928">
        <ele>435</ele>
        <time>2022-10-15 13:49:02</time>
      </trkpt>
      <trkpt lat="38.49808" lon="-0.79921">
        <ele>435</ele>
        <time>2022-10-15 13:49:03</time>
      </trkpt>
      <trkpt lat="38.49803" lon="-0.79918">
        <ele>435</ele>
        <time>2022-10-15 13:49:04</time>
      </trkpt>
      <trkpt lat="38.49798" lon="-0.79915">
        <ele>435</ele>
        <time>2022-10-15 13:49:05</time>
      </trkpt>
      <trkpt lat="38.49792" lon="-0.79913">
        <ele>435</ele>
        <time>2022-10-15 13:49:06</time>
      </trkpt>
      <trkpt lat="38.49787" lon="-0.79911">
        <ele>434.6</ele>
        <time>2022-10-15 13:49:07</time>
      </trkpt>
      <trkpt lat="38.49787" lon="-0.79911">
        <ele>434.4</ele>
        <time>2022-10-15 13:49:08</time>
      </trkpt>
      <trkpt lat="38.4978" lon="-0.79902">
        <ele>434.2</ele>
        <time>2022-10-15 13:49:09</time>
      </trkpt>
      <trkpt lat="38.49778" lon="-0.79896">
        <ele>434</ele>
        <time>2022-10-15 13:49:10</time>
      </trkpt>
      <trkpt lat="38.49778" lon="-0.7989">
        <ele>433.4</ele>
        <time>2022-10-15 13:49:11</time>
      </trkpt>
      <trkpt lat="38.49778" lon="-0.79885">
        <ele>432.6</ele>
        <time>2022-10-15 13:49:12</time>
      </trkpt>
      <trkpt lat="38.49779" lon="-0.79879">
        <ele>432</ele>
        <time>2022-10-15 13:49:13</time>
      </trkpt>
      <trkpt lat="38.49779" lon="-0.79879">
        <ele>431</ele>
        <time>2022-10-15 13:49:14</time>
      </trkpt>
      <trkpt lat="38.49784" lon="-0.79872">
        <ele>430.8</ele>
        <time>2022-10-15 13:49:15</time>
      </trkpt>
      <trkpt lat="38.49787" lon="-0.7987">
        <ele>430.8</ele>
        <time>2022-10-15 13:49:16</time>
      </trkpt>
      <trkpt lat="38.4979" lon="-0.79869">
        <ele>430.6</ele>
        <time>2022-10-15 13:49:17</time>
      </trkpt>
      <trkpt lat="38.49793" lon="-0.79867">
        <ele>430.6</ele>
        <time>2022-10-15 13:49:18</time>
      </trkpt>
      <trkpt lat="38.49796" lon="-0.79865">
        <ele>430.6</ele>
        <time>2022-10-15 13:49:19</time>
      </trkpt>
      <trkpt lat="38.49796" lon="-0.79865">
        <ele>430.6</ele>
        <time>2022-10-15 13:49:20</time>
      </trkpt>
      <trkpt lat="38.498" lon="-0.79861">
        <ele>430.6</ele>
        <time>2022-10-15 13:49:21</time>
      </trkpt>
      <trkpt lat="38.49803" lon="-0.79859">
        <ele>430.6</ele>
        <time>2022-10-15 13:49:22</time>
      </trkpt>
      <trkpt lat="38.49805" lon="-0.79856">
        <ele>430.6</ele>
        <time>2022-10-15 13:49:23</time>
      </trkpt>
      <trkpt lat="38.49808" lon="-0.79853">
        <ele>430.8</ele>
        <time>2022-10-15 13:49:24</time>
      </trkpt>
      <trkpt lat="38.49811" lon="-0.7985">
        <ele>431</ele>
        <time>2022-10-15 13:49:25</time>
      </trkpt>
      <trkpt lat="38.49811" lon="-0.7985">
        <ele>431.6</ele>
        <time>2022-10-15 13:49:26</time>
      </trkpt>
      <trkpt lat="38.49815" lon="-0.79843">
        <ele>432</ele>
        <time>2022-10-15 13:49:27</time>
      </trkpt>
      <trkpt lat="38.49816" lon="-0.79839">
        <ele>432</ele>
        <time>2022-10-15 13:49:28</time>
      </trkpt>
      <trkpt lat="38.49817" lon="-0.79834">
        <ele>432.2</ele>
        <time>2022-10-15 13:49:29</time>
      </trkpt>
      <trkpt lat="38.49817" lon="-0.7983">
        <ele>432.2</ele>
        <time>2022-10-15 13:49:30</time>
      </trkpt>
      <trkpt lat="38.49819" lon="-0.79826">
        <ele>432.2</ele>
        <time>2022-10-15 13:49:31</time>
      </trkpt>
      <trkpt lat="38.49822" lon="-0.79822">
        <ele>432.2</ele>
        <time>2022-10-15 13:49:32</time>
      </trkpt>
      <trkpt lat="38.49824" lon="-0.79817">
        <ele>432.2</ele>
        <time>2022-10-15 13:49:33</time>
      </trkpt>
      <trkpt lat="38.49825" lon="-0.79812">
        <ele>432.2</ele>
        <time>2022-10-15 13:49:34</time>
      </trkpt>
      <trkpt lat="38.49826" lon="-0.79806">
        <ele>432.2</ele>
        <time>2022-10-15 13:49:35</time>
      </trkpt>
      <trkpt lat="38.49827" lon="-0.79801">
        <ele>432.2</ele>
        <time>2022-10-15 13:49:36</time>
      </trkpt>
      <trkpt lat="38.49829" lon="-0.79796">
        <ele>432.2</ele>
        <time>2022-10-15 13:49:37</time>
      </trkpt>
      <trkpt lat="38.49829" lon="-0.79796">
        <ele>432.2</ele>
        <time>2022-10-15 13:49:38</time>
      </trkpt>
      <trkpt lat="38.49831" lon="-0.79784">
        <ele>432</ele>
        <time>2022-10-15 13:49:39</time>
      </trkpt>
      <trkpt lat="38.49833" lon="-0.79779">
        <ele>431.8</ele>
        <time>2022-10-15 13:49:40</time>
      </trkpt>
      <trkpt lat="38.49834" lon="-0.79774">
        <ele>431.6</ele>
        <time>2022-10-15 13:49:41</time>
      </trkpt>
      <trkpt lat="38.49836" lon="-0.79768">
        <ele>431.4</ele>
        <time>2022-10-15 13:49:42</time>
      </trkpt>
      <trkpt lat="38.49837" lon="-0.79763">
        <ele>431.4</ele>
        <time>2022-10-15 13:49:43</time>
      </trkpt>
      <trkpt lat="38.49837" lon="-0.79763">
        <ele>431.2</ele>
        <time>2022-10-15 13:49:44</time>
      </trkpt>
      <trkpt lat="38.49838" lon="-0.79751">
        <ele>431.2</ele>
        <time>2022-10-15 13:49:45</time>
      </trkpt>
      <trkpt lat="38.49838" lon="-0.79745">
        <ele>431.2</ele>
        <time>2022-10-15 13:49:46</time>
      </trkpt>
      <trkpt lat="38.49839" lon="-0.79739">
        <ele>431</ele>
        <time>2022-10-15 13:49:47</time>
      </trkpt>
      <trkpt lat="38.49839" lon="-0.79733">
        <ele>431</ele>
        <time>2022-10-15 13:49:48</time>
      </trkpt>
      <trkpt lat="38.4984" lon="-0.79727">
        <ele>431</ele>
        <time>2022-10-15 13:49:49</time>
      </trkpt>
      <trkpt lat="38.4984" lon="-0.79727">
        <ele>431</ele>
        <time>2022-10-15 13:49:50</time>
      </trkpt>
      <trkpt lat="38.49839" lon="-0.79716">
        <ele>431</ele>
        <time>2022-10-15 13:49:51</time>
      </trkpt>
      <trkpt lat="38.49838" lon="-0.7971">
        <ele>431</ele>
        <time>2022-10-15 13:49:52</time>
      </trkpt>
      <trkpt lat="38.49836" lon="-0.79705">
        <ele>431</ele>
        <time>2022-10-15 13:49:53</time>
      </trkpt>
      <trkpt lat="38.49835" lon="-0.797">
        <ele>431</ele>
        <time>2022-10-15 13:49:54</time>
      </trkpt>
      <trkpt lat="38.49834" lon="-0.79695">
        <ele>431</ele>
        <time>2022-10-15 13:49:55</time>
      </trkpt>
      <trkpt lat="38.49834" lon="-0.79695">
        <ele>430.8</ele>
        <time>2022-10-15 13:49:56</time>
      </trkpt>
      <trkpt lat="38.49834" lon="-0.79685">
        <ele>430.8</ele>
        <time>2022-10-15 13:49:57</time>
      </trkpt>
      <trkpt lat="38.49835" lon="-0.7968">
        <ele>430.8</ele>
        <time>2022-10-15 13:49:58</time>
      </trkpt>
      <trkpt lat="38.49835" lon="-0.79675">
        <ele>430.8</ele>
        <time>2022-10-15 13:49:59</time>
      </trkpt>
      <trkpt lat="38.49834" lon="-0.79671">
        <ele>430.8</ele>
        <time>2022-10-15 13:50:00</time>
      </trkpt>
      <trkpt lat="38.49833" lon="-0.79666">
        <ele>430.8</ele>
        <time>2022-10-15 13:50:01</time>
      </trkpt>
      <trkpt lat="38.49833" lon="-0.79666">
        <ele>430.8</ele>
        <time>2022-10-15 13:50:02</time>
      </trkpt>
      <trkpt lat="38.4983" lon="-0.79655">
        <ele>430.8</ele>
        <time>2022-10-15 13:50:03</time>
      </trkpt>
      <trkpt lat="38.49829" lon="-0.7965">
        <ele>430.8</ele>
        <time>2022-10-15 13:50:04</time>
      </trkpt>
      <trkpt lat="38.49828" lon="-0.79644">
        <ele>430.8</ele>
        <time>2022-10-15 13:50:05</time>
      </trkpt>
      <trkpt lat="38.49826" lon="-0.79639">
        <ele>430.8</ele>
        <time>2022-10-15 13:50:06</time>
      </trkpt>
      <trkpt lat="38.49825" lon="-0.79634">
        <ele>430.8</ele>
        <time>2022-10-15 13:50:07</time>
      </trkpt>
      <trkpt lat="38.49825" lon="-0.79634">
        <ele>430.6</ele>
        <time>2022-10-15 13:50:08</time>
      </trkpt>
      <trkpt lat="38.49822" lon="-0.79625">
        <ele>430.6</ele>
        <time>2022-10-15 13:50:09</time>
      </trkpt>
      <trkpt lat="38.4982" lon="-0.79622">
        <ele>430.6</ele>
        <time>2022-10-15 13:50:10</time>
      </trkpt>
      <trkpt lat="38.49818" lon="-0.79619">
        <ele>430.6</ele>
        <time>2022-10-15 13:50:11</time>
      </trkpt>
      <trkpt lat="38.49817" lon="-0.79618">
        <ele>430.6</ele>
        <time>2022-10-15 13:50:12</time>
      </trkpt>
      <trkpt lat="38.49816" lon="-0.79616">
        <ele>430.6</ele>
        <time>2022-10-15 13:50:13</time>
      </trkpt>
      <trkpt lat="38.49816" lon="-0.79616">
        <ele>430.8</ele>
        <time>2022-10-15 13:50:14</time>
      </trkpt>
      <trkpt lat="38.49815" lon="-0.79613">
        <ele>430.8</ele>
        <time>2022-10-15 13:50:15</time>
      </trkpt>
      <trkpt lat="38.49815" lon="-0.79611">
        <ele>430.8</ele>
        <time>2022-10-15 13:50:16</time>
      </trkpt>
      <trkpt lat="38.49815" lon="-0.7961">
        <ele>430.8</ele>
        <time>2022-10-15 13:50:17</time>
      </trkpt>
      <trkpt lat="38.49815" lon="-0.79609">
        <ele>430.8</ele>
        <time>2022-10-15 13:50:18</time>
      </trkpt>
      <trkpt lat="38.49816" lon="-0.79609">
        <ele>430.8</ele>
        <time>2022-10-15 13:50:19</time>
      </trkpt>
      <trkpt lat="38.49816" lon="-0.79609">
        <ele>430.8</ele>
        <time>2022-10-15 13:50:20</time>
      </trkpt>
      <trkpt lat="38.49797" lon="-0.7957">
        <ele>432.2</ele>
        <time>2022-10-15 13:50:21</time>
      </trkpt>
      <trkpt lat="38.49796" lon="-0.79568">
        <ele>432.2</ele>
        <time>2022-10-15 13:50:22</time>
      </trkpt>
      <trkpt lat="38.49795" lon="-0.79567">
        <ele>432.2</ele>
        <time>2022-10-15 13:50:23</time>
      </trkpt>
      <trkpt lat="38.49793" lon="-0.79565">
        <ele>432.2</ele>
        <time>2022-10-15 13:50:24</time>
      </trkpt>
      <trkpt lat="38.49793" lon="-0.79565">
        <ele>432.2</ele>
        <time>2022-10-15 13:50:25</time>
      </trkpt>
      <trkpt lat="38.49792" lon="-0.7956">
        <ele>432.2</ele>
        <time>2022-10-15 13:51:27</time>
      </trkpt>
      <trkpt lat="38.49791" lon="-0.79556">
        <ele>432.2</ele>
        <time>2022-10-15 13:51:28</time>
      </trkpt>
      <trkpt lat="38.4979" lon="-0.79553">
        <ele>432.2</ele>
        <time>2022-10-15 13:51:29</time>
      </trkpt>
      <trkpt lat="38.49788" lon="-0.79551">
        <ele>432.2</ele>
        <time>2022-10-15 13:51:30</time>
      </trkpt>
      <trkpt lat="38.49786" lon="-0.79548">
        <ele>432.2</ele>
        <time>2022-10-15 13:51:31</time>
      </trkpt>
      <trkpt lat="38.49786" lon="-0.79548">
        <ele>432.2</ele>
        <time>2022-10-15 13:51:32</time>
      </trkpt>
      <trkpt lat="38.49781" lon="-0.79543">
        <ele>432.2</ele>
        <time>2022-10-15 13:51:33</time>
      </trkpt>
      <trkpt lat="38.49779" lon="-0.79541">
        <ele>432.2</ele>
        <time>2022-10-15 13:51:34</time>
      </trkpt>
      <trkpt lat="38.49777" lon="-0.79538">
        <ele>432.2</ele>
        <time>2022-10-15 13:51:35</time>
      </trkpt>
      <trkpt lat="38.49775" lon="-0.79535">
        <ele>432.2</ele>
        <time>2022-10-15 13:51:36</time>
      </trkpt>
      <trkpt lat="38.49773" lon="-0.79531">
        <ele>432.2</ele>
        <time>2022-10-15 13:51:37</time>
      </trkpt>
      <trkpt lat="38.49773" lon="-0.79531">
        <ele>432.2</ele>
        <time>2022-10-15 13:51:38</time>
      </trkpt>
      <trkpt lat="38.49768" lon="-0.79525">
        <ele>432</ele>
        <time>2022-10-15 13:51:39</time>
      </trkpt>
      <trkpt lat="38.49766" lon="-0.79521">
        <ele>432</ele>
        <time>2022-10-15 13:51:40</time>
      </trkpt>
      <trkpt lat="38.49764" lon="-0.79518">
        <ele>432</ele>
        <time>2022-10-15 13:51:41</time>
      </trkpt>
      <trkpt lat="38.49761" lon="-0.79514">
        <ele>432</ele>
        <time>2022-10-15 13:51:42</time>
      </trkpt>
      <trkpt lat="38.49759" lon="-0.79511">
        <ele>431.8</ele>
        <time>2022-10-15 13:51:43</time>
      </trkpt>
      <trkpt lat="38.49759" lon="-0.79511">
        <ele>431.8</ele>
        <time>2022-10-15 13:51:44</time>
      </trkpt>
      <trkpt lat="38.49755" lon="-0.79504">
        <ele>431.8</ele>
        <time>2022-10-15 13:51:45</time>
      </trkpt>
      <trkpt lat="38.49754" lon="-0.795">
        <ele>431.6</ele>
        <time>2022-10-15 13:51:46</time>
      </trkpt>
      <trkpt lat="38.49753" lon="-0.79496">
        <ele>431.6</ele>
        <time>2022-10-15 13:51:47</time>
      </trkpt>
      <trkpt lat="38.49751" lon="-0.79492">
        <ele>431.4</ele>
        <time>2022-10-15 13:51:48</time>
      </trkpt>
      <trkpt lat="38.4975" lon="-0.79488">
        <ele>431.4</ele>
        <time>2022-10-15 13:51:49</time>
      </trkpt>
      <trkpt lat="38.4975" lon="-0.79488">
        <ele>431.4</ele>
        <time>2022-10-15 13:51:50</time>
      </trkpt>
      <trkpt lat="38.49747" lon="-0.79482">
        <ele>431.4</ele>
        <time>2022-10-15 13:51:51</time>
      </trkpt>
      <trkpt lat="38.49745" lon="-0.7948">
        <ele>431.4</ele>
        <time>2022-10-15 13:51:52</time>
      </trkpt>
      <trkpt lat="38.49744" lon="-0.79478">
        <ele>431.4</ele>
        <time>2022-10-15 13:51:53</time>
      </trkpt>
      <trkpt lat="38.49741" lon="-0.79477">
        <ele>431.4</ele>
        <time>2022-10-15 13:51:54</time>
      </trkpt>
      <trkpt lat="38.49739" lon="-0.79476">
        <ele>431.4</ele>
        <time>2022-10-15 13:51:55</time>
      </trkpt>
      <trkpt lat="38.49739" lon="-0.79476">
        <ele>431.4</ele>
        <time>2022-10-15 13:51:56</time>
      </trkpt>
      <trkpt lat="38.49736" lon="-0.79471">
        <ele>431.6</ele>
        <time>2022-10-15 13:51:57</time>
      </trkpt>
      <trkpt lat="38.49734" lon="-0.79469">
        <ele>431.8</ele>
        <time>2022-10-15 13:51:58</time>
      </trkpt>
      <trkpt lat="38.49733" lon="-0.79467">
        <ele>431.8</ele>
        <time>2022-10-15 13:51:59</time>
      </trkpt>
      <trkpt lat="38.49732" lon="-0.79464">
        <ele>432</ele>
        <time>2022-10-15 13:52:00</time>
      </trkpt>
      <trkpt lat="38.49731" lon="-0.79462">
        <ele>432</ele>
        <time>2022-10-15 13:52:01</time>
      </trkpt>
      <trkpt lat="38.4973" lon="-0.7946">
        <ele>432.2</ele>
        <time>2022-10-15 13:52:02</time>
      </trkpt>
      <trkpt lat="38.49729" lon="-0.79457">
        <ele>432.2</ele>
        <time>2022-10-15 13:52:03</time>
      </trkpt>
      <trkpt lat="38.49728" lon="-0.79455">
        <ele>432.2</ele>
        <time>2022-10-15 13:52:04</time>
      </trkpt>
      <trkpt lat="38.49727" lon="-0.79454">
        <ele>432.2</ele>
        <time>2022-10-15 13:52:05</time>
      </trkpt>
      <trkpt lat="38.49726" lon="-0.79453">
        <ele>432.2</ele>
        <time>2022-10-15 13:52:06</time>
      </trkpt>
      <trkpt lat="38.49726" lon="-0.79452">
        <ele>432.2</ele>
        <time>2022-10-15 13:52:07</time>
      </trkpt>
      <trkpt lat="38.49726" lon="-0.79452">
        <ele>432.2</ele>
        <time>2022-10-15 13:52:08</time>
      </trkpt>
      <trkpt lat="38.49702" lon="-0.79372">
        <ele>438.4</ele>
        <time>2022-10-15 13:52:09</time>
      </trkpt>
      <trkpt lat="38.497" lon="-0.79371">
        <ele>438.4</ele>
        <time>2022-10-15 13:52:10</time>
      </trkpt>
      <trkpt lat="38.497" lon="-0.79371">
        <ele>438.4</ele>
        <time>2022-10-15 13:52:11</time>
      </trkpt>
      <trkpt lat="38.49697" lon="-0.79367">
        <ele>438.4</ele>
        <time>2022-10-15 13:52:12</time>
      </trkpt>
      <trkpt lat="38.49697" lon="-0.79365">
        <ele>438.4</ele>
        <time>2022-10-15 13:52:13</time>
      </trkpt>
      <trkpt lat="38.49696" lon="-0.79363">
        <ele>438.4</ele>
        <time>2022-10-15 13:55:17</time>
      </trkpt>
      <trkpt lat="38.49696" lon="-0.79361">
        <ele>438.4</ele>
        <time>2022-10-15 13:55:18</time>
      </trkpt>
      <trkpt lat="38.49694" lon="-0.7936">
        <ele>438.4</ele>
        <time>2022-10-15 13:55:19</time>
      </trkpt>
      <trkpt lat="38.49694" lon="-0.7936">
        <ele>438.2</ele>
        <time>2022-10-15 13:55:20</time>
      </trkpt>
      <trkpt lat="38.49692" lon="-0.79359">
        <ele>438</ele>
        <time>2022-10-15 13:55:21</time>
      </trkpt>
      <trkpt lat="38.49691" lon="-0.79358">
        <ele>437.8</ele>
        <time>2022-10-15 13:55:22</time>
      </trkpt>
      <trkpt lat="38.49691" lon="-0.79358">
        <ele>437.8</ele>
        <time>2022-10-15 13:55:23</time>
      </trkpt>
      <trkpt lat="38.49691" lon="-0.79357">
        <ele>437.8</ele>
        <time>2022-10-15 13:55:24</time>
      </trkpt>
      <trkpt lat="38.49705" lon="-0.79347">
        <ele>437.4</ele>
        <time>2022-10-15 13:55:25</time>
      </trkpt>
      <trkpt lat="38.49706" lon="-0.79345">
        <ele>437.4</ele>
        <time>2022-10-15 13:55:26</time>
      </trkpt>
      <trkpt lat="38.49705" lon="-0.79343">
        <ele>437.4</ele>
        <time>2022-10-15 13:55:27</time>
      </trkpt>
      <trkpt lat="38.49705" lon="-0.79341">
        <ele>437.4</ele>
        <time>2022-10-15 13:55:28</time>
      </trkpt>
      <trkpt lat="38.49705" lon="-0.79341">
        <ele>437.4</ele>
        <time>2022-10-15 13:55:29</time>
      </trkpt>
      <trkpt lat="38.49703" lon="-0.79337">
        <ele>437.2</ele>
        <time>2022-10-15 13:57:03</time>
      </trkpt>
      <trkpt lat="38.49701" lon="-0.79335">
        <ele>437.2</ele>
        <time>2022-10-15 13:57:04</time>
      </trkpt>
      <trkpt lat="38.497" lon="-0.79332">
        <ele>437.2</ele>
        <time>2022-10-15 13:57:05</time>
      </trkpt>
      <trkpt lat="38.49699" lon="-0.7933">
        <ele>437.2</ele>
        <time>2022-10-15 13:57:06</time>
      </trkpt>
      <trkpt lat="38.49699" lon="-0.79328">
        <ele>437</ele>
        <time>2022-10-15 13:57:07</time>
      </trkpt>
      <trkpt lat="38.49698" lon="-0.79324">
        <ele>436.6</ele>
        <time>2022-10-15 13:57:08</time>
      </trkpt>
      <trkpt lat="38.49697" lon="-0.79323">
        <ele>436.2</ele>
        <time>2022-10-15 13:57:09</time>
      </trkpt>
      <trkpt lat="38.49696" lon="-0.79322">
        <ele>435.8</ele>
        <time>2022-10-15 13:57:10</time>
      </trkpt>
      <trkpt lat="38.49695" lon="-0.7932">
        <ele>435.6</ele>
        <time>2022-10-15 13:57:11</time>
      </trkpt>
      <trkpt lat="38.49694" lon="-0.79319">
        <ele>435.2</ele>
        <time>2022-10-15 13:57:12</time>
      </trkpt>
      <trkpt lat="38.49694" lon="-0.79319">
        <ele>435.2</ele>
        <time>2022-10-15 13:57:14</time>
      </trkpt>
      <trkpt lat="38.49693" lon="-0.79316">
        <ele>435</ele>
        <time>2022-10-15 13:57:15</time>
      </trkpt>
      <trkpt lat="38.49693" lon="-0.79315">
        <ele>434.8</ele>
        <time>2022-10-15 13:57:16</time>
      </trkpt>
      <trkpt lat="38.49693" lon="-0.79314">
        <ele>434.6</ele>
        <time>2022-10-15 13:57:17</time>
      </trkpt>
      <trkpt lat="38.49693" lon="-0.79313">
        <ele>434.4</ele>
        <time>2022-10-15 13:57:18</time>
      </trkpt>
      <trkpt lat="38.49693" lon="-0.79313">
        <ele>434.2</ele>
        <time>2022-10-15 13:57:19</time>
      </trkpt>
      <trkpt lat="38.49687" lon="-0.79303">
        <ele>433</ele>
        <time>2022-10-15 13:57:20</time>
      </trkpt>
      <trkpt lat="38.49685" lon="-0.793">
        <ele>433</ele>
        <time>2022-10-15 13:57:21</time>
      </trkpt>
      <trkpt lat="38.49684" lon="-0.79297">
        <ele>432.8</ele>
        <time>2022-10-15 13:57:22</time>
      </trkpt>
      <trkpt lat="38.49682" lon="-0.79295">
        <ele>433</ele>
        <time>2022-10-15 13:57:23</time>
      </trkpt>
      <trkpt lat="38.49682" lon="-0.79295">
        <ele>433</ele>
        <time>2022-10-15 13:57:24</time>
      </trkpt>
      <trkpt lat="38.4968" lon="-0.79288">
        <ele>432.8</ele>
        <time>2022-10-15 13:57:45</time>
      </trkpt>
      <trkpt lat="38.49679" lon="-0.79285">
        <ele>432.8</ele>
        <time>2022-10-15 13:57:46</time>
      </trkpt>
      <trkpt lat="38.49679" lon="-0.79281">
        <ele>432.2</ele>
        <time>2022-10-15 13:57:47</time>
      </trkpt>
      <trkpt lat="38.49678" lon="-0.79277">
        <ele>431.4</ele>
        <time>2022-10-15 13:57:48</time>
      </trkpt>
      <trkpt lat="38.49678" lon="-0.79273">
        <ele>430.2</ele>
        <time>2022-10-15 13:57:49</time>
      </trkpt>
      <trkpt lat="38.49677" lon="-0.79265">
        <ele>429.8</ele>
        <time>2022-10-15 13:57:50</time>
      </trkpt>
      <trkpt lat="38.49677" lon="-0.79262">
        <ele>429.2</ele>
        <time>2022-10-15 13:57:51</time>
      </trkpt>
      <trkpt lat="38.49676" lon="-0.7926">
        <ele>428.6</ele>
        <time>2022-10-15 13:57:52</time>
      </trkpt>
      <trkpt lat="38.49674" lon="-0.79258">
        <ele>428.4</ele>
        <time>2022-10-15 13:57:53</time>
      </trkpt>
      <trkpt lat="38.49673" lon="-0.79257">
        <ele>428.2</ele>
        <time>2022-10-15 13:57:55</time>
      </trkpt>
      <trkpt lat="38.49673" lon="-0.79257">
        <ele>428</ele>
        <time>2022-10-15 13:57:56</time>
      </trkpt>
      <trkpt lat="38.49672" lon="-0.79254">
        <ele>427.8</ele>
        <time>2022-10-15 13:57:57</time>
      </trkpt>
      <trkpt lat="38.49672" lon="-0.79252">
        <ele>427.8</ele>
        <time>2022-10-15 13:57:58</time>
      </trkpt>
      <trkpt lat="38.49671" lon="-0.79249">
        <ele>427.8</ele>
        <time>2022-10-15 13:57:59</time>
      </trkpt>
      <trkpt lat="38.4967" lon="-0.79247">
        <ele>427.8</ele>
        <time>2022-10-15 13:58:00</time>
      </trkpt>
      <trkpt lat="38.49669" lon="-0.79244">
        <ele>427.8</ele>
        <time>2022-10-15 13:58:01</time>
      </trkpt>
      <trkpt lat="38.49669" lon="-0.79244">
        <ele>427.8</ele>
        <time>2022-10-15 13:58:02</time>
      </trkpt>
      <trkpt lat="38.49668" lon="-0.79238">
        <ele>427.8</ele>
        <time>2022-10-15 13:58:03</time>
      </trkpt>
      <trkpt lat="38.49668" lon="-0.79235">
        <ele>427.6</ele>
        <time>2022-10-15 13:58:04</time>
      </trkpt>
      <trkpt lat="38.49667" lon="-0.79232">
        <ele>427.4</ele>
        <time>2022-10-15 13:58:05</time>
      </trkpt>
      <trkpt lat="38.49667" lon="-0.79231">
        <ele>427.4</ele>
        <time>2022-10-15 13:58:06</time>
      </trkpt>
      <trkpt lat="38.49667" lon="-0.79229">
        <ele>427.4</ele>
        <time>2022-10-15 13:58:07</time>
      </trkpt>
      <trkpt lat="38.49667" lon="-0.79229">
        <ele>427.2</ele>
        <time>2022-10-15 13:58:08</time>
      </trkpt>
      <trkpt lat="38.49665" lon="-0.79225">
        <ele>427</ele>
        <time>2022-10-15 13:58:09</time>
      </trkpt>
      <trkpt lat="38.49664" lon="-0.79219">
        <ele>426.6</ele>
        <time>2022-10-15 13:58:10</time>
      </trkpt>
      <trkpt lat="38.49664" lon="-0.79217">
        <ele>426.6</ele>
        <time>2022-10-15 13:58:11</time>
      </trkpt>
      <trkpt lat="38.49664" lon="-0.79214">
        <ele>426.6</ele>
        <time>2022-10-15 13:58:12</time>
      </trkpt>
      <trkpt lat="38.49664" lon="-0.79214">
        <ele>426.4</ele>
        <time>2022-10-15 13:58:13</time>
      </trkpt>
      <trkpt lat="38.49664" lon="-0.79209">
        <ele>426.4</ele>
        <time>2022-10-15 13:58:14</time>
      </trkpt>
      <trkpt lat="38.49664" lon="-0.79206">
        <ele>426.4</ele>
        <time>2022-10-15 13:58:16</time>
      </trkpt>
      <trkpt lat="38.49664" lon="-0.79204">
        <ele>426.4</ele>
        <time>2022-10-15 13:58:17</time>
      </trkpt>
      <trkpt lat="38.49663" lon="-0.79201">
        <ele>426.4</ele>
        <time>2022-10-15 13:58:18</time>
      </trkpt>
      <trkpt lat="38.49663" lon="-0.79198">
        <ele>426.2</ele>
        <time>2022-10-15 13:58:19</time>
      </trkpt>
      <trkpt lat="38.49663" lon="-0.79198">
        <ele>426</ele>
        <time>2022-10-15 13:58:20</time>
      </trkpt>
      <trkpt lat="38.49663" lon="-0.79192">
        <ele>426</ele>
        <time>2022-10-15 13:58:21</time>
      </trkpt>
      <trkpt lat="38.49663" lon="-0.79188">
        <ele>426</ele>
        <time>2022-10-15 13:58:22</time>
      </trkpt>
      <trkpt lat="38.49662" lon="-0.79185">
        <ele>426</ele>
        <time>2022-10-15 13:58:23</time>
      </trkpt>
      <trkpt lat="38.49662" lon="-0.79182">
        <ele>426</ele>
        <time>2022-10-15 13:58:24</time>
      </trkpt>
      <trkpt lat="38.49662" lon="-0.79179">
        <ele>426</ele>
        <time>2022-10-15 13:58:25</time>
      </trkpt>
      <trkpt lat="38.49662" lon="-0.79179">
        <ele>425.8</ele>
        <time>2022-10-15 13:58:26</time>
      </trkpt>
      <trkpt lat="38.49661" lon="-0.79172">
        <ele>425.8</ele>
        <time>2022-10-15 13:58:27</time>
      </trkpt>
      <trkpt lat="38.49661" lon="-0.79169">
        <ele>425.8</ele>
        <time>2022-10-15 13:58:28</time>
      </trkpt>
      <trkpt lat="38.4966" lon="-0.79166">
        <ele>425.8</ele>
        <time>2022-10-15 13:58:29</time>
      </trkpt>
      <trkpt lat="38.4966" lon="-0.79162">
        <ele>425.8</ele>
        <time>2022-10-15 13:58:30</time>
      </trkpt>
      <trkpt lat="38.4966" lon="-0.79159">
        <ele>425.8</ele>
        <time>2022-10-15 13:58:31</time>
      </trkpt>
      <trkpt lat="38.4966" lon="-0.79159">
        <ele>425.8</ele>
        <time>2022-10-15 13:58:32</time>
      </trkpt>
      <trkpt lat="38.49659" lon="-0.79152">
        <ele>425.8</ele>
        <time>2022-10-15 13:58:33</time>
      </trkpt>
      <trkpt lat="38.49658" lon="-0.7915">
        <ele>425.8</ele>
        <time>2022-10-15 13:58:34</time>
      </trkpt>
      <trkpt lat="38.49658" lon="-0.79147">
        <ele>425.8</ele>
        <time>2022-10-15 13:58:35</time>
      </trkpt>
      <trkpt lat="38.49657" lon="-0.79144">
        <ele>425.8</ele>
        <time>2022-10-15 13:58:36</time>
      </trkpt>
      <trkpt lat="38.49657" lon="-0.79141">
        <ele>425.6</ele>
        <time>2022-10-15 13:58:37</time>
      </trkpt>
      <trkpt lat="38.49657" lon="-0.79141">
        <ele>425.6</ele>
        <time>2022-10-15 13:58:38</time>
      </trkpt>
      <trkpt lat="38.49656" lon="-0.79133">
        <ele>425.6</ele>
        <time>2022-10-15 13:58:39</time>
      </trkpt>
      <trkpt lat="38.49656" lon="-0.7913">
        <ele>425.6</ele>
        <time>2022-10-15 13:58:40</time>
      </trkpt>
      <trkpt lat="38.49656" lon="-0.79126">
        <ele>425.6</ele>
        <time>2022-10-15 13:58:41</time>
      </trkpt>
      <trkpt lat="38.49655" lon="-0.79122">
        <ele>425.6</ele>
        <time>2022-10-15 13:58:42</time>
      </trkpt>
      <trkpt lat="38.49654" lon="-0.79118">
        <ele>425.6</ele>
        <time>2022-10-15 13:58:43</time>
      </trkpt>
      <trkpt lat="38.49654" lon="-0.79118">
        <ele>425.4</ele>
        <time>2022-10-15 13:58:44</time>
      </trkpt>
      <trkpt lat="38.49653" lon="-0.79111">
        <ele>425.4</ele>
        <time>2022-10-15 13:58:45</time>
      </trkpt>
      <trkpt lat="38.49652" lon="-0.79107">
        <ele>425.4</ele>
        <time>2022-10-15 13:58:46</time>
      </trkpt>
      <trkpt lat="38.49651" lon="-0.79102">
        <ele>425.4</ele>
        <time>2022-10-15 13:58:47</time>
      </trkpt>
      <trkpt lat="38.4965" lon="-0.79098">
        <ele>425.4</ele>
        <time>2022-10-15 13:58:48</time>
      </trkpt>
      <trkpt lat="38.49647" lon="-0.79088">
        <ele>425.4</ele>
        <time>2022-10-15 13:58:49</time>
      </trkpt>
      <trkpt lat="38.49646" lon="-0.79084">
        <ele>425.4</ele>
        <time>2022-10-15 13:58:50</time>
      </trkpt>
      <trkpt lat="38.49644" lon="-0.79079">
        <ele>425.4</ele>
        <time>2022-10-15 13:58:51</time>
      </trkpt>
      <trkpt lat="38.49642" lon="-0.79074">
        <ele>425.4</ele>
        <time>2022-10-15 13:58:52</time>
      </trkpt>
      <trkpt lat="38.4964" lon="-0.7907">
        <ele>425.4</ele>
        <time>2022-10-15 13:58:53</time>
      </trkpt>
      <trkpt lat="38.49638" lon="-0.79065">
        <ele>425.4</ele>
        <time>2022-10-15 13:58:55</time>
      </trkpt>
      <trkpt lat="38.49638" lon="-0.79065">
        <ele>425.6</ele>
        <time>2022-10-15 13:58:56</time>
      </trkpt>
      <trkpt lat="38.49634" lon="-0.79057">
        <ele>425.6</ele>
        <time>2022-10-15 13:58:57</time>
      </trkpt>
      <trkpt lat="38.49631" lon="-0.79053">
        <ele>425.6</ele>
        <time>2022-10-15 13:58:58</time>
      </trkpt>
      <trkpt lat="38.49628" lon="-0.79049">
        <ele>425.6</ele>
        <time>2022-10-15 13:58:59</time>
      </trkpt>
      <trkpt lat="38.49625" lon="-0.79046">
        <ele>425.6</ele>
        <time>2022-10-15 13:59:00</time>
      </trkpt>
      <trkpt lat="38.49623" lon="-0.79042">
        <ele>425.6</ele>
        <time>2022-10-15 13:59:01</time>
      </trkpt>
      <trkpt lat="38.49621" lon="-0.79039">
        <ele>425.6</ele>
        <time>2022-10-15 13:59:02</time>
      </trkpt>
      <trkpt lat="38.49619" lon="-0.79031">
        <ele>425.6</ele>
        <time>2022-10-15 13:59:03</time>
      </trkpt>
      <trkpt lat="38.49617" lon="-0.79022">
        <ele>425.8</ele>
        <time>2022-10-15 13:59:04</time>
      </trkpt>
      <trkpt lat="38.49615" lon="-0.79018">
        <ele>425.8</ele>
        <time>2022-10-15 13:59:05</time>
      </trkpt>
      <trkpt lat="38.49613" lon="-0.79015">
        <ele>425.8</ele>
        <time>2022-10-15 13:59:06</time>
      </trkpt>
      <trkpt lat="38.4961" lon="-0.79012">
        <ele>425.8</ele>
        <time>2022-10-15 13:59:07</time>
      </trkpt>
      <trkpt lat="38.49607" lon="-0.79009">
        <ele>425.8</ele>
        <time>2022-10-15 13:59:09</time>
      </trkpt>
      <trkpt lat="38.49605" lon="-0.79005">
        <ele>425.8</ele>
        <time>2022-10-15 13:59:11</time>
      </trkpt>
      <trkpt lat="38.49603" lon="-0.79001">
        <ele>425.6</ele>
        <time>2022-10-15 13:59:12</time>
      </trkpt>
      <trkpt lat="38.496" lon="-0.78996">
        <ele>425.8</ele>
        <time>2022-10-15 13:59:13</time>
      </trkpt>
      <trkpt lat="38.49598" lon="-0.78992">
        <ele>425.8</ele>
        <time>2022-10-15 13:59:14</time>
      </trkpt>
      <trkpt lat="38.49596" lon="-0.78988">
        <ele>425.8</ele>
        <time>2022-10-15 13:59:15</time>
      </trkpt>
      <trkpt lat="38.49593" lon="-0.78984">
        <ele>425.8</ele>
        <time>2022-10-15 13:59:16</time>
      </trkpt>
      <trkpt lat="38.49591" lon="-0.7898">
        <ele>425.8</ele>
        <time>2022-10-15 13:59:17</time>
      </trkpt>
      <trkpt lat="38.49588" lon="-0.78976">
        <ele>425.8</ele>
        <time>2022-10-15 13:59:18</time>
      </trkpt>
      <trkpt lat="38.49585" lon="-0.78972">
        <ele>425.8</ele>
        <time>2022-10-15 13:59:19</time>
      </trkpt>
      <trkpt lat="38.49583" lon="-0.78968">
        <ele>425.8</ele>
        <time>2022-10-15 13:59:20</time>
      </trkpt>
      <trkpt lat="38.4958" lon="-0.78964">
        <ele>425.8</ele>
        <time>2022-10-15 13:59:21</time>
      </trkpt>
      <trkpt lat="38.49577" lon="-0.78959">
        <ele>425.8</ele>
        <time>2022-10-15 13:59:22</time>
      </trkpt>
      <trkpt lat="38.49575" lon="-0.78955">
        <ele>425.8</ele>
        <time>2022-10-15 13:59:23</time>
      </trkpt>
      <trkpt lat="38.4957" lon="-0.78947">
        <ele>425.8</ele>
        <time>2022-10-15 13:59:24</time>
      </trkpt>
      <trkpt lat="38.4957" lon="-0.78947">
        <ele>425.8</ele>
        <time>2022-10-15 13:59:25</time>
      </trkpt>
      <trkpt lat="38.49564" lon="-0.7894">
        <ele>425.8</ele>
        <time>2022-10-15 13:59:26</time>
      </trkpt>
      <trkpt lat="38.49561" lon="-0.78937">
        <ele>426</ele>
        <time>2022-10-15 13:59:27</time>
      </trkpt>
      <trkpt lat="38.49559" lon="-0.78933">
        <ele>426</ele>
        <time>2022-10-15 13:59:28</time>
      </trkpt>
      <trkpt lat="38.49557" lon="-0.78929">
        <ele>426</ele>
        <time>2022-10-15 13:59:30</time>
      </trkpt>
      <trkpt lat="38.49554" lon="-0.78925">
        <ele>426.4</ele>
        <time>2022-10-15 13:59:31</time>
      </trkpt>
      <trkpt lat="38.49552" lon="-0.78922">
        <ele>426.2</ele>
        <time>2022-10-15 13:59:32</time>
      </trkpt>
      <trkpt lat="38.49549" lon="-0.78919">
        <ele>426.2</ele>
        <time>2022-10-15 13:59:33</time>
      </trkpt>
      <trkpt lat="38.49546" lon="-0.78916">
        <ele>426.4</ele>
        <time>2022-10-15 13:59:34</time>
      </trkpt>
      <trkpt lat="38.49543" lon="-0.78913">
        <ele>426.4</ele>
        <time>2022-10-15 13:59:35</time>
      </trkpt>
      <trkpt lat="38.49541" lon="-0.7891">
        <ele>426.4</ele>
        <time>2022-10-15 13:59:36</time>
      </trkpt>
      <trkpt lat="38.4954" lon="-0.78906">
        <ele>426.6</ele>
        <time>2022-10-15 13:59:37</time>
      </trkpt>
      <trkpt lat="38.49538" lon="-0.78902">
        <ele>426.6</ele>
        <time>2022-10-15 13:59:38</time>
      </trkpt>
      <trkpt lat="38.49537" lon="-0.78898">
        <ele>426.6</ele>
        <time>2022-10-15 13:59:39</time>
      </trkpt>
      <trkpt lat="38.49536" lon="-0.78894">
        <ele>426.6</ele>
        <time>2022-10-15 13:59:40</time>
      </trkpt>
      <trkpt lat="38.49534" lon="-0.7889">
        <ele>426.6</ele>
        <time>2022-10-15 13:59:41</time>
      </trkpt>
      <trkpt lat="38.49532" lon="-0.78886">
        <ele>426.6</ele>
        <time>2022-10-15 13:59:42</time>
      </trkpt>
      <trkpt lat="38.4953" lon="-0.78882">
        <ele>426.8</ele>
        <time>2022-10-15 13:59:43</time>
      </trkpt>
      <trkpt lat="38.49527" lon="-0.78874">
        <ele>426.8</ele>
        <time>2022-10-15 13:59:44</time>
      </trkpt>
      <trkpt lat="38.49526" lon="-0.7887">
        <ele>426.8</ele>
        <time>2022-10-15 13:59:45</time>
      </trkpt>
      <trkpt lat="38.49525" lon="-0.78866">
        <ele>426.8</ele>
        <time>2022-10-15 13:59:46</time>
      </trkpt>
      <trkpt lat="38.49524" lon="-0.78861">
        <ele>426.8</ele>
        <time>2022-10-15 13:59:47</time>
      </trkpt>
      <trkpt lat="38.49524" lon="-0.78857">
        <ele>426.8</ele>
        <time>2022-10-15 13:59:49</time>
      </trkpt>
      <trkpt lat="38.49524" lon="-0.78857">
        <ele>426.8</ele>
        <time>2022-10-15 13:59:50</time>
      </trkpt>
      <trkpt lat="38.49523" lon="-0.78849">
        <ele>427</ele>
        <time>2022-10-15 13:59:51</time>
      </trkpt>
      <trkpt lat="38.49523" lon="-0.78844">
        <ele>427.4</ele>
        <time>2022-10-15 13:59:52</time>
      </trkpt>
      <trkpt lat="38.49522" lon="-0.7884">
        <ele>427.6</ele>
        <time>2022-10-15 13:59:53</time>
      </trkpt>
      <trkpt lat="38.49521" lon="-0.78835">
        <ele>427.8</ele>
        <time>2022-10-15 13:59:54</time>
      </trkpt>
      <trkpt lat="38.49521" lon="-0.78831">
        <ele>427.8</ele>
        <time>2022-10-15 13:59:55</time>
      </trkpt>
      <trkpt lat="38.49521" lon="-0.78831">
        <ele>428.2</ele>
        <time>2022-10-15 13:59:56</time>
      </trkpt>
      <trkpt lat="38.49519" lon="-0.78822">
        <ele>428.4</ele>
        <time>2022-10-15 13:59:57</time>
      </trkpt>
      <trkpt lat="38.49518" lon="-0.78818">
        <ele>428.6</ele>
        <time>2022-10-15 13:59:58</time>
      </trkpt>
      <trkpt lat="38.49518" lon="-0.78812">
        <ele>428.8</ele>
        <time>2022-10-15 13:59:59</time>
      </trkpt>
      <trkpt lat="38.49519" lon="-0.78806">
        <ele>428.8</ele>
        <time>2022-10-15 14:00:00</time>
      </trkpt>
      <trkpt lat="38.4952" lon="-0.788">
        <ele>428.8</ele>
        <time>2022-10-15 14:00:01</time>
      </trkpt>
      <trkpt lat="38.4952" lon="-0.788">
        <ele>428.8</ele>
        <time>2022-10-15 14:00:02</time>
      </trkpt>
      <trkpt lat="38.49524" lon="-0.78789">
        <ele>428.8</ele>
        <time>2022-10-15 14:00:03</time>
      </trkpt>
      <trkpt lat="38.49526" lon="-0.78784">
        <ele>428.8</ele>
        <time>2022-10-15 14:00:04</time>
      </trkpt>
      <trkpt lat="38.49528" lon="-0.78779">
        <ele>428.8</ele>
        <time>2022-10-15 14:00:05</time>
      </trkpt>
      <trkpt lat="38.49531" lon="-0.78774">
        <ele>428.8</ele>
        <time>2022-10-15 14:00:06</time>
      </trkpt>
      <trkpt lat="38.49534" lon="-0.7877">
        <ele>428.8</ele>
        <time>2022-10-15 14:00:07</time>
      </trkpt>
      <trkpt lat="38.49534" lon="-0.7877">
        <ele>428.2</ele>
        <time>2022-10-15 14:00:08</time>
      </trkpt>
      <trkpt lat="38.49539" lon="-0.78762">
        <ele>427.2</ele>
        <time>2022-10-15 14:00:09</time>
      </trkpt>
      <trkpt lat="38.49542" lon="-0.7876">
        <ele>426.8</ele>
        <time>2022-10-15 14:00:10</time>
      </trkpt>
      <trkpt lat="38.49545" lon="-0.78758">
        <ele>426.4</ele>
        <time>2022-10-15 14:00:11</time>
      </trkpt>
      <trkpt lat="38.49546" lon="-0.78756">
        <ele>426</ele>
        <time>2022-10-15 14:00:12</time>
      </trkpt>
      <trkpt lat="38.49547" lon="-0.78756">
        <ele>425.8</ele>
        <time>2022-10-15 14:00:13</time>
      </trkpt>
      <trkpt lat="38.49547" lon="-0.78756">
        <ele>425.4</ele>
        <time>2022-10-15 14:00:14</time>
      </trkpt>
      <trkpt lat="38.49548" lon="-0.78756">
        <ele>425.2</ele>
        <time>2022-10-15 14:00:15</time>
      </trkpt>
      <trkpt lat="38.49548" lon="-0.78756">
        <ele>425</ele>
        <time>2022-10-15 14:00:16</time>
      </trkpt>
      <trkpt lat="38.49549" lon="-0.78754">
        <ele>425.4</ele>
        <time>2022-10-15 14:00:17</time>
      </trkpt>
      <trkpt lat="38.49549" lon="-0.78751">
        <ele>425.4</ele>
        <time>2022-10-15 14:00:18</time>
      </trkpt>
      <trkpt lat="38.49549" lon="-0.78751">
        <ele>425.4</ele>
        <time>2022-10-15 14:00:19</time>
      </trkpt>
      <trkpt lat="38.4955" lon="-0.78744">
        <ele>425.4</ele>
        <time>2022-10-15 14:00:20</time>
      </trkpt>
      <trkpt lat="38.49551" lon="-0.7874">
        <ele>425.4</ele>
        <time>2022-10-15 14:00:21</time>
      </trkpt>
      <trkpt lat="38.49552" lon="-0.78735">
        <ele>425.4</ele>
        <time>2022-10-15 14:00:41</time>
      </trkpt>
      <trkpt lat="38.49552" lon="-0.78729">
        <ele>425.4</ele>
        <time>2022-10-15 14:00:42</time>
      </trkpt>
      <trkpt lat="38.49551" lon="-0.78723">
        <ele>425.2</ele>
        <time>2022-10-15 14:00:43</time>
      </trkpt>
      <trkpt lat="38.49551" lon="-0.78723">
        <ele>425</ele>
        <time>2022-10-15 14:00:44</time>
      </trkpt>
      <trkpt lat="38.49552" lon="-0.78711">
        <ele>424.8</ele>
        <time>2022-10-15 14:00:45</time>
      </trkpt>
      <trkpt lat="38.49553" lon="-0.78705">
        <ele>424.6</ele>
        <time>2022-10-15 14:00:46</time>
      </trkpt>
      <trkpt lat="38.49553" lon="-0.787">
        <ele>424</ele>
        <time>2022-10-15 14:00:47</time>
      </trkpt>
      <trkpt lat="38.49554" lon="-0.78695">
        <ele>423.2</ele>
        <time>2022-10-15 14:00:48</time>
      </trkpt>
      <trkpt lat="38.49556" lon="-0.78691">
        <ele>422.2</ele>
        <time>2022-10-15 14:00:49</time>
      </trkpt>
      <trkpt lat="38.49556" lon="-0.78691">
        <ele>421.4</ele>
        <time>2022-10-15 14:00:50</time>
      </trkpt>
      <trkpt lat="38.49558" lon="-0.78683">
        <ele>420.8</ele>
        <time>2022-10-15 14:00:51</time>
      </trkpt>
      <trkpt lat="38.49558" lon="-0.78679">
        <ele>420.4</ele>
        <time>2022-10-15 14:00:52</time>
      </trkpt>
      <trkpt lat="38.49557" lon="-0.78675">
        <ele>420.2</ele>
        <time>2022-10-15 14:00:53</time>
      </trkpt>
      <trkpt lat="38.49556" lon="-0.78672">
        <ele>420.2</ele>
        <time>2022-10-15 14:00:54</time>
      </trkpt>
      <trkpt lat="38.49554" lon="-0.7867">
        <ele>420.2</ele>
        <time>2022-10-15 14:00:55</time>
      </trkpt>
      <trkpt lat="38.49554" lon="-0.7867">
        <ele>420.2</ele>
        <time>2022-10-15 14:00:56</time>
      </trkpt>
      <trkpt lat="38.49552" lon="-0.78666">
        <ele>420.2</ele>
        <time>2022-10-15 14:00:57</time>
      </trkpt>
      <trkpt lat="38.49551" lon="-0.78662">
        <ele>420</ele>
        <time>2022-10-15 14:00:58</time>
      </trkpt>
      <trkpt lat="38.4955" lon="-0.78658">
        <ele>420</ele>
        <time>2022-10-15 14:00:59</time>
      </trkpt>
      <trkpt lat="38.4955" lon="-0.78655">
        <ele>420</ele>
        <time>2022-10-15 14:01:00</time>
      </trkpt>
      <trkpt lat="38.49549" lon="-0.78651">
        <ele>420</ele>
        <time>2022-10-15 14:01:01</time>
      </trkpt>
      <trkpt lat="38.49549" lon="-0.78651">
        <ele>420</ele>
        <time>2022-10-15 14:01:02</time>
      </trkpt>
      <trkpt lat="38.49547" lon="-0.78646">
        <ele>420.2</ele>
        <time>2022-10-15 14:01:03</time>
      </trkpt>
      <trkpt lat="38.49544" lon="-0.78641">
        <ele>420.2</ele>
        <time>2022-10-15 14:01:04</time>
      </trkpt>
      <trkpt lat="38.49542" lon="-0.78639">
        <ele>420.2</ele>
        <time>2022-10-15 14:01:05</time>
      </trkpt>
      <trkpt lat="38.4954" lon="-0.78636">
        <ele>420.2</ele>
        <time>2022-10-15 14:01:06</time>
      </trkpt>
      <trkpt lat="38.4954" lon="-0.78636">
        <ele>420.2</ele>
        <time>2022-10-15 14:01:07</time>
      </trkpt>
      <trkpt lat="38.49535" lon="-0.78631">
        <ele>420.2</ele>
        <time>2022-10-15 14:01:08</time>
      </trkpt>
      <trkpt lat="38.49533" lon="-0.78629">
        <ele>420.2</ele>
        <time>2022-10-15 14:01:10</time>
      </trkpt>
      <trkpt lat="38.4953" lon="-0.78628">
        <ele>420.4</ele>
        <time>2022-10-15 14:01:11</time>
      </trkpt>
      <trkpt lat="38.49528" lon="-0.78627">
        <ele>420.4</ele>
        <time>2022-10-15 14:01:12</time>
      </trkpt>
      <trkpt lat="38.49526" lon="-0.78625">
        <ele>420.4</ele>
        <time>2022-10-15 14:01:13</time>
      </trkpt>
      <trkpt lat="38.49526" lon="-0.78625">
        <ele>420.4</ele>
        <time>2022-10-15 14:01:14</time>
      </trkpt>
      <trkpt lat="38.49521" lon="-0.78621">
        <ele>420.4</ele>
        <time>2022-10-15 14:01:15</time>
      </trkpt>
      <trkpt lat="38.49519" lon="-0.78618">
        <ele>420.4</ele>
        <time>2022-10-15 14:01:16</time>
      </trkpt>
      <trkpt lat="38.49518" lon="-0.78616">
        <ele>420.4</ele>
        <time>2022-10-15 14:01:17</time>
      </trkpt>
      <trkpt lat="38.49516" lon="-0.78614">
        <ele>420.8</ele>
        <time>2022-10-15 14:01:18</time>
      </trkpt>
      <trkpt lat="38.49514" lon="-0.78612">
        <ele>421.2</ele>
        <time>2022-10-15 14:01:19</time>
      </trkpt>
      <trkpt lat="38.49514" lon="-0.78612">
        <ele>421.4</ele>
        <time>2022-10-15 14:01:20</time>
      </trkpt>
      <trkpt lat="38.4951" lon="-0.78609">
        <ele>421.6</ele>
        <time>2022-10-15 14:01:21</time>
      </trkpt>
      <trkpt lat="38.49508" lon="-0.78609">
        <ele>422.2</ele>
        <time>2022-10-15 14:01:22</time>
      </trkpt>
      <trkpt lat="38.49505" lon="-0.78608">
        <ele>422.6</ele>
        <time>2022-10-15 14:01:23</time>
      </trkpt>
      <trkpt lat="38.49503" lon="-0.78608">
        <ele>422.8</ele>
        <time>2022-10-15 14:01:24</time>
      </trkpt>
      <trkpt lat="38.49501" lon="-0.78607">
        <ele>423</ele>
        <time>2022-10-15 14:01:25</time>
      </trkpt>
      <trkpt lat="38.49501" lon="-0.78607">
        <ele>423</ele>
        <time>2022-10-15 14:01:26</time>
      </trkpt>
      <trkpt lat="38.49497" lon="-0.78607">
        <ele>423</ele>
        <time>2022-10-15 14:01:27</time>
      </trkpt>
      <trkpt lat="38.49495" lon="-0.78605">
        <ele>423</ele>
        <time>2022-10-15 14:01:28</time>
      </trkpt>
      <trkpt lat="38.49493" lon="-0.78604">
        <ele>423</ele>
        <time>2022-10-15 14:01:29</time>
      </trkpt>
      <trkpt lat="38.49492" lon="-0.78602">
        <ele>423</ele>
        <time>2022-10-15 14:01:30</time>
      </trkpt>
      <trkpt lat="38.4949" lon="-0.78601">
        <ele>423</ele>
        <time>2022-10-15 14:01:31</time>
      </trkpt>
      <trkpt lat="38.4949" lon="-0.78601">
        <ele>423</ele>
        <time>2022-10-15 14:01:32</time>
      </trkpt>
      <trkpt lat="38.49485" lon="-0.78598">
        <ele>423</ele>
        <time>2022-10-15 14:01:33</time>
      </trkpt>
      <trkpt lat="38.49482" lon="-0.78596">
        <ele>423</ele>
        <time>2022-10-15 14:01:34</time>
      </trkpt>
      <trkpt lat="38.49478" lon="-0.78594">
        <ele>423</ele>
        <time>2022-10-15 14:01:35</time>
      </trkpt>
      <trkpt lat="38.49475" lon="-0.78593">
        <ele>423</ele>
        <time>2022-10-15 14:01:36</time>
      </trkpt>
      <trkpt lat="38.49471" lon="-0.78591">
        <ele>423</ele>
        <time>2022-10-15 14:01:37</time>
      </trkpt>
      <trkpt lat="38.49471" lon="-0.78591">
        <ele>423</ele>
        <time>2022-10-15 14:01:38</time>
      </trkpt>
      <trkpt lat="38.49464" lon="-0.78587">
        <ele>423</ele>
        <time>2022-10-15 14:01:39</time>
      </trkpt>
      <trkpt lat="38.49455" lon="-0.78582">
        <ele>422.8</ele>
        <time>2022-10-15 14:01:40</time>
      </trkpt>
      <trkpt lat="38.49452" lon="-0.7858">
        <ele>422.8</ele>
        <time>2022-10-15 14:01:41</time>
      </trkpt>
      <trkpt lat="38.49448" lon="-0.78578">
        <ele>422.8</ele>
        <time>2022-10-15 14:01:42</time>
      </trkpt>
      <trkpt lat="38.49448" lon="-0.78578">
        <ele>422.6</ele>
        <time>2022-10-15 14:01:43</time>
      </trkpt>
      <trkpt lat="38.49441" lon="-0.78574">
        <ele>422.6</ele>
        <time>2022-10-15 14:01:44</time>
      </trkpt>
      <trkpt lat="38.49436" lon="-0.78573">
        <ele>422.6</ele>
        <time>2022-10-15 14:01:46</time>
      </trkpt>
      <trkpt lat="38.49432" lon="-0.78571">
        <ele>422.4</ele>
        <time>2022-10-15 14:01:47</time>
      </trkpt>
      <trkpt lat="38.49428" lon="-0.7857">
        <ele>422.4</ele>
        <time>2022-10-15 14:01:48</time>
      </trkpt>
      <trkpt lat="38.49423" lon="-0.78569">
        <ele>422.4</ele>
        <time>2022-10-15 14:01:49</time>
      </trkpt>
      <trkpt lat="38.49423" lon="-0.78569">
        <ele>422.6</ele>
        <time>2022-10-15 14:01:50</time>
      </trkpt>
      <trkpt lat="38.49414" lon="-0.78568">
        <ele>422.4</ele>
        <time>2022-10-15 14:01:51</time>
      </trkpt>
      <trkpt lat="38.49405" lon="-0.78567">
        <ele>422.4</ele>
        <time>2022-10-15 14:01:52</time>
      </trkpt>
      <trkpt lat="38.494" lon="-0.78567">
        <ele>422.4</ele>
        <time>2022-10-15 14:01:53</time>
      </trkpt>
      <trkpt lat="38.494" lon="-0.78567">
        <ele>422.2</ele>
        <time>2022-10-15 14:01:54</time>
      </trkpt>
      <trkpt lat="38.49395" lon="-0.78568">
        <ele>422</ele>
        <time>2022-10-15 14:01:55</time>
      </trkpt>
      <trkpt lat="38.49386" lon="-0.78576">
        <ele>421.8</ele>
        <time>2022-10-15 14:01:56</time>
      </trkpt>
      <trkpt lat="38.49386" lon="-0.78576">
        <ele>421.8</ele>
        <time>2022-10-15 14:01:58</time>
      </trkpt>
      <trkpt lat="38.49379" lon="-0.78587">
        <ele>421.6</ele>
        <time>2022-10-15 14:01:59</time>
      </trkpt>
      <trkpt lat="38.49377" lon="-0.78593">
        <ele>421.6</ele>
        <time>2022-10-15 14:02:00</time>
      </trkpt>
      <trkpt lat="38.49375" lon="-0.78599">
        <ele>421.4</ele>
        <time>2022-10-15 14:02:01</time>
      </trkpt>
      <trkpt lat="38.49375" lon="-0.78599">
        <ele>421.2</ele>
        <time>2022-10-15 14:02:02</time>
      </trkpt>
      <trkpt lat="38.49373" lon="-0.78611">
        <ele>420.8</ele>
        <time>2022-10-15 14:02:03</time>
      </trkpt>
      <trkpt lat="38.49372" lon="-0.78616">
        <ele>420.6</ele>
        <time>2022-10-15 14:02:04</time>
      </trkpt>
      <trkpt lat="38.49371" lon="-0.7862">
        <ele>420.4</ele>
        <time>2022-10-15 14:02:05</time>
      </trkpt>
      <trkpt lat="38.49371" lon="-0.78624">
        <ele>420.4</ele>
        <time>2022-10-15 14:02:06</time>
      </trkpt>
      <trkpt lat="38.4937" lon="-0.78627">
        <ele>420.4</ele>
        <time>2022-10-15 14:02:07</time>
      </trkpt>
      <trkpt lat="38.4937" lon="-0.78627">
        <ele>420.4</ele>
        <time>2022-10-15 14:02:08</time>
      </trkpt>
      <trkpt lat="38.49367" lon="-0.78634">
        <ele>420.4</ele>
        <time>2022-10-15 14:02:09</time>
      </trkpt>
      <trkpt lat="38.49365" lon="-0.78638">
        <ele>420.4</ele>
        <time>2022-10-15 14:02:10</time>
      </trkpt>
      <trkpt lat="38.49364" lon="-0.78642">
        <ele>420.4</ele>
        <time>2022-10-15 14:02:11</time>
      </trkpt>
      <trkpt lat="38.49363" lon="-0.78645">
        <ele>420.4</ele>
        <time>2022-10-15 14:02:12</time>
      </trkpt>
      <trkpt lat="38.49362" lon="-0.78649">
        <ele>420.6</ele>
        <time>2022-10-15 14:02:13</time>
      </trkpt>
      <trkpt lat="38.49362" lon="-0.78649">
        <ele>421.2</ele>
        <time>2022-10-15 14:02:14</time>
      </trkpt>
      <trkpt lat="38.4936" lon="-0.78657">
        <ele>421.2</ele>
        <time>2022-10-15 14:02:15</time>
      </trkpt>
      <trkpt lat="38.49359" lon="-0.78661">
        <ele>421.4</ele>
        <time>2022-10-15 14:02:16</time>
      </trkpt>
      <trkpt lat="38.49359" lon="-0.78665">
        <ele>421.4</ele>
        <time>2022-10-15 14:02:17</time>
      </trkpt>
      <trkpt lat="38.4936" lon="-0.78669">
        <ele>421.4</ele>
        <time>2022-10-15 14:02:18</time>
      </trkpt>
      <trkpt lat="38.49363" lon="-0.78673">
        <ele>421.4</ele>
        <time>2022-10-15 14:02:19</time>
      </trkpt>
      <trkpt lat="38.49363" lon="-0.78673">
        <ele>421.4</ele>
        <time>2022-10-15 14:02:20</time>
      </trkpt>
      <trkpt lat="38.4937" lon="-0.78678">
        <ele>421.4</ele>
        <time>2022-10-15 14:02:21</time>
      </trkpt>
      <trkpt lat="38.49374" lon="-0.78681">
        <ele>421.6</ele>
        <time>2022-10-15 14:02:22</time>
      </trkpt>
      <trkpt lat="38.49377" lon="-0.78684">
        <ele>421.6</ele>
        <time>2022-10-15 14:02:23</time>
      </trkpt>
      <trkpt lat="38.4938" lon="-0.78687">
        <ele>421.6</ele>
        <time>2022-10-15 14:02:24</time>
      </trkpt>
      <trkpt lat="38.49383" lon="-0.7869">
        <ele>421.6</ele>
        <time>2022-10-15 14:02:25</time>
      </trkpt>
      <trkpt lat="38.49383" lon="-0.7869">
        <ele>421.6</ele>
        <time>2022-10-15 14:02:26</time>
      </trkpt>
      <trkpt lat="38.49384" lon="-0.78699">
        <ele>421.6</ele>
        <time>2022-10-15 14:02:27</time>
      </trkpt>
      <trkpt lat="38.49382" lon="-0.78704">
        <ele>421.8</ele>
        <time>2022-10-15 14:02:28</time>
      </trkpt>
      <trkpt lat="38.4938" lon="-0.78709">
        <ele>422</ele>
        <time>2022-10-15 14:02:29</time>
      </trkpt>
      <trkpt lat="38.49378" lon="-0.78716">
        <ele>422.2</ele>
        <time>2022-10-15 14:02:30</time>
      </trkpt>
      <trkpt lat="38.49376" lon="-0.78722">
        <ele>422.2</ele>
        <time>2022-10-15 14:02:31</time>
      </trkpt>
      <trkpt lat="38.49376" lon="-0.78722">
        <ele>422.2</ele>
        <time>2022-10-15 14:02:32</time>
      </trkpt>
      <trkpt lat="38.49372" lon="-0.78736">
        <ele>422.4</ele>
        <time>2022-10-15 14:02:33</time>
      </trkpt>
      <trkpt lat="38.4937" lon="-0.78743">
        <ele>422.4</ele>
        <time>2022-10-15 14:02:34</time>
      </trkpt>
      <trkpt lat="38.49368" lon="-0.7875">
        <ele>422.4</ele>
        <time>2022-10-15 14:02:35</time>
      </trkpt>
      <trkpt lat="38.49367" lon="-0.78758">
        <ele>422.4</ele>
        <time>2022-10-15 14:02:36</time>
      </trkpt>
      <trkpt lat="38.49365" lon="-0.78765">
        <ele>422.4</ele>
        <time>2022-10-15 14:02:37</time>
      </trkpt>
      <trkpt lat="38.49365" lon="-0.78765">
        <ele>422.4</ele>
        <time>2022-10-15 14:02:38</time>
      </trkpt>
      <trkpt lat="38.49363" lon="-0.7878">
        <ele>422.4</ele>
        <time>2022-10-15 14:02:39</time>
      </trkpt>
      <trkpt lat="38.49361" lon="-0.78787">
        <ele>422.4</ele>
        <time>2022-10-15 14:02:40</time>
      </trkpt>
      <trkpt lat="38.4936" lon="-0.78794">
        <ele>422.4</ele>
        <time>2022-10-15 14:02:41</time>
      </trkpt>
      <trkpt lat="38.49359" lon="-0.78801">
        <ele>422.6</ele>
        <time>2022-10-15 14:02:42</time>
      </trkpt>
      <trkpt lat="38.49358" lon="-0.78809">
        <ele>422.6</ele>
        <time>2022-10-15 14:02:43</time>
      </trkpt>
      <trkpt lat="38.49358" lon="-0.78809">
        <ele>422.6</ele>
        <time>2022-10-15 14:02:44</time>
      </trkpt>
      <trkpt lat="38.49356" lon="-0.78824">
        <ele>422.6</ele>
        <time>2022-10-15 14:02:45</time>
      </trkpt>
      <trkpt lat="38.49355" lon="-0.78831">
        <ele>422.6</ele>
        <time>2022-10-15 14:02:46</time>
      </trkpt>
      <trkpt lat="38.49353" lon="-0.78838">
        <ele>422.6</ele>
        <time>2022-10-15 14:02:47</time>
      </trkpt>
      <trkpt lat="38.49352" lon="-0.78845">
        <ele>422.8</ele>
        <time>2022-10-15 14:02:48</time>
      </trkpt>
      <trkpt lat="38.49349" lon="-0.78851">
        <ele>422.8</ele>
        <time>2022-10-15 14:02:49</time>
      </trkpt>
      <trkpt lat="38.49349" lon="-0.78851">
        <ele>422.8</ele>
        <time>2022-10-15 14:02:50</time>
      </trkpt>
      <trkpt lat="38.49344" lon="-0.78863">
        <ele>423</ele>
        <time>2022-10-15 14:02:51</time>
      </trkpt>
      <trkpt lat="38.49341" lon="-0.78869">
        <ele>423</ele>
        <time>2022-10-15 14:02:52</time>
      </trkpt>
      <trkpt lat="38.49339" lon="-0.78876">
        <ele>423</ele>
        <time>2022-10-15 14:02:53</time>
      </trkpt>
      <trkpt lat="38.49337" lon="-0.78882">
        <ele>423.2</ele>
        <time>2022-10-15 14:02:54</time>
      </trkpt>
      <trkpt lat="38.49336" lon="-0.78889">
        <ele>423.2</ele>
        <time>2022-10-15 14:02:55</time>
      </trkpt>
      <trkpt lat="38.49336" lon="-0.78889">
        <ele>423.2</ele>
        <time>2022-10-15 14:02:56</time>
      </trkpt>
      <trkpt lat="38.49334" lon="-0.78902">
        <ele>423.2</ele>
        <time>2022-10-15 14:02:57</time>
      </trkpt>
      <trkpt lat="38.49333" lon="-0.78909">
        <ele>423.2</ele>
        <time>2022-10-15 14:02:58</time>
      </trkpt>
      <trkpt lat="38.49332" lon="-0.78916">
        <ele>423.2</ele>
        <time>2022-10-15 14:02:59</time>
      </trkpt>
      <trkpt lat="38.4933" lon="-0.78923">
        <ele>423.2</ele>
        <time>2022-10-15 14:03:00</time>
      </trkpt>
      <trkpt lat="38.49328" lon="-0.78931">
        <ele>423.2</ele>
        <time>2022-10-15 14:03:01</time>
      </trkpt>
      <trkpt lat="38.49328" lon="-0.78931">
        <ele>423.2</ele>
        <time>2022-10-15 14:03:02</time>
      </trkpt>
      <trkpt lat="38.49323" lon="-0.78946">
        <ele>423.2</ele>
        <time>2022-10-15 14:03:03</time>
      </trkpt>
      <trkpt lat="38.4932" lon="-0.78953">
        <ele>423.2</ele>
        <time>2022-10-15 14:03:04</time>
      </trkpt>
      <trkpt lat="38.49317" lon="-0.78961">
        <ele>423.2</ele>
        <time>2022-10-15 14:03:05</time>
      </trkpt>
      <trkpt lat="38.49314" lon="-0.78968">
        <ele>423.2</ele>
        <time>2022-10-15 14:03:06</time>
      </trkpt>
      <trkpt lat="38.49311" lon="-0.78973">
        <ele>423.2</ele>
        <time>2022-10-15 14:03:07</time>
      </trkpt>
      <trkpt lat="38.49311" lon="-0.78973">
        <ele>422.8</ele>
        <time>2022-10-15 14:03:08</time>
      </trkpt>
      <trkpt lat="38.49308" lon="-0.78981">
        <ele>422.4</ele>
        <time>2022-10-15 14:03:09</time>
      </trkpt>
      <trkpt lat="38.49307" lon="-0.78983">
        <ele>422</ele>
        <time>2022-10-15 14:03:10</time>
      </trkpt>
      <trkpt lat="38.49306" lon="-0.78986">
        <ele>421.8</ele>
        <time>2022-10-15 14:03:11</time>
      </trkpt>
      <trkpt lat="38.49305" lon="-0.78987">
        <ele>421.6</ele>
        <time>2022-10-15 14:03:12</time>
      </trkpt>
      <trkpt lat="38.49304" lon="-0.78989">
        <ele>420.8</ele>
        <time>2022-10-15 14:03:13</time>
      </trkpt>
      <trkpt lat="38.49304" lon="-0.78989">
        <ele>419.8</ele>
        <time>2022-10-15 14:03:14</time>
      </trkpt>
      <trkpt lat="38.49302" lon="-0.78992">
        <ele>419.2</ele>
        <time>2022-10-15 14:03:15</time>
      </trkpt>
      <trkpt lat="38.49301" lon="-0.78993">
        <ele>418.8</ele>
        <time>2022-10-15 14:03:16</time>
      </trkpt>
      <trkpt lat="38.49301" lon="-0.78995">
        <ele>418.4</ele>
        <time>2022-10-15 14:03:17</time>
      </trkpt>
      <trkpt lat="38.493" lon="-0.78997">
        <ele>418.2</ele>
        <time>2022-10-15 14:03:18</time>
      </trkpt>
      <trkpt lat="38.49299" lon="-0.78999">
        <ele>417.8</ele>
        <time>2022-10-15 14:03:19</time>
      </trkpt>
      <trkpt lat="38.49299" lon="-0.78999">
        <ele>417.6</ele>
        <time>2022-10-15 14:03:20</time>
      </trkpt>
      <trkpt lat="38.49297" lon="-0.79004">
        <ele>417.4</ele>
        <time>2022-10-15 14:03:21</time>
      </trkpt>
      <trkpt lat="38.49296" lon="-0.79007">
        <ele>417.4</ele>
        <time>2022-10-15 14:03:22</time>
      </trkpt>
      <trkpt lat="38.49295" lon="-0.79011">
        <ele>417.2</ele>
        <time>2022-10-15 14:03:23</time>
      </trkpt>
      <trkpt lat="38.49294" lon="-0.79015">
        <ele>417.2</ele>
        <time>2022-10-15 14:03:24</time>
      </trkpt>
      <trkpt lat="38.49292" lon="-0.79019">
        <ele>416.8</ele>
        <time>2022-10-15 14:03:25</time>
      </trkpt>
      <trkpt lat="38.49292" lon="-0.79019">
        <ele>416.6</ele>
        <time>2022-10-15 14:03:26</time>
      </trkpt>
      <trkpt lat="38.49288" lon="-0.79028">
        <ele>416.4</ele>
        <time>2022-10-15 14:03:27</time>
      </trkpt>
      <trkpt lat="38.49285" lon="-0.79033">
        <ele>416.2</ele>
        <time>2022-10-15 14:03:28</time>
      </trkpt>
      <trkpt lat="38.49283" lon="-0.79038">
        <ele>416</ele>
        <time>2022-10-15 14:03:29</time>
      </trkpt>
      <trkpt lat="38.4928" lon="-0.79043">
        <ele>415.6</ele>
        <time>2022-10-15 14:03:30</time>
      </trkpt>
      <trkpt lat="38.49278" lon="-0.79048">
        <ele>415.2</ele>
        <time>2022-10-15 14:03:31</time>
      </trkpt>
      <trkpt lat="38.49278" lon="-0.79048">
        <ele>415</ele>
        <time>2022-10-15 14:03:32</time>
      </trkpt>
      <trkpt lat="38.49273" lon="-0.79061">
        <ele>414.6</ele>
        <time>2022-10-15 14:03:33</time>
      </trkpt>
      <trkpt lat="38.49272" lon="-0.79067">
        <ele>414.4</ele>
        <time>2022-10-15 14:03:34</time>
      </trkpt>
      <trkpt lat="38.49271" lon="-0.79074">
        <ele>414.2</ele>
        <time>2022-10-15 14:03:35</time>
      </trkpt>
      <trkpt lat="38.49271" lon="-0.7908">
        <ele>413.8</ele>
        <time>2022-10-15 14:03:36</time>
      </trkpt>
      <trkpt lat="38.49271" lon="-0.79086">
        <ele>413.4</ele>
        <time>2022-10-15 14:03:37</time>
      </trkpt>
      <trkpt lat="38.49271" lon="-0.79086">
        <ele>413.2</ele>
        <time>2022-10-15 14:03:38</time>
      </trkpt>
      <trkpt lat="38.49271" lon="-0.79095">
        <ele>412.8</ele>
        <time>2022-10-15 14:03:39</time>
      </trkpt>
      <trkpt lat="38.49271" lon="-0.79098">
        <ele>412.4</ele>
        <time>2022-10-15 14:03:40</time>
      </trkpt>
      <trkpt lat="38.4927" lon="-0.79101">
        <ele>412</ele>
        <time>2022-10-15 14:03:41</time>
      </trkpt>
      <trkpt lat="38.4927" lon="-0.79103">
        <ele>411.8</ele>
        <time>2022-10-15 14:03:42</time>
      </trkpt>
      <trkpt lat="38.49269" lon="-0.79105">
        <ele>411.8</ele>
        <time>2022-10-15 14:03:43</time>
      </trkpt>
      <trkpt lat="38.49269" lon="-0.79105">
        <ele>411.6</ele>
        <time>2022-10-15 14:03:44</time>
      </trkpt>
      <trkpt lat="38.49268" lon="-0.79109">
        <ele>411.6</ele>
        <time>2022-10-15 14:03:45</time>
      </trkpt>
      <trkpt lat="38.49268" lon="-0.79112">
        <ele>411.4</ele>
        <time>2022-10-15 14:03:46</time>
      </trkpt>
      <trkpt lat="38.49268" lon="-0.79115">
        <ele>411.4</ele>
        <time>2022-10-15 14:03:47</time>
      </trkpt>
      <trkpt lat="38.49267" lon="-0.79118">
        <ele>411.4</ele>
        <time>2022-10-15 14:03:48</time>
      </trkpt>
      <trkpt lat="38.49267" lon="-0.79122">
        <ele>411.4</ele>
        <time>2022-10-15 14:03:49</time>
      </trkpt>
      <trkpt lat="38.49267" lon="-0.79122">
        <ele>411.4</ele>
        <time>2022-10-15 14:03:50</time>
      </trkpt>
      <trkpt lat="38.49265" lon="-0.79129">
        <ele>411.2</ele>
        <time>2022-10-15 14:03:51</time>
      </trkpt>
      <trkpt lat="38.49263" lon="-0.79134">
        <ele>411.2</ele>
        <time>2022-10-15 14:03:52</time>
      </trkpt>
      <trkpt lat="38.49262" lon="-0.79139">
        <ele>411.2</ele>
        <time>2022-10-15 14:03:53</time>
      </trkpt>
      <trkpt lat="38.49261" lon="-0.79143">
        <ele>411.2</ele>
        <time>2022-10-15 14:03:54</time>
      </trkpt>
      <trkpt lat="38.4926" lon="-0.79149">
        <ele>411.2</ele>
        <time>2022-10-15 14:03:55</time>
      </trkpt>
      <trkpt lat="38.4926" lon="-0.79149">
        <ele>411.2</ele>
        <time>2022-10-15 14:03:56</time>
      </trkpt>
      <trkpt lat="38.49261" lon="-0.79159">
        <ele>411.2</ele>
        <time>2022-10-15 14:03:57</time>
      </trkpt>
      <trkpt lat="38.49261" lon="-0.79164">
        <ele>411.2</ele>
        <time>2022-10-15 14:03:58</time>
      </trkpt>
      <trkpt lat="38.49259" lon="-0.79169">
        <ele>411</ele>
        <time>2022-10-15 14:03:59</time>
      </trkpt>
      <trkpt lat="38.49257" lon="-0.79173">
        <ele>410.8</ele>
        <time>2022-10-15 14:04:00</time>
      </trkpt>
      <trkpt lat="38.49254" lon="-0.79177">
        <ele>410.6</ele>
        <time>2022-10-15 14:04:01</time>
      </trkpt>
      <trkpt lat="38.49254" lon="-0.79177">
        <ele>410.6</ele>
        <time>2022-10-15 14:04:02</time>
      </trkpt>
      <trkpt lat="38.49247" lon="-0.79183">
        <ele>410.6</ele>
        <time>2022-10-15 14:04:03</time>
      </trkpt>
      <trkpt lat="38.49244" lon="-0.79186">
        <ele>410.4</ele>
        <time>2022-10-15 14:04:04</time>
      </trkpt>
      <trkpt lat="38.49241" lon="-0.79189">
        <ele>410.4</ele>
        <time>2022-10-15 14:04:05</time>
      </trkpt>
      <trkpt lat="38.49239" lon="-0.79192">
        <ele>410.4</ele>
        <time>2022-10-15 14:04:06</time>
      </trkpt>
      <trkpt lat="38.49237" lon="-0.79195">
        <ele>410.4</ele>
        <time>2022-10-15 14:04:07</time>
      </trkpt>
      <trkpt lat="38.49237" lon="-0.79195">
        <ele>410.2</ele>
        <time>2022-10-15 14:04:08</time>
      </trkpt>
      <trkpt lat="38.49231" lon="-0.79201">
        <ele>410.2</ele>
        <time>2022-10-15 14:04:09</time>
      </trkpt>
      <trkpt lat="38.49227" lon="-0.79204">
        <ele>410.2</ele>
        <time>2022-10-15 14:04:10</time>
      </trkpt>
      <trkpt lat="38.49224" lon="-0.79208">
        <ele>410.2</ele>
        <time>2022-10-15 14:04:11</time>
      </trkpt>
      <trkpt lat="38.4922" lon="-0.79212">
        <ele>410.2</ele>
        <time>2022-10-15 14:04:12</time>
      </trkpt>
      <trkpt lat="38.49217" lon="-0.79215">
        <ele>410.2</ele>
        <time>2022-10-15 14:04:13</time>
      </trkpt>
      <trkpt lat="38.49217" lon="-0.79215">
        <ele>410</ele>
        <time>2022-10-15 14:04:14</time>
      </trkpt>
      <trkpt lat="38.49209" lon="-0.79221">
        <ele>410</ele>
        <time>2022-10-15 14:04:15</time>
      </trkpt>
      <trkpt lat="38.49205" lon="-0.79223">
        <ele>409.8</ele>
        <time>2022-10-15 14:04:16</time>
      </trkpt>
      <trkpt lat="38.492" lon="-0.79225">
        <ele>409.6</ele>
        <time>2022-10-15 14:04:17</time>
      </trkpt>
      <trkpt lat="38.49196" lon="-0.79226">
        <ele>409.4</ele>
        <time>2022-10-15 14:04:18</time>
      </trkpt>
      <trkpt lat="38.49191" lon="-0.79227">
        <ele>409.4</ele>
        <time>2022-10-15 14:04:19</time>
      </trkpt>
      <trkpt lat="38.49191" lon="-0.79227">
        <ele>409.2</ele>
        <time>2022-10-15 14:04:20</time>
      </trkpt>
      <trkpt lat="38.49182" lon="-0.79229">
        <ele>409.2</ele>
        <time>2022-10-15 14:04:21</time>
      </trkpt>
      <trkpt lat="38.49178" lon="-0.7923">
        <ele>409.2</ele>
        <time>2022-10-15 14:04:22</time>
      </trkpt>
      <trkpt lat="38.49173" lon="-0.79231">
        <ele>409</ele>
        <time>2022-10-15 14:04:23</time>
      </trkpt>
      <trkpt lat="38.49169" lon="-0.79233">
        <ele>409</ele>
        <time>2022-10-15 14:04:24</time>
      </trkpt>
      <trkpt lat="38.49165" lon="-0.79235">
        <ele>409</ele>
        <time>2022-10-15 14:04:25</time>
      </trkpt>
      <trkpt lat="38.49165" lon="-0.79235">
        <ele>409</ele>
        <time>2022-10-15 14:04:26</time>
      </trkpt>
      <trkpt lat="38.49157" lon="-0.79237">
        <ele>409</ele>
        <time>2022-10-15 14:04:27</time>
      </trkpt>
      <trkpt lat="38.49152" lon="-0.79238">
        <ele>409</ele>
        <time>2022-10-15 14:04:28</time>
      </trkpt>
      <trkpt lat="38.49147" lon="-0.79239">
        <ele>408.8</ele>
        <time>2022-10-15 14:04:29</time>
      </trkpt>
      <trkpt lat="38.49142" lon="-0.79239">
        <ele>408.8</ele>
        <time>2022-10-15 14:04:30</time>
      </trkpt>
      <trkpt lat="38.49137" lon="-0.7924">
        <ele>408.8</ele>
        <time>2022-10-15 14:04:31</time>
      </trkpt>
      <trkpt lat="38.49137" lon="-0.7924">
        <ele>408.8</ele>
        <time>2022-10-15 14:04:32</time>
      </trkpt>
      <trkpt lat="38.49126" lon="-0.79242">
        <ele>408.8</ele>
        <time>2022-10-15 14:04:33</time>
      </trkpt>
      <trkpt lat="38.4912" lon="-0.79243">
        <ele>408.6</ele>
        <time>2022-10-15 14:04:34</time>
      </trkpt>
      <trkpt lat="38.49115" lon="-0.79242">
        <ele>408.6</ele>
        <time>2022-10-15 14:04:35</time>
      </trkpt>
      <trkpt lat="38.49109" lon="-0.79241">
        <ele>408.6</ele>
        <time>2022-10-15 14:04:36</time>
      </trkpt>
      <trkpt lat="38.49103" lon="-0.7924">
        <ele>408.6</ele>
        <time>2022-10-15 14:04:37</time>
      </trkpt>
      <trkpt lat="38.49103" lon="-0.7924">
        <ele>408.4</ele>
        <time>2022-10-15 14:04:38</time>
      </trkpt>
      <trkpt lat="38.49093" lon="-0.79238">
        <ele>408</ele>
        <time>2022-10-15 14:04:39</time>
      </trkpt>
      <trkpt lat="38.49088" lon="-0.79237">
        <ele>407.8</ele>
        <time>2022-10-15 14:04:40</time>
      </trkpt>
      <trkpt lat="38.49083" lon="-0.79236">
        <ele>407.6</ele>
        <time>2022-10-15 14:04:41</time>
      </trkpt>
      <trkpt lat="38.49079" lon="-0.79236">
        <ele>407.4</ele>
        <time>2022-10-15 14:04:42</time>
      </trkpt>
      <trkpt lat="38.49075" lon="-0.79235">
        <ele>407.2</ele>
        <time>2022-10-15 14:04:43</time>
      </trkpt>
      <trkpt lat="38.49075" lon="-0.79235">
        <ele>407.2</ele>
        <time>2022-10-15 14:04:44</time>
      </trkpt>
      <trkpt lat="38.49066" lon="-0.79235">
        <ele>407</ele>
        <time>2022-10-15 14:04:45</time>
      </trkpt>
      <trkpt lat="38.49062" lon="-0.79236">
        <ele>407</ele>
        <time>2022-10-15 14:04:46</time>
      </trkpt>
      <trkpt lat="38.49058" lon="-0.79236">
        <ele>407</ele>
        <time>2022-10-15 14:04:47</time>
      </trkpt>
      <trkpt lat="38.49055" lon="-0.79237">
        <ele>407</ele>
        <time>2022-10-15 14:04:48</time>
      </trkpt>
      <trkpt lat="38.49052" lon="-0.79238">
        <ele>407</ele>
        <time>2022-10-15 14:04:49</time>
      </trkpt>
      <trkpt lat="38.49052" lon="-0.79238">
        <ele>407</ele>
        <time>2022-10-15 14:04:50</time>
      </trkpt>
      <trkpt lat="38.49046" lon="-0.79241">
        <ele>407</ele>
        <time>2022-10-15 14:04:51</time>
      </trkpt>
      <trkpt lat="38.49044" lon="-0.79244">
        <ele>407</ele>
        <time>2022-10-15 14:04:52</time>
      </trkpt>
      <trkpt lat="38.49043" lon="-0.79247">
        <ele>407.2</ele>
        <time>2022-10-15 14:04:53</time>
      </trkpt>
      <trkpt lat="38.49041" lon="-0.79251">
        <ele>407.6</ele>
        <time>2022-10-15 14:04:54</time>
      </trkpt>
      <trkpt lat="38.4904" lon="-0.79255">
        <ele>408</ele>
        <time>2022-10-15 14:04:55</time>
      </trkpt>
      <trkpt lat="38.4904" lon="-0.79255">
        <ele>408.2</ele>
        <time>2022-10-15 14:04:56</time>
      </trkpt>
      <trkpt lat="38.49039" lon="-0.79264">
        <ele>408.4</ele>
        <time>2022-10-15 14:04:57</time>
      </trkpt>
      <trkpt lat="38.49038" lon="-0.79269">
        <ele>408.6</ele>
        <time>2022-10-15 14:04:58</time>
      </trkpt>
      <trkpt lat="38.49037" lon="-0.79273">
        <ele>408.8</ele>
        <time>2022-10-15 14:04:59</time>
      </trkpt>
      <trkpt lat="38.49037" lon="-0.79278">
        <ele>409</ele>
        <time>2022-10-15 14:05:00</time>
      </trkpt>
      <trkpt lat="38.49036" lon="-0.79283">
        <ele>409</ele>
        <time>2022-10-15 14:05:01</time>
      </trkpt>
      <trkpt lat="38.49036" lon="-0.79283">
        <ele>409.2</ele>
        <time>2022-10-15 14:05:02</time>
      </trkpt>
      <trkpt lat="38.49034" lon="-0.79292">
        <ele>409.4</ele>
        <time>2022-10-15 14:05:03</time>
      </trkpt>
      <trkpt lat="38.49033" lon="-0.79297">
        <ele>409.4</ele>
        <time>2022-10-15 14:05:04</time>
      </trkpt>
      <trkpt lat="38.49032" lon="-0.79301">
        <ele>409.6</ele>
        <time>2022-10-15 14:05:05</time>
      </trkpt>
      <trkpt lat="38.4903" lon="-0.79305">
        <ele>409.8</ele>
        <time>2022-10-15 14:05:06</time>
      </trkpt>
      <trkpt lat="38.49027" lon="-0.79308">
        <ele>409.8</ele>
        <time>2022-10-15 14:05:07</time>
      </trkpt>
      <trkpt lat="38.49027" lon="-0.79308">
        <ele>410</ele>
        <time>2022-10-15 14:05:08</time>
      </trkpt>
      <trkpt lat="38.49017" lon="-0.79308">
        <ele>410</ele>
        <time>2022-10-15 14:05:09</time>
      </trkpt>
      <trkpt lat="38.49012" lon="-0.79307">
        <ele>410</ele>
        <time>2022-10-15 14:05:10</time>
      </trkpt>
      <trkpt lat="38.49006" lon="-0.79305">
        <ele>410</ele>
        <time>2022-10-15 14:05:11</time>
      </trkpt>
      <trkpt lat="38.49" lon="-0.79304">
        <ele>410</ele>
        <time>2022-10-15 14:05:12</time>
      </trkpt>
      <trkpt lat="38.48993" lon="-0.79302">
        <ele>410</ele>
        <time>2022-10-15 14:05:13</time>
      </trkpt>
      <trkpt lat="38.48993" lon="-0.79302">
        <ele>410</ele>
        <time>2022-10-15 14:05:14</time>
      </trkpt>
      <trkpt lat="38.48981" lon="-0.79297">
        <ele>410</ele>
        <time>2022-10-15 14:05:15</time>
      </trkpt>
      <trkpt lat="38.48975" lon="-0.79296">
        <ele>409.8</ele>
        <time>2022-10-15 14:05:16</time>
      </trkpt>
      <trkpt lat="38.4897" lon="-0.79297">
        <ele>409.2</ele>
        <time>2022-10-15 14:05:17</time>
      </trkpt>
      <trkpt lat="38.48968" lon="-0.79301">
        <ele>408.8</ele>
        <time>2022-10-15 14:05:18</time>
      </trkpt>
      <trkpt lat="38.48966" lon="-0.79306">
        <ele>408.2</ele>
        <time>2022-10-15 14:05:19</time>
      </trkpt>
      <trkpt lat="38.48966" lon="-0.79306">
        <ele>407.8</ele>
        <time>2022-10-15 14:05:20</time>
      </trkpt>
      <trkpt lat="38.48964" lon="-0.79316">
        <ele>407.6</ele>
        <time>2022-10-15 14:05:21</time>
      </trkpt>
      <trkpt lat="38.48964" lon="-0.79322">
        <ele>407.4</ele>
        <time>2022-10-15 14:05:22</time>
      </trkpt>
      <trkpt lat="38.48964" lon="-0.79329">
        <ele>407.4</ele>
        <time>2022-10-15 14:05:23</time>
      </trkpt>
      <trkpt lat="38.48964" lon="-0.79335">
        <ele>407.2</ele>
        <time>2022-10-15 14:05:24</time>
      </trkpt>
      <trkpt lat="38.48965" lon="-0.79342">
        <ele>407</ele>
        <time>2022-10-15 14:05:25</time>
      </trkpt>
      <trkpt lat="38.48965" lon="-0.79342">
        <ele>406.8</ele>
        <time>2022-10-15 14:05:26</time>
      </trkpt>
      <trkpt lat="38.48965" lon="-0.79355">
        <ele>406.6</ele>
        <time>2022-10-15 14:05:27</time>
      </trkpt>
      <trkpt lat="38.48964" lon="-0.79361">
        <ele>406.4</ele>
        <time>2022-10-15 14:05:28</time>
      </trkpt>
      <trkpt lat="38.48962" lon="-0.79367">
        <ele>406.4</ele>
        <time>2022-10-15 14:05:29</time>
      </trkpt>
      <trkpt lat="38.4896" lon="-0.79373">
        <ele>406.4</ele>
        <time>2022-10-15 14:05:30</time>
      </trkpt>
      <trkpt lat="38.48958" lon="-0.79379">
        <ele>406.2</ele>
        <time>2022-10-15 14:05:31</time>
      </trkpt>
      <trkpt lat="38.48958" lon="-0.79379">
        <ele>406.2</ele>
        <time>2022-10-15 14:05:32</time>
      </trkpt>
      <trkpt lat="38.48954" lon="-0.79389">
        <ele>406.2</ele>
        <time>2022-10-15 14:05:33</time>
      </trkpt>
      <trkpt lat="38.48952" lon="-0.79394">
        <ele>406.2</ele>
        <time>2022-10-15 14:05:34</time>
      </trkpt>
      <trkpt lat="38.4895" lon="-0.79399">
        <ele>406.2</ele>
        <time>2022-10-15 14:05:35</time>
      </trkpt>
      <trkpt lat="38.48949" lon="-0.79403">
        <ele>406.2</ele>
        <time>2022-10-15 14:05:36</time>
      </trkpt>
      <trkpt lat="38.48947" lon="-0.79407">
        <ele>406.2</ele>
        <time>2022-10-15 14:05:37</time>
      </trkpt>
      <trkpt lat="38.48947" lon="-0.79407">
        <ele>406.2</ele>
        <time>2022-10-15 14:05:38</time>
      </trkpt>
      <trkpt lat="38.48942" lon="-0.79415">
        <ele>406.2</ele>
        <time>2022-10-15 14:05:39</time>
      </trkpt>
      <trkpt lat="38.48941" lon="-0.7942">
        <ele>406.2</ele>
        <time>2022-10-15 14:05:40</time>
      </trkpt>
      <trkpt lat="38.48939" lon="-0.79425">
        <ele>406.2</ele>
        <time>2022-10-15 14:05:41</time>
      </trkpt>
      <trkpt lat="38.48938" lon="-0.7943">
        <ele>406.2</ele>
        <time>2022-10-15 14:05:42</time>
      </trkpt>
      <trkpt lat="38.48937" lon="-0.79435">
        <ele>406.2</ele>
        <time>2022-10-15 14:05:43</time>
      </trkpt>
      <trkpt lat="38.48937" lon="-0.79435">
        <ele>406.2</ele>
        <time>2022-10-15 14:05:44</time>
      </trkpt>
      <trkpt lat="38.48935" lon="-0.79445">
        <ele>406.2</ele>
        <time>2022-10-15 14:05:45</time>
      </trkpt>
      <trkpt lat="38.48934" lon="-0.7945">
        <ele>406.2</ele>
        <time>2022-10-15 14:05:46</time>
      </trkpt>
      <trkpt lat="38.48933" lon="-0.79455">
        <ele>406.2</ele>
        <time>2022-10-15 14:05:47</time>
      </trkpt>
      <trkpt lat="38.48932" lon="-0.7946">
        <ele>406.2</ele>
        <time>2022-10-15 14:05:48</time>
      </trkpt>
      <trkpt lat="38.48931" lon="-0.79465">
        <ele>406.2</ele>
        <time>2022-10-15 14:05:49</time>
      </trkpt>
      <trkpt lat="38.48931" lon="-0.79465">
        <ele>406.2</ele>
        <time>2022-10-15 14:05:50</time>
      </trkpt>
      <trkpt lat="38.48928" lon="-0.79475">
        <ele>406.4</ele>
        <time>2022-10-15 14:05:51</time>
      </trkpt>
      <trkpt lat="38.48926" lon="-0.79481">
        <ele>406.4</ele>
        <time>2022-10-15 14:05:52</time>
      </trkpt>
      <trkpt lat="38.48925" lon="-0.79487">
        <ele>406.4</ele>
        <time>2022-10-15 14:05:53</time>
      </trkpt>
      <trkpt lat="38.48923" lon="-0.79492">
        <ele>406.4</ele>
        <time>2022-10-15 14:05:54</time>
      </trkpt>
      <trkpt lat="38.48922" lon="-0.79498">
        <ele>406.4</ele>
        <time>2022-10-15 14:05:55</time>
      </trkpt>
      <trkpt lat="38.48922" lon="-0.79498">
        <ele>406.4</ele>
        <time>2022-10-15 14:05:56</time>
      </trkpt>
      <trkpt lat="38.48919" lon="-0.7951">
        <ele>406.2</ele>
        <time>2022-10-15 14:05:57</time>
      </trkpt>
      <trkpt lat="38.48917" lon="-0.79516">
        <ele>406.2</ele>
        <time>2022-10-15 14:05:58</time>
      </trkpt>
      <trkpt lat="38.48915" lon="-0.79522">
        <ele>406.2</ele>
        <time>2022-10-15 14:05:59</time>
      </trkpt>
      <trkpt lat="38.48913" lon="-0.79528">
        <ele>406.2</ele>
        <time>2022-10-15 14:06:00</time>
      </trkpt>
      <trkpt lat="38.48911" lon="-0.79534">
        <ele>406.2</ele>
        <time>2022-10-15 14:06:01</time>
      </trkpt>
      <trkpt lat="38.48911" lon="-0.79534">
        <ele>406</ele>
        <time>2022-10-15 14:06:02</time>
      </trkpt>
      <trkpt lat="38.48909" lon="-0.79547">
        <ele>406</ele>
        <time>2022-10-15 14:06:03</time>
      </trkpt>
      <trkpt lat="38.48907" lon="-0.79553">
        <ele>406</ele>
        <time>2022-10-15 14:06:04</time>
      </trkpt>
      <trkpt lat="38.48905" lon="-0.79558">
        <ele>406</ele>
        <time>2022-10-15 14:06:05</time>
      </trkpt>
      <trkpt lat="38.48903" lon="-0.79564">
        <ele>405.8</ele>
        <time>2022-10-15 14:06:06</time>
      </trkpt>
      <trkpt lat="38.48901" lon="-0.7957">
        <ele>405.8</ele>
        <time>2022-10-15 14:06:07</time>
      </trkpt>
      <trkpt lat="38.48901" lon="-0.7957">
        <ele>405.8</ele>
        <time>2022-10-15 14:06:08</time>
      </trkpt>
      <trkpt lat="38.48895" lon="-0.79581">
        <ele>405.6</ele>
        <time>2022-10-15 14:06:09</time>
      </trkpt>
      <trkpt lat="38.48892" lon="-0.79587">
        <ele>405.4</ele>
        <time>2022-10-15 14:06:10</time>
      </trkpt>
      <trkpt lat="38.4889" lon="-0.79592">
        <ele>405.4</ele>
        <time>2022-10-15 14:06:11</time>
      </trkpt>
      <trkpt lat="38.48887" lon="-0.79597">
        <ele>405.2</ele>
        <time>2022-10-15 14:06:12</time>
      </trkpt>
      <trkpt lat="38.48883" lon="-0.79602">
        <ele>405.4</ele>
        <time>2022-10-15 14:06:13</time>
      </trkpt>
      <trkpt lat="38.48883" lon="-0.79602">
        <ele>405.2</ele>
        <time>2022-10-15 14:06:14</time>
      </trkpt>
      <trkpt lat="38.48877" lon="-0.79611">
        <ele>405.2</ele>
        <time>2022-10-15 14:06:15</time>
      </trkpt>
      <trkpt lat="38.48873" lon="-0.79615">
        <ele>405</ele>
        <time>2022-10-15 14:06:16</time>
      </trkpt>
      <trkpt lat="38.48869" lon="-0.79619">
        <ele>404.8</ele>
        <time>2022-10-15 14:06:17</time>
      </trkpt>
      <trkpt lat="38.48865" lon="-0.79623">
        <ele>404.8</ele>
        <time>2022-10-15 14:06:18</time>
      </trkpt>
      <trkpt lat="38.48861" lon="-0.79626">
        <ele>404.6</ele>
        <time>2022-10-15 14:06:19</time>
      </trkpt>
      <trkpt lat="38.48861" lon="-0.79626">
        <ele>404.4</ele>
        <time>2022-10-15 14:06:20</time>
      </trkpt>
      <trkpt lat="38.48852" lon="-0.79631">
        <ele>404.4</ele>
        <time>2022-10-15 14:06:21</time>
      </trkpt>
      <trkpt lat="38.48848" lon="-0.79634">
        <ele>404.2</ele>
        <time>2022-10-15 14:06:22</time>
      </trkpt>
      <trkpt lat="38.48844" lon="-0.79637">
        <ele>404</ele>
        <time>2022-10-15 14:06:23</time>
      </trkpt>
      <trkpt lat="38.48839" lon="-0.79639">
        <ele>403.8</ele>
        <time>2022-10-15 14:06:24</time>
      </trkpt>
      <trkpt lat="38.48834" lon="-0.79641">
        <ele>403.8</ele>
        <time>2022-10-15 14:06:25</time>
      </trkpt>
      <trkpt lat="38.48834" lon="-0.79641">
        <ele>403.6</ele>
        <time>2022-10-15 14:06:26</time>
      </trkpt>
      <trkpt lat="38.48825" lon="-0.79645">
        <ele>403.6</ele>
        <time>2022-10-15 14:06:27</time>
      </trkpt>
      <trkpt lat="38.4882" lon="-0.79646">
        <ele>403.6</ele>
        <time>2022-10-15 14:06:28</time>
      </trkpt>
      <trkpt lat="38.48815" lon="-0.79648">
        <ele>403.6</ele>
        <time>2022-10-15 14:06:29</time>
      </trkpt>
      <trkpt lat="38.4881" lon="-0.7965">
        <ele>403.6</ele>
        <time>2022-10-15 14:06:30</time>
      </trkpt>
      <trkpt lat="38.48805" lon="-0.79652">
        <ele>403.6</ele>
        <time>2022-10-15 14:06:31</time>
      </trkpt>
      <trkpt lat="38.48805" lon="-0.79652">
        <ele>403.4</ele>
        <time>2022-10-15 14:06:32</time>
      </trkpt>
      <trkpt lat="38.48795" lon="-0.79655">
        <ele>403.4</ele>
        <time>2022-10-15 14:06:33</time>
      </trkpt>
      <trkpt lat="38.4879" lon="-0.79656">
        <ele>403.4</ele>
        <time>2022-10-15 14:06:34</time>
      </trkpt>
      <trkpt lat="38.48785" lon="-0.79658">
        <ele>403.6</ele>
        <time>2022-10-15 14:06:35</time>
      </trkpt>
      <trkpt lat="38.4878" lon="-0.7966">
        <ele>403.6</ele>
        <time>2022-10-15 14:06:36</time>
      </trkpt>
      <trkpt lat="38.48775" lon="-0.79661">
        <ele>403.6</ele>
        <time>2022-10-15 14:06:37</time>
      </trkpt>
      <trkpt lat="38.48775" lon="-0.79661">
        <ele>403.6</ele>
        <time>2022-10-15 14:06:38</time>
      </trkpt>
      <trkpt lat="38.48765" lon="-0.79663">
        <ele>403.6</ele>
        <time>2022-10-15 14:06:39</time>
      </trkpt>
      <trkpt lat="38.48759" lon="-0.79664">
        <ele>403.6</ele>
        <time>2022-10-15 14:06:40</time>
      </trkpt>
      <trkpt lat="38.48754" lon="-0.79665">
        <ele>403.6</ele>
        <time>2022-10-15 14:06:41</time>
      </trkpt>
      <trkpt lat="38.48748" lon="-0.79665">
        <ele>403.6</ele>
        <time>2022-10-15 14:06:42</time>
      </trkpt>
      <trkpt lat="38.48743" lon="-0.79666">
        <ele>403.4</ele>
        <time>2022-10-15 14:06:43</time>
      </trkpt>
      <trkpt lat="38.48743" lon="-0.79666">
        <ele>403.4</ele>
        <time>2022-10-15 14:06:44</time>
      </trkpt>
      <trkpt lat="38.48732" lon="-0.79668">
        <ele>403.4</ele>
        <time>2022-10-15 14:06:45</time>
      </trkpt>
      <trkpt lat="38.48727" lon="-0.7967">
        <ele>403.4</ele>
        <time>2022-10-15 14:06:46</time>
      </trkpt>
      <trkpt lat="38.48721" lon="-0.79671">
        <ele>403</ele>
        <time>2022-10-15 14:06:47</time>
      </trkpt>
      <trkpt lat="38.48716" lon="-0.79672">
        <ele>403</ele>
        <time>2022-10-15 14:06:48</time>
      </trkpt>
      <trkpt lat="38.48711" lon="-0.79674">
        <ele>402.6</ele>
        <time>2022-10-15 14:06:49</time>
      </trkpt>
      <trkpt lat="38.48711" lon="-0.79674">
        <ele>402.2</ele>
        <time>2022-10-15 14:06:50</time>
      </trkpt>
      <trkpt lat="38.48701" lon="-0.79676">
        <ele>402</ele>
        <time>2022-10-15 14:06:51</time>
      </trkpt>
      <trkpt lat="38.48696" lon="-0.79677">
        <ele>402</ele>
        <time>2022-10-15 14:06:52</time>
      </trkpt>
      <trkpt lat="38.48691" lon="-0.79677">
        <ele>401.8</ele>
        <time>2022-10-15 14:06:53</time>
      </trkpt>
      <trkpt lat="38.48686" lon="-0.79679">
        <ele>401.8</ele>
        <time>2022-10-15 14:06:54</time>
      </trkpt>
      <trkpt lat="38.48681" lon="-0.79679">
        <ele>401.8</ele>
        <time>2022-10-15 14:06:55</time>
      </trkpt>
      <trkpt lat="38.48681" lon="-0.79679">
        <ele>401.6</ele>
        <time>2022-10-15 14:06:56</time>
      </trkpt>
      <trkpt lat="38.48671" lon="-0.79681">
        <ele>401.6</ele>
        <time>2022-10-15 14:06:57</time>
      </trkpt>
      <trkpt lat="38.48665" lon="-0.79682">
        <ele>401.6</ele>
        <time>2022-10-15 14:06:58</time>
      </trkpt>
      <trkpt lat="38.4866" lon="-0.79683">
        <ele>401.6</ele>
        <time>2022-10-15 14:06:59</time>
      </trkpt>
      <trkpt lat="38.48655" lon="-0.79684">
        <ele>401.6</ele>
        <time>2022-10-15 14:07:00</time>
      </trkpt>
      <trkpt lat="38.4865" lon="-0.79686">
        <ele>401.6</ele>
        <time>2022-10-15 14:07:01</time>
      </trkpt>
      <trkpt lat="38.4865" lon="-0.79686">
        <ele>401.6</ele>
        <time>2022-10-15 14:07:02</time>
      </trkpt>
      <trkpt lat="38.48639" lon="-0.79688">
        <ele>401.6</ele>
        <time>2022-10-15 14:07:03</time>
      </trkpt>
      <trkpt lat="38.48634" lon="-0.79689">
        <ele>401.6</ele>
        <time>2022-10-15 14:07:04</time>
      </trkpt>
      <trkpt lat="38.48629" lon="-0.7969">
        <ele>401.6</ele>
        <time>2022-10-15 14:07:05</time>
      </trkpt>
      <trkpt lat="38.48623" lon="-0.79692">
        <ele>401.6</ele>
        <time>2022-10-15 14:07:06</time>
      </trkpt>
      <trkpt lat="38.48618" lon="-0.79694">
        <ele>401.6</ele>
        <time>2022-10-15 14:07:07</time>
      </trkpt>
      <trkpt lat="38.48618" lon="-0.79694">
        <ele>401.6</ele>
        <time>2022-10-15 14:07:08</time>
      </trkpt>
      <trkpt lat="38.48607" lon="-0.79697">
        <ele>401.6</ele>
        <time>2022-10-15 14:07:09</time>
      </trkpt>
      <trkpt lat="38.48602" lon="-0.79699">
        <ele>401.6</ele>
        <time>2022-10-15 14:07:10</time>
      </trkpt>
      <trkpt lat="38.48597" lon="-0.797">
        <ele>401.6</ele>
        <time>2022-10-15 14:07:11</time>
      </trkpt>
      <trkpt lat="38.48592" lon="-0.79702">
        <ele>401.6</ele>
        <time>2022-10-15 14:07:12</time>
      </trkpt>
      <trkpt lat="38.48587" lon="-0.79703">
        <ele>401.6</ele>
        <time>2022-10-15 14:07:13</time>
      </trkpt>
      <trkpt lat="38.48587" lon="-0.79703">
        <ele>401.4</ele>
        <time>2022-10-15 14:07:14</time>
      </trkpt>
      <trkpt lat="38.48577" lon="-0.79706">
        <ele>401.4</ele>
        <time>2022-10-15 14:07:15</time>
      </trkpt>
      <trkpt lat="38.48572" lon="-0.79707">
        <ele>401.4</ele>
        <time>2022-10-15 14:07:16</time>
      </trkpt>
      <trkpt lat="38.48567" lon="-0.79708">
        <ele>401.2</ele>
        <time>2022-10-15 14:07:17</time>
      </trkpt>
      <trkpt lat="38.48562" lon="-0.79709">
        <ele>401</ele>
        <time>2022-10-15 14:07:18</time>
      </trkpt>
      <trkpt lat="38.48556" lon="-0.79709">
        <ele>400.8</ele>
        <time>2022-10-15 14:07:19</time>
      </trkpt>
      <trkpt lat="38.48556" lon="-0.79709">
        <ele>400.8</ele>
        <time>2022-10-15 14:07:20</time>
      </trkpt>
      <trkpt lat="38.48545" lon="-0.79709">
        <ele>400.6</ele>
        <time>2022-10-15 14:07:21</time>
      </trkpt>
      <trkpt lat="38.4854" lon="-0.79709">
        <ele>400.6</ele>
        <time>2022-10-15 14:07:22</time>
      </trkpt>
      <trkpt lat="38.48535" lon="-0.79709">
        <ele>400.6</ele>
        <time>2022-10-15 14:07:23</time>
      </trkpt>
      <trkpt lat="38.4853" lon="-0.79708">
        <ele>400.6</ele>
        <time>2022-10-15 14:07:24</time>
      </trkpt>
      <trkpt lat="38.48525" lon="-0.79707">
        <ele>400.4</ele>
        <time>2022-10-15 14:07:25</time>
      </trkpt>
      <trkpt lat="38.48525" lon="-0.79707">
        <ele>400.4</ele>
        <time>2022-10-15 14:07:26</time>
      </trkpt>
      <trkpt lat="38.48515" lon="-0.79704">
        <ele>400.2</ele>
        <time>2022-10-15 14:07:27</time>
      </trkpt>
      <trkpt lat="38.4851" lon="-0.79702">
        <ele>400</ele>
        <time>2022-10-15 14:07:28</time>
      </trkpt>
      <trkpt lat="38.48506" lon="-0.79699">
        <ele>399.6</ele>
        <time>2022-10-15 14:07:29</time>
      </trkpt>
      <trkpt lat="38.48501" lon="-0.79696">
        <ele>399.4</ele>
        <time>2022-10-15 14:07:30</time>
      </trkpt>
      <trkpt lat="38.48496" lon="-0.79694">
        <ele>399.4</ele>
        <time>2022-10-15 14:07:31</time>
      </trkpt>
      <trkpt lat="38.48496" lon="-0.79694">
        <ele>399.2</ele>
        <time>2022-10-15 14:07:32</time>
      </trkpt>
      <trkpt lat="38.48487" lon="-0.79687">
        <ele>399</ele>
        <time>2022-10-15 14:07:33</time>
      </trkpt>
      <trkpt lat="38.48482" lon="-0.79684">
        <ele>399</ele>
        <time>2022-10-15 14:07:34</time>
      </trkpt>
      <trkpt lat="38.48477" lon="-0.79681">
        <ele>399</ele>
        <time>2022-10-15 14:07:35</time>
      </trkpt>
      <trkpt lat="38.48473" lon="-0.79677">
        <ele>399</ele>
        <time>2022-10-15 14:07:36</time>
      </trkpt>
      <trkpt lat="38.48469" lon="-0.79673">
        <ele>398.8</ele>
        <time>2022-10-15 14:07:37</time>
      </trkpt>
      <trkpt lat="38.48469" lon="-0.79673">
        <ele>398.8</ele>
        <time>2022-10-15 14:07:38</time>
      </trkpt>
      <trkpt lat="38.48461" lon="-0.79665">
        <ele>398.8</ele>
        <time>2022-10-15 14:07:39</time>
      </trkpt>
      <trkpt lat="38.48456" lon="-0.79661">
        <ele>398.8</ele>
        <time>2022-10-15 14:07:40</time>
      </trkpt>
      <trkpt lat="38.48451" lon="-0.79658">
        <ele>398.6</ele>
        <time>2022-10-15 14:07:41</time>
      </trkpt>
      <trkpt lat="38.48447" lon="-0.79656">
        <ele>398.6</ele>
        <time>2022-10-15 14:07:42</time>
      </trkpt>
      <trkpt lat="38.48442" lon="-0.79654">
        <ele>398.4</ele>
        <time>2022-10-15 14:07:43</time>
      </trkpt>
      <trkpt lat="38.48442" lon="-0.79654">
        <ele>398.4</ele>
        <time>2022-10-15 14:07:44</time>
      </trkpt>
      <trkpt lat="38.48432" lon="-0.79651">
        <ele>398.2</ele>
        <time>2022-10-15 14:07:45</time>
      </trkpt>
      <trkpt lat="38.48427" lon="-0.79649">
        <ele>398.2</ele>
        <time>2022-10-15 14:07:46</time>
      </trkpt>
      <trkpt lat="38.48423" lon="-0.79647">
        <ele>398</ele>
        <time>2022-10-15 14:07:47</time>
      </trkpt>
      <trkpt lat="38.48418" lon="-0.79646">
        <ele>398</ele>
        <time>2022-10-15 14:07:48</time>
      </trkpt>
      <trkpt lat="38.48413" lon="-0.79644">
        <ele>398</ele>
        <time>2022-10-15 14:07:49</time>
      </trkpt>
      <trkpt lat="38.48413" lon="-0.79644">
        <ele>398</ele>
        <time>2022-10-15 14:07:50</time>
      </trkpt>
      <trkpt lat="38.48404" lon="-0.79641">
        <ele>398</ele>
        <time>2022-10-15 14:07:51</time>
      </trkpt>
      <trkpt lat="38.48399" lon="-0.7964">
        <ele>398</ele>
        <time>2022-10-15 14:07:52</time>
      </trkpt>
      <trkpt lat="38.48394" lon="-0.79639">
        <ele>398</ele>
        <time>2022-10-15 14:07:53</time>
      </trkpt>
      <trkpt lat="38.4839" lon="-0.79637">
        <ele>398</ele>
        <time>2022-10-15 14:07:54</time>
      </trkpt>
      <trkpt lat="38.48385" lon="-0.79636">
        <ele>398</ele>
        <time>2022-10-15 14:07:55</time>
      </trkpt>
      <trkpt lat="38.48385" lon="-0.79636">
        <ele>398</ele>
        <time>2022-10-15 14:07:56</time>
      </trkpt>
      <trkpt lat="38.48376" lon="-0.79635">
        <ele>398</ele>
        <time>2022-10-15 14:07:57</time>
      </trkpt>
      <trkpt lat="38.48372" lon="-0.79634">
        <ele>398</ele>
        <time>2022-10-15 14:07:58</time>
      </trkpt>
      <trkpt lat="38.48367" lon="-0.79633">
        <ele>398</ele>
        <time>2022-10-15 14:07:59</time>
      </trkpt>
      <trkpt lat="38.48362" lon="-0.79632">
        <ele>398</ele>
        <time>2022-10-15 14:08:00</time>
      </trkpt>
      <trkpt lat="38.48358" lon="-0.79631">
        <ele>398</ele>
        <time>2022-10-15 14:08:01</time>
      </trkpt>
      <trkpt lat="38.48358" lon="-0.79631">
        <ele>398</ele>
        <time>2022-10-15 14:08:02</time>
      </trkpt>
      <trkpt lat="38.48348" lon="-0.79629">
        <ele>397.8</ele>
        <time>2022-10-15 14:08:03</time>
      </trkpt>
      <trkpt lat="38.48343" lon="-0.79629">
        <ele>397.8</ele>
        <time>2022-10-15 14:08:04</time>
      </trkpt>
      <trkpt lat="38.48338" lon="-0.79628">
        <ele>397.8</ele>
        <time>2022-10-15 14:08:05</time>
      </trkpt>
      <trkpt lat="38.48333" lon="-0.79627">
        <ele>397.6</ele>
        <time>2022-10-15 14:08:06</time>
      </trkpt>
      <trkpt lat="38.48328" lon="-0.79625">
        <ele>397.6</ele>
        <time>2022-10-15 14:08:07</time>
      </trkpt>
      <trkpt lat="38.48328" lon="-0.79625">
        <ele>397.4</ele>
        <time>2022-10-15 14:08:08</time>
      </trkpt>
      <trkpt lat="38.48318" lon="-0.79623">
        <ele>397.4</ele>
        <time>2022-10-15 14:08:09</time>
      </trkpt>
      <trkpt lat="38.48313" lon="-0.79623">
        <ele>397.2</ele>
        <time>2022-10-15 14:08:10</time>
      </trkpt>
      <trkpt lat="38.48308" lon="-0.79622">
        <ele>397.2</ele>
        <time>2022-10-15 14:08:11</time>
      </trkpt>
      <trkpt lat="38.48303" lon="-0.79621">
        <ele>397</ele>
        <time>2022-10-15 14:08:12</time>
      </trkpt>
      <trkpt lat="38.48297" lon="-0.7962">
        <ele>397</ele>
        <time>2022-10-15 14:08:13</time>
      </trkpt>
      <trkpt lat="38.48297" lon="-0.7962">
        <ele>397</ele>
        <time>2022-10-15 14:08:14</time>
      </trkpt>
      <trkpt lat="38.48287" lon="-0.79617">
        <ele>396.8</ele>
        <time>2022-10-15 14:08:15</time>
      </trkpt>
      <trkpt lat="38.48282" lon="-0.79616">
        <ele>396.8</ele>
        <time>2022-10-15 14:08:16</time>
      </trkpt>
      <trkpt lat="38.48277" lon="-0.79615">
        <ele>396.8</ele>
        <time>2022-10-15 14:08:17</time>
      </trkpt>
      <trkpt lat="38.48272" lon="-0.79613">
        <ele>396.6</ele>
        <time>2022-10-15 14:08:18</time>
      </trkpt>
      <trkpt lat="38.48268" lon="-0.79612">
        <ele>396.6</ele>
        <time>2022-10-15 14:08:19</time>
      </trkpt>
      <trkpt lat="38.48268" lon="-0.79612">
        <ele>396.4</ele>
        <time>2022-10-15 14:08:20</time>
      </trkpt>
      <trkpt lat="38.48258" lon="-0.7961">
        <ele>396.2</ele>
        <time>2022-10-15 14:08:21</time>
      </trkpt>
      <trkpt lat="38.48255" lon="-0.79609">
        <ele>396.2</ele>
        <time>2022-10-15 14:08:22</time>
      </trkpt>
      <trkpt lat="38.48252" lon="-0.79608">
        <ele>396.2</ele>
        <time>2022-10-15 14:08:23</time>
      </trkpt>
      <trkpt lat="38.4825" lon="-0.79608">
        <ele>396.2</ele>
        <time>2022-10-15 14:08:24</time>
      </trkpt>
      <trkpt lat="38.4825" lon="-0.79608">
        <ele>396.2</ele>
        <time>2022-10-15 14:08:25</time>
      </trkpt>
      <trkpt lat="38.4825" lon="-0.79608">
        <ele>396.2</ele>
        <time>2022-10-15 14:08:26</time>
      </trkpt>
      <trkpt lat="38.48245" lon="-0.79612">
        <ele>396.8</ele>
        <time>2022-10-15 14:08:27</time>
      </trkpt>
      <trkpt lat="38.48243" lon="-0.79613">
        <ele>396.8</ele>
        <time>2022-10-15 14:08:28</time>
      </trkpt>
      <trkpt lat="38.4824" lon="-0.79614">
        <ele>396.8</ele>
        <time>2022-10-15 14:08:29</time>
      </trkpt>
      <trkpt lat="38.48237" lon="-0.79615">
        <ele>396.8</ele>
        <time>2022-10-15 14:08:30</time>
      </trkpt>
      <trkpt lat="38.48237" lon="-0.79615">
        <ele>396.8</ele>
        <time>2022-10-15 14:08:31</time>
      </trkpt>
      <trkpt lat="38.4823" lon="-0.79619">
        <ele>396.8</ele>
        <time>2022-10-15 14:09:45</time>
      </trkpt>
      <trkpt lat="38.48227" lon="-0.79622">
        <ele>396.6</ele>
        <time>2022-10-15 14:09:46</time>
      </trkpt>
      <trkpt lat="38.48224" lon="-0.79625">
        <ele>396.6</ele>
        <time>2022-10-15 14:09:47</time>
      </trkpt>
      <trkpt lat="38.48221" lon="-0.79629">
        <ele>396.6</ele>
        <time>2022-10-15 14:09:48</time>
      </trkpt>
      <trkpt lat="38.48218" lon="-0.79634">
        <ele>396.4</ele>
        <time>2022-10-15 14:09:49</time>
      </trkpt>
      <trkpt lat="38.48218" lon="-0.79634">
        <ele>396</ele>
        <time>2022-10-15 14:09:50</time>
      </trkpt>
      <trkpt lat="38.48212" lon="-0.79643">
        <ele>396</ele>
        <time>2022-10-15 14:09:51</time>
      </trkpt>
      <trkpt lat="38.4821" lon="-0.79649">
        <ele>395.8</ele>
        <time>2022-10-15 14:09:52</time>
      </trkpt>
      <trkpt lat="38.48207" lon="-0.79654">
        <ele>395.8</ele>
        <time>2022-10-15 14:09:53</time>
      </trkpt>
      <trkpt lat="38.48204" lon="-0.7966">
        <ele>395.8</ele>
        <time>2022-10-15 14:09:54</time>
      </trkpt>
      <trkpt lat="38.48202" lon="-0.79666">
        <ele>395.6</ele>
        <time>2022-10-15 14:09:55</time>
      </trkpt>
      <trkpt lat="38.48202" lon="-0.79666">
        <ele>395.4</ele>
        <time>2022-10-15 14:09:56</time>
      </trkpt>
      <trkpt lat="38.482" lon="-0.7968">
        <ele>395</ele>
        <time>2022-10-15 14:09:57</time>
      </trkpt>
      <trkpt lat="38.482" lon="-0.79687">
        <ele>394.8</ele>
        <time>2022-10-15 14:09:58</time>
      </trkpt>
      <trkpt lat="38.48199" lon="-0.79694">
        <ele>394.8</ele>
        <time>2022-10-15 14:09:59</time>
      </trkpt>
      <trkpt lat="38.48199" lon="-0.797">
        <ele>394.8</ele>
        <time>2022-10-15 14:10:00</time>
      </trkpt>
      <trkpt lat="38.48198" lon="-0.79707">
        <ele>394.8</ele>
        <time>2022-10-15 14:10:01</time>
      </trkpt>
      <trkpt lat="38.48198" lon="-0.79707">
        <ele>394.4</ele>
        <time>2022-10-15 14:10:02</time>
      </trkpt>
      <trkpt lat="38.48196" lon="-0.7972">
        <ele>394.6</ele>
        <time>2022-10-15 14:10:03</time>
      </trkpt>
      <trkpt lat="38.48195" lon="-0.79726">
        <ele>394.4</ele>
        <time>2022-10-15 14:10:04</time>
      </trkpt>
      <trkpt lat="38.48194" lon="-0.79733">
        <ele>394</ele>
        <time>2022-10-15 14:10:05</time>
      </trkpt>
      <trkpt lat="38.48193" lon="-0.79739">
        <ele>394</ele>
        <time>2022-10-15 14:10:06</time>
      </trkpt>
      <trkpt lat="38.48192" lon="-0.79745">
        <ele>393.8</ele>
        <time>2022-10-15 14:10:07</time>
      </trkpt>
      <trkpt lat="38.48192" lon="-0.79745">
        <ele>393.8</ele>
        <time>2022-10-15 14:10:08</time>
      </trkpt>
      <trkpt lat="38.48191" lon="-0.79758">
        <ele>393.6</ele>
        <time>2022-10-15 14:10:09</time>
      </trkpt>
      <trkpt lat="38.48191" lon="-0.79764">
        <ele>393.6</ele>
        <time>2022-10-15 14:10:10</time>
      </trkpt>
      <trkpt lat="38.48189" lon="-0.79771">
        <ele>393.6</ele>
        <time>2022-10-15 14:10:11</time>
      </trkpt>
      <trkpt lat="38.48188" lon="-0.79778">
        <ele>393.4</ele>
        <time>2022-10-15 14:10:12</time>
      </trkpt>
      <trkpt lat="38.48187" lon="-0.79785">
        <ele>393.2</ele>
        <time>2022-10-15 14:10:13</time>
      </trkpt>
      <trkpt lat="38.48187" lon="-0.79785">
        <ele>393</ele>
        <time>2022-10-15 14:10:14</time>
      </trkpt>
      <trkpt lat="38.48184" lon="-0.79798">
        <ele>392.8</ele>
        <time>2022-10-15 14:10:15</time>
      </trkpt>
      <trkpt lat="38.48183" lon="-0.79805">
        <ele>392.8</ele>
        <time>2022-10-15 14:10:16</time>
      </trkpt>
      <trkpt lat="38.48182" lon="-0.79811">
        <ele>392.8</ele>
        <time>2022-10-15 14:10:17</time>
      </trkpt>
      <trkpt lat="38.48182" lon="-0.79818">
        <ele>392.8</ele>
        <time>2022-10-15 14:10:18</time>
      </trkpt>
      <trkpt lat="38.48181" lon="-0.79824">
        <ele>392.6</ele>
        <time>2022-10-15 14:10:19</time>
      </trkpt>
      <trkpt lat="38.48181" lon="-0.79824">
        <ele>392.6</ele>
        <time>2022-10-15 14:10:20</time>
      </trkpt>
      <trkpt lat="38.48179" lon="-0.79835">
        <ele>392.6</ele>
        <time>2022-10-15 14:10:21</time>
      </trkpt>
      <trkpt lat="38.48178" lon="-0.7984">
        <ele>392.6</ele>
        <time>2022-10-15 14:10:22</time>
      </trkpt>
      <trkpt lat="38.48178" lon="-0.79846">
        <ele>392.6</ele>
        <time>2022-10-15 14:10:23</time>
      </trkpt>
      <trkpt lat="38.48177" lon="-0.79851">
        <ele>392.6</ele>
        <time>2022-10-15 14:10:24</time>
      </trkpt>
      <trkpt lat="38.48177" lon="-0.79856">
        <ele>392.6</ele>
        <time>2022-10-15 14:10:25</time>
      </trkpt>
      <trkpt lat="38.48177" lon="-0.79856">
        <ele>392.6</ele>
        <time>2022-10-15 14:10:26</time>
      </trkpt>
      <trkpt lat="38.48177" lon="-0.79865">
        <ele>392.6</ele>
        <time>2022-10-15 14:10:27</time>
      </trkpt>
      <trkpt lat="38.48177" lon="-0.7987">
        <ele>392.6</ele>
        <time>2022-10-15 14:10:28</time>
      </trkpt>
      <trkpt lat="38.48178" lon="-0.79875">
        <ele>392.6</ele>
        <time>2022-10-15 14:10:29</time>
      </trkpt>
      <trkpt lat="38.48178" lon="-0.79879">
        <ele>392.6</ele>
        <time>2022-10-15 14:10:30</time>
      </trkpt>
      <trkpt lat="38.48178" lon="-0.79883">
        <ele>392.8</ele>
        <time>2022-10-15 14:10:31</time>
      </trkpt>
      <trkpt lat="38.48178" lon="-0.79883">
        <ele>392.8</ele>
        <time>2022-10-15 14:10:32</time>
      </trkpt>
      <trkpt lat="38.48177" lon="-0.7989">
        <ele>393</ele>
        <time>2022-10-15 14:10:33</time>
      </trkpt>
      <trkpt lat="38.48177" lon="-0.79894">
        <ele>393</ele>
        <time>2022-10-15 14:10:34</time>
      </trkpt>
      <trkpt lat="38.48177" lon="-0.79897">
        <ele>393</ele>
        <time>2022-10-15 14:10:35</time>
      </trkpt>
      <trkpt lat="38.48176" lon="-0.799">
        <ele>393</ele>
        <time>2022-10-15 14:10:36</time>
      </trkpt>
      <trkpt lat="38.48176" lon="-0.79903">
        <ele>393</ele>
        <time>2022-10-15 14:10:37</time>
      </trkpt>
      <trkpt lat="38.48176" lon="-0.79903">
        <ele>393</ele>
        <time>2022-10-15 14:10:38</time>
      </trkpt>
      <trkpt lat="38.48175" lon="-0.7991">
        <ele>393</ele>
        <time>2022-10-15 14:10:39</time>
      </trkpt>
      <trkpt lat="38.48174" lon="-0.79914">
        <ele>393</ele>
        <time>2022-10-15 14:10:40</time>
      </trkpt>
      <trkpt lat="38.48174" lon="-0.79918">
        <ele>393</ele>
        <time>2022-10-15 14:10:41</time>
      </trkpt>
      <trkpt lat="38.48174" lon="-0.79921">
        <ele>393</ele>
        <time>2022-10-15 14:10:42</time>
      </trkpt>
      <trkpt lat="38.48173" lon="-0.79925">
        <ele>393</ele>
        <time>2022-10-15 14:10:43</time>
      </trkpt>
      <trkpt lat="38.48173" lon="-0.79925">
        <ele>393</ele>
        <time>2022-10-15 14:10:44</time>
      </trkpt>
      <trkpt lat="38.48172" lon="-0.79932">
        <ele>392.8</ele>
        <time>2022-10-15 14:10:45</time>
      </trkpt>
      <trkpt lat="38.48171" lon="-0.79936">
        <ele>392.8</ele>
        <time>2022-10-15 14:10:46</time>
      </trkpt>
      <trkpt lat="38.4817" lon="-0.7994">
        <ele>392.8</ele>
        <time>2022-10-15 14:10:47</time>
      </trkpt>
      <trkpt lat="38.48169" lon="-0.79944">
        <ele>392.8</ele>
        <time>2022-10-15 14:10:48</time>
      </trkpt>
      <trkpt lat="38.48169" lon="-0.79949">
        <ele>392.8</ele>
        <time>2022-10-15 14:10:49</time>
      </trkpt>
      <trkpt lat="38.48169" lon="-0.79949">
        <ele>392.8</ele>
        <time>2022-10-15 14:10:50</time>
      </trkpt>
      <trkpt lat="38.48167" lon="-0.79957">
        <ele>392.6</ele>
        <time>2022-10-15 14:10:51</time>
      </trkpt>
      <trkpt lat="38.48166" lon="-0.79961">
        <ele>392.6</ele>
        <time>2022-10-15 14:10:52</time>
      </trkpt>
      <trkpt lat="38.48164" lon="-0.79966">
        <ele>392.6</ele>
        <time>2022-10-15 14:10:53</time>
      </trkpt>
      <trkpt lat="38.48163" lon="-0.79971">
        <ele>392.6</ele>
        <time>2022-10-15 14:10:54</time>
      </trkpt>
      <trkpt lat="38.48161" lon="-0.79975">
        <ele>392.6</ele>
        <time>2022-10-15 14:10:55</time>
      </trkpt>
      <trkpt lat="38.48161" lon="-0.79975">
        <ele>392.6</ele>
        <time>2022-10-15 14:10:56</time>
      </trkpt>
      <trkpt lat="38.48158" lon="-0.79985">
        <ele>392.4</ele>
        <time>2022-10-15 14:10:57</time>
      </trkpt>
      <trkpt lat="38.48157" lon="-0.7999">
        <ele>392.2</ele>
        <time>2022-10-15 14:10:58</time>
      </trkpt>
      <trkpt lat="38.48156" lon="-0.79995">
        <ele>392</ele>
        <time>2022-10-15 14:10:59</time>
      </trkpt>
      <trkpt lat="38.48155" lon="-0.80001">
        <ele>392</ele>
        <time>2022-10-15 14:11:00</time>
      </trkpt>
      <trkpt lat="38.48153" lon="-0.80006">
        <ele>391.8</ele>
        <time>2022-10-15 14:11:01</time>
      </trkpt>
      <trkpt lat="38.48153" lon="-0.80006">
        <ele>391.8</ele>
        <time>2022-10-15 14:11:02</time>
      </trkpt>
      <trkpt lat="38.48149" lon="-0.80016">
        <ele>391.6</ele>
        <time>2022-10-15 14:11:03</time>
      </trkpt>
      <trkpt lat="38.48146" lon="-0.80021">
        <ele>391.6</ele>
        <time>2022-10-15 14:11:04</time>
      </trkpt>
      <trkpt lat="38.48143" lon="-0.80026">
        <ele>391.4</ele>
        <time>2022-10-15 14:11:05</time>
      </trkpt>
      <trkpt lat="38.4814" lon="-0.80031">
        <ele>391.4</ele>
        <time>2022-10-15 14:11:06</time>
      </trkpt>
      <trkpt lat="38.48137" lon="-0.80035">
        <ele>391.4</ele>
        <time>2022-10-15 14:11:07</time>
      </trkpt>
      <trkpt lat="38.48137" lon="-0.80035">
        <ele>391.2</ele>
        <time>2022-10-15 14:11:08</time>
      </trkpt>
      <trkpt lat="38.4813" lon="-0.80044">
        <ele>391.2</ele>
        <time>2022-10-15 14:11:09</time>
      </trkpt>
      <trkpt lat="38.48126" lon="-0.80049">
        <ele>391.2</ele>
        <time>2022-10-15 14:11:10</time>
      </trkpt>
      <trkpt lat="38.48123" lon="-0.80053">
        <ele>391</ele>
        <time>2022-10-15 14:11:11</time>
      </trkpt>
      <trkpt lat="38.48118" lon="-0.80056">
        <ele>391</ele>
        <time>2022-10-15 14:11:12</time>
      </trkpt>
      <trkpt lat="38.48114" lon="-0.8006">
        <ele>391</ele>
        <time>2022-10-15 14:11:13</time>
      </trkpt>
      <trkpt lat="38.48114" lon="-0.8006">
        <ele>391</ele>
        <time>2022-10-15 14:11:14</time>
      </trkpt>
      <trkpt lat="38.48106" lon="-0.80067">
        <ele>390.8</ele>
        <time>2022-10-15 14:11:15</time>
      </trkpt>
      <trkpt lat="38.48102" lon="-0.80071">
        <ele>390.8</ele>
        <time>2022-10-15 14:11:16</time>
      </trkpt>
      <trkpt lat="38.48098" lon="-0.80074">
        <ele>390.4</ele>
        <time>2022-10-15 14:11:17</time>
      </trkpt>
      <trkpt lat="38.48093" lon="-0.80078">
        <ele>390.4</ele>
        <time>2022-10-15 14:11:18</time>
      </trkpt>
      <trkpt lat="38.48089" lon="-0.80081">
        <ele>390.4</ele>
        <time>2022-10-15 14:11:19</time>
      </trkpt>
      <trkpt lat="38.48089" lon="-0.80081">
        <ele>390.4</ele>
        <time>2022-10-15 14:11:20</time>
      </trkpt>
      <trkpt lat="38.4808" lon="-0.80088">
        <ele>390</ele>
        <time>2022-10-15 14:11:21</time>
      </trkpt>
      <trkpt lat="38.48076" lon="-0.80092">
        <ele>389.8</ele>
        <time>2022-10-15 14:11:22</time>
      </trkpt>
      <trkpt lat="38.48071" lon="-0.80096">
        <ele>389.8</ele>
        <time>2022-10-15 14:11:23</time>
      </trkpt>
      <trkpt lat="38.48067" lon="-0.801">
        <ele>389.8</ele>
        <time>2022-10-15 14:11:24</time>
      </trkpt>
      <trkpt lat="38.48062" lon="-0.80104">
        <ele>389.4</ele>
        <time>2022-10-15 14:11:25</time>
      </trkpt>
      <trkpt lat="38.48062" lon="-0.80104">
        <ele>389.4</ele>
        <time>2022-10-15 14:11:26</time>
      </trkpt>
      <trkpt lat="38.48053" lon="-0.80111">
        <ele>389.2</ele>
        <time>2022-10-15 14:11:27</time>
      </trkpt>
      <trkpt lat="38.48048" lon="-0.80114">
        <ele>389.2</ele>
        <time>2022-10-15 14:11:28</time>
      </trkpt>
      <trkpt lat="38.48044" lon="-0.80118">
        <ele>389.2</ele>
        <time>2022-10-15 14:11:29</time>
      </trkpt>
      <trkpt lat="38.48039" lon="-0.8012">
        <ele>389.2</ele>
        <time>2022-10-15 14:11:30</time>
      </trkpt>
      <trkpt lat="38.48034" lon="-0.80122">
        <ele>389.2</ele>
        <time>2022-10-15 14:11:31</time>
      </trkpt>
      <trkpt lat="38.48034" lon="-0.80122">
        <ele>389.2</ele>
        <time>2022-10-15 14:11:32</time>
      </trkpt>
      <trkpt lat="38.48023" lon="-0.80126">
        <ele>389.2</ele>
        <time>2022-10-15 14:11:33</time>
      </trkpt>
      <trkpt lat="38.48018" lon="-0.80128">
        <ele>389.2</ele>
        <time>2022-10-15 14:11:34</time>
      </trkpt>
      <trkpt lat="38.48012" lon="-0.80128">
        <ele>389.2</ele>
        <time>2022-10-15 14:11:35</time>
      </trkpt>
      <trkpt lat="38.48006" lon="-0.80128">
        <ele>389.2</ele>
        <time>2022-10-15 14:11:36</time>
      </trkpt>
      <trkpt lat="38.48001" lon="-0.80127">
        <ele>389.2</ele>
        <time>2022-10-15 14:11:37</time>
      </trkpt>
      <trkpt lat="38.48001" lon="-0.80127">
        <ele>389.2</ele>
        <time>2022-10-15 14:11:38</time>
      </trkpt>
      <trkpt lat="38.4799" lon="-0.80126">
        <ele>389</ele>
        <time>2022-10-15 14:11:39</time>
      </trkpt>
      <trkpt lat="38.47984" lon="-0.80126">
        <ele>389</ele>
        <time>2022-10-15 14:11:40</time>
      </trkpt>
      <trkpt lat="38.47979" lon="-0.80126">
        <ele>388.6</ele>
        <time>2022-10-15 14:11:41</time>
      </trkpt>
      <trkpt lat="38.47973" lon="-0.80126">
        <ele>388.6</ele>
        <time>2022-10-15 14:11:42</time>
      </trkpt>
      <trkpt lat="38.47968" lon="-0.80126">
        <ele>388.6</ele>
        <time>2022-10-15 14:11:43</time>
      </trkpt>
      <trkpt lat="38.47968" lon="-0.80126">
        <ele>388.6</ele>
        <time>2022-10-15 14:11:44</time>
      </trkpt>
      <trkpt lat="38.47957" lon="-0.80127">
        <ele>388.6</ele>
        <time>2022-10-15 14:11:45</time>
      </trkpt>
      <trkpt lat="38.47952" lon="-0.80127">
        <ele>388.6</ele>
        <time>2022-10-15 14:11:46</time>
      </trkpt>
      <trkpt lat="38.47946" lon="-0.80127">
        <ele>388.6</ele>
        <time>2022-10-15 14:11:47</time>
      </trkpt>
      <trkpt lat="38.47941" lon="-0.80127">
        <ele>388.6</ele>
        <time>2022-10-15 14:11:48</time>
      </trkpt>
      <trkpt lat="38.47935" lon="-0.80127">
        <ele>388.4</ele>
        <time>2022-10-15 14:11:49</time>
      </trkpt>
      <trkpt lat="38.47935" lon="-0.80127">
        <ele>388.4</ele>
        <time>2022-10-15 14:11:50</time>
      </trkpt>
      <trkpt lat="38.47925" lon="-0.80126">
        <ele>388.4</ele>
        <time>2022-10-15 14:11:51</time>
      </trkpt>
      <trkpt lat="38.4792" lon="-0.80126">
        <ele>388.4</ele>
        <time>2022-10-15 14:11:52</time>
      </trkpt>
      <trkpt lat="38.47915" lon="-0.80126">
        <ele>388.4</ele>
        <time>2022-10-15 14:11:53</time>
      </trkpt>
      <trkpt lat="38.47911" lon="-0.80126">
        <ele>388</ele>
        <time>2022-10-15 14:11:54</time>
      </trkpt>
      <trkpt lat="38.47906" lon="-0.80126">
        <ele>388.2</ele>
        <time>2022-10-15 14:11:55</time>
      </trkpt>
      <trkpt lat="38.47906" lon="-0.80126">
        <ele>388</ele>
        <time>2022-10-15 14:11:56</time>
      </trkpt>
      <trkpt lat="38.47895" lon="-0.80125">
        <ele>388</ele>
        <time>2022-10-15 14:11:57</time>
      </trkpt>
      <trkpt lat="38.47889" lon="-0.80124">
        <ele>387.8</ele>
        <time>2022-10-15 14:11:58</time>
      </trkpt>
      <trkpt lat="38.47883" lon="-0.80123">
        <ele>387.6</ele>
        <time>2022-10-15 14:11:59</time>
      </trkpt>
      <trkpt lat="38.47878" lon="-0.80122">
        <ele>387.6</ele>
        <time>2022-10-15 14:12:00</time>
      </trkpt>
      <trkpt lat="38.47873" lon="-0.80121">
        <ele>387.6</ele>
        <time>2022-10-15 14:12:01</time>
      </trkpt>
      <trkpt lat="38.47873" lon="-0.80121">
        <ele>387.4</ele>
        <time>2022-10-15 14:12:02</time>
      </trkpt>
      <trkpt lat="38.47862" lon="-0.8012">
        <ele>387.4</ele>
        <time>2022-10-15 14:12:03</time>
      </trkpt>
      <trkpt lat="38.47856" lon="-0.80118">
        <ele>387.4</ele>
        <time>2022-10-15 14:12:04</time>
      </trkpt>
      <trkpt lat="38.47851" lon="-0.80116">
        <ele>387.4</ele>
        <time>2022-10-15 14:12:05</time>
      </trkpt>
      <trkpt lat="38.47846" lon="-0.80114">
        <ele>387.4</ele>
        <time>2022-10-15 14:12:06</time>
      </trkpt>
      <trkpt lat="38.4784" lon="-0.80112">
        <ele>387.4</ele>
        <time>2022-10-15 14:12:07</time>
      </trkpt>
      <trkpt lat="38.4784" lon="-0.80112">
        <ele>387.2</ele>
        <time>2022-10-15 14:12:08</time>
      </trkpt>
      <trkpt lat="38.4783" lon="-0.80109">
        <ele>387.2</ele>
        <time>2022-10-15 14:12:09</time>
      </trkpt>
      <trkpt lat="38.47825" lon="-0.80108">
        <ele>387.2</ele>
        <time>2022-10-15 14:12:10</time>
      </trkpt>
      <trkpt lat="38.4782" lon="-0.80106">
        <ele>387.2</ele>
        <time>2022-10-15 14:12:11</time>
      </trkpt>
      <trkpt lat="38.47814" lon="-0.80104">
        <ele>387.2</ele>
        <time>2022-10-15 14:12:12</time>
      </trkpt>
      <trkpt lat="38.47809" lon="-0.80103">
        <ele>387</ele>
        <time>2022-10-15 14:12:13</time>
      </trkpt>
      <trkpt lat="38.47809" lon="-0.80103">
        <ele>386.8</ele>
        <time>2022-10-15 14:12:14</time>
      </trkpt>
      <trkpt lat="38.47798" lon="-0.80102">
        <ele>386.8</ele>
        <time>2022-10-15 14:12:15</time>
      </trkpt>
      <trkpt lat="38.47792" lon="-0.80102">
        <ele>386.6</ele>
        <time>2022-10-15 14:12:16</time>
      </trkpt>
      <trkpt lat="38.47787" lon="-0.80102">
        <ele>386.6</ele>
        <time>2022-10-15 14:12:17</time>
      </trkpt>
      <trkpt lat="38.47781" lon="-0.80101">
        <ele>386.6</ele>
        <time>2022-10-15 14:12:18</time>
      </trkpt>
      <trkpt lat="38.47775" lon="-0.80101">
        <ele>386.6</ele>
        <time>2022-10-15 14:12:19</time>
      </trkpt>
      <trkpt lat="38.47775" lon="-0.80101">
        <ele>386.6</ele>
        <time>2022-10-15 14:12:20</time>
      </trkpt>
      <trkpt lat="38.47764" lon="-0.80101">
        <ele>386.4</ele>
        <time>2022-10-15 14:12:21</time>
      </trkpt>
      <trkpt lat="38.47759" lon="-0.80101">
        <ele>386.4</ele>
        <time>2022-10-15 14:12:22</time>
      </trkpt>
      <trkpt lat="38.47753" lon="-0.80101">
        <ele>386.4</ele>
        <time>2022-10-15 14:12:23</time>
      </trkpt>
      <trkpt lat="38.47747" lon="-0.80102">
        <ele>386.4</ele>
        <time>2022-10-15 14:12:24</time>
      </trkpt>
      <trkpt lat="38.47742" lon="-0.80104">
        <ele>386.4</ele>
        <time>2022-10-15 14:12:25</time>
      </trkpt>
      <trkpt lat="38.47742" lon="-0.80104">
        <ele>386.4</ele>
        <time>2022-10-15 14:12:26</time>
      </trkpt>
      <trkpt lat="38.47731" lon="-0.80106">
        <ele>386.4</ele>
        <time>2022-10-15 14:12:27</time>
      </trkpt>
      <trkpt lat="38.47726" lon="-0.80106">
        <ele>386.4</ele>
        <time>2022-10-15 14:12:28</time>
      </trkpt>
      <trkpt lat="38.4772" lon="-0.80107">
        <ele>386.4</ele>
        <time>2022-10-15 14:12:29</time>
      </trkpt>
      <trkpt lat="38.47715" lon="-0.80108">
        <ele>386.4</ele>
        <time>2022-10-15 14:12:30</time>
      </trkpt>
      <trkpt lat="38.47709" lon="-0.80108">
        <ele>386.4</ele>
        <time>2022-10-15 14:12:31</time>
      </trkpt>
      <trkpt lat="38.47709" lon="-0.80108">
        <ele>386.4</ele>
        <time>2022-10-15 14:12:32</time>
      </trkpt>
      <trkpt lat="38.47698" lon="-0.8011">
        <ele>386.4</ele>
        <time>2022-10-15 14:12:33</time>
      </trkpt>
      <trkpt lat="38.47693" lon="-0.80112">
        <ele>386.4</ele>
        <time>2022-10-15 14:12:34</time>
      </trkpt>
      <trkpt lat="38.47688" lon="-0.80112">
        <ele>386.4</ele>
        <time>2022-10-15 14:12:35</time>
      </trkpt>
      <trkpt lat="38.47682" lon="-0.80113">
        <ele>386.4</ele>
        <time>2022-10-15 14:12:36</time>
      </trkpt>
      <trkpt lat="38.47677" lon="-0.80114">
        <ele>386.2</ele>
        <time>2022-10-15 14:12:37</time>
      </trkpt>
      <trkpt lat="38.47677" lon="-0.80114">
        <ele>386.2</ele>
        <time>2022-10-15 14:12:38</time>
      </trkpt>
      <trkpt lat="38.47666" lon="-0.80117">
        <ele>386.2</ele>
        <time>2022-10-15 14:12:39</time>
      </trkpt>
      <trkpt lat="38.47661" lon="-0.80119">
        <ele>386.2</ele>
        <time>2022-10-15 14:12:40</time>
      </trkpt>
      <trkpt lat="38.47656" lon="-0.8012">
        <ele>386.2</ele>
        <time>2022-10-15 14:12:41</time>
      </trkpt>
      <trkpt lat="38.47651" lon="-0.80122">
        <ele>386.2</ele>
        <time>2022-10-15 14:12:42</time>
      </trkpt>
      <trkpt lat="38.47647" lon="-0.80124">
        <ele>386.2</ele>
        <time>2022-10-15 14:12:43</time>
      </trkpt>
      <trkpt lat="38.47647" lon="-0.80124">
        <ele>386.2</ele>
        <time>2022-10-15 14:12:44</time>
      </trkpt>
      <trkpt lat="38.47638" lon="-0.80126">
        <ele>386.2</ele>
        <time>2022-10-15 14:12:45</time>
      </trkpt>
      <trkpt lat="38.47634" lon="-0.80127">
        <ele>386.2</ele>
        <time>2022-10-15 14:12:46</time>
      </trkpt>
      <trkpt lat="38.47631" lon="-0.80129">
        <ele>386.2</ele>
        <time>2022-10-15 14:12:47</time>
      </trkpt>
      <trkpt lat="38.47627" lon="-0.80131">
        <ele>386.2</ele>
        <time>2022-10-15 14:12:48</time>
      </trkpt>
      <trkpt lat="38.47622" lon="-0.80132">
        <ele>386.2</ele>
        <time>2022-10-15 14:12:49</time>
      </trkpt>
      <trkpt lat="38.47622" lon="-0.80132">
        <ele>386.2</ele>
        <time>2022-10-15 14:12:50</time>
      </trkpt>
      <trkpt lat="38.47613" lon="-0.80133">
        <ele>386.2</ele>
        <time>2022-10-15 14:12:51</time>
      </trkpt>
      <trkpt lat="38.47608" lon="-0.80133">
        <ele>386.2</ele>
        <time>2022-10-15 14:12:52</time>
      </trkpt>
      <trkpt lat="38.47604" lon="-0.80133">
        <ele>386.2</ele>
        <time>2022-10-15 14:12:53</time>
      </trkpt>
      <trkpt lat="38.476" lon="-0.80134">
        <ele>386</ele>
        <time>2022-10-15 14:12:54</time>
      </trkpt>
      <trkpt lat="38.47595" lon="-0.80134">
        <ele>386.2</ele>
        <time>2022-10-15 14:12:55</time>
      </trkpt>
      <trkpt lat="38.47595" lon="-0.80134">
        <ele>386.2</ele>
        <time>2022-10-15 14:12:56</time>
      </trkpt>
      <trkpt lat="38.47587" lon="-0.80134">
        <ele>386.2</ele>
        <time>2022-10-15 14:12:57</time>
      </trkpt>
      <trkpt lat="38.47583" lon="-0.80134">
        <ele>386.2</ele>
        <time>2022-10-15 14:12:58</time>
      </trkpt>
      <trkpt lat="38.47578" lon="-0.80135">
        <ele>386.2</ele>
        <time>2022-10-15 14:12:59</time>
      </trkpt>
      <trkpt lat="38.47573" lon="-0.80136">
        <ele>386.2</ele>
        <time>2022-10-15 14:13:00</time>
      </trkpt>
      <trkpt lat="38.47569" lon="-0.80137">
        <ele>386.2</ele>
        <time>2022-10-15 14:13:01</time>
      </trkpt>
      <trkpt lat="38.47569" lon="-0.80137">
        <ele>386.2</ele>
        <time>2022-10-15 14:13:02</time>
      </trkpt>
      <trkpt lat="38.4756" lon="-0.80139">
        <ele>386</ele>
        <time>2022-10-15 14:13:03</time>
      </trkpt>
      <trkpt lat="38.47552" lon="-0.8014">
        <ele>386</ele>
        <time>2022-10-15 14:13:04</time>
      </trkpt>
      <trkpt lat="38.47547" lon="-0.8014">
        <ele>385.8</ele>
        <time>2022-10-15 14:13:05</time>
      </trkpt>
      <trkpt lat="38.47543" lon="-0.80139">
        <ele>385.8</ele>
        <time>2022-10-15 14:13:06</time>
      </trkpt>
      <trkpt lat="38.47543" lon="-0.80139">
        <ele>385.6</ele>
        <time>2022-10-15 14:13:07</time>
      </trkpt>
      <trkpt lat="38.47534" lon="-0.80139">
        <ele>385.6</ele>
        <time>2022-10-15 14:13:08</time>
      </trkpt>
      <trkpt lat="38.47529" lon="-0.8014">
        <ele>385.6</ele>
        <time>2022-10-15 14:13:10</time>
      </trkpt>
      <trkpt lat="38.47525" lon="-0.8014">
        <ele>385.6</ele>
        <time>2022-10-15 14:13:11</time>
      </trkpt>
      <trkpt lat="38.4752" lon="-0.80141">
        <ele>385.6</ele>
        <time>2022-10-15 14:13:12</time>
      </trkpt>
      <trkpt lat="38.47516" lon="-0.80143">
        <ele>385.4</ele>
        <time>2022-10-15 14:13:13</time>
      </trkpt>
      <trkpt lat="38.47516" lon="-0.80143">
        <ele>385.4</ele>
        <time>2022-10-15 14:13:14</time>
      </trkpt>
      <trkpt lat="38.47508" lon="-0.80148">
        <ele>385.4</ele>
        <time>2022-10-15 14:13:15</time>
      </trkpt>
      <trkpt lat="38.47504" lon="-0.80152">
        <ele>385.2</ele>
        <time>2022-10-15 14:13:16</time>
      </trkpt>
      <trkpt lat="38.475" lon="-0.80157">
        <ele>384.8</ele>
        <time>2022-10-15 14:13:17</time>
      </trkpt>
      <trkpt lat="38.47497" lon="-0.80161">
        <ele>384.6</ele>
        <time>2022-10-15 14:13:18</time>
      </trkpt>
      <trkpt lat="38.47494" lon="-0.80165">
        <ele>384.6</ele>
        <time>2022-10-15 14:13:19</time>
      </trkpt>
      <trkpt lat="38.47494" lon="-0.80165">
        <ele>384.6</ele>
        <time>2022-10-15 14:13:20</time>
      </trkpt>
      <trkpt lat="38.4749" lon="-0.80171">
        <ele>384.6</ele>
        <time>2022-10-15 14:13:21</time>
      </trkpt>
      <trkpt lat="38.47489" lon="-0.80173">
        <ele>384.6</ele>
        <time>2022-10-15 14:13:22</time>
      </trkpt>
      <trkpt lat="38.47487" lon="-0.80175">
        <ele>384.6</ele>
        <time>2022-10-15 14:13:23</time>
      </trkpt>
      <trkpt lat="38.47486" lon="-0.80176">
        <ele>384.6</ele>
        <time>2022-10-15 14:13:24</time>
      </trkpt>
      <trkpt lat="38.47484" lon="-0.80178">
        <ele>384.6</ele>
        <time>2022-10-15 14:13:25</time>
      </trkpt>
      <trkpt lat="38.47484" lon="-0.80178">
        <ele>384.6</ele>
        <time>2022-10-15 14:13:26</time>
      </trkpt>
      <trkpt lat="38.47482" lon="-0.80181">
        <ele>384.6</ele>
        <time>2022-10-15 14:13:27</time>
      </trkpt>
      <trkpt lat="38.47481" lon="-0.80183">
        <ele>384.8</ele>
        <time>2022-10-15 14:13:28</time>
      </trkpt>
      <trkpt lat="38.47479" lon="-0.80184">
        <ele>385.2</ele>
        <time>2022-10-15 14:13:29</time>
      </trkpt>
      <trkpt lat="38.47477" lon="-0.80185">
        <ele>385.4</ele>
        <time>2022-10-15 14:13:30</time>
      </trkpt>
      <trkpt lat="38.47475" lon="-0.80186">
        <ele>385.4</ele>
        <time>2022-10-15 14:13:31</time>
      </trkpt>
      <trkpt lat="38.47475" lon="-0.80186">
        <ele>385.4</ele>
        <time>2022-10-15 14:13:32</time>
      </trkpt>
      <trkpt lat="38.47469" lon="-0.80188">
        <ele>385.4</ele>
        <time>2022-10-15 14:13:33</time>
      </trkpt>
      <trkpt lat="38.47465" lon="-0.8019">
        <ele>385.4</ele>
        <time>2022-10-15 14:13:34</time>
      </trkpt>
      <trkpt lat="38.47462" lon="-0.80192">
        <ele>385.4</ele>
        <time>2022-10-15 14:13:35</time>
      </trkpt>
      <trkpt lat="38.47459" lon="-0.80194">
        <ele>385.4</ele>
        <time>2022-10-15 14:13:36</time>
      </trkpt>
      <trkpt lat="38.47456" lon="-0.80197">
        <ele>385.4</ele>
        <time>2022-10-15 14:13:37</time>
      </trkpt>
      <trkpt lat="38.47456" lon="-0.80197">
        <ele>385.2</ele>
        <time>2022-10-15 14:13:38</time>
      </trkpt>
      <trkpt lat="38.47449" lon="-0.80204">
        <ele>385</ele>
        <time>2022-10-15 14:13:39</time>
      </trkpt>
      <trkpt lat="38.47447" lon="-0.80207">
        <ele>384.8</ele>
        <time>2022-10-15 14:13:40</time>
      </trkpt>
      <trkpt lat="38.47444" lon="-0.80211">
        <ele>384.8</ele>
        <time>2022-10-15 14:13:41</time>
      </trkpt>
      <trkpt lat="38.47442" lon="-0.80215">
        <ele>384.6</ele>
        <time>2022-10-15 14:13:42</time>
      </trkpt>
      <trkpt lat="38.4744" lon="-0.80218">
        <ele>384.6</ele>
        <time>2022-10-15 14:13:43</time>
      </trkpt>
      <trkpt lat="38.4744" lon="-0.80218">
        <ele>384.6</ele>
        <time>2022-10-15 14:13:44</time>
      </trkpt>
      <trkpt lat="38.47435" lon="-0.80225">
        <ele>384.4</ele>
        <time>2022-10-15 14:13:45</time>
      </trkpt>
      <trkpt lat="38.47433" lon="-0.80229">
        <ele>384.4</ele>
        <time>2022-10-15 14:13:46</time>
      </trkpt>
      <trkpt lat="38.47431" lon="-0.80234">
        <ele>384.4</ele>
        <time>2022-10-15 14:13:47</time>
      </trkpt>
      <trkpt lat="38.47431" lon="-0.80234">
        <ele>384.4</ele>
        <time>2022-10-15 14:13:48</time>
      </trkpt>
      <trkpt lat="38.4743" lon="-0.80238">
        <ele>384.4</ele>
        <time>2022-10-15 14:13:49</time>
      </trkpt>
      <trkpt lat="38.47429" lon="-0.80243">
        <ele>384.4</ele>
        <time>2022-10-15 14:13:50</time>
      </trkpt>
      <trkpt lat="38.47427" lon="-0.80252">
        <ele>384.2</ele>
        <time>2022-10-15 14:13:51</time>
      </trkpt>
      <trkpt lat="38.47424" lon="-0.80256">
        <ele>384.2</ele>
        <time>2022-10-15 14:13:52</time>
      </trkpt>
      <trkpt lat="38.47424" lon="-0.80256">
        <ele>384.2</ele>
        <time>2022-10-15 14:13:53</time>
      </trkpt>
      <trkpt lat="38.47422" lon="-0.8026">
        <ele>384.2</ele>
        <time>2022-10-15 14:13:54</time>
      </trkpt>
      <trkpt lat="38.47416" lon="-0.80267">
        <ele>384.2</ele>
        <time>2022-10-15 14:13:55</time>
      </trkpt>
      <trkpt lat="38.47416" lon="-0.80267">
        <ele>384.2</ele>
        <time>2022-10-15 14:13:56</time>
      </trkpt>
      <trkpt lat="38.47411" lon="-0.80275">
        <ele>384.2</ele>
        <time>2022-10-15 14:13:57</time>
      </trkpt>
      <trkpt lat="38.47408" lon="-0.80279">
        <ele>384.2</ele>
        <time>2022-10-15 14:13:58</time>
      </trkpt>
      <trkpt lat="38.47405" lon="-0.80282">
        <ele>384.2</ele>
        <time>2022-10-15 14:13:59</time>
      </trkpt>
      <trkpt lat="38.47402" lon="-0.80285">
        <ele>384.2</ele>
        <time>2022-10-15 14:14:00</time>
      </trkpt>
      <trkpt lat="38.47399" lon="-0.80288">
        <ele>384</ele>
        <time>2022-10-15 14:14:01</time>
      </trkpt>
      <trkpt lat="38.47399" lon="-0.80288">
        <ele>384</ele>
        <time>2022-10-15 14:14:02</time>
      </trkpt>
      <trkpt lat="38.47392" lon="-0.80292">
        <ele>384</ele>
        <time>2022-10-15 14:14:03</time>
      </trkpt>
      <trkpt lat="38.47388" lon="-0.80294">
        <ele>383.8</ele>
        <time>2022-10-15 14:14:04</time>
      </trkpt>
      <trkpt lat="38.47384" lon="-0.80296">
        <ele>383.8</ele>
        <time>2022-10-15 14:14:05</time>
      </trkpt>
      <trkpt lat="38.4738" lon="-0.80298">
        <ele>383.8</ele>
        <time>2022-10-15 14:14:06</time>
      </trkpt>
      <trkpt lat="38.47376" lon="-0.803">
        <ele>383.8</ele>
        <time>2022-10-15 14:14:07</time>
      </trkpt>
      <trkpt lat="38.47376" lon="-0.803">
        <ele>383.8</ele>
        <time>2022-10-15 14:14:08</time>
      </trkpt>
      <trkpt lat="38.47368" lon="-0.80303">
        <ele>383.8</ele>
        <time>2022-10-15 14:14:09</time>
      </trkpt>
      <trkpt lat="38.47364" lon="-0.80305">
        <ele>383.8</ele>
        <time>2022-10-15 14:14:10</time>
      </trkpt>
      <trkpt lat="38.4736" lon="-0.80308">
        <ele>383.8</ele>
        <time>2022-10-15 14:14:11</time>
      </trkpt>
      <trkpt lat="38.47357" lon="-0.8031">
        <ele>383.8</ele>
        <time>2022-10-15 14:14:12</time>
      </trkpt>
      <trkpt lat="38.47352" lon="-0.80312">
        <ele>384</ele>
        <time>2022-10-15 14:14:13</time>
      </trkpt>
      <trkpt lat="38.47352" lon="-0.80312">
        <ele>384</ele>
        <time>2022-10-15 14:14:14</time>
      </trkpt>
      <trkpt lat="38.47344" lon="-0.80318">
        <ele>384</ele>
        <time>2022-10-15 14:14:15</time>
      </trkpt>
      <trkpt lat="38.4734" lon="-0.80321">
        <ele>383.6</ele>
        <time>2022-10-15 14:14:16</time>
      </trkpt>
      <trkpt lat="38.47337" lon="-0.80324">
        <ele>383.6</ele>
        <time>2022-10-15 14:14:17</time>
      </trkpt>
      <trkpt lat="38.47333" lon="-0.80327">
        <ele>383.6</ele>
        <time>2022-10-15 14:14:18</time>
      </trkpt>
      <trkpt lat="38.47328" lon="-0.80329">
        <ele>383.8</ele>
        <time>2022-10-15 14:14:19</time>
      </trkpt>
      <trkpt lat="38.47328" lon="-0.80329">
        <ele>383.6</ele>
        <time>2022-10-15 14:14:20</time>
      </trkpt>
      <trkpt lat="38.47319" lon="-0.80334">
        <ele>383.6</ele>
        <time>2022-10-15 14:14:21</time>
      </trkpt>
      <trkpt lat="38.47315" lon="-0.80337">
        <ele>383.4</ele>
        <time>2022-10-15 14:14:22</time>
      </trkpt>
      <trkpt lat="38.4731" lon="-0.80339">
        <ele>383.4</ele>
        <time>2022-10-15 14:14:23</time>
      </trkpt>
      <trkpt lat="38.47306" lon="-0.80341">
        <ele>383.4</ele>
        <time>2022-10-15 14:14:24</time>
      </trkpt>
      <trkpt lat="38.47302" lon="-0.80343">
        <ele>383.2</ele>
        <time>2022-10-15 14:14:25</time>
      </trkpt>
      <trkpt lat="38.47302" lon="-0.80343">
        <ele>383</ele>
        <time>2022-10-15 14:14:26</time>
      </trkpt>
      <trkpt lat="38.47294" lon="-0.80346">
        <ele>382.8</ele>
        <time>2022-10-15 14:14:27</time>
      </trkpt>
      <trkpt lat="38.47289" lon="-0.80347">
        <ele>382.6</ele>
        <time>2022-10-15 14:14:28</time>
      </trkpt>
      <trkpt lat="38.47285" lon="-0.80347">
        <ele>382.6</ele>
        <time>2022-10-15 14:14:29</time>
      </trkpt>
      <trkpt lat="38.47281" lon="-0.80347">
        <ele>382.4</ele>
        <time>2022-10-15 14:14:30</time>
      </trkpt>
      <trkpt lat="38.47277" lon="-0.80346">
        <ele>382.4</ele>
        <time>2022-10-15 14:14:31</time>
      </trkpt>
      <trkpt lat="38.47268" lon="-0.80346">
        <ele>382.4</ele>
        <time>2022-10-15 14:14:32</time>
      </trkpt>
      <trkpt lat="38.47264" lon="-0.80347">
        <ele>382.4</ele>
        <time>2022-10-15 14:14:33</time>
      </trkpt>
      <trkpt lat="38.47259" lon="-0.80347">
        <ele>382.4</ele>
        <time>2022-10-15 14:14:34</time>
      </trkpt>
      <trkpt lat="38.47259" lon="-0.80347">
        <ele>382.4</ele>
        <time>2022-10-15 14:14:35</time>
      </trkpt>
      <trkpt lat="38.47255" lon="-0.80348">
        <ele>382.4</ele>
        <time>2022-10-15 14:14:37</time>
      </trkpt>
      <trkpt lat="38.47251" lon="-0.8035">
        <ele>382.2</ele>
        <time>2022-10-15 14:14:38</time>
      </trkpt>
      <trkpt lat="38.47247" lon="-0.80351">
        <ele>382.2</ele>
        <time>2022-10-15 14:14:39</time>
      </trkpt>
      <trkpt lat="38.47244" lon="-0.80352">
        <ele>382.2</ele>
        <time>2022-10-15 14:14:40</time>
      </trkpt>
      <trkpt lat="38.47241" lon="-0.80353">
        <ele>382.2</ele>
        <time>2022-10-15 14:14:41</time>
      </trkpt>
      <trkpt lat="38.47239" lon="-0.80354">
        <ele>382.2</ele>
        <time>2022-10-15 14:14:42</time>
      </trkpt>
      <trkpt lat="38.47238" lon="-0.80354">
        <ele>382.2</ele>
        <time>2022-10-15 14:14:43</time>
      </trkpt>
      <trkpt lat="38.47238" lon="-0.80354">
        <ele>382.2</ele>
        <time>2022-10-15 14:14:44</time>
      </trkpt>
      <trkpt lat="38.47237" lon="-0.80355">
        <ele>382.4</ele>
        <time>2022-10-15 14:14:45</time>
      </trkpt>
      <trkpt lat="38.47232" lon="-0.80345">
        <ele>383.6</ele>
        <time>2022-10-15 14:14:46</time>
      </trkpt>
      <trkpt lat="38.47231" lon="-0.80343">
        <ele>383.6</ele>
        <time>2022-10-15 14:14:47</time>
      </trkpt>
      <trkpt lat="38.4723" lon="-0.80341">
        <ele>383.6</ele>
        <time>2022-10-15 14:14:48</time>
      </trkpt>
      <trkpt lat="38.47229" lon="-0.80339">
        <ele>383.6</ele>
        <time>2022-10-15 14:14:49</time>
      </trkpt>
      <trkpt lat="38.47228" lon="-0.80336">
        <ele>383.6</ele>
        <time>2022-10-15 14:14:50</time>
      </trkpt>
      <trkpt lat="38.47227" lon="-0.80333">
        <ele>383.6</ele>
        <time>2022-10-15 14:15:24</time>
      </trkpt>
      <trkpt lat="38.47226" lon="-0.80329">
        <ele>383.6</ele>
        <time>2022-10-15 14:15:25</time>
      </trkpt>
      <trkpt lat="38.47224" lon="-0.80324">
        <ele>383.4</ele>
        <time>2022-10-15 14:15:26</time>
      </trkpt>
      <trkpt lat="38.47223" lon="-0.80319">
        <ele>383.4</ele>
        <time>2022-10-15 14:15:27</time>
      </trkpt>
      <trkpt lat="38.47222" lon="-0.80315">
        <ele>383.4</ele>
        <time>2022-10-15 14:15:28</time>
      </trkpt>
      <trkpt lat="38.4722" lon="-0.80312">
        <ele>383.4</ele>
        <time>2022-10-15 14:15:29</time>
      </trkpt>
      <trkpt lat="38.47218" lon="-0.8031">
        <ele>383.4</ele>
        <time>2022-10-15 14:15:30</time>
      </trkpt>
      <trkpt lat="38.47215" lon="-0.80308">
        <ele>383.4</ele>
        <time>2022-10-15 14:15:31</time>
      </trkpt>
      <trkpt lat="38.47212" lon="-0.80307">
        <ele>383.4</ele>
        <time>2022-10-15 14:15:32</time>
      </trkpt>
      <trkpt lat="38.47209" lon="-0.80305">
        <ele>383.4</ele>
        <time>2022-10-15 14:15:33</time>
      </trkpt>
      <trkpt lat="38.47207" lon="-0.80303">
        <ele>383.4</ele>
        <time>2022-10-15 14:15:34</time>
      </trkpt>
      <trkpt lat="38.47206" lon="-0.80299">
        <ele>383.6</ele>
        <time>2022-10-15 14:15:35</time>
      </trkpt>
      <trkpt lat="38.47205" lon="-0.80295">
        <ele>383.6</ele>
        <time>2022-10-15 14:15:36</time>
      </trkpt>
      <trkpt lat="38.47205" lon="-0.80292">
        <ele>383.6</ele>
        <time>2022-10-15 14:15:37</time>
      </trkpt>
      <trkpt lat="38.47205" lon="-0.8029">
        <ele>383.6</ele>
        <time>2022-10-15 14:15:38</time>
      </trkpt>
      <trkpt lat="38.47206" lon="-0.80287">
        <ele>383.8</ele>
        <time>2022-10-15 14:15:39</time>
      </trkpt>
      <trkpt lat="38.47207" lon="-0.80284">
        <ele>383.8</ele>
        <time>2022-10-15 14:15:40</time>
      </trkpt>
      <trkpt lat="38.47208" lon="-0.80281">
        <ele>384</ele>
        <time>2022-10-15 14:15:41</time>
      </trkpt>
      <trkpt lat="38.47209" lon="-0.80278">
        <ele>384</ele>
        <time>2022-10-15 14:15:42</time>
      </trkpt>
      <trkpt lat="38.47211" lon="-0.80276">
        <ele>384.2</ele>
        <time>2022-10-15 14:15:43</time>
      </trkpt>
      <trkpt lat="38.47213" lon="-0.80274">
        <ele>384.4</ele>
        <time>2022-10-15 14:15:44</time>
      </trkpt>
      <trkpt lat="38.47216" lon="-0.80273">
        <ele>384.6</ele>
        <time>2022-10-15 14:15:45</time>
      </trkpt>
      <trkpt lat="38.47219" lon="-0.80272">
        <ele>384.8</ele>
        <time>2022-10-15 14:15:46</time>
      </trkpt>
      <trkpt lat="38.47222" lon="-0.80271">
        <ele>384.8</ele>
        <time>2022-10-15 14:15:47</time>
      </trkpt>
      <trkpt lat="38.47225" lon="-0.8027">
        <ele>384.8</ele>
        <time>2022-10-15 14:15:48</time>
      </trkpt>
      <trkpt lat="38.47228" lon="-0.8027">
        <ele>385.6</ele>
        <time>2022-10-15 14:15:49</time>
      </trkpt>
      <trkpt lat="38.47231" lon="-0.80269">
        <ele>385.8</ele>
        <time>2022-10-15 14:15:50</time>
      </trkpt>
      <trkpt lat="38.47234" lon="-0.80268">
        <ele>386</ele>
        <time>2022-10-15 14:15:51</time>
      </trkpt>
      <trkpt lat="38.4724" lon="-0.80264">
        <ele>388</ele>
        <time>2022-10-15 14:15:52</time>
      </trkpt>
      <trkpt lat="38.4724" lon="-0.80264">
        <ele>388</ele>
        <time>2022-10-15 14:15:53</time>
      </trkpt>
      <trkpt lat="38.47234" lon="-0.80255">
        <ele>388.4</ele>
        <time>2022-10-15 14:15:54</time>
      </trkpt>
      <trkpt lat="38.4724" lon="-0.80262">
        <ele>388.2</ele>
        <time>2022-10-15 14:15:55</time>
      </trkpt>
      <trkpt lat="38.47258" lon="-0.80299">
        <ele>516.6</ele>
        <time>2022-10-15 14:15:56</time>
      </trkpt>
      <trkpt lat="38.47258" lon="-0.80299">
        <ele>454.2</ele>
        <time>2022-10-15 14:16:33</time>
      </trkpt>
      <trkpt lat="38.47242" lon="-0.80248">
        <ele>359.2</ele>
        <time>2022-10-15 14:58:04</time>
      </trkpt>
      <trkpt lat="38.47241" lon="-0.80248">
        <ele>359.2</ele>
        <time>2022-10-15 14:58:05</time>
      </trkpt>
      <trkpt lat="38.47244" lon="-0.80255">
        <ele>359.6</ele>
        <time>2022-10-15 15:00:43</time>
      </trkpt>
      <trkpt lat="38.47246" lon="-0.80261">
        <ele>359.6</ele>
        <time>2022-10-15 15:00:45</time>
      </trkpt>
      <trkpt lat="38.47246" lon="-0.80262">
        <ele>359.8</ele>
        <time>2022-10-15 15:00:46</time>
      </trkpt>
      <trkpt lat="38.47246" lon="-0.80263">
        <ele>359.8</ele>
        <time>2022-10-15 15:00:47</time>
      </trkpt>
      <trkpt lat="38.47245" lon="-0.80264">
        <ele>359.8</ele>
        <time>2022-10-15 15:00:48</time>
      </trkpt>
      <trkpt lat="38.47245" lon="-0.80265">
        <ele>359.8</ele>
        <time>2022-10-15 15:00:49</time>
      </trkpt>
      <trkpt lat="38.47245" lon="-0.80266">
        <ele>359.8</ele>
        <time>2022-10-15 15:00:50</time>
      </trkpt>
      <trkpt lat="38.47245" lon="-0.80268">
        <ele>359.6</ele>
        <time>2022-10-15 15:00:51</time>
      </trkpt>
      <trkpt lat="38.47246" lon="-0.8027">
        <ele>359.6</ele>
        <time>2022-10-15 15:00:52</time>
      </trkpt>
      <trkpt lat="38.47246" lon="-0.80272">
        <ele>359.6</ele>
        <time>2022-10-15 15:00:53</time>
      </trkpt>
      <trkpt lat="38.47248" lon="-0.80274">
        <ele>359.6</ele>
        <time>2022-10-15 15:00:54</time>
      </trkpt>
      <trkpt lat="38.47248" lon="-0.80274">
        <ele>359.6</ele>
        <time>2022-10-15 15:00:55</time>
      </trkpt>
      <trkpt lat="38.47249" lon="-0.80278">
        <ele>359.6</ele>
        <time>2022-10-15 15:00:56</time>
      </trkpt>
      <trkpt lat="38.4725" lon="-0.80281">
        <ele>359.6</ele>
        <time>2022-10-15 15:00:57</time>
      </trkpt>
      <trkpt lat="38.4725" lon="-0.80283">
        <ele>359.4</ele>
        <time>2022-10-15 15:00:58</time>
      </trkpt>
      <trkpt lat="38.47249" lon="-0.8029">
        <ele>359.2</ele>
        <time>2022-10-15 15:01:00</time>
      </trkpt>
      <trkpt lat="38.47246" lon="-0.803">
        <ele>359</ele>
        <time>2022-10-15 15:01:02</time>
      </trkpt>
      <trkpt lat="38.47242" lon="-0.80305">
        <ele>358.8</ele>
        <time>2022-10-15 15:01:03</time>
      </trkpt>
      <trkpt lat="38.47238" lon="-0.8031">
        <ele>358.8</ele>
        <time>2022-10-15 15:01:04</time>
      </trkpt>
      <trkpt lat="38.47234" lon="-0.80314">
        <ele>358.8</ele>
        <time>2022-10-15 15:01:05</time>
      </trkpt>
      <trkpt lat="38.4723" lon="-0.80318">
        <ele>358.6</ele>
        <time>2022-10-15 15:01:06</time>
      </trkpt>
      <trkpt lat="38.4723" lon="-0.80318">
        <ele>358.4</ele>
        <time>2022-10-15 15:01:07</time>
      </trkpt>
      <trkpt lat="38.47226" lon="-0.80324">
        <ele>358.4</ele>
        <time>2022-10-15 15:01:08</time>
      </trkpt>
      <trkpt lat="38.47226" lon="-0.80327">
        <ele>357.8</ele>
        <time>2022-10-15 15:01:09</time>
      </trkpt>
      <trkpt lat="38.47226" lon="-0.8033">
        <ele>357</ele>
        <time>2022-10-15 15:01:10</time>
      </trkpt>
      <trkpt lat="38.47228" lon="-0.80335">
        <ele>356</ele>
        <time>2022-10-15 15:01:12</time>
      </trkpt>
      <trkpt lat="38.47228" lon="-0.80335">
        <ele>355.8</ele>
        <time>2022-10-15 15:01:13</time>
      </trkpt>
      <trkpt lat="38.47233" lon="-0.80343">
        <ele>355.8</ele>
        <time>2022-10-15 15:01:15</time>
      </trkpt>
      <trkpt lat="38.47235" lon="-0.80348">
        <ele>355.8</ele>
        <time>2022-10-15 15:01:17</time>
      </trkpt>
      <trkpt lat="38.47235" lon="-0.80352">
        <ele>355.6</ele>
        <time>2022-10-15 15:01:18</time>
      </trkpt>
      <trkpt lat="38.47232" lon="-0.80358">
        <ele>355.4</ele>
        <time>2022-10-15 15:01:20</time>
      </trkpt>
      <trkpt lat="38.47229" lon="-0.8036">
        <ele>355.6</ele>
        <time>2022-10-15 15:01:21</time>
      </trkpt>
      <trkpt lat="38.47223" lon="-0.80365">
        <ele>355.6</ele>
        <time>2022-10-15 15:01:23</time>
      </trkpt>
      <trkpt lat="38.4722" lon="-0.80367">
        <ele>355.6</ele>
        <time>2022-10-15 15:01:24</time>
      </trkpt>
      <trkpt lat="38.47213" lon="-0.80372">
        <ele>355.4</ele>
        <time>2022-10-15 15:01:26</time>
      </trkpt>
      <trkpt lat="38.4721" lon="-0.80374">
        <ele>355.6</ele>
        <time>2022-10-15 15:01:27</time>
      </trkpt>
      <trkpt lat="38.47203" lon="-0.80379">
        <ele>355.4</ele>
        <time>2022-10-15 15:01:29</time>
      </trkpt>
      <trkpt lat="38.47195" lon="-0.80385">
        <ele>355.2</ele>
        <time>2022-10-15 15:01:32</time>
      </trkpt>
      <trkpt lat="38.47192" lon="-0.80386">
        <ele>355</ele>
        <time>2022-10-15 15:01:33</time>
      </trkpt>
      <trkpt lat="38.4719" lon="-0.80388">
        <ele>355</ele>
        <time>2022-10-15 15:01:34</time>
      </trkpt>
      <trkpt lat="38.47188" lon="-0.8039">
        <ele>355</ele>
        <time>2022-10-15 15:01:35</time>
      </trkpt>
      <trkpt lat="38.47183" lon="-0.80396">
        <ele>355</ele>
        <time>2022-10-15 15:01:37</time>
      </trkpt>
      <trkpt lat="38.47181" lon="-0.80399">
        <ele>355</ele>
        <time>2022-10-15 15:01:38</time>
      </trkpt>
      <trkpt lat="38.47176" lon="-0.80406">
        <ele>354.8</ele>
        <time>2022-10-15 15:01:40</time>
      </trkpt>
      <trkpt lat="38.47173" lon="-0.80409">
        <ele>354.8</ele>
        <time>2022-10-15 15:01:41</time>
      </trkpt>
      <trkpt lat="38.47168" lon="-0.80415">
        <ele>354.8</ele>
        <time>2022-10-15 15:01:43</time>
      </trkpt>
      <trkpt lat="38.47165" lon="-0.80418">
        <ele>354.6</ele>
        <time>2022-10-15 15:01:44</time>
      </trkpt>
      <trkpt lat="38.47159" lon="-0.80424">
        <ele>354.2</ele>
        <time>2022-10-15 15:01:46</time>
      </trkpt>
      <trkpt lat="38.47155" lon="-0.80427">
        <ele>354.2</ele>
        <time>2022-10-15 15:01:47</time>
      </trkpt>
      <trkpt lat="38.47148" lon="-0.80433">
        <ele>354</ele>
        <time>2022-10-15 15:01:49</time>
      </trkpt>
      <trkpt lat="38.4714" lon="-0.8044">
        <ele>353.8</ele>
        <time>2022-10-15 15:01:52</time>
      </trkpt>
      <trkpt lat="38.47137" lon="-0.80442">
        <ele>353.8</ele>
        <time>2022-10-15 15:01:53</time>
      </trkpt>
      <trkpt lat="38.47134" lon="-0.80445">
        <ele>353.8</ele>
        <time>2022-10-15 15:01:54</time>
      </trkpt>
      <trkpt lat="38.47131" lon="-0.80448">
        <ele>353.6</ele>
        <time>2022-10-15 15:01:55</time>
      </trkpt>
      <trkpt lat="38.47125" lon="-0.80452">
        <ele>353.4</ele>
        <time>2022-10-15 15:01:57</time>
      </trkpt>
      <trkpt lat="38.47121" lon="-0.80454">
        <ele>353.4</ele>
        <time>2022-10-15 15:01:58</time>
      </trkpt>
      <trkpt lat="38.47117" lon="-0.80456">
        <ele>353.2</ele>
        <time>2022-10-15 15:01:59</time>
      </trkpt>
      <trkpt lat="38.47113" lon="-0.80457">
        <ele>353.2</ele>
        <time>2022-10-15 15:02:00</time>
      </trkpt>
      <trkpt lat="38.47113" lon="-0.80457">
        <ele>353.2</ele>
        <time>2022-10-15 15:02:01</time>
      </trkpt>
      <trkpt lat="38.47102" lon="-0.80456">
        <ele>353</ele>
        <time>2022-10-15 15:02:02</time>
      </trkpt>
      <trkpt lat="38.47097" lon="-0.80456">
        <ele>353</ele>
        <time>2022-10-15 15:02:03</time>
      </trkpt>
      <trkpt lat="38.47092" lon="-0.80456">
        <ele>353</ele>
        <time>2022-10-15 15:02:04</time>
      </trkpt>
      <trkpt lat="38.47088" lon="-0.80456">
        <ele>353</ele>
        <time>2022-10-15 15:02:05</time>
      </trkpt>
      <trkpt lat="38.47083" lon="-0.80457">
        <ele>352.8</ele>
        <time>2022-10-15 15:02:06</time>
      </trkpt>
      <trkpt lat="38.47073" lon="-0.80459">
        <ele>351.6</ele>
        <time>2022-10-15 15:02:08</time>
      </trkpt>
      <trkpt lat="38.47069" lon="-0.80461">
        <ele>351</ele>
        <time>2022-10-15 15:02:09</time>
      </trkpt>
      <trkpt lat="38.47064" lon="-0.80462">
        <ele>350.8</ele>
        <time>2022-10-15 15:02:10</time>
      </trkpt>
      <trkpt lat="38.4706" lon="-0.80463">
        <ele>350.6</ele>
        <time>2022-10-15 15:02:11</time>
      </trkpt>
      <trkpt lat="38.47056" lon="-0.80464">
        <ele>350.4</ele>
        <time>2022-10-15 15:02:12</time>
      </trkpt>
      <trkpt lat="38.47048" lon="-0.80466">
        <ele>350.2</ele>
        <time>2022-10-15 15:02:14</time>
      </trkpt>
      <trkpt lat="38.47036" lon="-0.8047">
        <ele>350.2</ele>
        <time>2022-10-15 15:02:17</time>
      </trkpt>
      <trkpt lat="38.47025" lon="-0.80474">
        <ele>350.2</ele>
        <time>2022-10-15 15:02:20</time>
      </trkpt>
      <trkpt lat="38.47018" lon="-0.80476">
        <ele>350.2</ele>
        <time>2022-10-15 15:02:22</time>
      </trkpt>
      <trkpt lat="38.47015" lon="-0.80477">
        <ele>350.2</ele>
        <time>2022-10-15 15:02:23</time>
      </trkpt>
      <trkpt lat="38.47012" lon="-0.80478">
        <ele>350</ele>
        <time>2022-10-15 15:02:24</time>
      </trkpt>
      <trkpt lat="38.47008" lon="-0.80479">
        <ele>350</ele>
        <time>2022-10-15 15:02:25</time>
      </trkpt>
      <trkpt lat="38.47004" lon="-0.8048">
        <ele>350</ele>
        <time>2022-10-15 15:02:26</time>
      </trkpt>
      <trkpt lat="38.46997" lon="-0.80482">
        <ele>350</ele>
        <time>2022-10-15 15:02:28</time>
      </trkpt>
      <trkpt lat="38.46994" lon="-0.80483">
        <ele>350</ele>
        <time>2022-10-15 15:02:29</time>
      </trkpt>
      <trkpt lat="38.46988" lon="-0.80484">
        <ele>350</ele>
        <time>2022-10-15 15:02:31</time>
      </trkpt>
      <trkpt lat="38.4698" lon="-0.80486">
        <ele>350</ele>
        <time>2022-10-15 15:02:34</time>
      </trkpt>
      <trkpt lat="38.46974" lon="-0.80487">
        <ele>350</ele>
        <time>2022-10-15 15:02:36</time>
      </trkpt>
      <trkpt lat="38.46974" lon="-0.80487">
        <ele>350</ele>
        <time>2022-10-15 15:02:37</time>
      </trkpt>
      <trkpt lat="38.46966" lon="-0.80488">
        <ele>350</ele>
        <time>2022-10-15 15:02:39</time>
      </trkpt>
      <trkpt lat="38.46964" lon="-0.80489">
        <ele>350</ele>
        <time>2022-10-15 15:02:40</time>
      </trkpt>
      <trkpt lat="38.4696" lon="-0.80489">
        <ele>350</ele>
        <time>2022-10-15 15:02:42</time>
      </trkpt>
      <trkpt lat="38.4696" lon="-0.80489">
        <ele>350</ele>
        <time>2022-10-15 15:02:43</time>
      </trkpt>
      <trkpt lat="38.46955" lon="-0.8049">
        <ele>350</ele>
        <time>2022-10-15 15:02:45</time>
      </trkpt>
      <trkpt lat="38.4695" lon="-0.80491">
        <ele>350.2</ele>
        <time>2022-10-15 15:02:47</time>
      </trkpt>
      <trkpt lat="38.46948" lon="-0.80491">
        <ele>350.2</ele>
        <time>2022-10-15 15:02:48</time>
      </trkpt>
      <trkpt lat="38.46948" lon="-0.80491">
        <ele>350</ele>
        <time>2022-10-15 15:02:49</time>
      </trkpt>
      <trkpt lat="38.46942" lon="-0.8049">
        <ele>350</ele>
        <time>2022-10-15 15:02:50</time>
      </trkpt>
      <trkpt lat="38.46938" lon="-0.8049">
        <ele>350</ele>
        <time>2022-10-15 15:02:51</time>
      </trkpt>
      <trkpt lat="38.46931" lon="-0.80487">
        <ele>350</ele>
        <time>2022-10-15 15:02:53</time>
      </trkpt>
      <trkpt lat="38.46927" lon="-0.80485">
        <ele>349.8</ele>
        <time>2022-10-15 15:02:54</time>
      </trkpt>
      <trkpt lat="38.46927" lon="-0.80485">
        <ele>349.8</ele>
        <time>2022-10-15 15:02:55</time>
      </trkpt>
      <trkpt lat="38.4692" lon="-0.80482">
        <ele>349.8</ele>
        <time>2022-10-15 15:02:56</time>
      </trkpt>
      <trkpt lat="38.46916" lon="-0.8048">
        <ele>349.6</ele>
        <time>2022-10-15 15:02:57</time>
      </trkpt>
      <trkpt lat="38.46909" lon="-0.80477">
        <ele>349.6</ele>
        <time>2022-10-15 15:02:59</time>
      </trkpt>
      <trkpt lat="38.46905" lon="-0.80475">
        <ele>349.4</ele>
        <time>2022-10-15 15:03:00</time>
      </trkpt>
      <trkpt lat="38.46897" lon="-0.8047">
        <ele>348.8</ele>
        <time>2022-10-15 15:03:02</time>
      </trkpt>
      <trkpt lat="38.46893" lon="-0.80467">
        <ele>348.4</ele>
        <time>2022-10-15 15:03:03</time>
      </trkpt>
      <trkpt lat="38.46885" lon="-0.80462">
        <ele>348.4</ele>
        <time>2022-10-15 15:03:05</time>
      </trkpt>
      <trkpt lat="38.46877" lon="-0.80457">
        <ele>348.2</ele>
        <time>2022-10-15 15:03:07</time>
      </trkpt>
      <trkpt lat="38.46873" lon="-0.80455">
        <ele>348.2</ele>
        <time>2022-10-15 15:03:08</time>
      </trkpt>
      <trkpt lat="38.46869" lon="-0.80453">
        <ele>347.8</ele>
        <time>2022-10-15 15:03:09</time>
      </trkpt>
      <trkpt lat="38.46865" lon="-0.80452">
        <ele>347.6</ele>
        <time>2022-10-15 15:03:10</time>
      </trkpt>
      <trkpt lat="38.46862" lon="-0.80451">
        <ele>347.4</ele>
        <time>2022-10-15 15:03:11</time>
      </trkpt>
      <trkpt lat="38.46855" lon="-0.80449">
        <ele>347.2</ele>
        <time>2022-10-15 15:03:13</time>
      </trkpt>
      <trkpt lat="38.46852" lon="-0.80448">
        <ele>347</ele>
        <time>2022-10-15 15:03:14</time>
      </trkpt>
      <trkpt lat="38.46846" lon="-0.80447">
        <ele>347</ele>
        <time>2022-10-15 15:03:16</time>
      </trkpt>
      <trkpt lat="38.46843" lon="-0.80448">
        <ele>347</ele>
        <time>2022-10-15 15:03:17</time>
      </trkpt>
      <trkpt lat="38.4684" lon="-0.80449">
        <ele>347</ele>
        <time>2022-10-15 15:03:19</time>
      </trkpt>
      <trkpt lat="38.46831" lon="-0.80453">
        <ele>347</ele>
        <time>2022-10-15 15:03:21</time>
      </trkpt>
      <trkpt lat="38.46829" lon="-0.80455">
        <ele>347</ele>
        <time>2022-10-15 15:03:22</time>
      </trkpt>
      <trkpt lat="38.46824" lon="-0.80459">
        <ele>347</ele>
        <time>2022-10-15 15:03:24</time>
      </trkpt>
      <trkpt lat="38.46824" lon="-0.80459">
        <ele>347</ele>
        <time>2022-10-15 15:03:25</time>
      </trkpt>
      <trkpt lat="38.46818" lon="-0.80465">
        <ele>347.2</ele>
        <time>2022-10-15 15:03:27</time>
      </trkpt>
      <trkpt lat="38.46815" lon="-0.80466">
        <ele>347.4</ele>
        <time>2022-10-15 15:03:28</time>
      </trkpt>
      <trkpt lat="38.46809" lon="-0.8047">
        <ele>347.4</ele>
        <time>2022-10-15 15:03:30</time>
      </trkpt>
      <trkpt lat="38.46809" lon="-0.8047">
        <ele>347.6</ele>
        <time>2022-10-15 15:03:31</time>
      </trkpt>
      <trkpt lat="38.46801" lon="-0.80476">
        <ele>347.6</ele>
        <time>2022-10-15 15:03:33</time>
      </trkpt>
      <trkpt lat="38.46792" lon="-0.80482">
        <ele>347.8</ele>
        <time>2022-10-15 15:03:36</time>
      </trkpt>
      <trkpt lat="38.46786" lon="-0.80486">
        <ele>347.8</ele>
        <time>2022-10-15 15:03:38</time>
      </trkpt>
      <trkpt lat="38.46784" lon="-0.80487">
        <ele>347.8</ele>
        <time>2022-10-15 15:03:39</time>
      </trkpt>
      <trkpt lat="38.46779" lon="-0.8049">
        <ele>347.8</ele>
        <time>2022-10-15 15:03:41</time>
      </trkpt>
      <trkpt lat="38.46775" lon="-0.80491">
        <ele>347.8</ele>
        <time>2022-10-15 15:03:42</time>
      </trkpt>
      <trkpt lat="38.46768" lon="-0.80494">
        <ele>347.6</ele>
        <time>2022-10-15 15:03:44</time>
      </trkpt>
      <trkpt lat="38.46763" lon="-0.80495">
        <ele>347.6</ele>
        <time>2022-10-15 15:03:45</time>
      </trkpt>
      <trkpt lat="38.46754" lon="-0.80499">
        <ele>347.8</ele>
        <time>2022-10-15 15:03:47</time>
      </trkpt>
      <trkpt lat="38.4675" lon="-0.80501">
        <ele>347.8</ele>
        <time>2022-10-15 15:03:48</time>
      </trkpt>
      <trkpt lat="38.46741" lon="-0.80504">
        <ele>347.6</ele>
        <time>2022-10-15 15:03:50</time>
      </trkpt>
      <trkpt lat="38.46732" lon="-0.80507">
        <ele>347</ele>
        <time>2022-10-15 15:03:52</time>
      </trkpt>
      <trkpt lat="38.46727" lon="-0.80508">
        <ele>346.8</ele>
        <time>2022-10-15 15:03:53</time>
      </trkpt>
      <trkpt lat="38.46723" lon="-0.8051">
        <ele>346.2</ele>
        <time>2022-10-15 15:03:55</time>
      </trkpt>
      <trkpt lat="38.46715" lon="-0.80513">
        <ele>346</ele>
        <time>2022-10-15 15:03:56</time>
      </trkpt>
      <trkpt lat="38.46708" lon="-0.80516">
        <ele>346</ele>
        <time>2022-10-15 15:03:58</time>
      </trkpt>
      <trkpt lat="38.46701" lon="-0.80519">
        <ele>345.8</ele>
        <time>2022-10-15 15:04:01</time>
      </trkpt>
      <trkpt lat="38.46691" lon="-0.80524">
        <ele>345.8</ele>
        <time>2022-10-15 15:04:03</time>
      </trkpt>
      <trkpt lat="38.46688" lon="-0.80525">
        <ele>345.8</ele>
        <time>2022-10-15 15:04:04</time>
      </trkpt>
      <trkpt lat="38.46681" lon="-0.80528">
        <ele>346</ele>
        <time>2022-10-15 15:04:06</time>
      </trkpt>
      <trkpt lat="38.46681" lon="-0.80528">
        <ele>346.2</ele>
        <time>2022-10-15 15:04:07</time>
      </trkpt>
      <trkpt lat="38.46672" lon="-0.80532">
        <ele>345.8</ele>
        <time>2022-10-15 15:04:09</time>
      </trkpt>
      <trkpt lat="38.46668" lon="-0.80534">
        <ele>346</ele>
        <time>2022-10-15 15:04:10</time>
      </trkpt>
      <trkpt lat="38.46665" lon="-0.80536">
        <ele>346</ele>
        <time>2022-10-15 15:04:11</time>
      </trkpt>
      <trkpt lat="38.46661" lon="-0.80538">
        <ele>346</ele>
        <time>2022-10-15 15:04:12</time>
      </trkpt>
      <trkpt lat="38.46661" lon="-0.80538">
        <ele>346</ele>
        <time>2022-10-15 15:04:13</time>
      </trkpt>
      <trkpt lat="38.46653" lon="-0.80542">
        <ele>346</ele>
        <time>2022-10-15 15:04:14</time>
      </trkpt>
      <trkpt lat="38.46649" lon="-0.80544">
        <ele>345.8</ele>
        <time>2022-10-15 15:04:15</time>
      </trkpt>
      <trkpt lat="38.4664" lon="-0.80556">
        <ele>345.4</ele>
        <time>2022-10-15 15:04:18</time>
      </trkpt>
      <trkpt lat="38.4664" lon="-0.80556">
        <ele>345.2</ele>
        <time>2022-10-15 15:04:19</time>
      </trkpt>
      <trkpt lat="38.46637" lon="-0.80565">
        <ele>345</ele>
        <time>2022-10-15 15:04:20</time>
      </trkpt>
      <trkpt lat="38.46636" lon="-0.80569">
        <ele>345</ele>
        <time>2022-10-15 15:04:21</time>
      </trkpt>
      <trkpt lat="38.46636" lon="-0.80573">
        <ele>345</ele>
        <time>2022-10-15 15:04:22</time>
      </trkpt>
      <trkpt lat="38.46636" lon="-0.80576">
        <ele>345</ele>
        <time>2022-10-15 15:04:23</time>
      </trkpt>
      <trkpt lat="38.46636" lon="-0.8058">
        <ele>345</ele>
        <time>2022-10-15 15:04:24</time>
      </trkpt>
      <trkpt lat="38.46635" lon="-0.80587">
        <ele>345</ele>
        <time>2022-10-15 15:04:26</time>
      </trkpt>
      <trkpt lat="38.46634" lon="-0.8059">
        <ele>345</ele>
        <time>2022-10-15 15:04:27</time>
      </trkpt>
      <trkpt lat="38.46633" lon="-0.80592">
        <ele>345</ele>
        <time>2022-10-15 15:04:28</time>
      </trkpt>
      <trkpt lat="38.46631" lon="-0.80595">
        <ele>345</ele>
        <time>2022-10-15 15:04:29</time>
      </trkpt>
      <trkpt lat="38.46626" lon="-0.80603">
        <ele>345.8</ele>
        <time>2022-10-15 15:04:32</time>
      </trkpt>
      <trkpt lat="38.46624" lon="-0.80607">
        <ele>346</ele>
        <time>2022-10-15 15:04:33</time>
      </trkpt>
      <trkpt lat="38.46623" lon="-0.80614">
        <ele>346.2</ele>
        <time>2022-10-15 15:04:35</time>
      </trkpt>
      <trkpt lat="38.46622" lon="-0.80618">
        <ele>346.4</ele>
        <time>2022-10-15 15:04:36</time>
      </trkpt>
      <trkpt lat="38.46622" lon="-0.80618">
        <ele>346.4</ele>
        <time>2022-10-15 15:04:37</time>
      </trkpt>
      <trkpt lat="38.4662" lon="-0.80625">
        <ele>346.4</ele>
        <time>2022-10-15 15:04:38</time>
      </trkpt>
      <trkpt lat="38.46618" lon="-0.80629">
        <ele>346.4</ele>
        <time>2022-10-15 15:04:39</time>
      </trkpt>
      <trkpt lat="38.46616" lon="-0.80632">
        <ele>346.6</ele>
        <time>2022-10-15 15:04:40</time>
      </trkpt>
      <trkpt lat="38.46613" lon="-0.80635">
        <ele>346.6</ele>
        <time>2022-10-15 15:04:41</time>
      </trkpt>
      <trkpt lat="38.4661" lon="-0.80638">
        <ele>346.8</ele>
        <time>2022-10-15 15:04:42</time>
      </trkpt>
      <trkpt lat="38.4661" lon="-0.80638">
        <ele>346.8</ele>
        <time>2022-10-15 15:04:43</time>
      </trkpt>
      <trkpt lat="38.46604" lon="-0.80645">
        <ele>346.8</ele>
        <time>2022-10-15 15:04:44</time>
      </trkpt>
      <trkpt lat="38.46601" lon="-0.80647">
        <ele>346.8</ele>
        <time>2022-10-15 15:04:45</time>
      </trkpt>
      <trkpt lat="38.46598" lon="-0.80649">
        <ele>346.6</ele>
        <time>2022-10-15 15:04:46</time>
      </trkpt>
      <trkpt lat="38.46595" lon="-0.80651">
        <ele>346.8</ele>
        <time>2022-10-15 15:04:47</time>
      </trkpt>
      <trkpt lat="38.46593" lon="-0.80652">
        <ele>346.8</ele>
        <time>2022-10-15 15:04:48</time>
      </trkpt>
      <trkpt lat="38.46593" lon="-0.80652">
        <ele>346.8</ele>
        <time>2022-10-15 15:04:49</time>
      </trkpt>
      <trkpt lat="38.46588" lon="-0.80656">
        <ele>346.8</ele>
        <time>2022-10-15 15:04:50</time>
      </trkpt>
      <trkpt lat="38.46587" lon="-0.80659">
        <ele>346.8</ele>
        <time>2022-10-15 15:04:51</time>
      </trkpt>
      <trkpt lat="38.46585" lon="-0.80661">
        <ele>347</ele>
        <time>2022-10-15 15:04:52</time>
      </trkpt>
      <trkpt lat="38.46583" lon="-0.80663">
        <ele>347</ele>
        <time>2022-10-15 15:04:53</time>
      </trkpt>
      <trkpt lat="38.46581" lon="-0.80666">
        <ele>347</ele>
        <time>2022-10-15 15:04:54</time>
      </trkpt>
      <trkpt lat="38.46581" lon="-0.80666">
        <ele>347</ele>
        <time>2022-10-15 15:04:55</time>
      </trkpt>
      <trkpt lat="38.46578" lon="-0.8067">
        <ele>347.2</ele>
        <time>2022-10-15 15:04:56</time>
      </trkpt>
      <trkpt lat="38.46576" lon="-0.80671">
        <ele>347.2</ele>
        <time>2022-10-15 15:04:57</time>
      </trkpt>
      <trkpt lat="38.46574" lon="-0.80673">
        <ele>347.2</ele>
        <time>2022-10-15 15:04:58</time>
      </trkpt>
      <trkpt lat="38.46572" lon="-0.80674">
        <ele>347.2</ele>
        <time>2022-10-15 15:04:59</time>
      </trkpt>
      <trkpt lat="38.4657" lon="-0.80674">
        <ele>347.2</ele>
        <time>2022-10-15 15:05:00</time>
      </trkpt>
      <trkpt lat="38.46567" lon="-0.80673">
        <ele>347.4</ele>
        <time>2022-10-15 15:05:01</time>
      </trkpt>
      <trkpt lat="38.46565" lon="-0.80671">
        <ele>347.4</ele>
        <time>2022-10-15 15:05:02</time>
      </trkpt>
      <trkpt lat="38.46562" lon="-0.8067">
        <ele>347.6</ele>
        <time>2022-10-15 15:05:03</time>
      </trkpt>
      <trkpt lat="38.4656" lon="-0.80669">
        <ele>347.6</ele>
        <time>2022-10-15 15:05:04</time>
      </trkpt>
      <trkpt lat="38.46557" lon="-0.80668">
        <ele>347.6</ele>
        <time>2022-10-15 15:05:05</time>
      </trkpt>
      <trkpt lat="38.46554" lon="-0.80667">
        <ele>347.6</ele>
        <time>2022-10-15 15:05:06</time>
      </trkpt>
      <trkpt lat="38.46551" lon="-0.80666">
        <ele>347.6</ele>
        <time>2022-10-15 15:05:07</time>
      </trkpt>
      <trkpt lat="38.46548" lon="-0.80665">
        <ele>347.8</ele>
        <time>2022-10-15 15:05:08</time>
      </trkpt>
      <trkpt lat="38.46546" lon="-0.80665">
        <ele>347.8</ele>
        <time>2022-10-15 15:05:09</time>
      </trkpt>
      <trkpt lat="38.46543" lon="-0.80665">
        <ele>347.8</ele>
        <time>2022-10-15 15:05:10</time>
      </trkpt>
      <trkpt lat="38.4654" lon="-0.80667">
        <ele>347.8</ele>
        <time>2022-10-15 15:05:11</time>
      </trkpt>
      <trkpt lat="38.46537" lon="-0.80668">
        <ele>347.8</ele>
        <time>2022-10-15 15:05:12</time>
      </trkpt>
      <trkpt lat="38.46537" lon="-0.80668">
        <ele>347.8</ele>
        <time>2022-10-15 15:05:13</time>
      </trkpt>
      <trkpt lat="38.46531" lon="-0.80672">
        <ele>347.8</ele>
        <time>2022-10-15 15:05:14</time>
      </trkpt>
      <trkpt lat="38.46528" lon="-0.80674">
        <ele>347.8</ele>
        <time>2022-10-15 15:05:15</time>
      </trkpt>
      <trkpt lat="38.46524" lon="-0.80676">
        <ele>347.6</ele>
        <time>2022-10-15 15:05:16</time>
      </trkpt>
      <trkpt lat="38.46521" lon="-0.80678">
        <ele>347.4</ele>
        <time>2022-10-15 15:05:17</time>
      </trkpt>
      <trkpt lat="38.46519" lon="-0.80681">
        <ele>347.4</ele>
        <time>2022-10-15 15:05:18</time>
      </trkpt>
      <trkpt lat="38.46519" lon="-0.80681">
        <ele>347.2</ele>
        <time>2022-10-15 15:05:19</time>
      </trkpt>
      <trkpt lat="38.46513" lon="-0.80686">
        <ele>347</ele>
        <time>2022-10-15 15:05:20</time>
      </trkpt>
      <trkpt lat="38.46511" lon="-0.80688">
        <ele>347</ele>
        <time>2022-10-15 15:05:21</time>
      </trkpt>
      <trkpt lat="38.46508" lon="-0.8069">
        <ele>346.8</ele>
        <time>2022-10-15 15:05:22</time>
      </trkpt>
      <trkpt lat="38.46505" lon="-0.80693">
        <ele>346.8</ele>
        <time>2022-10-15 15:05:23</time>
      </trkpt>
      <trkpt lat="38.46502" lon="-0.80695">
        <ele>346.8</ele>
        <time>2022-10-15 15:05:24</time>
      </trkpt>
      <trkpt lat="38.46502" lon="-0.80695">
        <ele>346.8</ele>
        <time>2022-10-15 15:05:25</time>
      </trkpt>
      <trkpt lat="38.46496" lon="-0.807">
        <ele>346.8</ele>
        <time>2022-10-15 15:05:26</time>
      </trkpt>
      <trkpt lat="38.46493" lon="-0.80703">
        <ele>346.8</ele>
        <time>2022-10-15 15:05:27</time>
      </trkpt>
      <trkpt lat="38.4649" lon="-0.80705">
        <ele>346.8</ele>
        <time>2022-10-15 15:05:28</time>
      </trkpt>
      <trkpt lat="38.46487" lon="-0.80707">
        <ele>346.8</ele>
        <time>2022-10-15 15:05:29</time>
      </trkpt>
      <trkpt lat="38.46484" lon="-0.80709">
        <ele>346.8</ele>
        <time>2022-10-15 15:05:30</time>
      </trkpt>
      <trkpt lat="38.46484" lon="-0.80709">
        <ele>346.8</ele>
        <time>2022-10-15 15:05:31</time>
      </trkpt>
      <trkpt lat="38.46479" lon="-0.80713">
        <ele>346.8</ele>
        <time>2022-10-15 15:05:32</time>
      </trkpt>
      <trkpt lat="38.46476" lon="-0.80714">
        <ele>346.8</ele>
        <time>2022-10-15 15:05:33</time>
      </trkpt>
      <trkpt lat="38.46473" lon="-0.80715">
        <ele>346.8</ele>
        <time>2022-10-15 15:05:34</time>
      </trkpt>
      <trkpt lat="38.46471" lon="-0.80716">
        <ele>346.8</ele>
        <time>2022-10-15 15:05:35</time>
      </trkpt>
      <trkpt lat="38.46469" lon="-0.80716">
        <ele>346.6</ele>
        <time>2022-10-15 15:05:36</time>
      </trkpt>
      <trkpt lat="38.46469" lon="-0.80716">
        <ele>346.6</ele>
        <time>2022-10-15 15:05:37</time>
      </trkpt>
      <trkpt lat="38.46462" lon="-0.80717">
        <ele>346.6</ele>
        <time>2022-10-15 15:05:38</time>
      </trkpt>
      <trkpt lat="38.46459" lon="-0.80717">
        <ele>346.6</ele>
        <time>2022-10-15 15:05:39</time>
      </trkpt>
      <trkpt lat="38.46455" lon="-0.80718">
        <ele>346.6</ele>
        <time>2022-10-15 15:05:40</time>
      </trkpt>
      <trkpt lat="38.46451" lon="-0.80718">
        <ele>346.6</ele>
        <time>2022-10-15 15:05:41</time>
      </trkpt>
      <trkpt lat="38.46448" lon="-0.80719">
        <ele>346.6</ele>
        <time>2022-10-15 15:05:42</time>
      </trkpt>
      <trkpt lat="38.46448" lon="-0.80719">
        <ele>346.4</ele>
        <time>2022-10-15 15:05:43</time>
      </trkpt>
      <trkpt lat="38.46443" lon="-0.80722">
        <ele>346.2</ele>
        <time>2022-10-15 15:05:44</time>
      </trkpt>
      <trkpt lat="38.46441" lon="-0.80723">
        <ele>345.8</ele>
        <time>2022-10-15 15:05:45</time>
      </trkpt>
      <trkpt lat="38.46438" lon="-0.80724">
        <ele>345.6</ele>
        <time>2022-10-15 15:05:46</time>
      </trkpt>
      <trkpt lat="38.46434" lon="-0.80725">
        <ele>345.6</ele>
        <time>2022-10-15 15:05:47</time>
      </trkpt>
      <trkpt lat="38.46431" lon="-0.80726">
        <ele>345.4</ele>
        <time>2022-10-15 15:05:48</time>
      </trkpt>
      <trkpt lat="38.46428" lon="-0.80727">
        <ele>345.4</ele>
        <time>2022-10-15 15:05:49</time>
      </trkpt>
      <trkpt lat="38.46424" lon="-0.80728">
        <ele>345.4</ele>
        <time>2022-10-15 15:05:50</time>
      </trkpt>
      <trkpt lat="38.4642" lon="-0.80728">
        <ele>345.2</ele>
        <time>2022-10-15 15:05:51</time>
      </trkpt>
      <trkpt lat="38.46416" lon="-0.80729">
        <ele>345.2</ele>
        <time>2022-10-15 15:05:52</time>
      </trkpt>
      <trkpt lat="38.46413" lon="-0.80729">
        <ele>345.4</ele>
        <time>2022-10-15 15:05:53</time>
      </trkpt>
      <trkpt lat="38.46409" lon="-0.8073">
        <ele>345.4</ele>
        <time>2022-10-15 15:05:54</time>
      </trkpt>
      <trkpt lat="38.46409" lon="-0.8073">
        <ele>345.2</ele>
        <time>2022-10-15 15:05:55</time>
      </trkpt>
      <trkpt lat="38.46402" lon="-0.80732">
        <ele>345.2</ele>
        <time>2022-10-15 15:05:56</time>
      </trkpt>
      <trkpt lat="38.46398" lon="-0.80734">
        <ele>345.2</ele>
        <time>2022-10-15 15:05:57</time>
      </trkpt>
      <trkpt lat="38.46394" lon="-0.80735">
        <ele>345.2</ele>
        <time>2022-10-15 15:05:58</time>
      </trkpt>
      <trkpt lat="38.4639" lon="-0.80735">
        <ele>345.2</ele>
        <time>2022-10-15 15:05:59</time>
      </trkpt>
      <trkpt lat="38.46387" lon="-0.80735">
        <ele>345.4</ele>
        <time>2022-10-15 15:06:00</time>
      </trkpt>
      <trkpt lat="38.46387" lon="-0.80735">
        <ele>345.4</ele>
        <time>2022-10-15 15:06:01</time>
      </trkpt>
      <trkpt lat="38.46381" lon="-0.80734">
        <ele>345.4</ele>
        <time>2022-10-15 15:06:02</time>
      </trkpt>
      <trkpt lat="38.46378" lon="-0.80734">
        <ele>345.4</ele>
        <time>2022-10-15 15:06:03</time>
      </trkpt>
      <trkpt lat="38.46375" lon="-0.80734">
        <ele>345.4</ele>
        <time>2022-10-15 15:06:04</time>
      </trkpt>
      <trkpt lat="38.46373" lon="-0.80735">
        <ele>345.4</ele>
        <time>2022-10-15 15:06:05</time>
      </trkpt>
      <trkpt lat="38.4637" lon="-0.80735">
        <ele>345.4</ele>
        <time>2022-10-15 15:06:06</time>
      </trkpt>
      <trkpt lat="38.4637" lon="-0.80735">
        <ele>345.4</ele>
        <time>2022-10-15 15:06:07</time>
      </trkpt>
      <trkpt lat="38.46365" lon="-0.80737">
        <ele>345.4</ele>
        <time>2022-10-15 15:06:08</time>
      </trkpt>
      <trkpt lat="38.46362" lon="-0.80737">
        <ele>345.4</ele>
        <time>2022-10-15 15:06:09</time>
      </trkpt>
      <trkpt lat="38.4636" lon="-0.80737">
        <ele>345.4</ele>
        <time>2022-10-15 15:06:10</time>
      </trkpt>
      <trkpt lat="38.46358" lon="-0.80738">
        <ele>345.4</ele>
        <time>2022-10-15 15:06:11</time>
      </trkpt>
      <trkpt lat="38.46356" lon="-0.80738">
        <ele>345.8</ele>
        <time>2022-10-15 15:06:12</time>
      </trkpt>
      <trkpt lat="38.46356" lon="-0.80738">
        <ele>346</ele>
        <time>2022-10-15 15:06:13</time>
      </trkpt>
      <trkpt lat="38.46352" lon="-0.80741">
        <ele>346</ele>
        <time>2022-10-15 15:06:14</time>
      </trkpt>
      <trkpt lat="38.4635" lon="-0.80743">
        <ele>346</ele>
        <time>2022-10-15 15:06:15</time>
      </trkpt>
      <trkpt lat="38.46347" lon="-0.80743">
        <ele>346</ele>
        <time>2022-10-15 15:06:16</time>
      </trkpt>
      <trkpt lat="38.46345" lon="-0.80742">
        <ele>346</ele>
        <time>2022-10-15 15:06:17</time>
      </trkpt>
      <trkpt lat="38.46343" lon="-0.80741">
        <ele>346</ele>
        <time>2022-10-15 15:06:18</time>
      </trkpt>
      <trkpt lat="38.46343" lon="-0.80741">
        <ele>346</ele>
        <time>2022-10-15 15:06:19</time>
      </trkpt>
      <trkpt lat="38.4634" lon="-0.8074">
        <ele>345.8</ele>
        <time>2022-10-15 15:06:20</time>
      </trkpt>
      <trkpt lat="38.46339" lon="-0.8074">
        <ele>345.8</ele>
        <time>2022-10-15 15:06:21</time>
      </trkpt>
      <trkpt lat="38.46338" lon="-0.80739">
        <ele>345.6</ele>
        <time>2022-10-15 15:06:22</time>
      </trkpt>
      <trkpt lat="38.46336" lon="-0.80738">
        <ele>345.6</ele>
        <time>2022-10-15 15:06:23</time>
      </trkpt>
      <trkpt lat="38.46335" lon="-0.80737">
        <ele>345.4</ele>
        <time>2022-10-15 15:06:24</time>
      </trkpt>
      <trkpt lat="38.46335" lon="-0.80737">
        <ele>345.4</ele>
        <time>2022-10-15 15:06:25</time>
      </trkpt>
      <trkpt lat="38.46332" lon="-0.80734">
        <ele>345.4</ele>
        <time>2022-10-15 15:06:26</time>
      </trkpt>
      <trkpt lat="38.46331" lon="-0.80732">
        <ele>345.4</ele>
        <time>2022-10-15 15:06:28</time>
      </trkpt>
      <trkpt lat="38.4633" lon="-0.80731">
        <ele>345.4</ele>
        <time>2022-10-15 15:06:29</time>
      </trkpt>
      <trkpt lat="38.4633" lon="-0.8073">
        <ele>345.4</ele>
        <time>2022-10-15 15:06:30</time>
      </trkpt>
      <trkpt lat="38.46329" lon="-0.80729">
        <ele>345.2</ele>
        <time>2022-10-15 15:06:31</time>
      </trkpt>
      <trkpt lat="38.46329" lon="-0.80729">
        <ele>345.2</ele>
        <time>2022-10-15 15:06:32</time>
      </trkpt>
      <trkpt lat="38.46314" lon="-0.80722">
        <ele>340.6</ele>
        <time>2022-10-15 15:07:34</time>
      </trkpt>
      <trkpt lat="38.46311" lon="-0.80722">
        <ele>340.6</ele>
        <time>2022-10-15 15:07:35</time>
      </trkpt>
      <trkpt lat="38.46309" lon="-0.80722">
        <ele>340.6</ele>
        <time>2022-10-15 15:07:36</time>
      </trkpt>
      <trkpt lat="38.46306" lon="-0.80721">
        <ele>340.6</ele>
        <time>2022-10-15 15:07:37</time>
      </trkpt>
      <trkpt lat="38.46306" lon="-0.80721">
        <ele>340.6</ele>
        <time>2022-10-15 15:07:38</time>
      </trkpt>
      <trkpt lat="38.463" lon="-0.80718">
        <ele>340.8</ele>
        <time>2022-10-15 15:07:39</time>
      </trkpt>
      <trkpt lat="38.46297" lon="-0.80718">
        <ele>340.6</ele>
        <time>2022-10-15 15:07:40</time>
      </trkpt>
      <trkpt lat="38.46293" lon="-0.80717">
        <ele>340.4</ele>
        <time>2022-10-15 15:07:41</time>
      </trkpt>
      <trkpt lat="38.46289" lon="-0.80715">
        <ele>340.2</ele>
        <time>2022-10-15 15:07:42</time>
      </trkpt>
      <trkpt lat="38.46284" lon="-0.80714">
        <ele>340</ele>
        <time>2022-10-15 15:07:43</time>
      </trkpt>
      <trkpt lat="38.46279" lon="-0.80713">
        <ele>339.6</ele>
        <time>2022-10-15 15:07:44</time>
      </trkpt>
      <trkpt lat="38.46275" lon="-0.80712">
        <ele>339.4</ele>
        <time>2022-10-15 15:07:45</time>
      </trkpt>
      <trkpt lat="38.4627" lon="-0.80711">
        <ele>339.2</ele>
        <time>2022-10-15 15:07:46</time>
      </trkpt>
      <trkpt lat="38.46266" lon="-0.80709">
        <ele>339.2</ele>
        <time>2022-10-15 15:07:47</time>
      </trkpt>
      <trkpt lat="38.46261" lon="-0.80707">
        <ele>339</ele>
        <time>2022-10-15 15:07:48</time>
      </trkpt>
      <trkpt lat="38.46256" lon="-0.80706">
        <ele>338.8</ele>
        <time>2022-10-15 15:07:50</time>
      </trkpt>
      <trkpt lat="38.46247" lon="-0.80703">
        <ele>338.8</ele>
        <time>2022-10-15 15:07:51</time>
      </trkpt>
      <trkpt lat="38.46243" lon="-0.80702">
        <ele>338.6</ele>
        <time>2022-10-15 15:07:52</time>
      </trkpt>
      <trkpt lat="38.46239" lon="-0.80701">
        <ele>338.6</ele>
        <time>2022-10-15 15:07:53</time>
      </trkpt>
      <trkpt lat="38.46236" lon="-0.80699">
        <ele>338.6</ele>
        <time>2022-10-15 15:07:54</time>
      </trkpt>
      <trkpt lat="38.46232" lon="-0.80699">
        <ele>338.4</ele>
        <time>2022-10-15 15:07:56</time>
      </trkpt>
      <trkpt lat="38.46225" lon="-0.80698">
        <ele>338.4</ele>
        <time>2022-10-15 15:07:57</time>
      </trkpt>
      <trkpt lat="38.46217" lon="-0.80698">
        <ele>338.4</ele>
        <time>2022-10-15 15:07:59</time>
      </trkpt>
      <trkpt lat="38.46213" lon="-0.80699">
        <ele>338.4</ele>
        <time>2022-10-15 15:08:00</time>
      </trkpt>
      <trkpt lat="38.46209" lon="-0.807">
        <ele>338.4</ele>
        <time>2022-10-15 15:08:02</time>
      </trkpt>
      <trkpt lat="38.462" lon="-0.80707">
        <ele>338.6</ele>
        <time>2022-10-15 15:08:04</time>
      </trkpt>
      <trkpt lat="38.46196" lon="-0.8071">
        <ele>338.6</ele>
        <time>2022-10-15 15:08:05</time>
      </trkpt>
      <trkpt lat="38.46192" lon="-0.80713">
        <ele>338.8</ele>
        <time>2022-10-15 15:08:06</time>
      </trkpt>
      <trkpt lat="38.46187" lon="-0.80717">
        <ele>338.8</ele>
        <time>2022-10-15 15:08:07</time>
      </trkpt>
      <trkpt lat="38.46187" lon="-0.80717">
        <ele>338.8</ele>
        <time>2022-10-15 15:08:08</time>
      </trkpt>
      <trkpt lat="38.46177" lon="-0.80723">
        <ele>338.8</ele>
        <time>2022-10-15 15:08:09</time>
      </trkpt>
      <trkpt lat="38.46172" lon="-0.80727">
        <ele>338.8</ele>
        <time>2022-10-15 15:08:10</time>
      </trkpt>
      <trkpt lat="38.46167" lon="-0.8073">
        <ele>338.8</ele>
        <time>2022-10-15 15:08:11</time>
      </trkpt>
      <trkpt lat="38.46162" lon="-0.80733">
        <ele>338.8</ele>
        <time>2022-10-15 15:08:12</time>
      </trkpt>
      <trkpt lat="38.46158" lon="-0.80736">
        <ele>338.8</ele>
        <time>2022-10-15 15:08:13</time>
      </trkpt>
      <trkpt lat="38.46158" lon="-0.80736">
        <ele>338.8</ele>
        <time>2022-10-15 15:08:14</time>
      </trkpt>
      <trkpt lat="38.46149" lon="-0.80742">
        <ele>338.8</ele>
        <time>2022-10-15 15:08:15</time>
      </trkpt>
      <trkpt lat="38.46145" lon="-0.80744">
        <ele>339</ele>
        <time>2022-10-15 15:08:16</time>
      </trkpt>
      <trkpt lat="38.46141" lon="-0.80747">
        <ele>339</ele>
        <time>2022-10-15 15:08:17</time>
      </trkpt>
      <trkpt lat="38.46138" lon="-0.80749">
        <ele>339</ele>
        <time>2022-10-15 15:08:18</time>
      </trkpt>
      <trkpt lat="38.46134" lon="-0.80752">
        <ele>339.2</ele>
        <time>2022-10-15 15:08:19</time>
      </trkpt>
      <trkpt lat="38.46134" lon="-0.80752">
        <ele>339.2</ele>
        <time>2022-10-15 15:08:20</time>
      </trkpt>
      <trkpt lat="38.46128" lon="-0.80758">
        <ele>339.2</ele>
        <time>2022-10-15 15:08:21</time>
      </trkpt>
      <trkpt lat="38.46126" lon="-0.80762">
        <ele>339.2</ele>
        <time>2022-10-15 15:08:22</time>
      </trkpt>
      <trkpt lat="38.46123" lon="-0.80765">
        <ele>339.2</ele>
        <time>2022-10-15 15:08:23</time>
      </trkpt>
      <trkpt lat="38.46121" lon="-0.80768">
        <ele>339.2</ele>
        <time>2022-10-15 15:08:24</time>
      </trkpt>
      <trkpt lat="38.46119" lon="-0.80771">
        <ele>339.2</ele>
        <time>2022-10-15 15:08:25</time>
      </trkpt>
      <trkpt lat="38.46119" lon="-0.80771">
        <ele>339.2</ele>
        <time>2022-10-15 15:08:26</time>
      </trkpt>
      <trkpt lat="38.46116" lon="-0.80777">
        <ele>339.2</ele>
        <time>2022-10-15 15:08:27</time>
      </trkpt>
      <trkpt lat="38.46115" lon="-0.80779">
        <ele>339.2</ele>
        <time>2022-10-15 15:08:28</time>
      </trkpt>
      <trkpt lat="38.46113" lon="-0.80782">
        <ele>339.2</ele>
        <time>2022-10-15 15:08:29</time>
      </trkpt>
      <trkpt lat="38.46113" lon="-0.80786">
        <ele>339.4</ele>
        <time>2022-10-15 15:08:30</time>
      </trkpt>
      <trkpt lat="38.46112" lon="-0.80791">
        <ele>339.4</ele>
        <time>2022-10-15 15:08:31</time>
      </trkpt>
      <trkpt lat="38.46112" lon="-0.80791">
        <ele>339.4</ele>
        <time>2022-10-15 15:08:32</time>
      </trkpt>
      <trkpt lat="38.46111" lon="-0.80803">
        <ele>339.4</ele>
        <time>2022-10-15 15:08:33</time>
      </trkpt>
      <trkpt lat="38.4611" lon="-0.8081">
        <ele>339.4</ele>
        <time>2022-10-15 15:08:34</time>
      </trkpt>
      <trkpt lat="38.46109" lon="-0.80817">
        <ele>339.4</ele>
        <time>2022-10-15 15:08:35</time>
      </trkpt>
      <trkpt lat="38.46107" lon="-0.80824">
        <ele>339.4</ele>
        <time>2022-10-15 15:08:36</time>
      </trkpt>
      <trkpt lat="38.46106" lon="-0.80831">
        <ele>339.4</ele>
        <time>2022-10-15 15:08:37</time>
      </trkpt>
      <trkpt lat="38.46106" lon="-0.80831">
        <ele>339.2</ele>
        <time>2022-10-15 15:08:38</time>
      </trkpt>
      <trkpt lat="38.46103" lon="-0.80845">
        <ele>339.2</ele>
        <time>2022-10-15 15:08:39</time>
      </trkpt>
      <trkpt lat="38.46102" lon="-0.80852">
        <ele>339.2</ele>
        <time>2022-10-15 15:08:40</time>
      </trkpt>
      <trkpt lat="38.46101" lon="-0.80858">
        <ele>339.2</ele>
        <time>2022-10-15 15:08:41</time>
      </trkpt>
      <trkpt lat="38.461" lon="-0.80865">
        <ele>339.2</ele>
        <time>2022-10-15 15:08:42</time>
      </trkpt>
      <trkpt lat="38.46099" lon="-0.80872">
        <ele>339.2</ele>
        <time>2022-10-15 15:08:43</time>
      </trkpt>
      <trkpt lat="38.46099" lon="-0.80872">
        <ele>339.2</ele>
        <time>2022-10-15 15:08:44</time>
      </trkpt>
      <trkpt lat="38.46097" lon="-0.80887">
        <ele>339.2</ele>
        <time>2022-10-15 15:08:45</time>
      </trkpt>
      <trkpt lat="38.46096" lon="-0.80894">
        <ele>339.4</ele>
        <time>2022-10-15 15:08:46</time>
      </trkpt>
      <trkpt lat="38.46094" lon="-0.80901">
        <ele>339.4</ele>
        <time>2022-10-15 15:08:47</time>
      </trkpt>
      <trkpt lat="38.46091" lon="-0.80907">
        <ele>339.4</ele>
        <time>2022-10-15 15:08:48</time>
      </trkpt>
      <trkpt lat="38.46088" lon="-0.80913">
        <ele>339.6</ele>
        <time>2022-10-15 15:08:49</time>
      </trkpt>
      <trkpt lat="38.46088" lon="-0.80913">
        <ele>339.8</ele>
        <time>2022-10-15 15:08:50</time>
      </trkpt>
      <trkpt lat="38.46078" lon="-0.80918">
        <ele>340.4</ele>
        <time>2022-10-15 15:08:51</time>
      </trkpt>
      <trkpt lat="38.46072" lon="-0.80917">
        <ele>340.6</ele>
        <time>2022-10-15 15:08:52</time>
      </trkpt>
      <trkpt lat="38.46066" lon="-0.80916">
        <ele>340.8</ele>
        <time>2022-10-15 15:08:53</time>
      </trkpt>
      <trkpt lat="38.46059" lon="-0.80915">
        <ele>341</ele>
        <time>2022-10-15 15:08:54</time>
      </trkpt>
      <trkpt lat="38.46053" lon="-0.80915">
        <ele>341</ele>
        <time>2022-10-15 15:08:55</time>
      </trkpt>
      <trkpt lat="38.46053" lon="-0.80915">
        <ele>341</ele>
        <time>2022-10-15 15:08:56</time>
      </trkpt>
      <trkpt lat="38.46039" lon="-0.80913">
        <ele>341.2</ele>
        <time>2022-10-15 15:08:57</time>
      </trkpt>
      <trkpt lat="38.46033" lon="-0.80912">
        <ele>341.2</ele>
        <time>2022-10-15 15:08:58</time>
      </trkpt>
      <trkpt lat="38.46027" lon="-0.80911">
        <ele>341.2</ele>
        <time>2022-10-15 15:08:59</time>
      </trkpt>
      <trkpt lat="38.4602" lon="-0.8091">
        <ele>341.2</ele>
        <time>2022-10-15 15:09:00</time>
      </trkpt>
      <trkpt lat="38.46015" lon="-0.8091">
        <ele>341.2</ele>
        <time>2022-10-15 15:09:01</time>
      </trkpt>
      <trkpt lat="38.46015" lon="-0.8091">
        <ele>341.2</ele>
        <time>2022-10-15 15:09:02</time>
      </trkpt>
      <trkpt lat="38.46003" lon="-0.80909">
        <ele>341.2</ele>
        <time>2022-10-15 15:09:03</time>
      </trkpt>
      <trkpt lat="38.45998" lon="-0.80908">
        <ele>341.2</ele>
        <time>2022-10-15 15:09:04</time>
      </trkpt>
      <trkpt lat="38.45992" lon="-0.80907">
        <ele>341</ele>
        <time>2022-10-15 15:09:05</time>
      </trkpt>
      <trkpt lat="38.45986" lon="-0.80907">
        <ele>341</ele>
        <time>2022-10-15 15:09:06</time>
      </trkpt>
      <trkpt lat="38.4598" lon="-0.80907">
        <ele>341</ele>
        <time>2022-10-15 15:09:07</time>
      </trkpt>
      <trkpt lat="38.4598" lon="-0.80907">
        <ele>341</ele>
        <time>2022-10-15 15:09:08</time>
      </trkpt>
      <trkpt lat="38.45968" lon="-0.80907">
        <ele>341</ele>
        <time>2022-10-15 15:09:09</time>
      </trkpt>
      <trkpt lat="38.45962" lon="-0.80908">
        <ele>341</ele>
        <time>2022-10-15 15:09:10</time>
      </trkpt>
      <trkpt lat="38.45956" lon="-0.80909">
        <ele>341</ele>
        <time>2022-10-15 15:09:11</time>
      </trkpt>
      <trkpt lat="38.45951" lon="-0.8091">
        <ele>340.8</ele>
        <time>2022-10-15 15:09:12</time>
      </trkpt>
      <trkpt lat="38.45945" lon="-0.80912">
        <ele>340.6</ele>
        <time>2022-10-15 15:09:13</time>
      </trkpt>
      <trkpt lat="38.45945" lon="-0.80912">
        <ele>340.6</ele>
        <time>2022-10-15 15:09:14</time>
      </trkpt>
      <trkpt lat="38.45936" lon="-0.8092">
        <ele>340.6</ele>
        <time>2022-10-15 15:09:15</time>
      </trkpt>
      <trkpt lat="38.45934" lon="-0.80926">
        <ele>340.6</ele>
        <time>2022-10-15 15:09:16</time>
      </trkpt>
      <trkpt lat="38.45934" lon="-0.80933">
        <ele>340.6</ele>
        <time>2022-10-15 15:09:17</time>
      </trkpt>
      <trkpt lat="38.45935" lon="-0.8094">
        <ele>340.6</ele>
        <time>2022-10-15 15:09:18</time>
      </trkpt>
      <trkpt lat="38.45936" lon="-0.80947">
        <ele>340.6</ele>
        <time>2022-10-15 15:09:19</time>
      </trkpt>
      <trkpt lat="38.45936" lon="-0.80947">
        <ele>340.6</ele>
        <time>2022-10-15 15:09:20</time>
      </trkpt>
      <trkpt lat="38.45938" lon="-0.80962">
        <ele>340.6</ele>
        <time>2022-10-15 15:09:21</time>
      </trkpt>
      <trkpt lat="38.45939" lon="-0.8097">
        <ele>340.6</ele>
        <time>2022-10-15 15:09:22</time>
      </trkpt>
      <trkpt lat="38.4594" lon="-0.80977">
        <ele>340.6</ele>
        <time>2022-10-15 15:09:23</time>
      </trkpt>
      <trkpt lat="38.45941" lon="-0.80984">
        <ele>340.6</ele>
        <time>2022-10-15 15:09:24</time>
      </trkpt>
      <trkpt lat="38.45942" lon="-0.80992">
        <ele>341</ele>
        <time>2022-10-15 15:09:25</time>
      </trkpt>
      <trkpt lat="38.45942" lon="-0.80992">
        <ele>341</ele>
        <time>2022-10-15 15:09:26</time>
      </trkpt>
      <trkpt lat="38.45943" lon="-0.81011">
        <ele>341.2</ele>
        <time>2022-10-15 15:09:28</time>
      </trkpt>
      <trkpt lat="38.45944" lon="-0.81017">
        <ele>341.2</ele>
        <time>2022-10-15 15:09:29</time>
      </trkpt>
      <trkpt lat="38.45944" lon="-0.81022">
        <ele>341.2</ele>
        <time>2022-10-15 15:09:30</time>
      </trkpt>
      <trkpt lat="38.45944" lon="-0.81028">
        <ele>341.2</ele>
        <time>2022-10-15 15:09:31</time>
      </trkpt>
      <trkpt lat="38.45944" lon="-0.81028">
        <ele>341.4</ele>
        <time>2022-10-15 15:09:32</time>
      </trkpt>
      <trkpt lat="38.45945" lon="-0.81038">
        <ele>341.6</ele>
        <time>2022-10-15 15:09:33</time>
      </trkpt>
      <trkpt lat="38.45945" lon="-0.81041">
        <ele>341.6</ele>
        <time>2022-10-15 15:09:34</time>
      </trkpt>
      <trkpt lat="38.45946" lon="-0.81045">
        <ele>341.6</ele>
        <time>2022-10-15 15:09:35</time>
      </trkpt>
      <trkpt lat="38.45946" lon="-0.81048">
        <ele>341.8</ele>
        <time>2022-10-15 15:09:36</time>
      </trkpt>
      <trkpt lat="38.45947" lon="-0.81051">
        <ele>342</ele>
        <time>2022-10-15 15:09:37</time>
      </trkpt>
      <trkpt lat="38.45947" lon="-0.81051">
        <ele>342.2</ele>
        <time>2022-10-15 15:09:38</time>
      </trkpt>
      <trkpt lat="38.45947" lon="-0.81056">
        <ele>342.4</ele>
        <time>2022-10-15 15:09:39</time>
      </trkpt>
      <trkpt lat="38.45947" lon="-0.81059">
        <ele>342.6</ele>
        <time>2022-10-15 15:09:40</time>
      </trkpt>
      <trkpt lat="38.45946" lon="-0.8106">
        <ele>343</ele>
        <time>2022-10-15 15:09:41</time>
      </trkpt>
      <trkpt lat="38.45945" lon="-0.81061">
        <ele>343.2</ele>
        <time>2022-10-15 15:09:42</time>
      </trkpt>
      <trkpt lat="38.45944" lon="-0.81061">
        <ele>343.4</ele>
        <time>2022-10-15 15:09:43</time>
      </trkpt>
      <trkpt lat="38.45944" lon="-0.81061">
        <ele>343.8</ele>
        <time>2022-10-15 15:09:44</time>
      </trkpt>
      <trkpt lat="38.45944" lon="-0.81061">
        <ele>344</ele>
        <time>2022-10-15 15:09:45</time>
      </trkpt>
      <trkpt lat="38.45944" lon="-0.81061">
        <ele>344.2</ele>
        <time>2022-10-15 15:09:46</time>
      </trkpt>
      <trkpt lat="38.45944" lon="-0.81056">
        <ele>345.2</ele>
        <time>2022-10-15 15:10:20</time>
      </trkpt>
      <trkpt lat="38.45944" lon="-0.81051">
        <ele>345.2</ele>
        <time>2022-10-15 15:10:21</time>
      </trkpt>
      <trkpt lat="38.45944" lon="-0.81048">
        <ele>345.2</ele>
        <time>2022-10-15 15:10:22</time>
      </trkpt>
      <trkpt lat="38.45944" lon="-0.81045">
        <ele>345.2</ele>
        <time>2022-10-15 15:10:23</time>
      </trkpt>
      <trkpt lat="38.45944" lon="-0.81042">
        <ele>345.2</ele>
        <time>2022-10-15 15:10:24</time>
      </trkpt>
      <trkpt lat="38.45944" lon="-0.81038">
        <ele>345.2</ele>
        <time>2022-10-15 15:10:25</time>
      </trkpt>
      <trkpt lat="38.45944" lon="-0.81038">
        <ele>345.2</ele>
        <time>2022-10-15 15:10:26</time>
      </trkpt>
      <trkpt lat="38.45944" lon="-0.8103">
        <ele>345</ele>
        <time>2022-10-15 15:10:27</time>
      </trkpt>
      <trkpt lat="38.45943" lon="-0.81025">
        <ele>345.2</ele>
        <time>2022-10-15 15:10:28</time>
      </trkpt>
      <trkpt lat="38.45943" lon="-0.81021">
        <ele>345</ele>
        <time>2022-10-15 15:10:29</time>
      </trkpt>
      <trkpt lat="38.45943" lon="-0.81016">
        <ele>344.8</ele>
        <time>2022-10-15 15:10:30</time>
      </trkpt>
      <trkpt lat="38.45943" lon="-0.81011">
        <ele>344.6</ele>
        <time>2022-10-15 15:10:31</time>
      </trkpt>
      <trkpt lat="38.45943" lon="-0.81011">
        <ele>344.4</ele>
        <time>2022-10-15 15:10:32</time>
      </trkpt>
      <trkpt lat="38.45943" lon="-0.81001">
        <ele>344.2</ele>
        <time>2022-10-15 15:10:33</time>
      </trkpt>
      <trkpt lat="38.45943" lon="-0.80996">
        <ele>344</ele>
        <time>2022-10-15 15:10:34</time>
      </trkpt>
      <trkpt lat="38.45943" lon="-0.80991">
        <ele>343.8</ele>
        <time>2022-10-15 15:10:35</time>
      </trkpt>
      <trkpt lat="38.45942" lon="-0.80987">
        <ele>343.4</ele>
        <time>2022-10-15 15:10:36</time>
      </trkpt>
      <trkpt lat="38.45942" lon="-0.80983">
        <ele>343.4</ele>
        <time>2022-10-15 15:10:37</time>
      </trkpt>
      <trkpt lat="38.45942" lon="-0.80983">
        <ele>343.2</ele>
        <time>2022-10-15 15:10:38</time>
      </trkpt>
      <trkpt lat="38.45941" lon="-0.80976">
        <ele>343.2</ele>
        <time>2022-10-15 15:10:39</time>
      </trkpt>
      <trkpt lat="38.45941" lon="-0.80972">
        <ele>343</ele>
        <time>2022-10-15 15:10:40</time>
      </trkpt>
      <trkpt lat="38.45941" lon="-0.80969">
        <ele>343</ele>
        <time>2022-10-15 15:10:41</time>
      </trkpt>
      <trkpt lat="38.4594" lon="-0.80966">
        <ele>343</ele>
        <time>2022-10-15 15:10:42</time>
      </trkpt>
      <trkpt lat="38.45939" lon="-0.80962">
        <ele>343</ele>
        <time>2022-10-15 15:10:43</time>
      </trkpt>
      <trkpt lat="38.45939" lon="-0.80962">
        <ele>343.2</ele>
        <time>2022-10-15 15:10:44</time>
      </trkpt>
      <trkpt lat="38.45938" lon="-0.80954">
        <ele>343</ele>
        <time>2022-10-15 15:10:45</time>
      </trkpt>
      <trkpt lat="38.45937" lon="-0.80949">
        <ele>342.8</ele>
        <time>2022-10-15 15:10:46</time>
      </trkpt>
      <trkpt lat="38.45936" lon="-0.80944">
        <ele>342.8</ele>
        <time>2022-10-15 15:10:47</time>
      </trkpt>
      <trkpt lat="38.45935" lon="-0.80939">
        <ele>343</ele>
        <time>2022-10-15 15:10:48</time>
      </trkpt>
      <trkpt lat="38.45934" lon="-0.80933">
        <ele>343</ele>
        <time>2022-10-15 15:10:49</time>
      </trkpt>
      <trkpt lat="38.45934" lon="-0.80933">
        <ele>343</ele>
        <time>2022-10-15 15:10:50</time>
      </trkpt>
      <trkpt lat="38.45934" lon="-0.80923">
        <ele>343</ele>
        <time>2022-10-15 15:10:51</time>
      </trkpt>
      <trkpt lat="38.45936" lon="-0.80919">
        <ele>342.8</ele>
        <time>2022-10-15 15:10:52</time>
      </trkpt>
      <trkpt lat="38.45938" lon="-0.80915">
        <ele>342.8</ele>
        <time>2022-10-15 15:10:53</time>
      </trkpt>
      <trkpt lat="38.45941" lon="-0.80913">
        <ele>342.8</ele>
        <time>2022-10-15 15:10:54</time>
      </trkpt>
      <trkpt lat="38.45945" lon="-0.80911">
        <ele>342.6</ele>
        <time>2022-10-15 15:10:55</time>
      </trkpt>
      <trkpt lat="38.45945" lon="-0.80911">
        <ele>342.6</ele>
        <time>2022-10-15 15:10:56</time>
      </trkpt>
      <trkpt lat="38.45953" lon="-0.80908">
        <ele>342.6</ele>
        <time>2022-10-15 15:10:57</time>
      </trkpt>
      <trkpt lat="38.45957" lon="-0.80907">
        <ele>342.4</ele>
        <time>2022-10-15 15:10:58</time>
      </trkpt>
      <trkpt lat="38.45961" lon="-0.80907">
        <ele>342.4</ele>
        <time>2022-10-15 15:10:59</time>
      </trkpt>
      <trkpt lat="38.45965" lon="-0.80906">
        <ele>342.4</ele>
        <time>2022-10-15 15:11:00</time>
      </trkpt>
      <trkpt lat="38.4597" lon="-0.80905">
        <ele>342.4</ele>
        <time>2022-10-15 15:11:01</time>
      </trkpt>
      <trkpt lat="38.4597" lon="-0.80905">
        <ele>342.4</ele>
        <time>2022-10-15 15:11:02</time>
      </trkpt>
      <trkpt lat="38.45978" lon="-0.80904">
        <ele>342.4</ele>
        <time>2022-10-15 15:11:03</time>
      </trkpt>
      <trkpt lat="38.45982" lon="-0.80904">
        <ele>342.4</ele>
        <time>2022-10-15 15:11:04</time>
      </trkpt>
      <trkpt lat="38.45986" lon="-0.80904">
        <ele>342.4</ele>
        <time>2022-10-15 15:11:05</time>
      </trkpt>
      <trkpt lat="38.4599" lon="-0.80905">
        <ele>342.4</ele>
        <time>2022-10-15 15:11:06</time>
      </trkpt>
      <trkpt lat="38.45994" lon="-0.80905">
        <ele>342.4</ele>
        <time>2022-10-15 15:11:07</time>
      </trkpt>
      <trkpt lat="38.45994" lon="-0.80905">
        <ele>342.4</ele>
        <time>2022-10-15 15:11:08</time>
      </trkpt>
      <trkpt lat="38.46002" lon="-0.80906">
        <ele>342.4</ele>
        <time>2022-10-15 15:11:09</time>
      </trkpt>
      <trkpt lat="38.46006" lon="-0.80906">
        <ele>342.4</ele>
        <time>2022-10-15 15:11:10</time>
      </trkpt>
      <trkpt lat="38.4601" lon="-0.80906">
        <ele>342.4</ele>
        <time>2022-10-15 15:11:11</time>
      </trkpt>
      <trkpt lat="38.46014" lon="-0.80906">
        <ele>342.4</ele>
        <time>2022-10-15 15:11:12</time>
      </trkpt>
      <trkpt lat="38.46018" lon="-0.80907">
        <ele>342.4</ele>
        <time>2022-10-15 15:11:13</time>
      </trkpt>
      <trkpt lat="38.46018" lon="-0.80907">
        <ele>342.6</ele>
        <time>2022-10-15 15:11:14</time>
      </trkpt>
      <trkpt lat="38.46027" lon="-0.80907">
        <ele>342.6</ele>
        <time>2022-10-15 15:11:15</time>
      </trkpt>
      <trkpt lat="38.46031" lon="-0.80908">
        <ele>342.8</ele>
        <time>2022-10-15 15:11:16</time>
      </trkpt>
      <trkpt lat="38.46035" lon="-0.80908">
        <ele>342.8</ele>
        <time>2022-10-15 15:11:17</time>
      </trkpt>
      <trkpt lat="38.46039" lon="-0.80909">
        <ele>342.8</ele>
        <time>2022-10-15 15:11:18</time>
      </trkpt>
      <trkpt lat="38.46043" lon="-0.80909">
        <ele>342.8</ele>
        <time>2022-10-15 15:11:19</time>
      </trkpt>
      <trkpt lat="38.46043" lon="-0.80909">
        <ele>342.8</ele>
        <time>2022-10-15 15:11:20</time>
      </trkpt>
      <trkpt lat="38.4605" lon="-0.8091">
        <ele>342.8</ele>
        <time>2022-10-15 15:11:21</time>
      </trkpt>
      <trkpt lat="38.46054" lon="-0.80911">
        <ele>342.8</ele>
        <time>2022-10-15 15:11:22</time>
      </trkpt>
      <trkpt lat="38.46058" lon="-0.80911">
        <ele>343</ele>
        <time>2022-10-15 15:11:23</time>
      </trkpt>
      <trkpt lat="38.46062" lon="-0.80912">
        <ele>343</ele>
        <time>2022-10-15 15:11:24</time>
      </trkpt>
      <trkpt lat="38.46065" lon="-0.80912">
        <ele>343</ele>
        <time>2022-10-15 15:11:25</time>
      </trkpt>
      <trkpt lat="38.46065" lon="-0.80912">
        <ele>343</ele>
        <time>2022-10-15 15:11:26</time>
      </trkpt>
      <trkpt lat="38.46073" lon="-0.80913">
        <ele>343</ele>
        <time>2022-10-15 15:11:27</time>
      </trkpt>
      <trkpt lat="38.46077" lon="-0.80913">
        <ele>343.2</ele>
        <time>2022-10-15 15:11:28</time>
      </trkpt>
      <trkpt lat="38.4608" lon="-0.80913">
        <ele>343.2</ele>
        <time>2022-10-15 15:11:29</time>
      </trkpt>
      <trkpt lat="38.46083" lon="-0.80912">
        <ele>343.2</ele>
        <time>2022-10-15 15:11:30</time>
      </trkpt>
      <trkpt lat="38.46086" lon="-0.8091">
        <ele>343.2</ele>
        <time>2022-10-15 15:11:31</time>
      </trkpt>
      <trkpt lat="38.46086" lon="-0.8091">
        <ele>343.2</ele>
        <time>2022-10-15 15:11:32</time>
      </trkpt>
      <trkpt lat="38.46091" lon="-0.80903">
        <ele>343.2</ele>
        <time>2022-10-15 15:11:33</time>
      </trkpt>
      <trkpt lat="38.46092" lon="-0.80899">
        <ele>343.2</ele>
        <time>2022-10-15 15:11:34</time>
      </trkpt>
      <trkpt lat="38.46094" lon="-0.80895">
        <ele>343.2</ele>
        <time>2022-10-15 15:11:35</time>
      </trkpt>
      <trkpt lat="38.46095" lon="-0.8089">
        <ele>343.2</ele>
        <time>2022-10-15 15:11:36</time>
      </trkpt>
      <trkpt lat="38.46096" lon="-0.80885">
        <ele>343.2</ele>
        <time>2022-10-15 15:11:37</time>
      </trkpt>
      <trkpt lat="38.46096" lon="-0.80885">
        <ele>343.2</ele>
        <time>2022-10-15 15:11:38</time>
      </trkpt>
      <trkpt lat="38.46099" lon="-0.80874">
        <ele>343.2</ele>
        <time>2022-10-15 15:11:39</time>
      </trkpt>
      <trkpt lat="38.461" lon="-0.80869">
        <ele>343</ele>
        <time>2022-10-15 15:11:40</time>
      </trkpt>
      <trkpt lat="38.46101" lon="-0.80864">
        <ele>343</ele>
        <time>2022-10-15 15:11:41</time>
      </trkpt>
      <trkpt lat="38.46103" lon="-0.80859">
        <ele>342.8</ele>
        <time>2022-10-15 15:11:42</time>
      </trkpt>
      <trkpt lat="38.46104" lon="-0.80854">
        <ele>342.8</ele>
        <time>2022-10-15 15:11:43</time>
      </trkpt>
      <trkpt lat="38.46104" lon="-0.80854">
        <ele>342.6</ele>
        <time>2022-10-15 15:11:44</time>
      </trkpt>
      <trkpt lat="38.46106" lon="-0.80842">
        <ele>342.4</ele>
        <time>2022-10-15 15:11:45</time>
      </trkpt>
      <trkpt lat="38.46107" lon="-0.80836">
        <ele>342.4</ele>
        <time>2022-10-15 15:11:46</time>
      </trkpt>
      <trkpt lat="38.46108" lon="-0.8083">
        <ele>342.2</ele>
        <time>2022-10-15 15:11:47</time>
      </trkpt>
      <trkpt lat="38.46108" lon="-0.80822">
        <ele>342.2</ele>
        <time>2022-10-15 15:11:48</time>
      </trkpt>
      <trkpt lat="38.46109" lon="-0.80814">
        <ele>342</ele>
        <time>2022-10-15 15:11:49</time>
      </trkpt>
      <trkpt lat="38.46109" lon="-0.80814">
        <ele>342</ele>
        <time>2022-10-15 15:11:50</time>
      </trkpt>
      <trkpt lat="38.4611" lon="-0.808">
        <ele>342</ele>
        <time>2022-10-15 15:11:51</time>
      </trkpt>
      <trkpt lat="38.46111" lon="-0.80793">
        <ele>341.8</ele>
        <time>2022-10-15 15:11:52</time>
      </trkpt>
      <trkpt lat="38.46112" lon="-0.80786">
        <ele>341.8</ele>
        <time>2022-10-15 15:11:53</time>
      </trkpt>
      <trkpt lat="38.46112" lon="-0.80781">
        <ele>341.8</ele>
        <time>2022-10-15 15:11:54</time>
      </trkpt>
      <trkpt lat="38.4611" lon="-0.80777">
        <ele>341.4</ele>
        <time>2022-10-15 15:11:55</time>
      </trkpt>
      <trkpt lat="38.4611" lon="-0.80777">
        <ele>341</ele>
        <time>2022-10-15 15:11:56</time>
      </trkpt>
      <trkpt lat="38.46103" lon="-0.80774">
        <ele>340.8</ele>
        <time>2022-10-15 15:11:57</time>
      </trkpt>
      <trkpt lat="38.46099" lon="-0.80774">
        <ele>340.4</ele>
        <time>2022-10-15 15:11:58</time>
      </trkpt>
      <trkpt lat="38.46095" lon="-0.80774">
        <ele>340.2</ele>
        <time>2022-10-15 15:11:59</time>
      </trkpt>
      <trkpt lat="38.46091" lon="-0.80774">
        <ele>340.2</ele>
        <time>2022-10-15 15:12:00</time>
      </trkpt>
      <trkpt lat="38.46086" lon="-0.80774">
        <ele>340</ele>
        <time>2022-10-15 15:12:01</time>
      </trkpt>
      <trkpt lat="38.46086" lon="-0.80774">
        <ele>340</ele>
        <time>2022-10-15 15:12:02</time>
      </trkpt>
      <trkpt lat="38.46077" lon="-0.80776">
        <ele>340</ele>
        <time>2022-10-15 15:12:03</time>
      </trkpt>
      <trkpt lat="38.46072" lon="-0.80777">
        <ele>339.8</ele>
        <time>2022-10-15 15:12:04</time>
      </trkpt>
      <trkpt lat="38.46067" lon="-0.80778">
        <ele>339.6</ele>
        <time>2022-10-15 15:12:05</time>
      </trkpt>
      <trkpt lat="38.46062" lon="-0.80778">
        <ele>339.6</ele>
        <time>2022-10-15 15:12:06</time>
      </trkpt>
      <trkpt lat="38.46057" lon="-0.80778">
        <ele>339.4</ele>
        <time>2022-10-15 15:12:07</time>
      </trkpt>
      <trkpt lat="38.46053" lon="-0.80778">
        <ele>339.4</ele>
        <time>2022-10-15 15:12:08</time>
      </trkpt>
      <trkpt lat="38.46048" lon="-0.80777">
        <ele>339.4</ele>
        <time>2022-10-15 15:12:09</time>
      </trkpt>
      <trkpt lat="38.46044" lon="-0.80774">
        <ele>339.2</ele>
        <time>2022-10-15 15:12:10</time>
      </trkpt>
      <trkpt lat="38.46042" lon="-0.8077">
        <ele>339.2</ele>
        <time>2022-10-15 15:12:11</time>
      </trkpt>
      <trkpt lat="38.46038" lon="-0.80766">
        <ele>339</ele>
        <time>2022-10-15 15:12:12</time>
      </trkpt>
      <trkpt lat="38.46034" lon="-0.80763">
        <ele>338.8</ele>
        <time>2022-10-15 15:12:13</time>
      </trkpt>
      <trkpt lat="38.46034" lon="-0.80763">
        <ele>338.6</ele>
        <time>2022-10-15 15:12:14</time>
      </trkpt>
      <trkpt lat="38.46024" lon="-0.80758">
        <ele>338.4</ele>
        <time>2022-10-15 15:12:15</time>
      </trkpt>
      <trkpt lat="38.46019" lon="-0.80756">
        <ele>338.4</ele>
        <time>2022-10-15 15:12:16</time>
      </trkpt>
      <trkpt lat="38.46014" lon="-0.80754">
        <ele>338.2</ele>
        <time>2022-10-15 15:12:17</time>
      </trkpt>
      <trkpt lat="38.46009" lon="-0.80752">
        <ele>338</ele>
        <time>2022-10-15 15:12:18</time>
      </trkpt>
      <trkpt lat="38.46004" lon="-0.80749">
        <ele>337.8</ele>
        <time>2022-10-15 15:12:19</time>
      </trkpt>
      <trkpt lat="38.46004" lon="-0.80749">
        <ele>337.6</ele>
        <time>2022-10-15 15:12:20</time>
      </trkpt>
      <trkpt lat="38.45994" lon="-0.80745">
        <ele>337.6</ele>
        <time>2022-10-15 15:12:21</time>
      </trkpt>
      <trkpt lat="38.45989" lon="-0.80743">
        <ele>337.4</ele>
        <time>2022-10-15 15:12:22</time>
      </trkpt>
      <trkpt lat="38.45985" lon="-0.80741">
        <ele>337.4</ele>
        <time>2022-10-15 15:12:23</time>
      </trkpt>
      <trkpt lat="38.4598" lon="-0.80739">
        <ele>337.2</ele>
        <time>2022-10-15 15:12:24</time>
      </trkpt>
      <trkpt lat="38.45975" lon="-0.80738">
        <ele>337.2</ele>
        <time>2022-10-15 15:12:25</time>
      </trkpt>
      <trkpt lat="38.45975" lon="-0.80738">
        <ele>337</ele>
        <time>2022-10-15 15:12:26</time>
      </trkpt>
      <trkpt lat="38.45966" lon="-0.80735">
        <ele>337</ele>
        <time>2022-10-15 15:12:27</time>
      </trkpt>
      <trkpt lat="38.45961" lon="-0.80734">
        <ele>336.8</ele>
        <time>2022-10-15 15:12:28</time>
      </trkpt>
      <trkpt lat="38.45957" lon="-0.80731">
        <ele>336.6</ele>
        <time>2022-10-15 15:12:29</time>
      </trkpt>
      <trkpt lat="38.45952" lon="-0.80729">
        <ele>336.4</ele>
        <time>2022-10-15 15:12:30</time>
      </trkpt>
      <trkpt lat="38.45947" lon="-0.80727">
        <ele>336.4</ele>
        <time>2022-10-15 15:12:31</time>
      </trkpt>
      <trkpt lat="38.45947" lon="-0.80727">
        <ele>336.6</ele>
        <time>2022-10-15 15:12:32</time>
      </trkpt>
      <trkpt lat="38.45938" lon="-0.80724">
        <ele>336.2</ele>
        <time>2022-10-15 15:12:33</time>
      </trkpt>
      <trkpt lat="38.45934" lon="-0.80722">
        <ele>336.2</ele>
        <time>2022-10-15 15:12:34</time>
      </trkpt>
      <trkpt lat="38.4593" lon="-0.80719">
        <ele>336.2</ele>
        <time>2022-10-15 15:12:35</time>
      </trkpt>
      <trkpt lat="38.45925" lon="-0.80716">
        <ele>336</ele>
        <time>2022-10-15 15:12:36</time>
      </trkpt>
      <trkpt lat="38.45922" lon="-0.80713">
        <ele>335.8</ele>
        <time>2022-10-15 15:12:37</time>
      </trkpt>
      <trkpt lat="38.45922" lon="-0.80713">
        <ele>335.8</ele>
        <time>2022-10-15 15:12:38</time>
      </trkpt>
      <trkpt lat="38.45913" lon="-0.80706">
        <ele>335.8</ele>
        <time>2022-10-15 15:12:39</time>
      </trkpt>
      <trkpt lat="38.45909" lon="-0.80703">
        <ele>335.6</ele>
        <time>2022-10-15 15:12:40</time>
      </trkpt>
      <trkpt lat="38.45905" lon="-0.807">
        <ele>335.6</ele>
        <time>2022-10-15 15:12:41</time>
      </trkpt>
      <trkpt lat="38.45902" lon="-0.80697">
        <ele>335.4</ele>
        <time>2022-10-15 15:12:42</time>
      </trkpt>
      <trkpt lat="38.45899" lon="-0.80695">
        <ele>335.4</ele>
        <time>2022-10-15 15:12:43</time>
      </trkpt>
      <trkpt lat="38.45899" lon="-0.80695">
        <ele>335.2</ele>
        <time>2022-10-15 15:12:44</time>
      </trkpt>
      <trkpt lat="38.45895" lon="-0.80691">
        <ele>335.2</ele>
        <time>2022-10-15 15:12:45</time>
      </trkpt>
      <trkpt lat="38.45892" lon="-0.80688">
        <ele>335</ele>
        <time>2022-10-15 15:12:46</time>
      </trkpt>
      <trkpt lat="38.4589" lon="-0.80686">
        <ele>334.6</ele>
        <time>2022-10-15 15:12:47</time>
      </trkpt>
      <trkpt lat="38.45888" lon="-0.80685">
        <ele>334.4</ele>
        <time>2022-10-15 15:12:48</time>
      </trkpt>
      <trkpt lat="38.45885" lon="-0.80683">
        <ele>334.2</ele>
        <time>2022-10-15 15:12:49</time>
      </trkpt>
      <trkpt lat="38.45885" lon="-0.80683">
        <ele>334.2</ele>
        <time>2022-10-15 15:12:50</time>
      </trkpt>
      <trkpt lat="38.45881" lon="-0.80679">
        <ele>334</ele>
        <time>2022-10-15 15:12:51</time>
      </trkpt>
      <trkpt lat="38.45879" lon="-0.80678">
        <ele>333.8</ele>
        <time>2022-10-15 15:12:52</time>
      </trkpt>
      <trkpt lat="38.45877" lon="-0.80676">
        <ele>333.8</ele>
        <time>2022-10-15 15:12:53</time>
      </trkpt>
      <trkpt lat="38.45875" lon="-0.80675">
        <ele>333.8</ele>
        <time>2022-10-15 15:12:54</time>
      </trkpt>
      <trkpt lat="38.45873" lon="-0.80674">
        <ele>333.6</ele>
        <time>2022-10-15 15:12:55</time>
      </trkpt>
      <trkpt lat="38.45873" lon="-0.80674">
        <ele>333.6</ele>
        <time>2022-10-15 15:12:56</time>
      </trkpt>
      <trkpt lat="38.4587" lon="-0.8067">
        <ele>333.6</ele>
        <time>2022-10-15 15:12:57</time>
      </trkpt>
      <trkpt lat="38.45868" lon="-0.80669">
        <ele>333.6</ele>
        <time>2022-10-15 15:12:58</time>
      </trkpt>
      <trkpt lat="38.45866" lon="-0.80668">
        <ele>333.6</ele>
        <time>2022-10-15 15:12:59</time>
      </trkpt>
      <trkpt lat="38.45864" lon="-0.80666">
        <ele>333.6</ele>
        <time>2022-10-15 15:13:00</time>
      </trkpt>
      <trkpt lat="38.45862" lon="-0.80664">
        <ele>333.6</ele>
        <time>2022-10-15 15:13:01</time>
      </trkpt>
      <trkpt lat="38.45862" lon="-0.80664">
        <ele>333.6</ele>
        <time>2022-10-15 15:13:02</time>
      </trkpt>
      <trkpt lat="38.45857" lon="-0.8066">
        <ele>333.6</ele>
        <time>2022-10-15 15:13:03</time>
      </trkpt>
      <trkpt lat="38.45855" lon="-0.80659">
        <ele>333.6</ele>
        <time>2022-10-15 15:13:04</time>
      </trkpt>
      <trkpt lat="38.45852" lon="-0.80657">
        <ele>333.4</ele>
        <time>2022-10-15 15:13:05</time>
      </trkpt>
      <trkpt lat="38.4585" lon="-0.80655">
        <ele>333.4</ele>
        <time>2022-10-15 15:13:06</time>
      </trkpt>
      <trkpt lat="38.45848" lon="-0.80654">
        <ele>333.2</ele>
        <time>2022-10-15 15:13:07</time>
      </trkpt>
      <trkpt lat="38.45848" lon="-0.80654">
        <ele>333.4</ele>
        <time>2022-10-15 15:13:08</time>
      </trkpt>
      <trkpt lat="38.45843" lon="-0.8065">
        <ele>333.4</ele>
        <time>2022-10-15 15:13:09</time>
      </trkpt>
      <trkpt lat="38.45841" lon="-0.80648">
        <ele>333.2</ele>
        <time>2022-10-15 15:13:10</time>
      </trkpt>
      <trkpt lat="38.45839" lon="-0.80646">
        <ele>333.2</ele>
        <time>2022-10-15 15:13:11</time>
      </trkpt>
      <trkpt lat="38.45836" lon="-0.80644">
        <ele>333.2</ele>
        <time>2022-10-15 15:13:12</time>
      </trkpt>
      <trkpt lat="38.45833" lon="-0.80642">
        <ele>333</ele>
        <time>2022-10-15 15:13:13</time>
      </trkpt>
      <trkpt lat="38.45833" lon="-0.80642">
        <ele>333</ele>
        <time>2022-10-15 15:13:14</time>
      </trkpt>
      <trkpt lat="38.45828" lon="-0.80638">
        <ele>333</ele>
        <time>2022-10-15 15:13:15</time>
      </trkpt>
      <trkpt lat="38.45825" lon="-0.80637">
        <ele>333</ele>
        <time>2022-10-15 15:13:16</time>
      </trkpt>
      <trkpt lat="38.45823" lon="-0.80635">
        <ele>332.8</ele>
        <time>2022-10-15 15:13:17</time>
      </trkpt>
      <trkpt lat="38.4582" lon="-0.80632">
        <ele>332.8</ele>
        <time>2022-10-15 15:13:18</time>
      </trkpt>
      <trkpt lat="38.45817" lon="-0.8063">
        <ele>332.8</ele>
        <time>2022-10-15 15:13:19</time>
      </trkpt>
      <trkpt lat="38.45814" lon="-0.80628">
        <ele>332.8</ele>
        <time>2022-10-15 15:13:20</time>
      </trkpt>
      <trkpt lat="38.45812" lon="-0.80626">
        <ele>332.8</ele>
        <time>2022-10-15 15:13:21</time>
      </trkpt>
      <trkpt lat="38.45805" lon="-0.80622">
        <ele>332.8</ele>
        <time>2022-10-15 15:13:23</time>
      </trkpt>
      <trkpt lat="38.45801" lon="-0.80622">
        <ele>332.8</ele>
        <time>2022-10-15 15:13:24</time>
      </trkpt>
      <trkpt lat="38.45797" lon="-0.80622">
        <ele>332.8</ele>
        <time>2022-10-15 15:13:25</time>
      </trkpt>
      <trkpt lat="38.45787" lon="-0.80618">
        <ele>332.8</ele>
        <time>2022-10-15 15:13:27</time>
      </trkpt>
      <trkpt lat="38.45778" lon="-0.80614">
        <ele>332.8</ele>
        <time>2022-10-15 15:13:29</time>
      </trkpt>
      <trkpt lat="38.45775" lon="-0.80612">
        <ele>332.8</ele>
        <time>2022-10-15 15:13:30</time>
      </trkpt>
      <trkpt lat="38.45771" lon="-0.80609">
        <ele>332.8</ele>
        <time>2022-10-15 15:13:32</time>
      </trkpt>
      <trkpt lat="38.45766" lon="-0.806">
        <ele>332.8</ele>
        <time>2022-10-15 15:13:33</time>
      </trkpt>
      <trkpt lat="38.45764" lon="-0.80596">
        <ele>332.8</ele>
        <time>2022-10-15 15:13:34</time>
      </trkpt>
      <trkpt lat="38.45763" lon="-0.80591">
        <ele>332.8</ele>
        <time>2022-10-15 15:13:35</time>
      </trkpt>
      <trkpt lat="38.45761" lon="-0.80586">
        <ele>332.6</ele>
        <time>2022-10-15 15:13:36</time>
      </trkpt>
      <trkpt lat="38.45759" lon="-0.80582">
        <ele>332.6</ele>
        <time>2022-10-15 15:13:38</time>
      </trkpt>
      <trkpt lat="38.45753" lon="-0.80575">
        <ele>332.6</ele>
        <time>2022-10-15 15:13:39</time>
      </trkpt>
      <trkpt lat="38.45748" lon="-0.80569">
        <ele>332.6</ele>
        <time>2022-10-15 15:13:41</time>
      </trkpt>
      <trkpt lat="38.45743" lon="-0.80562">
        <ele>332.6</ele>
        <time>2022-10-15 15:13:44</time>
      </trkpt>
      <trkpt lat="38.45737" lon="-0.80553">
        <ele>332.8</ele>
        <time>2022-10-15 15:13:46</time>
      </trkpt>
      <trkpt lat="38.45735" lon="-0.8055">
        <ele>332.8</ele>
        <time>2022-10-15 15:13:47</time>
      </trkpt>
      <trkpt lat="38.45731" lon="-0.80544">
        <ele>333.2</ele>
        <time>2022-10-15 15:13:49</time>
      </trkpt>
      <trkpt lat="38.45731" lon="-0.80544">
        <ele>333.2</ele>
        <time>2022-10-15 15:13:50</time>
      </trkpt>
      <trkpt lat="38.45727" lon="-0.80539">
        <ele>333.2</ele>
        <time>2022-10-15 15:13:51</time>
      </trkpt>
      <trkpt lat="38.45725" lon="-0.80537">
        <ele>333.2</ele>
        <time>2022-10-15 15:13:52</time>
      </trkpt>
      <trkpt lat="38.45719" lon="-0.80529">
        <ele>333.6</ele>
        <time>2022-10-15 15:13:55</time>
      </trkpt>
      <trkpt lat="38.45719" lon="-0.80529">
        <ele>333.8</ele>
        <time>2022-10-15 15:13:56</time>
      </trkpt>
      <trkpt lat="38.45718" lon="-0.80521">
        <ele>333.8</ele>
        <time>2022-10-15 15:13:57</time>
      </trkpt>
      <trkpt lat="38.45718" lon="-0.80518">
        <ele>334.2</ele>
        <time>2022-10-15 15:13:58</time>
      </trkpt>
      <trkpt lat="38.45717" lon="-0.80511">
        <ele>334.6</ele>
        <time>2022-10-15 15:14:00</time>
      </trkpt>
      <trkpt lat="38.45716" lon="-0.80508">
        <ele>334.8</ele>
        <time>2022-10-15 15:14:01</time>
      </trkpt>
      <trkpt lat="38.45712" lon="-0.80501">
        <ele>335</ele>
        <time>2022-10-15 15:14:03</time>
      </trkpt>
      <trkpt lat="38.45707" lon="-0.80494">
        <ele>335.2</ele>
        <time>2022-10-15 15:14:05</time>
      </trkpt>
      <trkpt lat="38.45704" lon="-0.8049">
        <ele>335.4</ele>
        <time>2022-10-15 15:14:06</time>
      </trkpt>
      <trkpt lat="38.45702" lon="-0.80486">
        <ele>335.6</ele>
        <time>2022-10-15 15:14:08</time>
      </trkpt>
      <trkpt lat="38.45696" lon="-0.80478">
        <ele>335.6</ele>
        <time>2022-10-15 15:14:09</time>
      </trkpt>
      <trkpt lat="38.4569" lon="-0.80472">
        <ele>335.6</ele>
        <time>2022-10-15 15:14:11</time>
      </trkpt>
      <trkpt lat="38.45688" lon="-0.80469">
        <ele>335.6</ele>
        <time>2022-10-15 15:14:12</time>
      </trkpt>
      <trkpt lat="38.45685" lon="-0.80466">
        <ele>335.6</ele>
        <time>2022-10-15 15:14:13</time>
      </trkpt>
      <trkpt lat="38.45681" lon="-0.8046">
        <ele>335.6</ele>
        <time>2022-10-15 15:14:15</time>
      </trkpt>
      <trkpt lat="38.45678" lon="-0.80457">
        <ele>335.6</ele>
        <time>2022-10-15 15:14:16</time>
      </trkpt>
      <trkpt lat="38.45672" lon="-0.80454">
        <ele>335.6</ele>
        <time>2022-10-15 15:14:18</time>
      </trkpt>
      <trkpt lat="38.45669" lon="-0.80453">
        <ele>335.6</ele>
        <time>2022-10-15 15:14:19</time>
      </trkpt>
      <trkpt lat="38.45662" lon="-0.80453">
        <ele>335.6</ele>
        <time>2022-10-15 15:14:21</time>
      </trkpt>
      <trkpt lat="38.45656" lon="-0.80452">
        <ele>335.6</ele>
        <time>2022-10-15 15:14:23</time>
      </trkpt>
      <trkpt lat="38.45653" lon="-0.80451">
        <ele>335.6</ele>
        <time>2022-10-15 15:14:24</time>
      </trkpt>
      <trkpt lat="38.45651" lon="-0.80449">
        <ele>335.6</ele>
        <time>2022-10-15 15:14:26</time>
      </trkpt>
      <trkpt lat="38.45646" lon="-0.80443">
        <ele>336</ele>
        <time>2022-10-15 15:14:27</time>
      </trkpt>
      <trkpt lat="38.45644" lon="-0.8044">
        <ele>336</ele>
        <time>2022-10-15 15:14:28</time>
      </trkpt>
      <trkpt lat="38.45631" lon="-0.80423">
        <ele>336.8</ele>
        <time>2022-10-15 15:14:34</time>
      </trkpt>
      <trkpt lat="38.45624" lon="-0.80421">
        <ele>337</ele>
        <time>2022-10-15 15:14:36</time>
      </trkpt>
      <trkpt lat="38.45621" lon="-0.80422">
        <ele>337</ele>
        <time>2022-10-15 15:14:37</time>
      </trkpt>
      <trkpt lat="38.45621" lon="-0.80422">
        <ele>337</ele>
        <time>2022-10-15 15:14:38</time>
      </trkpt>
      <trkpt lat="38.45614" lon="-0.80423">
        <ele>337</ele>
        <time>2022-10-15 15:14:39</time>
      </trkpt>
      <trkpt lat="38.45607" lon="-0.80423">
        <ele>337</ele>
        <time>2022-10-15 15:14:41</time>
      </trkpt>
      <trkpt lat="38.45603" lon="-0.80423">
        <ele>337</ele>
        <time>2022-10-15 15:14:42</time>
      </trkpt>
      <trkpt lat="38.45599" lon="-0.80422">
        <ele>337</ele>
        <time>2022-10-15 15:14:43</time>
      </trkpt>
      <trkpt lat="38.45599" lon="-0.80422">
        <ele>337</ele>
        <time>2022-10-15 15:14:44</time>
      </trkpt>
      <trkpt lat="38.45592" lon="-0.80418">
        <ele>336.8</ele>
        <time>2022-10-15 15:14:45</time>
      </trkpt>
      <trkpt lat="38.45584" lon="-0.80413">
        <ele>336.4</ele>
        <time>2022-10-15 15:14:47</time>
      </trkpt>
      <trkpt lat="38.45581" lon="-0.80409">
        <ele>336.2</ele>
        <time>2022-10-15 15:14:48</time>
      </trkpt>
      <trkpt lat="38.45579" lon="-0.80404">
        <ele>335.8</ele>
        <time>2022-10-15 15:14:50</time>
      </trkpt>
      <trkpt lat="38.45579" lon="-0.80394">
        <ele>335.8</ele>
        <time>2022-10-15 15:14:51</time>
      </trkpt>
      <trkpt lat="38.45582" lon="-0.80384">
        <ele>335.8</ele>
        <time>2022-10-15 15:14:53</time>
      </trkpt>
      <trkpt lat="38.45585" lon="-0.80373">
        <ele>335.8</ele>
        <time>2022-10-15 15:14:55</time>
      </trkpt>
      <trkpt lat="38.45585" lon="-0.80373">
        <ele>335.8</ele>
        <time>2022-10-15 15:14:56</time>
      </trkpt>
      <trkpt lat="38.45589" lon="-0.80358">
        <ele>335.8</ele>
        <time>2022-10-15 15:14:58</time>
      </trkpt>
      <trkpt lat="38.45592" lon="-0.80354">
        <ele>335.6</ele>
        <time>2022-10-15 15:14:59</time>
      </trkpt>
      <trkpt lat="38.45599" lon="-0.80348">
        <ele>335.6</ele>
        <time>2022-10-15 15:15:01</time>
      </trkpt>
      <trkpt lat="38.45599" lon="-0.80348">
        <ele>335.6</ele>
        <time>2022-10-15 15:15:02</time>
      </trkpt>
      <trkpt lat="38.45608" lon="-0.80346">
        <ele>335.6</ele>
        <time>2022-10-15 15:15:03</time>
      </trkpt>
      <trkpt lat="38.45613" lon="-0.80347">
        <ele>335.6</ele>
        <time>2022-10-15 15:15:04</time>
      </trkpt>
      <trkpt lat="38.45618" lon="-0.80348">
        <ele>335.4</ele>
        <time>2022-10-15 15:15:05</time>
      </trkpt>
      <trkpt lat="38.45623" lon="-0.80347">
        <ele>335.4</ele>
        <time>2022-10-15 15:15:06</time>
      </trkpt>
      <trkpt lat="38.45627" lon="-0.80345">
        <ele>335.4</ele>
        <time>2022-10-15 15:15:07</time>
      </trkpt>
      <trkpt lat="38.45627" lon="-0.80345">
        <ele>335.4</ele>
        <time>2022-10-15 15:15:08</time>
      </trkpt>
      <trkpt lat="38.45631" lon="-0.80335">
        <ele>335.2</ele>
        <time>2022-10-15 15:15:09</time>
      </trkpt>
      <trkpt lat="38.4563" lon="-0.80329">
        <ele>334.8</ele>
        <time>2022-10-15 15:15:10</time>
      </trkpt>
      <trkpt lat="38.45623" lon="-0.8032">
        <ele>334.2</ele>
        <time>2022-10-15 15:15:12</time>
      </trkpt>
      <trkpt lat="38.45619" lon="-0.80317">
        <ele>333.8</ele>
        <time>2022-10-15 15:15:13</time>
      </trkpt>
      <trkpt lat="38.45616" lon="-0.80313">
        <ele>333.4</ele>
        <time>2022-10-15 15:15:14</time>
      </trkpt>
      <trkpt lat="38.45613" lon="-0.80309">
        <ele>332.8</ele>
        <time>2022-10-15 15:15:15</time>
      </trkpt>
      <trkpt lat="38.45609" lon="-0.80306">
        <ele>332.2</ele>
        <time>2022-10-15 15:15:16</time>
      </trkpt>
      <trkpt lat="38.45605" lon="-0.80303">
        <ele>331.4</ele>
        <time>2022-10-15 15:15:17</time>
      </trkpt>
      <trkpt lat="38.45602" lon="-0.803">
        <ele>330.4</ele>
        <time>2022-10-15 15:15:18</time>
      </trkpt>
      <trkpt lat="38.45598" lon="-0.80297">
        <ele>329.8</ele>
        <time>2022-10-15 15:15:19</time>
      </trkpt>
      <trkpt lat="38.45592" lon="-0.80293">
        <ele>329.2</ele>
        <time>2022-10-15 15:15:21</time>
      </trkpt>
      <trkpt lat="38.45586" lon="-0.80288">
        <ele>329.2</ele>
        <time>2022-10-15 15:15:23</time>
      </trkpt>
      <trkpt lat="38.45583" lon="-0.80285">
        <ele>329.2</ele>
        <time>2022-10-15 15:15:24</time>
      </trkpt>
      <trkpt lat="38.45579" lon="-0.80283">
        <ele>329.2</ele>
        <time>2022-10-15 15:15:26</time>
      </trkpt>
      <trkpt lat="38.45572" lon="-0.80277">
        <ele>329.2</ele>
        <time>2022-10-15 15:15:27</time>
      </trkpt>
      <trkpt lat="38.45568" lon="-0.80274">
        <ele>329.2</ele>
        <time>2022-10-15 15:15:28</time>
      </trkpt>
      <trkpt lat="38.45564" lon="-0.80272">
        <ele>329.4</ele>
        <time>2022-10-15 15:15:29</time>
      </trkpt>
      <trkpt lat="38.45559" lon="-0.80271">
        <ele>329.4</ele>
        <time>2022-10-15 15:15:30</time>
      </trkpt>
      <trkpt lat="38.45555" lon="-0.8027">
        <ele>329.4</ele>
        <time>2022-10-15 15:15:31</time>
      </trkpt>
      <trkpt lat="38.45555" lon="-0.8027">
        <ele>329.4</ele>
        <time>2022-10-15 15:15:32</time>
      </trkpt>
      <trkpt lat="38.45537" lon="-0.80268">
        <ele>329.4</ele>
        <time>2022-10-15 15:15:35</time>
      </trkpt>
      <trkpt lat="38.45526" lon="-0.80267">
        <ele>329.4</ele>
        <time>2022-10-15 15:15:37</time>
      </trkpt>
      <trkpt lat="38.45526" lon="-0.80267">
        <ele>329.4</ele>
        <time>2022-10-15 15:15:38</time>
      </trkpt>
      <trkpt lat="38.45516" lon="-0.80266">
        <ele>329.4</ele>
        <time>2022-10-15 15:15:39</time>
      </trkpt>
      <trkpt lat="38.4551" lon="-0.80265">
        <ele>329.2</ele>
        <time>2022-10-15 15:15:40</time>
      </trkpt>
      <trkpt lat="38.45505" lon="-0.80263">
        <ele>329.2</ele>
        <time>2022-10-15 15:15:41</time>
      </trkpt>
      <trkpt lat="38.455" lon="-0.80262">
        <ele>329</ele>
        <time>2022-10-15 15:15:42</time>
      </trkpt>
      <trkpt lat="38.45494" lon="-0.80261">
        <ele>329</ele>
        <time>2022-10-15 15:15:43</time>
      </trkpt>
      <trkpt lat="38.45478" lon="-0.80258">
        <ele>328.8</ele>
        <time>2022-10-15 15:15:46</time>
      </trkpt>
      <trkpt lat="38.45472" lon="-0.80257">
        <ele>328.8</ele>
        <time>2022-10-15 15:15:47</time>
      </trkpt>
      <trkpt lat="38.45467" lon="-0.80256">
        <ele>328.4</ele>
        <time>2022-10-15 15:15:48</time>
      </trkpt>
      <trkpt lat="38.45462" lon="-0.80255">
        <ele>328.2</ele>
        <time>2022-10-15 15:15:49</time>
      </trkpt>
      <trkpt lat="38.45451" lon="-0.80253">
        <ele>328</ele>
        <time>2022-10-15 15:15:51</time>
      </trkpt>
      <trkpt lat="38.45446" lon="-0.80252">
        <ele>328</ele>
        <time>2022-10-15 15:15:52</time>
      </trkpt>
      <trkpt lat="38.45441" lon="-0.80252">
        <ele>328</ele>
        <time>2022-10-15 15:15:53</time>
      </trkpt>
      <trkpt lat="38.45436" lon="-0.80251">
        <ele>328</ele>
        <time>2022-10-15 15:15:54</time>
      </trkpt>
      <trkpt lat="38.45431" lon="-0.80251">
        <ele>328</ele>
        <time>2022-10-15 15:15:55</time>
      </trkpt>
      <trkpt lat="38.45421" lon="-0.80252">
        <ele>327.8</ele>
        <time>2022-10-15 15:15:57</time>
      </trkpt>
      <trkpt lat="38.45407" lon="-0.80257">
        <ele>327.8</ele>
        <time>2022-10-15 15:16:00</time>
      </trkpt>
      <trkpt lat="38.45404" lon="-0.8026">
        <ele>328.2</ele>
        <time>2022-10-15 15:16:02</time>
      </trkpt>
      <trkpt lat="38.45398" lon="-0.80264">
        <ele>328.2</ele>
        <time>2022-10-15 15:16:03</time>
      </trkpt>
      <trkpt lat="38.45392" lon="-0.80268">
        <ele>328.4</ele>
        <time>2022-10-15 15:16:05</time>
      </trkpt>
      <trkpt lat="38.45387" lon="-0.80271">
        <ele>328.6</ele>
        <time>2022-10-15 15:16:06</time>
      </trkpt>
      <trkpt lat="38.45383" lon="-0.80275">
        <ele>328.6</ele>
        <time>2022-10-15 15:16:07</time>
      </trkpt>
      <trkpt lat="38.45383" lon="-0.80275">
        <ele>328.6</ele>
        <time>2022-10-15 15:16:08</time>
      </trkpt>
      <trkpt lat="38.45373" lon="-0.80286">
        <ele>328.6</ele>
        <time>2022-10-15 15:16:09</time>
      </trkpt>
      <trkpt lat="38.45362" lon="-0.80296">
        <ele>328.6</ele>
        <time>2022-10-15 15:16:11</time>
      </trkpt>
      <trkpt lat="38.45357" lon="-0.80301">
        <ele>328.6</ele>
        <time>2022-10-15 15:16:12</time>
      </trkpt>
      <trkpt lat="38.45352" lon="-0.80305">
        <ele>328.6</ele>
        <time>2022-10-15 15:16:13</time>
      </trkpt>
      <trkpt lat="38.45352" lon="-0.80305">
        <ele>328.4</ele>
        <time>2022-10-15 15:16:14</time>
      </trkpt>
      <trkpt lat="38.45334" lon="-0.80323">
        <ele>327.8</ele>
        <time>2022-10-15 15:16:17</time>
      </trkpt>
      <trkpt lat="38.45332" lon="-0.80327">
        <ele>327.6</ele>
        <time>2022-10-15 15:16:18</time>
      </trkpt>
      <trkpt lat="38.45329" lon="-0.8033">
        <ele>327.6</ele>
        <time>2022-10-15 15:16:19</time>
      </trkpt>
      <trkpt lat="38.45329" lon="-0.8033">
        <ele>327.6</ele>
        <time>2022-10-15 15:16:20</time>
      </trkpt>
      <trkpt lat="38.45324" lon="-0.80337">
        <ele>327.2</ele>
        <time>2022-10-15 15:16:21</time>
      </trkpt>
      <trkpt lat="38.4532" lon="-0.80342">
        <ele>327</ele>
        <time>2022-10-15 15:16:22</time>
      </trkpt>
      <trkpt lat="38.45316" lon="-0.80347">
        <ele>326.8</ele>
        <time>2022-10-15 15:16:23</time>
      </trkpt>
      <trkpt lat="38.45309" lon="-0.80358">
        <ele>326.4</ele>
        <time>2022-10-15 15:16:25</time>
      </trkpt>
      <trkpt lat="38.45309" lon="-0.80358">
        <ele>326.4</ele>
        <time>2022-10-15 15:16:26</time>
      </trkpt>
      <trkpt lat="38.45298" lon="-0.80374">
        <ele>326.2</ele>
        <time>2022-10-15 15:16:28</time>
      </trkpt>
      <trkpt lat="38.45294" lon="-0.80379">
        <ele>326.2</ele>
        <time>2022-10-15 15:16:29</time>
      </trkpt>
      <trkpt lat="38.4529" lon="-0.80383">
        <ele>326.2</ele>
        <time>2022-10-15 15:16:30</time>
      </trkpt>
      <trkpt lat="38.45286" lon="-0.80387">
        <ele>326.2</ele>
        <time>2022-10-15 15:16:31</time>
      </trkpt>
      <trkpt lat="38.45278" lon="-0.80395">
        <ele>326.2</ele>
        <time>2022-10-15 15:16:33</time>
      </trkpt>
      <trkpt lat="38.45274" lon="-0.80399">
        <ele>326.2</ele>
        <time>2022-10-15 15:16:34</time>
      </trkpt>
      <trkpt lat="38.4527" lon="-0.80402">
        <ele>326.2</ele>
        <time>2022-10-15 15:16:35</time>
      </trkpt>
      <trkpt lat="38.45266" lon="-0.80406">
        <ele>326.2</ele>
        <time>2022-10-15 15:16:36</time>
      </trkpt>
      <trkpt lat="38.45261" lon="-0.80409">
        <ele>326.2</ele>
        <time>2022-10-15 15:16:37</time>
      </trkpt>
      <trkpt lat="38.45252" lon="-0.80414">
        <ele>326.2</ele>
        <time>2022-10-15 15:16:39</time>
      </trkpt>
      <trkpt lat="38.45247" lon="-0.80416">
        <ele>326</ele>
        <time>2022-10-15 15:16:40</time>
      </trkpt>
      <trkpt lat="38.45242" lon="-0.80418">
        <ele>326</ele>
        <time>2022-10-15 15:16:41</time>
      </trkpt>
      <trkpt lat="38.45236" lon="-0.80419">
        <ele>326</ele>
        <time>2022-10-15 15:16:42</time>
      </trkpt>
      <trkpt lat="38.45231" lon="-0.8042">
        <ele>325.8</ele>
        <time>2022-10-15 15:16:44</time>
      </trkpt>
      <trkpt lat="38.45221" lon="-0.80423">
        <ele>326</ele>
        <time>2022-10-15 15:16:45</time>
      </trkpt>
      <trkpt lat="38.45216" lon="-0.80423">
        <ele>325.6</ele>
        <time>2022-10-15 15:16:46</time>
      </trkpt>
      <trkpt lat="38.4521" lon="-0.80423">
        <ele>325.8</ele>
        <time>2022-10-15 15:16:47</time>
      </trkpt>
      <trkpt lat="38.45205" lon="-0.80421">
        <ele>325.6</ele>
        <time>2022-10-15 15:16:48</time>
      </trkpt>
      <trkpt lat="38.452" lon="-0.8042">
        <ele>325.6</ele>
        <time>2022-10-15 15:16:50</time>
      </trkpt>
      <trkpt lat="38.45189" lon="-0.80417">
        <ele>325.4</ele>
        <time>2022-10-15 15:16:51</time>
      </trkpt>
      <trkpt lat="38.45184" lon="-0.80415">
        <ele>325.4</ele>
        <time>2022-10-15 15:16:52</time>
      </trkpt>
      <trkpt lat="38.45179" lon="-0.80412">
        <ele>325.4</ele>
        <time>2022-10-15 15:16:53</time>
      </trkpt>
      <trkpt lat="38.45168" lon="-0.80408">
        <ele>325.2</ele>
        <time>2022-10-15 15:16:55</time>
      </trkpt>
      <trkpt lat="38.45168" lon="-0.80408">
        <ele>325.2</ele>
        <time>2022-10-15 15:16:56</time>
      </trkpt>
      <trkpt lat="38.45158" lon="-0.80403">
        <ele>325.2</ele>
        <time>2022-10-15 15:16:57</time>
      </trkpt>
      <trkpt lat="38.45153" lon="-0.80399">
        <ele>325.2</ele>
        <time>2022-10-15 15:16:58</time>
      </trkpt>
      <trkpt lat="38.45149" lon="-0.80395">
        <ele>325</ele>
        <time>2022-10-15 15:16:59</time>
      </trkpt>
      <trkpt lat="38.4514" lon="-0.80387">
        <ele>325</ele>
        <time>2022-10-15 15:17:01</time>
      </trkpt>
      <trkpt lat="38.4514" lon="-0.80387">
        <ele>325</ele>
        <time>2022-10-15 15:17:02</time>
      </trkpt>
      <trkpt lat="38.45127" lon="-0.80375">
        <ele>324.6</ele>
        <time>2022-10-15 15:17:04</time>
      </trkpt>
      <trkpt lat="38.45123" lon="-0.80371">
        <ele>324.4</ele>
        <time>2022-10-15 15:17:05</time>
      </trkpt>
      <trkpt lat="38.45118" lon="-0.80367">
        <ele>324.4</ele>
        <time>2022-10-15 15:17:06</time>
      </trkpt>
      <trkpt lat="38.45114" lon="-0.80364">
        <ele>324.2</ele>
        <time>2022-10-15 15:17:07</time>
      </trkpt>
      <trkpt lat="38.45107" lon="-0.80358">
        <ele>324.4</ele>
        <time>2022-10-15 15:17:09</time>
      </trkpt>
      <trkpt lat="38.45104" lon="-0.80354">
        <ele>324.4</ele>
        <time>2022-10-15 15:17:10</time>
      </trkpt>
      <trkpt lat="38.45101" lon="-0.80351">
        <ele>324.4</ele>
        <time>2022-10-15 15:17:11</time>
      </trkpt>
      <trkpt lat="38.451" lon="-0.80346">
        <ele>324.4</ele>
        <time>2022-10-15 15:17:12</time>
      </trkpt>
      <trkpt lat="38.45099" lon="-0.8034">
        <ele>324.2</ele>
        <time>2022-10-15 15:17:13</time>
      </trkpt>
      <trkpt lat="38.45097" lon="-0.80326">
        <ele>324</ele>
        <time>2022-10-15 15:17:15</time>
      </trkpt>
      <trkpt lat="38.45089" lon="-0.8031">
        <ele>324.2</ele>
        <time>2022-10-15 15:17:18</time>
      </trkpt>
      <trkpt lat="38.45076" lon="-0.80303">
        <ele>323.8</ele>
        <time>2022-10-15 15:17:21</time>
      </trkpt>
      <trkpt lat="38.45072" lon="-0.803">
        <ele>323.2</ele>
        <time>2022-10-15 15:17:22</time>
      </trkpt>
      <trkpt lat="38.45068" lon="-0.80298">
        <ele>322.6</ele>
        <time>2022-10-15 15:17:23</time>
      </trkpt>
      <trkpt lat="38.45063" lon="-0.80295">
        <ele>322</ele>
        <time>2022-10-15 15:17:24</time>
      </trkpt>
      <trkpt lat="38.45058" lon="-0.80293">
        <ele>321.6</ele>
        <time>2022-10-15 15:17:25</time>
      </trkpt>
      <trkpt lat="38.45058" lon="-0.80293">
        <ele>321.4</ele>
        <time>2022-10-15 15:17:26</time>
      </trkpt>
      <trkpt lat="38.45047" lon="-0.80289">
        <ele>321</ele>
        <time>2022-10-15 15:17:27</time>
      </trkpt>
      <trkpt lat="38.45041" lon="-0.80287">
        <ele>320.8</ele>
        <time>2022-10-15 15:17:28</time>
      </trkpt>
      <trkpt lat="38.45035" lon="-0.80285">
        <ele>320.8</ele>
        <time>2022-10-15 15:17:29</time>
      </trkpt>
      <trkpt lat="38.45029" lon="-0.80284">
        <ele>320.6</ele>
        <time>2022-10-15 15:17:30</time>
      </trkpt>
      <trkpt lat="38.45023" lon="-0.80282">
        <ele>320.4</ele>
        <time>2022-10-15 15:17:32</time>
      </trkpt>
      <trkpt lat="38.44999" lon="-0.80273">
        <ele>320</ele>
        <time>2022-10-15 15:17:35</time>
      </trkpt>
      <trkpt lat="38.44993" lon="-0.80271">
        <ele>319.6</ele>
        <time>2022-10-15 15:17:36</time>
      </trkpt>
      <trkpt lat="38.44988" lon="-0.80268">
        <ele>319.4</ele>
        <time>2022-10-15 15:17:37</time>
      </trkpt>
      <trkpt lat="38.44988" lon="-0.80268">
        <ele>319.2</ele>
        <time>2022-10-15 15:17:38</time>
      </trkpt>
      <trkpt lat="38.4497" lon="-0.80262">
        <ele>319.2</ele>
        <time>2022-10-15 15:17:40</time>
      </trkpt>
      <trkpt lat="38.44964" lon="-0.80261">
        <ele>319</ele>
        <time>2022-10-15 15:17:41</time>
      </trkpt>
      <trkpt lat="38.44957" lon="-0.80261">
        <ele>319</ele>
        <time>2022-10-15 15:17:42</time>
      </trkpt>
      <trkpt lat="38.44951" lon="-0.80263">
        <ele>319</ele>
        <time>2022-10-15 15:17:43</time>
      </trkpt>
      <trkpt lat="38.44951" lon="-0.80263">
        <ele>319</ele>
        <time>2022-10-15 15:17:44</time>
      </trkpt>
      <trkpt lat="38.44938" lon="-0.80267">
        <ele>319</ele>
        <time>2022-10-15 15:17:45</time>
      </trkpt>
      <trkpt lat="38.44932" lon="-0.8027">
        <ele>319</ele>
        <time>2022-10-15 15:17:46</time>
      </trkpt>
      <trkpt lat="38.44926" lon="-0.80274">
        <ele>319</ele>
        <time>2022-10-15 15:17:47</time>
      </trkpt>
      <trkpt lat="38.44915" lon="-0.80281">
        <ele>319</ele>
        <time>2022-10-15 15:17:49</time>
      </trkpt>
      <trkpt lat="38.44899" lon="-0.80293">
        <ele>319</ele>
        <time>2022-10-15 15:17:52</time>
      </trkpt>
      <trkpt lat="38.44888" lon="-0.80302">
        <ele>319</ele>
        <time>2022-10-15 15:17:54</time>
      </trkpt>
      <trkpt lat="38.44883" lon="-0.80308">
        <ele>319</ele>
        <time>2022-10-15 15:17:55</time>
      </trkpt>
      <trkpt lat="38.44873" lon="-0.80318">
        <ele>319</ele>
        <time>2022-10-15 15:17:57</time>
      </trkpt>
      <trkpt lat="38.44868" lon="-0.80323">
        <ele>319</ele>
        <time>2022-10-15 15:17:58</time>
      </trkpt>
      <trkpt lat="38.44858" lon="-0.80333">
        <ele>319</ele>
        <time>2022-10-15 15:18:00</time>
      </trkpt>
      <trkpt lat="38.44853" lon="-0.80339">
        <ele>318.8</ele>
        <time>2022-10-15 15:18:02</time>
      </trkpt>
      <trkpt lat="38.44843" lon="-0.8035">
        <ele>318.8</ele>
        <time>2022-10-15 15:18:03</time>
      </trkpt>
      <trkpt lat="38.44833" lon="-0.80362">
        <ele>318.6</ele>
        <time>2022-10-15 15:18:05</time>
      </trkpt>
      <trkpt lat="38.44827" lon="-0.80368">
        <ele>318.6</ele>
        <time>2022-10-15 15:18:06</time>
      </trkpt>
      <trkpt lat="38.44822" lon="-0.80374">
        <ele>318.6</ele>
        <time>2022-10-15 15:18:08</time>
      </trkpt>
      <trkpt lat="38.44811" lon="-0.80386">
        <ele>318.2</ele>
        <time>2022-10-15 15:18:09</time>
      </trkpt>
      <trkpt lat="38.448" lon="-0.80397">
        <ele>317.8</ele>
        <time>2022-10-15 15:18:11</time>
      </trkpt>
      <trkpt lat="38.44794" lon="-0.80401">
        <ele>317.8</ele>
        <time>2022-10-15 15:18:12</time>
      </trkpt>
      <trkpt lat="38.44788" lon="-0.80405">
        <ele>317.6</ele>
        <time>2022-10-15 15:18:14</time>
      </trkpt>
      <trkpt lat="38.44776" lon="-0.80412">
        <ele>317.6</ele>
        <time>2022-10-15 15:18:15</time>
      </trkpt>
      <trkpt lat="38.44763" lon="-0.80417">
        <ele>317.4</ele>
        <time>2022-10-15 15:18:17</time>
      </trkpt>
      <trkpt lat="38.4475" lon="-0.80421">
        <ele>317.2</ele>
        <time>2022-10-15 15:18:19</time>
      </trkpt>
      <trkpt lat="38.4475" lon="-0.80421">
        <ele>317.2</ele>
        <time>2022-10-15 15:18:20</time>
      </trkpt>
      <trkpt lat="38.44739" lon="-0.80426">
        <ele>317.2</ele>
        <time>2022-10-15 15:18:21</time>
      </trkpt>
      <trkpt lat="38.44733" lon="-0.80429">
        <ele>317.2</ele>
        <time>2022-10-15 15:18:22</time>
      </trkpt>
      <trkpt lat="38.44729" lon="-0.80433">
        <ele>317</ele>
        <time>2022-10-15 15:18:23</time>
      </trkpt>
      <trkpt lat="38.44724" lon="-0.80437">
        <ele>316.8</ele>
        <time>2022-10-15 15:18:24</time>
      </trkpt>
      <trkpt lat="38.44719" lon="-0.80441">
        <ele>316.8</ele>
        <time>2022-10-15 15:18:25</time>
      </trkpt>
      <trkpt lat="38.44719" lon="-0.80441">
        <ele>316.8</ele>
        <time>2022-10-15 15:18:26</time>
      </trkpt>
      <trkpt lat="38.44707" lon="-0.80452">
        <ele>316.8</ele>
        <time>2022-10-15 15:18:28</time>
      </trkpt>
      <trkpt lat="38.44702" lon="-0.80455">
        <ele>316.8</ele>
        <time>2022-10-15 15:18:29</time>
      </trkpt>
      <trkpt lat="38.44693" lon="-0.80462">
        <ele>317</ele>
        <time>2022-10-15 15:18:31</time>
      </trkpt>
      <trkpt lat="38.44693" lon="-0.80462">
        <ele>317</ele>
        <time>2022-10-15 15:18:32</time>
      </trkpt>
      <trkpt lat="38.44684" lon="-0.8047">
        <ele>317.2</ele>
        <time>2022-10-15 15:18:33</time>
      </trkpt>
      <trkpt lat="38.44679" lon="-0.80474">
        <ele>317.2</ele>
        <time>2022-10-15 15:18:34</time>
      </trkpt>
      <trkpt lat="38.44676" lon="-0.80479">
        <ele>317.2</ele>
        <time>2022-10-15 15:18:35</time>
      </trkpt>
      <trkpt lat="38.44672" lon="-0.80485">
        <ele>317.2</ele>
        <time>2022-10-15 15:18:36</time>
      </trkpt>
      <trkpt lat="38.44668" lon="-0.80489">
        <ele>317.2</ele>
        <time>2022-10-15 15:18:37</time>
      </trkpt>
      <trkpt lat="38.44668" lon="-0.80489">
        <ele>317.2</ele>
        <time>2022-10-15 15:18:38</time>
      </trkpt>
      <trkpt lat="38.44659" lon="-0.80498">
        <ele>317.2</ele>
        <time>2022-10-15 15:18:39</time>
      </trkpt>
      <trkpt lat="38.44654" lon="-0.80501">
        <ele>317</ele>
        <time>2022-10-15 15:18:40</time>
      </trkpt>
      <trkpt lat="38.44643" lon="-0.80508">
        <ele>317</ele>
        <time>2022-10-15 15:18:42</time>
      </trkpt>
      <trkpt lat="38.44638" lon="-0.80512">
        <ele>317</ele>
        <time>2022-10-15 15:18:43</time>
      </trkpt>
      <trkpt lat="38.44638" lon="-0.80512">
        <ele>316.8</ele>
        <time>2022-10-15 15:18:44</time>
      </trkpt>
      <trkpt lat="38.44628" lon="-0.80519">
        <ele>316.6</ele>
        <time>2022-10-15 15:18:45</time>
      </trkpt>
      <trkpt lat="38.44623" lon="-0.80523">
        <ele>316.6</ele>
        <time>2022-10-15 15:18:46</time>
      </trkpt>
      <trkpt lat="38.44613" lon="-0.8053">
        <ele>316.4</ele>
        <time>2022-10-15 15:18:48</time>
      </trkpt>
      <trkpt lat="38.44608" lon="-0.80533">
        <ele>316.2</ele>
        <time>2022-10-15 15:18:50</time>
      </trkpt>
      <trkpt lat="38.44597" lon="-0.8054">
        <ele>316.2</ele>
        <time>2022-10-15 15:18:51</time>
      </trkpt>
      <trkpt lat="38.44586" lon="-0.80549">
        <ele>316</ele>
        <time>2022-10-15 15:18:53</time>
      </trkpt>
      <trkpt lat="38.4458" lon="-0.80553">
        <ele>316</ele>
        <time>2022-10-15 15:18:54</time>
      </trkpt>
      <trkpt lat="38.44574" lon="-0.80557">
        <ele>316</ele>
        <time>2022-10-15 15:18:56</time>
      </trkpt>
      <trkpt lat="38.44563" lon="-0.80564">
        <ele>316</ele>
        <time>2022-10-15 15:18:57</time>
      </trkpt>
      <trkpt lat="38.44557" lon="-0.80568">
        <ele>315.6</ele>
        <time>2022-10-15 15:18:58</time>
      </trkpt>
      <trkpt lat="38.44551" lon="-0.80573">
        <ele>315.2</ele>
        <time>2022-10-15 15:18:59</time>
      </trkpt>
      <trkpt lat="38.44539" lon="-0.80582">
        <ele>314.6</ele>
        <time>2022-10-15 15:19:01</time>
      </trkpt>
      <trkpt lat="38.44539" lon="-0.80582">
        <ele>314.4</ele>
        <time>2022-10-15 15:19:02</time>
      </trkpt>
      <trkpt lat="38.44517" lon="-0.80605">
        <ele>314</ele>
        <time>2022-10-15 15:19:05</time>
      </trkpt>
      <trkpt lat="38.44508" lon="-0.80617">
        <ele>313.4</ele>
        <time>2022-10-15 15:19:07</time>
      </trkpt>
      <trkpt lat="38.44508" lon="-0.80617">
        <ele>313.2</ele>
        <time>2022-10-15 15:19:08</time>
      </trkpt>
      <trkpt lat="38.44499" lon="-0.80629">
        <ele>313.4</ele>
        <time>2022-10-15 15:19:09</time>
      </trkpt>
      <trkpt lat="38.44495" lon="-0.80635">
        <ele>313.4</ele>
        <time>2022-10-15 15:19:10</time>
      </trkpt>
      <trkpt lat="38.4449" lon="-0.80641">
        <ele>313.2</ele>
        <time>2022-10-15 15:19:11</time>
      </trkpt>
      <trkpt lat="38.4448" lon="-0.80651">
        <ele>313</ele>
        <time>2022-10-15 15:19:13</time>
      </trkpt>
      <trkpt lat="38.4448" lon="-0.80651">
        <ele>313</ele>
        <time>2022-10-15 15:19:14</time>
      </trkpt>
      <trkpt lat="38.44464" lon="-0.80666">
        <ele>313</ele>
        <time>2022-10-15 15:19:16</time>
      </trkpt>
      <trkpt lat="38.44449" lon="-0.80682">
        <ele>312.8</ele>
        <time>2022-10-15 15:19:19</time>
      </trkpt>
      <trkpt lat="38.44449" lon="-0.80682">
        <ele>312.8</ele>
        <time>2022-10-15 15:19:20</time>
      </trkpt>
      <trkpt lat="38.44441" lon="-0.80696">
        <ele>312.8</ele>
        <time>2022-10-15 15:19:21</time>
      </trkpt>
      <trkpt lat="38.44436" lon="-0.80701">
        <ele>312.8</ele>
        <time>2022-10-15 15:19:22</time>
      </trkpt>
      <trkpt lat="38.44431" lon="-0.80706">
        <ele>312.8</ele>
        <time>2022-10-15 15:19:23</time>
      </trkpt>
      <trkpt lat="38.44426" lon="-0.8071">
        <ele>312.6</ele>
        <time>2022-10-15 15:19:24</time>
      </trkpt>
      <trkpt lat="38.4442" lon="-0.80714">
        <ele>312.6</ele>
        <time>2022-10-15 15:19:25</time>
      </trkpt>
      <trkpt lat="38.4442" lon="-0.80714">
        <ele>312.6</ele>
        <time>2022-10-15 15:19:26</time>
      </trkpt>
      <trkpt lat="38.44408" lon="-0.80722">
        <ele>312.6</ele>
        <time>2022-10-15 15:19:27</time>
      </trkpt>
      <trkpt lat="38.44403" lon="-0.80727">
        <ele>312.4</ele>
        <time>2022-10-15 15:19:28</time>
      </trkpt>
      <trkpt lat="38.44391" lon="-0.80735">
        <ele>312.4</ele>
        <time>2022-10-15 15:19:30</time>
      </trkpt>
      <trkpt lat="38.44385" lon="-0.8074">
        <ele>312.4</ele>
        <time>2022-10-15 15:19:31</time>
      </trkpt>
      <trkpt lat="38.44385" lon="-0.8074">
        <ele>312.4</ele>
        <time>2022-10-15 15:19:32</time>
      </trkpt>
      <trkpt lat="38.44373" lon="-0.80748">
        <ele>312</ele>
        <time>2022-10-15 15:19:33</time>
      </trkpt>
      <trkpt lat="38.44367" lon="-0.80752">
        <ele>311.6</ele>
        <time>2022-10-15 15:19:34</time>
      </trkpt>
      <trkpt lat="38.44361" lon="-0.80756">
        <ele>311.4</ele>
        <time>2022-10-15 15:19:35</time>
      </trkpt>
      <trkpt lat="38.44355" lon="-0.8076">
        <ele>311.2</ele>
        <time>2022-10-15 15:19:36</time>
      </trkpt>
      <trkpt lat="38.44349" lon="-0.80764">
        <ele>311.2</ele>
        <time>2022-10-15 15:19:38</time>
      </trkpt>
      <trkpt lat="38.44335" lon="-0.80772">
        <ele>311</ele>
        <time>2022-10-15 15:19:39</time>
      </trkpt>
      <trkpt lat="38.44322" lon="-0.80779">
        <ele>310.8</ele>
        <time>2022-10-15 15:19:41</time>
      </trkpt>
      <trkpt lat="38.44315" lon="-0.80783">
        <ele>310.8</ele>
        <time>2022-10-15 15:19:42</time>
      </trkpt>
      <trkpt lat="38.44309" lon="-0.80787">
        <ele>310.6</ele>
        <time>2022-10-15 15:19:44</time>
      </trkpt>
      <trkpt lat="38.44297" lon="-0.80797">
        <ele>310.6</ele>
        <time>2022-10-15 15:19:45</time>
      </trkpt>
      <trkpt lat="38.44292" lon="-0.80801">
        <ele>310.6</ele>
        <time>2022-10-15 15:19:46</time>
      </trkpt>
      <trkpt lat="38.44285" lon="-0.80804">
        <ele>310.6</ele>
        <time>2022-10-15 15:19:47</time>
      </trkpt>
      <trkpt lat="38.44272" lon="-0.8081">
        <ele>310.6</ele>
        <time>2022-10-15 15:19:49</time>
      </trkpt>
      <trkpt lat="38.44272" lon="-0.8081">
        <ele>310.6</ele>
        <time>2022-10-15 15:19:50</time>
      </trkpt>
      <trkpt lat="38.4426" lon="-0.8082">
        <ele>310.6</ele>
        <time>2022-10-15 15:19:51</time>
      </trkpt>
      <trkpt lat="38.44254" lon="-0.80825">
        <ele>310.6</ele>
        <time>2022-10-15 15:19:52</time>
      </trkpt>
      <trkpt lat="38.4425" lon="-0.80831">
        <ele>310.4</ele>
        <time>2022-10-15 15:19:53</time>
      </trkpt>
      <trkpt lat="38.44245" lon="-0.80838">
        <ele>310.2</ele>
        <time>2022-10-15 15:19:54</time>
      </trkpt>
      <trkpt lat="38.44241" lon="-0.80844">
        <ele>310</ele>
        <time>2022-10-15 15:19:55</time>
      </trkpt>
      <trkpt lat="38.44241" lon="-0.80844">
        <ele>310.2</ele>
        <time>2022-10-15 15:19:56</time>
      </trkpt>
      <trkpt lat="38.44232" lon="-0.80856">
        <ele>310.2</ele>
        <time>2022-10-15 15:19:57</time>
      </trkpt>
      <trkpt lat="38.44228" lon="-0.80862">
        <ele>309.8</ele>
        <time>2022-10-15 15:19:58</time>
      </trkpt>
      <trkpt lat="38.44224" lon="-0.80868">
        <ele>309.6</ele>
        <time>2022-10-15 15:19:59</time>
      </trkpt>
      <trkpt lat="38.4422" lon="-0.80874">
        <ele>309.4</ele>
        <time>2022-10-15 15:20:00</time>
      </trkpt>
      <trkpt lat="38.44216" lon="-0.8088">
        <ele>309.4</ele>
        <time>2022-10-15 15:20:01</time>
      </trkpt>
      <trkpt lat="38.44216" lon="-0.8088">
        <ele>309.2</ele>
        <time>2022-10-15 15:20:02</time>
      </trkpt>
      <trkpt lat="38.44206" lon="-0.80891">
        <ele>309.2</ele>
        <time>2022-10-15 15:20:03</time>
      </trkpt>
      <trkpt lat="38.442" lon="-0.80895">
        <ele>309</ele>
        <time>2022-10-15 15:20:04</time>
      </trkpt>
      <trkpt lat="38.44189" lon="-0.80904">
        <ele>309</ele>
        <time>2022-10-15 15:20:06</time>
      </trkpt>
      <trkpt lat="38.44184" lon="-0.80908">
        <ele>309</ele>
        <time>2022-10-15 15:20:07</time>
      </trkpt>
      <trkpt lat="38.44172" lon="-0.80916">
        <ele>309</ele>
        <time>2022-10-15 15:20:09</time>
      </trkpt>
      <trkpt lat="38.44167" lon="-0.8092">
        <ele>309</ele>
        <time>2022-10-15 15:20:10</time>
      </trkpt>
      <trkpt lat="38.44156" lon="-0.80928">
        <ele>308.8</ele>
        <time>2022-10-15 15:20:12</time>
      </trkpt>
      <trkpt lat="38.44151" lon="-0.80933">
        <ele>308.8</ele>
        <time>2022-10-15 15:20:13</time>
      </trkpt>
      <trkpt lat="38.44141" lon="-0.80942">
        <ele>308.6</ele>
        <time>2022-10-15 15:20:15</time>
      </trkpt>
      <trkpt lat="38.44136" lon="-0.80947">
        <ele>308.2</ele>
        <time>2022-10-15 15:20:16</time>
      </trkpt>
      <trkpt lat="38.44131" lon="-0.80951">
        <ele>308</ele>
        <time>2022-10-15 15:20:17</time>
      </trkpt>
      <trkpt lat="38.44126" lon="-0.80954">
        <ele>307.8</ele>
        <time>2022-10-15 15:20:18</time>
      </trkpt>
      <trkpt lat="38.44121" lon="-0.80958">
        <ele>307.8</ele>
        <time>2022-10-15 15:20:19</time>
      </trkpt>
      <trkpt lat="38.44113" lon="-0.80967">
        <ele>307.6</ele>
        <time>2022-10-15 15:20:21</time>
      </trkpt>
      <trkpt lat="38.44111" lon="-0.80973">
        <ele>307.6</ele>
        <time>2022-10-15 15:20:22</time>
      </trkpt>
      <trkpt lat="38.44111" lon="-0.80979">
        <ele>307.6</ele>
        <time>2022-10-15 15:20:23</time>
      </trkpt>
      <trkpt lat="38.44112" lon="-0.80985">
        <ele>307.6</ele>
        <time>2022-10-15 15:20:24</time>
      </trkpt>
      <trkpt lat="38.44114" lon="-0.80991">
        <ele>307.6</ele>
        <time>2022-10-15 15:20:26</time>
      </trkpt>
      <trkpt lat="38.4412" lon="-0.81002">
        <ele>307.8</ele>
        <time>2022-10-15 15:20:27</time>
      </trkpt>
      <trkpt lat="38.44122" lon="-0.81008">
        <ele>307.8</ele>
        <time>2022-10-15 15:20:28</time>
      </trkpt>
      <trkpt lat="38.44125" lon="-0.81012">
        <ele>308</ele>
        <time>2022-10-15 15:20:29</time>
      </trkpt>
      <trkpt lat="38.44128" lon="-0.81017">
        <ele>308</ele>
        <time>2022-10-15 15:20:30</time>
      </trkpt>
      <trkpt lat="38.44131" lon="-0.81022">
        <ele>308.2</ele>
        <time>2022-10-15 15:20:32</time>
      </trkpt>
      <trkpt lat="38.44137" lon="-0.81031">
        <ele>308.2</ele>
        <time>2022-10-15 15:20:33</time>
      </trkpt>
      <trkpt lat="38.4414" lon="-0.81034">
        <ele>308</ele>
        <time>2022-10-15 15:20:34</time>
      </trkpt>
      <trkpt lat="38.44142" lon="-0.81037">
        <ele>308.4</ele>
        <time>2022-10-15 15:20:35</time>
      </trkpt>
      <trkpt lat="38.44146" lon="-0.81042">
        <ele>308.8</ele>
        <time>2022-10-15 15:20:38</time>
      </trkpt>
      <trkpt lat="38.4415" lon="-0.81049">
        <ele>309</ele>
        <time>2022-10-15 15:20:40</time>
      </trkpt>
      <trkpt lat="38.44151" lon="-0.81052">
        <ele>309</ele>
        <time>2022-10-15 15:20:41</time>
      </trkpt>
      <trkpt lat="38.44151" lon="-0.81057">
        <ele>309.8</ele>
        <time>2022-10-15 15:20:43</time>
      </trkpt>
      <trkpt lat="38.44151" lon="-0.81057">
        <ele>310</ele>
        <time>2022-10-15 15:20:44</time>
      </trkpt>
      <trkpt lat="38.4415" lon="-0.81062">
        <ele>310.2</ele>
        <time>2022-10-15 15:20:45</time>
      </trkpt>
      <trkpt lat="38.44148" lon="-0.81064">
        <ele>310.6</ele>
        <time>2022-10-15 15:20:46</time>
      </trkpt>
      <trkpt lat="38.44147" lon="-0.81067">
        <ele>311</ele>
        <time>2022-10-15 15:20:47</time>
      </trkpt>
      <trkpt lat="38.44142" lon="-0.81071">
        <ele>311.4</ele>
        <time>2022-10-15 15:20:49</time>
      </trkpt>
      <trkpt lat="38.44142" lon="-0.81071">
        <ele>312</ele>
        <time>2022-10-15 15:20:50</time>
      </trkpt>
      <trkpt lat="38.44133" lon="-0.81079">
        <ele>312.2</ele>
        <time>2022-10-15 15:20:52</time>
      </trkpt>
      <trkpt lat="38.44122" lon="-0.81088">
        <ele>312.6</ele>
        <time>2022-10-15 15:20:55</time>
      </trkpt>
      <trkpt lat="38.44115" lon="-0.81095">
        <ele>312.6</ele>
        <time>2022-10-15 15:20:57</time>
      </trkpt>
      <trkpt lat="38.44112" lon="-0.81099">
        <ele>312.6</ele>
        <time>2022-10-15 15:20:58</time>
      </trkpt>
      <trkpt lat="38.44108" lon="-0.81103">
        <ele>312.8</ele>
        <time>2022-10-15 15:20:59</time>
      </trkpt>
      <trkpt lat="38.44105" lon="-0.81107">
        <ele>312.8</ele>
        <time>2022-10-15 15:21:00</time>
      </trkpt>
      <trkpt lat="38.44102" lon="-0.8111">
        <ele>312.8</ele>
        <time>2022-10-15 15:21:01</time>
      </trkpt>
      <trkpt lat="38.44095" lon="-0.81116">
        <ele>312.8</ele>
        <time>2022-10-15 15:21:03</time>
      </trkpt>
      <trkpt lat="38.44092" lon="-0.81119">
        <ele>312.8</ele>
        <time>2022-10-15 15:21:04</time>
      </trkpt>
      <trkpt lat="38.44086" lon="-0.81126">
        <ele>312.8</ele>
        <time>2022-10-15 15:21:06</time>
      </trkpt>
      <trkpt lat="38.44084" lon="-0.81131">
        <ele>312.8</ele>
        <time>2022-10-15 15:21:08</time>
      </trkpt>
      <trkpt lat="38.44083" lon="-0.8114">
        <ele>312.8</ele>
        <time>2022-10-15 15:21:09</time>
      </trkpt>
      <trkpt lat="38.44083" lon="-0.81144">
        <ele>313</ele>
        <time>2022-10-15 15:21:10</time>
      </trkpt>
      <trkpt lat="38.44084" lon="-0.81149">
        <ele>313</ele>
        <time>2022-10-15 15:21:11</time>
      </trkpt>
      <trkpt lat="38.44084" lon="-0.81154">
        <ele>313.2</ele>
        <time>2022-10-15 15:21:12</time>
      </trkpt>
      <trkpt lat="38.44085" lon="-0.81158">
        <ele>313.4</ele>
        <time>2022-10-15 15:21:14</time>
      </trkpt>
      <trkpt lat="38.44086" lon="-0.81166">
        <ele>313.6</ele>
        <time>2022-10-15 15:21:15</time>
      </trkpt>
      <trkpt lat="38.44085" lon="-0.81175">
        <ele>313.8</ele>
        <time>2022-10-15 15:21:17</time>
      </trkpt>
      <trkpt lat="38.44085" lon="-0.81179">
        <ele>314</ele>
        <time>2022-10-15 15:21:18</time>
      </trkpt>
      <trkpt lat="38.44084" lon="-0.81182">
        <ele>314.2</ele>
        <time>2022-10-15 15:21:20</time>
      </trkpt>
      <trkpt lat="38.44081" lon="-0.81198">
        <ele>315</ele>
        <time>2022-10-15 15:21:23</time>
      </trkpt>
      <trkpt lat="38.4408" lon="-0.81202">
        <ele>315.4</ele>
        <time>2022-10-15 15:21:24</time>
      </trkpt>
      <trkpt lat="38.44079" lon="-0.81206">
        <ele>315.4</ele>
        <time>2022-10-15 15:21:25</time>
      </trkpt>
      <trkpt lat="38.44079" lon="-0.81206">
        <ele>315.6</ele>
        <time>2022-10-15 15:21:26</time>
      </trkpt>
      <trkpt lat="38.44076" lon="-0.81213">
        <ele>315.6</ele>
        <time>2022-10-15 15:21:27</time>
      </trkpt>
      <trkpt lat="38.44073" lon="-0.81221">
        <ele>315.8</ele>
        <time>2022-10-15 15:21:29</time>
      </trkpt>
      <trkpt lat="38.44069" lon="-0.81229">
        <ele>316</ele>
        <time>2022-10-15 15:21:31</time>
      </trkpt>
      <trkpt lat="38.44069" lon="-0.81229">
        <ele>316</ele>
        <time>2022-10-15 15:21:32</time>
      </trkpt>
      <trkpt lat="38.44062" lon="-0.81242">
        <ele>316.2</ele>
        <time>2022-10-15 15:21:34</time>
      </trkpt>
      <trkpt lat="38.44059" lon="-0.81247">
        <ele>316.4</ele>
        <time>2022-10-15 15:21:35</time>
      </trkpt>
      <trkpt lat="38.44052" lon="-0.81258">
        <ele>316.4</ele>
        <time>2022-10-15 15:21:37</time>
      </trkpt>
      <trkpt lat="38.4404" lon="-0.81277">
        <ele>316.4</ele>
        <time>2022-10-15 15:21:40</time>
      </trkpt>
      <trkpt lat="38.44032" lon="-0.8129">
        <ele>316.4</ele>
        <time>2022-10-15 15:21:42</time>
      </trkpt>
      <trkpt lat="38.4403" lon="-0.81298">
        <ele>316.4</ele>
        <time>2022-10-15 15:21:43</time>
      </trkpt>
      <trkpt lat="38.4403" lon="-0.81298">
        <ele>316</ele>
        <time>2022-10-15 15:21:44</time>
      </trkpt>
      <trkpt lat="38.44031" lon="-0.81314">
        <ele>314.8</ele>
        <time>2022-10-15 15:21:45</time>
      </trkpt>
      <trkpt lat="38.44032" lon="-0.81322">
        <ele>314.2</ele>
        <time>2022-10-15 15:21:46</time>
      </trkpt>
      <trkpt lat="38.44033" lon="-0.81329">
        <ele>313.8</ele>
        <time>2022-10-15 15:21:47</time>
      </trkpt>
      <trkpt lat="38.44034" lon="-0.81337">
        <ele>313.6</ele>
        <time>2022-10-15 15:21:48</time>
      </trkpt>
      <trkpt lat="38.44035" lon="-0.81344">
        <ele>313.4</ele>
        <time>2022-10-15 15:21:49</time>
      </trkpt>
      <trkpt lat="38.44036" lon="-0.81358">
        <ele>313.2</ele>
        <time>2022-10-15 15:21:51</time>
      </trkpt>
      <trkpt lat="38.44034" lon="-0.81371">
        <ele>313.2</ele>
        <time>2022-10-15 15:21:53</time>
      </trkpt>
      <trkpt lat="38.44031" lon="-0.81377">
        <ele>313</ele>
        <time>2022-10-15 15:21:54</time>
      </trkpt>
      <trkpt lat="38.44028" lon="-0.81383">
        <ele>313</ele>
        <time>2022-10-15 15:21:56</time>
      </trkpt>
      <trkpt lat="38.44022" lon="-0.81395">
        <ele>313</ele>
        <time>2022-10-15 15:21:57</time>
      </trkpt>
      <trkpt lat="38.44019" lon="-0.814">
        <ele>313.2</ele>
        <time>2022-10-15 15:21:58</time>
      </trkpt>
      <trkpt lat="38.44016" lon="-0.81404">
        <ele>313.2</ele>
        <time>2022-10-15 15:21:59</time>
      </trkpt>
      <trkpt lat="38.44011" lon="-0.81405">
        <ele>313.2</ele>
        <time>2022-10-15 15:22:00</time>
      </trkpt>
      <trkpt lat="38.44007" lon="-0.81404">
        <ele>313.2</ele>
        <time>2022-10-15 15:22:01</time>
      </trkpt>
      <trkpt lat="38.44007" lon="-0.81404">
        <ele>313.2</ele>
        <time>2022-10-15 15:22:02</time>
      </trkpt>
      <trkpt lat="38.44001" lon="-0.81397">
        <ele>313.2</ele>
        <time>2022-10-15 15:22:03</time>
      </trkpt>
      <trkpt lat="38.43997" lon="-0.81387">
        <ele>313.2</ele>
        <time>2022-10-15 15:22:05</time>
      </trkpt>
      <trkpt lat="38.43995" lon="-0.81383">
        <ele>313.2</ele>
        <time>2022-10-15 15:22:06</time>
      </trkpt>
      <trkpt lat="38.43992" lon="-0.81379">
        <ele>313</ele>
        <time>2022-10-15 15:22:07</time>
      </trkpt>
      <trkpt lat="38.43992" lon="-0.81379">
        <ele>313</ele>
        <time>2022-10-15 15:22:08</time>
      </trkpt>
      <trkpt lat="38.43986" lon="-0.81371">
        <ele>312.8</ele>
        <time>2022-10-15 15:22:09</time>
      </trkpt>
      <trkpt lat="38.4398" lon="-0.81364">
        <ele>312.2</ele>
        <time>2022-10-15 15:22:11</time>
      </trkpt>
      <trkpt lat="38.43973" lon="-0.81357">
        <ele>312</ele>
        <time>2022-10-15 15:22:14</time>
      </trkpt>
      <trkpt lat="38.43964" lon="-0.81346">
        <ele>312</ele>
        <time>2022-10-15 15:22:16</time>
      </trkpt>
      <trkpt lat="38.43961" lon="-0.81342">
        <ele>312</ele>
        <time>2022-10-15 15:22:17</time>
      </trkpt>
      <trkpt lat="38.43957" lon="-0.81338">
        <ele>312</ele>
        <time>2022-10-15 15:22:18</time>
      </trkpt>
      <trkpt lat="38.43953" lon="-0.81335">
        <ele>312</ele>
        <time>2022-10-15 15:22:19</time>
      </trkpt>
      <trkpt lat="38.43953" lon="-0.81335">
        <ele>312</ele>
        <time>2022-10-15 15:22:20</time>
      </trkpt>
      <trkpt lat="38.43946" lon="-0.81327">
        <ele>312</ele>
        <time>2022-10-15 15:22:21</time>
      </trkpt>
      <trkpt lat="38.43943" lon="-0.81324">
        <ele>312</ele>
        <time>2022-10-15 15:22:22</time>
      </trkpt>
      <trkpt lat="38.43934" lon="-0.81312">
        <ele>312</ele>
        <time>2022-10-15 15:22:25</time>
      </trkpt>
      <trkpt lat="38.43927" lon="-0.81303">
        <ele>312</ele>
        <time>2022-10-15 15:22:27</time>
      </trkpt>
      <trkpt lat="38.43923" lon="-0.81299">
        <ele>312</ele>
        <time>2022-10-15 15:22:28</time>
      </trkpt>
      <trkpt lat="38.43914" lon="-0.81289">
        <ele>312</ele>
        <time>2022-10-15 15:22:30</time>
      </trkpt>
      <trkpt lat="38.43909" lon="-0.81284">
        <ele>311.8</ele>
        <time>2022-10-15 15:22:31</time>
      </trkpt>
      <trkpt lat="38.43905" lon="-0.81279">
        <ele>311.6</ele>
        <time>2022-10-15 15:22:32</time>
      </trkpt>
      <trkpt lat="38.439" lon="-0.81274">
        <ele>311.4</ele>
        <time>2022-10-15 15:22:33</time>
      </trkpt>
      <trkpt lat="38.43895" lon="-0.81268">
        <ele>311.2</ele>
        <time>2022-10-15 15:22:34</time>
      </trkpt>
      <trkpt lat="38.4389" lon="-0.81263">
        <ele>311.2</ele>
        <time>2022-10-15 15:22:35</time>
      </trkpt>
      <trkpt lat="38.43885" lon="-0.81258">
        <ele>311</ele>
        <time>2022-10-15 15:22:36</time>
      </trkpt>
      <trkpt lat="38.4388" lon="-0.81253">
        <ele>311</ele>
        <time>2022-10-15 15:22:37</time>
      </trkpt>
      <trkpt lat="38.4388" lon="-0.81253">
        <ele>310.6</ele>
        <time>2022-10-15 15:22:38</time>
      </trkpt>
      <trkpt lat="38.4387" lon="-0.81244">
        <ele>310.4</ele>
        <time>2022-10-15 15:22:39</time>
      </trkpt>
      <trkpt lat="38.43865" lon="-0.81239">
        <ele>309.6</ele>
        <time>2022-10-15 15:22:40</time>
      </trkpt>
      <trkpt lat="38.4386" lon="-0.81234">
        <ele>309.4</ele>
        <time>2022-10-15 15:22:41</time>
      </trkpt>
      <trkpt lat="38.43855" lon="-0.81229">
        <ele>308.8</ele>
        <time>2022-10-15 15:22:42</time>
      </trkpt>
      <trkpt lat="38.43849" lon="-0.81225">
        <ele>307.8</ele>
        <time>2022-10-15 15:22:43</time>
      </trkpt>
      <trkpt lat="38.43849" lon="-0.81225">
        <ele>307.2</ele>
        <time>2022-10-15 15:22:44</time>
      </trkpt>
      <trkpt lat="38.43838" lon="-0.81216">
        <ele>307</ele>
        <time>2022-10-15 15:22:45</time>
      </trkpt>
      <trkpt lat="38.43832" lon="-0.81211">
        <ele>306.8</ele>
        <time>2022-10-15 15:22:46</time>
      </trkpt>
      <trkpt lat="38.43826" lon="-0.81205">
        <ele>306.6</ele>
        <time>2022-10-15 15:22:47</time>
      </trkpt>
      <trkpt lat="38.4382" lon="-0.81199">
        <ele>306.6</ele>
        <time>2022-10-15 15:22:48</time>
      </trkpt>
      <trkpt lat="38.43816" lon="-0.81192">
        <ele>306.4</ele>
        <time>2022-10-15 15:22:49</time>
      </trkpt>
      <trkpt lat="38.43816" lon="-0.81192">
        <ele>306.2</ele>
        <time>2022-10-15 15:22:50</time>
      </trkpt>
      <trkpt lat="38.4381" lon="-0.81176">
        <ele>306</ele>
        <time>2022-10-15 15:22:51</time>
      </trkpt>
      <trkpt lat="38.43808" lon="-0.81169">
        <ele>306</ele>
        <time>2022-10-15 15:22:52</time>
      </trkpt>
      <trkpt lat="38.43808" lon="-0.81163">
        <ele>305.6</ele>
        <time>2022-10-15 15:22:53</time>
      </trkpt>
      <trkpt lat="38.43807" lon="-0.81155">
        <ele>305</ele>
        <time>2022-10-15 15:22:55</time>
      </trkpt>
      <trkpt lat="38.43807" lon="-0.81155">
        <ele>304.6</ele>
        <time>2022-10-15 15:22:56</time>
      </trkpt>
      <trkpt lat="38.43805" lon="-0.8115">
        <ele>303.4</ele>
        <time>2022-10-15 15:22:59</time>
      </trkpt>
      <trkpt lat="38.43806" lon="-0.8115">
        <ele>303.6</ele>
        <time>2022-10-15 15:23:00</time>
      </trkpt>
      <trkpt lat="38.43805" lon="-0.8115">
        <ele>303.4</ele>
        <time>2022-10-15 15:23:01</time>
      </trkpt>
      <trkpt lat="38.43764" lon="-0.81114">
        <ele>301.8</ele>
        <time>2022-10-15 15:24:22</time>
      </trkpt>
      <trkpt lat="38.43762" lon="-0.81113">
        <ele>301.8</ele>
        <time>2022-10-15 15:24:23</time>
      </trkpt>
      <trkpt lat="38.4376" lon="-0.81112">
        <ele>301.6</ele>
        <time>2022-10-15 15:24:24</time>
      </trkpt>
      <trkpt lat="38.43758" lon="-0.81111">
        <ele>301.6</ele>
        <time>2022-10-15 15:24:26</time>
      </trkpt>
      <trkpt lat="38.43749" lon="-0.81109">
        <ele>301.6</ele>
        <time>2022-10-15 15:24:29</time>
      </trkpt>
      <trkpt lat="38.43744" lon="-0.81109">
        <ele>302</ele>
        <time>2022-10-15 15:24:31</time>
      </trkpt>
      <trkpt lat="38.43744" lon="-0.81109">
        <ele>302</ele>
        <time>2022-10-15 15:24:32</time>
      </trkpt>
      <trkpt lat="38.43735" lon="-0.8111">
        <ele>302.2</ele>
        <time>2022-10-15 15:24:34</time>
      </trkpt>
      <trkpt lat="38.43732" lon="-0.81111">
        <ele>302.2</ele>
        <time>2022-10-15 15:24:35</time>
      </trkpt>
      <trkpt lat="38.43727" lon="-0.81115">
        <ele>302.4</ele>
        <time>2022-10-15 15:24:37</time>
      </trkpt>
      <trkpt lat="38.43727" lon="-0.81115">
        <ele>302.4</ele>
        <time>2022-10-15 15:24:38</time>
      </trkpt>
      <trkpt lat="38.43718" lon="-0.8112">
        <ele>302.6</ele>
        <time>2022-10-15 15:24:40</time>
      </trkpt>
      <trkpt lat="38.43715" lon="-0.81122">
        <ele>302.6</ele>
        <time>2022-10-15 15:24:41</time>
      </trkpt>
      <trkpt lat="38.43711" lon="-0.81124">
        <ele>302.6</ele>
        <time>2022-10-15 15:24:42</time>
      </trkpt>
      <trkpt lat="38.43708" lon="-0.81126">
        <ele>302.6</ele>
        <time>2022-10-15 15:24:43</time>
      </trkpt>
      <trkpt lat="38.43708" lon="-0.81126">
        <ele>302.6</ele>
        <time>2022-10-15 15:24:44</time>
      </trkpt>
      <trkpt lat="38.43697" lon="-0.81131">
        <ele>302.6</ele>
        <time>2022-10-15 15:24:46</time>
      </trkpt>
      <trkpt lat="38.4369" lon="-0.81135">
        <ele>302.4</ele>
        <time>2022-10-15 15:24:48</time>
      </trkpt>
      <trkpt lat="38.43686" lon="-0.81136">
        <ele>302.2</ele>
        <time>2022-10-15 15:24:49</time>
      </trkpt>
      <trkpt lat="38.43678" lon="-0.81139">
        <ele>302</ele>
        <time>2022-10-15 15:24:51</time>
      </trkpt>
      <trkpt lat="38.43674" lon="-0.81141">
        <ele>301.8</ele>
        <time>2022-10-15 15:24:52</time>
      </trkpt>
      <trkpt lat="38.43666" lon="-0.81145">
        <ele>301.6</ele>
        <time>2022-10-15 15:24:54</time>
      </trkpt>
      <trkpt lat="38.43661" lon="-0.81147">
        <ele>301.2</ele>
        <time>2022-10-15 15:24:55</time>
      </trkpt>
      <trkpt lat="38.43661" lon="-0.81147">
        <ele>301.2</ele>
        <time>2022-10-15 15:24:56</time>
      </trkpt>
      <trkpt lat="38.43653" lon="-0.81151">
        <ele>301</ele>
        <time>2022-10-15 15:24:57</time>
      </trkpt>
      <trkpt lat="38.43648" lon="-0.81154">
        <ele>301</ele>
        <time>2022-10-15 15:24:58</time>
      </trkpt>
      <trkpt lat="38.43644" lon="-0.81157">
        <ele>301</ele>
        <time>2022-10-15 15:24:59</time>
      </trkpt>
      <trkpt lat="38.4364" lon="-0.81159">
        <ele>301</ele>
        <time>2022-10-15 15:25:00</time>
      </trkpt>
      <trkpt lat="38.43635" lon="-0.81162">
        <ele>301</ele>
        <time>2022-10-15 15:25:01</time>
      </trkpt>
      <trkpt lat="38.43627" lon="-0.81169">
        <ele>301</ele>
        <time>2022-10-15 15:25:03</time>
      </trkpt>
      <trkpt lat="38.43619" lon="-0.81177">
        <ele>301</ele>
        <time>2022-10-15 15:25:05</time>
      </trkpt>
      <trkpt lat="38.43615" lon="-0.8118">
        <ele>301</ele>
        <time>2022-10-15 15:25:06</time>
      </trkpt>
      <trkpt lat="38.43611" lon="-0.81182">
        <ele>301</ele>
        <time>2022-10-15 15:25:08</time>
      </trkpt>
      <trkpt lat="38.43601" lon="-0.81183">
        <ele>301</ele>
        <time>2022-10-15 15:25:09</time>
      </trkpt>
      <trkpt lat="38.43592" lon="-0.81186">
        <ele>301</ele>
        <time>2022-10-15 15:25:11</time>
      </trkpt>
      <trkpt lat="38.43587" lon="-0.81188">
        <ele>301</ele>
        <time>2022-10-15 15:25:12</time>
      </trkpt>
      <trkpt lat="38.43583" lon="-0.81191">
        <ele>300.8</ele>
        <time>2022-10-15 15:25:13</time>
      </trkpt>
      <trkpt lat="38.43583" lon="-0.81191">
        <ele>300.8</ele>
        <time>2022-10-15 15:25:14</time>
      </trkpt>
      <trkpt lat="38.43574" lon="-0.81195">
        <ele>300.8</ele>
        <time>2022-10-15 15:25:15</time>
      </trkpt>
      <trkpt lat="38.43565" lon="-0.81197">
        <ele>300.8</ele>
        <time>2022-10-15 15:25:17</time>
      </trkpt>
      <trkpt lat="38.43554" lon="-0.81199">
        <ele>300.8</ele>
        <time>2022-10-15 15:25:19</time>
      </trkpt>
      <trkpt lat="38.43554" lon="-0.81199">
        <ele>300.8</ele>
        <time>2022-10-15 15:25:20</time>
      </trkpt>
      <trkpt lat="38.43537" lon="-0.81204">
        <ele>300.6</ele>
        <time>2022-10-15 15:25:22</time>
      </trkpt>
      <trkpt lat="38.43531" lon="-0.81206">
        <ele>300.6</ele>
        <time>2022-10-15 15:25:23</time>
      </trkpt>
      <trkpt lat="38.43518" lon="-0.81209">
        <ele>300.6</ele>
        <time>2022-10-15 15:25:25</time>
      </trkpt>
      <trkpt lat="38.43518" lon="-0.81209">
        <ele>300.4</ele>
        <time>2022-10-15 15:25:26</time>
      </trkpt>
      <trkpt lat="38.43506" lon="-0.81214">
        <ele>300</ele>
        <time>2022-10-15 15:25:27</time>
      </trkpt>
      <trkpt lat="38.435" lon="-0.81219">
        <ele>299.6</ele>
        <time>2022-10-15 15:25:28</time>
      </trkpt>
      <trkpt lat="38.43496" lon="-0.81225">
        <ele>299.2</ele>
        <time>2022-10-15 15:25:29</time>
      </trkpt>
      <trkpt lat="38.4349" lon="-0.81237">
        <ele>299</ele>
        <time>2022-10-15 15:25:31</time>
      </trkpt>
      <trkpt lat="38.4349" lon="-0.81237">
        <ele>298.6</ele>
        <time>2022-10-15 15:25:32</time>
      </trkpt>
      <trkpt lat="38.43481" lon="-0.81247">
        <ele>298.2</ele>
        <time>2022-10-15 15:25:33</time>
      </trkpt>
      <trkpt lat="38.43476" lon="-0.8125">
        <ele>298</ele>
        <time>2022-10-15 15:25:34</time>
      </trkpt>
      <trkpt lat="38.43471" lon="-0.81253">
        <ele>297.8</ele>
        <time>2022-10-15 15:25:35</time>
      </trkpt>
      <trkpt lat="38.43466" lon="-0.81256">
        <ele>297.6</ele>
        <time>2022-10-15 15:25:36</time>
      </trkpt>
      <trkpt lat="38.43461" lon="-0.81258">
        <ele>297.6</ele>
        <time>2022-10-15 15:25:37</time>
      </trkpt>
      <trkpt lat="38.4345" lon="-0.8126">
        <ele>297.6</ele>
        <time>2022-10-15 15:25:39</time>
      </trkpt>
      <trkpt lat="38.43444" lon="-0.81261">
        <ele>297.4</ele>
        <time>2022-10-15 15:25:40</time>
      </trkpt>
      <trkpt lat="38.43439" lon="-0.81261">
        <ele>297.4</ele>
        <time>2022-10-15 15:25:41</time>
      </trkpt>
      <trkpt lat="38.43433" lon="-0.8126">
        <ele>297.2</ele>
        <time>2022-10-15 15:25:42</time>
      </trkpt>
      <trkpt lat="38.43429" lon="-0.81258">
        <ele>296.6</ele>
        <time>2022-10-15 15:25:43</time>
      </trkpt>
      <trkpt lat="38.4342" lon="-0.8125">
        <ele>296.2</ele>
        <time>2022-10-15 15:25:45</time>
      </trkpt>
      <trkpt lat="38.43416" lon="-0.81247">
        <ele>296.2</ele>
        <time>2022-10-15 15:25:46</time>
      </trkpt>
      <trkpt lat="38.43408" lon="-0.81241">
        <ele>296.2</ele>
        <time>2022-10-15 15:25:48</time>
      </trkpt>
      <trkpt lat="38.43405" lon="-0.81239">
        <ele>296.2</ele>
        <time>2022-10-15 15:25:50</time>
      </trkpt>
      <trkpt lat="38.43398" lon="-0.81235">
        <ele>296.2</ele>
        <time>2022-10-15 15:25:51</time>
      </trkpt>
      <trkpt lat="38.43394" lon="-0.81233">
        <ele>296.2</ele>
        <time>2022-10-15 15:25:52</time>
      </trkpt>
      <trkpt lat="38.43391" lon="-0.81231">
        <ele>296.2</ele>
        <time>2022-10-15 15:25:53</time>
      </trkpt>
      <trkpt lat="38.43387" lon="-0.8123">
        <ele>296.2</ele>
        <time>2022-10-15 15:25:54</time>
      </trkpt>
      <trkpt lat="38.43383" lon="-0.81228">
        <ele>296.6</ele>
        <time>2022-10-15 15:25:56</time>
      </trkpt>
      <trkpt lat="38.43368" lon="-0.81222">
        <ele>296.6</ele>
        <time>2022-10-15 15:25:59</time>
      </trkpt>
      <trkpt lat="38.43361" lon="-0.81216">
        <ele>296.6</ele>
        <time>2022-10-15 15:26:01</time>
      </trkpt>
      <trkpt lat="38.43361" lon="-0.81216">
        <ele>296.6</ele>
        <time>2022-10-15 15:26:02</time>
      </trkpt>
      <trkpt lat="38.43354" lon="-0.81211">
        <ele>296.6</ele>
        <time>2022-10-15 15:26:03</time>
      </trkpt>
      <trkpt lat="38.4335" lon="-0.81209">
        <ele>296.8</ele>
        <time>2022-10-15 15:26:04</time>
      </trkpt>
      <trkpt lat="38.43345" lon="-0.81207">
        <ele>296.8</ele>
        <time>2022-10-15 15:26:05</time>
      </trkpt>
      <trkpt lat="38.43341" lon="-0.81204">
        <ele>296.8</ele>
        <time>2022-10-15 15:26:06</time>
      </trkpt>
      <trkpt lat="38.43337" lon="-0.81202">
        <ele>296.6</ele>
        <time>2022-10-15 15:26:07</time>
      </trkpt>
      <trkpt lat="38.43337" lon="-0.81202">
        <ele>296.6</ele>
        <time>2022-10-15 15:26:08</time>
      </trkpt>
      <trkpt lat="38.43323" lon="-0.81195">
        <ele>296.2</ele>
        <time>2022-10-15 15:26:10</time>
      </trkpt>
      <trkpt lat="38.4331" lon="-0.81185">
        <ele>296</ele>
        <time>2022-10-15 15:26:13</time>
      </trkpt>
      <trkpt lat="38.4331" lon="-0.81185">
        <ele>296</ele>
        <time>2022-10-15 15:26:14</time>
      </trkpt>
      <trkpt lat="38.43301" lon="-0.8118">
        <ele>296</ele>
        <time>2022-10-15 15:26:15</time>
      </trkpt>
      <trkpt lat="38.43297" lon="-0.81178">
        <ele>295.8</ele>
        <time>2022-10-15 15:26:16</time>
      </trkpt>
      <trkpt lat="38.43288" lon="-0.81175">
        <ele>295.8</ele>
        <time>2022-10-15 15:26:18</time>
      </trkpt>
      <trkpt lat="38.43283" lon="-0.81174">
        <ele>295.8</ele>
        <time>2022-10-15 15:26:19</time>
      </trkpt>
      <trkpt lat="38.43274" lon="-0.81171">
        <ele>295.8</ele>
        <time>2022-10-15 15:26:21</time>
      </trkpt>
      <trkpt lat="38.43271" lon="-0.81168">
        <ele>295.8</ele>
        <time>2022-10-15 15:26:22</time>
      </trkpt>
      <trkpt lat="38.43267" lon="-0.81165">
        <ele>295.8</ele>
        <time>2022-10-15 15:26:23</time>
      </trkpt>
      <trkpt lat="38.43263" lon="-0.81162">
        <ele>295.8</ele>
        <time>2022-10-15 15:26:24</time>
      </trkpt>
      <trkpt lat="38.4325" lon="-0.81155">
        <ele>295.8</ele>
        <time>2022-10-15 15:26:27</time>
      </trkpt>
      <trkpt lat="38.43241" lon="-0.8115">
        <ele>295.8</ele>
        <time>2022-10-15 15:26:29</time>
      </trkpt>
      <trkpt lat="38.43237" lon="-0.81148">
        <ele>295.8</ele>
        <time>2022-10-15 15:26:30</time>
      </trkpt>
      <trkpt lat="38.43232" lon="-0.81146">
        <ele>295.8</ele>
        <time>2022-10-15 15:26:31</time>
      </trkpt>
      <trkpt lat="38.43232" lon="-0.81146">
        <ele>295.8</ele>
        <time>2022-10-15 15:26:32</time>
      </trkpt>
      <trkpt lat="38.43223" lon="-0.81142">
        <ele>295.8</ele>
        <time>2022-10-15 15:26:33</time>
      </trkpt>
      <trkpt lat="38.43215" lon="-0.81135">
        <ele>295.8</ele>
        <time>2022-10-15 15:26:35</time>
      </trkpt>
      <trkpt lat="38.43206" lon="-0.81128">
        <ele>295.8</ele>
        <time>2022-10-15 15:26:37</time>
      </trkpt>
      <trkpt lat="38.43206" lon="-0.81128">
        <ele>295.8</ele>
        <time>2022-10-15 15:26:38</time>
      </trkpt>
      <trkpt lat="38.43192" lon="-0.81117">
        <ele>295.6</ele>
        <time>2022-10-15 15:26:40</time>
      </trkpt>
      <trkpt lat="38.43187" lon="-0.81112">
        <ele>295.8</ele>
        <time>2022-10-15 15:26:41</time>
      </trkpt>
      <trkpt lat="38.43178" lon="-0.81104">
        <ele>295.4</ele>
        <time>2022-10-15 15:26:43</time>
      </trkpt>
      <trkpt lat="38.43178" lon="-0.81104">
        <ele>295.2</ele>
        <time>2022-10-15 15:26:44</time>
      </trkpt>
      <trkpt lat="38.43169" lon="-0.81096">
        <ele>294.8</ele>
        <time>2022-10-15 15:26:45</time>
      </trkpt>
      <trkpt lat="38.43165" lon="-0.81092">
        <ele>294.4</ele>
        <time>2022-10-15 15:26:46</time>
      </trkpt>
      <trkpt lat="38.4316" lon="-0.81088">
        <ele>294.2</ele>
        <time>2022-10-15 15:26:47</time>
      </trkpt>
      <trkpt lat="38.43156" lon="-0.81085">
        <ele>293.4</ele>
        <time>2022-10-15 15:26:48</time>
      </trkpt>
      <trkpt lat="38.43151" lon="-0.81083">
        <ele>293.2</ele>
        <time>2022-10-15 15:26:49</time>
      </trkpt>
      <trkpt lat="38.43142" lon="-0.81075">
        <ele>293</ele>
        <time>2022-10-15 15:26:51</time>
      </trkpt>
      <trkpt lat="38.43137" lon="-0.81071">
        <ele>292.8</ele>
        <time>2022-10-15 15:26:52</time>
      </trkpt>
      <trkpt lat="38.43128" lon="-0.81062">
        <ele>292.8</ele>
        <time>2022-10-15 15:26:54</time>
      </trkpt>
      <trkpt lat="38.43123" lon="-0.81057">
        <ele>292.8</ele>
        <time>2022-10-15 15:26:55</time>
      </trkpt>
      <trkpt lat="38.43113" lon="-0.8105">
        <ele>292.6</ele>
        <time>2022-10-15 15:26:57</time>
      </trkpt>
      <trkpt lat="38.43108" lon="-0.81046">
        <ele>292.6</ele>
        <time>2022-10-15 15:26:58</time>
      </trkpt>
      <trkpt lat="38.43103" lon="-0.81042">
        <ele>292.2</ele>
        <time>2022-10-15 15:26:59</time>
      </trkpt>
      <trkpt lat="38.43098" lon="-0.81038">
        <ele>292</ele>
        <time>2022-10-15 15:27:00</time>
      </trkpt>
      <trkpt lat="38.43093" lon="-0.81034">
        <ele>291.8</ele>
        <time>2022-10-15 15:27:01</time>
      </trkpt>
      <trkpt lat="38.43083" lon="-0.81025">
        <ele>291</ele>
        <time>2022-10-15 15:27:03</time>
      </trkpt>
      <trkpt lat="38.43073" lon="-0.81016">
        <ele>290.4</ele>
        <time>2022-10-15 15:27:05</time>
      </trkpt>
      <trkpt lat="38.43068" lon="-0.81011">
        <ele>290.2</ele>
        <time>2022-10-15 15:27:06</time>
      </trkpt>
      <trkpt lat="38.43063" lon="-0.81006">
        <ele>289.8</ele>
        <time>2022-10-15 15:27:07</time>
      </trkpt>
      <trkpt lat="38.43063" lon="-0.81006">
        <ele>289.4</ele>
        <time>2022-10-15 15:27:08</time>
      </trkpt>
      <trkpt lat="38.43053" lon="-0.80997">
        <ele>289.2</ele>
        <time>2022-10-15 15:27:09</time>
      </trkpt>
      <trkpt lat="38.43043" lon="-0.80988">
        <ele>289</ele>
        <time>2022-10-15 15:27:11</time>
      </trkpt>
      <trkpt lat="38.43038" lon="-0.80984">
        <ele>288.8</ele>
        <time>2022-10-15 15:27:12</time>
      </trkpt>
      <trkpt lat="38.43028" lon="-0.80976">
        <ele>288.8</ele>
        <time>2022-10-15 15:27:14</time>
      </trkpt>
      <trkpt lat="38.43023" lon="-0.80971">
        <ele>288.6</ele>
        <time>2022-10-15 15:27:15</time>
      </trkpt>
      <trkpt lat="38.43014" lon="-0.80963">
        <ele>288.6</ele>
        <time>2022-10-15 15:27:17</time>
      </trkpt>
      <trkpt lat="38.42999" lon="-0.8095">
        <ele>288.6</ele>
        <time>2022-10-15 15:27:20</time>
      </trkpt>
      <trkpt lat="38.42994" lon="-0.80946">
        <ele>288.6</ele>
        <time>2022-10-15 15:27:21</time>
      </trkpt>
      <trkpt lat="38.42989" lon="-0.80942">
        <ele>288.6</ele>
        <time>2022-10-15 15:27:22</time>
      </trkpt>
      <trkpt lat="38.42985" lon="-0.80937">
        <ele>288.4</ele>
        <time>2022-10-15 15:27:23</time>
      </trkpt>
      <trkpt lat="38.42981" lon="-0.80933">
        <ele>288.4</ele>
        <time>2022-10-15 15:27:24</time>
      </trkpt>
      <trkpt lat="38.42977" lon="-0.8093">
        <ele>288.4</ele>
        <time>2022-10-15 15:27:25</time>
      </trkpt>
      <trkpt lat="38.42977" lon="-0.8093">
        <ele>288.4</ele>
        <time>2022-10-15 15:27:26</time>
      </trkpt>
      <trkpt lat="38.42963" lon="-0.80921">
        <ele>288.4</ele>
        <time>2022-10-15 15:27:28</time>
      </trkpt>
      <trkpt lat="38.42959" lon="-0.80917">
        <ele>288.4</ele>
        <time>2022-10-15 15:27:29</time>
      </trkpt>
      <trkpt lat="38.42952" lon="-0.80909">
        <ele>288.4</ele>
        <time>2022-10-15 15:27:31</time>
      </trkpt>
      <trkpt lat="38.42944" lon="-0.80903">
        <ele>288.4</ele>
        <time>2022-10-15 15:27:33</time>
      </trkpt>
      <trkpt lat="38.42939" lon="-0.809">
        <ele>288.4</ele>
        <time>2022-10-15 15:27:34</time>
      </trkpt>
      <trkpt lat="38.42935" lon="-0.80897">
        <ele>288.4</ele>
        <time>2022-10-15 15:27:35</time>
      </trkpt>
      <trkpt lat="38.4293" lon="-0.80895">
        <ele>288.4</ele>
        <time>2022-10-15 15:27:36</time>
      </trkpt>
      <trkpt lat="38.42926" lon="-0.80893">
        <ele>288.4</ele>
        <time>2022-10-15 15:27:37</time>
      </trkpt>
      <trkpt lat="38.42918" lon="-0.80887">
        <ele>288.4</ele>
        <time>2022-10-15 15:27:39</time>
      </trkpt>
      <trkpt lat="38.42914" lon="-0.80884">
        <ele>288.4</ele>
        <time>2022-10-15 15:27:40</time>
      </trkpt>
      <trkpt lat="38.42908" lon="-0.80878">
        <ele>288.6</ele>
        <time>2022-10-15 15:27:42</time>
      </trkpt>
      <trkpt lat="38.42904" lon="-0.80876">
        <ele>288.6</ele>
        <time>2022-10-15 15:27:43</time>
      </trkpt>
      <trkpt lat="38.42897" lon="-0.80872">
        <ele>288.6</ele>
        <time>2022-10-15 15:27:45</time>
      </trkpt>
      <trkpt lat="38.42891" lon="-0.80866">
        <ele>288.6</ele>
        <time>2022-10-15 15:27:47</time>
      </trkpt>
      <trkpt lat="38.42888" lon="-0.80863">
        <ele>288.6</ele>
        <time>2022-10-15 15:27:48</time>
      </trkpt>
      <trkpt lat="38.42885" lon="-0.8086">
        <ele>288.6</ele>
        <time>2022-10-15 15:27:50</time>
      </trkpt>
      <trkpt lat="38.42879" lon="-0.80853">
        <ele>288.8</ele>
        <time>2022-10-15 15:27:51</time>
      </trkpt>
      <trkpt lat="38.42872" lon="-0.80847">
        <ele>288.8</ele>
        <time>2022-10-15 15:27:53</time>
      </trkpt>
      <trkpt lat="38.42868" lon="-0.80845">
        <ele>288.8</ele>
        <time>2022-10-15 15:27:54</time>
      </trkpt>
      <trkpt lat="38.42865" lon="-0.80842">
        <ele>288.8</ele>
        <time>2022-10-15 15:27:55</time>
      </trkpt>
      <trkpt lat="38.42865" lon="-0.80842">
        <ele>288.8</ele>
        <time>2022-10-15 15:27:56</time>
      </trkpt>
      <trkpt lat="38.42857" lon="-0.80839">
        <ele>288.8</ele>
        <time>2022-10-15 15:27:57</time>
      </trkpt>
      <trkpt lat="38.42848" lon="-0.80835">
        <ele>288.6</ele>
        <time>2022-10-15 15:27:59</time>
      </trkpt>
      <trkpt lat="38.4284" lon="-0.8083">
        <ele>288.6</ele>
        <time>2022-10-15 15:28:02</time>
      </trkpt>
      <trkpt lat="38.42832" lon="-0.80825">
        <ele>288.6</ele>
        <time>2022-10-15 15:28:03</time>
      </trkpt>
      <trkpt lat="38.42828" lon="-0.80822">
        <ele>288.6</ele>
        <time>2022-10-15 15:28:04</time>
      </trkpt>
      <trkpt lat="38.42824" lon="-0.80819">
        <ele>288.6</ele>
        <time>2022-10-15 15:28:05</time>
      </trkpt>
      <trkpt lat="38.42815" lon="-0.80813">
        <ele>288.6</ele>
        <time>2022-10-15 15:28:07</time>
      </trkpt>
      <trkpt lat="38.42815" lon="-0.80813">
        <ele>288.6</ele>
        <time>2022-10-15 15:28:08</time>
      </trkpt>
      <trkpt lat="38.42803" lon="-0.80804">
        <ele>288.4</ele>
        <time>2022-10-15 15:28:10</time>
      </trkpt>
      <trkpt lat="38.4279" lon="-0.80796">
        <ele>288.2</ele>
        <time>2022-10-15 15:28:13</time>
      </trkpt>
      <trkpt lat="38.42777" lon="-0.80787">
        <ele>288</ele>
        <time>2022-10-15 15:28:16</time>
      </trkpt>
      <trkpt lat="38.42769" lon="-0.8078">
        <ele>287.8</ele>
        <time>2022-10-15 15:28:18</time>
      </trkpt>
      <trkpt lat="38.42765" lon="-0.80777">
        <ele>287.8</ele>
        <time>2022-10-15 15:28:19</time>
      </trkpt>
      <trkpt lat="38.42757" lon="-0.8077">
        <ele>287.8</ele>
        <time>2022-10-15 15:28:21</time>
      </trkpt>
      <trkpt lat="38.42752" lon="-0.80767">
        <ele>287.8</ele>
        <time>2022-10-15 15:28:22</time>
      </trkpt>
      <trkpt lat="38.42743" lon="-0.80762">
        <ele>287.6</ele>
        <time>2022-10-15 15:28:24</time>
      </trkpt>
      <trkpt lat="38.42727" lon="-0.80753">
        <ele>287.6</ele>
        <time>2022-10-15 15:28:27</time>
      </trkpt>
      <trkpt lat="38.42722" lon="-0.8075">
        <ele>287.6</ele>
        <time>2022-10-15 15:28:28</time>
      </trkpt>
      <trkpt lat="38.42716" lon="-0.80747">
        <ele>287.4</ele>
        <time>2022-10-15 15:28:29</time>
      </trkpt>
      <trkpt lat="38.4271" lon="-0.80743">
        <ele>287.4</ele>
        <time>2022-10-15 15:28:30</time>
      </trkpt>
      <trkpt lat="38.42704" lon="-0.80741">
        <ele>287.2</ele>
        <time>2022-10-15 15:28:32</time>
      </trkpt>
      <trkpt lat="38.42693" lon="-0.80735">
        <ele>287</ele>
        <time>2022-10-15 15:28:33</time>
      </trkpt>
      <trkpt lat="38.42687" lon="-0.80732">
        <ele>287</ele>
        <time>2022-10-15 15:28:34</time>
      </trkpt>
      <trkpt lat="38.42682" lon="-0.80728">
        <ele>287</ele>
        <time>2022-10-15 15:28:35</time>
      </trkpt>
      <trkpt lat="38.42671" lon="-0.80722">
        <ele>286.6</ele>
        <time>2022-10-15 15:28:37</time>
      </trkpt>
      <trkpt lat="38.42671" lon="-0.80722">
        <ele>286</ele>
        <time>2022-10-15 15:28:38</time>
      </trkpt>
      <trkpt lat="38.42659" lon="-0.80716">
        <ele>285.6</ele>
        <time>2022-10-15 15:28:39</time>
      </trkpt>
      <trkpt lat="38.42653" lon="-0.80714">
        <ele>285.4</ele>
        <time>2022-10-15 15:28:40</time>
      </trkpt>
      <trkpt lat="38.42648" lon="-0.80711">
        <ele>285.2</ele>
        <time>2022-10-15 15:28:41</time>
      </trkpt>
      <trkpt lat="38.42642" lon="-0.8071">
        <ele>285</ele>
        <time>2022-10-15 15:28:42</time>
      </trkpt>
      <trkpt lat="38.42636" lon="-0.80709">
        <ele>284.8</ele>
        <time>2022-10-15 15:28:43</time>
      </trkpt>
      <trkpt lat="38.42636" lon="-0.80709">
        <ele>284.8</ele>
        <time>2022-10-15 15:28:44</time>
      </trkpt>
      <trkpt lat="38.42628" lon="-0.80704">
        <ele>284.6</ele>
        <time>2022-10-15 15:28:45</time>
      </trkpt>
      <trkpt lat="38.42625" lon="-0.807">
        <ele>284.4</ele>
        <time>2022-10-15 15:28:46</time>
      </trkpt>
      <trkpt lat="38.42621" lon="-0.80696">
        <ele>284.4</ele>
        <time>2022-10-15 15:28:47</time>
      </trkpt>
      <trkpt lat="38.42614" lon="-0.8069">
        <ele>284.4</ele>
        <time>2022-10-15 15:28:49</time>
      </trkpt>
      <trkpt lat="38.42614" lon="-0.8069">
        <ele>284.4</ele>
        <time>2022-10-15 15:28:50</time>
      </trkpt>
      <trkpt lat="38.42606" lon="-0.80688">
        <ele>284</ele>
        <time>2022-10-15 15:28:51</time>
      </trkpt>
      <trkpt lat="38.42602" lon="-0.80689">
        <ele>284</ele>
        <time>2022-10-15 15:28:52</time>
      </trkpt>
      <trkpt lat="38.42598" lon="-0.8069">
        <ele>284</ele>
        <time>2022-10-15 15:28:53</time>
      </trkpt>
      <trkpt lat="38.42589" lon="-0.80697">
        <ele>284.2</ele>
        <time>2022-10-15 15:28:55</time>
      </trkpt>
      <trkpt lat="38.42589" lon="-0.80697">
        <ele>284</ele>
        <time>2022-10-15 15:28:56</time>
      </trkpt>
      <trkpt lat="38.42579" lon="-0.807">
        <ele>284</ele>
        <time>2022-10-15 15:28:57</time>
      </trkpt>
      <trkpt lat="38.42574" lon="-0.807">
        <ele>283.8</ele>
        <time>2022-10-15 15:28:58</time>
      </trkpt>
      <trkpt lat="38.42565" lon="-0.80697">
        <ele>283.6</ele>
        <time>2022-10-15 15:29:00</time>
      </trkpt>
      <trkpt lat="38.4256" lon="-0.80695">
        <ele>283.6</ele>
        <time>2022-10-15 15:29:01</time>
      </trkpt>
      <trkpt lat="38.4255" lon="-0.80691">
        <ele>283.6</ele>
        <time>2022-10-15 15:29:03</time>
      </trkpt>
      <trkpt lat="38.42545" lon="-0.80689">
        <ele>283.6</ele>
        <time>2022-10-15 15:29:04</time>
      </trkpt>
      <trkpt lat="38.42536" lon="-0.80684">
        <ele>283.6</ele>
        <time>2022-10-15 15:29:06</time>
      </trkpt>
      <trkpt lat="38.42532" lon="-0.80681">
        <ele>283.4</ele>
        <time>2022-10-15 15:29:08</time>
      </trkpt>
      <trkpt lat="38.42523" lon="-0.80676">
        <ele>283.4</ele>
        <time>2022-10-15 15:29:09</time>
      </trkpt>
      <trkpt lat="38.42519" lon="-0.80674">
        <ele>283.4</ele>
        <time>2022-10-15 15:29:10</time>
      </trkpt>
      <trkpt lat="38.42515" lon="-0.80672">
        <ele>283.4</ele>
        <time>2022-10-15 15:29:11</time>
      </trkpt>
      <trkpt lat="38.4251" lon="-0.8067">
        <ele>283.4</ele>
        <time>2022-10-15 15:29:12</time>
      </trkpt>
      <trkpt lat="38.42506" lon="-0.80667">
        <ele>283.4</ele>
        <time>2022-10-15 15:29:14</time>
      </trkpt>
      <trkpt lat="38.42498" lon="-0.80663">
        <ele>283.2</ele>
        <time>2022-10-15 15:29:15</time>
      </trkpt>
      <trkpt lat="38.4249" lon="-0.80657">
        <ele>283.2</ele>
        <time>2022-10-15 15:29:17</time>
      </trkpt>
      <trkpt lat="38.42486" lon="-0.80654">
        <ele>283.2</ele>
        <time>2022-10-15 15:29:18</time>
      </trkpt>
      <trkpt lat="38.42482" lon="-0.80652">
        <ele>283</ele>
        <time>2022-10-15 15:29:20</time>
      </trkpt>
      <trkpt lat="38.42474" lon="-0.80646">
        <ele>283</ele>
        <time>2022-10-15 15:29:21</time>
      </trkpt>
      <trkpt lat="38.42466" lon="-0.80641">
        <ele>283</ele>
        <time>2022-10-15 15:29:23</time>
      </trkpt>
      <trkpt lat="38.42462" lon="-0.80638">
        <ele>282.8</ele>
        <time>2022-10-15 15:29:24</time>
      </trkpt>
      <trkpt lat="38.42457" lon="-0.80635">
        <ele>282.8</ele>
        <time>2022-10-15 15:29:25</time>
      </trkpt>
      <trkpt lat="38.42457" lon="-0.80635">
        <ele>282.8</ele>
        <time>2022-10-15 15:29:26</time>
      </trkpt>
      <trkpt lat="38.42445" lon="-0.80627">
        <ele>282.8</ele>
        <time>2022-10-15 15:29:28</time>
      </trkpt>
      <trkpt lat="38.4244" lon="-0.80624">
        <ele>282.8</ele>
        <time>2022-10-15 15:29:29</time>
      </trkpt>
      <trkpt lat="38.42431" lon="-0.80618">
        <ele>282.8</ele>
        <time>2022-10-15 15:29:31</time>
      </trkpt>
      <trkpt lat="38.42431" lon="-0.80618">
        <ele>282.6</ele>
        <time>2022-10-15 15:29:32</time>
      </trkpt>
      <trkpt lat="38.42416" lon="-0.80611">
        <ele>282.8</ele>
        <time>2022-10-15 15:29:34</time>
      </trkpt>
      <trkpt lat="38.42412" lon="-0.80609">
        <ele>282.6</ele>
        <time>2022-10-15 15:29:35</time>
      </trkpt>
      <trkpt lat="38.42407" lon="-0.80606">
        <ele>282.6</ele>
        <time>2022-10-15 15:29:36</time>
      </trkpt>
      <trkpt lat="38.42402" lon="-0.80604">
        <ele>282.6</ele>
        <time>2022-10-15 15:29:37</time>
      </trkpt>
      <trkpt lat="38.42389" lon="-0.80596">
        <ele>282.4</ele>
        <time>2022-10-15 15:29:40</time>
      </trkpt>
      <trkpt lat="38.42384" lon="-0.80592">
        <ele>282.4</ele>
        <time>2022-10-15 15:29:41</time>
      </trkpt>
      <trkpt lat="38.4238" lon="-0.80589">
        <ele>282.2</ele>
        <time>2022-10-15 15:29:42</time>
      </trkpt>
      <trkpt lat="38.42376" lon="-0.80586">
        <ele>282.2</ele>
        <time>2022-10-15 15:29:43</time>
      </trkpt>
      <trkpt lat="38.42366" lon="-0.8058">
        <ele>282.2</ele>
        <time>2022-10-15 15:29:45</time>
      </trkpt>
      <trkpt lat="38.42362" lon="-0.80577">
        <ele>282.2</ele>
        <time>2022-10-15 15:29:46</time>
      </trkpt>
      <trkpt lat="38.42352" lon="-0.80572">
        <ele>282</ele>
        <time>2022-10-15 15:29:48</time>
      </trkpt>
      <trkpt lat="38.42347" lon="-0.80569">
        <ele>282</ele>
        <time>2022-10-15 15:29:49</time>
      </trkpt>
      <trkpt lat="38.42338" lon="-0.80563">
        <ele>281.8</ele>
        <time>2022-10-15 15:29:51</time>
      </trkpt>
      <trkpt lat="38.42324" lon="-0.80554">
        <ele>281.6</ele>
        <time>2022-10-15 15:29:54</time>
      </trkpt>
      <trkpt lat="38.42319" lon="-0.8055">
        <ele>281.6</ele>
        <time>2022-10-15 15:29:55</time>
      </trkpt>
      <trkpt lat="38.42319" lon="-0.8055">
        <ele>281.6</ele>
        <time>2022-10-15 15:29:56</time>
      </trkpt>
      <trkpt lat="38.4231" lon="-0.80544">
        <ele>281.6</ele>
        <time>2022-10-15 15:29:57</time>
      </trkpt>
      <trkpt lat="38.42301" lon="-0.80538">
        <ele>281.4</ele>
        <time>2022-10-15 15:29:59</time>
      </trkpt>
      <trkpt lat="38.42296" lon="-0.80535">
        <ele>281.4</ele>
        <time>2022-10-15 15:30:00</time>
      </trkpt>
      <trkpt lat="38.42291" lon="-0.80532">
        <ele>281.2</ele>
        <time>2022-10-15 15:30:01</time>
      </trkpt>
      <trkpt lat="38.42291" lon="-0.80532">
        <ele>281</ele>
        <time>2022-10-15 15:30:02</time>
      </trkpt>
      <trkpt lat="38.4228" lon="-0.80526">
        <ele>281</ele>
        <time>2022-10-15 15:30:03</time>
      </trkpt>
      <trkpt lat="38.42275" lon="-0.80523">
        <ele>281</ele>
        <time>2022-10-15 15:30:04</time>
      </trkpt>
      <trkpt lat="38.4227" lon="-0.8052">
        <ele>281</ele>
        <time>2022-10-15 15:30:05</time>
      </trkpt>
      <trkpt lat="38.42259" lon="-0.80514">
        <ele>281</ele>
        <time>2022-10-15 15:30:07</time>
      </trkpt>
      <trkpt lat="38.42259" lon="-0.80514">
        <ele>280.8</ele>
        <time>2022-10-15 15:30:08</time>
      </trkpt>
      <trkpt lat="38.42249" lon="-0.80506">
        <ele>280.8</ele>
        <time>2022-10-15 15:30:09</time>
      </trkpt>
      <trkpt lat="38.42245" lon="-0.80502">
        <ele>280.8</ele>
        <time>2022-10-15 15:30:10</time>
      </trkpt>
      <trkpt lat="38.4224" lon="-0.80497">
        <ele>280.6</ele>
        <time>2022-10-15 15:30:11</time>
      </trkpt>
      <trkpt lat="38.42236" lon="-0.80492">
        <ele>280.4</ele>
        <time>2022-10-15 15:30:12</time>
      </trkpt>
      <trkpt lat="38.42232" lon="-0.80487">
        <ele>280.2</ele>
        <time>2022-10-15 15:30:13</time>
      </trkpt>
      <trkpt lat="38.42232" lon="-0.80487">
        <ele>280</ele>
        <time>2022-10-15 15:30:14</time>
      </trkpt>
      <trkpt lat="38.42221" lon="-0.8047">
        <ele>279.8</ele>
        <time>2022-10-15 15:30:16</time>
      </trkpt>
      <trkpt lat="38.42213" lon="-0.80459">
        <ele>279.8</ele>
        <time>2022-10-15 15:30:18</time>
      </trkpt>
      <trkpt lat="38.4221" lon="-0.80452">
        <ele>279.8</ele>
        <time>2022-10-15 15:30:19</time>
      </trkpt>
      <trkpt lat="38.42203" lon="-0.80441">
        <ele>279.6</ele>
        <time>2022-10-15 15:30:21</time>
      </trkpt>
      <trkpt lat="38.42199" lon="-0.80435">
        <ele>279.4</ele>
        <time>2022-10-15 15:30:22</time>
      </trkpt>
      <trkpt lat="38.42192" lon="-0.80425">
        <ele>279.6</ele>
        <time>2022-10-15 15:30:24</time>
      </trkpt>
      <trkpt lat="38.42188" lon="-0.8042">
        <ele>279.4</ele>
        <time>2022-10-15 15:30:25</time>
      </trkpt>
      <trkpt lat="38.4218" lon="-0.80411">
        <ele>279.2</ele>
        <time>2022-10-15 15:30:27</time>
      </trkpt>
      <trkpt lat="38.42176" lon="-0.80406">
        <ele>279.2</ele>
        <time>2022-10-15 15:30:28</time>
      </trkpt>
      <trkpt lat="38.42172" lon="-0.80401">
        <ele>279</ele>
        <time>2022-10-15 15:30:29</time>
      </trkpt>
      <trkpt lat="38.42168" lon="-0.80397">
        <ele>279</ele>
        <time>2022-10-15 15:30:30</time>
      </trkpt>
      <trkpt lat="38.42164" lon="-0.80394">
        <ele>278.8</ele>
        <time>2022-10-15 15:30:32</time>
      </trkpt>
      <trkpt lat="38.42156" lon="-0.80388">
        <ele>278.6</ele>
        <time>2022-10-15 15:30:33</time>
      </trkpt>
      <trkpt lat="38.42152" lon="-0.80385">
        <ele>278.6</ele>
        <time>2022-10-15 15:30:34</time>
      </trkpt>
      <trkpt lat="38.42148" lon="-0.80382">
        <ele>278.6</ele>
        <time>2022-10-15 15:30:35</time>
      </trkpt>
      <trkpt lat="38.42144" lon="-0.8038">
        <ele>278.4</ele>
        <time>2022-10-15 15:30:36</time>
      </trkpt>
      <trkpt lat="38.4214" lon="-0.80378">
        <ele>278.2</ele>
        <time>2022-10-15 15:30:37</time>
      </trkpt>
      <trkpt lat="38.4214" lon="-0.80378">
        <ele>277.8</ele>
        <time>2022-10-15 15:30:38</time>
      </trkpt>
      <trkpt lat="38.42132" lon="-0.80371">
        <ele>277.8</ele>
        <time>2022-10-15 15:30:39</time>
      </trkpt>
      <trkpt lat="38.42128" lon="-0.80367">
        <ele>277.6</ele>
        <time>2022-10-15 15:30:40</time>
      </trkpt>
      <trkpt lat="38.42124" lon="-0.80362">
        <ele>277.4</ele>
        <time>2022-10-15 15:30:41</time>
      </trkpt>
      <trkpt lat="38.42121" lon="-0.80358">
        <ele>277.4</ele>
        <time>2022-10-15 15:30:42</time>
      </trkpt>
      <trkpt lat="38.42116" lon="-0.80355">
        <ele>277.4</ele>
        <time>2022-10-15 15:30:43</time>
      </trkpt>
      <trkpt lat="38.42116" lon="-0.80355">
        <ele>277.2</ele>
        <time>2022-10-15 15:30:44</time>
      </trkpt>
      <trkpt lat="38.42108" lon="-0.80349">
        <ele>277.2</ele>
        <time>2022-10-15 15:30:45</time>
      </trkpt>
      <trkpt lat="38.42103" lon="-0.80347">
        <ele>277.2</ele>
        <time>2022-10-15 15:30:46</time>
      </trkpt>
      <trkpt lat="38.42099" lon="-0.80345">
        <ele>277.2</ele>
        <time>2022-10-15 15:30:47</time>
      </trkpt>
      <trkpt lat="38.42096" lon="-0.80342">
        <ele>277.2</ele>
        <time>2022-10-15 15:30:48</time>
      </trkpt>
      <trkpt lat="38.42093" lon="-0.80339">
        <ele>277.2</ele>
        <time>2022-10-15 15:30:49</time>
      </trkpt>
      <trkpt lat="38.42093" lon="-0.80339">
        <ele>277.2</ele>
        <time>2022-10-15 15:30:50</time>
      </trkpt>
      <trkpt lat="38.42089" lon="-0.80332">
        <ele>277.2</ele>
        <time>2022-10-15 15:30:51</time>
      </trkpt>
      <trkpt lat="38.42087" lon="-0.80329">
        <ele>277.2</ele>
        <time>2022-10-15 15:30:52</time>
      </trkpt>
      <trkpt lat="38.42085" lon="-0.80327">
        <ele>277.2</ele>
        <time>2022-10-15 15:30:53</time>
      </trkpt>
      <trkpt lat="38.42083" lon="-0.80324">
        <ele>277.2</ele>
        <time>2022-10-15 15:30:54</time>
      </trkpt>
      <trkpt lat="38.4208" lon="-0.80322">
        <ele>277.2</ele>
        <time>2022-10-15 15:30:55</time>
      </trkpt>
      <trkpt lat="38.4208" lon="-0.80322">
        <ele>277.6</ele>
        <time>2022-10-15 15:30:56</time>
      </trkpt>
      <trkpt lat="38.42074" lon="-0.8032">
        <ele>277.6</ele>
        <time>2022-10-15 15:30:57</time>
      </trkpt>
      <trkpt lat="38.42072" lon="-0.8032">
        <ele>277.6</ele>
        <time>2022-10-15 15:30:58</time>
      </trkpt>
      <trkpt lat="38.42069" lon="-0.80319">
        <ele>277.6</ele>
        <time>2022-10-15 15:30:59</time>
      </trkpt>
      <trkpt lat="38.42067" lon="-0.80317">
        <ele>277.6</ele>
        <time>2022-10-15 15:31:00</time>
      </trkpt>
      <trkpt lat="38.42065" lon="-0.80315">
        <ele>277.8</ele>
        <time>2022-10-15 15:31:01</time>
      </trkpt>
      <trkpt lat="38.42065" lon="-0.80315">
        <ele>277.8</ele>
        <time>2022-10-15 15:31:02</time>
      </trkpt>
      <trkpt lat="38.42061" lon="-0.80311">
        <ele>277.8</ele>
        <time>2022-10-15 15:31:03</time>
      </trkpt>
      <trkpt lat="38.4206" lon="-0.80308">
        <ele>278</ele>
        <time>2022-10-15 15:31:04</time>
      </trkpt>
      <trkpt lat="38.42058" lon="-0.80306">
        <ele>278</ele>
        <time>2022-10-15 15:31:05</time>
      </trkpt>
      <trkpt lat="38.42055" lon="-0.80304">
        <ele>278</ele>
        <time>2022-10-15 15:31:06</time>
      </trkpt>
      <trkpt lat="38.42053" lon="-0.80301">
        <ele>278</ele>
        <time>2022-10-15 15:31:07</time>
      </trkpt>
      <trkpt lat="38.42053" lon="-0.80301">
        <ele>278.2</ele>
        <time>2022-10-15 15:31:08</time>
      </trkpt>
      <trkpt lat="38.4205" lon="-0.80295">
        <ele>278.2</ele>
        <time>2022-10-15 15:31:09</time>
      </trkpt>
      <trkpt lat="38.42048" lon="-0.80292">
        <ele>278.2</ele>
        <time>2022-10-15 15:31:10</time>
      </trkpt>
      <trkpt lat="38.42046" lon="-0.80289">
        <ele>278.2</ele>
        <time>2022-10-15 15:31:11</time>
      </trkpt>
      <trkpt lat="38.42043" lon="-0.80286">
        <ele>278.2</ele>
        <time>2022-10-15 15:31:12</time>
      </trkpt>
      <trkpt lat="38.42039" lon="-0.80283">
        <ele>278.2</ele>
        <time>2022-10-15 15:31:13</time>
      </trkpt>
      <trkpt lat="38.42039" lon="-0.80283">
        <ele>278.2</ele>
        <time>2022-10-15 15:31:14</time>
      </trkpt>
      <trkpt lat="38.42032" lon="-0.80279">
        <ele>278.2</ele>
        <time>2022-10-15 15:31:15</time>
      </trkpt>
      <trkpt lat="38.42028" lon="-0.80277">
        <ele>278.2</ele>
        <time>2022-10-15 15:31:16</time>
      </trkpt>
      <trkpt lat="38.42024" lon="-0.80274">
        <ele>278.2</ele>
        <time>2022-10-15 15:31:17</time>
      </trkpt>
      <trkpt lat="38.4202" lon="-0.80272">
        <ele>278.2</ele>
        <time>2022-10-15 15:31:18</time>
      </trkpt>
      <trkpt lat="38.42016" lon="-0.8027">
        <ele>278</ele>
        <time>2022-10-15 15:31:19</time>
      </trkpt>
      <trkpt lat="38.42016" lon="-0.8027">
        <ele>278</ele>
        <time>2022-10-15 15:31:20</time>
      </trkpt>
      <trkpt lat="38.42009" lon="-0.80265">
        <ele>277.8</ele>
        <time>2022-10-15 15:31:21</time>
      </trkpt>
      <trkpt lat="38.42001" lon="-0.80261">
        <ele>277.4</ele>
        <time>2022-10-15 15:31:23</time>
      </trkpt>
      <trkpt lat="38.41997" lon="-0.80259">
        <ele>277.2</ele>
        <time>2022-10-15 15:31:24</time>
      </trkpt>
      <trkpt lat="38.41993" lon="-0.80257">
        <ele>276.6</ele>
        <time>2022-10-15 15:31:26</time>
      </trkpt>
      <trkpt lat="38.41986" lon="-0.80251">
        <ele>275.8</ele>
        <time>2022-10-15 15:31:27</time>
      </trkpt>
      <trkpt lat="38.41983" lon="-0.80249">
        <ele>275.4</ele>
        <time>2022-10-15 15:31:28</time>
      </trkpt>
      <trkpt lat="38.41979" lon="-0.80246">
        <ele>275.2</ele>
        <time>2022-10-15 15:31:29</time>
      </trkpt>
      <trkpt lat="38.41976" lon="-0.80244">
        <ele>275</ele>
        <time>2022-10-15 15:31:30</time>
      </trkpt>
      <trkpt lat="38.41973" lon="-0.80241">
        <ele>274.8</ele>
        <time>2022-10-15 15:31:31</time>
      </trkpt>
      <trkpt lat="38.41967" lon="-0.80234">
        <ele>274.4</ele>
        <time>2022-10-15 15:31:33</time>
      </trkpt>
      <trkpt lat="38.41964" lon="-0.80231">
        <ele>274.2</ele>
        <time>2022-10-15 15:31:34</time>
      </trkpt>
      <trkpt lat="38.41961" lon="-0.80227">
        <ele>274.2</ele>
        <time>2022-10-15 15:31:35</time>
      </trkpt>
      <trkpt lat="38.41958" lon="-0.80224">
        <ele>274.2</ele>
        <time>2022-10-15 15:31:36</time>
      </trkpt>
      <trkpt lat="38.41955" lon="-0.8022">
        <ele>274</ele>
        <time>2022-10-15 15:31:37</time>
      </trkpt>
      <trkpt lat="38.41949" lon="-0.80214">
        <ele>274</ele>
        <time>2022-10-15 15:31:39</time>
      </trkpt>
      <trkpt lat="38.41943" lon="-0.80206">
        <ele>273.8</ele>
        <time>2022-10-15 15:31:41</time>
      </trkpt>
      <trkpt lat="38.4194" lon="-0.80203">
        <ele>273.8</ele>
        <time>2022-10-15 15:31:42</time>
      </trkpt>
      <trkpt lat="38.41938" lon="-0.802">
        <ele>273.6</ele>
        <time>2022-10-15 15:31:44</time>
      </trkpt>
      <trkpt lat="38.41932" lon="-0.80193">
        <ele>273.6</ele>
        <time>2022-10-15 15:31:45</time>
      </trkpt>
      <trkpt lat="38.41926" lon="-0.80186">
        <ele>273.6</ele>
        <time>2022-10-15 15:31:47</time>
      </trkpt>
      <trkpt lat="38.41923" lon="-0.80182">
        <ele>273.6</ele>
        <time>2022-10-15 15:31:48</time>
      </trkpt>
      <trkpt lat="38.4192" lon="-0.80179">
        <ele>273.6</ele>
        <time>2022-10-15 15:31:49</time>
      </trkpt>
      <trkpt lat="38.4192" lon="-0.80179">
        <ele>273.6</ele>
        <time>2022-10-15 15:31:50</time>
      </trkpt>
      <trkpt lat="38.41914" lon="-0.80172">
        <ele>273.8</ele>
        <time>2022-10-15 15:31:51</time>
      </trkpt>
      <trkpt lat="38.41908" lon="-0.80165">
        <ele>273.8</ele>
        <time>2022-10-15 15:31:53</time>
      </trkpt>
      <trkpt lat="38.41902" lon="-0.80158">
        <ele>273.8</ele>
        <time>2022-10-15 15:31:55</time>
      </trkpt>
      <trkpt lat="38.41902" lon="-0.80158">
        <ele>273.8</ele>
        <time>2022-10-15 15:31:56</time>
      </trkpt>
      <trkpt lat="38.41892" lon="-0.80148">
        <ele>273.8</ele>
        <time>2022-10-15 15:31:58</time>
      </trkpt>
      <trkpt lat="38.4189" lon="-0.80145">
        <ele>273.8</ele>
        <time>2022-10-15 15:31:59</time>
      </trkpt>
      <trkpt lat="38.41884" lon="-0.80137">
        <ele>273.8</ele>
        <time>2022-10-15 15:32:01</time>
      </trkpt>
      <trkpt lat="38.41884" lon="-0.80137">
        <ele>273.8</ele>
        <time>2022-10-15 15:32:02</time>
      </trkpt>
      <trkpt lat="38.41879" lon="-0.80129">
        <ele>273.8</ele>
        <time>2022-10-15 15:32:03</time>
      </trkpt>
      <trkpt lat="38.41877" lon="-0.80126">
        <ele>273.6</ele>
        <time>2022-10-15 15:32:04</time>
      </trkpt>
      <trkpt lat="38.41871" lon="-0.80118">
        <ele>273.6</ele>
        <time>2022-10-15 15:32:06</time>
      </trkpt>
      <trkpt lat="38.41868" lon="-0.80114">
        <ele>273.6</ele>
        <time>2022-10-15 15:32:07</time>
      </trkpt>
      <trkpt lat="38.41868" lon="-0.80114">
        <ele>273.6</ele>
        <time>2022-10-15 15:32:08</time>
      </trkpt>
      <trkpt lat="38.4186" lon="-0.80102">
        <ele>273.4</ele>
        <time>2022-10-15 15:32:10</time>
      </trkpt>
      <trkpt lat="38.41858" lon="-0.80098">
        <ele>273.4</ele>
        <time>2022-10-15 15:32:11</time>
      </trkpt>
      <trkpt lat="38.41855" lon="-0.80094">
        <ele>273.4</ele>
        <time>2022-10-15 15:32:12</time>
      </trkpt>
      <trkpt lat="38.41852" lon="-0.8009">
        <ele>273.4</ele>
        <time>2022-10-15 15:32:13</time>
      </trkpt>
      <trkpt lat="38.41846" lon="-0.80082">
        <ele>273.4</ele>
        <time>2022-10-15 15:32:15</time>
      </trkpt>
      <trkpt lat="38.41843" lon="-0.80078">
        <ele>273.4</ele>
        <time>2022-10-15 15:32:16</time>
      </trkpt>
      <trkpt lat="38.4184" lon="-0.80075">
        <ele>273.4</ele>
        <time>2022-10-15 15:32:17</time>
      </trkpt>
      <trkpt lat="38.41836" lon="-0.80071">
        <ele>273.4</ele>
        <time>2022-10-15 15:32:18</time>
      </trkpt>
      <trkpt lat="38.41833" lon="-0.80068">
        <ele>273.4</ele>
        <time>2022-10-15 15:32:19</time>
      </trkpt>
      <trkpt lat="38.41833" lon="-0.80068">
        <ele>273.4</ele>
        <time>2022-10-15 15:32:20</time>
      </trkpt>
      <trkpt lat="38.41826" lon="-0.80061">
        <ele>273.4</ele>
        <time>2022-10-15 15:32:21</time>
      </trkpt>
      <trkpt lat="38.41815" lon="-0.80049">
        <ele>273.2</ele>
        <time>2022-10-15 15:32:24</time>
      </trkpt>
      <trkpt lat="38.41812" lon="-0.80045">
        <ele>273.2</ele>
        <time>2022-10-15 15:32:26</time>
      </trkpt>
      <trkpt lat="38.41806" lon="-0.80037">
        <ele>273.2</ele>
        <time>2022-10-15 15:32:27</time>
      </trkpt>
      <trkpt lat="38.41799" lon="-0.80029">
        <ele>273</ele>
        <time>2022-10-15 15:32:29</time>
      </trkpt>
      <trkpt lat="38.41796" lon="-0.80024">
        <ele>273</ele>
        <time>2022-10-15 15:32:30</time>
      </trkpt>
      <trkpt lat="38.41793" lon="-0.8002">
        <ele>273</ele>
        <time>2022-10-15 15:32:32</time>
      </trkpt>
      <trkpt lat="38.41786" lon="-0.80012">
        <ele>273</ele>
        <time>2022-10-15 15:32:33</time>
      </trkpt>
      <trkpt lat="38.41783" lon="-0.80008">
        <ele>272.8</ele>
        <time>2022-10-15 15:32:34</time>
      </trkpt>
      <trkpt lat="38.4178" lon="-0.80004">
        <ele>272.6</ele>
        <time>2022-10-15 15:32:35</time>
      </trkpt>
      <trkpt lat="38.4177" lon="-0.79992">
        <ele>272.6</ele>
        <time>2022-10-15 15:32:38</time>
      </trkpt>
      <trkpt lat="38.41767" lon="-0.79988">
        <ele>272.6</ele>
        <time>2022-10-15 15:32:39</time>
      </trkpt>
      <trkpt lat="38.41764" lon="-0.79984">
        <ele>272.4</ele>
        <time>2022-10-15 15:32:40</time>
      </trkpt>
      <trkpt lat="38.41761" lon="-0.7998">
        <ele>272.2</ele>
        <time>2022-10-15 15:32:41</time>
      </trkpt>
      <trkpt lat="38.41758" lon="-0.79976">
        <ele>272.2</ele>
        <time>2022-10-15 15:32:42</time>
      </trkpt>
      <trkpt lat="38.41756" lon="-0.79972">
        <ele>272.2</ele>
        <time>2022-10-15 15:32:43</time>
      </trkpt>
      <trkpt lat="38.41756" lon="-0.79972">
        <ele>272.2</ele>
        <time>2022-10-15 15:32:44</time>
      </trkpt>
      <trkpt lat="38.4175" lon="-0.79964">
        <ele>272</ele>
        <time>2022-10-15 15:32:45</time>
      </trkpt>
      <trkpt lat="38.41747" lon="-0.7996">
        <ele>272</ele>
        <time>2022-10-15 15:32:46</time>
      </trkpt>
      <trkpt lat="38.41744" lon="-0.79957">
        <ele>271.8</ele>
        <time>2022-10-15 15:32:47</time>
      </trkpt>
      <trkpt lat="38.41737" lon="-0.79949">
        <ele>271.8</ele>
        <time>2022-10-15 15:32:49</time>
      </trkpt>
      <trkpt lat="38.41737" lon="-0.79949">
        <ele>271.6</ele>
        <time>2022-10-15 15:32:50</time>
      </trkpt>
      <trkpt lat="38.41727" lon="-0.79937">
        <ele>271.4</ele>
        <time>2022-10-15 15:32:52</time>
      </trkpt>
      <trkpt lat="38.41723" lon="-0.79933">
        <ele>271.4</ele>
        <time>2022-10-15 15:32:53</time>
      </trkpt>
      <trkpt lat="38.41719" lon="-0.79929">
        <ele>271.2</ele>
        <time>2022-10-15 15:32:54</time>
      </trkpt>
      <trkpt lat="38.41715" lon="-0.79926">
        <ele>271</ele>
        <time>2022-10-15 15:32:55</time>
      </trkpt>
      <trkpt lat="38.41715" lon="-0.79926">
        <ele>270.8</ele>
        <time>2022-10-15 15:32:56</time>
      </trkpt>
      <trkpt lat="38.41708" lon="-0.79919">
        <ele>270.8</ele>
        <time>2022-10-15 15:32:57</time>
      </trkpt>
      <trkpt lat="38.41704" lon="-0.79916">
        <ele>270.6</ele>
        <time>2022-10-15 15:32:58</time>
      </trkpt>
      <trkpt lat="38.41696" lon="-0.7991">
        <ele>270.4</ele>
        <time>2022-10-15 15:33:00</time>
      </trkpt>
      <trkpt lat="38.41693" lon="-0.79907">
        <ele>270.2</ele>
        <time>2022-10-15 15:33:01</time>
      </trkpt>
      <trkpt lat="38.41689" lon="-0.79903">
        <ele>270.2</ele>
        <time>2022-10-15 15:33:02</time>
      </trkpt>
      <trkpt lat="38.41683" lon="-0.79897">
        <ele>270.2</ele>
        <time>2022-10-15 15:33:04</time>
      </trkpt>
      <trkpt lat="38.41679" lon="-0.79894">
        <ele>270.2</ele>
        <time>2022-10-15 15:33:05</time>
      </trkpt>
      <trkpt lat="38.41676" lon="-0.79891">
        <ele>270.2</ele>
        <time>2022-10-15 15:33:06</time>
      </trkpt>
      <trkpt lat="38.41672" lon="-0.79888">
        <ele>270.2</ele>
        <time>2022-10-15 15:33:07</time>
      </trkpt>
      <trkpt lat="38.41669" lon="-0.79885">
        <ele>270.2</ele>
        <time>2022-10-15 15:33:08</time>
      </trkpt>
      <trkpt lat="38.41665" lon="-0.79881">
        <ele>270.2</ele>
        <time>2022-10-15 15:33:09</time>
      </trkpt>
      <trkpt lat="38.41662" lon="-0.79877">
        <ele>270.2</ele>
        <time>2022-10-15 15:33:10</time>
      </trkpt>
      <trkpt lat="38.41656" lon="-0.79868">
        <ele>270.4</ele>
        <time>2022-10-15 15:33:12</time>
      </trkpt>
      <trkpt lat="38.41653" lon="-0.79863">
        <ele>270.8</ele>
        <time>2022-10-15 15:33:13</time>
      </trkpt>
      <trkpt lat="38.41647" lon="-0.79855">
        <ele>271.2</ele>
        <time>2022-10-15 15:33:15</time>
      </trkpt>
      <trkpt lat="38.41642" lon="-0.79845">
        <ele>271.2</ele>
        <time>2022-10-15 15:33:17</time>
      </trkpt>
      <trkpt lat="38.4164" lon="-0.79841">
        <ele>271.2</ele>
        <time>2022-10-15 15:33:18</time>
      </trkpt>
      <trkpt lat="38.41637" lon="-0.79836">
        <ele>271.2</ele>
        <time>2022-10-15 15:33:20</time>
      </trkpt>
      <trkpt lat="38.41632" lon="-0.79827">
        <ele>271.2</ele>
        <time>2022-10-15 15:33:21</time>
      </trkpt>
      <trkpt lat="38.41627" lon="-0.79819">
        <ele>271.2</ele>
        <time>2022-10-15 15:33:23</time>
      </trkpt>
      <trkpt lat="38.41624" lon="-0.79814">
        <ele>271</ele>
        <time>2022-10-15 15:33:24</time>
      </trkpt>
      <trkpt lat="38.41621" lon="-0.7981">
        <ele>270.8</ele>
        <time>2022-10-15 15:33:25</time>
      </trkpt>
      <trkpt lat="38.41621" lon="-0.7981">
        <ele>270.8</ele>
        <time>2022-10-15 15:33:26</time>
      </trkpt>
      <trkpt lat="38.41609" lon="-0.79792">
        <ele>270.6</ele>
        <time>2022-10-15 15:33:29</time>
      </trkpt>
      <trkpt lat="38.41604" lon="-0.79783">
        <ele>270.6</ele>
        <time>2022-10-15 15:33:32</time>
      </trkpt>
      <trkpt lat="38.41595" lon="-0.79771">
        <ele>270.6</ele>
        <time>2022-10-15 15:33:34</time>
      </trkpt>
      <trkpt lat="38.41592" lon="-0.79766">
        <ele>270.8</ele>
        <time>2022-10-15 15:33:35</time>
      </trkpt>
      <trkpt lat="38.41586" lon="-0.79759">
        <ele>270.8</ele>
        <time>2022-10-15 15:33:37</time>
      </trkpt>
      <trkpt lat="38.41586" lon="-0.79759">
        <ele>270.8</ele>
        <time>2022-10-15 15:33:38</time>
      </trkpt>
      <trkpt lat="38.4158" lon="-0.79753">
        <ele>270.8</ele>
        <time>2022-10-15 15:33:39</time>
      </trkpt>
      <trkpt lat="38.41576" lon="-0.7975">
        <ele>270.8</ele>
        <time>2022-10-15 15:33:40</time>
      </trkpt>
      <trkpt lat="38.41572" lon="-0.79747">
        <ele>270.8</ele>
        <time>2022-10-15 15:33:41</time>
      </trkpt>
      <trkpt lat="38.41565" lon="-0.79741">
        <ele>270.8</ele>
        <time>2022-10-15 15:33:43</time>
      </trkpt>
      <trkpt lat="38.41565" lon="-0.79741">
        <ele>270.6</ele>
        <time>2022-10-15 15:33:44</time>
      </trkpt>
      <trkpt lat="38.41554" lon="-0.79731">
        <ele>270.4</ele>
        <time>2022-10-15 15:33:46</time>
      </trkpt>
      <trkpt lat="38.41546" lon="-0.79724">
        <ele>270.2</ele>
        <time>2022-10-15 15:33:48</time>
      </trkpt>
      <trkpt lat="38.41543" lon="-0.7972">
        <ele>270.2</ele>
        <time>2022-10-15 15:33:49</time>
      </trkpt>
      <trkpt lat="38.41536" lon="-0.79712">
        <ele>269.8</ele>
        <time>2022-10-15 15:33:51</time>
      </trkpt>
      <trkpt lat="38.41532" lon="-0.79709">
        <ele>269.8</ele>
        <time>2022-10-15 15:33:52</time>
      </trkpt>
      <trkpt lat="38.41525" lon="-0.79702">
        <ele>269.8</ele>
        <time>2022-10-15 15:33:54</time>
      </trkpt>
      <trkpt lat="38.41521" lon="-0.79698">
        <ele>269.8</ele>
        <time>2022-10-15 15:33:55</time>
      </trkpt>
      <trkpt lat="38.41514" lon="-0.79691">
        <ele>269.6</ele>
        <time>2022-10-15 15:33:57</time>
      </trkpt>
      <trkpt lat="38.4151" lon="-0.79688">
        <ele>269.4</ele>
        <time>2022-10-15 15:33:58</time>
      </trkpt>
      <trkpt lat="38.41506" lon="-0.79684">
        <ele>269.2</ele>
        <time>2022-10-15 15:33:59</time>
      </trkpt>
      <trkpt lat="38.41503" lon="-0.7968">
        <ele>268.8</ele>
        <time>2022-10-15 15:34:00</time>
      </trkpt>
      <trkpt lat="38.41499" lon="-0.79676">
        <ele>268.6</ele>
        <time>2022-10-15 15:34:01</time>
      </trkpt>
      <trkpt lat="38.41499" lon="-0.79676">
        <ele>268.6</ele>
        <time>2022-10-15 15:34:02</time>
      </trkpt>
      <trkpt lat="38.41491" lon="-0.79668">
        <ele>268.4</ele>
        <time>2022-10-15 15:34:03</time>
      </trkpt>
      <trkpt lat="38.41487" lon="-0.79664">
        <ele>268.4</ele>
        <time>2022-10-15 15:34:04</time>
      </trkpt>
      <trkpt lat="38.41484" lon="-0.79659">
        <ele>268.4</ele>
        <time>2022-10-15 15:34:05</time>
      </trkpt>
      <trkpt lat="38.4148" lon="-0.79655">
        <ele>268.4</ele>
        <time>2022-10-15 15:34:06</time>
      </trkpt>
      <trkpt lat="38.41477" lon="-0.7965">
        <ele>268.2</ele>
        <time>2022-10-15 15:34:07</time>
      </trkpt>
      <trkpt lat="38.41477" lon="-0.7965">
        <ele>268</ele>
        <time>2022-10-15 15:34:08</time>
      </trkpt>
      <trkpt lat="38.41469" lon="-0.79641">
        <ele>268</ele>
        <time>2022-10-15 15:34:09</time>
      </trkpt>
      <trkpt lat="38.41465" lon="-0.79637">
        <ele>268</ele>
        <time>2022-10-15 15:34:10</time>
      </trkpt>
      <trkpt lat="38.41461" lon="-0.79632">
        <ele>268</ele>
        <time>2022-10-15 15:34:11</time>
      </trkpt>
      <trkpt lat="38.41457" lon="-0.79628">
        <ele>267.8</ele>
        <time>2022-10-15 15:34:12</time>
      </trkpt>
      <trkpt lat="38.41453" lon="-0.79624">
        <ele>267.8</ele>
        <time>2022-10-15 15:34:13</time>
      </trkpt>
      <trkpt lat="38.41453" lon="-0.79624">
        <ele>267.8</ele>
        <time>2022-10-15 15:34:14</time>
      </trkpt>
      <trkpt lat="38.41445" lon="-0.79615">
        <ele>267.8</ele>
        <time>2022-10-15 15:34:15</time>
      </trkpt>
      <trkpt lat="38.41439" lon="-0.79605">
        <ele>267.6</ele>
        <time>2022-10-15 15:34:17</time>
      </trkpt>
      <trkpt lat="38.41435" lon="-0.796">
        <ele>267.6</ele>
        <time>2022-10-15 15:34:18</time>
      </trkpt>
      <trkpt lat="38.41432" lon="-0.79596">
        <ele>267.4</ele>
        <time>2022-10-15 15:34:19</time>
      </trkpt>
      <trkpt lat="38.41432" lon="-0.79596">
        <ele>267.4</ele>
        <time>2022-10-15 15:34:20</time>
      </trkpt>
      <trkpt lat="38.41425" lon="-0.79587">
        <ele>267.2</ele>
        <time>2022-10-15 15:34:21</time>
      </trkpt>
      <trkpt lat="38.41422" lon="-0.79582">
        <ele>267.2</ele>
        <time>2022-10-15 15:34:22</time>
      </trkpt>
      <trkpt lat="38.41419" lon="-0.79578">
        <ele>267.2</ele>
        <time>2022-10-15 15:34:23</time>
      </trkpt>
      <trkpt lat="38.41416" lon="-0.79573">
        <ele>267.2</ele>
        <time>2022-10-15 15:34:24</time>
      </trkpt>
      <trkpt lat="38.41413" lon="-0.79568">
        <ele>267.2</ele>
        <time>2022-10-15 15:34:25</time>
      </trkpt>
      <trkpt lat="38.41406" lon="-0.79558">
        <ele>267.2</ele>
        <time>2022-10-15 15:34:27</time>
      </trkpt>
      <trkpt lat="38.41403" lon="-0.79554">
        <ele>267.2</ele>
        <time>2022-10-15 15:34:28</time>
      </trkpt>
      <trkpt lat="38.414" lon="-0.79549">
        <ele>267.2</ele>
        <time>2022-10-15 15:34:29</time>
      </trkpt>
      <trkpt lat="38.41396" lon="-0.79544">
        <ele>267.2</ele>
        <time>2022-10-15 15:34:30</time>
      </trkpt>
      <trkpt lat="38.41393" lon="-0.79539">
        <ele>267</ele>
        <time>2022-10-15 15:34:31</time>
      </trkpt>
      <trkpt lat="38.41393" lon="-0.79539">
        <ele>267</ele>
        <time>2022-10-15 15:34:32</time>
      </trkpt>
      <trkpt lat="38.41386" lon="-0.79529">
        <ele>267</ele>
        <time>2022-10-15 15:34:33</time>
      </trkpt>
      <trkpt lat="38.41383" lon="-0.79524">
        <ele>267</ele>
        <time>2022-10-15 15:34:34</time>
      </trkpt>
      <trkpt lat="38.41379" lon="-0.79519">
        <ele>267</ele>
        <time>2022-10-15 15:34:35</time>
      </trkpt>
      <trkpt lat="38.41376" lon="-0.79514">
        <ele>266.8</ele>
        <time>2022-10-15 15:34:36</time>
      </trkpt>
      <trkpt lat="38.41372" lon="-0.79509">
        <ele>266.8</ele>
        <time>2022-10-15 15:34:37</time>
      </trkpt>
      <trkpt lat="38.41372" lon="-0.79509">
        <ele>266.6</ele>
        <time>2022-10-15 15:34:38</time>
      </trkpt>
      <trkpt lat="38.41365" lon="-0.79498">
        <ele>266.4</ele>
        <time>2022-10-15 15:34:39</time>
      </trkpt>
      <trkpt lat="38.41362" lon="-0.79493">
        <ele>266.2</ele>
        <time>2022-10-15 15:34:40</time>
      </trkpt>
      <trkpt lat="38.41359" lon="-0.79487">
        <ele>265.8</ele>
        <time>2022-10-15 15:34:41</time>
      </trkpt>
      <trkpt lat="38.41356" lon="-0.79482">
        <ele>265.8</ele>
        <time>2022-10-15 15:34:42</time>
      </trkpt>
      <trkpt lat="38.41353" lon="-0.79477">
        <ele>265.6</ele>
        <time>2022-10-15 15:34:43</time>
      </trkpt>
      <trkpt lat="38.41353" lon="-0.79477">
        <ele>265.6</ele>
        <time>2022-10-15 15:34:44</time>
      </trkpt>
      <trkpt lat="38.41346" lon="-0.79467">
        <ele>265.6</ele>
        <time>2022-10-15 15:34:45</time>
      </trkpt>
      <trkpt lat="38.4134" lon="-0.79457">
        <ele>265.4</ele>
        <time>2022-10-15 15:34:47</time>
      </trkpt>
      <trkpt lat="38.41337" lon="-0.79452">
        <ele>265.4</ele>
        <time>2022-10-15 15:34:48</time>
      </trkpt>
      <trkpt lat="38.41335" lon="-0.79447">
        <ele>265.4</ele>
        <time>2022-10-15 15:34:49</time>
      </trkpt>
      <trkpt lat="38.41335" lon="-0.79447">
        <ele>265.4</ele>
        <time>2022-10-15 15:34:50</time>
      </trkpt>
      <trkpt lat="38.41328" lon="-0.79437">
        <ele>265.2</ele>
        <time>2022-10-15 15:34:51</time>
      </trkpt>
      <trkpt lat="38.41326" lon="-0.79432">
        <ele>265.2</ele>
        <time>2022-10-15 15:34:52</time>
      </trkpt>
      <trkpt lat="38.41323" lon="-0.79427">
        <ele>265.2</ele>
        <time>2022-10-15 15:34:53</time>
      </trkpt>
      <trkpt lat="38.4132" lon="-0.79421">
        <ele>265.2</ele>
        <time>2022-10-15 15:34:54</time>
      </trkpt>
      <trkpt lat="38.41318" lon="-0.79416">
        <ele>265</ele>
        <time>2022-10-15 15:34:55</time>
      </trkpt>
      <trkpt lat="38.41312" lon="-0.79406">
        <ele>264.8</ele>
        <time>2022-10-15 15:34:57</time>
      </trkpt>
      <trkpt lat="38.41309" lon="-0.794">
        <ele>264.8</ele>
        <time>2022-10-15 15:34:58</time>
      </trkpt>
      <trkpt lat="38.41307" lon="-0.79395">
        <ele>264.6</ele>
        <time>2022-10-15 15:34:59</time>
      </trkpt>
      <trkpt lat="38.41304" lon="-0.79389">
        <ele>264.4</ele>
        <time>2022-10-15 15:35:00</time>
      </trkpt>
      <trkpt lat="38.41301" lon="-0.79384">
        <ele>264.4</ele>
        <time>2022-10-15 15:35:01</time>
      </trkpt>
      <trkpt lat="38.41301" lon="-0.79384">
        <ele>264.4</ele>
        <time>2022-10-15 15:35:02</time>
      </trkpt>
      <trkpt lat="38.41295" lon="-0.79373">
        <ele>264.6</ele>
        <time>2022-10-15 15:35:03</time>
      </trkpt>
      <trkpt lat="38.41292" lon="-0.79367">
        <ele>264.6</ele>
        <time>2022-10-15 15:35:04</time>
      </trkpt>
      <trkpt lat="38.41289" lon="-0.79362">
        <ele>264.6</ele>
        <time>2022-10-15 15:35:05</time>
      </trkpt>
      <trkpt lat="38.41286" lon="-0.79358">
        <ele>264.6</ele>
        <time>2022-10-15 15:35:06</time>
      </trkpt>
      <trkpt lat="38.41283" lon="-0.79353">
        <ele>264.6</ele>
        <time>2022-10-15 15:35:07</time>
      </trkpt>
      <trkpt lat="38.41283" lon="-0.79353">
        <ele>264.6</ele>
        <time>2022-10-15 15:35:08</time>
      </trkpt>
      <trkpt lat="38.41276" lon="-0.79343">
        <ele>264.6</ele>
        <time>2022-10-15 15:35:09</time>
      </trkpt>
      <trkpt lat="38.41273" lon="-0.79338">
        <ele>264.6</ele>
        <time>2022-10-15 15:35:10</time>
      </trkpt>
      <trkpt lat="38.41269" lon="-0.79334">
        <ele>264.6</ele>
        <time>2022-10-15 15:35:11</time>
      </trkpt>
      <trkpt lat="38.41266" lon="-0.7933">
        <ele>264.6</ele>
        <time>2022-10-15 15:35:12</time>
      </trkpt>
      <trkpt lat="38.41262" lon="-0.79326">
        <ele>264.6</ele>
        <time>2022-10-15 15:35:13</time>
      </trkpt>
      <trkpt lat="38.41262" lon="-0.79326">
        <ele>264.4</ele>
        <time>2022-10-15 15:35:14</time>
      </trkpt>
      <trkpt lat="38.41254" lon="-0.79317">
        <ele>264.4</ele>
        <time>2022-10-15 15:35:15</time>
      </trkpt>
      <trkpt lat="38.41251" lon="-0.79313">
        <ele>264.4</ele>
        <time>2022-10-15 15:35:16</time>
      </trkpt>
      <trkpt lat="38.41247" lon="-0.79309">
        <ele>264.4</ele>
        <time>2022-10-15 15:35:17</time>
      </trkpt>
      <trkpt lat="38.41243" lon="-0.79304">
        <ele>264.4</ele>
        <time>2022-10-15 15:35:18</time>
      </trkpt>
      <trkpt lat="38.41239" lon="-0.793">
        <ele>264.4</ele>
        <time>2022-10-15 15:35:19</time>
      </trkpt>
      <trkpt lat="38.41239" lon="-0.793">
        <ele>264.4</ele>
        <time>2022-10-15 15:35:20</time>
      </trkpt>
      <trkpt lat="38.41231" lon="-0.79292">
        <ele>264.2</ele>
        <time>2022-10-15 15:35:21</time>
      </trkpt>
      <trkpt lat="38.41227" lon="-0.79288">
        <ele>264.2</ele>
        <time>2022-10-15 15:35:22</time>
      </trkpt>
      <trkpt lat="38.41223" lon="-0.79284">
        <ele>264</ele>
        <time>2022-10-15 15:35:23</time>
      </trkpt>
      <trkpt lat="38.41219" lon="-0.7928">
        <ele>263.8</ele>
        <time>2022-10-15 15:35:24</time>
      </trkpt>
      <trkpt lat="38.41215" lon="-0.79276">
        <ele>263.6</ele>
        <time>2022-10-15 15:35:26</time>
      </trkpt>
      <trkpt lat="38.41207" lon="-0.79269">
        <ele>263.4</ele>
        <time>2022-10-15 15:35:27</time>
      </trkpt>
      <trkpt lat="38.41202" lon="-0.79265">
        <ele>263</ele>
        <time>2022-10-15 15:35:28</time>
      </trkpt>
      <trkpt lat="38.41198" lon="-0.79261">
        <ele>262.6</ele>
        <time>2022-10-15 15:35:29</time>
      </trkpt>
      <trkpt lat="38.41194" lon="-0.79258">
        <ele>262.6</ele>
        <time>2022-10-15 15:35:30</time>
      </trkpt>
      <trkpt lat="38.41189" lon="-0.79254">
        <ele>262.4</ele>
        <time>2022-10-15 15:35:31</time>
      </trkpt>
      <trkpt lat="38.41189" lon="-0.79254">
        <ele>262.2</ele>
        <time>2022-10-15 15:35:32</time>
      </trkpt>
      <trkpt lat="38.4118" lon="-0.79246">
        <ele>262</ele>
        <time>2022-10-15 15:35:33</time>
      </trkpt>
      <trkpt lat="38.41175" lon="-0.79242">
        <ele>261.8</ele>
        <time>2022-10-15 15:35:34</time>
      </trkpt>
      <trkpt lat="38.41171" lon="-0.79237">
        <ele>261.6</ele>
        <time>2022-10-15 15:35:35</time>
      </trkpt>
      <trkpt lat="38.41167" lon="-0.79233">
        <ele>261.6</ele>
        <time>2022-10-15 15:35:36</time>
      </trkpt>
      <trkpt lat="38.41163" lon="-0.79228">
        <ele>261.6</ele>
        <time>2022-10-15 15:35:37</time>
      </trkpt>
      <trkpt lat="38.41163" lon="-0.79228">
        <ele>261.4</ele>
        <time>2022-10-15 15:35:38</time>
      </trkpt>
      <trkpt lat="38.41156" lon="-0.7922">
        <ele>261.4</ele>
        <time>2022-10-15 15:35:39</time>
      </trkpt>
      <trkpt lat="38.41152" lon="-0.79215">
        <ele>261.4</ele>
        <time>2022-10-15 15:35:40</time>
      </trkpt>
      <trkpt lat="38.41149" lon="-0.79211">
        <ele>261.4</ele>
        <time>2022-10-15 15:35:41</time>
      </trkpt>
      <trkpt lat="38.41146" lon="-0.79207">
        <ele>261.4</ele>
        <time>2022-10-15 15:35:42</time>
      </trkpt>
      <trkpt lat="38.41144" lon="-0.79204">
        <ele>261.4</ele>
        <time>2022-10-15 15:35:43</time>
      </trkpt>
      <trkpt lat="38.41144" lon="-0.79204">
        <ele>261.4</ele>
        <time>2022-10-15 15:35:44</time>
      </trkpt>
      <trkpt lat="38.41139" lon="-0.79197">
        <ele>261.4</ele>
        <time>2022-10-15 15:35:45</time>
      </trkpt>
      <trkpt lat="38.41134" lon="-0.7919">
        <ele>261.4</ele>
        <time>2022-10-15 15:35:47</time>
      </trkpt>
      <trkpt lat="38.41131" lon="-0.79187">
        <ele>261.4</ele>
        <time>2022-10-15 15:35:48</time>
      </trkpt>
      <trkpt lat="38.41128" lon="-0.79183">
        <ele>261.4</ele>
        <time>2022-10-15 15:35:49</time>
      </trkpt>
      <trkpt lat="38.41128" lon="-0.79183">
        <ele>261.4</ele>
        <time>2022-10-15 15:35:50</time>
      </trkpt>
      <trkpt lat="38.41123" lon="-0.79176">
        <ele>261.2</ele>
        <time>2022-10-15 15:35:51</time>
      </trkpt>
      <trkpt lat="38.4112" lon="-0.79172">
        <ele>261.2</ele>
        <time>2022-10-15 15:35:52</time>
      </trkpt>
      <trkpt lat="38.41117" lon="-0.79168">
        <ele>261.2</ele>
        <time>2022-10-15 15:35:53</time>
      </trkpt>
      <trkpt lat="38.41115" lon="-0.79165">
        <ele>261.2</ele>
        <time>2022-10-15 15:35:54</time>
      </trkpt>
      <trkpt lat="38.41112" lon="-0.79161">
        <ele>261.2</ele>
        <time>2022-10-15 15:35:55</time>
      </trkpt>
      <trkpt lat="38.41106" lon="-0.79152">
        <ele>261.2</ele>
        <time>2022-10-15 15:35:57</time>
      </trkpt>
      <trkpt lat="38.41104" lon="-0.79148">
        <ele>261.6</ele>
        <time>2022-10-15 15:35:58</time>
      </trkpt>
      <trkpt lat="38.41102" lon="-0.79144">
        <ele>261.6</ele>
        <time>2022-10-15 15:35:59</time>
      </trkpt>
      <trkpt lat="38.411" lon="-0.79139">
        <ele>261.6</ele>
        <time>2022-10-15 15:36:00</time>
      </trkpt>
      <trkpt lat="38.41098" lon="-0.79135">
        <ele>261.6</ele>
        <time>2022-10-15 15:36:01</time>
      </trkpt>
      <trkpt lat="38.41098" lon="-0.79135">
        <ele>261.6</ele>
        <time>2022-10-15 15:36:02</time>
      </trkpt>
      <trkpt lat="38.41095" lon="-0.79126">
        <ele>261.6</ele>
        <time>2022-10-15 15:36:03</time>
      </trkpt>
      <trkpt lat="38.41093" lon="-0.79122">
        <ele>261.6</ele>
        <time>2022-10-15 15:36:04</time>
      </trkpt>
      <trkpt lat="38.41091" lon="-0.79118">
        <ele>261.6</ele>
        <time>2022-10-15 15:36:05</time>
      </trkpt>
      <trkpt lat="38.41087" lon="-0.7911">
        <ele>261.6</ele>
        <time>2022-10-15 15:36:07</time>
      </trkpt>
      <trkpt lat="38.41087" lon="-0.7911">
        <ele>261.6</ele>
        <time>2022-10-15 15:36:08</time>
      </trkpt>
      <trkpt lat="38.41084" lon="-0.79101">
        <ele>261.6</ele>
        <time>2022-10-15 15:36:09</time>
      </trkpt>
      <trkpt lat="38.41082" lon="-0.79097">
        <ele>261.6</ele>
        <time>2022-10-15 15:36:10</time>
      </trkpt>
      <trkpt lat="38.4108" lon="-0.79093">
        <ele>261.6</ele>
        <time>2022-10-15 15:36:11</time>
      </trkpt>
      <trkpt lat="38.41077" lon="-0.79089">
        <ele>261.6</ele>
        <time>2022-10-15 15:36:12</time>
      </trkpt>
      <trkpt lat="38.41075" lon="-0.79085">
        <ele>261.6</ele>
        <time>2022-10-15 15:36:13</time>
      </trkpt>
      <trkpt lat="38.41075" lon="-0.79085">
        <ele>261.6</ele>
        <time>2022-10-15 15:36:14</time>
      </trkpt>
      <trkpt lat="38.4107" lon="-0.79077">
        <ele>261.6</ele>
        <time>2022-10-15 15:36:15</time>
      </trkpt>
      <trkpt lat="38.41067" lon="-0.79073">
        <ele>261.6</ele>
        <time>2022-10-15 15:36:16</time>
      </trkpt>
      <trkpt lat="38.41062" lon="-0.79065">
        <ele>261.8</ele>
        <time>2022-10-15 15:36:18</time>
      </trkpt>
      <trkpt lat="38.41059" lon="-0.79061">
        <ele>261.8</ele>
        <time>2022-10-15 15:36:19</time>
      </trkpt>
      <trkpt lat="38.41059" lon="-0.79061">
        <ele>261.8</ele>
        <time>2022-10-15 15:36:20</time>
      </trkpt>
      <trkpt lat="38.41055" lon="-0.79053">
        <ele>261.8</ele>
        <time>2022-10-15 15:36:21</time>
      </trkpt>
      <trkpt lat="38.41052" lon="-0.7905">
        <ele>261.6</ele>
        <time>2022-10-15 15:36:22</time>
      </trkpt>
      <trkpt lat="38.41049" lon="-0.79048">
        <ele>261.6</ele>
        <time>2022-10-15 15:36:23</time>
      </trkpt>
      <trkpt lat="38.41047" lon="-0.79046">
        <ele>261.6</ele>
        <time>2022-10-15 15:36:24</time>
      </trkpt>
      <trkpt lat="38.41044" lon="-0.79045">
        <ele>261.6</ele>
        <time>2022-10-15 15:36:25</time>
      </trkpt>
      <trkpt lat="38.41044" lon="-0.79045">
        <ele>261.6</ele>
        <time>2022-10-15 15:36:26</time>
      </trkpt>
      <trkpt lat="38.41038" lon="-0.7904">
        <ele>261.6</ele>
        <time>2022-10-15 15:36:27</time>
      </trkpt>
      <trkpt lat="38.41035" lon="-0.79037">
        <ele>261.6</ele>
        <time>2022-10-15 15:36:28</time>
      </trkpt>
      <trkpt lat="38.41031" lon="-0.79034">
        <ele>261.6</ele>
        <time>2022-10-15 15:36:29</time>
      </trkpt>
      <trkpt lat="38.41028" lon="-0.79032">
        <ele>261.6</ele>
        <time>2022-10-15 15:36:30</time>
      </trkpt>
      <trkpt lat="38.41024" lon="-0.79029">
        <ele>261.6</ele>
        <time>2022-10-15 15:36:31</time>
      </trkpt>
      <trkpt lat="38.41024" lon="-0.79029">
        <ele>261.4</ele>
        <time>2022-10-15 15:36:32</time>
      </trkpt>
      <trkpt lat="38.41017" lon="-0.79026">
        <ele>261.6</ele>
        <time>2022-10-15 15:36:33</time>
      </trkpt>
      <trkpt lat="38.41013" lon="-0.79024">
        <ele>261.6</ele>
        <time>2022-10-15 15:36:34</time>
      </trkpt>
      <trkpt lat="38.41009" lon="-0.79023">
        <ele>261.4</ele>
        <time>2022-10-15 15:36:35</time>
      </trkpt>
      <trkpt lat="38.41006" lon="-0.79021">
        <ele>261</ele>
        <time>2022-10-15 15:36:36</time>
      </trkpt>
      <trkpt lat="38.41003" lon="-0.79018">
        <ele>260.6</ele>
        <time>2022-10-15 15:36:37</time>
      </trkpt>
      <trkpt lat="38.41003" lon="-0.79018">
        <ele>260.4</ele>
        <time>2022-10-15 15:36:38</time>
      </trkpt>
      <trkpt lat="38.40997" lon="-0.79011">
        <ele>260.2</ele>
        <time>2022-10-15 15:36:39</time>
      </trkpt>
      <trkpt lat="38.40994" lon="-0.79008">
        <ele>260</ele>
        <time>2022-10-15 15:36:40</time>
      </trkpt>
      <trkpt lat="38.40991" lon="-0.79004">
        <ele>260</ele>
        <time>2022-10-15 15:36:41</time>
      </trkpt>
      <trkpt lat="38.40988" lon="-0.79001">
        <ele>260</ele>
        <time>2022-10-15 15:36:42</time>
      </trkpt>
      <trkpt lat="38.40984" lon="-0.78998">
        <ele>260</ele>
        <time>2022-10-15 15:36:43</time>
      </trkpt>
      <trkpt lat="38.40984" lon="-0.78998">
        <ele>259.8</ele>
        <time>2022-10-15 15:36:44</time>
      </trkpt>
      <trkpt lat="38.40976" lon="-0.78993">
        <ele>259.8</ele>
        <time>2022-10-15 15:36:45</time>
      </trkpt>
      <trkpt lat="38.40972" lon="-0.7899">
        <ele>259.6</ele>
        <time>2022-10-15 15:36:46</time>
      </trkpt>
      <trkpt lat="38.40964" lon="-0.78987">
        <ele>259.6</ele>
        <time>2022-10-15 15:36:48</time>
      </trkpt>
      <trkpt lat="38.40959" lon="-0.78985">
        <ele>259.4</ele>
        <time>2022-10-15 15:36:49</time>
      </trkpt>
      <trkpt lat="38.40959" lon="-0.78985">
        <ele>259.4</ele>
        <time>2022-10-15 15:36:50</time>
      </trkpt>
      <trkpt lat="38.40951" lon="-0.78983">
        <ele>259.2</ele>
        <time>2022-10-15 15:36:51</time>
      </trkpt>
      <trkpt lat="38.40946" lon="-0.78982">
        <ele>259.2</ele>
        <time>2022-10-15 15:36:52</time>
      </trkpt>
      <trkpt lat="38.40942" lon="-0.7898">
        <ele>259.2</ele>
        <time>2022-10-15 15:36:53</time>
      </trkpt>
      <trkpt lat="38.40938" lon="-0.78979">
        <ele>259.2</ele>
        <time>2022-10-15 15:36:54</time>
      </trkpt>
      <trkpt lat="38.40934" lon="-0.78977">
        <ele>259.2</ele>
        <time>2022-10-15 15:36:55</time>
      </trkpt>
      <trkpt lat="38.40934" lon="-0.78977">
        <ele>259</ele>
        <time>2022-10-15 15:36:56</time>
      </trkpt>
      <trkpt lat="38.40927" lon="-0.78971">
        <ele>259</ele>
        <time>2022-10-15 15:36:57</time>
      </trkpt>
      <trkpt lat="38.40924" lon="-0.78967">
        <ele>259</ele>
        <time>2022-10-15 15:36:58</time>
      </trkpt>
      <trkpt lat="38.4092" lon="-0.78964">
        <ele>258.8</ele>
        <time>2022-10-15 15:36:59</time>
      </trkpt>
      <trkpt lat="38.40917" lon="-0.78961">
        <ele>258.8</ele>
        <time>2022-10-15 15:37:00</time>
      </trkpt>
      <trkpt lat="38.40914" lon="-0.78958">
        <ele>258.6</ele>
        <time>2022-10-15 15:37:01</time>
      </trkpt>
      <trkpt lat="38.40914" lon="-0.78958">
        <ele>258.4</ele>
        <time>2022-10-15 15:37:02</time>
      </trkpt>
      <trkpt lat="38.40908" lon="-0.78952">
        <ele>258.2</ele>
        <time>2022-10-15 15:37:03</time>
      </trkpt>
      <trkpt lat="38.40905" lon="-0.78949">
        <ele>258</ele>
        <time>2022-10-15 15:37:04</time>
      </trkpt>
      <trkpt lat="38.40902" lon="-0.78946">
        <ele>258</ele>
        <time>2022-10-15 15:37:05</time>
      </trkpt>
      <trkpt lat="38.40899" lon="-0.78943">
        <ele>258</ele>
        <time>2022-10-15 15:37:06</time>
      </trkpt>
      <trkpt lat="38.40896" lon="-0.7894">
        <ele>258</ele>
        <time>2022-10-15 15:37:07</time>
      </trkpt>
      <trkpt lat="38.40889" lon="-0.78936">
        <ele>258</ele>
        <time>2022-10-15 15:37:09</time>
      </trkpt>
      <trkpt lat="38.40886" lon="-0.78935">
        <ele>258</ele>
        <time>2022-10-15 15:37:10</time>
      </trkpt>
      <trkpt lat="38.40883" lon="-0.78934">
        <ele>258</ele>
        <time>2022-10-15 15:37:11</time>
      </trkpt>
      <trkpt lat="38.40879" lon="-0.78934">
        <ele>258.2</ele>
        <time>2022-10-15 15:37:12</time>
      </trkpt>
      <trkpt lat="38.40875" lon="-0.78934">
        <ele>258.4</ele>
        <time>2022-10-15 15:37:13</time>
      </trkpt>
      <trkpt lat="38.40875" lon="-0.78934">
        <ele>258.4</ele>
        <time>2022-10-15 15:37:14</time>
      </trkpt>
      <trkpt lat="38.40867" lon="-0.78933">
        <ele>258.4</ele>
        <time>2022-10-15 15:37:15</time>
      </trkpt>
      <trkpt lat="38.40863" lon="-0.78932">
        <ele>258.4</ele>
        <time>2022-10-15 15:37:16</time>
      </trkpt>
      <trkpt lat="38.40859" lon="-0.7893">
        <ele>258.4</ele>
        <time>2022-10-15 15:37:17</time>
      </trkpt>
      <trkpt lat="38.40855" lon="-0.78928">
        <ele>258.4</ele>
        <time>2022-10-15 15:37:18</time>
      </trkpt>
      <trkpt lat="38.40851" lon="-0.78925">
        <ele>258.4</ele>
        <time>2022-10-15 15:37:19</time>
      </trkpt>
      <trkpt lat="38.40851" lon="-0.78925">
        <ele>258.4</ele>
        <time>2022-10-15 15:37:20</time>
      </trkpt>
      <trkpt lat="38.40843" lon="-0.78919">
        <ele>258.4</ele>
        <time>2022-10-15 15:37:21</time>
      </trkpt>
      <trkpt lat="38.40836" lon="-0.78914">
        <ele>258</ele>
        <time>2022-10-15 15:37:23</time>
      </trkpt>
      <trkpt lat="38.40832" lon="-0.78911">
        <ele>257.8</ele>
        <time>2022-10-15 15:37:24</time>
      </trkpt>
      <trkpt lat="38.40829" lon="-0.78908">
        <ele>257.6</ele>
        <time>2022-10-15 15:37:25</time>
      </trkpt>
      <trkpt lat="38.40822" lon="-0.78903">
        <ele>257</ele>
        <time>2022-10-15 15:37:27</time>
      </trkpt>
      <trkpt lat="38.40818" lon="-0.789">
        <ele>257.2</ele>
        <time>2022-10-15 15:37:28</time>
      </trkpt>
      <trkpt lat="38.40811" lon="-0.78894">
        <ele>257</ele>
        <time>2022-10-15 15:37:30</time>
      </trkpt>
      <trkpt lat="38.40808" lon="-0.78891">
        <ele>257</ele>
        <time>2022-10-15 15:37:31</time>
      </trkpt>
      <trkpt lat="38.40808" lon="-0.78891">
        <ele>256.8</ele>
        <time>2022-10-15 15:37:32</time>
      </trkpt>
      <trkpt lat="38.40801" lon="-0.78885">
        <ele>256.8</ele>
        <time>2022-10-15 15:37:33</time>
      </trkpt>
      <trkpt lat="38.40793" lon="-0.7888">
        <ele>256.6</ele>
        <time>2022-10-15 15:37:35</time>
      </trkpt>
      <trkpt lat="38.40786" lon="-0.78876">
        <ele>256.6</ele>
        <time>2022-10-15 15:37:37</time>
      </trkpt>
      <trkpt lat="38.40778" lon="-0.7887">
        <ele>256.6</ele>
        <time>2022-10-15 15:37:39</time>
      </trkpt>
      <trkpt lat="38.40774" lon="-0.78868">
        <ele>256.6</ele>
        <time>2022-10-15 15:37:40</time>
      </trkpt>
      <trkpt lat="38.40766" lon="-0.78862">
        <ele>256.6</ele>
        <time>2022-10-15 15:37:42</time>
      </trkpt>
      <trkpt lat="38.40763" lon="-0.78859">
        <ele>256.6</ele>
        <time>2022-10-15 15:37:44</time>
      </trkpt>
      <trkpt lat="38.40755" lon="-0.78852">
        <ele>256.6</ele>
        <time>2022-10-15 15:37:45</time>
      </trkpt>
      <trkpt lat="38.40751" lon="-0.78849">
        <ele>256.6</ele>
        <time>2022-10-15 15:37:46</time>
      </trkpt>
      <trkpt lat="38.40747" lon="-0.78846">
        <ele>256.4</ele>
        <time>2022-10-15 15:37:47</time>
      </trkpt>
      <trkpt lat="38.40739" lon="-0.78842">
        <ele>256.4</ele>
        <time>2022-10-15 15:37:49</time>
      </trkpt>
      <trkpt lat="38.40739" lon="-0.78842">
        <ele>256.4</ele>
        <time>2022-10-15 15:37:50</time>
      </trkpt>
      <trkpt lat="38.40731" lon="-0.78837">
        <ele>256.2</ele>
        <time>2022-10-15 15:37:51</time>
      </trkpt>
      <trkpt lat="38.40728" lon="-0.78834">
        <ele>256.2</ele>
        <time>2022-10-15 15:37:52</time>
      </trkpt>
      <trkpt lat="38.40724" lon="-0.7883">
        <ele>256.2</ele>
        <time>2022-10-15 15:37:53</time>
      </trkpt>
      <trkpt lat="38.40721" lon="-0.78826">
        <ele>256.2</ele>
        <time>2022-10-15 15:37:54</time>
      </trkpt>
      <trkpt lat="38.40717" lon="-0.78822">
        <ele>256.2</ele>
        <time>2022-10-15 15:37:56</time>
      </trkpt>
      <trkpt lat="38.40707" lon="-0.78811">
        <ele>256</ele>
        <time>2022-10-15 15:37:58</time>
      </trkpt>
      <trkpt lat="38.40703" lon="-0.78807">
        <ele>256</ele>
        <time>2022-10-15 15:37:59</time>
      </trkpt>
      <trkpt lat="38.40697" lon="-0.78799">
        <ele>256</ele>
        <time>2022-10-15 15:38:01</time>
      </trkpt>
      <trkpt lat="38.40691" lon="-0.7879">
        <ele>255.8</ele>
        <time>2022-10-15 15:38:03</time>
      </trkpt>
      <trkpt lat="38.40685" lon="-0.78782">
        <ele>255.8</ele>
        <time>2022-10-15 15:38:05</time>
      </trkpt>
      <trkpt lat="38.40681" lon="-0.78779">
        <ele>255.8</ele>
        <time>2022-10-15 15:38:06</time>
      </trkpt>
      <trkpt lat="38.40677" lon="-0.78777">
        <ele>255.8</ele>
        <time>2022-10-15 15:38:07</time>
      </trkpt>
      <trkpt lat="38.40677" lon="-0.78777">
        <ele>255.6</ele>
        <time>2022-10-15 15:38:08</time>
      </trkpt>
      <trkpt lat="38.40666" lon="-0.78768">
        <ele>255.6</ele>
        <time>2022-10-15 15:38:10</time>
      </trkpt>
      <trkpt lat="38.40663" lon="-0.78764">
        <ele>255.6</ele>
        <time>2022-10-15 15:38:11</time>
      </trkpt>
      <trkpt lat="38.4066" lon="-0.7876">
        <ele>255.6</ele>
        <time>2022-10-15 15:38:12</time>
      </trkpt>
      <trkpt lat="38.40657" lon="-0.78755">
        <ele>255.6</ele>
        <time>2022-10-15 15:38:13</time>
      </trkpt>
      <trkpt lat="38.40657" lon="-0.78755">
        <ele>255.4</ele>
        <time>2022-10-15 15:38:14</time>
      </trkpt>
      <trkpt lat="38.40652" lon="-0.78746">
        <ele>255.4</ele>
        <time>2022-10-15 15:38:15</time>
      </trkpt>
      <trkpt lat="38.40649" lon="-0.78742">
        <ele>255.4</ele>
        <time>2022-10-15 15:38:16</time>
      </trkpt>
      <trkpt lat="38.40642" lon="-0.78736">
        <ele>255.2</ele>
        <time>2022-10-15 15:38:18</time>
      </trkpt>
      <trkpt lat="38.40638" lon="-0.78733">
        <ele>255.2</ele>
        <time>2022-10-15 15:38:20</time>
      </trkpt>
      <trkpt lat="38.40632" lon="-0.78726">
        <ele>255</ele>
        <time>2022-10-15 15:38:21</time>
      </trkpt>
      <trkpt lat="38.40629" lon="-0.78723">
        <ele>255</ele>
        <time>2022-10-15 15:38:22</time>
      </trkpt>
      <trkpt lat="38.40627" lon="-0.78718">
        <ele>255</ele>
        <time>2022-10-15 15:38:23</time>
      </trkpt>
      <trkpt lat="38.40625" lon="-0.78714">
        <ele>255</ele>
        <time>2022-10-15 15:38:24</time>
      </trkpt>
      <trkpt lat="38.40621" lon="-0.78711">
        <ele>255</ele>
        <time>2022-10-15 15:38:25</time>
      </trkpt>
      <trkpt lat="38.40621" lon="-0.78711">
        <ele>255</ele>
        <time>2022-10-15 15:38:26</time>
      </trkpt>
      <trkpt lat="38.40614" lon="-0.78706">
        <ele>254.8</ele>
        <time>2022-10-15 15:38:27</time>
      </trkpt>
      <trkpt lat="38.4061" lon="-0.78705">
        <ele>254.8</ele>
        <time>2022-10-15 15:38:28</time>
      </trkpt>
      <trkpt lat="38.40602" lon="-0.78703">
        <ele>254.6</ele>
        <time>2022-10-15 15:38:30</time>
      </trkpt>
      <trkpt lat="38.40598" lon="-0.78701">
        <ele>254.4</ele>
        <time>2022-10-15 15:38:32</time>
      </trkpt>
      <trkpt lat="38.4059" lon="-0.78696">
        <ele>254.4</ele>
        <time>2022-10-15 15:38:33</time>
      </trkpt>
      <trkpt lat="38.40583" lon="-0.7869">
        <ele>254.2</ele>
        <time>2022-10-15 15:38:35</time>
      </trkpt>
      <trkpt lat="38.4058" lon="-0.78687">
        <ele>254.2</ele>
        <time>2022-10-15 15:38:36</time>
      </trkpt>
      <trkpt lat="38.40577" lon="-0.78683">
        <ele>254.2</ele>
        <time>2022-10-15 15:38:37</time>
      </trkpt>
      <trkpt lat="38.40577" lon="-0.78683">
        <ele>254</ele>
        <time>2022-10-15 15:38:38</time>
      </trkpt>
      <trkpt lat="38.40569" lon="-0.78673">
        <ele>254</ele>
        <time>2022-10-15 15:38:40</time>
      </trkpt>
      <trkpt lat="38.40565" lon="-0.78668">
        <ele>254</ele>
        <time>2022-10-15 15:38:42</time>
      </trkpt>
      <trkpt lat="38.40563" lon="-0.78666">
        <ele>254</ele>
        <time>2022-10-15 15:38:43</time>
      </trkpt>
      <trkpt lat="38.40558" lon="-0.78665">
        <ele>254</ele>
        <time>2022-10-15 15:38:45</time>
      </trkpt>
      <trkpt lat="38.40555" lon="-0.78665">
        <ele>254.2</ele>
        <time>2022-10-15 15:38:46</time>
      </trkpt>
      <trkpt lat="38.40553" lon="-0.78663">
        <ele>254.2</ele>
        <time>2022-10-15 15:38:47</time>
      </trkpt>
      <trkpt lat="38.4055" lon="-0.78661">
        <ele>254.2</ele>
        <time>2022-10-15 15:38:48</time>
      </trkpt>
      <trkpt lat="38.40548" lon="-0.78658">
        <ele>254.2</ele>
        <time>2022-10-15 15:38:49</time>
      </trkpt>
      <trkpt lat="38.40548" lon="-0.78658">
        <ele>254.2</ele>
        <time>2022-10-15 15:38:50</time>
      </trkpt>
      <trkpt lat="38.40542" lon="-0.78646">
        <ele>254.2</ele>
        <time>2022-10-15 15:38:52</time>
      </trkpt>
      <trkpt lat="38.40539" lon="-0.78641">
        <ele>254.2</ele>
        <time>2022-10-15 15:38:53</time>
      </trkpt>
      <trkpt lat="38.40535" lon="-0.78632">
        <ele>254.2</ele>
        <time>2022-10-15 15:38:55</time>
      </trkpt>
      <trkpt lat="38.40535" lon="-0.78632">
        <ele>254.2</ele>
        <time>2022-10-15 15:38:56</time>
      </trkpt>
      <trkpt lat="38.4053" lon="-0.78624">
        <ele>254</ele>
        <time>2022-10-15 15:38:57</time>
      </trkpt>
      <trkpt lat="38.40527" lon="-0.78621">
        <ele>254</ele>
        <time>2022-10-15 15:38:58</time>
      </trkpt>
      <trkpt lat="38.40519" lon="-0.78614">
        <ele>254</ele>
        <time>2022-10-15 15:39:00</time>
      </trkpt>
      <trkpt lat="38.40515" lon="-0.7861">
        <ele>253.8</ele>
        <time>2022-10-15 15:39:01</time>
      </trkpt>
      <trkpt lat="38.40515" lon="-0.7861">
        <ele>253.8</ele>
        <time>2022-10-15 15:39:02</time>
      </trkpt>
      <trkpt lat="38.40505" lon="-0.78606">
        <ele>253.8</ele>
        <time>2022-10-15 15:39:03</time>
      </trkpt>
      <trkpt lat="38.40501" lon="-0.78603">
        <ele>253.6</ele>
        <time>2022-10-15 15:39:04</time>
      </trkpt>
      <trkpt lat="38.40497" lon="-0.78599">
        <ele>253.6</ele>
        <time>2022-10-15 15:39:05</time>
      </trkpt>
      <trkpt lat="38.40491" lon="-0.78589">
        <ele>253.4</ele>
        <time>2022-10-15 15:39:07</time>
      </trkpt>
      <trkpt lat="38.40491" lon="-0.78589">
        <ele>253.4</ele>
        <time>2022-10-15 15:39:08</time>
      </trkpt>
      <trkpt lat="38.40485" lon="-0.78579">
        <ele>253.2</ele>
        <time>2022-10-15 15:39:09</time>
      </trkpt>
      <trkpt lat="38.40481" lon="-0.78575">
        <ele>253.2</ele>
        <time>2022-10-15 15:39:10</time>
      </trkpt>
      <trkpt lat="38.40478" lon="-0.78572">
        <ele>253.2</ele>
        <time>2022-10-15 15:39:11</time>
      </trkpt>
      <trkpt lat="38.40474" lon="-0.78569">
        <ele>253</ele>
        <time>2022-10-15 15:39:12</time>
      </trkpt>
      <trkpt lat="38.40471" lon="-0.78566">
        <ele>253</ele>
        <time>2022-10-15 15:39:13</time>
      </trkpt>
      <trkpt lat="38.40471" lon="-0.78566">
        <ele>253</ele>
        <time>2022-10-15 15:39:14</time>
      </trkpt>
      <trkpt lat="38.40465" lon="-0.7856">
        <ele>253</ele>
        <time>2022-10-15 15:39:15</time>
      </trkpt>
      <trkpt lat="38.40462" lon="-0.78556">
        <ele>253</ele>
        <time>2022-10-15 15:39:17</time>
      </trkpt>
      <trkpt lat="38.40461" lon="-0.78555">
        <ele>253</ele>
        <time>2022-10-15 15:39:18</time>
      </trkpt>
      <trkpt lat="38.40461" lon="-0.78554">
        <ele>253</ele>
        <time>2022-10-15 15:39:19</time>
      </trkpt>
      <trkpt lat="38.40461" lon="-0.78554">
        <ele>253</ele>
        <time>2022-10-15 15:39:20</time>
      </trkpt>
      <trkpt lat="38.40459" lon="-0.78553">
        <ele>253.6</ele>
        <time>2022-10-15 15:40:08</time>
      </trkpt>
      <trkpt lat="38.40456" lon="-0.7855">
        <ele>253.6</ele>
        <time>2022-10-15 15:40:09</time>
      </trkpt>
      <trkpt lat="38.40455" lon="-0.78547">
        <ele>253.6</ele>
        <time>2022-10-15 15:40:10</time>
      </trkpt>
      <trkpt lat="38.40453" lon="-0.78544">
        <ele>253.6</ele>
        <time>2022-10-15 15:40:11</time>
      </trkpt>
      <trkpt lat="38.40451" lon="-0.78541">
        <ele>253.6</ele>
        <time>2022-10-15 15:40:12</time>
      </trkpt>
      <trkpt lat="38.40448" lon="-0.78538">
        <ele>253.6</ele>
        <time>2022-10-15 15:40:13</time>
      </trkpt>
      <trkpt lat="38.40448" lon="-0.78538">
        <ele>253.4</ele>
        <time>2022-10-15 15:40:14</time>
      </trkpt>
      <trkpt lat="38.40443" lon="-0.78532">
        <ele>253.4</ele>
        <time>2022-10-15 15:40:15</time>
      </trkpt>
      <trkpt lat="38.40437" lon="-0.78526">
        <ele>253</ele>
        <time>2022-10-15 15:40:17</time>
      </trkpt>
      <trkpt lat="38.40435" lon="-0.78522">
        <ele>252.8</ele>
        <time>2022-10-15 15:40:18</time>
      </trkpt>
      <trkpt lat="38.40433" lon="-0.78517">
        <ele>252.6</ele>
        <time>2022-10-15 15:40:19</time>
      </trkpt>
      <trkpt lat="38.40433" lon="-0.78517">
        <ele>252.6</ele>
        <time>2022-10-15 15:40:20</time>
      </trkpt>
      <trkpt lat="38.40428" lon="-0.78509">
        <ele>252.4</ele>
        <time>2022-10-15 15:40:21</time>
      </trkpt>
      <trkpt lat="38.40425" lon="-0.78506">
        <ele>252.4</ele>
        <time>2022-10-15 15:40:22</time>
      </trkpt>
      <trkpt lat="38.40418" lon="-0.785">
        <ele>252.2</ele>
        <time>2022-10-15 15:40:24</time>
      </trkpt>
      <trkpt lat="38.40413" lon="-0.78498">
        <ele>252.2</ele>
        <time>2022-10-15 15:40:25</time>
      </trkpt>
      <trkpt lat="38.40405" lon="-0.78494">
        <ele>251.8</ele>
        <time>2022-10-15 15:40:27</time>
      </trkpt>
      <trkpt lat="38.40397" lon="-0.7849">
        <ele>251.8</ele>
        <time>2022-10-15 15:40:29</time>
      </trkpt>
      <trkpt lat="38.40392" lon="-0.78489">
        <ele>251.6</ele>
        <time>2022-10-15 15:40:30</time>
      </trkpt>
      <trkpt lat="38.40388" lon="-0.78486">
        <ele>251.6</ele>
        <time>2022-10-15 15:40:31</time>
      </trkpt>
      <trkpt lat="38.40388" lon="-0.78486">
        <ele>251.6</ele>
        <time>2022-10-15 15:40:32</time>
      </trkpt>
      <trkpt lat="38.40381" lon="-0.78481">
        <ele>251.4</ele>
        <time>2022-10-15 15:40:33</time>
      </trkpt>
      <trkpt lat="38.40377" lon="-0.78479">
        <ele>251.4</ele>
        <time>2022-10-15 15:40:34</time>
      </trkpt>
      <trkpt lat="38.40369" lon="-0.78476">
        <ele>251.2</ele>
        <time>2022-10-15 15:40:36</time>
      </trkpt>
      <trkpt lat="38.40366" lon="-0.78473">
        <ele>251.2</ele>
        <time>2022-10-15 15:40:37</time>
      </trkpt>
      <trkpt lat="38.40366" lon="-0.78473">
        <ele>251.2</ele>
        <time>2022-10-15 15:40:38</time>
      </trkpt>
      <trkpt lat="38.4036" lon="-0.78469">
        <ele>251</ele>
        <time>2022-10-15 15:40:39</time>
      </trkpt>
      <trkpt lat="38.40354" lon="-0.78463">
        <ele>251</ele>
        <time>2022-10-15 15:40:41</time>
      </trkpt>
      <trkpt lat="38.40349" lon="-0.78456">
        <ele>251</ele>
        <time>2022-10-15 15:40:43</time>
      </trkpt>
      <trkpt lat="38.40349" lon="-0.78456">
        <ele>251</ele>
        <time>2022-10-15 15:40:44</time>
      </trkpt>
      <trkpt lat="38.40342" lon="-0.7845">
        <ele>251</ele>
        <time>2022-10-15 15:40:45</time>
      </trkpt>
      <trkpt lat="38.40338" lon="-0.78449">
        <ele>250.8</ele>
        <time>2022-10-15 15:40:46</time>
      </trkpt>
      <trkpt lat="38.40328" lon="-0.78448">
        <ele>250.8</ele>
        <time>2022-10-15 15:40:48</time>
      </trkpt>
      <trkpt lat="38.40322" lon="-0.78447">
        <ele>250.6</ele>
        <time>2022-10-15 15:40:49</time>
      </trkpt>
      <trkpt lat="38.40322" lon="-0.78447">
        <ele>250.6</ele>
        <time>2022-10-15 15:40:50</time>
      </trkpt>
      <trkpt lat="38.40312" lon="-0.78446">
        <ele>250.6</ele>
        <time>2022-10-15 15:40:51</time>
      </trkpt>
      <trkpt lat="38.40308" lon="-0.78446">
        <ele>250.6</ele>
        <time>2022-10-15 15:40:52</time>
      </trkpt>
      <trkpt lat="38.40304" lon="-0.78446">
        <ele>250.6</ele>
        <time>2022-10-15 15:40:53</time>
      </trkpt>
      <trkpt lat="38.40301" lon="-0.78447">
        <ele>250.4</ele>
        <time>2022-10-15 15:40:54</time>
      </trkpt>
      <trkpt lat="38.40299" lon="-0.78448">
        <ele>250.2</ele>
        <time>2022-10-15 15:40:55</time>
      </trkpt>
      <trkpt lat="38.40299" lon="-0.78448">
        <ele>250.2</ele>
        <time>2022-10-15 15:40:56</time>
      </trkpt>
      <trkpt lat="38.40292" lon="-0.78446">
        <ele>249.8</ele>
        <time>2022-10-15 15:40:58</time>
      </trkpt>
      <trkpt lat="38.40288" lon="-0.78446">
        <ele>249.8</ele>
        <time>2022-10-15 15:41:00</time>
      </trkpt>
      <trkpt lat="38.40285" lon="-0.78445">
        <ele>249.6</ele>
        <time>2022-10-15 15:41:01</time>
      </trkpt>
      <trkpt lat="38.40285" lon="-0.78445">
        <ele>249.4</ele>
        <time>2022-10-15 15:41:02</time>
      </trkpt>
      <trkpt lat="38.4028" lon="-0.78444">
        <ele>249.4</ele>
        <time>2022-10-15 15:41:03</time>
      </trkpt>
      <trkpt lat="38.40277" lon="-0.78443">
        <ele>249.2</ele>
        <time>2022-10-15 15:41:04</time>
      </trkpt>
      <trkpt lat="38.40274" lon="-0.78442">
        <ele>249.2</ele>
        <time>2022-10-15 15:41:05</time>
      </trkpt>
      <trkpt lat="38.40267" lon="-0.78439">
        <ele>249.2</ele>
        <time>2022-10-15 15:41:07</time>
      </trkpt>
      <trkpt lat="38.40267" lon="-0.78439">
        <ele>249.2</ele>
        <time>2022-10-15 15:41:08</time>
      </trkpt>
      <trkpt lat="38.4026" lon="-0.78434">
        <ele>249.2</ele>
        <time>2022-10-15 15:41:09</time>
      </trkpt>
      <trkpt lat="38.40257" lon="-0.78431">
        <ele>249.2</ele>
        <time>2022-10-15 15:41:10</time>
      </trkpt>
      <trkpt lat="38.40251" lon="-0.78424">
        <ele>249.2</ele>
        <time>2022-10-15 15:41:12</time>
      </trkpt>
      <trkpt lat="38.40249" lon="-0.7842">
        <ele>249.2</ele>
        <time>2022-10-15 15:41:13</time>
      </trkpt>
      <trkpt lat="38.40249" lon="-0.7842">
        <ele>249.2</ele>
        <time>2022-10-15 15:41:14</time>
      </trkpt>
      <trkpt lat="38.40242" lon="-0.78415">
        <ele>249</ele>
        <time>2022-10-15 15:41:15</time>
      </trkpt>
      <trkpt lat="38.40236" lon="-0.78412">
        <ele>249</ele>
        <time>2022-10-15 15:41:17</time>
      </trkpt>
      <trkpt lat="38.40232" lon="-0.78411">
        <ele>249</ele>
        <time>2022-10-15 15:41:18</time>
      </trkpt>
      <trkpt lat="38.40229" lon="-0.78409">
        <ele>248.8</ele>
        <time>2022-10-15 15:41:19</time>
      </trkpt>
      <trkpt lat="38.40229" lon="-0.78409">
        <ele>248.8</ele>
        <time>2022-10-15 15:41:20</time>
      </trkpt>
      <trkpt lat="38.40224" lon="-0.78407">
        <ele>248.8</ele>
        <time>2022-10-15 15:41:21</time>
      </trkpt>
      <trkpt lat="38.40223" lon="-0.78406">
        <ele>248.6</ele>
        <time>2022-10-15 15:41:22</time>
      </trkpt>
      <trkpt lat="38.40221" lon="-0.78405">
        <ele>248.6</ele>
        <time>2022-10-15 15:41:23</time>
      </trkpt>
      <trkpt lat="38.4022" lon="-0.78405">
        <ele>248.6</ele>
        <time>2022-10-15 15:41:24</time>
      </trkpt>
      <trkpt lat="38.40219" lon="-0.78404">
        <ele>248.6</ele>
        <time>2022-10-15 15:41:26</time>
      </trkpt>
      <trkpt lat="38.40214" lon="-0.784">
        <ele>248.6</ele>
        <time>2022-10-15 15:41:28</time>
      </trkpt>
      <trkpt lat="38.40212" lon="-0.78398">
        <ele>248.6</ele>
        <time>2022-10-15 15:41:29</time>
      </trkpt>
      <trkpt lat="38.40209" lon="-0.78396">
        <ele>248.6</ele>
        <time>2022-10-15 15:41:30</time>
      </trkpt>
      <trkpt lat="38.40207" lon="-0.78393">
        <ele>248.6</ele>
        <time>2022-10-15 15:41:31</time>
      </trkpt>
      <trkpt lat="38.40201" lon="-0.78387">
        <ele>248.6</ele>
        <time>2022-10-15 15:41:33</time>
      </trkpt>
      <trkpt lat="38.40199" lon="-0.78384">
        <ele>248.6</ele>
        <time>2022-10-15 15:41:34</time>
      </trkpt>
      <trkpt lat="38.40195" lon="-0.78376">
        <ele>248.6</ele>
        <time>2022-10-15 15:41:36</time>
      </trkpt>
      <trkpt lat="38.40193" lon="-0.78372">
        <ele>248.6</ele>
        <time>2022-10-15 15:41:37</time>
      </trkpt>
      <trkpt lat="38.40193" lon="-0.78372">
        <ele>248.6</ele>
        <time>2022-10-15 15:41:38</time>
      </trkpt>
      <trkpt lat="38.40188" lon="-0.78365">
        <ele>248.6</ele>
        <time>2022-10-15 15:41:39</time>
      </trkpt>
      <trkpt lat="38.40185" lon="-0.78363">
        <ele>248.6</ele>
        <time>2022-10-15 15:41:40</time>
      </trkpt>
      <trkpt lat="38.40182" lon="-0.7836">
        <ele>248.6</ele>
        <time>2022-10-15 15:41:41</time>
      </trkpt>
      <trkpt lat="38.40177" lon="-0.78352">
        <ele>248.6</ele>
        <time>2022-10-15 15:41:43</time>
      </trkpt>
      <trkpt lat="38.40177" lon="-0.78352">
        <ele>248.6</ele>
        <time>2022-10-15 15:41:44</time>
      </trkpt>
      <trkpt lat="38.40172" lon="-0.78344">
        <ele>248.6</ele>
        <time>2022-10-15 15:41:45</time>
      </trkpt>
      <trkpt lat="38.4017" lon="-0.78339">
        <ele>248.6</ele>
        <time>2022-10-15 15:41:46</time>
      </trkpt>
      <trkpt lat="38.40168" lon="-0.78334">
        <ele>248.6</ele>
        <time>2022-10-15 15:41:47</time>
      </trkpt>
      <trkpt lat="38.40166" lon="-0.78329">
        <ele>248.6</ele>
        <time>2022-10-15 15:41:48</time>
      </trkpt>
      <trkpt lat="38.40163" lon="-0.78324">
        <ele>248.4</ele>
        <time>2022-10-15 15:41:49</time>
      </trkpt>
      <trkpt lat="38.40163" lon="-0.78324">
        <ele>248.4</ele>
        <time>2022-10-15 15:41:50</time>
      </trkpt>
      <trkpt lat="38.40158" lon="-0.78315">
        <ele>248.4</ele>
        <time>2022-10-15 15:41:51</time>
      </trkpt>
      <trkpt lat="38.40155" lon="-0.78311">
        <ele>248.4</ele>
        <time>2022-10-15 15:41:52</time>
      </trkpt>
      <trkpt lat="38.40152" lon="-0.78306">
        <ele>248.4</ele>
        <time>2022-10-15 15:41:53</time>
      </trkpt>
      <trkpt lat="38.40149" lon="-0.78302">
        <ele>248.2</ele>
        <time>2022-10-15 15:41:54</time>
      </trkpt>
      <trkpt lat="38.40147" lon="-0.78297">
        <ele>248.2</ele>
        <time>2022-10-15 15:41:55</time>
      </trkpt>
      <trkpt lat="38.40141" lon="-0.78289">
        <ele>248</ele>
        <time>2022-10-15 15:41:57</time>
      </trkpt>
      <trkpt lat="38.40139" lon="-0.78284">
        <ele>247.8</ele>
        <time>2022-10-15 15:41:58</time>
      </trkpt>
      <trkpt lat="38.40137" lon="-0.7828">
        <ele>247.8</ele>
        <time>2022-10-15 15:41:59</time>
      </trkpt>
      <trkpt lat="38.40135" lon="-0.78276">
        <ele>247.6</ele>
        <time>2022-10-15 15:42:00</time>
      </trkpt>
      <trkpt lat="38.40133" lon="-0.78271">
        <ele>247.6</ele>
        <time>2022-10-15 15:42:01</time>
      </trkpt>
      <trkpt lat="38.40133" lon="-0.78271">
        <ele>247.4</ele>
        <time>2022-10-15 15:42:02</time>
      </trkpt>
      <trkpt lat="38.40127" lon="-0.78257">
        <ele>247.4</ele>
        <time>2022-10-15 15:42:04</time>
      </trkpt>
      <trkpt lat="38.40125" lon="-0.78252">
        <ele>247.2</ele>
        <time>2022-10-15 15:42:05</time>
      </trkpt>
      <trkpt lat="38.4012" lon="-0.78245">
        <ele>247.2</ele>
        <time>2022-10-15 15:42:07</time>
      </trkpt>
      <trkpt lat="38.4012" lon="-0.78245">
        <ele>247.2</ele>
        <time>2022-10-15 15:42:08</time>
      </trkpt>
      <trkpt lat="38.40113" lon="-0.7824">
        <ele>247</ele>
        <time>2022-10-15 15:42:09</time>
      </trkpt>
      <trkpt lat="38.40107" lon="-0.78235">
        <ele>247</ele>
        <time>2022-10-15 15:42:11</time>
      </trkpt>
      <trkpt lat="38.40104" lon="-0.78232">
        <ele>247.2</ele>
        <time>2022-10-15 15:42:12</time>
      </trkpt>
      <trkpt lat="38.40101" lon="-0.78228">
        <ele>247</ele>
        <time>2022-10-15 15:42:14</time>
      </trkpt>
      <trkpt lat="38.40097" lon="-0.78221">
        <ele>247</ele>
        <time>2022-10-15 15:42:15</time>
      </trkpt>
      <trkpt lat="38.40097" lon="-0.78216">
        <ele>247</ele>
        <time>2022-10-15 15:42:16</time>
      </trkpt>
      <trkpt lat="38.40097" lon="-0.78212">
        <ele>247</ele>
        <time>2022-10-15 15:42:17</time>
      </trkpt>
      <trkpt lat="38.40096" lon="-0.78208">
        <ele>247</ele>
        <time>2022-10-15 15:42:18</time>
      </trkpt>
      <trkpt lat="38.40095" lon="-0.78204">
        <ele>247</ele>
        <time>2022-10-15 15:42:19</time>
      </trkpt>
      <trkpt lat="38.40095" lon="-0.78204">
        <ele>247</ele>
        <time>2022-10-15 15:42:20</time>
      </trkpt>
      <trkpt lat="38.40089" lon="-0.78197">
        <ele>247</ele>
        <time>2022-10-15 15:42:21</time>
      </trkpt>
      <trkpt lat="38.40082" lon="-0.78192">
        <ele>247</ele>
        <time>2022-10-15 15:42:23</time>
      </trkpt>
      <trkpt lat="38.40078" lon="-0.78188">
        <ele>247</ele>
        <time>2022-10-15 15:42:24</time>
      </trkpt>
      <trkpt lat="38.40074" lon="-0.78185">
        <ele>246.8</ele>
        <time>2022-10-15 15:42:26</time>
      </trkpt>
      <trkpt lat="38.40066" lon="-0.78177">
        <ele>246.8</ele>
        <time>2022-10-15 15:42:27</time>
      </trkpt>
      <trkpt lat="38.40063" lon="-0.78172">
        <ele>246.8</ele>
        <time>2022-10-15 15:42:28</time>
      </trkpt>
      <trkpt lat="38.40058" lon="-0.78162">
        <ele>246.8</ele>
        <time>2022-10-15 15:42:30</time>
      </trkpt>
      <trkpt lat="38.40055" lon="-0.78157">
        <ele>246.6</ele>
        <time>2022-10-15 15:42:31</time>
      </trkpt>
      <trkpt lat="38.40055" lon="-0.78157">
        <ele>246.6</ele>
        <time>2022-10-15 15:42:32</time>
      </trkpt>
      <trkpt lat="38.40045" lon="-0.78152">
        <ele>246.6</ele>
        <time>2022-10-15 15:42:33</time>
      </trkpt>
      <trkpt lat="38.4004" lon="-0.78148">
        <ele>246.4</ele>
        <time>2022-10-15 15:42:34</time>
      </trkpt>
      <trkpt lat="38.40035" lon="-0.78144">
        <ele>246.4</ele>
        <time>2022-10-15 15:42:35</time>
      </trkpt>
      <trkpt lat="38.40029" lon="-0.78139">
        <ele>246.2</ele>
        <time>2022-10-15 15:42:36</time>
      </trkpt>
      <trkpt lat="38.40025" lon="-0.78135">
        <ele>246</ele>
        <time>2022-10-15 15:42:38</time>
      </trkpt>
      <trkpt lat="38.40017" lon="-0.78128">
        <ele>246</ele>
        <time>2022-10-15 15:42:40</time>
      </trkpt>
      <trkpt lat="38.40015" lon="-0.78125">
        <ele>246</ele>
        <time>2022-10-15 15:42:42</time>
      </trkpt>
      <trkpt lat="38.40014" lon="-0.78124">
        <ele>246</ele>
        <time>2022-10-15 15:42:43</time>
      </trkpt>
      <trkpt lat="38.40014" lon="-0.78124">
        <ele>246</ele>
        <time>2022-10-15 15:42:45</time>
      </trkpt>
      <trkpt lat="38.40014" lon="-0.78124">
        <ele>246</ele>
        <time>2022-10-15 15:42:46</time>
      </trkpt>
      <trkpt lat="38.40003" lon="-0.78108">
        <ele>247.2</ele>
        <time>2022-10-15 15:43:26</time>
      </trkpt>
      <trkpt lat="38.40001" lon="-0.78106">
        <ele>247.2</ele>
        <time>2022-10-15 15:43:27</time>
      </trkpt>
      <trkpt lat="38.4" lon="-0.78105">
        <ele>247.2</ele>
        <time>2022-10-15 15:43:28</time>
      </trkpt>
      <trkpt lat="38.39999" lon="-0.78104">
        <ele>247.2</ele>
        <time>2022-10-15 15:43:29</time>
      </trkpt>
      <trkpt lat="38.39997" lon="-0.78102">
        <ele>247.4</ele>
        <time>2022-10-15 15:43:31</time>
      </trkpt>
      <trkpt lat="38.39996" lon="-0.78099">
        <ele>247.4</ele>
        <time>2022-10-15 15:43:33</time>
      </trkpt>
      <trkpt lat="38.39996" lon="-0.78098">
        <ele>247.4</ele>
        <time>2022-10-15 15:43:34</time>
      </trkpt>
      <trkpt lat="38.39996" lon="-0.78098">
        <ele>247.4</ele>
        <time>2022-10-15 15:43:35</time>
      </trkpt>
      <trkpt lat="38.39996" lon="-0.78098">
        <ele>247.4</ele>
        <time>2022-10-15 15:43:36</time>
      </trkpt>
      <trkpt lat="38.39991" lon="-0.78096">
        <ele>247.6</ele>
        <time>2022-10-15 15:43:40</time>
      </trkpt>
      <trkpt lat="38.39988" lon="-0.78095">
        <ele>247.6</ele>
        <time>2022-10-15 15:43:41</time>
      </trkpt>
      <trkpt lat="38.39985" lon="-0.78093">
        <ele>247.6</ele>
        <time>2022-10-15 15:43:42</time>
      </trkpt>
      <trkpt lat="38.39982" lon="-0.7809">
        <ele>247.4</ele>
        <time>2022-10-15 15:43:44</time>
      </trkpt>
      <trkpt lat="38.39978" lon="-0.78084">
        <ele>247.4</ele>
        <time>2022-10-15 15:43:45</time>
      </trkpt>
      <trkpt lat="38.39975" lon="-0.7808">
        <ele>247.4</ele>
        <time>2022-10-15 15:43:46</time>
      </trkpt>
      <trkpt lat="38.3997" lon="-0.78073">
        <ele>246.8</ele>
        <time>2022-10-15 15:43:48</time>
      </trkpt>
      <trkpt lat="38.39968" lon="-0.7807">
        <ele>246.6</ele>
        <time>2022-10-15 15:43:49</time>
      </trkpt>
      <trkpt lat="38.39963" lon="-0.78063">
        <ele>246.2</ele>
        <time>2022-10-15 15:43:51</time>
      </trkpt>
      <trkpt lat="38.39958" lon="-0.78057">
        <ele>246</ele>
        <time>2022-10-15 15:43:53</time>
      </trkpt>
      <trkpt lat="38.39952" lon="-0.7805">
        <ele>246</ele>
        <time>2022-10-15 15:43:55</time>
      </trkpt>
      <trkpt lat="38.39952" lon="-0.7805">
        <ele>246</ele>
        <time>2022-10-15 15:43:56</time>
      </trkpt>
      <trkpt lat="38.39944" lon="-0.7804">
        <ele>246</ele>
        <time>2022-10-15 15:43:58</time>
      </trkpt>
      <trkpt lat="38.39938" lon="-0.78033">
        <ele>245.8</ele>
        <time>2022-10-15 15:44:00</time>
      </trkpt>
      <trkpt lat="38.39934" lon="-0.7803">
        <ele>245.8</ele>
        <time>2022-10-15 15:44:02</time>
      </trkpt>
      <trkpt lat="38.39928" lon="-0.78024">
        <ele>245.8</ele>
        <time>2022-10-15 15:44:03</time>
      </trkpt>
      <trkpt lat="38.39921" lon="-0.78018">
        <ele>245.8</ele>
        <time>2022-10-15 15:44:05</time>
      </trkpt>
      <trkpt lat="38.39913" lon="-0.78012">
        <ele>245.8</ele>
        <time>2022-10-15 15:44:07</time>
      </trkpt>
      <trkpt lat="38.39913" lon="-0.78012">
        <ele>245.8</ele>
        <time>2022-10-15 15:44:08</time>
      </trkpt>
      <trkpt lat="38.39906" lon="-0.78008">
        <ele>245.8</ele>
        <time>2022-10-15 15:44:09</time>
      </trkpt>
      <trkpt lat="38.39902" lon="-0.78006">
        <ele>245.6</ele>
        <time>2022-10-15 15:44:10</time>
      </trkpt>
      <trkpt lat="38.39898" lon="-0.78005">
        <ele>245.2</ele>
        <time>2022-10-15 15:44:11</time>
      </trkpt>
      <trkpt lat="38.39895" lon="-0.78003">
        <ele>245.2</ele>
        <time>2022-10-15 15:44:12</time>
      </trkpt>
      <trkpt lat="38.39891" lon="-0.78001">
        <ele>245</ele>
        <time>2022-10-15 15:44:14</time>
      </trkpt>
      <trkpt lat="38.39885" lon="-0.77997">
        <ele>245</ele>
        <time>2022-10-15 15:44:15</time>
      </trkpt>
      <trkpt lat="38.39881" lon="-0.77994">
        <ele>244.8</ele>
        <time>2022-10-15 15:44:16</time>
      </trkpt>
      <trkpt lat="38.39877" lon="-0.77989">
        <ele>244.8</ele>
        <time>2022-10-15 15:44:17</time>
      </trkpt>
      <trkpt lat="38.39874" lon="-0.77984">
        <ele>244.8</ele>
        <time>2022-10-15 15:44:18</time>
      </trkpt>
      <trkpt lat="38.3987" lon="-0.77979">
        <ele>244.8</ele>
        <time>2022-10-15 15:44:19</time>
      </trkpt>
      <trkpt lat="38.39863" lon="-0.77968">
        <ele>244.6</ele>
        <time>2022-10-15 15:44:21</time>
      </trkpt>
      <trkpt lat="38.39859" lon="-0.77963">
        <ele>244.6</ele>
        <time>2022-10-15 15:44:22</time>
      </trkpt>
      <trkpt lat="38.39857" lon="-0.77958">
        <ele>244.6</ele>
        <time>2022-10-15 15:44:23</time>
      </trkpt>
      <trkpt lat="38.39854" lon="-0.77953">
        <ele>244.6</ele>
        <time>2022-10-15 15:44:24</time>
      </trkpt>
      <trkpt lat="38.39853" lon="-0.77948">
        <ele>244.2</ele>
        <time>2022-10-15 15:44:25</time>
      </trkpt>
      <trkpt lat="38.39853" lon="-0.77948">
        <ele>244</ele>
        <time>2022-10-15 15:44:26</time>
      </trkpt>
      <trkpt lat="38.3985" lon="-0.77937">
        <ele>243.4</ele>
        <time>2022-10-15 15:44:27</time>
      </trkpt>
      <trkpt lat="38.3985" lon="-0.77931">
        <ele>243</ele>
        <time>2022-10-15 15:44:28</time>
      </trkpt>
      <trkpt lat="38.39849" lon="-0.77925">
        <ele>243</ele>
        <time>2022-10-15 15:44:29</time>
      </trkpt>
      <trkpt lat="38.39848" lon="-0.7792">
        <ele>242.8</ele>
        <time>2022-10-15 15:44:30</time>
      </trkpt>
      <trkpt lat="38.39847" lon="-0.77915">
        <ele>242.6</ele>
        <time>2022-10-15 15:44:31</time>
      </trkpt>
      <trkpt lat="38.39845" lon="-0.77905">
        <ele>242.6</ele>
        <time>2022-10-15 15:44:33</time>
      </trkpt>
      <trkpt lat="38.39844" lon="-0.77901">
        <ele>242.6</ele>
        <time>2022-10-15 15:44:34</time>
      </trkpt>
      <trkpt lat="38.39843" lon="-0.77896">
        <ele>242.6</ele>
        <time>2022-10-15 15:44:35</time>
      </trkpt>
      <trkpt lat="38.39843" lon="-0.77891">
        <ele>242.6</ele>
        <time>2022-10-15 15:44:36</time>
      </trkpt>
      <trkpt lat="38.39842" lon="-0.77887">
        <ele>242.6</ele>
        <time>2022-10-15 15:44:38</time>
      </trkpt>
      <trkpt lat="38.39841" lon="-0.77877">
        <ele>242.6</ele>
        <time>2022-10-15 15:44:39</time>
      </trkpt>
      <trkpt lat="38.3984" lon="-0.77872">
        <ele>242.6</ele>
        <time>2022-10-15 15:44:40</time>
      </trkpt>
      <trkpt lat="38.3984" lon="-0.77866">
        <ele>242.6</ele>
        <time>2022-10-15 15:44:41</time>
      </trkpt>
      <trkpt lat="38.39838" lon="-0.77856">
        <ele>242.6</ele>
        <time>2022-10-15 15:44:43</time>
      </trkpt>
      <trkpt lat="38.39837" lon="-0.77846">
        <ele>242.6</ele>
        <time>2022-10-15 15:44:45</time>
      </trkpt>
      <trkpt lat="38.39835" lon="-0.77835">
        <ele>242.6</ele>
        <time>2022-10-15 15:44:47</time>
      </trkpt>
      <trkpt lat="38.39835" lon="-0.7783">
        <ele>242.6</ele>
        <time>2022-10-15 15:44:48</time>
      </trkpt>
      <trkpt lat="38.39833" lon="-0.77825">
        <ele>242.6</ele>
        <time>2022-10-15 15:44:50</time>
      </trkpt>
      <trkpt lat="38.39831" lon="-0.77814">
        <ele>242.4</ele>
        <time>2022-10-15 15:44:51</time>
      </trkpt>
      <trkpt lat="38.39831" lon="-0.77808">
        <ele>242.4</ele>
        <time>2022-10-15 15:44:52</time>
      </trkpt>
      <trkpt lat="38.3983" lon="-0.77796">
        <ele>242.2</ele>
        <time>2022-10-15 15:44:54</time>
      </trkpt>
      <trkpt lat="38.3983" lon="-0.7779">
        <ele>242.2</ele>
        <time>2022-10-15 15:44:56</time>
      </trkpt>
      <trkpt lat="38.39828" lon="-0.77778">
        <ele>242</ele>
        <time>2022-10-15 15:44:57</time>
      </trkpt>
      <trkpt lat="38.39827" lon="-0.77773">
        <ele>242</ele>
        <time>2022-10-15 15:44:58</time>
      </trkpt>
      <trkpt lat="38.39826" lon="-0.77767">
        <ele>241.6</ele>
        <time>2022-10-15 15:44:59</time>
      </trkpt>
      <trkpt lat="38.39826" lon="-0.77756">
        <ele>241</ele>
        <time>2022-10-15 15:45:01</time>
      </trkpt>
      <trkpt lat="38.39826" lon="-0.77756">
        <ele>240.8</ele>
        <time>2022-10-15 15:45:02</time>
      </trkpt>
      <trkpt lat="38.39824" lon="-0.77744">
        <ele>240.6</ele>
        <time>2022-10-15 15:45:03</time>
      </trkpt>
      <trkpt lat="38.39823" lon="-0.77739">
        <ele>240.6</ele>
        <time>2022-10-15 15:45:04</time>
      </trkpt>
      <trkpt lat="38.39822" lon="-0.77733">
        <ele>240.4</ele>
        <time>2022-10-15 15:45:05</time>
      </trkpt>
      <trkpt lat="38.39822" lon="-0.77728">
        <ele>240.2</ele>
        <time>2022-10-15 15:45:06</time>
      </trkpt>
      <trkpt lat="38.39822" lon="-0.77722">
        <ele>240.2</ele>
        <time>2022-10-15 15:45:07</time>
      </trkpt>
      <trkpt lat="38.39822" lon="-0.77722">
        <ele>240.2</ele>
        <time>2022-10-15 15:45:08</time>
      </trkpt>
      <trkpt lat="38.39819" lon="-0.77711">
        <ele>240.2</ele>
        <time>2022-10-15 15:45:09</time>
      </trkpt>
      <trkpt lat="38.39817" lon="-0.777">
        <ele>240.2</ele>
        <time>2022-10-15 15:45:11</time>
      </trkpt>
      <trkpt lat="38.39816" lon="-0.77695">
        <ele>240.2</ele>
        <time>2022-10-15 15:45:12</time>
      </trkpt>
      <trkpt lat="38.39816" lon="-0.77689">
        <ele>240.2</ele>
        <time>2022-10-15 15:45:13</time>
      </trkpt>
      <trkpt lat="38.39814" lon="-0.77678">
        <ele>240.4</ele>
        <time>2022-10-15 15:45:15</time>
      </trkpt>
      <trkpt lat="38.39813" lon="-0.77673">
        <ele>240.4</ele>
        <time>2022-10-15 15:45:16</time>
      </trkpt>
      <trkpt lat="38.39813" lon="-0.77668">
        <ele>240.4</ele>
        <time>2022-10-15 15:45:17</time>
      </trkpt>
      <trkpt lat="38.39813" lon="-0.77664">
        <ele>240.4</ele>
        <time>2022-10-15 15:45:18</time>
      </trkpt>
      <trkpt lat="38.39815" lon="-0.7766">
        <ele>240.6</ele>
        <time>2022-10-15 15:45:20</time>
      </trkpt>
      <trkpt lat="38.39817" lon="-0.77653">
        <ele>240.6</ele>
        <time>2022-10-15 15:45:21</time>
      </trkpt>
      <trkpt lat="38.39817" lon="-0.77651">
        <ele>240.6</ele>
        <time>2022-10-15 15:45:22</time>
      </trkpt>
      <trkpt lat="38.39817" lon="-0.77647">
        <ele>240.6</ele>
        <time>2022-10-15 15:45:23</time>
      </trkpt>
      <trkpt lat="38.39817" lon="-0.77644">
        <ele>240.6</ele>
        <time>2022-10-15 15:45:24</time>
      </trkpt>
      <trkpt lat="38.39816" lon="-0.7764">
        <ele>240.8</ele>
        <time>2022-10-15 15:45:25</time>
      </trkpt>
      <trkpt lat="38.39816" lon="-0.7764">
        <ele>240.8</ele>
        <time>2022-10-15 15:45:26</time>
      </trkpt>
      <trkpt lat="38.39815" lon="-0.77631">
        <ele>240.8</ele>
        <time>2022-10-15 15:45:27</time>
      </trkpt>
      <trkpt lat="38.39814" lon="-0.77626">
        <ele>240.8</ele>
        <time>2022-10-15 15:45:28</time>
      </trkpt>
      <trkpt lat="38.39814" lon="-0.77622">
        <ele>240.8</ele>
        <time>2022-10-15 15:45:29</time>
      </trkpt>
      <trkpt lat="38.39814" lon="-0.77617">
        <ele>240.8</ele>
        <time>2022-10-15 15:45:30</time>
      </trkpt>
      <trkpt lat="38.39813" lon="-0.77613">
        <ele>240.8</ele>
        <time>2022-10-15 15:45:31</time>
      </trkpt>
      <trkpt lat="38.39813" lon="-0.77613">
        <ele>240.6</ele>
        <time>2022-10-15 15:45:32</time>
      </trkpt>
      <trkpt lat="38.39812" lon="-0.776">
        <ele>240.6</ele>
        <time>2022-10-15 15:45:34</time>
      </trkpt>
      <trkpt lat="38.39812" lon="-0.77595">
        <ele>240.6</ele>
        <time>2022-10-15 15:45:35</time>
      </trkpt>
      <trkpt lat="38.39811" lon="-0.77586">
        <ele>240.6</ele>
        <time>2022-10-15 15:45:37</time>
      </trkpt>
      <trkpt lat="38.39811" lon="-0.77577">
        <ele>240.6</ele>
        <time>2022-10-15 15:45:39</time>
      </trkpt>
      <trkpt lat="38.39811" lon="-0.77573">
        <ele>240.6</ele>
        <time>2022-10-15 15:45:40</time>
      </trkpt>
      <trkpt lat="38.3981" lon="-0.77564">
        <ele>240.6</ele>
        <time>2022-10-15 15:45:42</time>
      </trkpt>
      <trkpt lat="38.39809" lon="-0.7756">
        <ele>240.6</ele>
        <time>2022-10-15 15:45:44</time>
      </trkpt>
      <trkpt lat="38.39807" lon="-0.77546">
        <ele>240.6</ele>
        <time>2022-10-15 15:45:46</time>
      </trkpt>
      <trkpt lat="38.39807" lon="-0.77542">
        <ele>240.6</ele>
        <time>2022-10-15 15:45:47</time>
      </trkpt>
      <trkpt lat="38.39806" lon="-0.77537">
        <ele>240.6</ele>
        <time>2022-10-15 15:45:48</time>
      </trkpt>
      <trkpt lat="38.39806" lon="-0.77533">
        <ele>240.6</ele>
        <time>2022-10-15 15:45:49</time>
      </trkpt>
      <trkpt lat="38.39805" lon="-0.77524">
        <ele>240.8</ele>
        <time>2022-10-15 15:45:51</time>
      </trkpt>
      <trkpt lat="38.39805" lon="-0.77521">
        <ele>240.8</ele>
        <time>2022-10-15 15:45:52</time>
      </trkpt>
      <trkpt lat="38.39804" lon="-0.77518">
        <ele>240.8</ele>
        <time>2022-10-15 15:45:53</time>
      </trkpt>
      <trkpt lat="38.39802" lon="-0.77516">
        <ele>240.8</ele>
        <time>2022-10-15 15:45:54</time>
      </trkpt>
      <trkpt lat="38.398" lon="-0.77514">
        <ele>240.8</ele>
        <time>2022-10-15 15:45:55</time>
      </trkpt>
      <trkpt lat="38.39793" lon="-0.7751">
        <ele>240.8</ele>
        <time>2022-10-15 15:45:57</time>
      </trkpt>
      <trkpt lat="38.3979" lon="-0.77508">
        <ele>240.8</ele>
        <time>2022-10-15 15:45:58</time>
      </trkpt>
      <trkpt lat="38.39787" lon="-0.77507">
        <ele>240.8</ele>
        <time>2022-10-15 15:45:59</time>
      </trkpt>
      <trkpt lat="38.39783" lon="-0.77506">
        <ele>240.8</ele>
        <time>2022-10-15 15:46:00</time>
      </trkpt>
      <trkpt lat="38.39779" lon="-0.77505">
        <ele>240.8</ele>
        <time>2022-10-15 15:46:02</time>
      </trkpt>
      <trkpt lat="38.39772" lon="-0.77502">
        <ele>240.8</ele>
        <time>2022-10-15 15:46:03</time>
      </trkpt>
      <trkpt lat="38.39769" lon="-0.77499">
        <ele>240.8</ele>
        <time>2022-10-15 15:46:04</time>
      </trkpt>
      <trkpt lat="38.39762" lon="-0.77497">
        <ele>240.6</ele>
        <time>2022-10-15 15:46:06</time>
      </trkpt>
      <trkpt lat="38.39758" lon="-0.77495">
        <ele>240.4</ele>
        <time>2022-10-15 15:46:08</time>
      </trkpt>
      <trkpt lat="38.39747" lon="-0.7749">
        <ele>240.2</ele>
        <time>2022-10-15 15:46:10</time>
      </trkpt>
      <trkpt lat="38.39743" lon="-0.77488">
        <ele>240.2</ele>
        <time>2022-10-15 15:46:11</time>
      </trkpt>
      <trkpt lat="38.39736" lon="-0.77483">
        <ele>240</ele>
        <time>2022-10-15 15:46:13</time>
      </trkpt>
      <trkpt lat="38.39736" lon="-0.77483">
        <ele>240</ele>
        <time>2022-10-15 15:46:14</time>
      </trkpt>
      <trkpt lat="38.39729" lon="-0.7748">
        <ele>240</ele>
        <time>2022-10-15 15:46:15</time>
      </trkpt>
      <trkpt lat="38.39722" lon="-0.77475">
        <ele>240</ele>
        <time>2022-10-15 15:46:17</time>
      </trkpt>
      <trkpt lat="38.39719" lon="-0.77473">
        <ele>240</ele>
        <time>2022-10-15 15:46:18</time>
      </trkpt>
      <trkpt lat="38.39715" lon="-0.77471">
        <ele>240</ele>
        <time>2022-10-15 15:46:19</time>
      </trkpt>
      <trkpt lat="38.39715" lon="-0.77471">
        <ele>239.8</ele>
        <time>2022-10-15 15:46:20</time>
      </trkpt>
      <trkpt lat="38.39704" lon="-0.77464">
        <ele>239.8</ele>
        <time>2022-10-15 15:46:22</time>
      </trkpt>
      <trkpt lat="38.397" lon="-0.77462">
        <ele>239.8</ele>
        <time>2022-10-15 15:46:23</time>
      </trkpt>
      <trkpt lat="38.39696" lon="-0.77459">
        <ele>239.8</ele>
        <time>2022-10-15 15:46:24</time>
      </trkpt>
      <trkpt lat="38.39692" lon="-0.77457">
        <ele>239.6</ele>
        <time>2022-10-15 15:46:25</time>
      </trkpt>
      <trkpt lat="38.39685" lon="-0.77452">
        <ele>239.8</ele>
        <time>2022-10-15 15:46:27</time>
      </trkpt>
      <trkpt lat="38.39677" lon="-0.77446">
        <ele>239.6</ele>
        <time>2022-10-15 15:46:29</time>
      </trkpt>
      <trkpt lat="38.39674" lon="-0.77443">
        <ele>239.6</ele>
        <time>2022-10-15 15:46:30</time>
      </trkpt>
      <trkpt lat="38.39671" lon="-0.7744">
        <ele>239.6</ele>
        <time>2022-10-15 15:46:31</time>
      </trkpt>
      <trkpt lat="38.39671" lon="-0.7744">
        <ele>239.6</ele>
        <time>2022-10-15 15:46:32</time>
      </trkpt>
      <trkpt lat="38.39661" lon="-0.77433">
        <ele>239.6</ele>
        <time>2022-10-15 15:46:34</time>
      </trkpt>
      <trkpt lat="38.39657" lon="-0.77432">
        <ele>239.6</ele>
        <time>2022-10-15 15:46:35</time>
      </trkpt>
      <trkpt lat="38.39654" lon="-0.77432">
        <ele>239.6</ele>
        <time>2022-10-15 15:46:36</time>
      </trkpt>
      <trkpt lat="38.3965" lon="-0.77433">
        <ele>239.6</ele>
        <time>2022-10-15 15:46:37</time>
      </trkpt>
      <trkpt lat="38.39644" lon="-0.77437">
        <ele>239.6</ele>
        <time>2022-10-15 15:46:39</time>
      </trkpt>
      <trkpt lat="38.39641" lon="-0.77439">
        <ele>239.6</ele>
        <time>2022-10-15 15:46:40</time>
      </trkpt>
      <trkpt lat="38.39638" lon="-0.7744">
        <ele>239.8</ele>
        <time>2022-10-15 15:46:41</time>
      </trkpt>
      <trkpt lat="38.39637" lon="-0.7744">
        <ele>239.8</ele>
        <time>2022-10-15 15:46:42</time>
      </trkpt>
      <trkpt lat="38.39636" lon="-0.77439">
        <ele>239.8</ele>
        <time>2022-10-15 15:46:43</time>
      </trkpt>
      <trkpt lat="38.39638" lon="-0.77439">
        <ele>240</ele>
        <time>2022-10-15 15:46:45</time>
      </trkpt>
      <trkpt lat="38.3964" lon="-0.77439">
        <ele>240</ele>
        <time>2022-10-15 15:46:47</time>
      </trkpt>
      <trkpt lat="38.3964" lon="-0.77437">
        <ele>240.2</ele>
        <time>2022-10-15 15:46:48</time>
      </trkpt>
      <trkpt lat="38.3964" lon="-0.77436">
        <ele>240.4</ele>
        <time>2022-10-15 15:46:49</time>
      </trkpt>
      <trkpt lat="38.39639" lon="-0.77434">
        <ele>240.8</ele>
        <time>2022-10-15 15:46:51</time>
      </trkpt>
      <trkpt lat="38.39639" lon="-0.77432">
        <ele>241</ele>
        <time>2022-10-15 15:46:53</time>
      </trkpt>
      <trkpt lat="38.39639" lon="-0.7743">
        <ele>241</ele>
        <time>2022-10-15 15:46:54</time>
      </trkpt>
      <trkpt lat="38.39639" lon="-0.77426">
        <ele>241</ele>
        <time>2022-10-15 15:46:55</time>
      </trkpt>
      <trkpt lat="38.39638" lon="-0.77417">
        <ele>241</ele>
        <time>2022-10-15 15:46:57</time>
      </trkpt>
      <trkpt lat="38.39637" lon="-0.77406">
        <ele>241</ele>
        <time>2022-10-15 15:46:59</time>
      </trkpt>
      <trkpt lat="38.39637" lon="-0.77401">
        <ele>241</ele>
        <time>2022-10-15 15:47:00</time>
      </trkpt>
      <trkpt lat="38.39636" lon="-0.77395">
        <ele>241</ele>
        <time>2022-10-15 15:47:01</time>
      </trkpt>
      <trkpt lat="38.39635" lon="-0.77385">
        <ele>241</ele>
        <time>2022-10-15 15:47:03</time>
      </trkpt>
      <trkpt lat="38.39634" lon="-0.77379">
        <ele>240.8</ele>
        <time>2022-10-15 15:47:04</time>
      </trkpt>
      <trkpt lat="38.39633" lon="-0.77368">
        <ele>239.8</ele>
        <time>2022-10-15 15:47:06</time>
      </trkpt>
      <trkpt lat="38.39632" lon="-0.77362">
        <ele>239.6</ele>
        <time>2022-10-15 15:47:08</time>
      </trkpt>
      <trkpt lat="38.3963" lon="-0.77351">
        <ele>239.6</ele>
        <time>2022-10-15 15:47:09</time>
      </trkpt>
      <trkpt lat="38.39627" lon="-0.7734">
        <ele>239.4</ele>
        <time>2022-10-15 15:47:11</time>
      </trkpt>
      <trkpt lat="38.39624" lon="-0.77335">
        <ele>239.4</ele>
        <time>2022-10-15 15:47:12</time>
      </trkpt>
      <trkpt lat="38.39622" lon="-0.7733">
        <ele>239.4</ele>
        <time>2022-10-15 15:47:13</time>
      </trkpt>
      <trkpt lat="38.39622" lon="-0.7733">
        <ele>239.2</ele>
        <time>2022-10-15 15:47:14</time>
      </trkpt>
      <trkpt lat="38.39616" lon="-0.7732">
        <ele>239.2</ele>
        <time>2022-10-15 15:47:15</time>
      </trkpt>
      <trkpt lat="38.39612" lon="-0.77316">
        <ele>239.2</ele>
        <time>2022-10-15 15:47:16</time>
      </trkpt>
      <trkpt lat="38.39609" lon="-0.77311">
        <ele>239</ele>
        <time>2022-10-15 15:47:17</time>
      </trkpt>
      <trkpt lat="38.39606" lon="-0.77307">
        <ele>239</ele>
        <time>2022-10-15 15:47:18</time>
      </trkpt>
      <trkpt lat="38.39602" lon="-0.77302">
        <ele>239</ele>
        <time>2022-10-15 15:47:19</time>
      </trkpt>
      <trkpt lat="38.39602" lon="-0.77302">
        <ele>239</ele>
        <time>2022-10-15 15:47:20</time>
      </trkpt>
      <trkpt lat="38.39596" lon="-0.77293">
        <ele>238.8</ele>
        <time>2022-10-15 15:47:21</time>
      </trkpt>
      <trkpt lat="38.39592" lon="-0.77288">
        <ele>238.6</ele>
        <time>2022-10-15 15:47:22</time>
      </trkpt>
      <trkpt lat="38.39589" lon="-0.77283">
        <ele>238.6</ele>
        <time>2022-10-15 15:47:23</time>
      </trkpt>
      <trkpt lat="38.39585" lon="-0.77277">
        <ele>238.4</ele>
        <time>2022-10-15 15:47:24</time>
      </trkpt>
      <trkpt lat="38.39582" lon="-0.77272">
        <ele>238.2</ele>
        <time>2022-10-15 15:47:25</time>
      </trkpt>
      <trkpt lat="38.39575" lon="-0.77261">
        <ele>238</ele>
        <time>2022-10-15 15:47:27</time>
      </trkpt>
      <trkpt lat="38.39571" lon="-0.77256">
        <ele>238</ele>
        <time>2022-10-15 15:47:28</time>
      </trkpt>
      <trkpt lat="38.39568" lon="-0.7725">
        <ele>238</ele>
        <time>2022-10-15 15:47:29</time>
      </trkpt>
      <trkpt lat="38.39565" lon="-0.77244">
        <ele>238</ele>
        <time>2022-10-15 15:47:30</time>
      </trkpt>
      <trkpt lat="38.39562" lon="-0.77238">
        <ele>237.4</ele>
        <time>2022-10-15 15:47:31</time>
      </trkpt>
      <trkpt lat="38.39558" lon="-0.77225">
        <ele>237.2</ele>
        <time>2022-10-15 15:47:33</time>
      </trkpt>
      <trkpt lat="38.39555" lon="-0.7722">
        <ele>237</ele>
        <time>2022-10-15 15:47:34</time>
      </trkpt>
      <trkpt lat="38.39552" lon="-0.77214">
        <ele>237</ele>
        <time>2022-10-15 15:47:35</time>
      </trkpt>
      <trkpt lat="38.39548" lon="-0.7721">
        <ele>236.8</ele>
        <time>2022-10-15 15:47:36</time>
      </trkpt>
      <trkpt lat="38.39544" lon="-0.77206">
        <ele>236.6</ele>
        <time>2022-10-15 15:47:38</time>
      </trkpt>
      <trkpt lat="38.39536" lon="-0.77199">
        <ele>236.6</ele>
        <time>2022-10-15 15:47:39</time>
      </trkpt>
      <trkpt lat="38.39531" lon="-0.77198">
        <ele>236.4</ele>
        <time>2022-10-15 15:47:40</time>
      </trkpt>
      <trkpt lat="38.39526" lon="-0.77196">
        <ele>236.4</ele>
        <time>2022-10-15 15:47:41</time>
      </trkpt>
      <trkpt lat="38.39517" lon="-0.77194">
        <ele>236.4</ele>
        <time>2022-10-15 15:47:43</time>
      </trkpt>
      <trkpt lat="38.39517" lon="-0.77194">
        <ele>236.2</ele>
        <time>2022-10-15 15:47:44</time>
      </trkpt>
      <trkpt lat="38.39507" lon="-0.7719">
        <ele>236.2</ele>
        <time>2022-10-15 15:47:45</time>
      </trkpt>
      <trkpt lat="38.39503" lon="-0.77189">
        <ele>236.2</ele>
        <time>2022-10-15 15:47:46</time>
      </trkpt>
      <trkpt lat="38.39498" lon="-0.77187">
        <ele>236.2</ele>
        <time>2022-10-15 15:47:47</time>
      </trkpt>
      <trkpt lat="38.39494" lon="-0.77184">
        <ele>236.2</ele>
        <time>2022-10-15 15:47:48</time>
      </trkpt>
      <trkpt lat="38.39489" lon="-0.77182">
        <ele>236.2</ele>
        <time>2022-10-15 15:47:49</time>
      </trkpt>
      <trkpt lat="38.39489" lon="-0.77182">
        <ele>236.2</ele>
        <time>2022-10-15 15:47:50</time>
      </trkpt>
      <trkpt lat="38.39477" lon="-0.77174">
        <ele>236.2</ele>
        <time>2022-10-15 15:47:52</time>
      </trkpt>
      <trkpt lat="38.39474" lon="-0.77171">
        <ele>236.2</ele>
        <time>2022-10-15 15:47:53</time>
      </trkpt>
      <trkpt lat="38.3947" lon="-0.77168">
        <ele>236.2</ele>
        <time>2022-10-15 15:47:54</time>
      </trkpt>
      <trkpt lat="38.39467" lon="-0.77164">
        <ele>236.2</ele>
        <time>2022-10-15 15:47:55</time>
      </trkpt>
      <trkpt lat="38.39467" lon="-0.77164">
        <ele>236.2</ele>
        <time>2022-10-15 15:47:56</time>
      </trkpt>
      <trkpt lat="38.39463" lon="-0.77155">
        <ele>236.2</ele>
        <time>2022-10-15 15:47:57</time>
      </trkpt>
      <trkpt lat="38.39461" lon="-0.7715">
        <ele>236.2</ele>
        <time>2022-10-15 15:47:58</time>
      </trkpt>
      <trkpt lat="38.39459" lon="-0.77145">
        <ele>236.2</ele>
        <time>2022-10-15 15:47:59</time>
      </trkpt>
      <trkpt lat="38.39456" lon="-0.7714">
        <ele>236.2</ele>
        <time>2022-10-15 15:48:00</time>
      </trkpt>
      <trkpt lat="38.39454" lon="-0.77135">
        <ele>236.2</ele>
        <time>2022-10-15 15:48:01</time>
      </trkpt>
      <trkpt lat="38.39447" lon="-0.77126">
        <ele>236.2</ele>
        <time>2022-10-15 15:48:03</time>
      </trkpt>
      <trkpt lat="38.39443" lon="-0.77122">
        <ele>236.2</ele>
        <time>2022-10-15 15:48:04</time>
      </trkpt>
      <trkpt lat="38.39439" lon="-0.77117">
        <ele>236.2</ele>
        <time>2022-10-15 15:48:05</time>
      </trkpt>
      <trkpt lat="38.39436" lon="-0.77112">
        <ele>236.2</ele>
        <time>2022-10-15 15:48:06</time>
      </trkpt>
      <trkpt lat="38.39434" lon="-0.77106">
        <ele>236.2</ele>
        <time>2022-10-15 15:48:07</time>
      </trkpt>
      <trkpt lat="38.39434" lon="-0.77106">
        <ele>236</ele>
        <time>2022-10-15 15:48:08</time>
      </trkpt>
      <trkpt lat="38.39429" lon="-0.77093">
        <ele>236</ele>
        <time>2022-10-15 15:48:09</time>
      </trkpt>
      <trkpt lat="38.39426" lon="-0.77088">
        <ele>236</ele>
        <time>2022-10-15 15:48:10</time>
      </trkpt>
      <trkpt lat="38.39416" lon="-0.7708">
        <ele>235.6</ele>
        <time>2022-10-15 15:48:12</time>
      </trkpt>
      <trkpt lat="38.39411" lon="-0.77078">
        <ele>235.6</ele>
        <time>2022-10-15 15:48:13</time>
      </trkpt>
      <trkpt lat="38.39411" lon="-0.77078">
        <ele>235.4</ele>
        <time>2022-10-15 15:48:14</time>
      </trkpt>
      <trkpt lat="38.39399" lon="-0.77074">
        <ele>235.4</ele>
        <time>2022-10-15 15:48:15</time>
      </trkpt>
      <trkpt lat="38.39388" lon="-0.77069">
        <ele>235</ele>
        <time>2022-10-15 15:48:17</time>
      </trkpt>
      <trkpt lat="38.39383" lon="-0.77066">
        <ele>235</ele>
        <time>2022-10-15 15:48:18</time>
      </trkpt>
      <trkpt lat="38.39378" lon="-0.77062">
        <ele>235</ele>
        <time>2022-10-15 15:48:19</time>
      </trkpt>
      <trkpt lat="38.39378" lon="-0.77062">
        <ele>235</ele>
        <time>2022-10-15 15:48:20</time>
      </trkpt>
      <trkpt lat="38.39369" lon="-0.77052">
        <ele>234.8</ele>
        <time>2022-10-15 15:48:21</time>
      </trkpt>
      <trkpt lat="38.39365" lon="-0.77047">
        <ele>234.8</ele>
        <time>2022-10-15 15:48:22</time>
      </trkpt>
      <trkpt lat="38.39361" lon="-0.77043">
        <ele>234.6</ele>
        <time>2022-10-15 15:48:23</time>
      </trkpt>
      <trkpt lat="38.39353" lon="-0.77033">
        <ele>234.6</ele>
        <time>2022-10-15 15:48:25</time>
      </trkpt>
      <trkpt lat="38.39353" lon="-0.77033">
        <ele>234.8</ele>
        <time>2022-10-15 15:48:26</time>
      </trkpt>
      <trkpt lat="38.39346" lon="-0.77024">
        <ele>234.6</ele>
        <time>2022-10-15 15:48:27</time>
      </trkpt>
      <trkpt lat="38.39342" lon="-0.7702">
        <ele>234.6</ele>
        <time>2022-10-15 15:48:28</time>
      </trkpt>
      <trkpt lat="38.39337" lon="-0.77016">
        <ele>234.6</ele>
        <time>2022-10-15 15:48:29</time>
      </trkpt>
      <trkpt lat="38.39333" lon="-0.77012">
        <ele>234.6</ele>
        <time>2022-10-15 15:48:30</time>
      </trkpt>
      <trkpt lat="38.3933" lon="-0.77007">
        <ele>234.6</ele>
        <time>2022-10-15 15:48:31</time>
      </trkpt>
      <trkpt lat="38.39324" lon="-0.76998">
        <ele>235</ele>
        <time>2022-10-15 15:48:33</time>
      </trkpt>
      <trkpt lat="38.3932" lon="-0.76993">
        <ele>235</ele>
        <time>2022-10-15 15:48:34</time>
      </trkpt>
      <trkpt lat="38.39317" lon="-0.76989">
        <ele>235</ele>
        <time>2022-10-15 15:48:35</time>
      </trkpt>
      <trkpt lat="38.39314" lon="-0.76984">
        <ele>235</ele>
        <time>2022-10-15 15:48:36</time>
      </trkpt>
      <trkpt lat="38.39311" lon="-0.76979">
        <ele>235</ele>
        <time>2022-10-15 15:48:37</time>
      </trkpt>
      <trkpt lat="38.39305" lon="-0.76968">
        <ele>235</ele>
        <time>2022-10-15 15:48:39</time>
      </trkpt>
      <trkpt lat="38.39302" lon="-0.76963">
        <ele>235.2</ele>
        <time>2022-10-15 15:48:40</time>
      </trkpt>
      <trkpt lat="38.393" lon="-0.76958">
        <ele>235.2</ele>
        <time>2022-10-15 15:48:41</time>
      </trkpt>
      <trkpt lat="38.39295" lon="-0.76947">
        <ele>235.2</ele>
        <time>2022-10-15 15:48:43</time>
      </trkpt>
      <trkpt lat="38.39292" lon="-0.76936">
        <ele>235.2</ele>
        <time>2022-10-15 15:48:45</time>
      </trkpt>
      <trkpt lat="38.39291" lon="-0.76931">
        <ele>235.2</ele>
        <time>2022-10-15 15:48:46</time>
      </trkpt>
      <trkpt lat="38.3929" lon="-0.76927">
        <ele>235.2</ele>
        <time>2022-10-15 15:48:47</time>
      </trkpt>
      <trkpt lat="38.39287" lon="-0.76919">
        <ele>235.2</ele>
        <time>2022-10-15 15:48:49</time>
      </trkpt>
      <trkpt lat="38.39282" lon="-0.76915">
        <ele>235</ele>
        <time>2022-10-15 15:48:51</time>
      </trkpt>
      <trkpt lat="38.39275" lon="-0.76911">
        <ele>235</ele>
        <time>2022-10-15 15:48:53</time>
      </trkpt>
      <trkpt lat="38.39272" lon="-0.76908">
        <ele>235</ele>
        <time>2022-10-15 15:48:54</time>
      </trkpt>
      <trkpt lat="38.39269" lon="-0.76904">
        <ele>235</ele>
        <time>2022-10-15 15:48:55</time>
      </trkpt>
      <trkpt lat="38.39264" lon="-0.76894">
        <ele>235</ele>
        <time>2022-10-15 15:48:57</time>
      </trkpt>
      <trkpt lat="38.39257" lon="-0.76885">
        <ele>235</ele>
        <time>2022-10-15 15:48:59</time>
      </trkpt>
      <trkpt lat="38.3925" lon="-0.76875">
        <ele>234.6</ele>
        <time>2022-10-15 15:49:01</time>
      </trkpt>
      <trkpt lat="38.3925" lon="-0.76875">
        <ele>234.4</ele>
        <time>2022-10-15 15:49:02</time>
      </trkpt>
      <trkpt lat="38.39243" lon="-0.76865">
        <ele>234.2</ele>
        <time>2022-10-15 15:49:03</time>
      </trkpt>
      <trkpt lat="38.3924" lon="-0.7686">
        <ele>234</ele>
        <time>2022-10-15 15:49:04</time>
      </trkpt>
      <trkpt lat="38.39234" lon="-0.76849">
        <ele>233.6</ele>
        <time>2022-10-15 15:49:06</time>
      </trkpt>
      <trkpt lat="38.3923" lon="-0.76843">
        <ele>233.4</ele>
        <time>2022-10-15 15:49:07</time>
      </trkpt>
      <trkpt lat="38.3923" lon="-0.76843">
        <ele>233.4</ele>
        <time>2022-10-15 15:49:08</time>
      </trkpt>
      <trkpt lat="38.39221" lon="-0.76827">
        <ele>232.8</ele>
        <time>2022-10-15 15:49:10</time>
      </trkpt>
      <trkpt lat="38.39216" lon="-0.76817">
        <ele>232.6</ele>
        <time>2022-10-15 15:49:12</time>
      </trkpt>
      <trkpt lat="38.39213" lon="-0.76811">
        <ele>232.6</ele>
        <time>2022-10-15 15:49:13</time>
      </trkpt>
      <trkpt lat="38.39213" lon="-0.76811">
        <ele>232.6</ele>
        <time>2022-10-15 15:49:14</time>
      </trkpt>
      <trkpt lat="38.39207" lon="-0.76801">
        <ele>232.4</ele>
        <time>2022-10-15 15:49:15</time>
      </trkpt>
      <trkpt lat="38.39203" lon="-0.76796">
        <ele>232.4</ele>
        <time>2022-10-15 15:49:16</time>
      </trkpt>
      <trkpt lat="38.39197" lon="-0.76785">
        <ele>232.4</ele>
        <time>2022-10-15 15:49:18</time>
      </trkpt>
      <trkpt lat="38.39194" lon="-0.76779">
        <ele>232.2</ele>
        <time>2022-10-15 15:49:19</time>
      </trkpt>
      <trkpt lat="38.39194" lon="-0.76779">
        <ele>232.2</ele>
        <time>2022-10-15 15:49:20</time>
      </trkpt>
      <trkpt lat="38.39187" lon="-0.76769">
        <ele>232.2</ele>
        <time>2022-10-15 15:49:21</time>
      </trkpt>
      <trkpt lat="38.39183" lon="-0.76764">
        <ele>232.2</ele>
        <time>2022-10-15 15:49:22</time>
      </trkpt>
      <trkpt lat="38.39176" lon="-0.76754">
        <ele>232</ele>
        <time>2022-10-15 15:49:24</time>
      </trkpt>
      <trkpt lat="38.39173" lon="-0.7675">
        <ele>231.8</ele>
        <time>2022-10-15 15:49:26</time>
      </trkpt>
      <trkpt lat="38.39162" lon="-0.76736">
        <ele>231.6</ele>
        <time>2022-10-15 15:49:28</time>
      </trkpt>
      <trkpt lat="38.39155" lon="-0.76727">
        <ele>231.6</ele>
        <time>2022-10-15 15:49:30</time>
      </trkpt>
      <trkpt lat="38.39151" lon="-0.76722">
        <ele>231.6</ele>
        <time>2022-10-15 15:49:31</time>
      </trkpt>
      <trkpt lat="38.39151" lon="-0.76722">
        <ele>231.4</ele>
        <time>2022-10-15 15:49:32</time>
      </trkpt>
      <trkpt lat="38.3914" lon="-0.76709">
        <ele>231.4</ele>
        <time>2022-10-15 15:49:34</time>
      </trkpt>
      <trkpt lat="38.39133" lon="-0.76701">
        <ele>231.4</ele>
        <time>2022-10-15 15:49:36</time>
      </trkpt>
      <trkpt lat="38.39129" lon="-0.76697">
        <ele>231.2</ele>
        <time>2022-10-15 15:49:38</time>
      </trkpt>
      <trkpt lat="38.39123" lon="-0.76688">
        <ele>231.2</ele>
        <time>2022-10-15 15:49:39</time>
      </trkpt>
      <trkpt lat="38.39119" lon="-0.76683">
        <ele>231.2</ele>
        <time>2022-10-15 15:49:40</time>
      </trkpt>
      <trkpt lat="38.39113" lon="-0.76676">
        <ele>231.2</ele>
        <time>2022-10-15 15:49:42</time>
      </trkpt>
      <trkpt lat="38.39109" lon="-0.76672">
        <ele>231.2</ele>
        <time>2022-10-15 15:49:43</time>
      </trkpt>
      <trkpt lat="38.39109" lon="-0.76672">
        <ele>231.2</ele>
        <time>2022-10-15 15:49:44</time>
      </trkpt>
      <trkpt lat="38.391" lon="-0.76661">
        <ele>231.2</ele>
        <time>2022-10-15 15:49:46</time>
      </trkpt>
      <trkpt lat="38.39094" lon="-0.76654">
        <ele>231.4</ele>
        <time>2022-10-15 15:49:48</time>
      </trkpt>
      <trkpt lat="38.39091" lon="-0.76651">
        <ele>231.4</ele>
        <time>2022-10-15 15:49:50</time>
      </trkpt>
      <trkpt lat="38.39082" lon="-0.76641">
        <ele>231.6</ele>
        <time>2022-10-15 15:49:52</time>
      </trkpt>
      <trkpt lat="38.39079" lon="-0.76638">
        <ele>231.6</ele>
        <time>2022-10-15 15:49:53</time>
      </trkpt>
      <trkpt lat="38.39076" lon="-0.76635">
        <ele>231.6</ele>
        <time>2022-10-15 15:49:54</time>
      </trkpt>
      <trkpt lat="38.39074" lon="-0.76632">
        <ele>231.6</ele>
        <time>2022-10-15 15:49:56</time>
      </trkpt>
      <trkpt lat="38.3907" lon="-0.76619">
        <ele>231.6</ele>
        <time>2022-10-15 15:49:58</time>
      </trkpt>
      <trkpt lat="38.3907" lon="-0.76613">
        <ele>231.6</ele>
        <time>2022-10-15 15:49:59</time>
      </trkpt>
      <trkpt lat="38.39069" lon="-0.76608">
        <ele>231.6</ele>
        <time>2022-10-15 15:50:00</time>
      </trkpt>
      <trkpt lat="38.39067" lon="-0.76603">
        <ele>231.6</ele>
        <time>2022-10-15 15:50:02</time>
      </trkpt>
      <trkpt lat="38.39062" lon="-0.76592">
        <ele>231.4</ele>
        <time>2022-10-15 15:50:03</time>
      </trkpt>
      <trkpt lat="38.39059" lon="-0.76587">
        <ele>231.2</ele>
        <time>2022-10-15 15:50:04</time>
      </trkpt>
      <trkpt lat="38.39056" lon="-0.76582">
        <ele>231.2</ele>
        <time>2022-10-15 15:50:05</time>
      </trkpt>
      <trkpt lat="38.39052" lon="-0.76576">
        <ele>231</ele>
        <time>2022-10-15 15:50:06</time>
      </trkpt>
      <trkpt lat="38.39049" lon="-0.76571">
        <ele>231</ele>
        <time>2022-10-15 15:50:07</time>
      </trkpt>
      <trkpt lat="38.39049" lon="-0.76571">
        <ele>230.8</ele>
        <time>2022-10-15 15:50:08</time>
      </trkpt>
      <trkpt lat="38.39042" lon="-0.76559">
        <ele>230.6</ele>
        <time>2022-10-15 15:50:09</time>
      </trkpt>
      <trkpt lat="38.39039" lon="-0.76553">
        <ele>230.4</ele>
        <time>2022-10-15 15:50:10</time>
      </trkpt>
      <trkpt lat="38.39032" lon="-0.7654">
        <ele>230.2</ele>
        <time>2022-10-15 15:50:12</time>
      </trkpt>
      <trkpt lat="38.39028" lon="-0.76533">
        <ele>230</ele>
        <time>2022-10-15 15:50:14</time>
      </trkpt>
      <trkpt lat="38.39018" lon="-0.76514">
        <ele>229.6</ele>
        <time>2022-10-15 15:50:16</time>
      </trkpt>
      <trkpt lat="38.39015" lon="-0.76507">
        <ele>229</ele>
        <time>2022-10-15 15:50:17</time>
      </trkpt>
      <trkpt lat="38.39012" lon="-0.765">
        <ele>228.8</ele>
        <time>2022-10-15 15:50:18</time>
      </trkpt>
      <trkpt lat="38.39009" lon="-0.76494">
        <ele>228.4</ele>
        <time>2022-10-15 15:50:20</time>
      </trkpt>
      <trkpt lat="38.39003" lon="-0.7648">
        <ele>228.4</ele>
        <time>2022-10-15 15:50:21</time>
      </trkpt>
      <trkpt lat="38.39" lon="-0.76473">
        <ele>228.4</ele>
        <time>2022-10-15 15:50:22</time>
      </trkpt>
      <trkpt lat="38.38993" lon="-0.76459">
        <ele>228.2</ele>
        <time>2022-10-15 15:50:24</time>
      </trkpt>
      <trkpt lat="38.3899" lon="-0.76452">
        <ele>228.2</ele>
        <time>2022-10-15 15:50:25</time>
      </trkpt>
      <trkpt lat="38.3899" lon="-0.76452">
        <ele>228.2</ele>
        <time>2022-10-15 15:50:26</time>
      </trkpt>
      <trkpt lat="38.38982" lon="-0.76433">
        <ele>228</ele>
        <time>2022-10-15 15:50:28</time>
      </trkpt>
      <trkpt lat="38.38979" lon="-0.76427">
        <ele>228</ele>
        <time>2022-10-15 15:50:29</time>
      </trkpt>
      <trkpt lat="38.38976" lon="-0.76421">
        <ele>228</ele>
        <time>2022-10-15 15:50:30</time>
      </trkpt>
      <trkpt lat="38.38974" lon="-0.76415">
        <ele>228</ele>
        <time>2022-10-15 15:50:31</time>
      </trkpt>
      <trkpt lat="38.38974" lon="-0.76415">
        <ele>227.8</ele>
        <time>2022-10-15 15:50:32</time>
      </trkpt>
      <trkpt lat="38.38965" lon="-0.76398">
        <ele>227.8</ele>
        <time>2022-10-15 15:50:34</time>
      </trkpt>
      <trkpt lat="38.3896" lon="-0.76387">
        <ele>227.8</ele>
        <time>2022-10-15 15:50:36</time>
      </trkpt>
      <trkpt lat="38.38957" lon="-0.76381">
        <ele>227.8</ele>
        <time>2022-10-15 15:50:38</time>
      </trkpt>
      <trkpt lat="38.38952" lon="-0.76371">
        <ele>227.8</ele>
        <time>2022-10-15 15:50:39</time>
      </trkpt>
      <trkpt lat="38.38949" lon="-0.76365">
        <ele>227.6</ele>
        <time>2022-10-15 15:50:40</time>
      </trkpt>
      <trkpt lat="38.38947" lon="-0.7636">
        <ele>227.6</ele>
        <time>2022-10-15 15:50:41</time>
      </trkpt>
      <trkpt lat="38.38944" lon="-0.76356">
        <ele>227.6</ele>
        <time>2022-10-15 15:50:42</time>
      </trkpt>
      <trkpt lat="38.38942" lon="-0.76351">
        <ele>227.6</ele>
        <time>2022-10-15 15:50:43</time>
      </trkpt>
      <trkpt lat="38.38942" lon="-0.76351">
        <ele>227.6</ele>
        <time>2022-10-15 15:50:44</time>
      </trkpt>
      <trkpt lat="38.38934" lon="-0.76336">
        <ele>227.8</ele>
        <time>2022-10-15 15:50:46</time>
      </trkpt>
      <trkpt lat="38.38928" lon="-0.76327">
        <ele>227.8</ele>
        <time>2022-10-15 15:50:48</time>
      </trkpt>
      <trkpt lat="38.38926" lon="-0.76322">
        <ele>227.8</ele>
        <time>2022-10-15 15:50:50</time>
      </trkpt>
      <trkpt lat="38.38918" lon="-0.76307">
        <ele>227.6</ele>
        <time>2022-10-15 15:50:52</time>
      </trkpt>
      <trkpt lat="38.38913" lon="-0.76296">
        <ele>227.6</ele>
        <time>2022-10-15 15:50:54</time>
      </trkpt>
      <trkpt lat="38.3891" lon="-0.76291">
        <ele>227.6</ele>
        <time>2022-10-15 15:50:55</time>
      </trkpt>
      <trkpt lat="38.3891" lon="-0.76291">
        <ele>227.6</ele>
        <time>2022-10-15 15:50:56</time>
      </trkpt>
      <trkpt lat="38.38903" lon="-0.76274">
        <ele>227.4</ele>
        <time>2022-10-15 15:50:58</time>
      </trkpt>
      <trkpt lat="38.38899" lon="-0.76263">
        <ele>227.4</ele>
        <time>2022-10-15 15:51:00</time>
      </trkpt>
      <trkpt lat="38.38897" lon="-0.76257">
        <ele>227.4</ele>
        <time>2022-10-15 15:51:02</time>
      </trkpt>
      <trkpt lat="38.38891" lon="-0.76241">
        <ele>227.2</ele>
        <time>2022-10-15 15:51:04</time>
      </trkpt>
      <trkpt lat="38.38887" lon="-0.76231">
        <ele>227.2</ele>
        <time>2022-10-15 15:51:06</time>
      </trkpt>
      <trkpt lat="38.38886" lon="-0.76225">
        <ele>227</ele>
        <time>2022-10-15 15:51:08</time>
      </trkpt>
      <trkpt lat="38.38883" lon="-0.76214">
        <ele>227</ele>
        <time>2022-10-15 15:51:09</time>
      </trkpt>
      <trkpt lat="38.38881" lon="-0.76208">
        <ele>227</ele>
        <time>2022-10-15 15:51:10</time>
      </trkpt>
      <trkpt lat="38.38879" lon="-0.76197">
        <ele>227</ele>
        <time>2022-10-15 15:51:12</time>
      </trkpt>
      <trkpt lat="38.38877" lon="-0.7619">
        <ele>227</ele>
        <time>2022-10-15 15:51:13</time>
      </trkpt>
      <trkpt lat="38.38876" lon="-0.76185">
        <ele>227</ele>
        <time>2022-10-15 15:51:14</time>
      </trkpt>
      <trkpt lat="38.38875" lon="-0.76179">
        <ele>227</ele>
        <time>2022-10-15 15:51:15</time>
      </trkpt>
      <trkpt lat="38.38873" lon="-0.76172">
        <ele>227</ele>
        <time>2022-10-15 15:51:16</time>
      </trkpt>
      <trkpt lat="38.38872" lon="-0.76161">
        <ele>226.8</ele>
        <time>2022-10-15 15:51:18</time>
      </trkpt>
      <trkpt lat="38.38871" lon="-0.76155">
        <ele>226.8</ele>
        <time>2022-10-15 15:51:20</time>
      </trkpt>
      <trkpt lat="38.38867" lon="-0.76138">
        <ele>226.8</ele>
        <time>2022-10-15 15:51:22</time>
      </trkpt>
      <trkpt lat="38.38865" lon="-0.76128">
        <ele>226.8</ele>
        <time>2022-10-15 15:51:24</time>
      </trkpt>
      <trkpt lat="38.38864" lon="-0.76122">
        <ele>226.8</ele>
        <time>2022-10-15 15:51:26</time>
      </trkpt>
      <trkpt lat="38.38863" lon="-0.76112">
        <ele>226.8</ele>
        <time>2022-10-15 15:51:27</time>
      </trkpt>
      <trkpt lat="38.38862" lon="-0.76107">
        <ele>226.6</ele>
        <time>2022-10-15 15:51:28</time>
      </trkpt>
      <trkpt lat="38.38861" lon="-0.76098">
        <ele>226.6</ele>
        <time>2022-10-15 15:51:30</time>
      </trkpt>
      <trkpt lat="38.3886" lon="-0.76093">
        <ele>226.8</ele>
        <time>2022-10-15 15:51:32</time>
      </trkpt>
      <trkpt lat="38.38859" lon="-0.76079">
        <ele>226.6</ele>
        <time>2022-10-15 15:51:34</time>
      </trkpt>
      <trkpt lat="38.38857" lon="-0.7607">
        <ele>226.6</ele>
        <time>2022-10-15 15:51:36</time>
      </trkpt>
      <trkpt lat="38.38857" lon="-0.76066">
        <ele>226.6</ele>
        <time>2022-10-15 15:51:38</time>
      </trkpt>
      <trkpt lat="38.38855" lon="-0.76053">
        <ele>226.6</ele>
        <time>2022-10-15 15:51:40</time>
      </trkpt>
      <trkpt lat="38.38855" lon="-0.76044">
        <ele>226.4</ele>
        <time>2022-10-15 15:51:42</time>
      </trkpt>
      <trkpt lat="38.38854" lon="-0.7604">
        <ele>226.4</ele>
        <time>2022-10-15 15:51:44</time>
      </trkpt>
      <trkpt lat="38.38853" lon="-0.76033">
        <ele>226.2</ele>
        <time>2022-10-15 15:51:45</time>
      </trkpt>
      <trkpt lat="38.38852" lon="-0.7603">
        <ele>226.2</ele>
        <time>2022-10-15 15:51:46</time>
      </trkpt>
      <trkpt lat="38.38851" lon="-0.76021">
        <ele>226.2</ele>
        <time>2022-10-15 15:51:48</time>
      </trkpt>
      <trkpt lat="38.3885" lon="-0.76017">
        <ele>226.2</ele>
        <time>2022-10-15 15:51:50</time>
      </trkpt>
      <trkpt lat="38.38848" lon="-0.76007">
        <ele>226.2</ele>
        <time>2022-10-15 15:51:51</time>
      </trkpt>
      <trkpt lat="38.38848" lon="-0.76001">
        <ele>226.2</ele>
        <time>2022-10-15 15:51:52</time>
      </trkpt>
      <trkpt lat="38.38847" lon="-0.75996">
        <ele>226.2</ele>
        <time>2022-10-15 15:51:53</time>
      </trkpt>
      <trkpt lat="38.38846" lon="-0.75991">
        <ele>226.2</ele>
        <time>2022-10-15 15:51:54</time>
      </trkpt>
      <trkpt lat="38.38845" lon="-0.75985">
        <ele>226.2</ele>
        <time>2022-10-15 15:51:56</time>
      </trkpt>
      <trkpt lat="38.38842" lon="-0.75969">
        <ele>226</ele>
        <time>2022-10-15 15:51:58</time>
      </trkpt>
      <trkpt lat="38.38841" lon="-0.75957">
        <ele>225.8</ele>
        <time>2022-10-15 15:52:00</time>
      </trkpt>
      <trkpt lat="38.3884" lon="-0.75952">
        <ele>225.8</ele>
        <time>2022-10-15 15:52:01</time>
      </trkpt>
      <trkpt lat="38.3884" lon="-0.75952">
        <ele>225.6</ele>
        <time>2022-10-15 15:52:02</time>
      </trkpt>
      <trkpt lat="38.38839" lon="-0.7594">
        <ele>225.6</ele>
        <time>2022-10-15 15:52:03</time>
      </trkpt>
      <trkpt lat="38.38838" lon="-0.75934">
        <ele>225.4</ele>
        <time>2022-10-15 15:52:04</time>
      </trkpt>
      <trkpt lat="38.38837" lon="-0.75922">
        <ele>225.2</ele>
        <time>2022-10-15 15:52:06</time>
      </trkpt>
      <trkpt lat="38.38836" lon="-0.75916">
        <ele>225</ele>
        <time>2022-10-15 15:52:07</time>
      </trkpt>
      <trkpt lat="38.38836" lon="-0.75916">
        <ele>225</ele>
        <time>2022-10-15 15:52:08</time>
      </trkpt>
      <trkpt lat="38.38833" lon="-0.75898">
        <ele>225</ele>
        <time>2022-10-15 15:52:10</time>
      </trkpt>
      <trkpt lat="38.38831" lon="-0.75886">
        <ele>224.8</ele>
        <time>2022-10-15 15:52:12</time>
      </trkpt>
      <trkpt lat="38.3883" lon="-0.7588">
        <ele>224.6</ele>
        <time>2022-10-15 15:52:14</time>
      </trkpt>
      <trkpt lat="38.38827" lon="-0.75862">
        <ele>224.4</ele>
        <time>2022-10-15 15:52:16</time>
      </trkpt>
      <trkpt lat="38.38826" lon="-0.7585">
        <ele>224.4</ele>
        <time>2022-10-15 15:52:18</time>
      </trkpt>
      <trkpt lat="38.38825" lon="-0.75844">
        <ele>224.2</ele>
        <time>2022-10-15 15:52:19</time>
      </trkpt>
      <trkpt lat="38.38825" lon="-0.75844">
        <ele>224.2</ele>
        <time>2022-10-15 15:52:20</time>
      </trkpt>
      <trkpt lat="38.38822" lon="-0.75826">
        <ele>224.2</ele>
        <time>2022-10-15 15:52:22</time>
      </trkpt>
      <trkpt lat="38.3882" lon="-0.75814">
        <ele>224.2</ele>
        <time>2022-10-15 15:52:24</time>
      </trkpt>
      <trkpt lat="38.38819" lon="-0.75808">
        <ele>224.2</ele>
        <time>2022-10-15 15:52:26</time>
      </trkpt>
      <trkpt lat="38.38817" lon="-0.75796">
        <ele>224</ele>
        <time>2022-10-15 15:52:27</time>
      </trkpt>
      <trkpt lat="38.38816" lon="-0.7579">
        <ele>224</ele>
        <time>2022-10-15 15:52:28</time>
      </trkpt>
      <trkpt lat="38.38815" lon="-0.75784">
        <ele>224</ele>
        <time>2022-10-15 15:52:29</time>
      </trkpt>
      <trkpt lat="38.38814" lon="-0.75778">
        <ele>224</ele>
        <time>2022-10-15 15:52:30</time>
      </trkpt>
      <trkpt lat="38.38813" lon="-0.75772">
        <ele>224</ele>
        <time>2022-10-15 15:52:32</time>
      </trkpt>
      <trkpt lat="38.38811" lon="-0.75754">
        <ele>223.8</ele>
        <time>2022-10-15 15:52:34</time>
      </trkpt>
      <trkpt lat="38.38809" lon="-0.75742">
        <ele>223.6</ele>
        <time>2022-10-15 15:52:36</time>
      </trkpt>
      <trkpt lat="38.38809" lon="-0.75736">
        <ele>223.4</ele>
        <time>2022-10-15 15:52:37</time>
      </trkpt>
      <trkpt lat="38.38809" lon="-0.75736">
        <ele>223.4</ele>
        <time>2022-10-15 15:52:38</time>
      </trkpt>
      <trkpt lat="38.38807" lon="-0.75719">
        <ele>223.2</ele>
        <time>2022-10-15 15:52:40</time>
      </trkpt>
      <trkpt lat="38.38805" lon="-0.75708">
        <ele>223.2</ele>
        <time>2022-10-15 15:52:42</time>
      </trkpt>
      <trkpt lat="38.38804" lon="-0.75702">
        <ele>223.2</ele>
        <time>2022-10-15 15:52:43</time>
      </trkpt>
      <trkpt lat="38.38804" lon="-0.75702">
        <ele>223.2</ele>
        <time>2022-10-15 15:52:44</time>
      </trkpt>
      <trkpt lat="38.38802" lon="-0.75691">
        <ele>223.2</ele>
        <time>2022-10-15 15:52:45</time>
      </trkpt>
      <trkpt lat="38.38801" lon="-0.75685">
        <ele>223.2</ele>
        <time>2022-10-15 15:52:46</time>
      </trkpt>
      <trkpt lat="38.38801" lon="-0.75674">
        <ele>223.2</ele>
        <time>2022-10-15 15:52:48</time>
      </trkpt>
      <trkpt lat="38.388" lon="-0.75669">
        <ele>223.2</ele>
        <time>2022-10-15 15:52:49</time>
      </trkpt>
      <trkpt lat="38.388" lon="-0.75669">
        <ele>223.2</ele>
        <time>2022-10-15 15:52:50</time>
      </trkpt>
      <trkpt lat="38.38796" lon="-0.75655">
        <ele>223</ele>
        <time>2022-10-15 15:52:52</time>
      </trkpt>
      <trkpt lat="38.38793" lon="-0.75647">
        <ele>223</ele>
        <time>2022-10-15 15:52:54</time>
      </trkpt>
      <trkpt lat="38.38791" lon="-0.75643">
        <ele>223</ele>
        <time>2022-10-15 15:52:56</time>
      </trkpt>
      <trkpt lat="38.38788" lon="-0.75635">
        <ele>223</ele>
        <time>2022-10-15 15:52:57</time>
      </trkpt>
      <trkpt lat="38.38786" lon="-0.75632">
        <ele>223</ele>
        <time>2022-10-15 15:52:58</time>
      </trkpt>
      <trkpt lat="38.38781" lon="-0.75625">
        <ele>223</ele>
        <time>2022-10-15 15:53:00</time>
      </trkpt>
      <trkpt lat="38.38779" lon="-0.75621">
        <ele>223</ele>
        <time>2022-10-15 15:53:01</time>
      </trkpt>
      <trkpt lat="38.38779" lon="-0.75621">
        <ele>223</ele>
        <time>2022-10-15 15:53:02</time>
      </trkpt>
      <trkpt lat="38.38776" lon="-0.75617">
        <ele>223</ele>
        <time>2022-10-15 15:53:03</time>
      </trkpt>
      <trkpt lat="38.38775" lon="-0.75617">
        <ele>223</ele>
        <time>2022-10-15 15:53:04</time>
      </trkpt>
      <trkpt lat="38.38775" lon="-0.75617">
        <ele>223</ele>
        <time>2022-10-15 15:53:05</time>
      </trkpt>
      <trkpt lat="38.3877" lon="-0.75612">
        <ele>223.2</ele>
        <time>2022-10-15 15:53:19</time>
      </trkpt>
      <trkpt lat="38.3877" lon="-0.75612">
        <ele>223.2</ele>
        <time>2022-10-15 15:53:20</time>
      </trkpt>
      <trkpt lat="38.38767" lon="-0.75607">
        <ele>223.2</ele>
        <time>2022-10-15 15:53:21</time>
      </trkpt>
      <trkpt lat="38.38766" lon="-0.75605">
        <ele>223.2</ele>
        <time>2022-10-15 15:53:22</time>
      </trkpt>
      <trkpt lat="38.38764" lon="-0.75602">
        <ele>223.2</ele>
        <time>2022-10-15 15:53:23</time>
      </trkpt>
      <trkpt lat="38.38762" lon="-0.75599">
        <ele>223.2</ele>
        <time>2022-10-15 15:53:24</time>
      </trkpt>
      <trkpt lat="38.38761" lon="-0.75596">
        <ele>223.2</ele>
        <time>2022-10-15 15:53:26</time>
      </trkpt>
      <trkpt lat="38.38758" lon="-0.75589">
        <ele>223.2</ele>
        <time>2022-10-15 15:53:27</time>
      </trkpt>
      <trkpt lat="38.38756" lon="-0.75586">
        <ele>223.2</ele>
        <time>2022-10-15 15:53:28</time>
      </trkpt>
      <trkpt lat="38.38753" lon="-0.75583">
        <ele>223</ele>
        <time>2022-10-15 15:53:29</time>
      </trkpt>
      <trkpt lat="38.38752" lon="-0.7558">
        <ele>223</ele>
        <time>2022-10-15 15:53:30</time>
      </trkpt>
      <trkpt lat="38.3875" lon="-0.75577">
        <ele>222.8</ele>
        <time>2022-10-15 15:53:32</time>
      </trkpt>
      <trkpt lat="38.38744" lon="-0.75565">
        <ele>222.6</ele>
        <time>2022-10-15 15:53:34</time>
      </trkpt>
      <trkpt lat="38.38739" lon="-0.75556">
        <ele>222.4</ele>
        <time>2022-10-15 15:53:36</time>
      </trkpt>
      <trkpt lat="38.38737" lon="-0.75551">
        <ele>222.2</ele>
        <time>2022-10-15 15:53:37</time>
      </trkpt>
      <trkpt lat="38.38737" lon="-0.75551">
        <ele>222</ele>
        <time>2022-10-15 15:53:38</time>
      </trkpt>
      <trkpt lat="38.38732" lon="-0.75541">
        <ele>222</ele>
        <time>2022-10-15 15:53:39</time>
      </trkpt>
      <trkpt lat="38.38728" lon="-0.7553">
        <ele>221.8</ele>
        <time>2022-10-15 15:53:41</time>
      </trkpt>
      <trkpt lat="38.38724" lon="-0.75519">
        <ele>221.4</ele>
        <time>2022-10-15 15:53:43</time>
      </trkpt>
      <trkpt lat="38.3872" lon="-0.75509">
        <ele>221.2</ele>
        <time>2022-10-15 15:53:45</time>
      </trkpt>
      <trkpt lat="38.38718" lon="-0.75504">
        <ele>221.2</ele>
        <time>2022-10-15 15:53:46</time>
      </trkpt>
      <trkpt lat="38.38716" lon="-0.75499">
        <ele>221.2</ele>
        <time>2022-10-15 15:53:47</time>
      </trkpt>
      <trkpt lat="38.38714" lon="-0.75494">
        <ele>221.2</ele>
        <time>2022-10-15 15:53:48</time>
      </trkpt>
      <trkpt lat="38.38711" lon="-0.7549">
        <ele>221</ele>
        <time>2022-10-15 15:53:49</time>
      </trkpt>
      <trkpt lat="38.38706" lon="-0.7548">
        <ele>220.8</ele>
        <time>2022-10-15 15:53:51</time>
      </trkpt>
      <trkpt lat="38.387" lon="-0.7547">
        <ele>220.8</ele>
        <time>2022-10-15 15:53:53</time>
      </trkpt>
      <trkpt lat="38.38695" lon="-0.7546">
        <ele>220.6</ele>
        <time>2022-10-15 15:53:55</time>
      </trkpt>
      <trkpt lat="38.38695" lon="-0.7546">
        <ele>220.6</ele>
        <time>2022-10-15 15:53:56</time>
      </trkpt>
      <trkpt lat="38.3869" lon="-0.75449">
        <ele>220.6</ele>
        <time>2022-10-15 15:53:57</time>
      </trkpt>
      <trkpt lat="38.38685" lon="-0.75438">
        <ele>220.4</ele>
        <time>2022-10-15 15:53:59</time>
      </trkpt>
      <trkpt lat="38.3868" lon="-0.75427">
        <ele>220.2</ele>
        <time>2022-10-15 15:54:01</time>
      </trkpt>
      <trkpt lat="38.38677" lon="-0.75416">
        <ele>220</ele>
        <time>2022-10-15 15:54:03</time>
      </trkpt>
      <trkpt lat="38.38675" lon="-0.7541">
        <ele>220</ele>
        <time>2022-10-15 15:54:04</time>
      </trkpt>
      <trkpt lat="38.38674" lon="-0.75404">
        <ele>219.8</ele>
        <time>2022-10-15 15:54:05</time>
      </trkpt>
      <trkpt lat="38.3867" lon="-0.75393">
        <ele>219.6</ele>
        <time>2022-10-15 15:54:07</time>
      </trkpt>
      <trkpt lat="38.38666" lon="-0.75382">
        <ele>219.6</ele>
        <time>2022-10-15 15:54:09</time>
      </trkpt>
      <trkpt lat="38.38661" lon="-0.75371">
        <ele>219.4</ele>
        <time>2022-10-15 15:54:11</time>
      </trkpt>
      <trkpt lat="38.38657" lon="-0.75361">
        <ele>219.4</ele>
        <time>2022-10-15 15:54:13</time>
      </trkpt>
      <trkpt lat="38.38652" lon="-0.7535">
        <ele>219.4</ele>
        <time>2022-10-15 15:54:15</time>
      </trkpt>
      <trkpt lat="38.38649" lon="-0.75339">
        <ele>219.4</ele>
        <time>2022-10-15 15:54:17</time>
      </trkpt>
      <trkpt lat="38.38646" lon="-0.75329">
        <ele>219.4</ele>
        <time>2022-10-15 15:54:19</time>
      </trkpt>
      <trkpt lat="38.38643" lon="-0.75318">
        <ele>219.4</ele>
        <time>2022-10-15 15:54:21</time>
      </trkpt>
      <trkpt lat="38.3864" lon="-0.75308">
        <ele>219.4</ele>
        <time>2022-10-15 15:54:23</time>
      </trkpt>
      <trkpt lat="38.38637" lon="-0.75299">
        <ele>219.4</ele>
        <time>2022-10-15 15:54:25</time>
      </trkpt>
      <trkpt lat="38.38633" lon="-0.7529">
        <ele>219.4</ele>
        <time>2022-10-15 15:54:27</time>
      </trkpt>
      <trkpt lat="38.38631" lon="-0.75285">
        <ele>219.4</ele>
        <time>2022-10-15 15:54:28</time>
      </trkpt>
      <trkpt lat="38.38629" lon="-0.75281">
        <ele>219.4</ele>
        <time>2022-10-15 15:54:29</time>
      </trkpt>
      <trkpt lat="38.38627" lon="-0.75276">
        <ele>219.4</ele>
        <time>2022-10-15 15:54:30</time>
      </trkpt>
      <trkpt lat="38.38625" lon="-0.75271">
        <ele>219.4</ele>
        <time>2022-10-15 15:54:31</time>
      </trkpt>
      <trkpt lat="38.38625" lon="-0.75271">
        <ele>219.4</ele>
        <time>2022-10-15 15:54:32</time>
      </trkpt>
      <trkpt lat="38.3862" lon="-0.7526">
        <ele>219.4</ele>
        <time>2022-10-15 15:54:33</time>
      </trkpt>
      <trkpt lat="38.38618" lon="-0.75255">
        <ele>219.2</ele>
        <time>2022-10-15 15:54:34</time>
      </trkpt>
      <trkpt lat="38.38616" lon="-0.7525">
        <ele>219.2</ele>
        <time>2022-10-15 15:54:35</time>
      </trkpt>
      <trkpt lat="38.38614" lon="-0.75244">
        <ele>219.2</ele>
        <time>2022-10-15 15:54:36</time>
      </trkpt>
      <trkpt lat="38.38612" lon="-0.75239">
        <ele>219.2</ele>
        <time>2022-10-15 15:54:37</time>
      </trkpt>
      <trkpt lat="38.38612" lon="-0.75239">
        <ele>219.2</ele>
        <time>2022-10-15 15:54:38</time>
      </trkpt>
      <trkpt lat="38.38606" lon="-0.75223">
        <ele>219.2</ele>
        <time>2022-10-15 15:54:40</time>
      </trkpt>
      <trkpt lat="38.38602" lon="-0.75211">
        <ele>219.2</ele>
        <time>2022-10-15 15:54:42</time>
      </trkpt>
      <trkpt lat="38.386" lon="-0.75206">
        <ele>219</ele>
        <time>2022-10-15 15:54:43</time>
      </trkpt>
      <trkpt lat="38.386" lon="-0.75206">
        <ele>219.2</ele>
        <time>2022-10-15 15:54:44</time>
      </trkpt>
      <trkpt lat="38.38594" lon="-0.75189">
        <ele>219</ele>
        <time>2022-10-15 15:54:46</time>
      </trkpt>
      <trkpt lat="38.38589" lon="-0.75179">
        <ele>219</ele>
        <time>2022-10-15 15:54:48</time>
      </trkpt>
      <trkpt lat="38.38587" lon="-0.75173">
        <ele>219</ele>
        <time>2022-10-15 15:54:50</time>
      </trkpt>
      <trkpt lat="38.3858" lon="-0.75157">
        <ele>218.8</ele>
        <time>2022-10-15 15:54:52</time>
      </trkpt>
      <trkpt lat="38.38575" lon="-0.75147">
        <ele>218.6</ele>
        <time>2022-10-15 15:54:54</time>
      </trkpt>
      <trkpt lat="38.38572" lon="-0.75142">
        <ele>218.4</ele>
        <time>2022-10-15 15:54:56</time>
      </trkpt>
      <trkpt lat="38.38565" lon="-0.75133">
        <ele>218.4</ele>
        <time>2022-10-15 15:54:57</time>
      </trkpt>
      <trkpt lat="38.38562" lon="-0.75128">
        <ele>218.2</ele>
        <time>2022-10-15 15:54:58</time>
      </trkpt>
      <trkpt lat="38.38555" lon="-0.75119">
        <ele>218.2</ele>
        <time>2022-10-15 15:55:00</time>
      </trkpt>
      <trkpt lat="38.38552" lon="-0.75115">
        <ele>218.2</ele>
        <time>2022-10-15 15:55:02</time>
      </trkpt>
      <trkpt lat="38.38545" lon="-0.75106">
        <ele>218</ele>
        <time>2022-10-15 15:55:03</time>
      </trkpt>
      <trkpt lat="38.38542" lon="-0.75102">
        <ele>218</ele>
        <time>2022-10-15 15:55:04</time>
      </trkpt>
      <trkpt lat="38.38538" lon="-0.75098">
        <ele>218</ele>
        <time>2022-10-15 15:55:05</time>
      </trkpt>
      <trkpt lat="38.38534" lon="-0.75094">
        <ele>218</ele>
        <time>2022-10-15 15:55:06</time>
      </trkpt>
      <trkpt lat="38.38531" lon="-0.7509">
        <ele>218</ele>
        <time>2022-10-15 15:55:08</time>
      </trkpt>
      <trkpt lat="38.38523" lon="-0.75084">
        <ele>218</ele>
        <time>2022-10-15 15:55:09</time>
      </trkpt>
      <trkpt lat="38.38519" lon="-0.75081">
        <ele>217.8</ele>
        <time>2022-10-15 15:55:10</time>
      </trkpt>
      <trkpt lat="38.3851" lon="-0.75076">
        <ele>217.8</ele>
        <time>2022-10-15 15:55:12</time>
      </trkpt>
      <trkpt lat="38.38506" lon="-0.75074">
        <ele>217.6</ele>
        <time>2022-10-15 15:55:13</time>
      </trkpt>
      <trkpt lat="38.38506" lon="-0.75074">
        <ele>217.6</ele>
        <time>2022-10-15 15:55:14</time>
      </trkpt>
      <trkpt lat="38.38498" lon="-0.75068">
        <ele>217.6</ele>
        <time>2022-10-15 15:55:15</time>
      </trkpt>
      <trkpt lat="38.38494" lon="-0.75065">
        <ele>217.6</ele>
        <time>2022-10-15 15:55:16</time>
      </trkpt>
      <trkpt lat="38.3849" lon="-0.75062">
        <ele>217.4</ele>
        <time>2022-10-15 15:55:17</time>
      </trkpt>
      <trkpt lat="38.38486" lon="-0.7506">
        <ele>217.4</ele>
        <time>2022-10-15 15:55:18</time>
      </trkpt>
      <trkpt lat="38.38482" lon="-0.75057">
        <ele>217.4</ele>
        <time>2022-10-15 15:55:19</time>
      </trkpt>
      <trkpt lat="38.38482" lon="-0.75057">
        <ele>217.2</ele>
        <time>2022-10-15 15:55:20</time>
      </trkpt>
      <trkpt lat="38.38474" lon="-0.75052">
        <ele>217.2</ele>
        <time>2022-10-15 15:55:21</time>
      </trkpt>
      <trkpt lat="38.3847" lon="-0.75049">
        <ele>217.2</ele>
        <time>2022-10-15 15:55:22</time>
      </trkpt>
      <trkpt lat="38.38462" lon="-0.75044">
        <ele>217.4</ele>
        <time>2022-10-15 15:55:24</time>
      </trkpt>
      <trkpt lat="38.38458" lon="-0.75042">
        <ele>217.4</ele>
        <time>2022-10-15 15:55:26</time>
      </trkpt>
      <trkpt lat="38.38446" lon="-0.75036">
        <ele>217.4</ele>
        <time>2022-10-15 15:55:28</time>
      </trkpt>
      <trkpt lat="38.38436" lon="-0.75033">
        <ele>217.4</ele>
        <time>2022-10-15 15:55:30</time>
      </trkpt>
      <trkpt lat="38.38431" lon="-0.75033">
        <ele>217.4</ele>
        <time>2022-10-15 15:55:31</time>
      </trkpt>
      <trkpt lat="38.38431" lon="-0.75033">
        <ele>217.4</ele>
        <time>2022-10-15 15:55:32</time>
      </trkpt>
      <trkpt lat="38.38421" lon="-0.7503">
        <ele>217.4</ele>
        <time>2022-10-15 15:55:33</time>
      </trkpt>
      <trkpt lat="38.38416" lon="-0.75028">
        <ele>217.2</ele>
        <time>2022-10-15 15:55:34</time>
      </trkpt>
      <trkpt lat="38.38405" lon="-0.75025">
        <ele>217.4</ele>
        <time>2022-10-15 15:55:36</time>
      </trkpt>
      <trkpt lat="38.384" lon="-0.75025">
        <ele>217.4</ele>
        <time>2022-10-15 15:55:37</time>
      </trkpt>
      <trkpt lat="38.384" lon="-0.75025">
        <ele>217.4</ele>
        <time>2022-10-15 15:55:38</time>
      </trkpt>
      <trkpt lat="38.38382" lon="-0.75023">
        <ele>217.4</ele>
        <time>2022-10-15 15:55:40</time>
      </trkpt>
      <trkpt lat="38.38376" lon="-0.75022">
        <ele>217.4</ele>
        <time>2022-10-15 15:55:41</time>
      </trkpt>
      <trkpt lat="38.3837" lon="-0.75021">
        <ele>217.4</ele>
        <time>2022-10-15 15:55:42</time>
      </trkpt>
      <trkpt lat="38.38365" lon="-0.7502">
        <ele>217.2</ele>
        <time>2022-10-15 15:55:44</time>
      </trkpt>
      <trkpt lat="38.38355" lon="-0.75016">
        <ele>217.2</ele>
        <time>2022-10-15 15:55:45</time>
      </trkpt>
      <trkpt lat="38.38351" lon="-0.75014">
        <ele>217.2</ele>
        <time>2022-10-15 15:55:46</time>
      </trkpt>
      <trkpt lat="38.38346" lon="-0.75012">
        <ele>217</ele>
        <time>2022-10-15 15:55:47</time>
      </trkpt>
      <trkpt lat="38.38341" lon="-0.75009">
        <ele>217</ele>
        <time>2022-10-15 15:55:48</time>
      </trkpt>
      <trkpt lat="38.38336" lon="-0.75007">
        <ele>217</ele>
        <time>2022-10-15 15:55:49</time>
      </trkpt>
      <trkpt lat="38.38336" lon="-0.75007">
        <ele>216.8</ele>
        <time>2022-10-15 15:55:50</time>
      </trkpt>
      <trkpt lat="38.38326" lon="-0.75004">
        <ele>216.8</ele>
        <time>2022-10-15 15:55:51</time>
      </trkpt>
      <trkpt lat="38.38321" lon="-0.75003">
        <ele>216.6</ele>
        <time>2022-10-15 15:55:52</time>
      </trkpt>
      <trkpt lat="38.38312" lon="-0.74998">
        <ele>216.6</ele>
        <time>2022-10-15 15:55:54</time>
      </trkpt>
      <trkpt lat="38.38306" lon="-0.74996">
        <ele>216.4</ele>
        <time>2022-10-15 15:55:55</time>
      </trkpt>
      <trkpt lat="38.38306" lon="-0.74996">
        <ele>216.4</ele>
        <time>2022-10-15 15:55:56</time>
      </trkpt>
      <trkpt lat="38.38294" lon="-0.74991">
        <ele>216.4</ele>
        <time>2022-10-15 15:55:58</time>
      </trkpt>
      <trkpt lat="38.38288" lon="-0.74991">
        <ele>216.4</ele>
        <time>2022-10-15 15:56:00</time>
      </trkpt>
      <trkpt lat="38.38287" lon="-0.74991">
        <ele>216.4</ele>
        <time>2022-10-15 15:56:02</time>
      </trkpt>
      <trkpt lat="38.38285" lon="-0.74993">
        <ele>216.4</ele>
        <time>2022-10-15 15:56:03</time>
      </trkpt>
      <trkpt lat="38.38284" lon="-0.74993">
        <ele>216.4</ele>
        <time>2022-10-15 15:56:04</time>
      </trkpt>
      <trkpt lat="38.38283" lon="-0.74992">
        <ele>216.4</ele>
        <time>2022-10-15 15:56:05</time>
      </trkpt>
      <trkpt lat="38.38282" lon="-0.74991">
        <ele>216.4</ele>
        <time>2022-10-15 15:56:06</time>
      </trkpt>
      <trkpt lat="38.38282" lon="-0.74991">
        <ele>216.6</ele>
        <time>2022-10-15 15:56:08</time>
      </trkpt>
      <trkpt lat="38.38282" lon="-0.74983">
        <ele>218</ele>
        <time>2022-10-15 15:57:01</time>
      </trkpt>
      <trkpt lat="38.38282" lon="-0.74983">
        <ele>218</ele>
        <time>2022-10-15 15:57:02</time>
      </trkpt>
      <trkpt lat="38.38281" lon="-0.74975">
        <ele>218</ele>
        <time>2022-10-15 15:57:04</time>
      </trkpt>
      <trkpt lat="38.38281" lon="-0.74968">
        <ele>217.8</ele>
        <time>2022-10-15 15:57:06</time>
      </trkpt>
      <trkpt lat="38.38281" lon="-0.74964">
        <ele>217.8</ele>
        <time>2022-10-15 15:57:07</time>
      </trkpt>
      <trkpt lat="38.38281" lon="-0.74964">
        <ele>217.8</ele>
        <time>2022-10-15 15:57:08</time>
      </trkpt>
      <trkpt lat="38.38279" lon="-0.74959">
        <ele>217.6</ele>
        <time>2022-10-15 15:57:09</time>
      </trkpt>
      <trkpt lat="38.38277" lon="-0.74957">
        <ele>217.4</ele>
        <time>2022-10-15 15:57:10</time>
      </trkpt>
      <trkpt lat="38.38275" lon="-0.74955">
        <ele>217.4</ele>
        <time>2022-10-15 15:57:11</time>
      </trkpt>
      <trkpt lat="38.38272" lon="-0.74954">
        <ele>217.2</ele>
        <time>2022-10-15 15:57:12</time>
      </trkpt>
      <trkpt lat="38.3827" lon="-0.74953">
        <ele>217</ele>
        <time>2022-10-15 15:57:14</time>
      </trkpt>
      <trkpt lat="38.38263" lon="-0.74952">
        <ele>216.8</ele>
        <time>2022-10-15 15:57:16</time>
      </trkpt>
      <trkpt lat="38.3826" lon="-0.74952">
        <ele>216.8</ele>
        <time>2022-10-15 15:57:17</time>
      </trkpt>
      <trkpt lat="38.38258" lon="-0.74952">
        <ele>216.6</ele>
        <time>2022-10-15 15:57:18</time>
      </trkpt>
      <trkpt lat="38.38256" lon="-0.74952">
        <ele>216.6</ele>
        <time>2022-10-15 15:57:20</time>
      </trkpt>
      <trkpt lat="38.38247" lon="-0.74951">
        <ele>216.6</ele>
        <time>2022-10-15 15:57:22</time>
      </trkpt>
      <trkpt lat="38.38244" lon="-0.74951">
        <ele>216.6</ele>
        <time>2022-10-15 15:57:23</time>
      </trkpt>
      <trkpt lat="38.38241" lon="-0.74951">
        <ele>216.6</ele>
        <time>2022-10-15 15:57:24</time>
      </trkpt>
      <trkpt lat="38.38239" lon="-0.74951">
        <ele>216.6</ele>
        <time>2022-10-15 15:57:25</time>
      </trkpt>
      <trkpt lat="38.38239" lon="-0.74951">
        <ele>216.6</ele>
        <time>2022-10-15 15:57:26</time>
      </trkpt>
      <trkpt lat="38.3823" lon="-0.74948">
        <ele>216.6</ele>
        <time>2022-10-15 15:57:28</time>
      </trkpt>
      <trkpt lat="38.38227" lon="-0.74947">
        <ele>216.6</ele>
        <time>2022-10-15 15:57:29</time>
      </trkpt>
      <trkpt lat="38.38223" lon="-0.74946">
        <ele>216.6</ele>
        <time>2022-10-15 15:57:30</time>
      </trkpt>
      <trkpt lat="38.3822" lon="-0.74945">
        <ele>216.4</ele>
        <time>2022-10-15 15:57:32</time>
      </trkpt>
      <trkpt lat="38.38214" lon="-0.7494">
        <ele>216.4</ele>
        <time>2022-10-15 15:57:33</time>
      </trkpt>
      <trkpt lat="38.38212" lon="-0.74938">
        <ele>216.4</ele>
        <time>2022-10-15 15:57:34</time>
      </trkpt>
      <trkpt lat="38.38207" lon="-0.74932">
        <ele>216.4</ele>
        <time>2022-10-15 15:57:36</time>
      </trkpt>
      <trkpt lat="38.38206" lon="-0.7493">
        <ele>216.4</ele>
        <time>2022-10-15 15:57:38</time>
      </trkpt>
      <trkpt lat="38.38204" lon="-0.74928">
        <ele>216.4</ele>
        <time>2022-10-15 15:57:39</time>
      </trkpt>
      <trkpt lat="38.38204" lon="-0.74927">
        <ele>216.4</ele>
        <time>2022-10-15 15:57:40</time>
      </trkpt>
      <trkpt lat="38.38203" lon="-0.74927">
        <ele>216.2</ele>
        <time>2022-10-15 15:57:42</time>
      </trkpt>
      <trkpt lat="38.38197" lon="-0.74916">
        <ele>216</ele>
        <time>2022-10-15 15:58:04</time>
      </trkpt>
      <trkpt lat="38.38196" lon="-0.74915">
        <ele>216</ele>
        <time>2022-10-15 15:58:05</time>
      </trkpt>
      <trkpt lat="38.38191" lon="-0.74912">
        <ele>216</ele>
        <time>2022-10-15 15:58:07</time>
      </trkpt>
      <trkpt lat="38.38191" lon="-0.74912">
        <ele>215.8</ele>
        <time>2022-10-15 15:58:08</time>
      </trkpt>
      <trkpt lat="38.38187" lon="-0.74907">
        <ele>215.8</ele>
        <time>2022-10-15 15:58:09</time>
      </trkpt>
      <trkpt lat="38.38186" lon="-0.74904">
        <ele>215.8</ele>
        <time>2022-10-15 15:58:10</time>
      </trkpt>
      <trkpt lat="38.38184" lon="-0.749">
        <ele>215.8</ele>
        <time>2022-10-15 15:58:11</time>
      </trkpt>
      <trkpt lat="38.38183" lon="-0.74892">
        <ele>215.6</ele>
        <time>2022-10-15 15:58:13</time>
      </trkpt>
      <trkpt lat="38.38184" lon="-0.74884">
        <ele>215.4</ele>
        <time>2022-10-15 15:58:15</time>
      </trkpt>
      <trkpt lat="38.38186" lon="-0.7488">
        <ele>215.4</ele>
        <time>2022-10-15 15:58:16</time>
      </trkpt>
      <trkpt lat="38.38188" lon="-0.74877">
        <ele>215.4</ele>
        <time>2022-10-15 15:58:17</time>
      </trkpt>
      <trkpt lat="38.3819" lon="-0.74874">
        <ele>215.4</ele>
        <time>2022-10-15 15:58:18</time>
      </trkpt>
      <trkpt lat="38.38193" lon="-0.74871">
        <ele>215.4</ele>
        <time>2022-10-15 15:58:19</time>
      </trkpt>
      <trkpt lat="38.38199" lon="-0.74866">
        <ele>215.6</ele>
        <time>2022-10-15 15:58:21</time>
      </trkpt>
      <trkpt lat="38.38205" lon="-0.7486">
        <ele>215.6</ele>
        <time>2022-10-15 15:58:23</time>
      </trkpt>
      <trkpt lat="38.38212" lon="-0.74854">
        <ele>215.6</ele>
        <time>2022-10-15 15:58:25</time>
      </trkpt>
      <trkpt lat="38.38218" lon="-0.74846">
        <ele>215.6</ele>
        <time>2022-10-15 15:58:27</time>
      </trkpt>
      <trkpt lat="38.38221" lon="-0.74843">
        <ele>215.6</ele>
        <time>2022-10-15 15:58:28</time>
      </trkpt>
      <trkpt lat="38.38221" lon="-0.74843">
        <ele>215.6</ele>
        <time>2022-10-15 15:58:29</time>
      </trkpt>
      <trkpt lat="38.38226" lon="-0.74836">
        <ele>215.6</ele>
        <time>2022-10-15 15:58:31</time>
      </trkpt>
      <trkpt lat="38.3823" lon="-0.74828">
        <ele>215.6</ele>
        <time>2022-10-15 15:58:33</time>
      </trkpt>
      <trkpt lat="38.38236" lon="-0.74822">
        <ele>215.4</ele>
        <time>2022-10-15 15:58:35</time>
      </trkpt>
      <trkpt lat="38.38242" lon="-0.74816">
        <ele>215.4</ele>
        <time>2022-10-15 15:58:37</time>
      </trkpt>
      <trkpt lat="38.38245" lon="-0.74813">
        <ele>215.2</ele>
        <time>2022-10-15 15:58:38</time>
      </trkpt>
      <trkpt lat="38.38248" lon="-0.74809">
        <ele>215.2</ele>
        <time>2022-10-15 15:58:39</time>
      </trkpt>
      <trkpt lat="38.38254" lon="-0.74801">
        <ele>215</ele>
        <time>2022-10-15 15:58:41</time>
      </trkpt>
      <trkpt lat="38.38259" lon="-0.74793">
        <ele>215</ele>
        <time>2022-10-15 15:58:43</time>
      </trkpt>
      <trkpt lat="38.38262" lon="-0.74788">
        <ele>214.8</ele>
        <time>2022-10-15 15:58:44</time>
      </trkpt>
      <trkpt lat="38.38264" lon="-0.74784">
        <ele>214.8</ele>
        <time>2022-10-15 15:58:45</time>
      </trkpt>
      <trkpt lat="38.38269" lon="-0.74776">
        <ele>214.8</ele>
        <time>2022-10-15 15:58:47</time>
      </trkpt>
      <trkpt lat="38.38275" lon="-0.74768">
        <ele>214.8</ele>
        <time>2022-10-15 15:58:49</time>
      </trkpt>
      <trkpt lat="38.38283" lon="-0.74756">
        <ele>214.6</ele>
        <time>2022-10-15 15:58:51</time>
      </trkpt>
      <trkpt lat="38.38287" lon="-0.74747">
        <ele>214.6</ele>
        <time>2022-10-15 15:58:53</time>
      </trkpt>
      <trkpt lat="38.38291" lon="-0.74739">
        <ele>214.6</ele>
        <time>2022-10-15 15:58:55</time>
      </trkpt>
      <trkpt lat="38.38294" lon="-0.7473">
        <ele>214.6</ele>
        <time>2022-10-15 15:58:57</time>
      </trkpt>
      <trkpt lat="38.38297" lon="-0.74721">
        <ele>214.6</ele>
        <time>2022-10-15 15:58:59</time>
      </trkpt>
      <trkpt lat="38.38299" lon="-0.74716">
        <ele>214.8</ele>
        <time>2022-10-15 15:59:00</time>
      </trkpt>
      <trkpt lat="38.38302" lon="-0.74713">
        <ele>214.8</ele>
        <time>2022-10-15 15:59:01</time>
      </trkpt>
      <trkpt lat="38.38308" lon="-0.74706">
        <ele>214.8</ele>
        <time>2022-10-15 15:59:03</time>
      </trkpt>
      <trkpt lat="38.38311" lon="-0.74702">
        <ele>214.8</ele>
        <time>2022-10-15 15:59:04</time>
      </trkpt>
      <trkpt lat="38.38314" lon="-0.74697">
        <ele>214.8</ele>
        <time>2022-10-15 15:59:05</time>
      </trkpt>
      <trkpt lat="38.3832" lon="-0.74688">
        <ele>214.6</ele>
        <time>2022-10-15 15:59:07</time>
      </trkpt>
      <trkpt lat="38.38323" lon="-0.74678">
        <ele>214.6</ele>
        <time>2022-10-15 15:59:09</time>
      </trkpt>
      <trkpt lat="38.38325" lon="-0.74668">
        <ele>214.4</ele>
        <time>2022-10-15 15:59:11</time>
      </trkpt>
      <trkpt lat="38.38325" lon="-0.7466">
        <ele>214.4</ele>
        <time>2022-10-15 15:59:13</time>
      </trkpt>
      <trkpt lat="38.38324" lon="-0.74653">
        <ele>214.2</ele>
        <time>2022-10-15 15:59:15</time>
      </trkpt>
      <trkpt lat="38.38323" lon="-0.74645">
        <ele>214</ele>
        <time>2022-10-15 15:59:17</time>
      </trkpt>
      <trkpt lat="38.38322" lon="-0.74637">
        <ele>214</ele>
        <time>2022-10-15 15:59:19</time>
      </trkpt>
      <trkpt lat="38.38321" lon="-0.74629">
        <ele>214</ele>
        <time>2022-10-15 15:59:21</time>
      </trkpt>
      <trkpt lat="38.38321" lon="-0.74622">
        <ele>214</ele>
        <time>2022-10-15 15:59:23</time>
      </trkpt>
      <trkpt lat="38.38321" lon="-0.74614">
        <ele>214</ele>
        <time>2022-10-15 15:59:25</time>
      </trkpt>
      <trkpt lat="38.38321" lon="-0.74607">
        <ele>214</ele>
        <time>2022-10-15 15:59:27</time>
      </trkpt>
      <trkpt lat="38.3832" lon="-0.746">
        <ele>214</ele>
        <time>2022-10-15 15:59:29</time>
      </trkpt>
      <trkpt lat="38.38318" lon="-0.74593">
        <ele>214</ele>
        <time>2022-10-15 15:59:31</time>
      </trkpt>
      <trkpt lat="38.38318" lon="-0.74593">
        <ele>214</ele>
        <time>2022-10-15 15:59:32</time>
      </trkpt>
      <trkpt lat="38.38316" lon="-0.74587">
        <ele>214</ele>
        <time>2022-10-15 15:59:33</time>
      </trkpt>
      <trkpt lat="38.38315" lon="-0.7458">
        <ele>214</ele>
        <time>2022-10-15 15:59:35</time>
      </trkpt>
      <trkpt lat="38.38315" lon="-0.74576">
        <ele>214</ele>
        <time>2022-10-15 15:59:36</time>
      </trkpt>
      <trkpt lat="38.38313" lon="-0.74572">
        <ele>214</ele>
        <time>2022-10-15 15:59:37</time>
      </trkpt>
      <trkpt lat="38.38309" lon="-0.74565">
        <ele>214</ele>
        <time>2022-10-15 15:59:39</time>
      </trkpt>
      <trkpt lat="38.38306" lon="-0.74558">
        <ele>214</ele>
        <time>2022-10-15 15:59:41</time>
      </trkpt>
      <trkpt lat="38.38305" lon="-0.74549">
        <ele>214</ele>
        <time>2022-10-15 15:59:43</time>
      </trkpt>
      <trkpt lat="38.38302" lon="-0.74542">
        <ele>214</ele>
        <time>2022-10-15 15:59:45</time>
      </trkpt>
      <trkpt lat="38.383" lon="-0.74539">
        <ele>214</ele>
        <time>2022-10-15 15:59:46</time>
      </trkpt>
      <trkpt lat="38.38297" lon="-0.74536">
        <ele>214</ele>
        <time>2022-10-15 15:59:47</time>
      </trkpt>
      <trkpt lat="38.38291" lon="-0.74531">
        <ele>214</ele>
        <time>2022-10-15 15:59:49</time>
      </trkpt>
      <trkpt lat="38.38284" lon="-0.74525">
        <ele>213.8</ele>
        <time>2022-10-15 15:59:51</time>
      </trkpt>
      <trkpt lat="38.38281" lon="-0.74522">
        <ele>213.8</ele>
        <time>2022-10-15 15:59:52</time>
      </trkpt>
      <trkpt lat="38.38277" lon="-0.7452">
        <ele>213.6</ele>
        <time>2022-10-15 15:59:53</time>
      </trkpt>
      <trkpt lat="38.38271" lon="-0.74513">
        <ele>213.6</ele>
        <time>2022-10-15 15:59:55</time>
      </trkpt>
      <trkpt lat="38.38267" lon="-0.74506">
        <ele>213.4</ele>
        <time>2022-10-15 15:59:57</time>
      </trkpt>
      <trkpt lat="38.38264" lon="-0.74503">
        <ele>213.4</ele>
        <time>2022-10-15 15:59:58</time>
      </trkpt>
      <trkpt lat="38.38261" lon="-0.745">
        <ele>213.4</ele>
        <time>2022-10-15 15:59:59</time>
      </trkpt>
      <trkpt lat="38.38256" lon="-0.74495">
        <ele>213.4</ele>
        <time>2022-10-15 16:00:01</time>
      </trkpt>
      <trkpt lat="38.3825" lon="-0.7449">
        <ele>213.4</ele>
        <time>2022-10-15 16:00:03</time>
      </trkpt>
      <trkpt lat="38.38245" lon="-0.74486">
        <ele>213.4</ele>
        <time>2022-10-15 16:00:05</time>
      </trkpt>
      <trkpt lat="38.38242" lon="-0.74484">
        <ele>213.4</ele>
        <time>2022-10-15 16:00:06</time>
      </trkpt>
      <trkpt lat="38.38239" lon="-0.74482">
        <ele>213.4</ele>
        <time>2022-10-15 16:00:07</time>
      </trkpt>
      <trkpt lat="38.38233" lon="-0.74476">
        <ele>213.2</ele>
        <time>2022-10-15 16:00:09</time>
      </trkpt>
      <trkpt lat="38.38229" lon="-0.74473">
        <ele>213.2</ele>
        <time>2022-10-15 16:00:10</time>
      </trkpt>
      <trkpt lat="38.38226" lon="-0.7447">
        <ele>213.2</ele>
        <time>2022-10-15 16:00:11</time>
      </trkpt>
      <trkpt lat="38.38218" lon="-0.74465">
        <ele>213</ele>
        <time>2022-10-15 16:00:13</time>
      </trkpt>
      <trkpt lat="38.38211" lon="-0.7446">
        <ele>212.8</ele>
        <time>2022-10-15 16:00:15</time>
      </trkpt>
      <trkpt lat="38.38207" lon="-0.74458">
        <ele>212.8</ele>
        <time>2022-10-15 16:00:16</time>
      </trkpt>
      <trkpt lat="38.38203" lon="-0.74456">
        <ele>212.8</ele>
        <time>2022-10-15 16:00:17</time>
      </trkpt>
      <trkpt lat="38.38197" lon="-0.74451">
        <ele>212.6</ele>
        <time>2022-10-15 16:00:19</time>
      </trkpt>
      <trkpt lat="38.3819" lon="-0.74445">
        <ele>212.6</ele>
        <time>2022-10-15 16:00:21</time>
      </trkpt>
      <trkpt lat="38.38183" lon="-0.74439">
        <ele>212.6</ele>
        <time>2022-10-15 16:00:23</time>
      </trkpt>
      <trkpt lat="38.38175" lon="-0.74435">
        <ele>212.4</ele>
        <time>2022-10-15 16:00:25</time>
      </trkpt>
      <trkpt lat="38.38166" lon="-0.74431">
        <ele>212.4</ele>
        <time>2022-10-15 16:00:27</time>
      </trkpt>
      <trkpt lat="38.38157" lon="-0.74426">
        <ele>212.4</ele>
        <time>2022-10-15 16:00:29</time>
      </trkpt>
      <trkpt lat="38.3815" lon="-0.7442">
        <ele>212.4</ele>
        <time>2022-10-15 16:00:31</time>
      </trkpt>
      <trkpt lat="38.3815" lon="-0.7442">
        <ele>212.4</ele>
        <time>2022-10-15 16:00:32</time>
      </trkpt>
      <trkpt lat="38.38142" lon="-0.74413">
        <ele>212.2</ele>
        <time>2022-10-15 16:00:33</time>
      </trkpt>
      <trkpt lat="38.38138" lon="-0.7441">
        <ele>212.2</ele>
        <time>2022-10-15 16:00:34</time>
      </trkpt>
      <trkpt lat="38.38135" lon="-0.74407">
        <ele>212.2</ele>
        <time>2022-10-15 16:00:35</time>
      </trkpt>
      <trkpt lat="38.38129" lon="-0.74401">
        <ele>212.4</ele>
        <time>2022-10-15 16:00:37</time>
      </trkpt>
      <trkpt lat="38.38123" lon="-0.74396">
        <ele>212.4</ele>
        <time>2022-10-15 16:00:39</time>
      </trkpt>
      <trkpt lat="38.38118" lon="-0.74391">
        <ele>212.4</ele>
        <time>2022-10-15 16:00:41</time>
      </trkpt>
      <trkpt lat="38.38113" lon="-0.74388">
        <ele>212.4</ele>
        <time>2022-10-15 16:00:43</time>
      </trkpt>
      <trkpt lat="38.3811" lon="-0.74384">
        <ele>213</ele>
        <time>2022-10-15 16:00:45</time>
      </trkpt>
      <trkpt lat="38.38108" lon="-0.74378">
        <ele>213</ele>
        <time>2022-10-15 16:00:47</time>
      </trkpt>
      <trkpt lat="38.38106" lon="-0.74371">
        <ele>213.2</ele>
        <time>2022-10-15 16:00:49</time>
      </trkpt>
      <trkpt lat="38.38106" lon="-0.74371">
        <ele>213.4</ele>
        <time>2022-10-15 16:00:50</time>
      </trkpt>
      <trkpt lat="38.38103" lon="-0.74365">
        <ele>213.4</ele>
        <time>2022-10-15 16:00:51</time>
      </trkpt>
      <trkpt lat="38.38099" lon="-0.74358">
        <ele>213.6</ele>
        <time>2022-10-15 16:00:53</time>
      </trkpt>
      <trkpt lat="38.38097" lon="-0.74355">
        <ele>213.6</ele>
        <time>2022-10-15 16:00:54</time>
      </trkpt>
      <trkpt lat="38.38095" lon="-0.74351">
        <ele>213.6</ele>
        <time>2022-10-15 16:00:55</time>
      </trkpt>
      <trkpt lat="38.38095" lon="-0.74351">
        <ele>213.6</ele>
        <time>2022-10-15 16:00:56</time>
      </trkpt>
      <trkpt lat="38.38092" lon="-0.74343">
        <ele>213.6</ele>
        <time>2022-10-15 16:00:57</time>
      </trkpt>
      <trkpt lat="38.38088" lon="-0.74336">
        <ele>213.6</ele>
        <time>2022-10-15 16:00:59</time>
      </trkpt>
      <trkpt lat="38.38083" lon="-0.74328">
        <ele>213.6</ele>
        <time>2022-10-15 16:01:01</time>
      </trkpt>
      <trkpt lat="38.38083" lon="-0.74328">
        <ele>213.6</ele>
        <time>2022-10-15 16:01:02</time>
      </trkpt>
      <trkpt lat="38.3808" lon="-0.7432">
        <ele>213.6</ele>
        <time>2022-10-15 16:01:03</time>
      </trkpt>
      <trkpt lat="38.38078" lon="-0.74316">
        <ele>213.6</ele>
        <time>2022-10-15 16:01:04</time>
      </trkpt>
      <trkpt lat="38.38076" lon="-0.74312">
        <ele>213.6</ele>
        <time>2022-10-15 16:01:05</time>
      </trkpt>
      <trkpt lat="38.38075" lon="-0.74308">
        <ele>213.6</ele>
        <time>2022-10-15 16:01:06</time>
      </trkpt>
      <trkpt lat="38.38073" lon="-0.74304">
        <ele>213.6</ele>
        <time>2022-10-15 16:01:07</time>
      </trkpt>
      <trkpt lat="38.38073" lon="-0.74304">
        <ele>213.6</ele>
        <time>2022-10-15 16:01:08</time>
      </trkpt>
      <trkpt lat="38.38071" lon="-0.74294">
        <ele>213.6</ele>
        <time>2022-10-15 16:01:09</time>
      </trkpt>
      <trkpt lat="38.3807" lon="-0.74289">
        <ele>213.6</ele>
        <time>2022-10-15 16:01:10</time>
      </trkpt>
      <trkpt lat="38.38069" lon="-0.74283">
        <ele>213.6</ele>
        <time>2022-10-15 16:01:11</time>
      </trkpt>
      <trkpt lat="38.38069" lon="-0.74278">
        <ele>213.6</ele>
        <time>2022-10-15 16:01:12</time>
      </trkpt>
      <trkpt lat="38.38069" lon="-0.74272">
        <ele>213.6</ele>
        <time>2022-10-15 16:01:14</time>
      </trkpt>
      <trkpt lat="38.3807" lon="-0.7426">
        <ele>213.8</ele>
        <time>2022-10-15 16:01:15</time>
      </trkpt>
      <trkpt lat="38.3807" lon="-0.74253">
        <ele>213.6</ele>
        <time>2022-10-15 16:01:16</time>
      </trkpt>
      <trkpt lat="38.38071" lon="-0.74247">
        <ele>213.6</ele>
        <time>2022-10-15 16:01:17</time>
      </trkpt>
      <trkpt lat="38.38071" lon="-0.74236">
        <ele>213.4</ele>
        <time>2022-10-15 16:01:19</time>
      </trkpt>
      <trkpt lat="38.38071" lon="-0.74236">
        <ele>213.4</ele>
        <time>2022-10-15 16:01:20</time>
      </trkpt>
      <trkpt lat="38.38072" lon="-0.74224">
        <ele>213.4</ele>
        <time>2022-10-15 16:01:21</time>
      </trkpt>
      <trkpt lat="38.38075" lon="-0.74213">
        <ele>213.2</ele>
        <time>2022-10-15 16:01:23</time>
      </trkpt>
      <trkpt lat="38.38076" lon="-0.74207">
        <ele>213.2</ele>
        <time>2022-10-15 16:01:24</time>
      </trkpt>
      <trkpt lat="38.38077" lon="-0.74201">
        <ele>213.2</ele>
        <time>2022-10-15 16:01:25</time>
      </trkpt>
      <trkpt lat="38.38077" lon="-0.74201">
        <ele>213.2</ele>
        <time>2022-10-15 16:01:26</time>
      </trkpt>
      <trkpt lat="38.3808" lon="-0.74183">
        <ele>213.2</ele>
        <time>2022-10-15 16:01:28</time>
      </trkpt>
      <trkpt lat="38.38081" lon="-0.74177">
        <ele>213.2</ele>
        <time>2022-10-15 16:01:29</time>
      </trkpt>
      <trkpt lat="38.38081" lon="-0.7417">
        <ele>213.2</ele>
        <time>2022-10-15 16:01:30</time>
      </trkpt>
      <trkpt lat="38.38082" lon="-0.74164">
        <ele>213.2</ele>
        <time>2022-10-15 16:01:31</time>
      </trkpt>
      <trkpt lat="38.38082" lon="-0.74164">
        <ele>213.4</ele>
        <time>2022-10-15 16:01:32</time>
      </trkpt>
      <trkpt lat="38.38083" lon="-0.74151">
        <ele>213.4</ele>
        <time>2022-10-15 16:01:33</time>
      </trkpt>
      <trkpt lat="38.38083" lon="-0.74151">
        <ele>213.4</ele>
        <time>2022-10-15 16:01:34</time>
      </trkpt>
      <trkpt lat="38.38083" lon="-0.74145">
        <ele>213.4</ele>
        <time>2022-10-15 16:01:35</time>
      </trkpt>
      <trkpt lat="38.38082" lon="-0.74138">
        <ele>213.4</ele>
        <time>2022-10-15 16:01:36</time>
      </trkpt>
      <trkpt lat="38.38081" lon="-0.74131">
        <ele>213.4</ele>
        <time>2022-10-15 16:01:37</time>
      </trkpt>
      <trkpt lat="38.38079" lon="-0.74125">
        <ele>213.4</ele>
        <time>2022-10-15 16:01:38</time>
      </trkpt>
      <trkpt lat="38.38078" lon="-0.74118">
        <ele>213.4</ele>
        <time>2022-10-15 16:01:39</time>
      </trkpt>
      <trkpt lat="38.38076" lon="-0.74112">
        <ele>213.4</ele>
        <time>2022-10-15 16:01:40</time>
      </trkpt>
      <trkpt lat="38.38074" lon="-0.74105">
        <ele>213.4</ele>
        <time>2022-10-15 16:01:41</time>
      </trkpt>
      <trkpt lat="38.38071" lon="-0.74093">
        <ele>213.2</ele>
        <time>2022-10-15 16:01:43</time>
      </trkpt>
      <trkpt lat="38.3807" lon="-0.74086">
        <ele>213.2</ele>
        <time>2022-10-15 16:01:44</time>
      </trkpt>
      <trkpt lat="38.38069" lon="-0.7408">
        <ele>213.2</ele>
        <time>2022-10-15 16:01:45</time>
      </trkpt>
      <trkpt lat="38.38069" lon="-0.74073">
        <ele>213</ele>
        <time>2022-10-15 16:01:46</time>
      </trkpt>
      <trkpt lat="38.38069" lon="-0.7406">
        <ele>213</ele>
        <time>2022-10-15 16:01:48</time>
      </trkpt>
      <trkpt lat="38.38069" lon="-0.74053">
        <ele>212.8</ele>
        <time>2022-10-15 16:01:49</time>
      </trkpt>
      <trkpt lat="38.38068" lon="-0.74039">
        <ele>212.8</ele>
        <time>2022-10-15 16:01:51</time>
      </trkpt>
      <trkpt lat="38.38068" lon="-0.74033">
        <ele>212.6</ele>
        <time>2022-10-15 16:01:52</time>
      </trkpt>
      <trkpt lat="38.38067" lon="-0.74026">
        <ele>212.6</ele>
        <time>2022-10-15 16:01:53</time>
      </trkpt>
      <trkpt lat="38.38066" lon="-0.7402">
        <ele>212.6</ele>
        <time>2022-10-15 16:01:54</time>
      </trkpt>
      <trkpt lat="38.38063" lon="-0.74007">
        <ele>212.6</ele>
        <time>2022-10-15 16:01:56</time>
      </trkpt>
      <trkpt lat="38.3806" lon="-0.73995">
        <ele>212.6</ele>
        <time>2022-10-15 16:01:57</time>
      </trkpt>
      <trkpt lat="38.38057" lon="-0.73989">
        <ele>212.4</ele>
        <time>2022-10-15 16:01:58</time>
      </trkpt>
      <trkpt lat="38.38055" lon="-0.73983">
        <ele>212.4</ele>
        <time>2022-10-15 16:01:59</time>
      </trkpt>
      <trkpt lat="38.38054" lon="-0.73977">
        <ele>212.2</ele>
        <time>2022-10-15 16:02:00</time>
      </trkpt>
      <trkpt lat="38.38052" lon="-0.73971">
        <ele>212</ele>
        <time>2022-10-15 16:02:02</time>
      </trkpt>
      <trkpt lat="38.38049" lon="-0.73959">
        <ele>212</ele>
        <time>2022-10-15 16:02:03</time>
      </trkpt>
      <trkpt lat="38.38047" lon="-0.73953">
        <ele>211.8</ele>
        <time>2022-10-15 16:02:04</time>
      </trkpt>
      <trkpt lat="38.38046" lon="-0.73947">
        <ele>211.8</ele>
        <time>2022-10-15 16:02:05</time>
      </trkpt>
      <trkpt lat="38.38043" lon="-0.73934">
        <ele>211.8</ele>
        <time>2022-10-15 16:02:07</time>
      </trkpt>
      <trkpt lat="38.38043" lon="-0.73934">
        <ele>211.8</ele>
        <time>2022-10-15 16:02:08</time>
      </trkpt>
      <trkpt lat="38.3804" lon="-0.73921">
        <ele>211.8</ele>
        <time>2022-10-15 16:02:09</time>
      </trkpt>
      <trkpt lat="38.38039" lon="-0.73914">
        <ele>211.6</ele>
        <time>2022-10-15 16:02:10</time>
      </trkpt>
      <trkpt lat="38.38038" lon="-0.73907">
        <ele>211.6</ele>
        <time>2022-10-15 16:02:11</time>
      </trkpt>
      <trkpt lat="38.38038" lon="-0.73899">
        <ele>211.6</ele>
        <time>2022-10-15 16:02:12</time>
      </trkpt>
      <trkpt lat="38.38037" lon="-0.73892">
        <ele>211.6</ele>
        <time>2022-10-15 16:02:13</time>
      </trkpt>
      <trkpt lat="38.38037" lon="-0.73892">
        <ele>211.4</ele>
        <time>2022-10-15 16:02:14</time>
      </trkpt>
      <trkpt lat="38.38037" lon="-0.73878">
        <ele>211.4</ele>
        <time>2022-10-15 16:02:15</time>
      </trkpt>
      <trkpt lat="38.38036" lon="-0.73871">
        <ele>211.2</ele>
        <time>2022-10-15 16:02:16</time>
      </trkpt>
      <trkpt lat="38.38036" lon="-0.73858">
        <ele>211.2</ele>
        <time>2022-10-15 16:02:18</time>
      </trkpt>
      <trkpt lat="38.38036" lon="-0.73851">
        <ele>211</ele>
        <time>2022-10-15 16:02:20</time>
      </trkpt>
      <trkpt lat="38.38034" lon="-0.7383">
        <ele>210.8</ele>
        <time>2022-10-15 16:02:22</time>
      </trkpt>
      <trkpt lat="38.38033" lon="-0.7381">
        <ele>210.6</ele>
        <time>2022-10-15 16:02:25</time>
      </trkpt>
      <trkpt lat="38.38033" lon="-0.7381">
        <ele>210.6</ele>
        <time>2022-10-15 16:02:26</time>
      </trkpt>
      <trkpt lat="38.38032" lon="-0.73797">
        <ele>210.6</ele>
        <time>2022-10-15 16:02:27</time>
      </trkpt>
      <trkpt lat="38.38031" lon="-0.7379">
        <ele>210.6</ele>
        <time>2022-10-15 16:02:28</time>
      </trkpt>
      <trkpt lat="38.38031" lon="-0.73784">
        <ele>210.4</ele>
        <time>2022-10-15 16:02:29</time>
      </trkpt>
      <trkpt lat="38.38031" lon="-0.73778">
        <ele>210.4</ele>
        <time>2022-10-15 16:02:30</time>
      </trkpt>
      <trkpt lat="38.38031" lon="-0.73772">
        <ele>210.4</ele>
        <time>2022-10-15 16:02:31</time>
      </trkpt>
      <trkpt lat="38.38031" lon="-0.73772">
        <ele>210.4</ele>
        <time>2022-10-15 16:02:32</time>
      </trkpt>
      <trkpt lat="38.38031" lon="-0.73747">
        <ele>210.2</ele>
        <time>2022-10-15 16:02:35</time>
      </trkpt>
      <trkpt lat="38.38031" lon="-0.73741">
        <ele>210.2</ele>
        <time>2022-10-15 16:02:36</time>
      </trkpt>
      <trkpt lat="38.38031" lon="-0.73735">
        <ele>210</ele>
        <time>2022-10-15 16:02:37</time>
      </trkpt>
      <trkpt lat="38.38032" lon="-0.73717">
        <ele>210</ele>
        <time>2022-10-15 16:02:40</time>
      </trkpt>
      <trkpt lat="38.38033" lon="-0.73706">
        <ele>210.2</ele>
        <time>2022-10-15 16:02:42</time>
      </trkpt>
      <trkpt lat="38.38033" lon="-0.73701">
        <ele>210.2</ele>
        <time>2022-10-15 16:02:44</time>
      </trkpt>
      <trkpt lat="38.38028" lon="-0.73696">
        <ele>210</ele>
        <time>2022-10-15 16:02:45</time>
      </trkpt>
      <trkpt lat="38.38025" lon="-0.73696">
        <ele>210</ele>
        <time>2022-10-15 16:02:46</time>
      </trkpt>
      <trkpt lat="38.38022" lon="-0.73699">
        <ele>209.8</ele>
        <time>2022-10-15 16:02:47</time>
      </trkpt>
      <trkpt lat="38.38015" lon="-0.73706">
        <ele>209.8</ele>
        <time>2022-10-15 16:02:49</time>
      </trkpt>
      <trkpt lat="38.38015" lon="-0.73706">
        <ele>210</ele>
        <time>2022-10-15 16:02:50</time>
      </trkpt>
      <trkpt lat="38.38008" lon="-0.7371">
        <ele>210</ele>
        <time>2022-10-15 16:02:51</time>
      </trkpt>
      <trkpt lat="38.38003" lon="-0.73711">
        <ele>209.8</ele>
        <time>2022-10-15 16:02:52</time>
      </trkpt>
      <trkpt lat="38.37999" lon="-0.73712">
        <ele>209.8</ele>
        <time>2022-10-15 16:02:53</time>
      </trkpt>
      <trkpt lat="38.37994" lon="-0.73712">
        <ele>209.8</ele>
        <time>2022-10-15 16:02:54</time>
      </trkpt>
      <trkpt lat="38.3799" lon="-0.73713">
        <ele>209.4</ele>
        <time>2022-10-15 16:02:55</time>
      </trkpt>
      <trkpt lat="38.3799" lon="-0.73713">
        <ele>209.2</ele>
        <time>2022-10-15 16:02:56</time>
      </trkpt>
      <trkpt lat="38.3798" lon="-0.73714">
        <ele>209</ele>
        <time>2022-10-15 16:02:57</time>
      </trkpt>
      <trkpt lat="38.37971" lon="-0.73718">
        <ele>208.4</ele>
        <time>2022-10-15 16:02:59</time>
      </trkpt>
      <trkpt lat="38.37962" lon="-0.73723">
        <ele>208.2</ele>
        <time>2022-10-15 16:03:01</time>
      </trkpt>
      <trkpt lat="38.37962" lon="-0.73723">
        <ele>208.2</ele>
        <time>2022-10-15 16:03:02</time>
      </trkpt>
      <trkpt lat="38.37949" lon="-0.7373">
        <ele>208</ele>
        <time>2022-10-15 16:03:04</time>
      </trkpt>
      <trkpt lat="38.37941" lon="-0.73734">
        <ele>207.8</ele>
        <time>2022-10-15 16:03:06</time>
      </trkpt>
      <trkpt lat="38.37936" lon="-0.73736">
        <ele>207.6</ele>
        <time>2022-10-15 16:03:07</time>
      </trkpt>
      <trkpt lat="38.37927" lon="-0.73741">
        <ele>207.6</ele>
        <time>2022-10-15 16:03:09</time>
      </trkpt>
      <trkpt lat="38.37922" lon="-0.73743">
        <ele>207.4</ele>
        <time>2022-10-15 16:03:10</time>
      </trkpt>
      <trkpt lat="38.37912" lon="-0.73745">
        <ele>207.4</ele>
        <time>2022-10-15 16:03:12</time>
      </trkpt>
      <trkpt lat="38.37907" lon="-0.73746">
        <ele>207.2</ele>
        <time>2022-10-15 16:03:13</time>
      </trkpt>
      <trkpt lat="38.37907" lon="-0.73746">
        <ele>207.2</ele>
        <time>2022-10-15 16:03:14</time>
      </trkpt>
      <trkpt lat="38.37891" lon="-0.73746">
        <ele>207.2</ele>
        <time>2022-10-15 16:03:16</time>
      </trkpt>
      <trkpt lat="38.37881" lon="-0.73748">
        <ele>207</ele>
        <time>2022-10-15 16:03:18</time>
      </trkpt>
      <trkpt lat="38.37876" lon="-0.7375">
        <ele>207</ele>
        <time>2022-10-15 16:03:19</time>
      </trkpt>
      <trkpt lat="38.37876" lon="-0.7375">
        <ele>207</ele>
        <time>2022-10-15 16:03:20</time>
      </trkpt>
      <trkpt lat="38.37867" lon="-0.73755">
        <ele>207</ele>
        <time>2022-10-15 16:03:21</time>
      </trkpt>
      <trkpt lat="38.37853" lon="-0.73763">
        <ele>206.8</ele>
        <time>2022-10-15 16:03:24</time>
      </trkpt>
      <trkpt lat="38.37848" lon="-0.73765">
        <ele>206.8</ele>
        <time>2022-10-15 16:03:26</time>
      </trkpt>
      <trkpt lat="38.37835" lon="-0.73775">
        <ele>206.8</ele>
        <time>2022-10-15 16:03:28</time>
      </trkpt>
      <trkpt lat="38.37831" lon="-0.73778">
        <ele>206.8</ele>
        <time>2022-10-15 16:03:29</time>
      </trkpt>
      <trkpt lat="38.37823" lon="-0.73785">
        <ele>206.8</ele>
        <time>2022-10-15 16:03:31</time>
      </trkpt>
      <trkpt lat="38.37812" lon="-0.73795">
        <ele>207</ele>
        <time>2022-10-15 16:03:34</time>
      </trkpt>
      <trkpt lat="38.37808" lon="-0.73796">
        <ele>207</ele>
        <time>2022-10-15 16:03:35</time>
      </trkpt>
      <trkpt lat="38.37804" lon="-0.73795">
        <ele>207</ele>
        <time>2022-10-15 16:03:36</time>
      </trkpt>
      <trkpt lat="38.37801" lon="-0.73793">
        <ele>207.6</ele>
        <time>2022-10-15 16:03:38</time>
      </trkpt>
      <trkpt lat="38.37798" lon="-0.73783">
        <ele>207.8</ele>
        <time>2022-10-15 16:03:39</time>
      </trkpt>
      <trkpt lat="38.37797" lon="-0.73778">
        <ele>207.8</ele>
        <time>2022-10-15 16:03:40</time>
      </trkpt>
      <trkpt lat="38.37795" lon="-0.73772">
        <ele>208</ele>
        <time>2022-10-15 16:03:41</time>
      </trkpt>
      <trkpt lat="38.37792" lon="-0.73761">
        <ele>208</ele>
        <time>2022-10-15 16:03:43</time>
      </trkpt>
      <trkpt lat="38.37785" lon="-0.73736">
        <ele>208</ele>
        <time>2022-10-15 16:03:47</time>
      </trkpt>
      <trkpt lat="38.37783" lon="-0.7373">
        <ele>208</ele>
        <time>2022-10-15 16:03:48</time>
      </trkpt>
      <trkpt lat="38.37781" lon="-0.73723">
        <ele>208.2</ele>
        <time>2022-10-15 16:03:49</time>
      </trkpt>
      <trkpt lat="38.37774" lon="-0.73704">
        <ele>208</ele>
        <time>2022-10-15 16:03:52</time>
      </trkpt>
      <trkpt lat="38.37769" lon="-0.73691">
        <ele>207.8</ele>
        <time>2022-10-15 16:03:54</time>
      </trkpt>
      <trkpt lat="38.37766" lon="-0.73685">
        <ele>207.6</ele>
        <time>2022-10-15 16:03:55</time>
      </trkpt>
      <trkpt lat="38.37766" lon="-0.73685">
        <ele>207.6</ele>
        <time>2022-10-15 16:03:56</time>
      </trkpt>
      <trkpt lat="38.37752" lon="-0.73662">
        <ele>206.8</ele>
        <time>2022-10-15 16:03:59</time>
      </trkpt>
      <trkpt lat="38.37745" lon="-0.73649">
        <ele>206.6</ele>
        <time>2022-10-15 16:04:01</time>
      </trkpt>
      <trkpt lat="38.3774" lon="-0.73637">
        <ele>206.4</ele>
        <time>2022-10-15 16:04:03</time>
      </trkpt>
      <trkpt lat="38.37737" lon="-0.7363">
        <ele>206.4</ele>
        <time>2022-10-15 16:04:04</time>
      </trkpt>
      <trkpt lat="38.37734" lon="-0.73623">
        <ele>206.4</ele>
        <time>2022-10-15 16:04:05</time>
      </trkpt>
      <trkpt lat="38.37729" lon="-0.73609">
        <ele>206.2</ele>
        <time>2022-10-15 16:04:07</time>
      </trkpt>
      <trkpt lat="38.37724" lon="-0.73595">
        <ele>206</ele>
        <time>2022-10-15 16:04:09</time>
      </trkpt>
      <trkpt lat="38.37722" lon="-0.73587">
        <ele>206</ele>
        <time>2022-10-15 16:04:10</time>
      </trkpt>
      <trkpt lat="38.37719" lon="-0.7358">
        <ele>205.8</ele>
        <time>2022-10-15 16:04:11</time>
      </trkpt>
      <trkpt lat="38.37714" lon="-0.73566">
        <ele>205.8</ele>
        <time>2022-10-15 16:04:13</time>
      </trkpt>
      <trkpt lat="38.37708" lon="-0.73552">
        <ele>205.6</ele>
        <time>2022-10-15 16:04:15</time>
      </trkpt>
      <trkpt lat="38.37705" lon="-0.73545">
        <ele>205.6</ele>
        <time>2022-10-15 16:04:16</time>
      </trkpt>
      <trkpt lat="38.37702" lon="-0.73538">
        <ele>205.6</ele>
        <time>2022-10-15 16:04:17</time>
      </trkpt>
      <trkpt lat="38.37699" lon="-0.73531">
        <ele>205.6</ele>
        <time>2022-10-15 16:04:18</time>
      </trkpt>
      <trkpt lat="38.37696" lon="-0.73524">
        <ele>205.8</ele>
        <time>2022-10-15 16:04:19</time>
      </trkpt>
      <trkpt lat="38.37691" lon="-0.7351">
        <ele>205.8</ele>
        <time>2022-10-15 16:04:21</time>
      </trkpt>
      <trkpt lat="38.37687" lon="-0.73495">
        <ele>206</ele>
        <time>2022-10-15 16:04:23</time>
      </trkpt>
      <trkpt lat="38.37682" lon="-0.7348">
        <ele>205.8</ele>
        <time>2022-10-15 16:04:25</time>
      </trkpt>
      <trkpt lat="38.37682" lon="-0.7348">
        <ele>205.8</ele>
        <time>2022-10-15 16:04:26</time>
      </trkpt>
      <trkpt lat="38.37677" lon="-0.73464">
        <ele>205.8</ele>
        <time>2022-10-15 16:04:27</time>
      </trkpt>
      <trkpt lat="38.37674" lon="-0.73456">
        <ele>205.6</ele>
        <time>2022-10-15 16:04:28</time>
      </trkpt>
      <trkpt lat="38.37672" lon="-0.73448">
        <ele>205.6</ele>
        <time>2022-10-15 16:04:29</time>
      </trkpt>
      <trkpt lat="38.3767" lon="-0.7344">
        <ele>205.6</ele>
        <time>2022-10-15 16:04:30</time>
      </trkpt>
      <trkpt lat="38.37669" lon="-0.73433">
        <ele>205.6</ele>
        <time>2022-10-15 16:04:31</time>
      </trkpt>
      <trkpt lat="38.37669" lon="-0.73433">
        <ele>205.6</ele>
        <time>2022-10-15 16:04:32</time>
      </trkpt>
      <trkpt lat="38.37665" lon="-0.73417">
        <ele>205.6</ele>
        <time>2022-10-15 16:04:33</time>
      </trkpt>
      <trkpt lat="38.37664" lon="-0.73409">
        <ele>205.4</ele>
        <time>2022-10-15 16:04:34</time>
      </trkpt>
      <trkpt lat="38.37662" lon="-0.73401">
        <ele>205.2</ele>
        <time>2022-10-15 16:04:35</time>
      </trkpt>
      <trkpt lat="38.37661" lon="-0.73393">
        <ele>205</ele>
        <time>2022-10-15 16:04:36</time>
      </trkpt>
      <trkpt lat="38.37659" lon="-0.73385">
        <ele>204.8</ele>
        <time>2022-10-15 16:04:37</time>
      </trkpt>
      <trkpt lat="38.37655" lon="-0.7337">
        <ele>204.6</ele>
        <time>2022-10-15 16:04:39</time>
      </trkpt>
      <trkpt lat="38.37654" lon="-0.73362">
        <ele>204.6</ele>
        <time>2022-10-15 16:04:40</time>
      </trkpt>
      <trkpt lat="38.37652" lon="-0.73355">
        <ele>204.6</ele>
        <time>2022-10-15 16:04:41</time>
      </trkpt>
      <trkpt lat="38.37651" lon="-0.73347">
        <ele>204.4</ele>
        <time>2022-10-15 16:04:42</time>
      </trkpt>
      <trkpt lat="38.37649" lon="-0.73339">
        <ele>204.4</ele>
        <time>2022-10-15 16:04:43</time>
      </trkpt>
      <trkpt lat="38.37643" lon="-0.73326">
        <ele>204.2</ele>
        <time>2022-10-15 16:04:45</time>
      </trkpt>
      <trkpt lat="38.37639" lon="-0.73312">
        <ele>204</ele>
        <time>2022-10-15 16:04:47</time>
      </trkpt>
      <trkpt lat="38.37639" lon="-0.73305">
        <ele>203.8</ele>
        <time>2022-10-15 16:04:48</time>
      </trkpt>
      <trkpt lat="38.3764" lon="-0.73299">
        <ele>203.8</ele>
        <time>2022-10-15 16:04:50</time>
      </trkpt>
      <trkpt lat="38.37647" lon="-0.7329">
        <ele>203.8</ele>
        <time>2022-10-15 16:04:51</time>
      </trkpt>
      <trkpt lat="38.37651" lon="-0.73287">
        <ele>203.8</ele>
        <time>2022-10-15 16:04:52</time>
      </trkpt>
      <trkpt lat="38.37661" lon="-0.73283">
        <ele>203.8</ele>
        <time>2022-10-15 16:04:54</time>
      </trkpt>
      <trkpt lat="38.37675" lon="-0.73277">
        <ele>203.8</ele>
        <time>2022-10-15 16:04:57</time>
      </trkpt>
      <trkpt lat="38.37685" lon="-0.73273">
        <ele>204</ele>
        <time>2022-10-15 16:04:59</time>
      </trkpt>
      <trkpt lat="38.37695" lon="-0.73269">
        <ele>204.2</ele>
        <time>2022-10-15 16:05:01</time>
      </trkpt>
      <trkpt lat="38.37709" lon="-0.73264">
        <ele>204.4</ele>
        <time>2022-10-15 16:05:04</time>
      </trkpt>
      <trkpt lat="38.37719" lon="-0.7326">
        <ele>204.6</ele>
        <time>2022-10-15 16:05:06</time>
      </trkpt>
      <trkpt lat="38.37724" lon="-0.73258">
        <ele>204.6</ele>
        <time>2022-10-15 16:05:08</time>
      </trkpt>
      <trkpt lat="38.37744" lon="-0.73251">
        <ele>204.6</ele>
        <time>2022-10-15 16:05:11</time>
      </trkpt>
      <trkpt lat="38.37753" lon="-0.73246">
        <ele>204.6</ele>
        <time>2022-10-15 16:05:13</time>
      </trkpt>
      <trkpt lat="38.37762" lon="-0.73241">
        <ele>204.6</ele>
        <time>2022-10-15 16:05:15</time>
      </trkpt>
      <trkpt lat="38.37771" lon="-0.73233">
        <ele>204.6</ele>
        <time>2022-10-15 16:05:17</time>
      </trkpt>
      <trkpt lat="38.37775" lon="-0.73228">
        <ele>204.4</ele>
        <time>2022-10-15 16:05:18</time>
      </trkpt>
      <trkpt lat="38.37777" lon="-0.73222">
        <ele>204.4</ele>
        <time>2022-10-15 16:05:20</time>
      </trkpt>
      <trkpt lat="38.37779" lon="-0.73209">
        <ele>204.4</ele>
        <time>2022-10-15 16:05:21</time>
      </trkpt>
      <trkpt lat="38.37777" lon="-0.73202">
        <ele>204.4</ele>
        <time>2022-10-15 16:05:22</time>
      </trkpt>
      <trkpt lat="38.37772" lon="-0.73191">
        <ele>204.4</ele>
        <time>2022-10-15 16:05:24</time>
      </trkpt>
      <trkpt lat="38.37769" lon="-0.73185">
        <ele>204.4</ele>
        <time>2022-10-15 16:05:25</time>
      </trkpt>
      <trkpt lat="38.37769" lon="-0.73185">
        <ele>204.2</ele>
        <time>2022-10-15 16:05:26</time>
      </trkpt>
      <trkpt lat="38.37763" lon="-0.73174">
        <ele>204.2</ele>
        <time>2022-10-15 16:05:27</time>
      </trkpt>
      <trkpt lat="38.37757" lon="-0.73163">
        <ele>204</ele>
        <time>2022-10-15 16:05:29</time>
      </trkpt>
      <trkpt lat="38.37754" lon="-0.73157">
        <ele>203.6</ele>
        <time>2022-10-15 16:05:30</time>
      </trkpt>
      <trkpt lat="38.37751" lon="-0.73151">
        <ele>203.4</ele>
        <time>2022-10-15 16:05:31</time>
      </trkpt>
      <trkpt lat="38.37751" lon="-0.73151">
        <ele>203.6</ele>
        <time>2022-10-15 16:05:32</time>
      </trkpt>
      <trkpt lat="38.37742" lon="-0.73131">
        <ele>203.4</ele>
        <time>2022-10-15 16:05:34</time>
      </trkpt>
      <trkpt lat="38.37739" lon="-0.73125">
        <ele>203.4</ele>
        <time>2022-10-15 16:05:35</time>
      </trkpt>
      <trkpt lat="38.37736" lon="-0.73119">
        <ele>203.4</ele>
        <time>2022-10-15 16:05:36</time>
      </trkpt>
      <trkpt lat="38.37733" lon="-0.73112">
        <ele>203.4</ele>
        <time>2022-10-15 16:05:37</time>
      </trkpt>
      <trkpt lat="38.37733" lon="-0.73112">
        <ele>203.4</ele>
        <time>2022-10-15 16:05:38</time>
      </trkpt>
      <trkpt lat="38.37723" lon="-0.73093">
        <ele>203</ele>
        <time>2022-10-15 16:05:40</time>
      </trkpt>
      <trkpt lat="38.37719" lon="-0.73086">
        <ele>203</ele>
        <time>2022-10-15 16:05:41</time>
      </trkpt>
      <trkpt lat="38.37716" lon="-0.73079">
        <ele>203</ele>
        <time>2022-10-15 16:05:42</time>
      </trkpt>
      <trkpt lat="38.37712" lon="-0.73073">
        <ele>203</ele>
        <time>2022-10-15 16:05:43</time>
      </trkpt>
      <trkpt lat="38.37705" lon="-0.7306">
        <ele>203</ele>
        <time>2022-10-15 16:05:45</time>
      </trkpt>
      <trkpt lat="38.37702" lon="-0.73054">
        <ele>202.8</ele>
        <time>2022-10-15 16:05:46</time>
      </trkpt>
      <trkpt lat="38.37699" lon="-0.73047">
        <ele>202.6</ele>
        <time>2022-10-15 16:05:47</time>
      </trkpt>
      <trkpt lat="38.37695" lon="-0.73041">
        <ele>202.6</ele>
        <time>2022-10-15 16:05:48</time>
      </trkpt>
      <trkpt lat="38.37691" lon="-0.73035">
        <ele>202.6</ele>
        <time>2022-10-15 16:05:49</time>
      </trkpt>
      <trkpt lat="38.37684" lon="-0.73022">
        <ele>202.2</ele>
        <time>2022-10-15 16:05:51</time>
      </trkpt>
      <trkpt lat="38.37681" lon="-0.73016">
        <ele>202.2</ele>
        <time>2022-10-15 16:05:52</time>
      </trkpt>
      <trkpt lat="38.37678" lon="-0.73009">
        <ele>202</ele>
        <time>2022-10-15 16:05:53</time>
      </trkpt>
      <trkpt lat="38.37661" lon="-0.72974">
        <ele>201.8</ele>
        <time>2022-10-15 16:05:58</time>
      </trkpt>
      <trkpt lat="38.37658" lon="-0.72968">
        <ele>201.8</ele>
        <time>2022-10-15 16:05:59</time>
      </trkpt>
      <trkpt lat="38.37651" lon="-0.72955">
        <ele>201.8</ele>
        <time>2022-10-15 16:06:02</time>
      </trkpt>
      <trkpt lat="38.37644" lon="-0.72942">
        <ele>201.8</ele>
        <time>2022-10-15 16:06:03</time>
      </trkpt>
      <trkpt lat="38.37629" lon="-0.72915">
        <ele>201.6</ele>
        <time>2022-10-15 16:06:07</time>
      </trkpt>
      <trkpt lat="38.37629" lon="-0.72915">
        <ele>201.6</ele>
        <time>2022-10-15 16:06:08</time>
      </trkpt>
      <trkpt lat="38.37616" lon="-0.72889">
        <ele>201.4</ele>
        <time>2022-10-15 16:06:11</time>
      </trkpt>
      <trkpt lat="38.37612" lon="-0.72882">
        <ele>201.4</ele>
        <time>2022-10-15 16:06:12</time>
      </trkpt>
      <trkpt lat="38.37602" lon="-0.72863">
        <ele>201.4</ele>
        <time>2022-10-15 16:06:15</time>
      </trkpt>
      <trkpt lat="38.3759" lon="-0.72839">
        <ele>201.4</ele>
        <time>2022-10-15 16:06:20</time>
      </trkpt>
      <trkpt lat="38.37585" lon="-0.72828">
        <ele>201.4</ele>
        <time>2022-10-15 16:06:21</time>
      </trkpt>
      <trkpt lat="38.3758" lon="-0.72816">
        <ele>201.6</ele>
        <time>2022-10-15 16:06:24</time>
      </trkpt>
      <trkpt lat="38.37578" lon="-0.72814">
        <ele>201.6</ele>
        <time>2022-10-15 16:06:25</time>
      </trkpt>
      <trkpt lat="38.37575" lon="-0.7281">
        <ele>201.6</ele>
        <time>2022-10-15 16:06:28</time>
      </trkpt>
      <trkpt lat="38.37573" lon="-0.72805">
        <ele>202.2</ele>
        <time>2022-10-15 16:06:32</time>
      </trkpt>
      <trkpt lat="38.37568" lon="-0.72792">
        <ele>202.8</ele>
        <time>2022-10-15 16:06:35</time>
      </trkpt>
      <trkpt lat="38.37566" lon="-0.72789">
        <ele>202.8</ele>
        <time>2022-10-15 16:06:36</time>
      </trkpt>
      <trkpt lat="38.37563" lon="-0.72786">
        <ele>202.8</ele>
        <time>2022-10-15 16:06:37</time>
      </trkpt>
      <trkpt lat="38.37563" lon="-0.72786">
        <ele>202.8</ele>
        <time>2022-10-15 16:06:38</time>
      </trkpt>
      <trkpt lat="38.37559" lon="-0.72778">
        <ele>202.8</ele>
        <time>2022-10-15 16:06:39</time>
      </trkpt>
      <trkpt lat="38.37557" lon="-0.72773">
        <ele>202.8</ele>
        <time>2022-10-15 16:06:40</time>
      </trkpt>
      <trkpt lat="38.3755" lon="-0.7276">
        <ele>202.6</ele>
        <time>2022-10-15 16:06:43</time>
      </trkpt>
      <trkpt lat="38.37545" lon="-0.72751">
        <ele>202.4</ele>
        <time>2022-10-15 16:06:45</time>
      </trkpt>
      <trkpt lat="38.3754" lon="-0.72741">
        <ele>202.4</ele>
        <time>2022-10-15 16:06:47</time>
      </trkpt>
      <trkpt lat="38.37534" lon="-0.72731">
        <ele>202</ele>
        <time>2022-10-15 16:06:49</time>
      </trkpt>
      <trkpt lat="38.37534" lon="-0.72731">
        <ele>201.6</ele>
        <time>2022-10-15 16:06:50</time>
      </trkpt>
      <trkpt lat="38.37529" lon="-0.72721">
        <ele>201.4</ele>
        <time>2022-10-15 16:06:51</time>
      </trkpt>
      <trkpt lat="38.37526" lon="-0.72716">
        <ele>201.2</ele>
        <time>2022-10-15 16:06:52</time>
      </trkpt>
      <trkpt lat="38.37523" lon="-0.72711">
        <ele>201.2</ele>
        <time>2022-10-15 16:06:53</time>
      </trkpt>
      <trkpt lat="38.3752" lon="-0.72706">
        <ele>201.2</ele>
        <time>2022-10-15 16:06:54</time>
      </trkpt>
      <trkpt lat="38.37518" lon="-0.72701">
        <ele>201</ele>
        <time>2022-10-15 16:06:56</time>
      </trkpt>
      <trkpt lat="38.3751" lon="-0.72686">
        <ele>201</ele>
        <time>2022-10-15 16:06:58</time>
      </trkpt>
      <trkpt lat="38.37507" lon="-0.72682">
        <ele>201</ele>
        <time>2022-10-15 16:06:59</time>
      </trkpt>
      <trkpt lat="38.37505" lon="-0.72677">
        <ele>201</ele>
        <time>2022-10-15 16:07:00</time>
      </trkpt>
      <trkpt lat="38.37503" lon="-0.72673">
        <ele>201.2</ele>
        <time>2022-10-15 16:07:02</time>
      </trkpt>
      <trkpt lat="38.37498" lon="-0.72662">
        <ele>201.2</ele>
        <time>2022-10-15 16:07:04</time>
      </trkpt>
      <trkpt lat="38.37494" lon="-0.72658">
        <ele>201.4</ele>
        <time>2022-10-15 16:07:06</time>
      </trkpt>
      <trkpt lat="38.37491" lon="-0.72657">
        <ele>201.6</ele>
        <time>2022-10-15 16:07:08</time>
      </trkpt>
      <trkpt lat="38.37487" lon="-0.72654">
        <ele>201.6</ele>
        <time>2022-10-15 16:07:09</time>
      </trkpt>
      <trkpt lat="38.37483" lon="-0.72652">
        <ele>201.6</ele>
        <time>2022-10-15 16:07:10</time>
      </trkpt>
      <trkpt lat="38.3748" lon="-0.7265">
        <ele>201.6</ele>
        <time>2022-10-15 16:07:11</time>
      </trkpt>
      <trkpt lat="38.37476" lon="-0.72647">
        <ele>201.6</ele>
        <time>2022-10-15 16:07:12</time>
      </trkpt>
      <trkpt lat="38.37471" lon="-0.72645">
        <ele>201.6</ele>
        <time>2022-10-15 16:07:13</time>
      </trkpt>
      <trkpt lat="38.37471" lon="-0.72645">
        <ele>201.6</ele>
        <time>2022-10-15 16:07:14</time>
      </trkpt>
      <trkpt lat="38.37462" lon="-0.72641">
        <ele>201.6</ele>
        <time>2022-10-15 16:07:15</time>
      </trkpt>
      <trkpt lat="38.37453" lon="-0.72637">
        <ele>201.6</ele>
        <time>2022-10-15 16:07:17</time>
      </trkpt>
      <trkpt lat="38.37448" lon="-0.72635">
        <ele>201.4</ele>
        <time>2022-10-15 16:07:18</time>
      </trkpt>
      <trkpt lat="38.37443" lon="-0.72632">
        <ele>201.2</ele>
        <time>2022-10-15 16:07:19</time>
      </trkpt>
      <trkpt lat="38.37433" lon="-0.72629">
        <ele>200.6</ele>
        <time>2022-10-15 16:07:21</time>
      </trkpt>
      <trkpt lat="38.37427" lon="-0.72627">
        <ele>200.4</ele>
        <time>2022-10-15 16:07:22</time>
      </trkpt>
      <trkpt lat="38.37422" lon="-0.72625">
        <ele>200.2</ele>
        <time>2022-10-15 16:07:23</time>
      </trkpt>
      <trkpt lat="38.37416" lon="-0.72622">
        <ele>199.8</ele>
        <time>2022-10-15 16:07:24</time>
      </trkpt>
      <trkpt lat="38.37411" lon="-0.7262">
        <ele>199.6</ele>
        <time>2022-10-15 16:07:25</time>
      </trkpt>
      <trkpt lat="38.37411" lon="-0.7262">
        <ele>199.4</ele>
        <time>2022-10-15 16:07:26</time>
      </trkpt>
      <trkpt lat="38.37399" lon="-0.72614">
        <ele>199.2</ele>
        <time>2022-10-15 16:07:27</time>
      </trkpt>
      <trkpt lat="38.37393" lon="-0.72612">
        <ele>199.2</ele>
        <time>2022-10-15 16:07:28</time>
      </trkpt>
      <trkpt lat="38.37387" lon="-0.72609">
        <ele>199</ele>
        <time>2022-10-15 16:07:29</time>
      </trkpt>
      <trkpt lat="38.37381" lon="-0.72605">
        <ele>199</ele>
        <time>2022-10-15 16:07:30</time>
      </trkpt>
      <trkpt lat="38.37376" lon="-0.72602">
        <ele>198.8</ele>
        <time>2022-10-15 16:07:31</time>
      </trkpt>
      <trkpt lat="38.37365" lon="-0.72594">
        <ele>198.6</ele>
        <time>2022-10-15 16:07:33</time>
      </trkpt>
      <trkpt lat="38.37359" lon="-0.7259">
        <ele>198.6</ele>
        <time>2022-10-15 16:07:34</time>
      </trkpt>
      <trkpt lat="38.37354" lon="-0.72586">
        <ele>198.6</ele>
        <time>2022-10-15 16:07:35</time>
      </trkpt>
      <trkpt lat="38.37348" lon="-0.72582">
        <ele>198.4</ele>
        <time>2022-10-15 16:07:36</time>
      </trkpt>
      <trkpt lat="38.37343" lon="-0.72578">
        <ele>198.4</ele>
        <time>2022-10-15 16:07:37</time>
      </trkpt>
      <trkpt lat="38.37332" lon="-0.72571">
        <ele>198.4</ele>
        <time>2022-10-15 16:07:39</time>
      </trkpt>
      <trkpt lat="38.37326" lon="-0.72568">
        <ele>198.4</ele>
        <time>2022-10-15 16:07:40</time>
      </trkpt>
      <trkpt lat="38.3732" lon="-0.72566">
        <ele>198.4</ele>
        <time>2022-10-15 16:07:41</time>
      </trkpt>
      <trkpt lat="38.37315" lon="-0.72563">
        <ele>198.4</ele>
        <time>2022-10-15 16:07:42</time>
      </trkpt>
      <trkpt lat="38.37309" lon="-0.7256">
        <ele>198.4</ele>
        <time>2022-10-15 16:07:44</time>
      </trkpt>
      <trkpt lat="38.37297" lon="-0.72554">
        <ele>198.4</ele>
        <time>2022-10-15 16:07:45</time>
      </trkpt>
      <trkpt lat="38.37291" lon="-0.72551">
        <ele>198.6</ele>
        <time>2022-10-15 16:07:46</time>
      </trkpt>
      <trkpt lat="38.37279" lon="-0.72545">
        <ele>198.6</ele>
        <time>2022-10-15 16:07:48</time>
      </trkpt>
      <trkpt lat="38.37274" lon="-0.72541">
        <ele>198.6</ele>
        <time>2022-10-15 16:07:49</time>
      </trkpt>
      <trkpt lat="38.37274" lon="-0.72541">
        <ele>198.8</ele>
        <time>2022-10-15 16:07:50</time>
      </trkpt>
      <trkpt lat="38.37262" lon="-0.72534">
        <ele>198.8</ele>
        <time>2022-10-15 16:07:51</time>
      </trkpt>
      <trkpt lat="38.37257" lon="-0.72531">
        <ele>198.8</ele>
        <time>2022-10-15 16:07:52</time>
      </trkpt>
      <trkpt lat="38.37246" lon="-0.72523">
        <ele>199</ele>
        <time>2022-10-15 16:07:54</time>
      </trkpt>
      <trkpt lat="38.3724" lon="-0.72519">
        <ele>199</ele>
        <time>2022-10-15 16:07:55</time>
      </trkpt>
      <trkpt lat="38.3724" lon="-0.72519">
        <ele>199</ele>
        <time>2022-10-15 16:07:56</time>
      </trkpt>
      <trkpt lat="38.37229" lon="-0.72511">
        <ele>199</ele>
        <time>2022-10-15 16:07:57</time>
      </trkpt>
      <trkpt lat="38.37224" lon="-0.72506">
        <ele>199.2</ele>
        <time>2022-10-15 16:07:58</time>
      </trkpt>
      <trkpt lat="38.37219" lon="-0.72501">
        <ele>199.2</ele>
        <time>2022-10-15 16:07:59</time>
      </trkpt>
      <trkpt lat="38.37214" lon="-0.72497">
        <ele>199.2</ele>
        <time>2022-10-15 16:08:00</time>
      </trkpt>
      <trkpt lat="38.37209" lon="-0.72492">
        <ele>199</ele>
        <time>2022-10-15 16:08:01</time>
      </trkpt>
      <trkpt lat="38.37209" lon="-0.72492">
        <ele>199</ele>
        <time>2022-10-15 16:08:02</time>
      </trkpt>
      <trkpt lat="38.37199" lon="-0.72482">
        <ele>199</ele>
        <time>2022-10-15 16:08:03</time>
      </trkpt>
      <trkpt lat="38.37194" lon="-0.72476">
        <ele>199</ele>
        <time>2022-10-15 16:08:04</time>
      </trkpt>
      <trkpt lat="38.37189" lon="-0.7247">
        <ele>199</ele>
        <time>2022-10-15 16:08:05</time>
      </trkpt>
      <trkpt lat="38.37185" lon="-0.72465">
        <ele>198.8</ele>
        <time>2022-10-15 16:08:06</time>
      </trkpt>
      <trkpt lat="38.3718" lon="-0.72459">
        <ele>198.8</ele>
        <time>2022-10-15 16:08:08</time>
      </trkpt>
      <trkpt lat="38.3717" lon="-0.7245">
        <ele>198.8</ele>
        <time>2022-10-15 16:08:09</time>
      </trkpt>
      <trkpt lat="38.37164" lon="-0.72446">
        <ele>198.6</ele>
        <time>2022-10-15 16:08:10</time>
      </trkpt>
      <trkpt lat="38.37159" lon="-0.72442">
        <ele>198.6</ele>
        <time>2022-10-15 16:08:11</time>
      </trkpt>
      <trkpt lat="38.37153" lon="-0.72437">
        <ele>198.4</ele>
        <time>2022-10-15 16:08:12</time>
      </trkpt>
      <trkpt lat="38.37148" lon="-0.72433">
        <ele>198.4</ele>
        <time>2022-10-15 16:08:14</time>
      </trkpt>
      <trkpt lat="38.37138" lon="-0.72425">
        <ele>198.2</ele>
        <time>2022-10-15 16:08:15</time>
      </trkpt>
      <trkpt lat="38.37133" lon="-0.72421">
        <ele>198.2</ele>
        <time>2022-10-15 16:08:16</time>
      </trkpt>
      <trkpt lat="38.37127" lon="-0.72417">
        <ele>198.2</ele>
        <time>2022-10-15 16:08:17</time>
      </trkpt>
      <trkpt lat="38.37122" lon="-0.72413">
        <ele>198.2</ele>
        <time>2022-10-15 16:08:18</time>
      </trkpt>
      <trkpt lat="38.37117" lon="-0.7241">
        <ele>198</ele>
        <time>2022-10-15 16:08:20</time>
      </trkpt>
      <trkpt lat="38.37108" lon="-0.72402">
        <ele>198</ele>
        <time>2022-10-15 16:08:21</time>
      </trkpt>
      <trkpt lat="38.37103" lon="-0.72399">
        <ele>197.8</ele>
        <time>2022-10-15 16:08:22</time>
      </trkpt>
      <trkpt lat="38.37098" lon="-0.72395">
        <ele>197.8</ele>
        <time>2022-10-15 16:08:23</time>
      </trkpt>
      <trkpt lat="38.37093" lon="-0.72392">
        <ele>197.8</ele>
        <time>2022-10-15 16:08:24</time>
      </trkpt>
      <trkpt lat="38.37088" lon="-0.72388">
        <ele>197.6</ele>
        <time>2022-10-15 16:08:26</time>
      </trkpt>
      <trkpt lat="38.37078" lon="-0.72381">
        <ele>197.4</ele>
        <time>2022-10-15 16:08:27</time>
      </trkpt>
      <trkpt lat="38.37073" lon="-0.72378">
        <ele>197.4</ele>
        <time>2022-10-15 16:08:28</time>
      </trkpt>
      <trkpt lat="38.37068" lon="-0.72375">
        <ele>197.2</ele>
        <time>2022-10-15 16:08:29</time>
      </trkpt>
      <trkpt lat="38.37062" lon="-0.72373">
        <ele>197.2</ele>
        <time>2022-10-15 16:08:30</time>
      </trkpt>
      <trkpt lat="38.37057" lon="-0.72371">
        <ele>197.2</ele>
        <time>2022-10-15 16:08:31</time>
      </trkpt>
      <trkpt lat="38.37057" lon="-0.72371">
        <ele>197.2</ele>
        <time>2022-10-15 16:08:32</time>
      </trkpt>
      <trkpt lat="38.37047" lon="-0.72367">
        <ele>197</ele>
        <time>2022-10-15 16:08:33</time>
      </trkpt>
      <trkpt lat="38.37037" lon="-0.72362">
        <ele>197</ele>
        <time>2022-10-15 16:08:35</time>
      </trkpt>
      <trkpt lat="38.37032" lon="-0.7236">
        <ele>197</ele>
        <time>2022-10-15 16:08:36</time>
      </trkpt>
      <trkpt lat="38.37027" lon="-0.72358">
        <ele>196.8</ele>
        <time>2022-10-15 16:08:37</time>
      </trkpt>
      <trkpt lat="38.37027" lon="-0.72358">
        <ele>197</ele>
        <time>2022-10-15 16:08:38</time>
      </trkpt>
      <trkpt lat="38.37016" lon="-0.72356">
        <ele>197</ele>
        <time>2022-10-15 16:08:39</time>
      </trkpt>
      <trkpt lat="38.37004" lon="-0.72354">
        <ele>196.8</ele>
        <time>2022-10-15 16:08:41</time>
      </trkpt>
      <trkpt lat="38.36998" lon="-0.72353">
        <ele>196.8</ele>
        <time>2022-10-15 16:08:42</time>
      </trkpt>
      <trkpt lat="38.36992" lon="-0.72351">
        <ele>196.8</ele>
        <time>2022-10-15 16:08:43</time>
      </trkpt>
      <trkpt lat="38.36992" lon="-0.72351">
        <ele>196.6</ele>
        <time>2022-10-15 16:08:44</time>
      </trkpt>
      <trkpt lat="38.36975" lon="-0.72346">
        <ele>196.4</ele>
        <time>2022-10-15 16:08:46</time>
      </trkpt>
      <trkpt lat="38.3697" lon="-0.72344">
        <ele>196.4</ele>
        <time>2022-10-15 16:08:47</time>
      </trkpt>
      <trkpt lat="38.36964" lon="-0.72342">
        <ele>196.4</ele>
        <time>2022-10-15 16:08:48</time>
      </trkpt>
      <trkpt lat="38.36959" lon="-0.7234">
        <ele>196.2</ele>
        <time>2022-10-15 16:08:49</time>
      </trkpt>
      <trkpt lat="38.36959" lon="-0.7234">
        <ele>196.4</ele>
        <time>2022-10-15 16:08:50</time>
      </trkpt>
      <trkpt lat="38.36942" lon="-0.72334">
        <ele>196.2</ele>
        <time>2022-10-15 16:08:52</time>
      </trkpt>
      <trkpt lat="38.36936" lon="-0.72332">
        <ele>196.2</ele>
        <time>2022-10-15 16:08:53</time>
      </trkpt>
      <trkpt lat="38.36931" lon="-0.72329">
        <ele>196.4</ele>
        <time>2022-10-15 16:08:54</time>
      </trkpt>
      <trkpt lat="38.36925" lon="-0.72327">
        <ele>196.2</ele>
        <time>2022-10-15 16:08:55</time>
      </trkpt>
      <trkpt lat="38.36925" lon="-0.72327">
        <ele>196.2</ele>
        <time>2022-10-15 16:08:56</time>
      </trkpt>
      <trkpt lat="38.36908" lon="-0.72319">
        <ele>196</ele>
        <time>2022-10-15 16:08:58</time>
      </trkpt>
      <trkpt lat="38.36903" lon="-0.72316">
        <ele>196</ele>
        <time>2022-10-15 16:08:59</time>
      </trkpt>
      <trkpt lat="38.36897" lon="-0.72313">
        <ele>196</ele>
        <time>2022-10-15 16:09:00</time>
      </trkpt>
      <trkpt lat="38.36891" lon="-0.7231">
        <ele>195.8</ele>
        <time>2022-10-15 16:09:01</time>
      </trkpt>
      <trkpt lat="38.36891" lon="-0.7231">
        <ele>195.8</ele>
        <time>2022-10-15 16:09:02</time>
      </trkpt>
      <trkpt lat="38.3688" lon="-0.72303">
        <ele>195.6</ele>
        <time>2022-10-15 16:09:03</time>
      </trkpt>
      <trkpt lat="38.36874" lon="-0.723">
        <ele>195.4</ele>
        <time>2022-10-15 16:09:04</time>
      </trkpt>
      <trkpt lat="38.36869" lon="-0.72296">
        <ele>195.4</ele>
        <time>2022-10-15 16:09:05</time>
      </trkpt>
      <trkpt lat="38.36863" lon="-0.72293">
        <ele>195.2</ele>
        <time>2022-10-15 16:09:06</time>
      </trkpt>
      <trkpt lat="38.36857" lon="-0.72289">
        <ele>195.2</ele>
        <time>2022-10-15 16:09:07</time>
      </trkpt>
      <trkpt lat="38.36845" lon="-0.72283">
        <ele>195.2</ele>
        <time>2022-10-15 16:09:09</time>
      </trkpt>
      <trkpt lat="38.3684" lon="-0.72279">
        <ele>195</ele>
        <time>2022-10-15 16:09:10</time>
      </trkpt>
      <trkpt lat="38.36834" lon="-0.72276">
        <ele>195</ele>
        <time>2022-10-15 16:09:11</time>
      </trkpt>
      <trkpt lat="38.36829" lon="-0.72273">
        <ele>194.8</ele>
        <time>2022-10-15 16:09:12</time>
      </trkpt>
      <trkpt lat="38.36824" lon="-0.72271">
        <ele>194.8</ele>
        <time>2022-10-15 16:09:13</time>
      </trkpt>
      <trkpt lat="38.36824" lon="-0.72271">
        <ele>194.8</ele>
        <time>2022-10-15 16:09:14</time>
      </trkpt>
      <trkpt lat="38.36813" lon="-0.72266">
        <ele>194.6</ele>
        <time>2022-10-15 16:09:15</time>
      </trkpt>
      <trkpt lat="38.36807" lon="-0.72264">
        <ele>194.6</ele>
        <time>2022-10-15 16:09:16</time>
      </trkpt>
      <trkpt lat="38.36802" lon="-0.72263">
        <ele>194.6</ele>
        <time>2022-10-15 16:09:17</time>
      </trkpt>
      <trkpt lat="38.36795" lon="-0.72262">
        <ele>194.6</ele>
        <time>2022-10-15 16:09:18</time>
      </trkpt>
      <trkpt lat="38.36789" lon="-0.72262">
        <ele>194.6</ele>
        <time>2022-10-15 16:09:19</time>
      </trkpt>
      <trkpt lat="38.36789" lon="-0.72262">
        <ele>194.6</ele>
        <time>2022-10-15 16:09:20</time>
      </trkpt>
      <trkpt lat="38.36777" lon="-0.72264">
        <ele>194.6</ele>
        <time>2022-10-15 16:09:21</time>
      </trkpt>
      <trkpt lat="38.36771" lon="-0.72266">
        <ele>194.6</ele>
        <time>2022-10-15 16:09:22</time>
      </trkpt>
      <trkpt lat="38.36765" lon="-0.72267">
        <ele>194.4</ele>
        <time>2022-10-15 16:09:23</time>
      </trkpt>
      <trkpt lat="38.36759" lon="-0.72268">
        <ele>194.4</ele>
        <time>2022-10-15 16:09:24</time>
      </trkpt>
      <trkpt lat="38.36753" lon="-0.72268">
        <ele>194.4</ele>
        <time>2022-10-15 16:09:25</time>
      </trkpt>
      <trkpt lat="38.36753" lon="-0.72268">
        <ele>194.2</ele>
        <time>2022-10-15 16:09:26</time>
      </trkpt>
      <trkpt lat="38.3674" lon="-0.72267">
        <ele>194</ele>
        <time>2022-10-15 16:09:27</time>
      </trkpt>
      <trkpt lat="38.36734" lon="-0.72267">
        <ele>194.2</ele>
        <time>2022-10-15 16:09:28</time>
      </trkpt>
      <trkpt lat="38.36728" lon="-0.72266">
        <ele>194</ele>
        <time>2022-10-15 16:09:29</time>
      </trkpt>
      <trkpt lat="38.36722" lon="-0.72266">
        <ele>194</ele>
        <time>2022-10-15 16:09:30</time>
      </trkpt>
      <trkpt lat="38.36716" lon="-0.72266">
        <ele>194</ele>
        <time>2022-10-15 16:09:31</time>
      </trkpt>
      <trkpt lat="38.36716" lon="-0.72266">
        <ele>193.8</ele>
        <time>2022-10-15 16:09:32</time>
      </trkpt>
      <trkpt lat="38.36705" lon="-0.72265">
        <ele>193.8</ele>
        <time>2022-10-15 16:09:33</time>
      </trkpt>
      <trkpt lat="38.36699" lon="-0.72265">
        <ele>193.8</ele>
        <time>2022-10-15 16:09:34</time>
      </trkpt>
      <trkpt lat="38.36693" lon="-0.72265">
        <ele>193.8</ele>
        <time>2022-10-15 16:09:35</time>
      </trkpt>
      <trkpt lat="38.36687" lon="-0.72266">
        <ele>193.8</ele>
        <time>2022-10-15 16:09:36</time>
      </trkpt>
      <trkpt lat="38.36681" lon="-0.72268">
        <ele>193.6</ele>
        <time>2022-10-15 16:09:37</time>
      </trkpt>
      <trkpt lat="38.36681" lon="-0.72268">
        <ele>193.6</ele>
        <time>2022-10-15 16:09:38</time>
      </trkpt>
      <trkpt lat="38.3667" lon="-0.72274">
        <ele>193.6</ele>
        <time>2022-10-15 16:09:39</time>
      </trkpt>
      <trkpt lat="38.36665" lon="-0.72278">
        <ele>193.6</ele>
        <time>2022-10-15 16:09:40</time>
      </trkpt>
      <trkpt lat="38.3666" lon="-0.72282">
        <ele>193.4</ele>
        <time>2022-10-15 16:09:41</time>
      </trkpt>
      <trkpt lat="38.36655" lon="-0.72288">
        <ele>193.4</ele>
        <time>2022-10-15 16:09:42</time>
      </trkpt>
      <trkpt lat="38.36651" lon="-0.72294">
        <ele>193.4</ele>
        <time>2022-10-15 16:09:44</time>
      </trkpt>
      <trkpt lat="38.36644" lon="-0.72306">
        <ele>193.2</ele>
        <time>2022-10-15 16:09:45</time>
      </trkpt>
      <trkpt lat="38.3664" lon="-0.72313">
        <ele>193.2</ele>
        <time>2022-10-15 16:09:46</time>
      </trkpt>
      <trkpt lat="38.36636" lon="-0.72319">
        <ele>193.2</ele>
        <time>2022-10-15 16:09:47</time>
      </trkpt>
      <trkpt lat="38.36629" lon="-0.72332">
        <ele>193.2</ele>
        <time>2022-10-15 16:09:49</time>
      </trkpt>
      <trkpt lat="38.36629" lon="-0.72332">
        <ele>193.2</ele>
        <time>2022-10-15 16:09:50</time>
      </trkpt>
      <trkpt lat="38.36621" lon="-0.72344">
        <ele>193.2</ele>
        <time>2022-10-15 16:09:51</time>
      </trkpt>
      <trkpt lat="38.36612" lon="-0.72355">
        <ele>193.2</ele>
        <time>2022-10-15 16:09:53</time>
      </trkpt>
      <trkpt lat="38.36607" lon="-0.7236">
        <ele>193.2</ele>
        <time>2022-10-15 16:09:54</time>
      </trkpt>
      <trkpt lat="38.36602" lon="-0.72364">
        <ele>193.2</ele>
        <time>2022-10-15 16:09:55</time>
      </trkpt>
      <trkpt lat="38.36602" lon="-0.72364">
        <ele>193.2</ele>
        <time>2022-10-15 16:09:56</time>
      </trkpt>
      <trkpt lat="38.36593" lon="-0.72369">
        <ele>193.2</ele>
        <time>2022-10-15 16:09:57</time>
      </trkpt>
      <trkpt lat="38.36587" lon="-0.72368">
        <ele>193.2</ele>
        <time>2022-10-15 16:09:58</time>
      </trkpt>
      <trkpt lat="38.36582" lon="-0.72366">
        <ele>193.2</ele>
        <time>2022-10-15 16:09:59</time>
      </trkpt>
      <trkpt lat="38.36578" lon="-0.72361">
        <ele>193.2</ele>
        <time>2022-10-15 16:10:00</time>
      </trkpt>
      <trkpt lat="38.36574" lon="-0.72356">
        <ele>193</ele>
        <time>2022-10-15 16:10:01</time>
      </trkpt>
      <trkpt lat="38.36574" lon="-0.72356">
        <ele>193</ele>
        <time>2022-10-15 16:10:02</time>
      </trkpt>
      <trkpt lat="38.36565" lon="-0.72347">
        <ele>193</ele>
        <time>2022-10-15 16:10:03</time>
      </trkpt>
      <trkpt lat="38.36561" lon="-0.72342">
        <ele>193</ele>
        <time>2022-10-15 16:10:04</time>
      </trkpt>
      <trkpt lat="38.36557" lon="-0.72338">
        <ele>193</ele>
        <time>2022-10-15 16:10:05</time>
      </trkpt>
      <trkpt lat="38.36548" lon="-0.72329">
        <ele>193</ele>
        <time>2022-10-15 16:10:07</time>
      </trkpt>
      <trkpt lat="38.36548" lon="-0.72329">
        <ele>193</ele>
        <time>2022-10-15 16:10:08</time>
      </trkpt>
      <trkpt lat="38.3654" lon="-0.72321">
        <ele>193</ele>
        <time>2022-10-15 16:10:09</time>
      </trkpt>
      <trkpt lat="38.36531" lon="-0.72314">
        <ele>193</ele>
        <time>2022-10-15 16:10:11</time>
      </trkpt>
      <trkpt lat="38.36526" lon="-0.72312">
        <ele>193</ele>
        <time>2022-10-15 16:10:12</time>
      </trkpt>
      <trkpt lat="38.36521" lon="-0.72312">
        <ele>193</ele>
        <time>2022-10-15 16:10:13</time>
      </trkpt>
      <trkpt lat="38.36521" lon="-0.72312">
        <ele>192.8</ele>
        <time>2022-10-15 16:10:14</time>
      </trkpt>
      <trkpt lat="38.36511" lon="-0.72314">
        <ele>192.8</ele>
        <time>2022-10-15 16:10:15</time>
      </trkpt>
      <trkpt lat="38.36506" lon="-0.72316">
        <ele>192.8</ele>
        <time>2022-10-15 16:10:16</time>
      </trkpt>
      <trkpt lat="38.36501" lon="-0.72316">
        <ele>192.8</ele>
        <time>2022-10-15 16:10:17</time>
      </trkpt>
      <trkpt lat="38.36496" lon="-0.72315">
        <ele>192.8</ele>
        <time>2022-10-15 16:10:18</time>
      </trkpt>
      <trkpt lat="38.3649" lon="-0.72312">
        <ele>192.8</ele>
        <time>2022-10-15 16:10:19</time>
      </trkpt>
      <trkpt lat="38.3649" lon="-0.72312">
        <ele>192.8</ele>
        <time>2022-10-15 16:10:20</time>
      </trkpt>
      <trkpt lat="38.3648" lon="-0.72306">
        <ele>192.8</ele>
        <time>2022-10-15 16:10:21</time>
      </trkpt>
      <trkpt lat="38.36475" lon="-0.72302">
        <ele>192.8</ele>
        <time>2022-10-15 16:10:22</time>
      </trkpt>
      <trkpt lat="38.3647" lon="-0.72298">
        <ele>192.8</ele>
        <time>2022-10-15 16:10:23</time>
      </trkpt>
      <trkpt lat="38.36464" lon="-0.72295">
        <ele>192.8</ele>
        <time>2022-10-15 16:10:24</time>
      </trkpt>
      <trkpt lat="38.36458" lon="-0.72291">
        <ele>192.8</ele>
        <time>2022-10-15 16:10:25</time>
      </trkpt>
      <trkpt lat="38.36458" lon="-0.72291">
        <ele>192.8</ele>
        <time>2022-10-15 16:10:26</time>
      </trkpt>
      <trkpt lat="38.36447" lon="-0.72284">
        <ele>192.8</ele>
        <time>2022-10-15 16:10:27</time>
      </trkpt>
      <trkpt lat="38.36442" lon="-0.72281">
        <ele>192.8</ele>
        <time>2022-10-15 16:10:28</time>
      </trkpt>
      <trkpt lat="38.36437" lon="-0.72278">
        <ele>192.8</ele>
        <time>2022-10-15 16:10:29</time>
      </trkpt>
      <trkpt lat="38.36427" lon="-0.72271">
        <ele>192.8</ele>
        <time>2022-10-15 16:10:31</time>
      </trkpt>
      <trkpt lat="38.36427" lon="-0.72271">
        <ele>192.8</ele>
        <time>2022-10-15 16:10:32</time>
      </trkpt>
      <trkpt lat="38.36416" lon="-0.72264">
        <ele>192.8</ele>
        <time>2022-10-15 16:10:33</time>
      </trkpt>
      <trkpt lat="38.36411" lon="-0.7226">
        <ele>192.8</ele>
        <time>2022-10-15 16:10:34</time>
      </trkpt>
      <trkpt lat="38.36405" lon="-0.72257">
        <ele>192.8</ele>
        <time>2022-10-15 16:10:35</time>
      </trkpt>
      <trkpt lat="38.364" lon="-0.72253">
        <ele>192.8</ele>
        <time>2022-10-15 16:10:36</time>
      </trkpt>
      <trkpt lat="38.36395" lon="-0.72249">
        <ele>192.8</ele>
        <time>2022-10-15 16:10:37</time>
      </trkpt>
      <trkpt lat="38.36395" lon="-0.72249">
        <ele>192.6</ele>
        <time>2022-10-15 16:10:38</time>
      </trkpt>
      <trkpt lat="38.36385" lon="-0.72241">
        <ele>192.6</ele>
        <time>2022-10-15 16:10:39</time>
      </trkpt>
      <trkpt lat="38.36379" lon="-0.72237">
        <ele>192.4</ele>
        <time>2022-10-15 16:10:40</time>
      </trkpt>
      <trkpt lat="38.36369" lon="-0.72228">
        <ele>191.8</ele>
        <time>2022-10-15 16:10:42</time>
      </trkpt>
      <trkpt lat="38.36364" lon="-0.72224">
        <ele>191.6</ele>
        <time>2022-10-15 16:10:43</time>
      </trkpt>
      <trkpt lat="38.36364" lon="-0.72224">
        <ele>191.4</ele>
        <time>2022-10-15 16:10:44</time>
      </trkpt>
      <trkpt lat="38.36354" lon="-0.72216">
        <ele>191</ele>
        <time>2022-10-15 16:10:45</time>
      </trkpt>
      <trkpt lat="38.36349" lon="-0.72213">
        <ele>190.8</ele>
        <time>2022-10-15 16:10:46</time>
      </trkpt>
      <trkpt lat="38.36339" lon="-0.72204">
        <ele>190.8</ele>
        <time>2022-10-15 16:10:48</time>
      </trkpt>
      <trkpt lat="38.36335" lon="-0.72199">
        <ele>190.8</ele>
        <time>2022-10-15 16:10:49</time>
      </trkpt>
      <trkpt lat="38.36335" lon="-0.72199">
        <ele>190.8</ele>
        <time>2022-10-15 16:10:50</time>
      </trkpt>
      <trkpt lat="38.36327" lon="-0.72187">
        <ele>190.6</ele>
        <time>2022-10-15 16:10:51</time>
      </trkpt>
      <trkpt lat="38.36324" lon="-0.72181">
        <ele>190.6</ele>
        <time>2022-10-15 16:10:52</time>
      </trkpt>
      <trkpt lat="38.36321" lon="-0.72174">
        <ele>190.4</ele>
        <time>2022-10-15 16:10:53</time>
      </trkpt>
      <trkpt lat="38.36319" lon="-0.72167">
        <ele>190.4</ele>
        <time>2022-10-15 16:10:54</time>
      </trkpt>
      <trkpt lat="38.36317" lon="-0.72159">
        <ele>190.6</ele>
        <time>2022-10-15 16:10:55</time>
      </trkpt>
      <trkpt lat="38.36317" lon="-0.72159">
        <ele>190.4</ele>
        <time>2022-10-15 16:10:56</time>
      </trkpt>
      <trkpt lat="38.36316" lon="-0.72143">
        <ele>190.4</ele>
        <time>2022-10-15 16:10:57</time>
      </trkpt>
      <trkpt lat="38.36315" lon="-0.72135">
        <ele>190.4</ele>
        <time>2022-10-15 16:10:58</time>
      </trkpt>
      <trkpt lat="38.36314" lon="-0.72126">
        <ele>190.2</ele>
        <time>2022-10-15 16:10:59</time>
      </trkpt>
      <trkpt lat="38.36314" lon="-0.72118">
        <ele>190.2</ele>
        <time>2022-10-15 16:11:00</time>
      </trkpt>
      <trkpt lat="38.36313" lon="-0.7211">
        <ele>190.2</ele>
        <time>2022-10-15 16:11:01</time>
      </trkpt>
      <trkpt lat="38.36313" lon="-0.72092">
        <ele>190.2</ele>
        <time>2022-10-15 16:11:03</time>
      </trkpt>
      <trkpt lat="38.36314" lon="-0.72083">
        <ele>190</ele>
        <time>2022-10-15 16:11:04</time>
      </trkpt>
      <trkpt lat="38.36315" lon="-0.72074">
        <ele>190</ele>
        <time>2022-10-15 16:11:05</time>
      </trkpt>
      <trkpt lat="38.36318" lon="-0.72065">
        <ele>189.8</ele>
        <time>2022-10-15 16:11:06</time>
      </trkpt>
      <trkpt lat="38.36321" lon="-0.72058">
        <ele>189.4</ele>
        <time>2022-10-15 16:11:07</time>
      </trkpt>
      <trkpt lat="38.36321" lon="-0.72058">
        <ele>189</ele>
        <time>2022-10-15 16:11:08</time>
      </trkpt>
      <trkpt lat="38.36328" lon="-0.72043">
        <ele>188.6</ele>
        <time>2022-10-15 16:11:09</time>
      </trkpt>
      <trkpt lat="38.3633" lon="-0.72035">
        <ele>188.4</ele>
        <time>2022-10-15 16:11:10</time>
      </trkpt>
      <trkpt lat="38.36331" lon="-0.72028">
        <ele>188.2</ele>
        <time>2022-10-15 16:11:11</time>
      </trkpt>
      <trkpt lat="38.3633" lon="-0.7202">
        <ele>187.8</ele>
        <time>2022-10-15 16:11:12</time>
      </trkpt>
      <trkpt lat="38.36327" lon="-0.72013">
        <ele>187.4</ele>
        <time>2022-10-15 16:11:14</time>
      </trkpt>
      <trkpt lat="38.3632" lon="-0.72">
        <ele>187.4</ele>
        <time>2022-10-15 16:11:15</time>
      </trkpt>
      <trkpt lat="38.36316" lon="-0.71994">
        <ele>187.2</ele>
        <time>2022-10-15 16:11:16</time>
      </trkpt>
      <trkpt lat="38.36312" lon="-0.71988">
        <ele>187.2</ele>
        <time>2022-10-15 16:11:17</time>
      </trkpt>
      <trkpt lat="38.36308" lon="-0.71982">
        <ele>187.2</ele>
        <time>2022-10-15 16:11:18</time>
      </trkpt>
      <trkpt lat="38.36305" lon="-0.71975">
        <ele>187.2</ele>
        <time>2022-10-15 16:11:20</time>
      </trkpt>
      <trkpt lat="38.36299" lon="-0.71962">
        <ele>187.2</ele>
        <time>2022-10-15 16:11:21</time>
      </trkpt>
      <trkpt lat="38.36296" lon="-0.71956">
        <ele>187.2</ele>
        <time>2022-10-15 16:11:22</time>
      </trkpt>
      <trkpt lat="38.36294" lon="-0.71949">
        <ele>187.2</ele>
        <time>2022-10-15 16:11:23</time>
      </trkpt>
      <trkpt lat="38.36287" lon="-0.71937">
        <ele>187.2</ele>
        <time>2022-10-15 16:11:25</time>
      </trkpt>
      <trkpt lat="38.36287" lon="-0.71937">
        <ele>187.2</ele>
        <time>2022-10-15 16:11:26</time>
      </trkpt>
      <trkpt lat="38.36281" lon="-0.71925">
        <ele>187.4</ele>
        <time>2022-10-15 16:11:27</time>
      </trkpt>
      <trkpt lat="38.36277" lon="-0.7192">
        <ele>187.6</ele>
        <time>2022-10-15 16:11:28</time>
      </trkpt>
      <trkpt lat="38.3627" lon="-0.7191">
        <ele>187.8</ele>
        <time>2022-10-15 16:11:30</time>
      </trkpt>
      <trkpt lat="38.36266" lon="-0.71905">
        <ele>188</ele>
        <time>2022-10-15 16:11:31</time>
      </trkpt>
      <trkpt lat="38.36266" lon="-0.71905">
        <ele>188.2</ele>
        <time>2022-10-15 16:11:32</time>
      </trkpt>
      <trkpt lat="38.36257" lon="-0.71897">
        <ele>188.2</ele>
        <time>2022-10-15 16:11:33</time>
      </trkpt>
      <trkpt lat="38.36252" lon="-0.71893">
        <ele>188.4</ele>
        <time>2022-10-15 16:11:34</time>
      </trkpt>
      <trkpt lat="38.36242" lon="-0.71887">
        <ele>188.4</ele>
        <time>2022-10-15 16:11:36</time>
      </trkpt>
      <trkpt lat="38.36238" lon="-0.71884">
        <ele>188.4</ele>
        <time>2022-10-15 16:11:37</time>
      </trkpt>
      <trkpt lat="38.36238" lon="-0.71884">
        <ele>188.4</ele>
        <time>2022-10-15 16:11:38</time>
      </trkpt>
      <trkpt lat="38.36228" lon="-0.71878">
        <ele>188.4</ele>
        <time>2022-10-15 16:11:39</time>
      </trkpt>
      <trkpt lat="38.36223" lon="-0.71874">
        <ele>188.4</ele>
        <time>2022-10-15 16:11:40</time>
      </trkpt>
      <trkpt lat="38.36219" lon="-0.71871">
        <ele>188.6</ele>
        <time>2022-10-15 16:11:41</time>
      </trkpt>
      <trkpt lat="38.36215" lon="-0.71868">
        <ele>188.6</ele>
        <time>2022-10-15 16:11:42</time>
      </trkpt>
      <trkpt lat="38.3621" lon="-0.71864">
        <ele>188.6</ele>
        <time>2022-10-15 16:11:43</time>
      </trkpt>
      <trkpt lat="38.3621" lon="-0.71864">
        <ele>188.6</ele>
        <time>2022-10-15 16:11:44</time>
      </trkpt>
      <trkpt lat="38.36202" lon="-0.71857">
        <ele>188.8</ele>
        <time>2022-10-15 16:11:45</time>
      </trkpt>
      <trkpt lat="38.36195" lon="-0.7185">
        <ele>188.8</ele>
        <time>2022-10-15 16:11:47</time>
      </trkpt>
      <trkpt lat="38.36191" lon="-0.71847">
        <ele>189.2</ele>
        <time>2022-10-15 16:11:48</time>
      </trkpt>
      <trkpt lat="38.36187" lon="-0.71843">
        <ele>189.2</ele>
        <time>2022-10-15 16:11:49</time>
      </trkpt>
      <trkpt lat="38.36187" lon="-0.71843">
        <ele>189.2</ele>
        <time>2022-10-15 16:11:50</time>
      </trkpt>
      <trkpt lat="38.3618" lon="-0.71836">
        <ele>189.2</ele>
        <time>2022-10-15 16:11:51</time>
      </trkpt>
      <trkpt lat="38.36174" lon="-0.71828">
        <ele>189.8</ele>
        <time>2022-10-15 16:11:53</time>
      </trkpt>
      <trkpt lat="38.3617" lon="-0.71824">
        <ele>190.2</ele>
        <time>2022-10-15 16:11:54</time>
      </trkpt>
      <trkpt lat="38.36167" lon="-0.71821">
        <ele>190.4</ele>
        <time>2022-10-15 16:11:55</time>
      </trkpt>
      <trkpt lat="38.36167" lon="-0.71821">
        <ele>190.6</ele>
        <time>2022-10-15 16:11:56</time>
      </trkpt>
      <trkpt lat="38.3616" lon="-0.71813">
        <ele>190.6</ele>
        <time>2022-10-15 16:11:57</time>
      </trkpt>
      <trkpt lat="38.36153" lon="-0.71805">
        <ele>190.8</ele>
        <time>2022-10-15 16:11:59</time>
      </trkpt>
      <trkpt lat="38.3615" lon="-0.71801">
        <ele>190.8</ele>
        <time>2022-10-15 16:12:00</time>
      </trkpt>
      <trkpt lat="38.36146" lon="-0.71797">
        <ele>190.8</ele>
        <time>2022-10-15 16:12:01</time>
      </trkpt>
      <trkpt lat="38.36146" lon="-0.71797">
        <ele>190.8</ele>
        <time>2022-10-15 16:12:02</time>
      </trkpt>
      <trkpt lat="38.36138" lon="-0.71789">
        <ele>191</ele>
        <time>2022-10-15 16:12:03</time>
      </trkpt>
      <trkpt lat="38.36135" lon="-0.71785">
        <ele>191</ele>
        <time>2022-10-15 16:12:04</time>
      </trkpt>
      <trkpt lat="38.36131" lon="-0.71782">
        <ele>191</ele>
        <time>2022-10-15 16:12:05</time>
      </trkpt>
      <trkpt lat="38.36127" lon="-0.71778">
        <ele>191</ele>
        <time>2022-10-15 16:12:06</time>
      </trkpt>
      <trkpt lat="38.36124" lon="-0.71774">
        <ele>191.2</ele>
        <time>2022-10-15 16:12:07</time>
      </trkpt>
      <trkpt lat="38.36124" lon="-0.71774">
        <ele>191.4</ele>
        <time>2022-10-15 16:12:08</time>
      </trkpt>
      <trkpt lat="38.36116" lon="-0.71767">
        <ele>191.4</ele>
        <time>2022-10-15 16:12:09</time>
      </trkpt>
      <trkpt lat="38.36112" lon="-0.71764">
        <ele>191.4</ele>
        <time>2022-10-15 16:12:10</time>
      </trkpt>
      <trkpt lat="38.36109" lon="-0.71761">
        <ele>191.6</ele>
        <time>2022-10-15 16:12:11</time>
      </trkpt>
      <trkpt lat="38.36102" lon="-0.71754">
        <ele>191.6</ele>
        <time>2022-10-15 16:12:13</time>
      </trkpt>
      <trkpt lat="38.36102" lon="-0.71754">
        <ele>191.8</ele>
        <time>2022-10-15 16:12:14</time>
      </trkpt>
      <trkpt lat="38.36095" lon="-0.71747">
        <ele>191.8</ele>
        <time>2022-10-15 16:12:15</time>
      </trkpt>
      <trkpt lat="38.36092" lon="-0.71744">
        <ele>191.8</ele>
        <time>2022-10-15 16:12:16</time>
      </trkpt>
      <trkpt lat="38.36085" lon="-0.71738">
        <ele>192</ele>
        <time>2022-10-15 16:12:18</time>
      </trkpt>
      <trkpt lat="38.36082" lon="-0.71735">
        <ele>192</ele>
        <time>2022-10-15 16:12:19</time>
      </trkpt>
      <trkpt lat="38.36082" lon="-0.71735">
        <ele>192.2</ele>
        <time>2022-10-15 16:12:20</time>
      </trkpt>
      <trkpt lat="38.36077" lon="-0.71729">
        <ele>192.2</ele>
        <time>2022-10-15 16:12:21</time>
      </trkpt>
      <trkpt lat="38.36071" lon="-0.71723">
        <ele>192.2</ele>
        <time>2022-10-15 16:12:23</time>
      </trkpt>
      <trkpt lat="38.36068" lon="-0.7172">
        <ele>192.4</ele>
        <time>2022-10-15 16:12:24</time>
      </trkpt>
      <trkpt lat="38.36065" lon="-0.71717">
        <ele>192.6</ele>
        <time>2022-10-15 16:12:25</time>
      </trkpt>
      <trkpt lat="38.36065" lon="-0.71717">
        <ele>192.8</ele>
        <time>2022-10-15 16:12:26</time>
      </trkpt>
      <trkpt lat="38.36057" lon="-0.71709">
        <ele>192.8</ele>
        <time>2022-10-15 16:12:28</time>
      </trkpt>
      <trkpt lat="38.36054" lon="-0.71706">
        <ele>192.8</ele>
        <time>2022-10-15 16:12:29</time>
      </trkpt>
      <trkpt lat="38.36051" lon="-0.71703">
        <ele>193</ele>
        <time>2022-10-15 16:12:30</time>
      </trkpt>
      <trkpt lat="38.36048" lon="-0.717">
        <ele>193</ele>
        <time>2022-10-15 16:12:31</time>
      </trkpt>
      <trkpt lat="38.36043" lon="-0.71695">
        <ele>193.2</ele>
        <time>2022-10-15 16:12:33</time>
      </trkpt>
      <trkpt lat="38.36041" lon="-0.71692">
        <ele>193.4</ele>
        <time>2022-10-15 16:12:34</time>
      </trkpt>
      <trkpt lat="38.36038" lon="-0.71689">
        <ele>193.6</ele>
        <time>2022-10-15 16:12:35</time>
      </trkpt>
      <trkpt lat="38.36036" lon="-0.71686">
        <ele>193.8</ele>
        <time>2022-10-15 16:12:36</time>
      </trkpt>
      <trkpt lat="38.36033" lon="-0.71683">
        <ele>193.8</ele>
        <time>2022-10-15 16:12:37</time>
      </trkpt>
      <trkpt lat="38.36033" lon="-0.71683">
        <ele>194</ele>
        <time>2022-10-15 16:12:38</time>
      </trkpt>
      <trkpt lat="38.36027" lon="-0.71677">
        <ele>194</ele>
        <time>2022-10-15 16:12:39</time>
      </trkpt>
      <trkpt lat="38.36024" lon="-0.71675">
        <ele>194.2</ele>
        <time>2022-10-15 16:12:40</time>
      </trkpt>
      <trkpt lat="38.36021" lon="-0.71672">
        <ele>194.2</ele>
        <time>2022-10-15 16:12:41</time>
      </trkpt>
      <trkpt lat="38.36018" lon="-0.71669">
        <ele>194.2</ele>
        <time>2022-10-15 16:12:42</time>
      </trkpt>
      <trkpt lat="38.36015" lon="-0.71666">
        <ele>194.2</ele>
        <time>2022-10-15 16:12:44</time>
      </trkpt>
      <trkpt lat="38.36009" lon="-0.7166">
        <ele>194.4</ele>
        <time>2022-10-15 16:12:45</time>
      </trkpt>
      <trkpt lat="38.36007" lon="-0.71658">
        <ele>194.4</ele>
        <time>2022-10-15 16:12:46</time>
      </trkpt>
      <trkpt lat="38.36004" lon="-0.71655">
        <ele>194.6</ele>
        <time>2022-10-15 16:12:47</time>
      </trkpt>
      <trkpt lat="38.36002" lon="-0.71653">
        <ele>194.6</ele>
        <time>2022-10-15 16:12:48</time>
      </trkpt>
      <trkpt lat="38.35999" lon="-0.7165">
        <ele>194.6</ele>
        <time>2022-10-15 16:12:49</time>
      </trkpt>
      <trkpt lat="38.35999" lon="-0.7165">
        <ele>194.8</ele>
        <time>2022-10-15 16:12:50</time>
      </trkpt>
      <trkpt lat="38.35995" lon="-0.71644">
        <ele>195</ele>
        <time>2022-10-15 16:12:51</time>
      </trkpt>
      <trkpt lat="38.35992" lon="-0.71642">
        <ele>195</ele>
        <time>2022-10-15 16:12:52</time>
      </trkpt>
      <trkpt lat="38.3599" lon="-0.71639">
        <ele>195</ele>
        <time>2022-10-15 16:12:53</time>
      </trkpt>
      <trkpt lat="38.35988" lon="-0.71636">
        <ele>195.2</ele>
        <time>2022-10-15 16:12:54</time>
      </trkpt>
      <trkpt lat="38.35986" lon="-0.71634">
        <ele>195.2</ele>
        <time>2022-10-15 16:12:55</time>
      </trkpt>
      <trkpt lat="38.35986" lon="-0.71634">
        <ele>195.2</ele>
        <time>2022-10-15 16:12:56</time>
      </trkpt>
      <trkpt lat="38.35982" lon="-0.71629">
        <ele>195.4</ele>
        <time>2022-10-15 16:12:57</time>
      </trkpt>
      <trkpt lat="38.35978" lon="-0.71624">
        <ele>195.6</ele>
        <time>2022-10-15 16:12:59</time>
      </trkpt>
      <trkpt lat="38.35976" lon="-0.71621">
        <ele>196.4</ele>
        <time>2022-10-15 16:13:00</time>
      </trkpt>
      <trkpt lat="38.35974" lon="-0.71618">
        <ele>196.6</ele>
        <time>2022-10-15 16:13:01</time>
      </trkpt>
      <trkpt lat="38.35974" lon="-0.71618">
        <ele>196.8</ele>
        <time>2022-10-15 16:13:02</time>
      </trkpt>
      <trkpt lat="38.3597" lon="-0.71613">
        <ele>197</ele>
        <time>2022-10-15 16:13:03</time>
      </trkpt>
      <trkpt lat="38.35968" lon="-0.71611">
        <ele>197</ele>
        <time>2022-10-15 16:13:04</time>
      </trkpt>
      <trkpt lat="38.35966" lon="-0.71608">
        <ele>197.2</ele>
        <time>2022-10-15 16:13:05</time>
      </trkpt>
      <trkpt lat="38.35964" lon="-0.71606">
        <ele>197.2</ele>
        <time>2022-10-15 16:13:06</time>
      </trkpt>
      <trkpt lat="38.35962" lon="-0.71604">
        <ele>197.2</ele>
        <time>2022-10-15 16:13:07</time>
      </trkpt>
      <trkpt lat="38.35962" lon="-0.71604">
        <ele>197.4</ele>
        <time>2022-10-15 16:13:08</time>
      </trkpt>
      <trkpt lat="38.35958" lon="-0.71599">
        <ele>197.4</ele>
        <time>2022-10-15 16:13:09</time>
      </trkpt>
      <trkpt lat="38.35956" lon="-0.71597">
        <ele>197.4</ele>
        <time>2022-10-15 16:13:10</time>
      </trkpt>
      <trkpt lat="38.35954" lon="-0.71595">
        <ele>197.6</ele>
        <time>2022-10-15 16:13:11</time>
      </trkpt>
      <trkpt lat="38.35952" lon="-0.71593">
        <ele>197.8</ele>
        <time>2022-10-15 16:13:12</time>
      </trkpt>
      <trkpt lat="38.3595" lon="-0.71591">
        <ele>198</ele>
        <time>2022-10-15 16:13:13</time>
      </trkpt>
      <trkpt lat="38.3595" lon="-0.71591">
        <ele>198</ele>
        <time>2022-10-15 16:13:14</time>
      </trkpt>
      <trkpt lat="38.35946" lon="-0.71587">
        <ele>198.2</ele>
        <time>2022-10-15 16:13:15</time>
      </trkpt>
      <trkpt lat="38.35944" lon="-0.71585">
        <ele>198.2</ele>
        <time>2022-10-15 16:13:16</time>
      </trkpt>
      <trkpt lat="38.35942" lon="-0.71583">
        <ele>198.4</ele>
        <time>2022-10-15 16:13:17</time>
      </trkpt>
      <trkpt lat="38.3594" lon="-0.71581">
        <ele>198.6</ele>
        <time>2022-10-15 16:13:18</time>
      </trkpt>
      <trkpt lat="38.35939" lon="-0.71578">
        <ele>198.8</ele>
        <time>2022-10-15 16:13:20</time>
      </trkpt>
      <trkpt lat="38.35935" lon="-0.71574">
        <ele>198.8</ele>
        <time>2022-10-15 16:13:21</time>
      </trkpt>
      <trkpt lat="38.35933" lon="-0.71572">
        <ele>199</ele>
        <time>2022-10-15 16:13:22</time>
      </trkpt>
      <trkpt lat="38.35931" lon="-0.7157">
        <ele>199.2</ele>
        <time>2022-10-15 16:13:23</time>
      </trkpt>
      <trkpt lat="38.35929" lon="-0.71567">
        <ele>199.4</ele>
        <time>2022-10-15 16:13:24</time>
      </trkpt>
      <trkpt lat="38.35927" lon="-0.71565">
        <ele>199.4</ele>
        <time>2022-10-15 16:13:25</time>
      </trkpt>
      <trkpt lat="38.35927" lon="-0.71565">
        <ele>199.6</ele>
        <time>2022-10-15 16:13:26</time>
      </trkpt>
      <trkpt lat="38.35922" lon="-0.71561">
        <ele>199.6</ele>
        <time>2022-10-15 16:13:27</time>
      </trkpt>
      <trkpt lat="38.3592" lon="-0.71559">
        <ele>199.6</ele>
        <time>2022-10-15 16:13:28</time>
      </trkpt>
      <trkpt lat="38.35915" lon="-0.71554">
        <ele>199.8</ele>
        <time>2022-10-15 16:13:30</time>
      </trkpt>
      <trkpt lat="38.35913" lon="-0.71552">
        <ele>199.8</ele>
        <time>2022-10-15 16:13:31</time>
      </trkpt>
      <trkpt lat="38.35908" lon="-0.71547">
        <ele>199.8</ele>
        <time>2022-10-15 16:13:33</time>
      </trkpt>
      <trkpt lat="38.35906" lon="-0.71544">
        <ele>199.8</ele>
        <time>2022-10-15 16:13:34</time>
      </trkpt>
      <trkpt lat="38.35903" lon="-0.71541">
        <ele>199.8</ele>
        <time>2022-10-15 16:13:35</time>
      </trkpt>
      <trkpt lat="38.35901" lon="-0.71539">
        <ele>199.8</ele>
        <time>2022-10-15 16:13:36</time>
      </trkpt>
      <trkpt lat="38.35898" lon="-0.71536">
        <ele>200</ele>
        <time>2022-10-15 16:13:37</time>
      </trkpt>
      <trkpt lat="38.35898" lon="-0.71536">
        <ele>200.2</ele>
        <time>2022-10-15 16:13:38</time>
      </trkpt>
      <trkpt lat="38.35893" lon="-0.71531">
        <ele>200</ele>
        <time>2022-10-15 16:13:39</time>
      </trkpt>
      <trkpt lat="38.35891" lon="-0.71529">
        <ele>200.2</ele>
        <time>2022-10-15 16:13:40</time>
      </trkpt>
      <trkpt lat="38.35888" lon="-0.71526">
        <ele>200.2</ele>
        <time>2022-10-15 16:13:41</time>
      </trkpt>
      <trkpt lat="38.35884" lon="-0.71521">
        <ele>200.4</ele>
        <time>2022-10-15 16:13:43</time>
      </trkpt>
      <trkpt lat="38.35884" lon="-0.71521">
        <ele>200.6</ele>
        <time>2022-10-15 16:13:44</time>
      </trkpt>
      <trkpt lat="38.35879" lon="-0.71516">
        <ele>200.8</ele>
        <time>2022-10-15 16:13:45</time>
      </trkpt>
      <trkpt lat="38.35876" lon="-0.71513">
        <ele>200.8</ele>
        <time>2022-10-15 16:13:46</time>
      </trkpt>
      <trkpt lat="38.35874" lon="-0.7151">
        <ele>201</ele>
        <time>2022-10-15 16:13:47</time>
      </trkpt>
      <trkpt lat="38.35869" lon="-0.71506">
        <ele>201</ele>
        <time>2022-10-15 16:13:49</time>
      </trkpt>
      <trkpt lat="38.35869" lon="-0.71506">
        <ele>201.2</ele>
        <time>2022-10-15 16:13:50</time>
      </trkpt>
      <trkpt lat="38.35863" lon="-0.71501">
        <ele>201.2</ele>
        <time>2022-10-15 16:13:51</time>
      </trkpt>
      <trkpt lat="38.35861" lon="-0.71498">
        <ele>201.2</ele>
        <time>2022-10-15 16:13:52</time>
      </trkpt>
      <trkpt lat="38.35858" lon="-0.71496">
        <ele>201.2</ele>
        <time>2022-10-15 16:13:53</time>
      </trkpt>
      <trkpt lat="38.35855" lon="-0.71493">
        <ele>201.4</ele>
        <time>2022-10-15 16:13:54</time>
      </trkpt>
      <trkpt lat="38.35852" lon="-0.71491">
        <ele>201.6</ele>
        <time>2022-10-15 16:13:55</time>
      </trkpt>
      <trkpt lat="38.35852" lon="-0.71491">
        <ele>201.8</ele>
        <time>2022-10-15 16:13:56</time>
      </trkpt>
      <trkpt lat="38.35847" lon="-0.71488">
        <ele>201.8</ele>
        <time>2022-10-15 16:13:57</time>
      </trkpt>
      <trkpt lat="38.3584" lon="-0.71485">
        <ele>202</ele>
        <time>2022-10-15 16:13:59</time>
      </trkpt>
      <trkpt lat="38.35838" lon="-0.71483">
        <ele>202</ele>
        <time>2022-10-15 16:14:00</time>
      </trkpt>
      <trkpt lat="38.35835" lon="-0.71482">
        <ele>202</ele>
        <time>2022-10-15 16:14:01</time>
      </trkpt>
      <trkpt lat="38.35835" lon="-0.71482">
        <ele>202</ele>
        <time>2022-10-15 16:14:02</time>
      </trkpt>
      <trkpt lat="38.3583" lon="-0.71479">
        <ele>202.2</ele>
        <time>2022-10-15 16:14:03</time>
      </trkpt>
      <trkpt lat="38.35828" lon="-0.71477">
        <ele>202.2</ele>
        <time>2022-10-15 16:14:04</time>
      </trkpt>
      <trkpt lat="38.35825" lon="-0.71476">
        <ele>202.2</ele>
        <time>2022-10-15 16:14:05</time>
      </trkpt>
      <trkpt lat="38.35822" lon="-0.71475">
        <ele>202.2</ele>
        <time>2022-10-15 16:14:06</time>
      </trkpt>
      <trkpt lat="38.3582" lon="-0.71473">
        <ele>202.4</ele>
        <time>2022-10-15 16:14:08</time>
      </trkpt>
      <trkpt lat="38.35814" lon="-0.7147">
        <ele>202.6</ele>
        <time>2022-10-15 16:14:09</time>
      </trkpt>
      <trkpt lat="38.35812" lon="-0.71469">
        <ele>202.6</ele>
        <time>2022-10-15 16:14:10</time>
      </trkpt>
      <trkpt lat="38.35809" lon="-0.71467">
        <ele>202.8</ele>
        <time>2022-10-15 16:14:11</time>
      </trkpt>
      <trkpt lat="38.35806" lon="-0.71466">
        <ele>203</ele>
        <time>2022-10-15 16:14:12</time>
      </trkpt>
      <trkpt lat="38.35803" lon="-0.71464">
        <ele>203</ele>
        <time>2022-10-15 16:14:13</time>
      </trkpt>
      <trkpt lat="38.35803" lon="-0.71464">
        <ele>203</ele>
        <time>2022-10-15 16:14:14</time>
      </trkpt>
      <trkpt lat="38.35798" lon="-0.71461">
        <ele>203</ele>
        <time>2022-10-15 16:14:15</time>
      </trkpt>
      <trkpt lat="38.35795" lon="-0.7146">
        <ele>203.2</ele>
        <time>2022-10-15 16:14:16</time>
      </trkpt>
      <trkpt lat="38.35791" lon="-0.71458">
        <ele>203.2</ele>
        <time>2022-10-15 16:14:18</time>
      </trkpt>
      <trkpt lat="38.35788" lon="-0.71457">
        <ele>203.2</ele>
        <time>2022-10-15 16:14:19</time>
      </trkpt>
      <trkpt lat="38.35788" lon="-0.71457">
        <ele>203.4</ele>
        <time>2022-10-15 16:14:20</time>
      </trkpt>
      <trkpt lat="38.35782" lon="-0.71455">
        <ele>203.6</ele>
        <time>2022-10-15 16:14:21</time>
      </trkpt>
      <trkpt lat="38.35776" lon="-0.71452">
        <ele>203.6</ele>
        <time>2022-10-15 16:14:23</time>
      </trkpt>
      <trkpt lat="38.35773" lon="-0.71451">
        <ele>203.6</ele>
        <time>2022-10-15 16:14:24</time>
      </trkpt>
      <trkpt lat="38.3577" lon="-0.71449">
        <ele>203.6</ele>
        <time>2022-10-15 16:14:25</time>
      </trkpt>
      <trkpt lat="38.3577" lon="-0.71449">
        <ele>203.8</ele>
        <time>2022-10-15 16:14:26</time>
      </trkpt>
      <trkpt lat="38.35764" lon="-0.71447">
        <ele>203.8</ele>
        <time>2022-10-15 16:14:27</time>
      </trkpt>
      <trkpt lat="38.3576" lon="-0.71446">
        <ele>203.8</ele>
        <time>2022-10-15 16:14:28</time>
      </trkpt>
      <trkpt lat="38.35757" lon="-0.71444">
        <ele>203.8</ele>
        <time>2022-10-15 16:14:29</time>
      </trkpt>
      <trkpt lat="38.3575" lon="-0.71441">
        <ele>203.8</ele>
        <time>2022-10-15 16:14:31</time>
      </trkpt>
      <trkpt lat="38.35741" lon="-0.71436">
        <ele>204</ele>
        <time>2022-10-15 16:14:34</time>
      </trkpt>
      <trkpt lat="38.35738" lon="-0.71434">
        <ele>204</ele>
        <time>2022-10-15 16:14:35</time>
      </trkpt>
      <trkpt lat="38.35732" lon="-0.7143">
        <ele>203.8</ele>
        <time>2022-10-15 16:14:37</time>
      </trkpt>
      <trkpt lat="38.35727" lon="-0.71426">
        <ele>203.8</ele>
        <time>2022-10-15 16:14:39</time>
      </trkpt>
      <trkpt lat="38.35725" lon="-0.71424">
        <ele>203.8</ele>
        <time>2022-10-15 16:14:40</time>
      </trkpt>
      <trkpt lat="38.3572" lon="-0.7142">
        <ele>204</ele>
        <time>2022-10-15 16:14:42</time>
      </trkpt>
      <trkpt lat="38.35717" lon="-0.71418">
        <ele>204</ele>
        <time>2022-10-15 16:14:44</time>
      </trkpt>
      <trkpt lat="38.35711" lon="-0.71414">
        <ele>204</ele>
        <time>2022-10-15 16:14:46</time>
      </trkpt>
      <trkpt lat="38.35709" lon="-0.71412">
        <ele>204</ele>
        <time>2022-10-15 16:14:47</time>
      </trkpt>
      <trkpt lat="38.35703" lon="-0.71409">
        <ele>204.2</ele>
        <time>2022-10-15 16:14:49</time>
      </trkpt>
      <trkpt lat="38.35699" lon="-0.71404">
        <ele>204.2</ele>
        <time>2022-10-15 16:14:51</time>
      </trkpt>
      <trkpt lat="38.35693" lon="-0.71399">
        <ele>204.2</ele>
        <time>2022-10-15 16:14:53</time>
      </trkpt>
      <trkpt lat="38.35688" lon="-0.71394">
        <ele>204.2</ele>
        <time>2022-10-15 16:14:55</time>
      </trkpt>
      <trkpt lat="38.35688" lon="-0.71394">
        <ele>204.4</ele>
        <time>2022-10-15 16:14:56</time>
      </trkpt>
      <trkpt lat="38.3568" lon="-0.71387">
        <ele>204.4</ele>
        <time>2022-10-15 16:14:58</time>
      </trkpt>
      <trkpt lat="38.35675" lon="-0.71382">
        <ele>204.6</ele>
        <time>2022-10-15 16:15:00</time>
      </trkpt>
      <trkpt lat="38.35673" lon="-0.7138">
        <ele>204.6</ele>
        <time>2022-10-15 16:15:02</time>
      </trkpt>
      <trkpt lat="38.35668" lon="-0.71375">
        <ele>204.8</ele>
        <time>2022-10-15 16:15:03</time>
      </trkpt>
      <trkpt lat="38.35663" lon="-0.71369">
        <ele>205</ele>
        <time>2022-10-15 16:15:05</time>
      </trkpt>
      <trkpt lat="38.35659" lon="-0.71364">
        <ele>205</ele>
        <time>2022-10-15 16:15:07</time>
      </trkpt>
      <trkpt lat="38.35654" lon="-0.71357">
        <ele>205.2</ele>
        <time>2022-10-15 16:15:09</time>
      </trkpt>
      <trkpt lat="38.35651" lon="-0.71354">
        <ele>205.2</ele>
        <time>2022-10-15 16:15:10</time>
      </trkpt>
      <trkpt lat="38.35649" lon="-0.71352">
        <ele>205.2</ele>
        <time>2022-10-15 16:15:11</time>
      </trkpt>
      <trkpt lat="38.35647" lon="-0.71349">
        <ele>205.2</ele>
        <time>2022-10-15 16:15:12</time>
      </trkpt>
      <trkpt lat="38.35644" lon="-0.71346">
        <ele>205.4</ele>
        <time>2022-10-15 16:15:14</time>
      </trkpt>
      <trkpt lat="38.35638" lon="-0.71337">
        <ele>205.4</ele>
        <time>2022-10-15 16:15:16</time>
      </trkpt>
      <trkpt lat="38.35636" lon="-0.71333">
        <ele>205.6</ele>
        <time>2022-10-15 16:15:17</time>
      </trkpt>
      <trkpt lat="38.35634" lon="-0.7133">
        <ele>205.8</ele>
        <time>2022-10-15 16:15:18</time>
      </trkpt>
      <trkpt lat="38.35632" lon="-0.71327">
        <ele>206.2</ele>
        <time>2022-10-15 16:15:19</time>
      </trkpt>
      <trkpt lat="38.35627" lon="-0.71321">
        <ele>206.4</ele>
        <time>2022-10-15 16:15:21</time>
      </trkpt>
      <trkpt lat="38.35625" lon="-0.71318">
        <ele>206.6</ele>
        <time>2022-10-15 16:15:22</time>
      </trkpt>
      <trkpt lat="38.3562" lon="-0.71312">
        <ele>207</ele>
        <time>2022-10-15 16:15:24</time>
      </trkpt>
      <trkpt lat="38.35613" lon="-0.71302">
        <ele>207.2</ele>
        <time>2022-10-15 16:15:27</time>
      </trkpt>
      <trkpt lat="38.35611" lon="-0.71299">
        <ele>207.2</ele>
        <time>2022-10-15 16:15:28</time>
      </trkpt>
      <trkpt lat="38.35607" lon="-0.71292">
        <ele>207.4</ele>
        <time>2022-10-15 16:15:30</time>
      </trkpt>
      <trkpt lat="38.35605" lon="-0.71289">
        <ele>207.4</ele>
        <time>2022-10-15 16:15:31</time>
      </trkpt>
      <trkpt lat="38.35605" lon="-0.71289">
        <ele>207.4</ele>
        <time>2022-10-15 16:15:32</time>
      </trkpt>
      <trkpt lat="38.356" lon="-0.71282">
        <ele>207.6</ele>
        <time>2022-10-15 16:15:33</time>
      </trkpt>
      <trkpt lat="38.35596" lon="-0.71276">
        <ele>207.6</ele>
        <time>2022-10-15 16:15:35</time>
      </trkpt>
      <trkpt lat="38.35594" lon="-0.71273">
        <ele>207.6</ele>
        <time>2022-10-15 16:15:36</time>
      </trkpt>
      <trkpt lat="38.35591" lon="-0.7127">
        <ele>207.6</ele>
        <time>2022-10-15 16:15:37</time>
      </trkpt>
      <trkpt lat="38.35591" lon="-0.7127">
        <ele>207.6</ele>
        <time>2022-10-15 16:15:38</time>
      </trkpt>
      <trkpt lat="38.35586" lon="-0.71262">
        <ele>207.8</ele>
        <time>2022-10-15 16:15:39</time>
      </trkpt>
      <trkpt lat="38.35581" lon="-0.71254">
        <ele>207.8</ele>
        <time>2022-10-15 16:15:41</time>
      </trkpt>
      <trkpt lat="38.35578" lon="-0.71249">
        <ele>207.8</ele>
        <time>2022-10-15 16:15:42</time>
      </trkpt>
      <trkpt lat="38.35575" lon="-0.71245">
        <ele>207.8</ele>
        <time>2022-10-15 16:15:43</time>
      </trkpt>
      <trkpt lat="38.35575" lon="-0.71245">
        <ele>208</ele>
        <time>2022-10-15 16:15:44</time>
      </trkpt>
      <trkpt lat="38.3557" lon="-0.71237">
        <ele>208</ele>
        <time>2022-10-15 16:15:45</time>
      </trkpt>
      <trkpt lat="38.35567" lon="-0.71233">
        <ele>208</ele>
        <time>2022-10-15 16:15:46</time>
      </trkpt>
      <trkpt lat="38.35564" lon="-0.71229">
        <ele>208</ele>
        <time>2022-10-15 16:15:47</time>
      </trkpt>
      <trkpt lat="38.35561" lon="-0.71225">
        <ele>208</ele>
        <time>2022-10-15 16:15:48</time>
      </trkpt>
      <trkpt lat="38.35557" lon="-0.7122">
        <ele>208</ele>
        <time>2022-10-15 16:15:49</time>
      </trkpt>
      <trkpt lat="38.35557" lon="-0.7122">
        <ele>208</ele>
        <time>2022-10-15 16:15:50</time>
      </trkpt>
      <trkpt lat="38.35548" lon="-0.71207">
        <ele>208</ele>
        <time>2022-10-15 16:15:52</time>
      </trkpt>
      <trkpt lat="38.35545" lon="-0.71203">
        <ele>208</ele>
        <time>2022-10-15 16:15:53</time>
      </trkpt>
      <trkpt lat="38.35542" lon="-0.71198">
        <ele>208</ele>
        <time>2022-10-15 16:15:54</time>
      </trkpt>
      <trkpt lat="38.35538" lon="-0.71193">
        <ele>208</ele>
        <time>2022-10-15 16:15:55</time>
      </trkpt>
      <trkpt lat="38.35532" lon="-0.71182">
        <ele>208.2</ele>
        <time>2022-10-15 16:15:57</time>
      </trkpt>
      <trkpt lat="38.35529" lon="-0.71177">
        <ele>208.2</ele>
        <time>2022-10-15 16:15:58</time>
      </trkpt>
      <trkpt lat="38.35526" lon="-0.71171">
        <ele>208.2</ele>
        <time>2022-10-15 16:15:59</time>
      </trkpt>
      <trkpt lat="38.35523" lon="-0.71165">
        <ele>208.2</ele>
        <time>2022-10-15 16:16:00</time>
      </trkpt>
      <trkpt lat="38.3552" lon="-0.71159">
        <ele>208</ele>
        <time>2022-10-15 16:16:02</time>
      </trkpt>
      <trkpt lat="38.35513" lon="-0.71149">
        <ele>208</ele>
        <time>2022-10-15 16:16:03</time>
      </trkpt>
      <trkpt lat="38.3551" lon="-0.71145">
        <ele>207.8</ele>
        <time>2022-10-15 16:16:04</time>
      </trkpt>
      <trkpt lat="38.35506" lon="-0.7114">
        <ele>207.8</ele>
        <time>2022-10-15 16:16:05</time>
      </trkpt>
      <trkpt lat="38.35502" lon="-0.71136">
        <ele>207.8</ele>
        <time>2022-10-15 16:16:06</time>
      </trkpt>
      <trkpt lat="38.35498" lon="-0.71132">
        <ele>207.8</ele>
        <time>2022-10-15 16:16:07</time>
      </trkpt>
      <trkpt lat="38.35498" lon="-0.71132">
        <ele>207.6</ele>
        <time>2022-10-15 16:16:08</time>
      </trkpt>
      <trkpt lat="38.35489" lon="-0.71124">
        <ele>207.6</ele>
        <time>2022-10-15 16:16:09</time>
      </trkpt>
      <trkpt lat="38.35485" lon="-0.71121">
        <ele>207.4</ele>
        <time>2022-10-15 16:16:10</time>
      </trkpt>
      <trkpt lat="38.35476" lon="-0.71113">
        <ele>207</ele>
        <time>2022-10-15 16:16:12</time>
      </trkpt>
      <trkpt lat="38.35471" lon="-0.7111">
        <ele>207</ele>
        <time>2022-10-15 16:16:13</time>
      </trkpt>
      <trkpt lat="38.35471" lon="-0.7111">
        <ele>207</ele>
        <time>2022-10-15 16:16:14</time>
      </trkpt>
      <trkpt lat="38.35462" lon="-0.71103">
        <ele>207</ele>
        <time>2022-10-15 16:16:15</time>
      </trkpt>
      <trkpt lat="38.35454" lon="-0.71096">
        <ele>207</ele>
        <time>2022-10-15 16:16:17</time>
      </trkpt>
      <trkpt lat="38.3545" lon="-0.71093">
        <ele>206.8</ele>
        <time>2022-10-15 16:16:18</time>
      </trkpt>
      <trkpt lat="38.35446" lon="-0.7109">
        <ele>206.8</ele>
        <time>2022-10-15 16:16:19</time>
      </trkpt>
      <trkpt lat="38.35446" lon="-0.7109">
        <ele>206.8</ele>
        <time>2022-10-15 16:16:20</time>
      </trkpt>
      <trkpt lat="38.35435" lon="-0.7108">
        <ele>207</ele>
        <time>2022-10-15 16:16:22</time>
      </trkpt>
      <trkpt lat="38.35431" lon="-0.71077">
        <ele>207</ele>
        <time>2022-10-15 16:16:23</time>
      </trkpt>
      <trkpt lat="38.35427" lon="-0.71074">
        <ele>207</ele>
        <time>2022-10-15 16:16:24</time>
      </trkpt>
      <trkpt lat="38.35424" lon="-0.7107">
        <ele>207</ele>
        <time>2022-10-15 16:16:25</time>
      </trkpt>
      <trkpt lat="38.35417" lon="-0.71062">
        <ele>207.4</ele>
        <time>2022-10-15 16:16:27</time>
      </trkpt>
      <trkpt lat="38.35414" lon="-0.71058">
        <ele>207.6</ele>
        <time>2022-10-15 16:16:28</time>
      </trkpt>
      <trkpt lat="38.35412" lon="-0.71053">
        <ele>207.8</ele>
        <time>2022-10-15 16:16:29</time>
      </trkpt>
      <trkpt lat="38.35409" lon="-0.71048">
        <ele>207.8</ele>
        <time>2022-10-15 16:16:30</time>
      </trkpt>
      <trkpt lat="38.35407" lon="-0.71043">
        <ele>208</ele>
        <time>2022-10-15 16:16:32</time>
      </trkpt>
      <trkpt lat="38.35403" lon="-0.71033">
        <ele>208</ele>
        <time>2022-10-15 16:16:33</time>
      </trkpt>
      <trkpt lat="38.35401" lon="-0.71027">
        <ele>208.4</ele>
        <time>2022-10-15 16:16:34</time>
      </trkpt>
      <trkpt lat="38.35399" lon="-0.71021">
        <ele>208.6</ele>
        <time>2022-10-15 16:16:35</time>
      </trkpt>
      <trkpt lat="38.35398" lon="-0.71015">
        <ele>208.8</ele>
        <time>2022-10-15 16:16:36</time>
      </trkpt>
      <trkpt lat="38.35396" lon="-0.71008">
        <ele>209</ele>
        <time>2022-10-15 16:16:37</time>
      </trkpt>
      <trkpt lat="38.35396" lon="-0.71008">
        <ele>209</ele>
        <time>2022-10-15 16:16:38</time>
      </trkpt>
      <trkpt lat="38.35393" lon="-0.70996">
        <ele>209.2</ele>
        <time>2022-10-15 16:16:39</time>
      </trkpt>
      <trkpt lat="38.35391" lon="-0.70989">
        <ele>209.2</ele>
        <time>2022-10-15 16:16:40</time>
      </trkpt>
      <trkpt lat="38.3539" lon="-0.70982">
        <ele>209.2</ele>
        <time>2022-10-15 16:16:41</time>
      </trkpt>
      <trkpt lat="38.35389" lon="-0.70976">
        <ele>209.2</ele>
        <time>2022-10-15 16:16:42</time>
      </trkpt>
      <trkpt lat="38.35388" lon="-0.70969">
        <ele>209.4</ele>
        <time>2022-10-15 16:16:43</time>
      </trkpt>
      <trkpt lat="38.35388" lon="-0.70969">
        <ele>209.4</ele>
        <time>2022-10-15 16:16:44</time>
      </trkpt>
      <trkpt lat="38.35385" lon="-0.70949">
        <ele>209.4</ele>
        <time>2022-10-15 16:16:46</time>
      </trkpt>
      <trkpt lat="38.35384" lon="-0.70943">
        <ele>209.4</ele>
        <time>2022-10-15 16:16:47</time>
      </trkpt>
      <trkpt lat="38.35382" lon="-0.70936">
        <ele>209.4</ele>
        <time>2022-10-15 16:16:48</time>
      </trkpt>
      <trkpt lat="38.35381" lon="-0.7093">
        <ele>209.4</ele>
        <time>2022-10-15 16:16:49</time>
      </trkpt>
      <trkpt lat="38.35379" lon="-0.70917">
        <ele>209.2</ele>
        <time>2022-10-15 16:16:51</time>
      </trkpt>
      <trkpt lat="38.35378" lon="-0.7091">
        <ele>209.2</ele>
        <time>2022-10-15 16:16:52</time>
      </trkpt>
      <trkpt lat="38.35376" lon="-0.70904">
        <ele>209.2</ele>
        <time>2022-10-15 16:16:53</time>
      </trkpt>
      <trkpt lat="38.35375" lon="-0.70897">
        <ele>209.2</ele>
        <time>2022-10-15 16:16:54</time>
      </trkpt>
      <trkpt lat="38.35373" lon="-0.7089">
        <ele>209.2</ele>
        <time>2022-10-15 16:16:55</time>
      </trkpt>
      <trkpt lat="38.35373" lon="-0.7089">
        <ele>209.2</ele>
        <time>2022-10-15 16:16:56</time>
      </trkpt>
      <trkpt lat="38.3537" lon="-0.70876">
        <ele>209.2</ele>
        <time>2022-10-15 16:16:57</time>
      </trkpt>
      <trkpt lat="38.35368" lon="-0.70869">
        <ele>209.2</ele>
        <time>2022-10-15 16:16:58</time>
      </trkpt>
      <trkpt lat="38.35367" lon="-0.70863">
        <ele>209.2</ele>
        <time>2022-10-15 16:16:59</time>
      </trkpt>
      <trkpt lat="38.35363" lon="-0.7085">
        <ele>209.4</ele>
        <time>2022-10-15 16:17:01</time>
      </trkpt>
      <trkpt lat="38.35363" lon="-0.7085">
        <ele>209.4</ele>
        <time>2022-10-15 16:17:02</time>
      </trkpt>
      <trkpt lat="38.35358" lon="-0.70837">
        <ele>209.4</ele>
        <time>2022-10-15 16:17:03</time>
      </trkpt>
      <trkpt lat="38.35356" lon="-0.70831">
        <ele>209.4</ele>
        <time>2022-10-15 16:17:04</time>
      </trkpt>
      <trkpt lat="38.35352" lon="-0.7082">
        <ele>209.4</ele>
        <time>2022-10-15 16:17:06</time>
      </trkpt>
      <trkpt lat="38.35349" lon="-0.70815">
        <ele>209.4</ele>
        <time>2022-10-15 16:17:07</time>
      </trkpt>
      <trkpt lat="38.35349" lon="-0.70815">
        <ele>209.2</ele>
        <time>2022-10-15 16:17:08</time>
      </trkpt>
      <trkpt lat="38.35345" lon="-0.70804">
        <ele>209.2</ele>
        <time>2022-10-15 16:17:09</time>
      </trkpt>
      <trkpt lat="38.3534" lon="-0.70793">
        <ele>209.2</ele>
        <time>2022-10-15 16:17:11</time>
      </trkpt>
      <trkpt lat="38.35337" lon="-0.70787">
        <ele>209</ele>
        <time>2022-10-15 16:17:12</time>
      </trkpt>
      <trkpt lat="38.35335" lon="-0.70782">
        <ele>209</ele>
        <time>2022-10-15 16:17:13</time>
      </trkpt>
      <trkpt lat="38.35335" lon="-0.70782">
        <ele>209</ele>
        <time>2022-10-15 16:17:14</time>
      </trkpt>
      <trkpt lat="38.35327" lon="-0.70766">
        <ele>208.8</ele>
        <time>2022-10-15 16:17:16</time>
      </trkpt>
      <trkpt lat="38.35325" lon="-0.70761">
        <ele>208.8</ele>
        <time>2022-10-15 16:17:17</time>
      </trkpt>
      <trkpt lat="38.35322" lon="-0.70756">
        <ele>208.8</ele>
        <time>2022-10-15 16:17:18</time>
      </trkpt>
      <trkpt lat="38.3532" lon="-0.70751">
        <ele>208.8</ele>
        <time>2022-10-15 16:17:19</time>
      </trkpt>
      <trkpt lat="38.35316" lon="-0.70741">
        <ele>209</ele>
        <time>2022-10-15 16:17:21</time>
      </trkpt>
      <trkpt lat="38.35313" lon="-0.70736">
        <ele>209</ele>
        <time>2022-10-15 16:17:22</time>
      </trkpt>
      <trkpt lat="38.35311" lon="-0.70731">
        <ele>209</ele>
        <time>2022-10-15 16:17:23</time>
      </trkpt>
      <trkpt lat="38.35309" lon="-0.70727">
        <ele>209</ele>
        <time>2022-10-15 16:17:24</time>
      </trkpt>
      <trkpt lat="38.35306" lon="-0.70723">
        <ele>208.8</ele>
        <time>2022-10-15 16:17:25</time>
      </trkpt>
      <trkpt lat="38.35306" lon="-0.70723">
        <ele>209.2</ele>
        <time>2022-10-15 16:17:26</time>
      </trkpt>
      <trkpt lat="38.35302" lon="-0.70715">
        <ele>209.2</ele>
        <time>2022-10-15 16:17:27</time>
      </trkpt>
      <trkpt lat="38.353" lon="-0.70711">
        <ele>209.4</ele>
        <time>2022-10-15 16:17:28</time>
      </trkpt>
      <trkpt lat="38.35298" lon="-0.70707">
        <ele>209.6</ele>
        <time>2022-10-15 16:17:29</time>
      </trkpt>
      <trkpt lat="38.35295" lon="-0.70703">
        <ele>209.8</ele>
        <time>2022-10-15 16:17:30</time>
      </trkpt>
      <trkpt lat="38.35293" lon="-0.70699">
        <ele>210</ele>
        <time>2022-10-15 16:17:31</time>
      </trkpt>
      <trkpt lat="38.35289" lon="-0.70691">
        <ele>210.4</ele>
        <time>2022-10-15 16:17:33</time>
      </trkpt>
      <trkpt lat="38.35286" lon="-0.70686">
        <ele>210.4</ele>
        <time>2022-10-15 16:17:34</time>
      </trkpt>
      <trkpt lat="38.35284" lon="-0.70682">
        <ele>210.4</ele>
        <time>2022-10-15 16:17:35</time>
      </trkpt>
      <trkpt lat="38.35281" lon="-0.70678">
        <ele>210.4</ele>
        <time>2022-10-15 16:17:36</time>
      </trkpt>
      <trkpt lat="38.35278" lon="-0.70674">
        <ele>210.4</ele>
        <time>2022-10-15 16:17:38</time>
      </trkpt>
      <trkpt lat="38.35273" lon="-0.70664">
        <ele>210.4</ele>
        <time>2022-10-15 16:17:39</time>
      </trkpt>
      <trkpt lat="38.3527" lon="-0.70659">
        <ele>210.4</ele>
        <time>2022-10-15 16:17:40</time>
      </trkpt>
      <trkpt lat="38.35266" lon="-0.70654">
        <ele>210.4</ele>
        <time>2022-10-15 16:17:41</time>
      </trkpt>
      <trkpt lat="38.35263" lon="-0.70649">
        <ele>210.4</ele>
        <time>2022-10-15 16:17:42</time>
      </trkpt>
      <trkpt lat="38.3526" lon="-0.70644">
        <ele>210.4</ele>
        <time>2022-10-15 16:17:43</time>
      </trkpt>
      <trkpt lat="38.3526" lon="-0.70644">
        <ele>210.2</ele>
        <time>2022-10-15 16:17:44</time>
      </trkpt>
      <trkpt lat="38.35253" lon="-0.70634">
        <ele>210.2</ele>
        <time>2022-10-15 16:17:45</time>
      </trkpt>
      <trkpt lat="38.3525" lon="-0.70629">
        <ele>210.2</ele>
        <time>2022-10-15 16:17:46</time>
      </trkpt>
      <trkpt lat="38.35244" lon="-0.70619">
        <ele>210</ele>
        <time>2022-10-15 16:17:48</time>
      </trkpt>
      <trkpt lat="38.35241" lon="-0.70614">
        <ele>210</ele>
        <time>2022-10-15 16:17:49</time>
      </trkpt>
      <trkpt lat="38.35241" lon="-0.70614">
        <ele>209.8</ele>
        <time>2022-10-15 16:17:50</time>
      </trkpt>
      <trkpt lat="38.35234" lon="-0.70606">
        <ele>209.8</ele>
        <time>2022-10-15 16:17:51</time>
      </trkpt>
      <trkpt lat="38.35227" lon="-0.70598">
        <ele>209.6</ele>
        <time>2022-10-15 16:17:53</time>
      </trkpt>
      <trkpt lat="38.35223" lon="-0.70594">
        <ele>209.6</ele>
        <time>2022-10-15 16:17:54</time>
      </trkpt>
      <trkpt lat="38.3522" lon="-0.70591">
        <ele>209.6</ele>
        <time>2022-10-15 16:17:55</time>
      </trkpt>
      <trkpt lat="38.3522" lon="-0.70591">
        <ele>209.6</ele>
        <time>2022-10-15 16:17:56</time>
      </trkpt>
      <trkpt lat="38.35208" lon="-0.70581">
        <ele>209.6</ele>
        <time>2022-10-15 16:17:58</time>
      </trkpt>
      <trkpt lat="38.35205" lon="-0.70578">
        <ele>209.6</ele>
        <time>2022-10-15 16:17:59</time>
      </trkpt>
      <trkpt lat="38.35201" lon="-0.70575">
        <ele>209.6</ele>
        <time>2022-10-15 16:18:00</time>
      </trkpt>
      <trkpt lat="38.35197" lon="-0.70572">
        <ele>209.6</ele>
        <time>2022-10-15 16:18:01</time>
      </trkpt>
      <trkpt lat="38.35197" lon="-0.70572">
        <ele>209.6</ele>
        <time>2022-10-15 16:18:02</time>
      </trkpt>
      <trkpt lat="38.35185" lon="-0.70562">
        <ele>209.6</ele>
        <time>2022-10-15 16:18:04</time>
      </trkpt>
      <trkpt lat="38.35181" lon="-0.70559">
        <ele>209.6</ele>
        <time>2022-10-15 16:18:05</time>
      </trkpt>
      <trkpt lat="38.35177" lon="-0.70556">
        <ele>209.6</ele>
        <time>2022-10-15 16:18:06</time>
      </trkpt>
      <trkpt lat="38.35173" lon="-0.70553">
        <ele>209.6</ele>
        <time>2022-10-15 16:18:07</time>
      </trkpt>
      <trkpt lat="38.35173" lon="-0.70553">
        <ele>209.8</ele>
        <time>2022-10-15 16:18:08</time>
      </trkpt>
      <trkpt lat="38.35164" lon="-0.70547">
        <ele>209.8</ele>
        <time>2022-10-15 16:18:09</time>
      </trkpt>
      <trkpt lat="38.3516" lon="-0.70544">
        <ele>209.8</ele>
        <time>2022-10-15 16:18:10</time>
      </trkpt>
      <trkpt lat="38.35156" lon="-0.70541">
        <ele>209.8</ele>
        <time>2022-10-15 16:18:11</time>
      </trkpt>
      <trkpt lat="38.35152" lon="-0.70538">
        <ele>209.8</ele>
        <time>2022-10-15 16:18:12</time>
      </trkpt>
      <trkpt lat="38.35147" lon="-0.70536">
        <ele>209.8</ele>
        <time>2022-10-15 16:18:13</time>
      </trkpt>
      <trkpt lat="38.35138" lon="-0.70531">
        <ele>209.8</ele>
        <time>2022-10-15 16:18:15</time>
      </trkpt>
      <trkpt lat="38.35133" lon="-0.70529">
        <ele>209.8</ele>
        <time>2022-10-15 16:18:16</time>
      </trkpt>
      <trkpt lat="38.35129" lon="-0.70527">
        <ele>209.8</ele>
        <time>2022-10-15 16:18:17</time>
      </trkpt>
      <trkpt lat="38.35124" lon="-0.70526">
        <ele>209.8</ele>
        <time>2022-10-15 16:18:18</time>
      </trkpt>
      <trkpt lat="38.3512" lon="-0.70524">
        <ele>210</ele>
        <time>2022-10-15 16:18:20</time>
      </trkpt>
      <trkpt lat="38.3511" lon="-0.70522">
        <ele>210.2</ele>
        <time>2022-10-15 16:18:21</time>
      </trkpt>
      <trkpt lat="38.35106" lon="-0.70521">
        <ele>210.2</ele>
        <time>2022-10-15 16:18:22</time>
      </trkpt>
      <trkpt lat="38.35102" lon="-0.70521">
        <ele>210.2</ele>
        <time>2022-10-15 16:18:23</time>
      </trkpt>
      <trkpt lat="38.35098" lon="-0.7052">
        <ele>210.2</ele>
        <time>2022-10-15 16:18:24</time>
      </trkpt>
      <trkpt lat="38.35093" lon="-0.7052">
        <ele>210.4</ele>
        <time>2022-10-15 16:18:25</time>
      </trkpt>
      <trkpt lat="38.35093" lon="-0.7052">
        <ele>210.4</ele>
        <time>2022-10-15 16:18:26</time>
      </trkpt>
      <trkpt lat="38.35085" lon="-0.70518">
        <ele>210.6</ele>
        <time>2022-10-15 16:18:27</time>
      </trkpt>
      <trkpt lat="38.3508" lon="-0.70517">
        <ele>210.6</ele>
        <time>2022-10-15 16:18:28</time>
      </trkpt>
      <trkpt lat="38.35076" lon="-0.70516">
        <ele>210.8</ele>
        <time>2022-10-15 16:18:29</time>
      </trkpt>
      <trkpt lat="38.35068" lon="-0.70514">
        <ele>211</ele>
        <time>2022-10-15 16:18:31</time>
      </trkpt>
      <trkpt lat="38.35068" lon="-0.70514">
        <ele>211.2</ele>
        <time>2022-10-15 16:18:32</time>
      </trkpt>
      <trkpt lat="38.35061" lon="-0.70511">
        <ele>211.4</ele>
        <time>2022-10-15 16:18:33</time>
      </trkpt>
      <trkpt lat="38.35057" lon="-0.70509">
        <ele>211.6</ele>
        <time>2022-10-15 16:18:34</time>
      </trkpt>
      <trkpt lat="38.35053" lon="-0.70508">
        <ele>211.6</ele>
        <time>2022-10-15 16:18:35</time>
      </trkpt>
      <trkpt lat="38.35049" lon="-0.70507">
        <ele>211.8</ele>
        <time>2022-10-15 16:18:36</time>
      </trkpt>
      <trkpt lat="38.35045" lon="-0.70505">
        <ele>211.8</ele>
        <time>2022-10-15 16:18:37</time>
      </trkpt>
      <trkpt lat="38.35045" lon="-0.70505">
        <ele>212</ele>
        <time>2022-10-15 16:18:38</time>
      </trkpt>
      <trkpt lat="38.35037" lon="-0.70503">
        <ele>212</ele>
        <time>2022-10-15 16:18:39</time>
      </trkpt>
      <trkpt lat="38.35033" lon="-0.70502">
        <ele>212.2</ele>
        <time>2022-10-15 16:18:40</time>
      </trkpt>
      <trkpt lat="38.35029" lon="-0.70501">
        <ele>212.4</ele>
        <time>2022-10-15 16:18:41</time>
      </trkpt>
      <trkpt lat="38.35024" lon="-0.70501">
        <ele>212.6</ele>
        <time>2022-10-15 16:18:42</time>
      </trkpt>
      <trkpt lat="38.3502" lon="-0.705">
        <ele>212.6</ele>
        <time>2022-10-15 16:18:43</time>
      </trkpt>
      <trkpt lat="38.3502" lon="-0.705">
        <ele>212.8</ele>
        <time>2022-10-15 16:18:44</time>
      </trkpt>
      <trkpt lat="38.35011" lon="-0.70498">
        <ele>212.8</ele>
        <time>2022-10-15 16:18:45</time>
      </trkpt>
      <trkpt lat="38.35007" lon="-0.70497">
        <ele>212.8</ele>
        <time>2022-10-15 16:18:46</time>
      </trkpt>
      <trkpt lat="38.35002" lon="-0.70496">
        <ele>212.8</ele>
        <time>2022-10-15 16:18:47</time>
      </trkpt>
      <trkpt lat="38.34998" lon="-0.70495">
        <ele>212.8</ele>
        <time>2022-10-15 16:18:48</time>
      </trkpt>
      <trkpt lat="38.34994" lon="-0.70493">
        <ele>213</ele>
        <time>2022-10-15 16:18:49</time>
      </trkpt>
      <trkpt lat="38.34994" lon="-0.70493">
        <ele>213</ele>
        <time>2022-10-15 16:18:50</time>
      </trkpt>
      <trkpt lat="38.34985" lon="-0.7049">
        <ele>213</ele>
        <time>2022-10-15 16:18:51</time>
      </trkpt>
      <trkpt lat="38.34981" lon="-0.70488">
        <ele>213</ele>
        <time>2022-10-15 16:18:52</time>
      </trkpt>
      <trkpt lat="38.34977" lon="-0.70486">
        <ele>213</ele>
        <time>2022-10-15 16:18:53</time>
      </trkpt>
      <trkpt lat="38.34973" lon="-0.70484">
        <ele>213.2</ele>
        <time>2022-10-15 16:18:54</time>
      </trkpt>
      <trkpt lat="38.34969" lon="-0.70482">
        <ele>213.2</ele>
        <time>2022-10-15 16:18:55</time>
      </trkpt>
      <trkpt lat="38.34969" lon="-0.70482">
        <ele>213.2</ele>
        <time>2022-10-15 16:18:56</time>
      </trkpt>
      <trkpt lat="38.34961" lon="-0.70477">
        <ele>213.2</ele>
        <time>2022-10-15 16:18:57</time>
      </trkpt>
      <trkpt lat="38.34957" lon="-0.70474">
        <ele>213.2</ele>
        <time>2022-10-15 16:18:58</time>
      </trkpt>
      <trkpt lat="38.34953" lon="-0.70472">
        <ele>213.2</ele>
        <time>2022-10-15 16:18:59</time>
      </trkpt>
      <trkpt lat="38.34949" lon="-0.7047">
        <ele>213.2</ele>
        <time>2022-10-15 16:19:00</time>
      </trkpt>
      <trkpt lat="38.34946" lon="-0.70467">
        <ele>213.4</ele>
        <time>2022-10-15 16:19:02</time>
      </trkpt>
      <trkpt lat="38.34938" lon="-0.70463">
        <ele>213.4</ele>
        <time>2022-10-15 16:19:03</time>
      </trkpt>
      <trkpt lat="38.34935" lon="-0.70461">
        <ele>213.6</ele>
        <time>2022-10-15 16:19:04</time>
      </trkpt>
      <trkpt lat="38.34931" lon="-0.70459">
        <ele>213.8</ele>
        <time>2022-10-15 16:19:05</time>
      </trkpt>
      <trkpt lat="38.34924" lon="-0.70456">
        <ele>213.8</ele>
        <time>2022-10-15 16:19:07</time>
      </trkpt>
      <trkpt lat="38.34924" lon="-0.70456">
        <ele>214</ele>
        <time>2022-10-15 16:19:08</time>
      </trkpt>
      <trkpt lat="38.34917" lon="-0.70452">
        <ele>214</ele>
        <time>2022-10-15 16:19:09</time>
      </trkpt>
      <trkpt lat="38.34913" lon="-0.70451">
        <ele>214.2</ele>
        <time>2022-10-15 16:19:10</time>
      </trkpt>
      <trkpt lat="38.34905" lon="-0.70449">
        <ele>214.6</ele>
        <time>2022-10-15 16:19:12</time>
      </trkpt>
      <trkpt lat="38.34901" lon="-0.70449">
        <ele>214.8</ele>
        <time>2022-10-15 16:19:13</time>
      </trkpt>
      <trkpt lat="38.34901" lon="-0.70449">
        <ele>215</ele>
        <time>2022-10-15 16:19:14</time>
      </trkpt>
      <trkpt lat="38.34893" lon="-0.70448">
        <ele>215.2</ele>
        <time>2022-10-15 16:19:15</time>
      </trkpt>
      <trkpt lat="38.34889" lon="-0.70447">
        <ele>215.2</ele>
        <time>2022-10-15 16:19:16</time>
      </trkpt>
      <trkpt lat="38.34885" lon="-0.70446">
        <ele>215.6</ele>
        <time>2022-10-15 16:19:17</time>
      </trkpt>
      <trkpt lat="38.3488" lon="-0.70445">
        <ele>215.6</ele>
        <time>2022-10-15 16:19:18</time>
      </trkpt>
      <trkpt lat="38.34877" lon="-0.70444">
        <ele>215.6</ele>
        <time>2022-10-15 16:19:19</time>
      </trkpt>
      <trkpt lat="38.34869" lon="-0.70441">
        <ele>215.6</ele>
        <time>2022-10-15 16:19:21</time>
      </trkpt>
      <trkpt lat="38.34865" lon="-0.70439">
        <ele>215.6</ele>
        <time>2022-10-15 16:19:22</time>
      </trkpt>
      <trkpt lat="38.34862" lon="-0.70437">
        <ele>215.6</ele>
        <time>2022-10-15 16:19:23</time>
      </trkpt>
      <trkpt lat="38.34859" lon="-0.70435">
        <ele>215.6</ele>
        <time>2022-10-15 16:19:24</time>
      </trkpt>
      <trkpt lat="38.34855" lon="-0.70433">
        <ele>215.8</ele>
        <time>2022-10-15 16:19:26</time>
      </trkpt>
      <trkpt lat="38.3485" lon="-0.70429">
        <ele>215.8</ele>
        <time>2022-10-15 16:19:27</time>
      </trkpt>
      <trkpt lat="38.34847" lon="-0.70426">
        <ele>215.8</ele>
        <time>2022-10-15 16:19:28</time>
      </trkpt>
      <trkpt lat="38.34841" lon="-0.70422">
        <ele>216</ele>
        <time>2022-10-15 16:19:30</time>
      </trkpt>
      <trkpt lat="38.34838" lon="-0.70419">
        <ele>216</ele>
        <time>2022-10-15 16:19:31</time>
      </trkpt>
      <trkpt lat="38.34838" lon="-0.70419">
        <ele>216.2</ele>
        <time>2022-10-15 16:19:32</time>
      </trkpt>
      <trkpt lat="38.34833" lon="-0.70414">
        <ele>216.4</ele>
        <time>2022-10-15 16:19:33</time>
      </trkpt>
      <trkpt lat="38.34827" lon="-0.70409">
        <ele>216.8</ele>
        <time>2022-10-15 16:19:35</time>
      </trkpt>
      <trkpt lat="38.34824" lon="-0.70407">
        <ele>217.2</ele>
        <time>2022-10-15 16:19:36</time>
      </trkpt>
      <trkpt lat="38.34821" lon="-0.70404">
        <ele>217.6</ele>
        <time>2022-10-15 16:19:37</time>
      </trkpt>
      <trkpt lat="38.34821" lon="-0.70404">
        <ele>218</ele>
        <time>2022-10-15 16:19:38</time>
      </trkpt>
      <trkpt lat="38.34813" lon="-0.70397">
        <ele>218.2</ele>
        <time>2022-10-15 16:19:40</time>
      </trkpt>
      <trkpt lat="38.3481" lon="-0.70396">
        <ele>218.2</ele>
        <time>2022-10-15 16:19:41</time>
      </trkpt>
      <trkpt lat="38.34807" lon="-0.70394">
        <ele>218.4</ele>
        <time>2022-10-15 16:19:42</time>
      </trkpt>
      <trkpt lat="38.34804" lon="-0.70392">
        <ele>218.4</ele>
        <time>2022-10-15 16:19:43</time>
      </trkpt>
      <trkpt lat="38.34804" lon="-0.70392">
        <ele>218.4</ele>
        <time>2022-10-15 16:19:44</time>
      </trkpt>
      <trkpt lat="38.34798" lon="-0.70388">
        <ele>218.6</ele>
        <time>2022-10-15 16:19:45</time>
      </trkpt>
      <trkpt lat="38.34795" lon="-0.70387">
        <ele>218.6</ele>
        <time>2022-10-15 16:19:46</time>
      </trkpt>
      <trkpt lat="38.34792" lon="-0.70385">
        <ele>218.6</ele>
        <time>2022-10-15 16:19:47</time>
      </trkpt>
      <trkpt lat="38.34786" lon="-0.70381">
        <ele>218.8</ele>
        <time>2022-10-15 16:19:49</time>
      </trkpt>
      <trkpt lat="38.34786" lon="-0.70381">
        <ele>219</ele>
        <time>2022-10-15 16:19:50</time>
      </trkpt>
      <trkpt lat="38.3478" lon="-0.70378">
        <ele>219</ele>
        <time>2022-10-15 16:19:51</time>
      </trkpt>
      <trkpt lat="38.34777" lon="-0.70377">
        <ele>219</ele>
        <time>2022-10-15 16:19:52</time>
      </trkpt>
      <trkpt lat="38.34771" lon="-0.70374">
        <ele>219.2</ele>
        <time>2022-10-15 16:19:54</time>
      </trkpt>
      <trkpt lat="38.34768" lon="-0.70372">
        <ele>219.4</ele>
        <time>2022-10-15 16:19:55</time>
      </trkpt>
      <trkpt lat="38.34768" lon="-0.70372">
        <ele>219.4</ele>
        <time>2022-10-15 16:19:56</time>
      </trkpt>
      <trkpt lat="38.34762" lon="-0.70369">
        <ele>219.4</ele>
        <time>2022-10-15 16:19:57</time>
      </trkpt>
      <trkpt lat="38.34756" lon="-0.70365">
        <ele>219.8</ele>
        <time>2022-10-15 16:19:59</time>
      </trkpt>
      <trkpt lat="38.34754" lon="-0.70364">
        <ele>219.8</ele>
        <time>2022-10-15 16:20:00</time>
      </trkpt>
      <trkpt lat="38.34751" lon="-0.70362">
        <ele>219.8</ele>
        <time>2022-10-15 16:20:01</time>
      </trkpt>
      <trkpt lat="38.34751" lon="-0.70362">
        <ele>219.8</ele>
        <time>2022-10-15 16:20:02</time>
      </trkpt>
      <trkpt lat="38.34743" lon="-0.70357">
        <ele>220</ele>
        <time>2022-10-15 16:20:04</time>
      </trkpt>
      <trkpt lat="38.3474" lon="-0.70355">
        <ele>220.2</ele>
        <time>2022-10-15 16:20:05</time>
      </trkpt>
      <trkpt lat="38.34737" lon="-0.70353">
        <ele>220.2</ele>
        <time>2022-10-15 16:20:06</time>
      </trkpt>
      <trkpt lat="38.34735" lon="-0.70352">
        <ele>220.4</ele>
        <time>2022-10-15 16:20:07</time>
      </trkpt>
      <trkpt lat="38.34735" lon="-0.70352">
        <ele>220.4</ele>
        <time>2022-10-15 16:20:08</time>
      </trkpt>
      <trkpt lat="38.3473" lon="-0.70348">
        <ele>220.6</ele>
        <time>2022-10-15 16:20:09</time>
      </trkpt>
      <trkpt lat="38.34727" lon="-0.70346">
        <ele>221</ele>
        <time>2022-10-15 16:20:10</time>
      </trkpt>
      <trkpt lat="38.34724" lon="-0.70344">
        <ele>221.2</ele>
        <time>2022-10-15 16:20:11</time>
      </trkpt>
      <trkpt lat="38.34721" lon="-0.70343">
        <ele>221.4</ele>
        <time>2022-10-15 16:20:12</time>
      </trkpt>
      <trkpt lat="38.34718" lon="-0.7034">
        <ele>221.6</ele>
        <time>2022-10-15 16:20:13</time>
      </trkpt>
      <trkpt lat="38.34718" lon="-0.7034">
        <ele>221.8</ele>
        <time>2022-10-15 16:20:14</time>
      </trkpt>
      <trkpt lat="38.34712" lon="-0.70335">
        <ele>221.8</ele>
        <time>2022-10-15 16:20:15</time>
      </trkpt>
      <trkpt lat="38.34709" lon="-0.70333">
        <ele>221.8</ele>
        <time>2022-10-15 16:20:16</time>
      </trkpt>
      <trkpt lat="38.34703" lon="-0.70329">
        <ele>222</ele>
        <time>2022-10-15 16:20:18</time>
      </trkpt>
      <trkpt lat="38.347" lon="-0.70327">
        <ele>222</ele>
        <time>2022-10-15 16:20:19</time>
      </trkpt>
      <trkpt lat="38.347" lon="-0.70327">
        <ele>222</ele>
        <time>2022-10-15 16:20:20</time>
      </trkpt>
      <trkpt lat="38.3469" lon="-0.70321">
        <ele>222.4</ele>
        <time>2022-10-15 16:20:22</time>
      </trkpt>
      <trkpt lat="38.34687" lon="-0.70318">
        <ele>222.2</ele>
        <time>2022-10-15 16:20:23</time>
      </trkpt>
      <trkpt lat="38.34684" lon="-0.70316">
        <ele>222.2</ele>
        <time>2022-10-15 16:20:24</time>
      </trkpt>
      <trkpt lat="38.34681" lon="-0.70314">
        <ele>222.4</ele>
        <time>2022-10-15 16:20:25</time>
      </trkpt>
      <trkpt lat="38.34675" lon="-0.7031">
        <ele>222.6</ele>
        <time>2022-10-15 16:20:27</time>
      </trkpt>
      <trkpt lat="38.34672" lon="-0.70308">
        <ele>222.6</ele>
        <time>2022-10-15 16:20:28</time>
      </trkpt>
      <trkpt lat="38.3467" lon="-0.70306">
        <ele>223.2</ele>
        <time>2022-10-15 16:20:29</time>
      </trkpt>
      <trkpt lat="38.34667" lon="-0.70303">
        <ele>223.4</ele>
        <time>2022-10-15 16:20:30</time>
      </trkpt>
      <trkpt lat="38.34664" lon="-0.70301">
        <ele>223.6</ele>
        <time>2022-10-15 16:20:31</time>
      </trkpt>
      <trkpt lat="38.34664" lon="-0.70301">
        <ele>223.6</ele>
        <time>2022-10-15 16:20:32</time>
      </trkpt>
      <trkpt lat="38.34658" lon="-0.70297">
        <ele>223.6</ele>
        <time>2022-10-15 16:20:33</time>
      </trkpt>
      <trkpt lat="38.34656" lon="-0.70295">
        <ele>223.8</ele>
        <time>2022-10-15 16:20:34</time>
      </trkpt>
      <trkpt lat="38.3465" lon="-0.7029">
        <ele>223.8</ele>
        <time>2022-10-15 16:20:36</time>
      </trkpt>
      <trkpt lat="38.34647" lon="-0.70288">
        <ele>223.8</ele>
        <time>2022-10-15 16:20:37</time>
      </trkpt>
      <trkpt lat="38.34647" lon="-0.70288">
        <ele>223.8</ele>
        <time>2022-10-15 16:20:38</time>
      </trkpt>
      <trkpt lat="38.34639" lon="-0.70281">
        <ele>224</ele>
        <time>2022-10-15 16:20:40</time>
      </trkpt>
      <trkpt lat="38.34636" lon="-0.70279">
        <ele>224</ele>
        <time>2022-10-15 16:20:41</time>
      </trkpt>
      <trkpt lat="38.34633" lon="-0.70277">
        <ele>224</ele>
        <time>2022-10-15 16:20:42</time>
      </trkpt>
      <trkpt lat="38.3463" lon="-0.70275">
        <ele>224.4</ele>
        <time>2022-10-15 16:20:44</time>
      </trkpt>
      <trkpt lat="38.34625" lon="-0.70271">
        <ele>224.4</ele>
        <time>2022-10-15 16:20:45</time>
      </trkpt>
      <trkpt lat="38.34623" lon="-0.70269">
        <ele>224.8</ele>
        <time>2022-10-15 16:20:46</time>
      </trkpt>
      <trkpt lat="38.3462" lon="-0.70268">
        <ele>225</ele>
        <time>2022-10-15 16:20:47</time>
      </trkpt>
      <trkpt lat="38.34616" lon="-0.70265">
        <ele>225.4</ele>
        <time>2022-10-15 16:20:49</time>
      </trkpt>
      <trkpt lat="38.34616" lon="-0.70265">
        <ele>225.6</ele>
        <time>2022-10-15 16:20:50</time>
      </trkpt>
      <trkpt lat="38.34615" lon="-0.70263">
        <ele>225.6</ele>
        <time>2022-10-15 16:20:51</time>
      </trkpt>
      <trkpt lat="38.34614" lon="-0.70263">
        <ele>225.6</ele>
        <time>2022-10-15 16:20:52</time>
      </trkpt>
      <trkpt lat="38.34613" lon="-0.70262">
        <ele>225.8</ele>
        <time>2022-10-15 16:20:53</time>
      </trkpt>
      <trkpt lat="38.34612" lon="-0.70261">
        <ele>226</ele>
        <time>2022-10-15 16:20:54</time>
      </trkpt>
      <trkpt lat="38.34611" lon="-0.7026">
        <ele>226.2</ele>
        <time>2022-10-15 16:20:55</time>
      </trkpt>
      <trkpt lat="38.34611" lon="-0.7026">
        <ele>226.4</ele>
        <time>2022-10-15 16:20:56</time>
      </trkpt>
      <trkpt lat="38.34605" lon="-0.70257">
        <ele>226.6</ele>
        <time>2022-10-15 16:20:58</time>
      </trkpt>
      <trkpt lat="38.34602" lon="-0.70256">
        <ele>226.6</ele>
        <time>2022-10-15 16:20:59</time>
      </trkpt>
      <trkpt lat="38.346" lon="-0.70255">
        <ele>226.6</ele>
        <time>2022-10-15 16:21:00</time>
      </trkpt>
      <trkpt lat="38.34597" lon="-0.70253">
        <ele>226.6</ele>
        <time>2022-10-15 16:21:01</time>
      </trkpt>
      <trkpt lat="38.34593" lon="-0.70249">
        <ele>226.6</ele>
        <time>2022-10-15 16:21:03</time>
      </trkpt>
      <trkpt lat="38.3459" lon="-0.70247">
        <ele>226.6</ele>
        <time>2022-10-15 16:21:04</time>
      </trkpt>
      <trkpt lat="38.34588" lon="-0.70246">
        <ele>226.6</ele>
        <time>2022-10-15 16:21:05</time>
      </trkpt>
      <trkpt lat="38.34586" lon="-0.70244">
        <ele>226.8</ele>
        <time>2022-10-15 16:21:06</time>
      </trkpt>
      <trkpt lat="38.34583" lon="-0.70242">
        <ele>226.8</ele>
        <time>2022-10-15 16:21:08</time>
      </trkpt>
      <trkpt lat="38.34578" lon="-0.70238">
        <ele>226.6</ele>
        <time>2022-10-15 16:21:09</time>
      </trkpt>
      <trkpt lat="38.34576" lon="-0.70237">
        <ele>226.6</ele>
        <time>2022-10-15 16:21:10</time>
      </trkpt>
      <trkpt lat="38.34573" lon="-0.70235">
        <ele>226.6</ele>
        <time>2022-10-15 16:21:11</time>
      </trkpt>
      <trkpt lat="38.34568" lon="-0.70232">
        <ele>226.6</ele>
        <time>2022-10-15 16:21:13</time>
      </trkpt>
      <trkpt lat="38.34568" lon="-0.70232">
        <ele>226.8</ele>
        <time>2022-10-15 16:21:14</time>
      </trkpt>
      <trkpt lat="38.34563" lon="-0.70228">
        <ele>226.8</ele>
        <time>2022-10-15 16:21:15</time>
      </trkpt>
      <trkpt lat="38.3456" lon="-0.70227">
        <ele>226.8</ele>
        <time>2022-10-15 16:21:16</time>
      </trkpt>
      <trkpt lat="38.34555" lon="-0.70223">
        <ele>227</ele>
        <time>2022-10-15 16:21:18</time>
      </trkpt>
      <trkpt lat="38.34552" lon="-0.70221">
        <ele>227.2</ele>
        <time>2022-10-15 16:21:19</time>
      </trkpt>
      <trkpt lat="38.34552" lon="-0.70221">
        <ele>227.2</ele>
        <time>2022-10-15 16:21:20</time>
      </trkpt>
      <trkpt lat="38.34544" lon="-0.70215">
        <ele>227.2</ele>
        <time>2022-10-15 16:21:22</time>
      </trkpt>
      <trkpt lat="38.34541" lon="-0.70214">
        <ele>227.2</ele>
        <time>2022-10-15 16:21:23</time>
      </trkpt>
      <trkpt lat="38.34538" lon="-0.70213">
        <ele>227.6</ele>
        <time>2022-10-15 16:21:24</time>
      </trkpt>
      <trkpt lat="38.34529" lon="-0.70211">
        <ele>227.8</ele>
        <time>2022-10-15 16:21:27</time>
      </trkpt>
      <trkpt lat="38.34524" lon="-0.70211">
        <ele>228.2</ele>
        <time>2022-10-15 16:21:29</time>
      </trkpt>
      <trkpt lat="38.34521" lon="-0.70212">
        <ele>228.4</ele>
        <time>2022-10-15 16:21:30</time>
      </trkpt>
      <trkpt lat="38.34518" lon="-0.70212">
        <ele>228.6</ele>
        <time>2022-10-15 16:21:32</time>
      </trkpt>
      <trkpt lat="38.34512" lon="-0.70211">
        <ele>228.8</ele>
        <time>2022-10-15 16:21:33</time>
      </trkpt>
      <trkpt lat="38.34509" lon="-0.7021">
        <ele>228.8</ele>
        <time>2022-10-15 16:21:34</time>
      </trkpt>
      <trkpt lat="38.34507" lon="-0.70209">
        <ele>229</ele>
        <time>2022-10-15 16:21:35</time>
      </trkpt>
      <trkpt lat="38.34501" lon="-0.70206">
        <ele>229.2</ele>
        <time>2022-10-15 16:21:37</time>
      </trkpt>
      <trkpt lat="38.34496" lon="-0.70203">
        <ele>229.4</ele>
        <time>2022-10-15 16:21:39</time>
      </trkpt>
      <trkpt lat="38.3449" lon="-0.70199">
        <ele>229.6</ele>
        <time>2022-10-15 16:21:41</time>
      </trkpt>
      <trkpt lat="38.34487" lon="-0.70198">
        <ele>229.8</ele>
        <time>2022-10-15 16:21:42</time>
      </trkpt>
      <trkpt lat="38.34485" lon="-0.70196">
        <ele>230</ele>
        <time>2022-10-15 16:21:43</time>
      </trkpt>
      <trkpt lat="38.34485" lon="-0.70196">
        <ele>230</ele>
        <time>2022-10-15 16:21:44</time>
      </trkpt>
      <trkpt lat="38.34477" lon="-0.70189">
        <ele>230.2</ele>
        <time>2022-10-15 16:21:46</time>
      </trkpt>
      <trkpt lat="38.34475" lon="-0.70188">
        <ele>230.4</ele>
        <time>2022-10-15 16:21:47</time>
      </trkpt>
      <trkpt lat="38.34469" lon="-0.70184">
        <ele>230.8</ele>
        <time>2022-10-15 16:21:49</time>
      </trkpt>
      <trkpt lat="38.34469" lon="-0.70184">
        <ele>231.6</ele>
        <time>2022-10-15 16:21:50</time>
      </trkpt>
      <trkpt lat="38.34465" lon="-0.7018">
        <ele>231.6</ele>
        <time>2022-10-15 16:21:51</time>
      </trkpt>
      <trkpt lat="38.34462" lon="-0.70178">
        <ele>231.8</ele>
        <time>2022-10-15 16:21:52</time>
      </trkpt>
      <trkpt lat="38.3446" lon="-0.70176">
        <ele>231.8</ele>
        <time>2022-10-15 16:21:53</time>
      </trkpt>
      <trkpt lat="38.34457" lon="-0.70174">
        <ele>232</ele>
        <time>2022-10-15 16:21:54</time>
      </trkpt>
      <trkpt lat="38.34455" lon="-0.70172">
        <ele>232</ele>
        <time>2022-10-15 16:21:56</time>
      </trkpt>
      <trkpt lat="38.3445" lon="-0.70167">
        <ele>232.2</ele>
        <time>2022-10-15 16:21:57</time>
      </trkpt>
      <trkpt lat="38.34445" lon="-0.70162">
        <ele>232.4</ele>
        <time>2022-10-15 16:21:59</time>
      </trkpt>
      <trkpt lat="38.3444" lon="-0.70158">
        <ele>232.4</ele>
        <time>2022-10-15 16:22:01</time>
      </trkpt>
      <trkpt lat="38.3444" lon="-0.70158">
        <ele>232.4</ele>
        <time>2022-10-15 16:22:02</time>
      </trkpt>
      <trkpt lat="38.34434" lon="-0.70154">
        <ele>232.4</ele>
        <time>2022-10-15 16:22:03</time>
      </trkpt>
      <trkpt lat="38.34432" lon="-0.70152">
        <ele>232.6</ele>
        <time>2022-10-15 16:22:04</time>
      </trkpt>
      <trkpt lat="38.34426" lon="-0.70148">
        <ele>232.6</ele>
        <time>2022-10-15 16:22:06</time>
      </trkpt>
      <trkpt lat="38.34423" lon="-0.70146">
        <ele>232.8</ele>
        <time>2022-10-15 16:22:07</time>
      </trkpt>
      <trkpt lat="38.34418" lon="-0.70143">
        <ele>232.8</ele>
        <time>2022-10-15 16:22:09</time>
      </trkpt>
      <trkpt lat="38.34413" lon="-0.70139">
        <ele>233.2</ele>
        <time>2022-10-15 16:22:11</time>
      </trkpt>
      <trkpt lat="38.3441" lon="-0.70137">
        <ele>233.2</ele>
        <time>2022-10-15 16:22:12</time>
      </trkpt>
      <trkpt lat="38.34407" lon="-0.70135">
        <ele>233.4</ele>
        <time>2022-10-15 16:22:13</time>
      </trkpt>
      <trkpt lat="38.34407" lon="-0.70135">
        <ele>233.4</ele>
        <time>2022-10-15 16:22:14</time>
      </trkpt>
      <trkpt lat="38.34399" lon="-0.70129">
        <ele>233.8</ele>
        <time>2022-10-15 16:22:16</time>
      </trkpt>
      <trkpt lat="38.34394" lon="-0.70124">
        <ele>234.4</ele>
        <time>2022-10-15 16:22:18</time>
      </trkpt>
      <trkpt lat="38.34391" lon="-0.70122">
        <ele>234.4</ele>
        <time>2022-10-15 16:22:19</time>
      </trkpt>
      <trkpt lat="38.34391" lon="-0.70122">
        <ele>234.6</ele>
        <time>2022-10-15 16:22:20</time>
      </trkpt>
      <trkpt lat="38.34386" lon="-0.70118">
        <ele>234.6</ele>
        <time>2022-10-15 16:22:21</time>
      </trkpt>
      <trkpt lat="38.34381" lon="-0.70112">
        <ele>234.6</ele>
        <time>2022-10-15 16:22:23</time>
      </trkpt>
      <trkpt lat="38.34378" lon="-0.7011">
        <ele>234.8</ele>
        <time>2022-10-15 16:22:24</time>
      </trkpt>
      <trkpt lat="38.34376" lon="-0.70107">
        <ele>234.8</ele>
        <time>2022-10-15 16:22:26</time>
      </trkpt>
      <trkpt lat="38.34369" lon="-0.70097">
        <ele>235</ele>
        <time>2022-10-15 16:22:28</time>
      </trkpt>
      <trkpt lat="38.34368" lon="-0.70093">
        <ele>235</ele>
        <time>2022-10-15 16:22:29</time>
      </trkpt>
      <trkpt lat="38.34364" lon="-0.70086">
        <ele>235.2</ele>
        <time>2022-10-15 16:22:31</time>
      </trkpt>
      <trkpt lat="38.34361" lon="-0.70078">
        <ele>235.4</ele>
        <time>2022-10-15 16:22:33</time>
      </trkpt>
      <trkpt lat="38.34357" lon="-0.7007">
        <ele>235.6</ele>
        <time>2022-10-15 16:22:35</time>
      </trkpt>
      <trkpt lat="38.34355" lon="-0.70066">
        <ele>235.8</ele>
        <time>2022-10-15 16:22:36</time>
      </trkpt>
      <trkpt lat="38.34353" lon="-0.70062">
        <ele>236</ele>
        <time>2022-10-15 16:22:37</time>
      </trkpt>
      <trkpt lat="38.34353" lon="-0.70062">
        <ele>236</ele>
        <time>2022-10-15 16:22:38</time>
      </trkpt>
      <trkpt lat="38.34345" lon="-0.70053">
        <ele>236.2</ele>
        <time>2022-10-15 16:22:40</time>
      </trkpt>
      <trkpt lat="38.3434" lon="-0.70046">
        <ele>236.2</ele>
        <time>2022-10-15 16:22:42</time>
      </trkpt>
      <trkpt lat="38.34337" lon="-0.70043">
        <ele>236.4</ele>
        <time>2022-10-15 16:22:43</time>
      </trkpt>
      <trkpt lat="38.34331" lon="-0.70037">
        <ele>236.4</ele>
        <time>2022-10-15 16:22:45</time>
      </trkpt>
      <trkpt lat="38.34326" lon="-0.70032">
        <ele>236.4</ele>
        <time>2022-10-15 16:22:47</time>
      </trkpt>
      <trkpt lat="38.34323" lon="-0.70029">
        <ele>236.4</ele>
        <time>2022-10-15 16:22:48</time>
      </trkpt>
      <trkpt lat="38.3432" lon="-0.70026">
        <ele>236.4</ele>
        <time>2022-10-15 16:22:50</time>
      </trkpt>
      <trkpt lat="38.34312" lon="-0.70019">
        <ele>236.6</ele>
        <time>2022-10-15 16:22:52</time>
      </trkpt>
      <trkpt lat="38.34307" lon="-0.70014">
        <ele>236.8</ele>
        <time>2022-10-15 16:22:54</time>
      </trkpt>
      <trkpt lat="38.34304" lon="-0.70011">
        <ele>237</ele>
        <time>2022-10-15 16:22:55</time>
      </trkpt>
      <trkpt lat="38.34299" lon="-0.70006">
        <ele>237</ele>
        <time>2022-10-15 16:22:57</time>
      </trkpt>
      <trkpt lat="38.34294" lon="-0.70001">
        <ele>237.4</ele>
        <time>2022-10-15 16:22:59</time>
      </trkpt>
      <trkpt lat="38.34291" lon="-0.69998">
        <ele>237.4</ele>
        <time>2022-10-15 16:23:00</time>
      </trkpt>
      <trkpt lat="38.34288" lon="-0.69995">
        <ele>237.6</ele>
        <time>2022-10-15 16:23:01</time>
      </trkpt>
      <trkpt lat="38.34288" lon="-0.69995">
        <ele>237.8</ele>
        <time>2022-10-15 16:23:02</time>
      </trkpt>
      <trkpt lat="38.3428" lon="-0.69987">
        <ele>238</ele>
        <time>2022-10-15 16:23:04</time>
      </trkpt>
      <trkpt lat="38.34274" lon="-0.69981">
        <ele>238.2</ele>
        <time>2022-10-15 16:23:06</time>
      </trkpt>
      <trkpt lat="38.34271" lon="-0.69978">
        <ele>238.4</ele>
        <time>2022-10-15 16:23:07</time>
      </trkpt>
      <trkpt lat="38.34265" lon="-0.69973">
        <ele>238.4</ele>
        <time>2022-10-15 16:23:09</time>
      </trkpt>
      <trkpt lat="38.34263" lon="-0.6997">
        <ele>238.4</ele>
        <time>2022-10-15 16:23:10</time>
      </trkpt>
      <trkpt lat="38.3426" lon="-0.69968">
        <ele>238.6</ele>
        <time>2022-10-15 16:23:11</time>
      </trkpt>
      <trkpt lat="38.34257" lon="-0.69965">
        <ele>238.8</ele>
        <time>2022-10-15 16:23:12</time>
      </trkpt>
      <trkpt lat="38.34255" lon="-0.69963">
        <ele>238.8</ele>
        <time>2022-10-15 16:23:13</time>
      </trkpt>
      <trkpt lat="38.34255" lon="-0.69963">
        <ele>238.8</ele>
        <time>2022-10-15 16:23:14</time>
      </trkpt>
      <trkpt lat="38.34246" lon="-0.69955">
        <ele>239.4</ele>
        <time>2022-10-15 16:23:16</time>
      </trkpt>
      <trkpt lat="38.34243" lon="-0.69953">
        <ele>239.6</ele>
        <time>2022-10-15 16:23:17</time>
      </trkpt>
      <trkpt lat="38.3424" lon="-0.69951">
        <ele>239.8</ele>
        <time>2022-10-15 16:23:18</time>
      </trkpt>
      <trkpt lat="38.34237" lon="-0.69948">
        <ele>240</ele>
        <time>2022-10-15 16:23:19</time>
      </trkpt>
      <trkpt lat="38.34231" lon="-0.69943">
        <ele>240.2</ele>
        <time>2022-10-15 16:23:21</time>
      </trkpt>
      <trkpt lat="38.34225" lon="-0.69939">
        <ele>240.4</ele>
        <time>2022-10-15 16:23:23</time>
      </trkpt>
      <trkpt lat="38.34222" lon="-0.69936">
        <ele>240.4</ele>
        <time>2022-10-15 16:23:24</time>
      </trkpt>
      <trkpt lat="38.34219" lon="-0.69934">
        <ele>240.2</ele>
        <time>2022-10-15 16:23:25</time>
      </trkpt>
      <trkpt lat="38.34219" lon="-0.69934">
        <ele>240.6</ele>
        <time>2022-10-15 16:23:26</time>
      </trkpt>
      <trkpt lat="38.34214" lon="-0.69929">
        <ele>240.6</ele>
        <time>2022-10-15 16:23:27</time>
      </trkpt>
      <trkpt lat="38.34211" lon="-0.69927">
        <ele>240.4</ele>
        <time>2022-10-15 16:23:28</time>
      </trkpt>
      <trkpt lat="38.34206" lon="-0.69921">
        <ele>240.8</ele>
        <time>2022-10-15 16:23:30</time>
      </trkpt>
      <trkpt lat="38.34204" lon="-0.69918">
        <ele>240.6</ele>
        <time>2022-10-15 16:23:31</time>
      </trkpt>
      <trkpt lat="38.34204" lon="-0.69918">
        <ele>240.8</ele>
        <time>2022-10-15 16:23:32</time>
      </trkpt>
      <trkpt lat="38.34198" lon="-0.69912">
        <ele>241</ele>
        <time>2022-10-15 16:23:33</time>
      </trkpt>
      <trkpt lat="38.34196" lon="-0.69909">
        <ele>241</ele>
        <time>2022-10-15 16:23:34</time>
      </trkpt>
      <trkpt lat="38.34194" lon="-0.69905">
        <ele>241.2</ele>
        <time>2022-10-15 16:23:35</time>
      </trkpt>
      <trkpt lat="38.34189" lon="-0.69899">
        <ele>241.6</ele>
        <time>2022-10-15 16:23:37</time>
      </trkpt>
      <trkpt lat="38.34185" lon="-0.69892">
        <ele>241.8</ele>
        <time>2022-10-15 16:23:39</time>
      </trkpt>
      <trkpt lat="38.34183" lon="-0.69889">
        <ele>242.2</ele>
        <time>2022-10-15 16:23:40</time>
      </trkpt>
      <trkpt lat="38.34178" lon="-0.69884">
        <ele>242.4</ele>
        <time>2022-10-15 16:23:42</time>
      </trkpt>
      <trkpt lat="38.34176" lon="-0.69881">
        <ele>242.6</ele>
        <time>2022-10-15 16:23:44</time>
      </trkpt>
      <trkpt lat="38.34169" lon="-0.69874">
        <ele>243</ele>
        <time>2022-10-15 16:23:46</time>
      </trkpt>
      <trkpt lat="38.34167" lon="-0.69872">
        <ele>243.2</ele>
        <time>2022-10-15 16:23:47</time>
      </trkpt>
      <trkpt lat="38.34163" lon="-0.69867">
        <ele>243.6</ele>
        <time>2022-10-15 16:23:49</time>
      </trkpt>
      <trkpt lat="38.34159" lon="-0.69862">
        <ele>243.8</ele>
        <time>2022-10-15 16:23:51</time>
      </trkpt>
      <trkpt lat="38.34157" lon="-0.69859">
        <ele>244.2</ele>
        <time>2022-10-15 16:23:52</time>
      </trkpt>
      <trkpt lat="38.34155" lon="-0.69856">
        <ele>244.2</ele>
        <time>2022-10-15 16:23:53</time>
      </trkpt>
      <trkpt lat="38.34153" lon="-0.69853">
        <ele>244.4</ele>
        <time>2022-10-15 16:23:54</time>
      </trkpt>
      <trkpt lat="38.3415" lon="-0.6985">
        <ele>244.6</ele>
        <time>2022-10-15 16:23:56</time>
      </trkpt>
      <trkpt lat="38.34147" lon="-0.69845">
        <ele>244.8</ele>
        <time>2022-10-15 16:23:57</time>
      </trkpt>
      <trkpt lat="38.34145" lon="-0.69842">
        <ele>245</ele>
        <time>2022-10-15 16:23:58</time>
      </trkpt>
      <trkpt lat="38.34143" lon="-0.69839">
        <ele>245.2</ele>
        <time>2022-10-15 16:23:59</time>
      </trkpt>
      <trkpt lat="38.34141" lon="-0.69837">
        <ele>245.4</ele>
        <time>2022-10-15 16:24:00</time>
      </trkpt>
      <trkpt lat="38.34139" lon="-0.69834">
        <ele>245.6</ele>
        <time>2022-10-15 16:24:01</time>
      </trkpt>
      <trkpt lat="38.34139" lon="-0.69834">
        <ele>245.6</ele>
        <time>2022-10-15 16:24:02</time>
      </trkpt>
      <trkpt lat="38.34135" lon="-0.69828">
        <ele>245.6</ele>
        <time>2022-10-15 16:24:03</time>
      </trkpt>
      <trkpt lat="38.34132" lon="-0.69826">
        <ele>245.8</ele>
        <time>2022-10-15 16:24:04</time>
      </trkpt>
      <trkpt lat="38.34128" lon="-0.69821">
        <ele>246.2</ele>
        <time>2022-10-15 16:24:06</time>
      </trkpt>
      <trkpt lat="38.34126" lon="-0.69818">
        <ele>246.4</ele>
        <time>2022-10-15 16:24:07</time>
      </trkpt>
      <trkpt lat="38.34126" lon="-0.69818">
        <ele>246.6</ele>
        <time>2022-10-15 16:24:08</time>
      </trkpt>
      <trkpt lat="38.34122" lon="-0.69812">
        <ele>246.6</ele>
        <time>2022-10-15 16:24:09</time>
      </trkpt>
      <trkpt lat="38.34118" lon="-0.69807">
        <ele>246.6</ele>
        <time>2022-10-15 16:24:11</time>
      </trkpt>
      <trkpt lat="38.34115" lon="-0.69804">
        <ele>246.6</ele>
        <time>2022-10-15 16:24:12</time>
      </trkpt>
      <trkpt lat="38.34113" lon="-0.69802">
        <ele>246.8</ele>
        <time>2022-10-15 16:24:13</time>
      </trkpt>
      <trkpt lat="38.34113" lon="-0.69802">
        <ele>246.8</ele>
        <time>2022-10-15 16:24:14</time>
      </trkpt>
      <trkpt lat="38.34109" lon="-0.69796">
        <ele>246.8</ele>
        <time>2022-10-15 16:24:15</time>
      </trkpt>
      <trkpt lat="38.34107" lon="-0.69793">
        <ele>247</ele>
        <time>2022-10-15 16:24:16</time>
      </trkpt>
      <trkpt lat="38.34105" lon="-0.69791">
        <ele>247</ele>
        <time>2022-10-15 16:24:17</time>
      </trkpt>
      <trkpt lat="38.34102" lon="-0.69788">
        <ele>247.4</ele>
        <time>2022-10-15 16:24:18</time>
      </trkpt>
      <trkpt lat="38.341" lon="-0.69786">
        <ele>247.8</ele>
        <time>2022-10-15 16:24:19</time>
      </trkpt>
      <trkpt lat="38.341" lon="-0.69786">
        <ele>247.8</ele>
        <time>2022-10-15 16:24:20</time>
      </trkpt>
      <trkpt lat="38.34095" lon="-0.69781">
        <ele>248</ele>
        <time>2022-10-15 16:24:21</time>
      </trkpt>
      <trkpt lat="38.34093" lon="-0.69778">
        <ele>248</ele>
        <time>2022-10-15 16:24:22</time>
      </trkpt>
      <trkpt lat="38.34089" lon="-0.69772">
        <ele>248.2</ele>
        <time>2022-10-15 16:24:24</time>
      </trkpt>
      <trkpt lat="38.34087" lon="-0.6977">
        <ele>248.2</ele>
        <time>2022-10-15 16:24:25</time>
      </trkpt>
      <trkpt lat="38.34087" lon="-0.6977">
        <ele>248.2</ele>
        <time>2022-10-15 16:24:26</time>
      </trkpt>
      <trkpt lat="38.34082" lon="-0.69765">
        <ele>248.4</ele>
        <time>2022-10-15 16:24:27</time>
      </trkpt>
      <trkpt lat="38.3408" lon="-0.69763">
        <ele>248.4</ele>
        <time>2022-10-15 16:24:28</time>
      </trkpt>
      <trkpt lat="38.34076" lon="-0.69759">
        <ele>248.8</ele>
        <time>2022-10-15 16:24:30</time>
      </trkpt>
      <trkpt lat="38.34074" lon="-0.69756">
        <ele>249.2</ele>
        <time>2022-10-15 16:24:31</time>
      </trkpt>
      <trkpt lat="38.34074" lon="-0.69756">
        <ele>249.4</ele>
        <time>2022-10-15 16:24:32</time>
      </trkpt>
      <trkpt lat="38.3407" lon="-0.69752">
        <ele>249.4</ele>
        <time>2022-10-15 16:24:33</time>
      </trkpt>
      <trkpt lat="38.34066" lon="-0.69747">
        <ele>249.6</ele>
        <time>2022-10-15 16:24:35</time>
      </trkpt>
      <trkpt lat="38.34064" lon="-0.69745">
        <ele>249.8</ele>
        <time>2022-10-15 16:24:36</time>
      </trkpt>
      <trkpt lat="38.34062" lon="-0.69743">
        <ele>249.8</ele>
        <time>2022-10-15 16:24:37</time>
      </trkpt>
      <trkpt lat="38.34062" lon="-0.69743">
        <ele>249.8</ele>
        <time>2022-10-15 16:24:38</time>
      </trkpt>
      <trkpt lat="38.34058" lon="-0.69739">
        <ele>249.8</ele>
        <time>2022-10-15 16:24:39</time>
      </trkpt>
      <trkpt lat="38.34056" lon="-0.69737">
        <ele>250.2</ele>
        <time>2022-10-15 16:24:40</time>
      </trkpt>
      <trkpt lat="38.34054" lon="-0.69734">
        <ele>250.6</ele>
        <time>2022-10-15 16:24:41</time>
      </trkpt>
      <trkpt lat="38.34052" lon="-0.69732">
        <ele>250.8</ele>
        <time>2022-10-15 16:24:42</time>
      </trkpt>
      <trkpt lat="38.3405" lon="-0.6973">
        <ele>251</ele>
        <time>2022-10-15 16:24:43</time>
      </trkpt>
      <trkpt lat="38.3405" lon="-0.6973">
        <ele>251.2</ele>
        <time>2022-10-15 16:24:44</time>
      </trkpt>
      <trkpt lat="38.34045" lon="-0.69725">
        <ele>251.2</ele>
        <time>2022-10-15 16:24:45</time>
      </trkpt>
      <trkpt lat="38.34044" lon="-0.69723">
        <ele>251.4</ele>
        <time>2022-10-15 16:24:46</time>
      </trkpt>
      <trkpt lat="38.34041" lon="-0.6972">
        <ele>251.6</ele>
        <time>2022-10-15 16:24:47</time>
      </trkpt>
      <trkpt lat="38.34039" lon="-0.69718">
        <ele>251.6</ele>
        <time>2022-10-15 16:24:48</time>
      </trkpt>
      <trkpt lat="38.34037" lon="-0.69715">
        <ele>251.8</ele>
        <time>2022-10-15 16:24:49</time>
      </trkpt>
      <trkpt lat="38.34037" lon="-0.69715">
        <ele>252.2</ele>
        <time>2022-10-15 16:24:50</time>
      </trkpt>
      <trkpt lat="38.34034" lon="-0.6971">
        <ele>252.2</ele>
        <time>2022-10-15 16:24:51</time>
      </trkpt>
      <trkpt lat="38.34032" lon="-0.69707">
        <ele>252.4</ele>
        <time>2022-10-15 16:24:52</time>
      </trkpt>
      <trkpt lat="38.3403" lon="-0.69704">
        <ele>252.6</ele>
        <time>2022-10-15 16:24:53</time>
      </trkpt>
      <trkpt lat="38.34028" lon="-0.69701">
        <ele>252.6</ele>
        <time>2022-10-15 16:24:54</time>
      </trkpt>
      <trkpt lat="38.34026" lon="-0.69699">
        <ele>252.8</ele>
        <time>2022-10-15 16:24:56</time>
      </trkpt>
      <trkpt lat="38.34022" lon="-0.69693">
        <ele>252.8</ele>
        <time>2022-10-15 16:24:57</time>
      </trkpt>
      <trkpt lat="38.34021" lon="-0.69691">
        <ele>253</ele>
        <time>2022-10-15 16:24:58</time>
      </trkpt>
      <trkpt lat="38.34019" lon="-0.69688">
        <ele>253</ele>
        <time>2022-10-15 16:24:59</time>
      </trkpt>
      <trkpt lat="38.34017" lon="-0.69685">
        <ele>253</ele>
        <time>2022-10-15 16:25:00</time>
      </trkpt>
      <trkpt lat="38.34016" lon="-0.69683">
        <ele>253.2</ele>
        <time>2022-10-15 16:25:02</time>
      </trkpt>
      <trkpt lat="38.34012" lon="-0.69678">
        <ele>253.6</ele>
        <time>2022-10-15 16:25:03</time>
      </trkpt>
      <trkpt lat="38.34011" lon="-0.69675">
        <ele>253.8</ele>
        <time>2022-10-15 16:25:04</time>
      </trkpt>
      <trkpt lat="38.34009" lon="-0.69673">
        <ele>253.8</ele>
        <time>2022-10-15 16:25:05</time>
      </trkpt>
      <trkpt lat="38.34005" lon="-0.69669">
        <ele>254</ele>
        <time>2022-10-15 16:25:07</time>
      </trkpt>
      <trkpt lat="38.34005" lon="-0.69669">
        <ele>254</ele>
        <time>2022-10-15 16:25:08</time>
      </trkpt>
      <trkpt lat="38.34001" lon="-0.69664">
        <ele>254.2</ele>
        <time>2022-10-15 16:25:09</time>
      </trkpt>
      <trkpt lat="38.33999" lon="-0.69662">
        <ele>254.2</ele>
        <time>2022-10-15 16:25:10</time>
      </trkpt>
      <trkpt lat="38.33997" lon="-0.6966">
        <ele>254.2</ele>
        <time>2022-10-15 16:25:11</time>
      </trkpt>
      <trkpt lat="38.33994" lon="-0.69657">
        <ele>254.6</ele>
        <time>2022-10-15 16:25:12</time>
      </trkpt>
      <trkpt lat="38.33992" lon="-0.69656">
        <ele>254.8</ele>
        <time>2022-10-15 16:25:13</time>
      </trkpt>
      <trkpt lat="38.33992" lon="-0.69656">
        <ele>255</ele>
        <time>2022-10-15 16:25:14</time>
      </trkpt>
      <trkpt lat="38.33988" lon="-0.69652">
        <ele>255.2</ele>
        <time>2022-10-15 16:25:15</time>
      </trkpt>
      <trkpt lat="38.33985" lon="-0.6965">
        <ele>255.4</ele>
        <time>2022-10-15 16:25:16</time>
      </trkpt>
      <trkpt lat="38.33983" lon="-0.69648">
        <ele>255.6</ele>
        <time>2022-10-15 16:25:17</time>
      </trkpt>
      <trkpt lat="38.33981" lon="-0.69645">
        <ele>255.6</ele>
        <time>2022-10-15 16:25:18</time>
      </trkpt>
      <trkpt lat="38.33978" lon="-0.69643">
        <ele>255.6</ele>
        <time>2022-10-15 16:25:19</time>
      </trkpt>
      <trkpt lat="38.33978" lon="-0.69643">
        <ele>255.8</ele>
        <time>2022-10-15 16:25:20</time>
      </trkpt>
      <trkpt lat="38.33974" lon="-0.69639">
        <ele>255.8</ele>
        <time>2022-10-15 16:25:21</time>
      </trkpt>
      <trkpt lat="38.33969" lon="-0.69635">
        <ele>256.2</ele>
        <time>2022-10-15 16:25:23</time>
      </trkpt>
      <trkpt lat="38.33967" lon="-0.69633">
        <ele>256.2</ele>
        <time>2022-10-15 16:25:24</time>
      </trkpt>
      <trkpt lat="38.33965" lon="-0.69631">
        <ele>256.4</ele>
        <time>2022-10-15 16:25:25</time>
      </trkpt>
      <trkpt lat="38.33965" lon="-0.69631">
        <ele>256.6</ele>
        <time>2022-10-15 16:25:26</time>
      </trkpt>
      <trkpt lat="38.33958" lon="-0.69625">
        <ele>257</ele>
        <time>2022-10-15 16:25:28</time>
      </trkpt>
      <trkpt lat="38.33956" lon="-0.69623">
        <ele>257.2</ele>
        <time>2022-10-15 16:25:29</time>
      </trkpt>
      <trkpt lat="38.33954" lon="-0.69621">
        <ele>257.4</ele>
        <time>2022-10-15 16:25:30</time>
      </trkpt>
      <trkpt lat="38.33952" lon="-0.69619">
        <ele>257.6</ele>
        <time>2022-10-15 16:25:31</time>
      </trkpt>
      <trkpt lat="38.33948" lon="-0.69615">
        <ele>257.8</ele>
        <time>2022-10-15 16:25:33</time>
      </trkpt>
      <trkpt lat="38.33946" lon="-0.69613">
        <ele>258</ele>
        <time>2022-10-15 16:25:34</time>
      </trkpt>
      <trkpt lat="38.33944" lon="-0.69611">
        <ele>258</ele>
        <time>2022-10-15 16:25:35</time>
      </trkpt>
      <trkpt lat="38.33942" lon="-0.69609">
        <ele>258</ele>
        <time>2022-10-15 16:25:36</time>
      </trkpt>
      <trkpt lat="38.3394" lon="-0.69608">
        <ele>258.2</ele>
        <time>2022-10-15 16:25:38</time>
      </trkpt>
      <trkpt lat="38.33936" lon="-0.69604">
        <ele>258.2</ele>
        <time>2022-10-15 16:25:39</time>
      </trkpt>
      <trkpt lat="38.33934" lon="-0.69602">
        <ele>258.4</ele>
        <time>2022-10-15 16:25:40</time>
      </trkpt>
      <trkpt lat="38.33932" lon="-0.69601">
        <ele>258.4</ele>
        <time>2022-10-15 16:25:41</time>
      </trkpt>
      <trkpt lat="38.33931" lon="-0.69599">
        <ele>258.8</ele>
        <time>2022-10-15 16:25:42</time>
      </trkpt>
      <trkpt lat="38.33929" lon="-0.69597">
        <ele>259</ele>
        <time>2022-10-15 16:25:43</time>
      </trkpt>
      <trkpt lat="38.33929" lon="-0.69597">
        <ele>259</ele>
        <time>2022-10-15 16:25:44</time>
      </trkpt>
      <trkpt lat="38.33925" lon="-0.69594">
        <ele>259.2</ele>
        <time>2022-10-15 16:25:45</time>
      </trkpt>
      <trkpt lat="38.33924" lon="-0.69592">
        <ele>259.2</ele>
        <time>2022-10-15 16:25:46</time>
      </trkpt>
      <trkpt lat="38.33922" lon="-0.6959">
        <ele>259.4</ele>
        <time>2022-10-15 16:25:47</time>
      </trkpt>
      <trkpt lat="38.3392" lon="-0.69588">
        <ele>259.6</ele>
        <time>2022-10-15 16:25:48</time>
      </trkpt>
      <trkpt lat="38.33918" lon="-0.69587">
        <ele>259.8</ele>
        <time>2022-10-15 16:25:49</time>
      </trkpt>
      <trkpt lat="38.33918" lon="-0.69587">
        <ele>260</ele>
        <time>2022-10-15 16:25:50</time>
      </trkpt>
      <trkpt lat="38.33915" lon="-0.69583">
        <ele>260</ele>
        <time>2022-10-15 16:25:51</time>
      </trkpt>
      <trkpt lat="38.33913" lon="-0.69582">
        <ele>260.2</ele>
        <time>2022-10-15 16:25:52</time>
      </trkpt>
      <trkpt lat="38.33909" lon="-0.69578">
        <ele>260.8</ele>
        <time>2022-10-15 16:25:54</time>
      </trkpt>
      <trkpt lat="38.33907" lon="-0.69576">
        <ele>261</ele>
        <time>2022-10-15 16:25:55</time>
      </trkpt>
      <trkpt lat="38.33907" lon="-0.69576">
        <ele>261.2</ele>
        <time>2022-10-15 16:25:56</time>
      </trkpt>
      <trkpt lat="38.33904" lon="-0.69573">
        <ele>261.4</ele>
        <time>2022-10-15 16:25:57</time>
      </trkpt>
      <trkpt lat="38.339" lon="-0.69569">
        <ele>261.6</ele>
        <time>2022-10-15 16:25:59</time>
      </trkpt>
      <trkpt lat="38.33898" lon="-0.69567">
        <ele>261.6</ele>
        <time>2022-10-15 16:26:00</time>
      </trkpt>
      <trkpt lat="38.33896" lon="-0.69565">
        <ele>261.6</ele>
        <time>2022-10-15 16:26:01</time>
      </trkpt>
      <trkpt lat="38.33896" lon="-0.69565">
        <ele>261.8</ele>
        <time>2022-10-15 16:26:02</time>
      </trkpt>
      <trkpt lat="38.3389" lon="-0.69558">
        <ele>262.2</ele>
        <time>2022-10-15 16:26:04</time>
      </trkpt>
      <trkpt lat="38.33888" lon="-0.69557">
        <ele>262.2</ele>
        <time>2022-10-15 16:26:05</time>
      </trkpt>
      <trkpt lat="38.33886" lon="-0.69555">
        <ele>262.4</ele>
        <time>2022-10-15 16:26:06</time>
      </trkpt>
      <trkpt lat="38.33884" lon="-0.69553">
        <ele>262.6</ele>
        <time>2022-10-15 16:26:07</time>
      </trkpt>
      <trkpt lat="38.33884" lon="-0.69553">
        <ele>262.6</ele>
        <time>2022-10-15 16:26:08</time>
      </trkpt>
      <trkpt lat="38.33879" lon="-0.69549">
        <ele>262.8</ele>
        <time>2022-10-15 16:26:09</time>
      </trkpt>
      <trkpt lat="38.33877" lon="-0.69547">
        <ele>263.2</ele>
        <time>2022-10-15 16:26:10</time>
      </trkpt>
      <trkpt lat="38.33875" lon="-0.69545">
        <ele>263.4</ele>
        <time>2022-10-15 16:26:11</time>
      </trkpt>
      <trkpt lat="38.33872" lon="-0.69543">
        <ele>263.6</ele>
        <time>2022-10-15 16:26:12</time>
      </trkpt>
      <trkpt lat="38.3387" lon="-0.69542">
        <ele>264.4</ele>
        <time>2022-10-15 16:26:14</time>
      </trkpt>
      <trkpt lat="38.33864" lon="-0.69539">
        <ele>264.6</ele>
        <time>2022-10-15 16:26:15</time>
      </trkpt>
      <trkpt lat="38.33861" lon="-0.69538">
        <ele>264.8</ele>
        <time>2022-10-15 16:26:16</time>
      </trkpt>
      <trkpt lat="38.33858" lon="-0.69538">
        <ele>264.8</ele>
        <time>2022-10-15 16:26:17</time>
      </trkpt>
      <trkpt lat="38.33856" lon="-0.69539">
        <ele>265</ele>
        <time>2022-10-15 16:26:18</time>
      </trkpt>
      <trkpt lat="38.33853" lon="-0.6954">
        <ele>265.2</ele>
        <time>2022-10-15 16:26:20</time>
      </trkpt>
      <trkpt lat="38.33848" lon="-0.69546">
        <ele>265.2</ele>
        <time>2022-10-15 16:26:21</time>
      </trkpt>
      <trkpt lat="38.33845" lon="-0.69549">
        <ele>265.4</ele>
        <time>2022-10-15 16:26:22</time>
      </trkpt>
      <trkpt lat="38.33843" lon="-0.69553">
        <ele>265.4</ele>
        <time>2022-10-15 16:26:23</time>
      </trkpt>
      <trkpt lat="38.3384" lon="-0.69557">
        <ele>265.6</ele>
        <time>2022-10-15 16:26:24</time>
      </trkpt>
      <trkpt lat="38.33838" lon="-0.69561">
        <ele>265.8</ele>
        <time>2022-10-15 16:26:26</time>
      </trkpt>
      <trkpt lat="38.3383" lon="-0.69574">
        <ele>266.6</ele>
        <time>2022-10-15 16:26:28</time>
      </trkpt>
      <trkpt lat="38.33828" lon="-0.69578">
        <ele>266.8</ele>
        <time>2022-10-15 16:26:29</time>
      </trkpt>
      <trkpt lat="38.33818" lon="-0.69593">
        <ele>266.8</ele>
        <time>2022-10-15 16:26:33</time>
      </trkpt>
      <trkpt lat="38.33811" lon="-0.69596">
        <ele>267</ele>
        <time>2022-10-15 16:26:36</time>
      </trkpt>
      <trkpt lat="38.33808" lon="-0.69596">
        <ele>267</ele>
        <time>2022-10-15 16:26:37</time>
      </trkpt>
      <trkpt lat="38.33802" lon="-0.69592">
        <ele>267.2</ele>
        <time>2022-10-15 16:26:39</time>
      </trkpt>
      <trkpt lat="38.33798" lon="-0.69587">
        <ele>267.2</ele>
        <time>2022-10-15 16:26:41</time>
      </trkpt>
      <trkpt lat="38.33795" lon="-0.69581">
        <ele>267.6</ele>
        <time>2022-10-15 16:26:43</time>
      </trkpt>
      <trkpt lat="38.33793" lon="-0.69578">
        <ele>267.6</ele>
        <time>2022-10-15 16:26:44</time>
      </trkpt>
      <trkpt lat="38.33789" lon="-0.69572">
        <ele>268.4</ele>
        <time>2022-10-15 16:26:46</time>
      </trkpt>
      <trkpt lat="38.33788" lon="-0.69569">
        <ele>269</ele>
        <time>2022-10-15 16:26:47</time>
      </trkpt>
      <trkpt lat="38.33784" lon="-0.69563">
        <ele>269.4</ele>
        <time>2022-10-15 16:26:49</time>
      </trkpt>
      <trkpt lat="38.3378" lon="-0.69558">
        <ele>269.6</ele>
        <time>2022-10-15 16:26:51</time>
      </trkpt>
      <trkpt lat="38.33775" lon="-0.69553">
        <ele>269.8</ele>
        <time>2022-10-15 16:26:53</time>
      </trkpt>
      <trkpt lat="38.33773" lon="-0.69551">
        <ele>270.2</ele>
        <time>2022-10-15 16:26:54</time>
      </trkpt>
      <trkpt lat="38.33761" lon="-0.6954">
        <ele>270.6</ele>
        <time>2022-10-15 16:26:58</time>
      </trkpt>
      <trkpt lat="38.33759" lon="-0.69538">
        <ele>270.8</ele>
        <time>2022-10-15 16:26:59</time>
      </trkpt>
      <trkpt lat="38.33754" lon="-0.69534">
        <ele>270.8</ele>
        <time>2022-10-15 16:27:01</time>
      </trkpt>
      <trkpt lat="38.33754" lon="-0.69534">
        <ele>271.2</ele>
        <time>2022-10-15 16:27:02</time>
      </trkpt>
      <trkpt lat="38.33749" lon="-0.69531">
        <ele>271.4</ele>
        <time>2022-10-15 16:27:03</time>
      </trkpt>
      <trkpt lat="38.33743" lon="-0.69529">
        <ele>271.8</ele>
        <time>2022-10-15 16:27:05</time>
      </trkpt>
      <trkpt lat="38.33741" lon="-0.69528">
        <ele>272</ele>
        <time>2022-10-15 16:27:06</time>
      </trkpt>
      <trkpt lat="38.33738" lon="-0.69528">
        <ele>272.2</ele>
        <time>2022-10-15 16:27:07</time>
      </trkpt>
      <trkpt lat="38.33738" lon="-0.69528">
        <ele>272.4</ele>
        <time>2022-10-15 16:27:08</time>
      </trkpt>
      <trkpt lat="38.3373" lon="-0.69531">
        <ele>273.4</ele>
        <time>2022-10-15 16:27:10</time>
      </trkpt>
      <trkpt lat="38.33728" lon="-0.69531">
        <ele>273.6</ele>
        <time>2022-10-15 16:27:11</time>
      </trkpt>
      <trkpt lat="38.33725" lon="-0.69531">
        <ele>274</ele>
        <time>2022-10-15 16:27:12</time>
      </trkpt>
      <trkpt lat="38.33723" lon="-0.69529">
        <ele>274.2</ele>
        <time>2022-10-15 16:27:13</time>
      </trkpt>
      <trkpt lat="38.33723" lon="-0.69529">
        <ele>274.2</ele>
        <time>2022-10-15 16:27:14</time>
      </trkpt>
      <trkpt lat="38.33719" lon="-0.69523">
        <ele>274.6</ele>
        <time>2022-10-15 16:27:15</time>
      </trkpt>
      <trkpt lat="38.33717" lon="-0.6952">
        <ele>274.8</ele>
        <time>2022-10-15 16:27:16</time>
      </trkpt>
      <trkpt lat="38.33716" lon="-0.69517">
        <ele>275.2</ele>
        <time>2022-10-15 16:27:17</time>
      </trkpt>
      <trkpt lat="38.33715" lon="-0.69514">
        <ele>275.4</ele>
        <time>2022-10-15 16:27:18</time>
      </trkpt>
      <trkpt lat="38.33714" lon="-0.69511">
        <ele>275.6</ele>
        <time>2022-10-15 16:27:19</time>
      </trkpt>
      <trkpt lat="38.33714" lon="-0.69511">
        <ele>275.8</ele>
        <time>2022-10-15 16:27:20</time>
      </trkpt>
      <trkpt lat="38.33712" lon="-0.69504">
        <ele>275.8</ele>
        <time>2022-10-15 16:27:21</time>
      </trkpt>
      <trkpt lat="38.3371" lon="-0.69501">
        <ele>275.8</ele>
        <time>2022-10-15 16:27:22</time>
      </trkpt>
      <trkpt lat="38.33709" lon="-0.69497">
        <ele>276.2</ele>
        <time>2022-10-15 16:27:23</time>
      </trkpt>
      <trkpt lat="38.33708" lon="-0.69494">
        <ele>276.8</ele>
        <time>2022-10-15 16:27:24</time>
      </trkpt>
      <trkpt lat="38.33707" lon="-0.6949">
        <ele>277.2</ele>
        <time>2022-10-15 16:27:25</time>
      </trkpt>
      <trkpt lat="38.33707" lon="-0.6949">
        <ele>277.6</ele>
        <time>2022-10-15 16:27:26</time>
      </trkpt>
      <trkpt lat="38.33705" lon="-0.69483">
        <ele>277.6</ele>
        <time>2022-10-15 16:27:27</time>
      </trkpt>
      <trkpt lat="38.33704" lon="-0.69479">
        <ele>277.8</ele>
        <time>2022-10-15 16:27:28</time>
      </trkpt>
      <trkpt lat="38.33703" lon="-0.69476">
        <ele>278</ele>
        <time>2022-10-15 16:27:29</time>
      </trkpt>
      <trkpt lat="38.33701" lon="-0.69472">
        <ele>278</ele>
        <time>2022-10-15 16:27:30</time>
      </trkpt>
      <trkpt lat="38.337" lon="-0.69469">
        <ele>278.2</ele>
        <time>2022-10-15 16:27:31</time>
      </trkpt>
      <trkpt lat="38.337" lon="-0.69469">
        <ele>278.4</ele>
        <time>2022-10-15 16:27:32</time>
      </trkpt>
      <trkpt lat="38.33698" lon="-0.69462">
        <ele>278.6</ele>
        <time>2022-10-15 16:27:33</time>
      </trkpt>
      <trkpt lat="38.33696" lon="-0.69458">
        <ele>279</ele>
        <time>2022-10-15 16:27:34</time>
      </trkpt>
      <trkpt lat="38.33695" lon="-0.69455">
        <ele>279.2</ele>
        <time>2022-10-15 16:27:35</time>
      </trkpt>
      <trkpt lat="38.33694" lon="-0.69451">
        <ele>279.4</ele>
        <time>2022-10-15 16:27:36</time>
      </trkpt>
      <trkpt lat="38.33692" lon="-0.69448">
        <ele>279.8</ele>
        <time>2022-10-15 16:27:37</time>
      </trkpt>
      <trkpt lat="38.33692" lon="-0.69448">
        <ele>279.8</ele>
        <time>2022-10-15 16:27:38</time>
      </trkpt>
      <trkpt lat="38.3369" lon="-0.69441">
        <ele>280</ele>
        <time>2022-10-15 16:27:39</time>
      </trkpt>
      <trkpt lat="38.33688" lon="-0.69438">
        <ele>280</ele>
        <time>2022-10-15 16:27:40</time>
      </trkpt>
      <trkpt lat="38.33687" lon="-0.69435">
        <ele>280.2</ele>
        <time>2022-10-15 16:27:41</time>
      </trkpt>
      <trkpt lat="38.33685" lon="-0.69432">
        <ele>280.2</ele>
        <time>2022-10-15 16:27:42</time>
      </trkpt>
      <trkpt lat="38.33683" lon="-0.69429">
        <ele>280.4</ele>
        <time>2022-10-15 16:27:44</time>
      </trkpt>
      <trkpt lat="38.33678" lon="-0.69425">
        <ele>280.6</ele>
        <time>2022-10-15 16:27:45</time>
      </trkpt>
      <trkpt lat="38.33675" lon="-0.69423">
        <ele>280.8</ele>
        <time>2022-10-15 16:27:46</time>
      </trkpt>
      <trkpt lat="38.33673" lon="-0.69421">
        <ele>281.2</ele>
        <time>2022-10-15 16:27:47</time>
      </trkpt>
      <trkpt lat="38.3367" lon="-0.69419">
        <ele>281.6</ele>
        <time>2022-10-15 16:27:48</time>
      </trkpt>
      <trkpt lat="38.33667" lon="-0.69417">
        <ele>282</ele>
        <time>2022-10-15 16:27:49</time>
      </trkpt>
      <trkpt lat="38.33667" lon="-0.69417">
        <ele>282.4</ele>
        <time>2022-10-15 16:27:50</time>
      </trkpt>
      <trkpt lat="38.33661" lon="-0.69414">
        <ele>282.8</ele>
        <time>2022-10-15 16:27:51</time>
      </trkpt>
      <trkpt lat="38.33658" lon="-0.69413">
        <ele>283.2</ele>
        <time>2022-10-15 16:27:52</time>
      </trkpt>
      <trkpt lat="38.33656" lon="-0.69411">
        <ele>283.4</ele>
        <time>2022-10-15 16:27:53</time>
      </trkpt>
      <trkpt lat="38.33653" lon="-0.69409">
        <ele>283.6</ele>
        <time>2022-10-15 16:27:54</time>
      </trkpt>
      <trkpt lat="38.33651" lon="-0.69407">
        <ele>283.8</ele>
        <time>2022-10-15 16:27:55</time>
      </trkpt>
      <trkpt lat="38.33651" lon="-0.69407">
        <ele>284</ele>
        <time>2022-10-15 16:27:56</time>
      </trkpt>
      <trkpt lat="38.33646" lon="-0.69403">
        <ele>284</ele>
        <time>2022-10-15 16:27:57</time>
      </trkpt>
      <trkpt lat="38.33643" lon="-0.694">
        <ele>284.2</ele>
        <time>2022-10-15 16:27:58</time>
      </trkpt>
      <trkpt lat="38.3364" lon="-0.69398">
        <ele>284.6</ele>
        <time>2022-10-15 16:27:59</time>
      </trkpt>
      <trkpt lat="38.33635" lon="-0.69394">
        <ele>285</ele>
        <time>2022-10-15 16:28:01</time>
      </trkpt>
      <trkpt lat="38.33635" lon="-0.69394">
        <ele>285</ele>
        <time>2022-10-15 16:28:02</time>
      </trkpt>
      <trkpt lat="38.33629" lon="-0.6939">
        <ele>285.2</ele>
        <time>2022-10-15 16:28:03</time>
      </trkpt>
      <trkpt lat="38.33626" lon="-0.69388">
        <ele>285.4</ele>
        <time>2022-10-15 16:28:04</time>
      </trkpt>
      <trkpt lat="38.33623" lon="-0.69385">
        <ele>285.4</ele>
        <time>2022-10-15 16:28:05</time>
      </trkpt>
      <trkpt lat="38.33619" lon="-0.69383">
        <ele>285.6</ele>
        <time>2022-10-15 16:28:06</time>
      </trkpt>
      <trkpt lat="38.33616" lon="-0.69382">
        <ele>285.8</ele>
        <time>2022-10-15 16:28:07</time>
      </trkpt>
      <trkpt lat="38.33616" lon="-0.69382">
        <ele>285.8</ele>
        <time>2022-10-15 16:28:08</time>
      </trkpt>
      <trkpt lat="38.33604" lon="-0.69378">
        <ele>285.8</ele>
        <time>2022-10-15 16:28:10</time>
      </trkpt>
      <trkpt lat="38.33601" lon="-0.69377">
        <ele>285.8</ele>
        <time>2022-10-15 16:28:11</time>
      </trkpt>
      <trkpt lat="38.33597" lon="-0.69376">
        <ele>285.8</ele>
        <time>2022-10-15 16:28:12</time>
      </trkpt>
      <trkpt lat="38.33593" lon="-0.69375">
        <ele>285.8</ele>
        <time>2022-10-15 16:28:13</time>
      </trkpt>
      <trkpt lat="38.33593" lon="-0.69375">
        <ele>285.8</ele>
        <time>2022-10-15 16:28:14</time>
      </trkpt>
      <trkpt lat="38.33585" lon="-0.69373">
        <ele>285.8</ele>
        <time>2022-10-15 16:28:15</time>
      </trkpt>
      <trkpt lat="38.33581" lon="-0.69372">
        <ele>285.8</ele>
        <time>2022-10-15 16:28:16</time>
      </trkpt>
      <trkpt lat="38.33578" lon="-0.69371">
        <ele>285.8</ele>
        <time>2022-10-15 16:28:17</time>
      </trkpt>
      <trkpt lat="38.33574" lon="-0.6937">
        <ele>285.8</ele>
        <time>2022-10-15 16:28:18</time>
      </trkpt>
      <trkpt lat="38.33572" lon="-0.69367">
        <ele>285.8</ele>
        <time>2022-10-15 16:28:19</time>
      </trkpt>
      <trkpt lat="38.33572" lon="-0.69367">
        <ele>285.8</ele>
        <time>2022-10-15 16:28:20</time>
      </trkpt>
      <trkpt lat="38.33566" lon="-0.69363">
        <ele>285.8</ele>
        <time>2022-10-15 16:28:21</time>
      </trkpt>
      <trkpt lat="38.33563" lon="-0.69363">
        <ele>285.8</ele>
        <time>2022-10-15 16:28:22</time>
      </trkpt>
      <trkpt lat="38.3356" lon="-0.69362">
        <ele>285.8</ele>
        <time>2022-10-15 16:28:23</time>
      </trkpt>
      <trkpt lat="38.33557" lon="-0.69362">
        <ele>285.8</ele>
        <time>2022-10-15 16:28:24</time>
      </trkpt>
      <trkpt lat="38.33554" lon="-0.69363">
        <ele>286</ele>
        <time>2022-10-15 16:28:25</time>
      </trkpt>
      <trkpt lat="38.33554" lon="-0.69363">
        <ele>286</ele>
        <time>2022-10-15 16:28:26</time>
      </trkpt>
      <trkpt lat="38.33548" lon="-0.69365">
        <ele>286.2</ele>
        <time>2022-10-15 16:28:28</time>
      </trkpt>
      <trkpt lat="38.33546" lon="-0.69365">
        <ele>286.2</ele>
        <time>2022-10-15 16:28:29</time>
      </trkpt>
      <trkpt lat="38.33543" lon="-0.69366">
        <ele>286</ele>
        <time>2022-10-15 16:28:30</time>
      </trkpt>
      <trkpt lat="38.33541" lon="-0.69366">
        <ele>286</ele>
        <time>2022-10-15 16:28:31</time>
      </trkpt>
      <trkpt lat="38.33541" lon="-0.69366">
        <ele>286.2</ele>
        <time>2022-10-15 16:28:32</time>
      </trkpt>
      <trkpt lat="38.33536" lon="-0.69368">
        <ele>286.2</ele>
        <time>2022-10-15 16:28:33</time>
      </trkpt>
      <trkpt lat="38.33533" lon="-0.69369">
        <ele>286.2</ele>
        <time>2022-10-15 16:28:34</time>
      </trkpt>
      <trkpt lat="38.33529" lon="-0.6937">
        <ele>286.2</ele>
        <time>2022-10-15 16:28:35</time>
      </trkpt>
      <trkpt lat="38.33522" lon="-0.69372">
        <ele>286.2</ele>
        <time>2022-10-15 16:28:37</time>
      </trkpt>
      <trkpt lat="38.33518" lon="-0.69372">
        <ele>286.2</ele>
        <time>2022-10-15 16:28:38</time>
      </trkpt>
      <trkpt lat="38.33514" lon="-0.69372">
        <ele>286.2</ele>
        <time>2022-10-15 16:28:39</time>
      </trkpt>
      <trkpt lat="38.33511" lon="-0.69371">
        <ele>286</ele>
        <time>2022-10-15 16:28:40</time>
      </trkpt>
      <trkpt lat="38.33507" lon="-0.6937">
        <ele>286</ele>
        <time>2022-10-15 16:28:41</time>
      </trkpt>
      <trkpt lat="38.33503" lon="-0.69369">
        <ele>285.8</ele>
        <time>2022-10-15 16:28:42</time>
      </trkpt>
      <trkpt lat="38.335" lon="-0.69369">
        <ele>285.6</ele>
        <time>2022-10-15 16:28:43</time>
      </trkpt>
      <trkpt lat="38.33496" lon="-0.69368">
        <ele>285.2</ele>
        <time>2022-10-15 16:28:44</time>
      </trkpt>
      <trkpt lat="38.33493" lon="-0.69368">
        <ele>285</ele>
        <time>2022-10-15 16:28:45</time>
      </trkpt>
      <trkpt lat="38.33488" lon="-0.6937">
        <ele>284.4</ele>
        <time>2022-10-15 16:28:47</time>
      </trkpt>
      <trkpt lat="38.33486" lon="-0.69374">
        <ele>284.4</ele>
        <time>2022-10-15 16:28:48</time>
      </trkpt>
      <trkpt lat="38.33484" lon="-0.69378">
        <ele>284.2</ele>
        <time>2022-10-15 16:28:49</time>
      </trkpt>
      <trkpt lat="38.33484" lon="-0.69378">
        <ele>284.2</ele>
        <time>2022-10-15 16:28:50</time>
      </trkpt>
      <trkpt lat="38.33477" lon="-0.69384">
        <ele>284.2</ele>
        <time>2022-10-15 16:28:51</time>
      </trkpt>
      <trkpt lat="38.33473" lon="-0.69386">
        <ele>284.2</ele>
        <time>2022-10-15 16:28:52</time>
      </trkpt>
      <trkpt lat="38.33468" lon="-0.69387">
        <ele>284</ele>
        <time>2022-10-15 16:28:53</time>
      </trkpt>
      <trkpt lat="38.33463" lon="-0.69387">
        <ele>283.8</ele>
        <time>2022-10-15 16:28:54</time>
      </trkpt>
      <trkpt lat="38.33458" lon="-0.69387">
        <ele>283.8</ele>
        <time>2022-10-15 16:28:55</time>
      </trkpt>
      <trkpt lat="38.33447" lon="-0.69388">
        <ele>283.6</ele>
        <time>2022-10-15 16:28:57</time>
      </trkpt>
      <trkpt lat="38.33441" lon="-0.69388">
        <ele>283</ele>
        <time>2022-10-15 16:28:58</time>
      </trkpt>
      <trkpt lat="38.33436" lon="-0.69388">
        <ele>282.6</ele>
        <time>2022-10-15 16:28:59</time>
      </trkpt>
      <trkpt lat="38.3343" lon="-0.69388">
        <ele>282.2</ele>
        <time>2022-10-15 16:29:00</time>
      </trkpt>
      <trkpt lat="38.33425" lon="-0.69388">
        <ele>282</ele>
        <time>2022-10-15 16:29:01</time>
      </trkpt>
      <trkpt lat="38.33419" lon="-0.69388">
        <ele>281.8</ele>
        <time>2022-10-15 16:29:02</time>
      </trkpt>
      <trkpt lat="38.33413" lon="-0.69388">
        <ele>281.4</ele>
        <time>2022-10-15 16:29:03</time>
      </trkpt>
      <trkpt lat="38.33408" lon="-0.69389">
        <ele>280.8</ele>
        <time>2022-10-15 16:29:04</time>
      </trkpt>
      <trkpt lat="38.33402" lon="-0.69389">
        <ele>280.4</ele>
        <time>2022-10-15 16:29:05</time>
      </trkpt>
      <trkpt lat="38.33396" lon="-0.69389">
        <ele>280.4</ele>
        <time>2022-10-15 16:29:06</time>
      </trkpt>
      <trkpt lat="38.3339" lon="-0.6939">
        <ele>280.2</ele>
        <time>2022-10-15 16:29:07</time>
      </trkpt>
      <trkpt lat="38.33384" lon="-0.6939">
        <ele>280</ele>
        <time>2022-10-15 16:29:08</time>
      </trkpt>
      <trkpt lat="38.33377" lon="-0.6939">
        <ele>279.8</ele>
        <time>2022-10-15 16:29:09</time>
      </trkpt>
      <trkpt lat="38.33371" lon="-0.6939">
        <ele>279.8</ele>
        <time>2022-10-15 16:29:10</time>
      </trkpt>
      <trkpt lat="38.33365" lon="-0.69389">
        <ele>279.6</ele>
        <time>2022-10-15 16:29:11</time>
      </trkpt>
      <trkpt lat="38.33358" lon="-0.69388">
        <ele>279.4</ele>
        <time>2022-10-15 16:29:12</time>
      </trkpt>
      <trkpt lat="38.33352" lon="-0.69387">
        <ele>279</ele>
        <time>2022-10-15 16:29:13</time>
      </trkpt>
      <trkpt lat="38.33352" lon="-0.69387">
        <ele>278.6</ele>
        <time>2022-10-15 16:29:14</time>
      </trkpt>
      <trkpt lat="38.33332" lon="-0.69385">
        <ele>278.4</ele>
        <time>2022-10-15 16:29:16</time>
      </trkpt>
      <trkpt lat="38.33325" lon="-0.69384">
        <ele>278</ele>
        <time>2022-10-15 16:29:17</time>
      </trkpt>
      <trkpt lat="38.33318" lon="-0.69383">
        <ele>277.8</ele>
        <time>2022-10-15 16:29:18</time>
      </trkpt>
      <trkpt lat="38.33311" lon="-0.69383">
        <ele>277</ele>
        <time>2022-10-15 16:29:19</time>
      </trkpt>
      <trkpt lat="38.33311" lon="-0.69383">
        <ele>276.8</ele>
        <time>2022-10-15 16:29:20</time>
      </trkpt>
      <trkpt lat="38.33297" lon="-0.69383">
        <ele>276.6</ele>
        <time>2022-10-15 16:29:21</time>
      </trkpt>
      <trkpt lat="38.33289" lon="-0.69382">
        <ele>276</ele>
        <time>2022-10-15 16:29:22</time>
      </trkpt>
      <trkpt lat="38.33281" lon="-0.69381">
        <ele>275.4</ele>
        <time>2022-10-15 16:29:23</time>
      </trkpt>
      <trkpt lat="38.33273" lon="-0.6938">
        <ele>274.6</ele>
        <time>2022-10-15 16:29:24</time>
      </trkpt>
      <trkpt lat="38.33265" lon="-0.69378">
        <ele>274</ele>
        <time>2022-10-15 16:29:25</time>
      </trkpt>
      <trkpt lat="38.33265" lon="-0.69378">
        <ele>273.4</ele>
        <time>2022-10-15 16:29:26</time>
      </trkpt>
      <trkpt lat="38.33247" lon="-0.69375">
        <ele>272.8</ele>
        <time>2022-10-15 16:29:27</time>
      </trkpt>
      <trkpt lat="38.33238" lon="-0.69373">
        <ele>272.2</ele>
        <time>2022-10-15 16:29:28</time>
      </trkpt>
      <trkpt lat="38.33228" lon="-0.69371">
        <ele>272</ele>
        <time>2022-10-15 16:29:29</time>
      </trkpt>
      <trkpt lat="38.33219" lon="-0.69369">
        <ele>271.6</ele>
        <time>2022-10-15 16:29:30</time>
      </trkpt>
      <trkpt lat="38.3321" lon="-0.69366">
        <ele>271.2</ele>
        <time>2022-10-15 16:29:31</time>
      </trkpt>
      <trkpt lat="38.3321" lon="-0.69366">
        <ele>270.2</ele>
        <time>2022-10-15 16:29:32</time>
      </trkpt>
      <trkpt lat="38.33193" lon="-0.69359">
        <ele>269.4</ele>
        <time>2022-10-15 16:29:33</time>
      </trkpt>
      <trkpt lat="38.33186" lon="-0.69353">
        <ele>268.4</ele>
        <time>2022-10-15 16:29:34</time>
      </trkpt>
      <trkpt lat="38.33181" lon="-0.69344">
        <ele>267.4</ele>
        <time>2022-10-15 16:29:35</time>
      </trkpt>
      <trkpt lat="38.33178" lon="-0.69333">
        <ele>266</ele>
        <time>2022-10-15 16:29:36</time>
      </trkpt>
      <trkpt lat="38.33177" lon="-0.69322">
        <ele>264.8</ele>
        <time>2022-10-15 16:29:37</time>
      </trkpt>
      <trkpt lat="38.33177" lon="-0.69322">
        <ele>263.6</ele>
        <time>2022-10-15 16:29:38</time>
      </trkpt>
      <trkpt lat="38.33177" lon="-0.69302">
        <ele>262.6</ele>
        <time>2022-10-15 16:29:39</time>
      </trkpt>
      <trkpt lat="38.33177" lon="-0.69292">
        <ele>262</ele>
        <time>2022-10-15 16:29:40</time>
      </trkpt>
      <trkpt lat="38.33177" lon="-0.69283">
        <ele>260.2</ele>
        <time>2022-10-15 16:29:41</time>
      </trkpt>
      <trkpt lat="38.33176" lon="-0.69274">
        <ele>259.6</ele>
        <time>2022-10-15 16:29:42</time>
      </trkpt>
      <trkpt lat="38.33177" lon="-0.69264">
        <ele>259.2</ele>
        <time>2022-10-15 16:29:43</time>
      </trkpt>
      <trkpt lat="38.33177" lon="-0.69264">
        <ele>259</ele>
        <time>2022-10-15 16:29:44</time>
      </trkpt>
      <trkpt lat="38.33176" lon="-0.69247">
        <ele>259</ele>
        <time>2022-10-15 16:29:45</time>
      </trkpt>
      <trkpt lat="38.33176" lon="-0.69238">
        <ele>259</ele>
        <time>2022-10-15 16:29:46</time>
      </trkpt>
      <trkpt lat="38.33176" lon="-0.6923">
        <ele>259</ele>
        <time>2022-10-15 16:29:47</time>
      </trkpt>
      <trkpt lat="38.33176" lon="-0.69221">
        <ele>259</ele>
        <time>2022-10-15 16:29:48</time>
      </trkpt>
      <trkpt lat="38.33176" lon="-0.69213">
        <ele>258.8</ele>
        <time>2022-10-15 16:29:49</time>
      </trkpt>
      <trkpt lat="38.33176" lon="-0.69213">
        <ele>258.8</ele>
        <time>2022-10-15 16:29:50</time>
      </trkpt>
      <trkpt lat="38.33177" lon="-0.69188">
        <ele>259</ele>
        <time>2022-10-15 16:29:52</time>
      </trkpt>
      <trkpt lat="38.33177" lon="-0.6918">
        <ele>259</ele>
        <time>2022-10-15 16:29:53</time>
      </trkpt>
      <trkpt lat="38.33177" lon="-0.69172">
        <ele>259</ele>
        <time>2022-10-15 16:29:54</time>
      </trkpt>
      <trkpt lat="38.33177" lon="-0.69164">
        <ele>259</ele>
        <time>2022-10-15 16:29:56</time>
      </trkpt>
      <trkpt lat="38.33176" lon="-0.69147">
        <ele>258.8</ele>
        <time>2022-10-15 16:29:57</time>
      </trkpt>
      <trkpt lat="38.33176" lon="-0.69138">
        <ele>258.8</ele>
        <time>2022-10-15 16:29:58</time>
      </trkpt>
      <trkpt lat="38.33175" lon="-0.69129">
        <ele>258.8</ele>
        <time>2022-10-15 16:29:59</time>
      </trkpt>
      <trkpt lat="38.33175" lon="-0.69121">
        <ele>259</ele>
        <time>2022-10-15 16:30:00</time>
      </trkpt>
      <trkpt lat="38.33175" lon="-0.69112">
        <ele>259</ele>
        <time>2022-10-15 16:30:01</time>
      </trkpt>
      <trkpt lat="38.33176" lon="-0.69095">
        <ele>259</ele>
        <time>2022-10-15 16:30:03</time>
      </trkpt>
      <trkpt lat="38.33176" lon="-0.69086">
        <ele>259</ele>
        <time>2022-10-15 16:30:04</time>
      </trkpt>
      <trkpt lat="38.33175" lon="-0.69077">
        <ele>259</ele>
        <time>2022-10-15 16:30:05</time>
      </trkpt>
      <trkpt lat="38.33175" lon="-0.69061">
        <ele>258.8</ele>
        <time>2022-10-15 16:30:07</time>
      </trkpt>
      <trkpt lat="38.33175" lon="-0.69061">
        <ele>258.8</ele>
        <time>2022-10-15 16:30:08</time>
      </trkpt>
      <trkpt lat="38.33173" lon="-0.69045">
        <ele>258.6</ele>
        <time>2022-10-15 16:30:09</time>
      </trkpt>
      <trkpt lat="38.33172" lon="-0.69037">
        <ele>258.4</ele>
        <time>2022-10-15 16:30:10</time>
      </trkpt>
      <trkpt lat="38.3317" lon="-0.69029">
        <ele>258.4</ele>
        <time>2022-10-15 16:30:11</time>
      </trkpt>
      <trkpt lat="38.33167" lon="-0.69021">
        <ele>258.2</ele>
        <time>2022-10-15 16:30:12</time>
      </trkpt>
      <trkpt lat="38.33164" lon="-0.69012">
        <ele>258</ele>
        <time>2022-10-15 16:30:14</time>
      </trkpt>
      <trkpt lat="38.33153" lon="-0.68997">
        <ele>258</ele>
        <time>2022-10-15 16:30:15</time>
      </trkpt>
      <trkpt lat="38.33146" lon="-0.68991">
        <ele>258</ele>
        <time>2022-10-15 16:30:16</time>
      </trkpt>
      <trkpt lat="38.3313" lon="-0.68981">
        <ele>257.8</ele>
        <time>2022-10-15 16:30:18</time>
      </trkpt>
      <trkpt lat="38.33122" lon="-0.68978">
        <ele>257.4</ele>
        <time>2022-10-15 16:30:19</time>
      </trkpt>
      <trkpt lat="38.33122" lon="-0.68978">
        <ele>257</ele>
        <time>2022-10-15 16:30:20</time>
      </trkpt>
      <trkpt lat="38.33104" lon="-0.68978">
        <ele>256.4</ele>
        <time>2022-10-15 16:30:21</time>
      </trkpt>
      <trkpt lat="38.33098" lon="-0.68981">
        <ele>255.4</ele>
        <time>2022-10-15 16:30:22</time>
      </trkpt>
      <trkpt lat="38.33093" lon="-0.68986">
        <ele>254.4</ele>
        <time>2022-10-15 16:30:23</time>
      </trkpt>
      <trkpt lat="38.33091" lon="-0.68992">
        <ele>253.4</ele>
        <time>2022-10-15 16:30:24</time>
      </trkpt>
      <trkpt lat="38.33089" lon="-0.68998">
        <ele>252.8</ele>
        <time>2022-10-15 16:30:25</time>
      </trkpt>
      <trkpt lat="38.33089" lon="-0.68998">
        <ele>252.4</ele>
        <time>2022-10-15 16:30:26</time>
      </trkpt>
      <trkpt lat="38.33084" lon="-0.69003">
        <ele>252.2</ele>
        <time>2022-10-15 16:30:27</time>
      </trkpt>
      <trkpt lat="38.33082" lon="-0.69002">
        <ele>252.2</ele>
        <time>2022-10-15 16:30:28</time>
      </trkpt>
      <trkpt lat="38.33081" lon="-0.69002">
        <ele>252.2</ele>
        <time>2022-10-15 16:30:30</time>
      </trkpt>
      <trkpt lat="38.3308" lon="-0.69003">
        <ele>252.2</ele>
        <time>2022-10-15 16:30:31</time>
      </trkpt>
      <trkpt lat="38.33075" lon="-0.69001">
        <ele>252.8</ele>
        <time>2022-10-15 16:36:24</time>
      </trkpt>
      <trkpt lat="38.33074" lon="-0.68999">
        <ele>252.8</ele>
        <time>2022-10-15 16:36:25</time>
      </trkpt>
      <trkpt lat="38.33074" lon="-0.68999">
        <ele>252.8</ele>
        <time>2022-10-15 16:36:26</time>
      </trkpt>
      <trkpt lat="38.33072" lon="-0.68994">
        <ele>252.8</ele>
        <time>2022-10-15 16:36:27</time>
      </trkpt>
      <trkpt lat="38.33071" lon="-0.68991">
        <ele>252.8</ele>
        <time>2022-10-15 16:36:28</time>
      </trkpt>
      <trkpt lat="38.33069" lon="-0.68987">
        <ele>252.6</ele>
        <time>2022-10-15 16:36:29</time>
      </trkpt>
      <trkpt lat="38.33068" lon="-0.68983">
        <ele>252.6</ele>
        <time>2022-10-15 16:36:30</time>
      </trkpt>
      <trkpt lat="38.33066" lon="-0.68978">
        <ele>252.6</ele>
        <time>2022-10-15 16:36:31</time>
      </trkpt>
      <trkpt lat="38.33066" lon="-0.68978">
        <ele>252.4</ele>
        <time>2022-10-15 16:36:32</time>
      </trkpt>
      <trkpt lat="38.33063" lon="-0.68966">
        <ele>252.2</ele>
        <time>2022-10-15 16:36:33</time>
      </trkpt>
      <trkpt lat="38.33059" lon="-0.68953">
        <ele>252</ele>
        <time>2022-10-15 16:36:35</time>
      </trkpt>
      <trkpt lat="38.33057" lon="-0.68947">
        <ele>251.8</ele>
        <time>2022-10-15 16:36:36</time>
      </trkpt>
      <trkpt lat="38.33055" lon="-0.68941">
        <ele>251.6</ele>
        <time>2022-10-15 16:36:37</time>
      </trkpt>
      <trkpt lat="38.33055" lon="-0.68941">
        <ele>251.4</ele>
        <time>2022-10-15 16:36:38</time>
      </trkpt>
      <trkpt lat="38.33051" lon="-0.68928">
        <ele>251</ele>
        <time>2022-10-15 16:36:39</time>
      </trkpt>
      <trkpt lat="38.33049" lon="-0.68922">
        <ele>250.2</ele>
        <time>2022-10-15 16:36:40</time>
      </trkpt>
      <trkpt lat="38.33047" lon="-0.68916">
        <ele>250</ele>
        <time>2022-10-15 16:36:41</time>
      </trkpt>
      <trkpt lat="38.33045" lon="-0.6891">
        <ele>249.8</ele>
        <time>2022-10-15 16:36:42</time>
      </trkpt>
      <trkpt lat="38.33042" lon="-0.68904">
        <ele>249.6</ele>
        <time>2022-10-15 16:36:43</time>
      </trkpt>
      <trkpt lat="38.33042" lon="-0.68904">
        <ele>249.6</ele>
        <time>2022-10-15 16:36:44</time>
      </trkpt>
      <trkpt lat="38.33037" lon="-0.68892">
        <ele>249.6</ele>
        <time>2022-10-15 16:36:45</time>
      </trkpt>
      <trkpt lat="38.33033" lon="-0.68887">
        <ele>249.4</ele>
        <time>2022-10-15 16:36:46</time>
      </trkpt>
      <trkpt lat="38.3303" lon="-0.68881">
        <ele>249.4</ele>
        <time>2022-10-15 16:36:47</time>
      </trkpt>
      <trkpt lat="38.33026" lon="-0.68875">
        <ele>249.4</ele>
        <time>2022-10-15 16:36:48</time>
      </trkpt>
      <trkpt lat="38.33022" lon="-0.6887">
        <ele>249.4</ele>
        <time>2022-10-15 16:36:49</time>
      </trkpt>
      <trkpt lat="38.33022" lon="-0.6887">
        <ele>249.4</ele>
        <time>2022-10-15 16:36:50</time>
      </trkpt>
      <trkpt lat="38.33011" lon="-0.68851">
        <ele>249.2</ele>
        <time>2022-10-15 16:36:52</time>
      </trkpt>
      <trkpt lat="38.33006" lon="-0.68845">
        <ele>248.8</ele>
        <time>2022-10-15 16:36:53</time>
      </trkpt>
      <trkpt lat="38.33002" lon="-0.68839">
        <ele>248.4</ele>
        <time>2022-10-15 16:36:54</time>
      </trkpt>
      <trkpt lat="38.32997" lon="-0.68833">
        <ele>248</ele>
        <time>2022-10-15 16:36:55</time>
      </trkpt>
      <trkpt lat="38.32988" lon="-0.68821">
        <ele>247.4</ele>
        <time>2022-10-15 16:36:57</time>
      </trkpt>
      <trkpt lat="38.32982" lon="-0.68815">
        <ele>247</ele>
        <time>2022-10-15 16:36:58</time>
      </trkpt>
      <trkpt lat="38.32977" lon="-0.6881">
        <ele>246.8</ele>
        <time>2022-10-15 16:36:59</time>
      </trkpt>
      <trkpt lat="38.32972" lon="-0.68805">
        <ele>246.6</ele>
        <time>2022-10-15 16:37:00</time>
      </trkpt>
      <trkpt lat="38.32967" lon="-0.68801">
        <ele>246</ele>
        <time>2022-10-15 16:37:02</time>
      </trkpt>
      <trkpt lat="38.32956" lon="-0.68792">
        <ele>245.8</ele>
        <time>2022-10-15 16:37:03</time>
      </trkpt>
      <trkpt lat="38.32951" lon="-0.68788">
        <ele>245.8</ele>
        <time>2022-10-15 16:37:04</time>
      </trkpt>
      <trkpt lat="38.32945" lon="-0.68783">
        <ele>245.6</ele>
        <time>2022-10-15 16:37:05</time>
      </trkpt>
      <trkpt lat="38.32934" lon="-0.68775">
        <ele>245.6</ele>
        <time>2022-10-15 16:37:07</time>
      </trkpt>
      <trkpt lat="38.32934" lon="-0.68775">
        <ele>245.2</ele>
        <time>2022-10-15 16:37:08</time>
      </trkpt>
      <trkpt lat="38.32922" lon="-0.68765">
        <ele>245.2</ele>
        <time>2022-10-15 16:37:09</time>
      </trkpt>
      <trkpt lat="38.32916" lon="-0.6876">
        <ele>245.2</ele>
        <time>2022-10-15 16:37:10</time>
      </trkpt>
      <trkpt lat="38.3291" lon="-0.68755">
        <ele>245</ele>
        <time>2022-10-15 16:37:11</time>
      </trkpt>
      <trkpt lat="38.32903" lon="-0.6875">
        <ele>245</ele>
        <time>2022-10-15 16:37:12</time>
      </trkpt>
      <trkpt lat="38.32896" lon="-0.68744">
        <ele>244.8</ele>
        <time>2022-10-15 16:37:13</time>
      </trkpt>
      <trkpt lat="38.32896" lon="-0.68744">
        <ele>244.2</ele>
        <time>2022-10-15 16:37:14</time>
      </trkpt>
      <trkpt lat="38.32882" lon="-0.68734">
        <ele>243.8</ele>
        <time>2022-10-15 16:37:15</time>
      </trkpt>
      <trkpt lat="38.32869" lon="-0.68724">
        <ele>243.4</ele>
        <time>2022-10-15 16:37:17</time>
      </trkpt>
      <trkpt lat="38.32862" lon="-0.68719">
        <ele>243</ele>
        <time>2022-10-15 16:37:18</time>
      </trkpt>
      <trkpt lat="38.32856" lon="-0.68714">
        <ele>242.4</ele>
        <time>2022-10-15 16:37:19</time>
      </trkpt>
      <trkpt lat="38.32856" lon="-0.68714">
        <ele>241.2</ele>
        <time>2022-10-15 16:37:20</time>
      </trkpt>
      <trkpt lat="38.32845" lon="-0.68705">
        <ele>239.6</ele>
        <time>2022-10-15 16:37:21</time>
      </trkpt>
      <trkpt lat="38.3284" lon="-0.687">
        <ele>238.8</ele>
        <time>2022-10-15 16:37:22</time>
      </trkpt>
      <trkpt lat="38.32835" lon="-0.68696">
        <ele>238.2</ele>
        <time>2022-10-15 16:37:23</time>
      </trkpt>
      <trkpt lat="38.3283" lon="-0.68692">
        <ele>237.6</ele>
        <time>2022-10-15 16:37:24</time>
      </trkpt>
      <trkpt lat="38.32825" lon="-0.68688">
        <ele>237.6</ele>
        <time>2022-10-15 16:37:25</time>
      </trkpt>
      <trkpt lat="38.32825" lon="-0.68688">
        <ele>237.6</ele>
        <time>2022-10-15 16:37:26</time>
      </trkpt>
      <trkpt lat="38.32814" lon="-0.6868">
        <ele>237.6</ele>
        <time>2022-10-15 16:37:27</time>
      </trkpt>
      <trkpt lat="38.32809" lon="-0.68676">
        <ele>237.6</ele>
        <time>2022-10-15 16:37:28</time>
      </trkpt>
      <trkpt lat="38.32797" lon="-0.68667">
        <ele>237</ele>
        <time>2022-10-15 16:37:30</time>
      </trkpt>
      <trkpt lat="38.32791" lon="-0.68663">
        <ele>236.8</ele>
        <time>2022-10-15 16:37:31</time>
      </trkpt>
      <trkpt lat="38.32791" lon="-0.68663">
        <ele>236.8</ele>
        <time>2022-10-15 16:37:32</time>
      </trkpt>
      <trkpt lat="38.32779" lon="-0.68653">
        <ele>236.8</ele>
        <time>2022-10-15 16:37:33</time>
      </trkpt>
      <trkpt lat="38.32773" lon="-0.68649">
        <ele>236.8</ele>
        <time>2022-10-15 16:37:34</time>
      </trkpt>
      <trkpt lat="38.32767" lon="-0.68644">
        <ele>236.8</ele>
        <time>2022-10-15 16:37:35</time>
      </trkpt>
      <trkpt lat="38.32761" lon="-0.68639">
        <ele>236.4</ele>
        <time>2022-10-15 16:37:36</time>
      </trkpt>
      <trkpt lat="38.32755" lon="-0.68634">
        <ele>236.2</ele>
        <time>2022-10-15 16:37:37</time>
      </trkpt>
      <trkpt lat="38.32743" lon="-0.68625">
        <ele>235.4</ele>
        <time>2022-10-15 16:37:39</time>
      </trkpt>
      <trkpt lat="38.32737" lon="-0.68621">
        <ele>234.4</ele>
        <time>2022-10-15 16:37:40</time>
      </trkpt>
      <trkpt lat="38.3273" lon="-0.68616">
        <ele>233.8</ele>
        <time>2022-10-15 16:37:41</time>
      </trkpt>
      <trkpt lat="38.32718" lon="-0.68606">
        <ele>233</ele>
        <time>2022-10-15 16:37:43</time>
      </trkpt>
      <trkpt lat="38.32718" lon="-0.68606">
        <ele>233</ele>
        <time>2022-10-15 16:37:44</time>
      </trkpt>
      <trkpt lat="38.32705" lon="-0.68596">
        <ele>232.6</ele>
        <time>2022-10-15 16:37:45</time>
      </trkpt>
      <trkpt lat="38.32698" lon="-0.68591">
        <ele>232.4</ele>
        <time>2022-10-15 16:37:46</time>
      </trkpt>
      <trkpt lat="38.32685" lon="-0.68581">
        <ele>232.2</ele>
        <time>2022-10-15 16:37:48</time>
      </trkpt>
      <trkpt lat="38.32678" lon="-0.68576">
        <ele>231.6</ele>
        <time>2022-10-15 16:37:49</time>
      </trkpt>
      <trkpt lat="38.32678" lon="-0.68576">
        <ele>231.2</ele>
        <time>2022-10-15 16:37:50</time>
      </trkpt>
      <trkpt lat="38.32664" lon="-0.68565">
        <ele>230.8</ele>
        <time>2022-10-15 16:37:51</time>
      </trkpt>
      <trkpt lat="38.32657" lon="-0.6856">
        <ele>230.4</ele>
        <time>2022-10-15 16:37:52</time>
      </trkpt>
      <trkpt lat="38.3265" lon="-0.68554">
        <ele>229.6</ele>
        <time>2022-10-15 16:37:53</time>
      </trkpt>
      <trkpt lat="38.32642" lon="-0.68549">
        <ele>229.2</ele>
        <time>2022-10-15 16:37:54</time>
      </trkpt>
      <trkpt lat="38.32635" lon="-0.68543">
        <ele>228.8</ele>
        <time>2022-10-15 16:37:55</time>
      </trkpt>
      <trkpt lat="38.32635" lon="-0.68543">
        <ele>228.4</ele>
        <time>2022-10-15 16:37:56</time>
      </trkpt>
      <trkpt lat="38.32612" lon="-0.68525">
        <ele>228.2</ele>
        <time>2022-10-15 16:37:58</time>
      </trkpt>
      <trkpt lat="38.32604" lon="-0.68519">
        <ele>228</ele>
        <time>2022-10-15 16:37:59</time>
      </trkpt>
      <trkpt lat="38.32596" lon="-0.68513">
        <ele>227.8</ele>
        <time>2022-10-15 16:38:00</time>
      </trkpt>
      <trkpt lat="38.32587" lon="-0.68507">
        <ele>227.6</ele>
        <time>2022-10-15 16:38:01</time>
      </trkpt>
      <trkpt lat="38.32587" lon="-0.68507">
        <ele>227</ele>
        <time>2022-10-15 16:38:02</time>
      </trkpt>
      <trkpt lat="38.32571" lon="-0.68494">
        <ele>225.4</ele>
        <time>2022-10-15 16:38:03</time>
      </trkpt>
      <trkpt lat="38.32563" lon="-0.68488">
        <ele>223.4</ele>
        <time>2022-10-15 16:38:04</time>
      </trkpt>
      <trkpt lat="38.32555" lon="-0.68482">
        <ele>222.8</ele>
        <time>2022-10-15 16:38:05</time>
      </trkpt>
      <trkpt lat="38.32547" lon="-0.68475">
        <ele>222.6</ele>
        <time>2022-10-15 16:38:06</time>
      </trkpt>
      <trkpt lat="38.32539" lon="-0.6847">
        <ele>222.2</ele>
        <time>2022-10-15 16:38:07</time>
      </trkpt>
      <trkpt lat="38.32539" lon="-0.6847">
        <ele>221.8</ele>
        <time>2022-10-15 16:38:08</time>
      </trkpt>
      <trkpt lat="38.32524" lon="-0.68458">
        <ele>221.6</ele>
        <time>2022-10-15 16:38:09</time>
      </trkpt>
      <trkpt lat="38.32516" lon="-0.68452">
        <ele>220.6</ele>
        <time>2022-10-15 16:38:10</time>
      </trkpt>
      <trkpt lat="38.32509" lon="-0.68446">
        <ele>219.2</ele>
        <time>2022-10-15 16:38:11</time>
      </trkpt>
      <trkpt lat="38.32502" lon="-0.68441">
        <ele>218.4</ele>
        <time>2022-10-15 16:38:12</time>
      </trkpt>
      <trkpt lat="38.32495" lon="-0.68435">
        <ele>218</ele>
        <time>2022-10-15 16:38:13</time>
      </trkpt>
      <trkpt lat="38.32495" lon="-0.68435">
        <ele>217.8</ele>
        <time>2022-10-15 16:38:14</time>
      </trkpt>
      <trkpt lat="38.32473" lon="-0.68418">
        <ele>217.4</ele>
        <time>2022-10-15 16:38:16</time>
      </trkpt>
      <trkpt lat="38.32465" lon="-0.68412">
        <ele>217</ele>
        <time>2022-10-15 16:38:17</time>
      </trkpt>
      <trkpt lat="38.32458" lon="-0.68406">
        <ele>216.6</ele>
        <time>2022-10-15 16:38:18</time>
      </trkpt>
      <trkpt lat="38.3245" lon="-0.684">
        <ele>216.2</ele>
        <time>2022-10-15 16:38:19</time>
      </trkpt>
      <trkpt lat="38.3245" lon="-0.684">
        <ele>216</ele>
        <time>2022-10-15 16:38:20</time>
      </trkpt>
      <trkpt lat="38.32427" lon="-0.68382">
        <ele>215.2</ele>
        <time>2022-10-15 16:38:22</time>
      </trkpt>
      <trkpt lat="38.32419" lon="-0.68375">
        <ele>215</ele>
        <time>2022-10-15 16:38:23</time>
      </trkpt>
      <trkpt lat="38.32412" lon="-0.68369">
        <ele>214.8</ele>
        <time>2022-10-15 16:38:24</time>
      </trkpt>
      <trkpt lat="38.32404" lon="-0.68363">
        <ele>214</ele>
        <time>2022-10-15 16:38:26</time>
      </trkpt>
      <trkpt lat="38.32387" lon="-0.68351">
        <ele>213.6</ele>
        <time>2022-10-15 16:38:27</time>
      </trkpt>
      <trkpt lat="38.32379" lon="-0.68345">
        <ele>213.2</ele>
        <time>2022-10-15 16:38:28</time>
      </trkpt>
      <trkpt lat="38.32371" lon="-0.68339">
        <ele>212.6</ele>
        <time>2022-10-15 16:38:29</time>
      </trkpt>
      <trkpt lat="38.32354" lon="-0.68326">
        <ele>211.8</ele>
        <time>2022-10-15 16:38:31</time>
      </trkpt>
      <trkpt lat="38.32354" lon="-0.68326">
        <ele>211</ele>
        <time>2022-10-15 16:38:32</time>
      </trkpt>
      <trkpt lat="38.32337" lon="-0.68312">
        <ele>209.2</ele>
        <time>2022-10-15 16:38:33</time>
      </trkpt>
      <trkpt lat="38.3232" lon="-0.68299">
        <ele>208.2</ele>
        <time>2022-10-15 16:38:35</time>
      </trkpt>
      <trkpt lat="38.32312" lon="-0.68293">
        <ele>208</ele>
        <time>2022-10-15 16:38:36</time>
      </trkpt>
      <trkpt lat="38.32305" lon="-0.68287">
        <ele>207.8</ele>
        <time>2022-10-15 16:38:37</time>
      </trkpt>
      <trkpt lat="38.32289" lon="-0.68275">
        <ele>207.2</ele>
        <time>2022-10-15 16:38:39</time>
      </trkpt>
      <trkpt lat="38.32282" lon="-0.68269">
        <ele>207</ele>
        <time>2022-10-15 16:38:40</time>
      </trkpt>
      <trkpt lat="38.32275" lon="-0.68263">
        <ele>206</ele>
        <time>2022-10-15 16:38:41</time>
      </trkpt>
      <trkpt lat="38.32262" lon="-0.68254">
        <ele>204.8</ele>
        <time>2022-10-15 16:38:43</time>
      </trkpt>
      <trkpt lat="38.32262" lon="-0.68254">
        <ele>204.6</ele>
        <time>2022-10-15 16:38:44</time>
      </trkpt>
      <trkpt lat="38.32251" lon="-0.68246">
        <ele>204.6</ele>
        <time>2022-10-15 16:38:45</time>
      </trkpt>
      <trkpt lat="38.32246" lon="-0.68243">
        <ele>204.4</ele>
        <time>2022-10-15 16:38:46</time>
      </trkpt>
      <trkpt lat="38.3224" lon="-0.6824">
        <ele>204.4</ele>
        <time>2022-10-15 16:38:47</time>
      </trkpt>
      <trkpt lat="38.32235" lon="-0.68237">
        <ele>204.4</ele>
        <time>2022-10-15 16:38:48</time>
      </trkpt>
      <trkpt lat="38.3223" lon="-0.68235">
        <ele>204.4</ele>
        <time>2022-10-15 16:38:49</time>
      </trkpt>
      <trkpt lat="38.3223" lon="-0.68235">
        <ele>204.4</ele>
        <time>2022-10-15 16:38:50</time>
      </trkpt>
      <trkpt lat="38.32215" lon="-0.68227">
        <ele>204.4</ele>
        <time>2022-10-15 16:38:52</time>
      </trkpt>
      <trkpt lat="38.32205" lon="-0.68222">
        <ele>204.6</ele>
        <time>2022-10-15 16:38:54</time>
      </trkpt>
      <trkpt lat="38.32188" lon="-0.68214">
        <ele>205.4</ele>
        <time>2022-10-15 16:38:57</time>
      </trkpt>
      <trkpt lat="38.32181" lon="-0.68211">
        <ele>205.6</ele>
        <time>2022-10-15 16:38:58</time>
      </trkpt>
      <trkpt lat="38.3216" lon="-0.682">
        <ele>205.6</ele>
        <time>2022-10-15 16:39:01</time>
      </trkpt>
      <trkpt lat="38.32138" lon="-0.6819">
        <ele>204.8</ele>
        <time>2022-10-15 16:39:04</time>
      </trkpt>
      <trkpt lat="38.32131" lon="-0.68189">
        <ele>204.2</ele>
        <time>2022-10-15 16:39:05</time>
      </trkpt>
      <trkpt lat="38.32124" lon="-0.68192">
        <ele>203.4</ele>
        <time>2022-10-15 16:39:06</time>
      </trkpt>
      <trkpt lat="38.32119" lon="-0.68198">
        <ele>202</ele>
        <time>2022-10-15 16:39:07</time>
      </trkpt>
      <trkpt lat="38.32119" lon="-0.68198">
        <ele>201.2</ele>
        <time>2022-10-15 16:39:08</time>
      </trkpt>
      <trkpt lat="38.3211" lon="-0.68213">
        <ele>200.8</ele>
        <time>2022-10-15 16:39:09</time>
      </trkpt>
      <trkpt lat="38.32099" lon="-0.68237">
        <ele>200</ele>
        <time>2022-10-15 16:39:12</time>
      </trkpt>
      <trkpt lat="38.32095" lon="-0.68245">
        <ele>199.8</ele>
        <time>2022-10-15 16:39:13</time>
      </trkpt>
      <trkpt lat="38.32095" lon="-0.68245">
        <ele>199.6</ele>
        <time>2022-10-15 16:39:14</time>
      </trkpt>
      <trkpt lat="38.32088" lon="-0.6826">
        <ele>199.4</ele>
        <time>2022-10-15 16:39:15</time>
      </trkpt>
      <trkpt lat="38.32082" lon="-0.68274">
        <ele>199.2</ele>
        <time>2022-10-15 16:39:17</time>
      </trkpt>
      <trkpt lat="38.32079" lon="-0.68281">
        <ele>199.2</ele>
        <time>2022-10-15 16:39:18</time>
      </trkpt>
      <trkpt lat="38.32075" lon="-0.68287">
        <ele>199</ele>
        <time>2022-10-15 16:39:19</time>
      </trkpt>
      <trkpt lat="38.32075" lon="-0.68287">
        <ele>199</ele>
        <time>2022-10-15 16:39:20</time>
      </trkpt>
      <trkpt lat="38.3207" lon="-0.68298">
        <ele>199</ele>
        <time>2022-10-15 16:39:21</time>
      </trkpt>
      <trkpt lat="38.32067" lon="-0.68304">
        <ele>199</ele>
        <time>2022-10-15 16:39:22</time>
      </trkpt>
      <trkpt lat="38.32065" lon="-0.68309">
        <ele>199</ele>
        <time>2022-10-15 16:39:23</time>
      </trkpt>
      <trkpt lat="38.32063" lon="-0.68314">
        <ele>199.2</ele>
        <time>2022-10-15 16:39:24</time>
      </trkpt>
      <trkpt lat="38.32062" lon="-0.68319">
        <ele>199.2</ele>
        <time>2022-10-15 16:39:25</time>
      </trkpt>
      <trkpt lat="38.3206" lon="-0.6833">
        <ele>199.6</ele>
        <time>2022-10-15 16:39:27</time>
      </trkpt>
      <trkpt lat="38.32059" lon="-0.68336">
        <ele>200</ele>
        <time>2022-10-15 16:39:28</time>
      </trkpt>
      <trkpt lat="38.32059" lon="-0.68342">
        <ele>200.4</ele>
        <time>2022-10-15 16:39:29</time>
      </trkpt>
      <trkpt lat="38.32058" lon="-0.68347">
        <ele>200.8</ele>
        <time>2022-10-15 16:39:30</time>
      </trkpt>
      <trkpt lat="38.32058" lon="-0.68353">
        <ele>201</ele>
        <time>2022-10-15 16:39:31</time>
      </trkpt>
      <trkpt lat="38.32058" lon="-0.68353">
        <ele>201.4</ele>
        <time>2022-10-15 16:39:32</time>
      </trkpt>
      <trkpt lat="38.32057" lon="-0.68365">
        <ele>201.8</ele>
        <time>2022-10-15 16:39:33</time>
      </trkpt>
      <trkpt lat="38.32056" lon="-0.68371">
        <ele>202</ele>
        <time>2022-10-15 16:39:34</time>
      </trkpt>
      <trkpt lat="38.32055" lon="-0.68383">
        <ele>202.6</ele>
        <time>2022-10-15 16:39:36</time>
      </trkpt>
      <trkpt lat="38.32054" lon="-0.68389">
        <ele>202.6</ele>
        <time>2022-10-15 16:39:37</time>
      </trkpt>
      <trkpt lat="38.32054" lon="-0.68389">
        <ele>202.8</ele>
        <time>2022-10-15 16:39:38</time>
      </trkpt>
      <trkpt lat="38.32052" lon="-0.68407">
        <ele>203.2</ele>
        <time>2022-10-15 16:39:40</time>
      </trkpt>
      <trkpt lat="38.32051" lon="-0.68412">
        <ele>203.4</ele>
        <time>2022-10-15 16:39:41</time>
      </trkpt>
      <trkpt lat="38.3205" lon="-0.68418">
        <ele>203.4</ele>
        <time>2022-10-15 16:39:42</time>
      </trkpt>
      <trkpt lat="38.32049" lon="-0.68424">
        <ele>203.6</ele>
        <time>2022-10-15 16:39:44</time>
      </trkpt>
      <trkpt lat="38.32048" lon="-0.68435">
        <ele>203.6</ele>
        <time>2022-10-15 16:39:45</time>
      </trkpt>
      <trkpt lat="38.32048" lon="-0.68441">
        <ele>203.6</ele>
        <time>2022-10-15 16:39:46</time>
      </trkpt>
      <trkpt lat="38.32047" lon="-0.68447">
        <ele>203.8</ele>
        <time>2022-10-15 16:39:47</time>
      </trkpt>
      <trkpt lat="38.32046" lon="-0.68459">
        <ele>203.8</ele>
        <time>2022-10-15 16:39:49</time>
      </trkpt>
      <trkpt lat="38.32046" lon="-0.68459">
        <ele>204</ele>
        <time>2022-10-15 16:39:50</time>
      </trkpt>
      <trkpt lat="38.32046" lon="-0.6847">
        <ele>204</ele>
        <time>2022-10-15 16:39:51</time>
      </trkpt>
      <trkpt lat="38.32044" lon="-0.68482">
        <ele>204.4</ele>
        <time>2022-10-15 16:39:53</time>
      </trkpt>
      <trkpt lat="38.32044" lon="-0.68487">
        <ele>204.6</ele>
        <time>2022-10-15 16:39:54</time>
      </trkpt>
      <trkpt lat="38.32043" lon="-0.68492">
        <ele>204.6</ele>
        <time>2022-10-15 16:39:55</time>
      </trkpt>
      <trkpt lat="38.32042" lon="-0.68501">
        <ele>204.8</ele>
        <time>2022-10-15 16:39:57</time>
      </trkpt>
      <trkpt lat="38.32041" lon="-0.68505">
        <ele>205</ele>
        <time>2022-10-15 16:39:58</time>
      </trkpt>
      <trkpt lat="38.32041" lon="-0.68509">
        <ele>205</ele>
        <time>2022-10-15 16:39:59</time>
      </trkpt>
      <trkpt lat="38.3204" lon="-0.68514">
        <ele>205.2</ele>
        <time>2022-10-15 16:40:00</time>
      </trkpt>
      <trkpt lat="38.32039" lon="-0.68521">
        <ele>205.4</ele>
        <time>2022-10-15 16:40:02</time>
      </trkpt>
      <trkpt lat="38.32038" lon="-0.68526">
        <ele>205.4</ele>
        <time>2022-10-15 16:40:03</time>
      </trkpt>
      <trkpt lat="38.32037" lon="-0.6853">
        <ele>205.6</ele>
        <time>2022-10-15 16:40:04</time>
      </trkpt>
      <trkpt lat="38.32036" lon="-0.68534">
        <ele>205.8</ele>
        <time>2022-10-15 16:40:05</time>
      </trkpt>
      <trkpt lat="38.32036" lon="-0.68538">
        <ele>206</ele>
        <time>2022-10-15 16:40:06</time>
      </trkpt>
      <trkpt lat="38.32035" lon="-0.68543">
        <ele>206.2</ele>
        <time>2022-10-15 16:40:07</time>
      </trkpt>
      <trkpt lat="38.32034" lon="-0.68547">
        <ele>206.2</ele>
        <time>2022-10-15 16:40:08</time>
      </trkpt>
      <trkpt lat="38.32033" lon="-0.68551">
        <ele>206.4</ele>
        <time>2022-10-15 16:40:09</time>
      </trkpt>
      <trkpt lat="38.32032" lon="-0.6856">
        <ele>206.6</ele>
        <time>2022-10-15 16:40:11</time>
      </trkpt>
      <trkpt lat="38.32031" lon="-0.68564">
        <ele>207</ele>
        <time>2022-10-15 16:40:12</time>
      </trkpt>
      <trkpt lat="38.3203" lon="-0.68568">
        <ele>207.2</ele>
        <time>2022-10-15 16:40:13</time>
      </trkpt>
      <trkpt lat="38.32028" lon="-0.68577">
        <ele>207.8</ele>
        <time>2022-10-15 16:40:15</time>
      </trkpt>
      <trkpt lat="38.32028" lon="-0.68581">
        <ele>208</ele>
        <time>2022-10-15 16:40:16</time>
      </trkpt>
      <trkpt lat="38.32027" lon="-0.68585">
        <ele>208.2</ele>
        <time>2022-10-15 16:40:17</time>
      </trkpt>
      <trkpt lat="38.32026" lon="-0.68589">
        <ele>208.4</ele>
        <time>2022-10-15 16:40:18</time>
      </trkpt>
      <trkpt lat="38.32025" lon="-0.68594">
        <ele>208.6</ele>
        <time>2022-10-15 16:40:19</time>
      </trkpt>
      <trkpt lat="38.32025" lon="-0.68594">
        <ele>208.8</ele>
        <time>2022-10-15 16:40:20</time>
      </trkpt>
      <trkpt lat="38.32024" lon="-0.68602">
        <ele>208.8</ele>
        <time>2022-10-15 16:40:21</time>
      </trkpt>
      <trkpt lat="38.32023" lon="-0.68606">
        <ele>209</ele>
        <time>2022-10-15 16:40:22</time>
      </trkpt>
      <trkpt lat="38.32021" lon="-0.68614">
        <ele>209.4</ele>
        <time>2022-10-15 16:40:24</time>
      </trkpt>
      <trkpt lat="38.3202" lon="-0.68618">
        <ele>210</ele>
        <time>2022-10-15 16:40:25</time>
      </trkpt>
      <trkpt lat="38.32019" lon="-0.68623">
        <ele>210.2</ele>
        <time>2022-10-15 16:40:26</time>
      </trkpt>
      <trkpt lat="38.32018" lon="-0.68631">
        <ele>210.4</ele>
        <time>2022-10-15 16:40:28</time>
      </trkpt>
      <trkpt lat="38.32017" lon="-0.68635">
        <ele>210.6</ele>
        <time>2022-10-15 16:40:29</time>
      </trkpt>
      <trkpt lat="38.32016" lon="-0.68639">
        <ele>210.8</ele>
        <time>2022-10-15 16:40:30</time>
      </trkpt>
      <trkpt lat="38.32015" lon="-0.68643">
        <ele>211</ele>
        <time>2022-10-15 16:40:31</time>
      </trkpt>
      <trkpt lat="38.32014" lon="-0.68647">
        <ele>211</ele>
        <time>2022-10-15 16:40:32</time>
      </trkpt>
      <trkpt lat="38.32013" lon="-0.68652">
        <ele>211.2</ele>
        <time>2022-10-15 16:40:33</time>
      </trkpt>
      <trkpt lat="38.32012" lon="-0.68656">
        <ele>211.2</ele>
        <time>2022-10-15 16:40:34</time>
      </trkpt>
      <trkpt lat="38.32011" lon="-0.6866">
        <ele>211.4</ele>
        <time>2022-10-15 16:40:35</time>
      </trkpt>
      <trkpt lat="38.3201" lon="-0.68669">
        <ele>211.8</ele>
        <time>2022-10-15 16:40:37</time>
      </trkpt>
      <trkpt lat="38.3201" lon="-0.68669">
        <ele>211.8</ele>
        <time>2022-10-15 16:40:38</time>
      </trkpt>
      <trkpt lat="38.32008" lon="-0.68677">
        <ele>211.8</ele>
        <time>2022-10-15 16:40:39</time>
      </trkpt>
      <trkpt lat="38.32008" lon="-0.68681">
        <ele>212</ele>
        <time>2022-10-15 16:40:40</time>
      </trkpt>
      <trkpt lat="38.32007" lon="-0.6869">
        <ele>212</ele>
        <time>2022-10-15 16:40:42</time>
      </trkpt>
      <trkpt lat="38.32007" lon="-0.68695">
        <ele>212</ele>
        <time>2022-10-15 16:40:43</time>
      </trkpt>
      <trkpt lat="38.32007" lon="-0.68695">
        <ele>212.2</ele>
        <time>2022-10-15 16:40:44</time>
      </trkpt>
      <trkpt lat="38.32007" lon="-0.68708">
        <ele>212.2</ele>
        <time>2022-10-15 16:40:46</time>
      </trkpt>
      <trkpt lat="38.32006" lon="-0.68713">
        <ele>212.2</ele>
        <time>2022-10-15 16:40:47</time>
      </trkpt>
      <trkpt lat="38.32006" lon="-0.68717">
        <ele>212.2</ele>
        <time>2022-10-15 16:40:48</time>
      </trkpt>
      <trkpt lat="38.32006" lon="-0.68726">
        <ele>212.4</ele>
        <time>2022-10-15 16:40:50</time>
      </trkpt>
      <trkpt lat="38.32005" lon="-0.68731">
        <ele>212.4</ele>
        <time>2022-10-15 16:40:51</time>
      </trkpt>
      <trkpt lat="38.32005" lon="-0.68735">
        <ele>212.6</ele>
        <time>2022-10-15 16:40:52</time>
      </trkpt>
      <trkpt lat="38.32005" lon="-0.6874">
        <ele>212.6</ele>
        <time>2022-10-15 16:40:53</time>
      </trkpt>
      <trkpt lat="38.32005" lon="-0.68744">
        <ele>212.8</ele>
        <time>2022-10-15 16:40:54</time>
      </trkpt>
      <trkpt lat="38.32004" lon="-0.68748">
        <ele>213.2</ele>
        <time>2022-10-15 16:40:55</time>
      </trkpt>
      <trkpt lat="38.32004" lon="-0.68748">
        <ele>213.4</ele>
        <time>2022-10-15 16:40:56</time>
      </trkpt>
      <trkpt lat="38.32003" lon="-0.68758">
        <ele>213.6</ele>
        <time>2022-10-15 16:40:57</time>
      </trkpt>
      <trkpt lat="38.32003" lon="-0.68762">
        <ele>213.8</ele>
        <time>2022-10-15 16:40:58</time>
      </trkpt>
      <trkpt lat="38.32003" lon="-0.68767">
        <ele>214.2</ele>
        <time>2022-10-15 16:40:59</time>
      </trkpt>
      <trkpt lat="38.32003" lon="-0.68773">
        <ele>214.4</ele>
        <time>2022-10-15 16:41:00</time>
      </trkpt>
      <trkpt lat="38.32002" lon="-0.68778">
        <ele>214.4</ele>
        <time>2022-10-15 16:41:01</time>
      </trkpt>
      <trkpt lat="38.32002" lon="-0.68778">
        <ele>214.6</ele>
        <time>2022-10-15 16:41:02</time>
      </trkpt>
      <trkpt lat="38.32001" lon="-0.68789">
        <ele>214.6</ele>
        <time>2022-10-15 16:41:03</time>
      </trkpt>
      <trkpt lat="38.32002" lon="-0.68795">
        <ele>214.6</ele>
        <time>2022-10-15 16:41:04</time>
      </trkpt>
      <trkpt lat="38.32002" lon="-0.68801">
        <ele>214.6</ele>
        <time>2022-10-15 16:41:05</time>
      </trkpt>
      <trkpt lat="38.32003" lon="-0.68807">
        <ele>214.8</ele>
        <time>2022-10-15 16:41:06</time>
      </trkpt>
      <trkpt lat="38.32004" lon="-0.68812">
        <ele>214.8</ele>
        <time>2022-10-15 16:41:07</time>
      </trkpt>
      <trkpt lat="38.32005" lon="-0.68824">
        <ele>214.8</ele>
        <time>2022-10-15 16:41:09</time>
      </trkpt>
      <trkpt lat="38.32005" lon="-0.6883">
        <ele>214.8</ele>
        <time>2022-10-15 16:41:10</time>
      </trkpt>
      <trkpt lat="38.32005" lon="-0.68836">
        <ele>214.8</ele>
        <time>2022-10-15 16:41:11</time>
      </trkpt>
      <trkpt lat="38.32005" lon="-0.68842">
        <ele>214.8</ele>
        <time>2022-10-15 16:41:12</time>
      </trkpt>
      <trkpt lat="38.32004" lon="-0.68855">
        <ele>214.8</ele>
        <time>2022-10-15 16:41:14</time>
      </trkpt>
      <trkpt lat="38.32004" lon="-0.68861">
        <ele>214.8</ele>
        <time>2022-10-15 16:41:15</time>
      </trkpt>
      <trkpt lat="38.32003" lon="-0.68867">
        <ele>214.6</ele>
        <time>2022-10-15 16:41:16</time>
      </trkpt>
      <trkpt lat="38.32002" lon="-0.68879">
        <ele>214.6</ele>
        <time>2022-10-15 16:41:18</time>
      </trkpt>
      <trkpt lat="38.32002" lon="-0.68885">
        <ele>214.6</ele>
        <time>2022-10-15 16:41:19</time>
      </trkpt>
      <trkpt lat="38.32002" lon="-0.68885">
        <ele>214.6</ele>
        <time>2022-10-15 16:41:20</time>
      </trkpt>
      <trkpt lat="38.32001" lon="-0.68898">
        <ele>214.8</ele>
        <time>2022-10-15 16:41:21</time>
      </trkpt>
      <trkpt lat="38.32" lon="-0.6891">
        <ele>214.8</ele>
        <time>2022-10-15 16:41:23</time>
      </trkpt>
      <trkpt lat="38.32" lon="-0.68917">
        <ele>214.8</ele>
        <time>2022-10-15 16:41:24</time>
      </trkpt>
      <trkpt lat="38.32" lon="-0.68923">
        <ele>214.6</ele>
        <time>2022-10-15 16:41:25</time>
      </trkpt>
      <trkpt lat="38.31999" lon="-0.6893">
        <ele>214.6</ele>
        <time>2022-10-15 16:41:26</time>
      </trkpt>
      <trkpt lat="38.31999" lon="-0.68943">
        <ele>214.6</ele>
        <time>2022-10-15 16:41:28</time>
      </trkpt>
      <trkpt lat="38.31999" lon="-0.6895">
        <ele>214.6</ele>
        <time>2022-10-15 16:41:29</time>
      </trkpt>
      <trkpt lat="38.31998" lon="-0.68957">
        <ele>214.6</ele>
        <time>2022-10-15 16:41:30</time>
      </trkpt>
      <trkpt lat="38.31998" lon="-0.68963">
        <ele>214.6</ele>
        <time>2022-10-15 16:41:31</time>
      </trkpt>
      <trkpt lat="38.31997" lon="-0.68976">
        <ele>214.8</ele>
        <time>2022-10-15 16:41:33</time>
      </trkpt>
      <trkpt lat="38.31997" lon="-0.68983">
        <ele>214.8</ele>
        <time>2022-10-15 16:41:34</time>
      </trkpt>
      <trkpt lat="38.31996" lon="-0.68989">
        <ele>214.8</ele>
        <time>2022-10-15 16:41:35</time>
      </trkpt>
      <trkpt lat="38.31996" lon="-0.68995">
        <ele>214.8</ele>
        <time>2022-10-15 16:41:36</time>
      </trkpt>
      <trkpt lat="38.31995" lon="-0.69001">
        <ele>214.8</ele>
        <time>2022-10-15 16:41:37</time>
      </trkpt>
      <trkpt lat="38.31995" lon="-0.69007">
        <ele>214.8</ele>
        <time>2022-10-15 16:41:38</time>
      </trkpt>
      <trkpt lat="38.31994" lon="-0.69013">
        <ele>214.8</ele>
        <time>2022-10-15 16:41:39</time>
      </trkpt>
      <trkpt lat="38.31994" lon="-0.69019">
        <ele>214.8</ele>
        <time>2022-10-15 16:41:40</time>
      </trkpt>
      <trkpt lat="38.31993" lon="-0.69025">
        <ele>215</ele>
        <time>2022-10-15 16:41:41</time>
      </trkpt>
      <trkpt lat="38.31992" lon="-0.69035">
        <ele>215.2</ele>
        <time>2022-10-15 16:41:43</time>
      </trkpt>
      <trkpt lat="38.31991" lon="-0.69041">
        <ele>215.2</ele>
        <time>2022-10-15 16:41:44</time>
      </trkpt>
      <trkpt lat="38.3199" lon="-0.69046">
        <ele>215.4</ele>
        <time>2022-10-15 16:41:45</time>
      </trkpt>
      <trkpt lat="38.3199" lon="-0.69051">
        <ele>215.6</ele>
        <time>2022-10-15 16:41:46</time>
      </trkpt>
      <trkpt lat="38.31989" lon="-0.69057">
        <ele>215.8</ele>
        <time>2022-10-15 16:41:47</time>
      </trkpt>
      <trkpt lat="38.31988" lon="-0.69062">
        <ele>215.8</ele>
        <time>2022-10-15 16:41:48</time>
      </trkpt>
      <trkpt lat="38.31987" lon="-0.69068">
        <ele>216</ele>
        <time>2022-10-15 16:41:49</time>
      </trkpt>
      <trkpt lat="38.31987" lon="-0.69068">
        <ele>216</ele>
        <time>2022-10-15 16:41:50</time>
      </trkpt>
      <trkpt lat="38.31985" lon="-0.6908">
        <ele>216.2</ele>
        <time>2022-10-15 16:41:51</time>
      </trkpt>
      <trkpt lat="38.31985" lon="-0.69085">
        <ele>216.4</ele>
        <time>2022-10-15 16:41:52</time>
      </trkpt>
      <trkpt lat="38.31984" lon="-0.69091">
        <ele>216.4</ele>
        <time>2022-10-15 16:41:53</time>
      </trkpt>
      <trkpt lat="38.31983" lon="-0.69097">
        <ele>216.4</ele>
        <time>2022-10-15 16:41:54</time>
      </trkpt>
      <trkpt lat="38.31982" lon="-0.69103">
        <ele>216.6</ele>
        <time>2022-10-15 16:41:55</time>
      </trkpt>
      <trkpt lat="38.31982" lon="-0.69103">
        <ele>216.6</ele>
        <time>2022-10-15 16:41:56</time>
      </trkpt>
      <trkpt lat="38.3198" lon="-0.69114">
        <ele>216.8</ele>
        <time>2022-10-15 16:41:57</time>
      </trkpt>
      <trkpt lat="38.31978" lon="-0.69125">
        <ele>216.8</ele>
        <time>2022-10-15 16:41:59</time>
      </trkpt>
      <trkpt lat="38.31977" lon="-0.6913">
        <ele>216.8</ele>
        <time>2022-10-15 16:42:00</time>
      </trkpt>
      <trkpt lat="38.31976" lon="-0.69136">
        <ele>217</ele>
        <time>2022-10-15 16:42:01</time>
      </trkpt>
      <trkpt lat="38.31976" lon="-0.69136">
        <ele>217</ele>
        <time>2022-10-15 16:42:02</time>
      </trkpt>
      <trkpt lat="38.31974" lon="-0.69146">
        <ele>217</ele>
        <time>2022-10-15 16:42:03</time>
      </trkpt>
      <trkpt lat="38.31973" lon="-0.69151">
        <ele>217</ele>
        <time>2022-10-15 16:42:04</time>
      </trkpt>
      <trkpt lat="38.31972" lon="-0.69156">
        <ele>217.2</ele>
        <time>2022-10-15 16:42:05</time>
      </trkpt>
      <trkpt lat="38.31971" lon="-0.69161">
        <ele>217.2</ele>
        <time>2022-10-15 16:42:06</time>
      </trkpt>
      <trkpt lat="38.3197" lon="-0.69167">
        <ele>217.2</ele>
        <time>2022-10-15 16:42:07</time>
      </trkpt>
      <trkpt lat="38.31968" lon="-0.69177">
        <ele>217.6</ele>
        <time>2022-10-15 16:42:09</time>
      </trkpt>
      <trkpt lat="38.31967" lon="-0.69182">
        <ele>217.8</ele>
        <time>2022-10-15 16:42:10</time>
      </trkpt>
      <trkpt lat="38.31966" lon="-0.69187">
        <ele>218.2</ele>
        <time>2022-10-15 16:42:11</time>
      </trkpt>
      <trkpt lat="38.31964" lon="-0.69192">
        <ele>218.6</ele>
        <time>2022-10-15 16:42:12</time>
      </trkpt>
      <trkpt lat="38.31958" lon="-0.69205">
        <ele>219</ele>
        <time>2022-10-15 16:42:15</time>
      </trkpt>
      <trkpt lat="38.31956" lon="-0.69209">
        <ele>219.2</ele>
        <time>2022-10-15 16:42:16</time>
      </trkpt>
      <trkpt lat="38.31954" lon="-0.69214">
        <ele>219.4</ele>
        <time>2022-10-15 16:42:17</time>
      </trkpt>
      <trkpt lat="38.31951" lon="-0.69223">
        <ele>219.8</ele>
        <time>2022-10-15 16:42:19</time>
      </trkpt>
      <trkpt lat="38.31949" lon="-0.69234">
        <ele>220</ele>
        <time>2022-10-15 16:42:21</time>
      </trkpt>
      <trkpt lat="38.31948" lon="-0.69239">
        <ele>220.2</ele>
        <time>2022-10-15 16:42:22</time>
      </trkpt>
      <trkpt lat="38.31947" lon="-0.69244">
        <ele>220.2</ele>
        <time>2022-10-15 16:42:23</time>
      </trkpt>
      <trkpt lat="38.31947" lon="-0.6925">
        <ele>220.4</ele>
        <time>2022-10-15 16:42:24</time>
      </trkpt>
      <trkpt lat="38.31946" lon="-0.69255">
        <ele>220.6</ele>
        <time>2022-10-15 16:42:25</time>
      </trkpt>
      <trkpt lat="38.31946" lon="-0.69255">
        <ele>220.8</ele>
        <time>2022-10-15 16:42:26</time>
      </trkpt>
      <trkpt lat="38.31945" lon="-0.69265">
        <ele>221</ele>
        <time>2022-10-15 16:42:27</time>
      </trkpt>
      <trkpt lat="38.31944" lon="-0.69271">
        <ele>221.2</ele>
        <time>2022-10-15 16:42:28</time>
      </trkpt>
      <trkpt lat="38.31944" lon="-0.69276">
        <ele>221.2</ele>
        <time>2022-10-15 16:42:29</time>
      </trkpt>
      <trkpt lat="38.31943" lon="-0.69281">
        <ele>221.4</ele>
        <time>2022-10-15 16:42:30</time>
      </trkpt>
      <trkpt lat="38.31943" lon="-0.69286">
        <ele>221.6</ele>
        <time>2022-10-15 16:42:31</time>
      </trkpt>
      <trkpt lat="38.31943" lon="-0.69286">
        <ele>221.6</ele>
        <time>2022-10-15 16:42:32</time>
      </trkpt>
      <trkpt lat="38.31942" lon="-0.69296">
        <ele>221.8</ele>
        <time>2022-10-15 16:42:33</time>
      </trkpt>
      <trkpt lat="38.31941" lon="-0.69306">
        <ele>222</ele>
        <time>2022-10-15 16:42:35</time>
      </trkpt>
      <trkpt lat="38.31939" lon="-0.69315">
        <ele>222.4</ele>
        <time>2022-10-15 16:42:37</time>
      </trkpt>
      <trkpt lat="38.31939" lon="-0.69315">
        <ele>222.4</ele>
        <time>2022-10-15 16:42:38</time>
      </trkpt>
      <trkpt lat="38.31936" lon="-0.69334">
        <ele>222.6</ele>
        <time>2022-10-15 16:42:41</time>
      </trkpt>
      <trkpt lat="38.31935" lon="-0.69342">
        <ele>223</ele>
        <time>2022-10-15 16:42:44</time>
      </trkpt>
      <trkpt lat="38.31929" lon="-0.69353">
        <ele>223.4</ele>
        <time>2022-10-15 16:42:46</time>
      </trkpt>
      <trkpt lat="38.31926" lon="-0.69355">
        <ele>223.8</ele>
        <time>2022-10-15 16:42:47</time>
      </trkpt>
      <trkpt lat="38.31922" lon="-0.69357">
        <ele>224.4</ele>
        <time>2022-10-15 16:42:48</time>
      </trkpt>
      <trkpt lat="38.31918" lon="-0.69358">
        <ele>225.2</ele>
        <time>2022-10-15 16:42:50</time>
      </trkpt>
      <trkpt lat="38.31911" lon="-0.69358">
        <ele>225.4</ele>
        <time>2022-10-15 16:42:51</time>
      </trkpt>
      <trkpt lat="38.31907" lon="-0.69358">
        <ele>225.6</ele>
        <time>2022-10-15 16:42:52</time>
      </trkpt>
      <trkpt lat="38.31898" lon="-0.69358">
        <ele>225.8</ele>
        <time>2022-10-15 16:42:54</time>
      </trkpt>
      <trkpt lat="38.31894" lon="-0.69358">
        <ele>225.8</ele>
        <time>2022-10-15 16:42:56</time>
      </trkpt>
      <trkpt lat="38.31882" lon="-0.69357">
        <ele>225.8</ele>
        <time>2022-10-15 16:42:58</time>
      </trkpt>
      <trkpt lat="38.31878" lon="-0.69357">
        <ele>225.8</ele>
        <time>2022-10-15 16:42:59</time>
      </trkpt>
      <trkpt lat="38.31874" lon="-0.69357">
        <ele>225.8</ele>
        <time>2022-10-15 16:43:00</time>
      </trkpt>
      <trkpt lat="38.31858" lon="-0.69356">
        <ele>225.8</ele>
        <time>2022-10-15 16:43:04</time>
      </trkpt>
      <trkpt lat="38.31846" lon="-0.69357">
        <ele>225.8</ele>
        <time>2022-10-15 16:43:07</time>
      </trkpt>
      <trkpt lat="38.31846" lon="-0.69357">
        <ele>225.8</ele>
        <time>2022-10-15 16:43:08</time>
      </trkpt>
      <trkpt lat="38.31833" lon="-0.69359">
        <ele>225.8</ele>
        <time>2022-10-15 16:43:10</time>
      </trkpt>
      <trkpt lat="38.31825" lon="-0.69359">
        <ele>225.8</ele>
        <time>2022-10-15 16:43:12</time>
      </trkpt>
      <trkpt lat="38.31812" lon="-0.69359">
        <ele>225.8</ele>
        <time>2022-10-15 16:43:15</time>
      </trkpt>
      <trkpt lat="38.31808" lon="-0.69359">
        <ele>225.8</ele>
        <time>2022-10-15 16:43:16</time>
      </trkpt>
      <trkpt lat="38.31799" lon="-0.6936">
        <ele>226</ele>
        <time>2022-10-15 16:43:18</time>
      </trkpt>
      <trkpt lat="38.31795" lon="-0.69362">
        <ele>226</ele>
        <time>2022-10-15 16:43:19</time>
      </trkpt>
      <trkpt lat="38.31788" lon="-0.69366">
        <ele>226</ele>
        <time>2022-10-15 16:43:21</time>
      </trkpt>
      <trkpt lat="38.31785" lon="-0.69368">
        <ele>226</ele>
        <time>2022-10-15 16:43:22</time>
      </trkpt>
      <trkpt lat="38.31778" lon="-0.69372">
        <ele>226</ele>
        <time>2022-10-15 16:43:24</time>
      </trkpt>
      <trkpt lat="38.31775" lon="-0.69374">
        <ele>226.2</ele>
        <time>2022-10-15 16:43:25</time>
      </trkpt>
      <trkpt lat="38.31775" lon="-0.69374">
        <ele>226.2</ele>
        <time>2022-10-15 16:43:26</time>
      </trkpt>
      <trkpt lat="38.31769" lon="-0.69378">
        <ele>226.2</ele>
        <time>2022-10-15 16:43:27</time>
      </trkpt>
      <trkpt lat="38.31766" lon="-0.6938">
        <ele>226.4</ele>
        <time>2022-10-15 16:43:28</time>
      </trkpt>
      <trkpt lat="38.31763" lon="-0.69382">
        <ele>226.6</ele>
        <time>2022-10-15 16:43:29</time>
      </trkpt>
      <trkpt lat="38.3176" lon="-0.69384">
        <ele>226.6</ele>
        <time>2022-10-15 16:43:30</time>
      </trkpt>
      <trkpt lat="38.31757" lon="-0.69386">
        <ele>226.8</ele>
        <time>2022-10-15 16:43:31</time>
      </trkpt>
      <trkpt lat="38.31757" lon="-0.69386">
        <ele>227.2</ele>
        <time>2022-10-15 16:43:32</time>
      </trkpt>
      <trkpt lat="38.31751" lon="-0.69389">
        <ele>227.6</ele>
        <time>2022-10-15 16:43:33</time>
      </trkpt>
      <trkpt lat="38.31748" lon="-0.69391">
        <ele>227.8</ele>
        <time>2022-10-15 16:43:34</time>
      </trkpt>
      <trkpt lat="38.31745" lon="-0.69393">
        <ele>228.2</ele>
        <time>2022-10-15 16:43:35</time>
      </trkpt>
      <trkpt lat="38.31742" lon="-0.69395">
        <ele>228.4</ele>
        <time>2022-10-15 16:43:36</time>
      </trkpt>
      <trkpt lat="38.31736" lon="-0.69397">
        <ele>228.8</ele>
        <time>2022-10-15 16:43:38</time>
      </trkpt>
      <trkpt lat="38.31733" lon="-0.69398">
        <ele>228.8</ele>
        <time>2022-10-15 16:43:39</time>
      </trkpt>
      <trkpt lat="38.3173" lon="-0.694">
        <ele>229</ele>
        <time>2022-10-15 16:43:40</time>
      </trkpt>
      <trkpt lat="38.31727" lon="-0.694">
        <ele>229.4</ele>
        <time>2022-10-15 16:43:41</time>
      </trkpt>
      <trkpt lat="38.3172" lon="-0.69402">
        <ele>229.8</ele>
        <time>2022-10-15 16:43:43</time>
      </trkpt>
      <trkpt lat="38.31717" lon="-0.69403">
        <ele>230.4</ele>
        <time>2022-10-15 16:43:44</time>
      </trkpt>
      <trkpt lat="38.31714" lon="-0.69404">
        <ele>231</ele>
        <time>2022-10-15 16:43:45</time>
      </trkpt>
      <trkpt lat="38.31707" lon="-0.69404">
        <ele>231.2</ele>
        <time>2022-10-15 16:43:47</time>
      </trkpt>
      <trkpt lat="38.31704" lon="-0.69404">
        <ele>231.6</ele>
        <time>2022-10-15 16:43:48</time>
      </trkpt>
      <trkpt lat="38.317" lon="-0.69404">
        <ele>231.6</ele>
        <time>2022-10-15 16:43:49</time>
      </trkpt>
      <trkpt lat="38.317" lon="-0.69404">
        <ele>231.6</ele>
        <time>2022-10-15 16:43:50</time>
      </trkpt>
      <trkpt lat="38.3169" lon="-0.69402">
        <ele>231.6</ele>
        <time>2022-10-15 16:43:52</time>
      </trkpt>
      <trkpt lat="38.31686" lon="-0.694">
        <ele>231.6</ele>
        <time>2022-10-15 16:43:53</time>
      </trkpt>
      <trkpt lat="38.31682" lon="-0.69399">
        <ele>231.6</ele>
        <time>2022-10-15 16:43:54</time>
      </trkpt>
      <trkpt lat="38.31678" lon="-0.69397">
        <ele>231.6</ele>
        <time>2022-10-15 16:43:55</time>
      </trkpt>
      <trkpt lat="38.31678" lon="-0.69397">
        <ele>231.6</ele>
        <time>2022-10-15 16:43:56</time>
      </trkpt>
      <trkpt lat="38.3167" lon="-0.69393">
        <ele>231.6</ele>
        <time>2022-10-15 16:43:57</time>
      </trkpt>
      <trkpt lat="38.31666" lon="-0.69391">
        <ele>231.6</ele>
        <time>2022-10-15 16:43:58</time>
      </trkpt>
      <trkpt lat="38.31662" lon="-0.69389">
        <ele>231.6</ele>
        <time>2022-10-15 16:43:59</time>
      </trkpt>
      <trkpt lat="38.31658" lon="-0.69386">
        <ele>231.6</ele>
        <time>2022-10-15 16:44:00</time>
      </trkpt>
      <trkpt lat="38.31654" lon="-0.69384">
        <ele>231.6</ele>
        <time>2022-10-15 16:44:01</time>
      </trkpt>
      <trkpt lat="38.31646" lon="-0.69379">
        <ele>231.2</ele>
        <time>2022-10-15 16:44:03</time>
      </trkpt>
      <trkpt lat="38.31641" lon="-0.69377">
        <ele>231.2</ele>
        <time>2022-10-15 16:44:04</time>
      </trkpt>
      <trkpt lat="38.31636" lon="-0.69374">
        <ele>231</ele>
        <time>2022-10-15 16:44:05</time>
      </trkpt>
      <trkpt lat="38.3163" lon="-0.69372">
        <ele>230.8</ele>
        <time>2022-10-15 16:44:06</time>
      </trkpt>
      <trkpt lat="38.31624" lon="-0.69369">
        <ele>230.4</ele>
        <time>2022-10-15 16:44:08</time>
      </trkpt>
      <trkpt lat="38.31612" lon="-0.69364">
        <ele>230.4</ele>
        <time>2022-10-15 16:44:09</time>
      </trkpt>
      <trkpt lat="38.31606" lon="-0.69361">
        <ele>230.2</ele>
        <time>2022-10-15 16:44:10</time>
      </trkpt>
      <trkpt lat="38.31599" lon="-0.69358">
        <ele>230.2</ele>
        <time>2022-10-15 16:44:11</time>
      </trkpt>
      <trkpt lat="38.31593" lon="-0.69355">
        <ele>229.8</ele>
        <time>2022-10-15 16:44:12</time>
      </trkpt>
      <trkpt lat="38.31587" lon="-0.69353">
        <ele>229.8</ele>
        <time>2022-10-15 16:44:13</time>
      </trkpt>
      <trkpt lat="38.31587" lon="-0.69353">
        <ele>228.4</ele>
        <time>2022-10-15 16:44:14</time>
      </trkpt>
      <trkpt lat="38.31574" lon="-0.69349">
        <ele>227.6</ele>
        <time>2022-10-15 16:44:15</time>
      </trkpt>
      <trkpt lat="38.31568" lon="-0.69347">
        <ele>227</ele>
        <time>2022-10-15 16:44:16</time>
      </trkpt>
      <trkpt lat="38.31561" lon="-0.69345">
        <ele>226.4</ele>
        <time>2022-10-15 16:44:17</time>
      </trkpt>
      <trkpt lat="38.31555" lon="-0.69343">
        <ele>226</ele>
        <time>2022-10-15 16:44:18</time>
      </trkpt>
      <trkpt lat="38.31548" lon="-0.69342">
        <ele>225.8</ele>
        <time>2022-10-15 16:44:19</time>
      </trkpt>
      <trkpt lat="38.31548" lon="-0.69342">
        <ele>225.8</ele>
        <time>2022-10-15 16:44:20</time>
      </trkpt>
      <trkpt lat="38.31534" lon="-0.69345">
        <ele>225.6</ele>
        <time>2022-10-15 16:44:21</time>
      </trkpt>
      <trkpt lat="38.31527" lon="-0.69348">
        <ele>225.4</ele>
        <time>2022-10-15 16:44:22</time>
      </trkpt>
      <trkpt lat="38.31519" lon="-0.6935">
        <ele>225.6</ele>
        <time>2022-10-15 16:44:23</time>
      </trkpt>
      <trkpt lat="38.31512" lon="-0.69352">
        <ele>225.4</ele>
        <time>2022-10-15 16:44:24</time>
      </trkpt>
      <trkpt lat="38.31504" lon="-0.69353">
        <ele>225</ele>
        <time>2022-10-15 16:44:25</time>
      </trkpt>
      <trkpt lat="38.31504" lon="-0.69353">
        <ele>224.2</ele>
        <time>2022-10-15 16:44:26</time>
      </trkpt>
      <trkpt lat="38.31488" lon="-0.69355">
        <ele>223.4</ele>
        <time>2022-10-15 16:44:27</time>
      </trkpt>
      <trkpt lat="38.31481" lon="-0.69355">
        <ele>222.6</ele>
        <time>2022-10-15 16:44:28</time>
      </trkpt>
      <trkpt lat="38.31473" lon="-0.69356">
        <ele>222.2</ele>
        <time>2022-10-15 16:44:29</time>
      </trkpt>
      <trkpt lat="38.31465" lon="-0.69356">
        <ele>221.8</ele>
        <time>2022-10-15 16:44:30</time>
      </trkpt>
      <trkpt lat="38.31458" lon="-0.69357">
        <ele>221</ele>
        <time>2022-10-15 16:44:31</time>
      </trkpt>
      <trkpt lat="38.31443" lon="-0.69357">
        <ele>219.6</ele>
        <time>2022-10-15 16:44:33</time>
      </trkpt>
      <trkpt lat="38.31435" lon="-0.69356">
        <ele>219</ele>
        <time>2022-10-15 16:44:34</time>
      </trkpt>
      <trkpt lat="38.31427" lon="-0.69356">
        <ele>218.4</ele>
        <time>2022-10-15 16:44:35</time>
      </trkpt>
      <trkpt lat="38.31418" lon="-0.69354">
        <ele>217.8</ele>
        <time>2022-10-15 16:44:36</time>
      </trkpt>
      <trkpt lat="38.3141" lon="-0.69353">
        <ele>217.2</ele>
        <time>2022-10-15 16:44:37</time>
      </trkpt>
      <trkpt lat="38.3141" lon="-0.69353">
        <ele>216.8</ele>
        <time>2022-10-15 16:44:38</time>
      </trkpt>
      <trkpt lat="38.31394" lon="-0.69347">
        <ele>216.4</ele>
        <time>2022-10-15 16:44:39</time>
      </trkpt>
      <trkpt lat="38.31386" lon="-0.69343">
        <ele>216.2</ele>
        <time>2022-10-15 16:44:40</time>
      </trkpt>
      <trkpt lat="38.31378" lon="-0.69339">
        <ele>216.2</ele>
        <time>2022-10-15 16:44:41</time>
      </trkpt>
      <trkpt lat="38.31363" lon="-0.69333">
        <ele>214.6</ele>
        <time>2022-10-15 16:44:43</time>
      </trkpt>
      <trkpt lat="38.31363" lon="-0.69333">
        <ele>214</ele>
        <time>2022-10-15 16:44:44</time>
      </trkpt>
      <trkpt lat="38.31348" lon="-0.6933">
        <ele>213.4</ele>
        <time>2022-10-15 16:44:45</time>
      </trkpt>
      <trkpt lat="38.31341" lon="-0.69331">
        <ele>212.8</ele>
        <time>2022-10-15 16:44:46</time>
      </trkpt>
      <trkpt lat="38.31333" lon="-0.69333">
        <ele>212.4</ele>
        <time>2022-10-15 16:44:47</time>
      </trkpt>
      <trkpt lat="38.31319" lon="-0.69342">
        <ele>211.8</ele>
        <time>2022-10-15 16:44:49</time>
      </trkpt>
      <trkpt lat="38.31319" lon="-0.69342">
        <ele>211.6</ele>
        <time>2022-10-15 16:44:50</time>
      </trkpt>
      <trkpt lat="38.31308" lon="-0.69357">
        <ele>211.4</ele>
        <time>2022-10-15 16:44:51</time>
      </trkpt>
      <trkpt lat="38.31304" lon="-0.69363">
        <ele>211.2</ele>
        <time>2022-10-15 16:44:52</time>
      </trkpt>
      <trkpt lat="38.31299" lon="-0.69368">
        <ele>211</ele>
        <time>2022-10-15 16:44:53</time>
      </trkpt>
      <trkpt lat="38.31294" lon="-0.6937">
        <ele>210.6</ele>
        <time>2022-10-15 16:44:54</time>
      </trkpt>
      <trkpt lat="38.31289" lon="-0.6937">
        <ele>209.8</ele>
        <time>2022-10-15 16:44:55</time>
      </trkpt>
      <trkpt lat="38.31289" lon="-0.6937">
        <ele>209.2</ele>
        <time>2022-10-15 16:44:56</time>
      </trkpt>
      <trkpt lat="38.31279" lon="-0.69365">
        <ele>208.8</ele>
        <time>2022-10-15 16:44:57</time>
      </trkpt>
      <trkpt lat="38.31274" lon="-0.69361">
        <ele>208.4</ele>
        <time>2022-10-15 16:44:58</time>
      </trkpt>
      <trkpt lat="38.31269" lon="-0.69358">
        <ele>208.2</ele>
        <time>2022-10-15 16:44:59</time>
      </trkpt>
      <trkpt lat="38.31263" lon="-0.69355">
        <ele>208.2</ele>
        <time>2022-10-15 16:45:00</time>
      </trkpt>
      <trkpt lat="38.31257" lon="-0.69352">
        <ele>207.8</ele>
        <time>2022-10-15 16:45:01</time>
      </trkpt>
      <trkpt lat="38.31257" lon="-0.69352">
        <ele>207.8</ele>
        <time>2022-10-15 16:45:02</time>
      </trkpt>
      <trkpt lat="38.31245" lon="-0.69352">
        <ele>207.8</ele>
        <time>2022-10-15 16:45:03</time>
      </trkpt>
      <trkpt lat="38.3124" lon="-0.69355">
        <ele>207.6</ele>
        <time>2022-10-15 16:45:04</time>
      </trkpt>
      <trkpt lat="38.31237" lon="-0.6936">
        <ele>207.6</ele>
        <time>2022-10-15 16:45:05</time>
      </trkpt>
      <trkpt lat="38.31236" lon="-0.69367">
        <ele>207.2</ele>
        <time>2022-10-15 16:45:06</time>
      </trkpt>
      <trkpt lat="38.31235" lon="-0.69374">
        <ele>207</ele>
        <time>2022-10-15 16:45:07</time>
      </trkpt>
      <trkpt lat="38.31234" lon="-0.69381">
        <ele>206.6</ele>
        <time>2022-10-15 16:45:08</time>
      </trkpt>
      <trkpt lat="38.31231" lon="-0.69387">
        <ele>206</ele>
        <time>2022-10-15 16:45:09</time>
      </trkpt>
      <trkpt lat="38.31227" lon="-0.69391">
        <ele>205.6</ele>
        <time>2022-10-15 16:45:10</time>
      </trkpt>
      <trkpt lat="38.31222" lon="-0.69393">
        <ele>204.6</ele>
        <time>2022-10-15 16:45:11</time>
      </trkpt>
      <trkpt lat="38.31217" lon="-0.69393">
        <ele>204.4</ele>
        <time>2022-10-15 16:45:12</time>
      </trkpt>
      <trkpt lat="38.31211" lon="-0.69392">
        <ele>204</ele>
        <time>2022-10-15 16:45:13</time>
      </trkpt>
      <trkpt lat="38.31206" lon="-0.69389">
        <ele>203.6</ele>
        <time>2022-10-15 16:45:14</time>
      </trkpt>
      <trkpt lat="38.31201" lon="-0.69385">
        <ele>203.4</ele>
        <time>2022-10-15 16:45:15</time>
      </trkpt>
      <trkpt lat="38.31196" lon="-0.69381">
        <ele>203.2</ele>
        <time>2022-10-15 16:45:16</time>
      </trkpt>
      <trkpt lat="38.3119" lon="-0.69376">
        <ele>203</ele>
        <time>2022-10-15 16:45:17</time>
      </trkpt>
      <trkpt lat="38.3118" lon="-0.69366">
        <ele>202.8</ele>
        <time>2022-10-15 16:45:19</time>
      </trkpt>
      <trkpt lat="38.31174" lon="-0.69361">
        <ele>202.6</ele>
        <time>2022-10-15 16:45:20</time>
      </trkpt>
      <trkpt lat="38.31168" lon="-0.69356">
        <ele>202.2</ele>
        <time>2022-10-15 16:45:21</time>
      </trkpt>
      <trkpt lat="38.31157" lon="-0.69347">
        <ele>201.4</ele>
        <time>2022-10-15 16:45:23</time>
      </trkpt>
      <trkpt lat="38.31152" lon="-0.69341">
        <ele>200.8</ele>
        <time>2022-10-15 16:45:24</time>
      </trkpt>
      <trkpt lat="38.31147" lon="-0.69335">
        <ele>199.6</ele>
        <time>2022-10-15 16:45:25</time>
      </trkpt>
      <trkpt lat="38.31143" lon="-0.69328">
        <ele>198.8</ele>
        <time>2022-10-15 16:45:26</time>
      </trkpt>
      <trkpt lat="38.31138" lon="-0.69321">
        <ele>198.2</ele>
        <time>2022-10-15 16:45:27</time>
      </trkpt>
      <trkpt lat="38.31134" lon="-0.69314">
        <ele>197.6</ele>
        <time>2022-10-15 16:45:28</time>
      </trkpt>
      <trkpt lat="38.31129" lon="-0.69308">
        <ele>196.8</ele>
        <time>2022-10-15 16:45:29</time>
      </trkpt>
      <trkpt lat="38.31123" lon="-0.69303">
        <ele>196.4</ele>
        <time>2022-10-15 16:45:30</time>
      </trkpt>
      <trkpt lat="38.31117" lon="-0.69298">
        <ele>196.2</ele>
        <time>2022-10-15 16:45:31</time>
      </trkpt>
      <trkpt lat="38.31104" lon="-0.69289">
        <ele>196</ele>
        <time>2022-10-15 16:45:33</time>
      </trkpt>
      <trkpt lat="38.31097" lon="-0.69286">
        <ele>195.8</ele>
        <time>2022-10-15 16:45:34</time>
      </trkpt>
      <trkpt lat="38.3109" lon="-0.69284">
        <ele>195.2</ele>
        <time>2022-10-15 16:45:35</time>
      </trkpt>
      <trkpt lat="38.31083" lon="-0.69282">
        <ele>194.4</ele>
        <time>2022-10-15 16:45:36</time>
      </trkpt>
      <trkpt lat="38.31076" lon="-0.69281">
        <ele>193.8</ele>
        <time>2022-10-15 16:45:37</time>
      </trkpt>
      <trkpt lat="38.31069" lon="-0.69281">
        <ele>193.4</ele>
        <time>2022-10-15 16:45:38</time>
      </trkpt>
      <trkpt lat="38.31063" lon="-0.69281">
        <ele>192.2</ele>
        <time>2022-10-15 16:45:39</time>
      </trkpt>
      <trkpt lat="38.31056" lon="-0.69281">
        <ele>191.6</ele>
        <time>2022-10-15 16:45:40</time>
      </trkpt>
      <trkpt lat="38.3105" lon="-0.69279">
        <ele>191.2</ele>
        <time>2022-10-15 16:45:41</time>
      </trkpt>
      <trkpt lat="38.31044" lon="-0.69276">
        <ele>190.6</ele>
        <time>2022-10-15 16:45:42</time>
      </trkpt>
      <trkpt lat="38.31039" lon="-0.69271">
        <ele>190.4</ele>
        <time>2022-10-15 16:45:43</time>
      </trkpt>
      <trkpt lat="38.31036" lon="-0.69265">
        <ele>190.4</ele>
        <time>2022-10-15 16:45:44</time>
      </trkpt>
      <trkpt lat="38.31035" lon="-0.69257">
        <ele>190.2</ele>
        <time>2022-10-15 16:45:45</time>
      </trkpt>
      <trkpt lat="38.31035" lon="-0.69248">
        <ele>190</ele>
        <time>2022-10-15 16:45:46</time>
      </trkpt>
      <trkpt lat="38.31031" lon="-0.69231">
        <ele>189.6</ele>
        <time>2022-10-15 16:45:48</time>
      </trkpt>
      <trkpt lat="38.31027" lon="-0.69224">
        <ele>189.4</ele>
        <time>2022-10-15 16:45:49</time>
      </trkpt>
      <trkpt lat="38.31021" lon="-0.69219">
        <ele>189.2</ele>
        <time>2022-10-15 16:45:50</time>
      </trkpt>
      <trkpt lat="38.31015" lon="-0.69216">
        <ele>189</ele>
        <time>2022-10-15 16:45:51</time>
      </trkpt>
      <trkpt lat="38.31002" lon="-0.69207">
        <ele>188.8</ele>
        <time>2022-10-15 16:45:53</time>
      </trkpt>
      <trkpt lat="38.30996" lon="-0.69202">
        <ele>188.2</ele>
        <time>2022-10-15 16:45:54</time>
      </trkpt>
      <trkpt lat="38.30991" lon="-0.69197">
        <ele>187.8</ele>
        <time>2022-10-15 16:45:55</time>
      </trkpt>
      <trkpt lat="38.30985" lon="-0.69191">
        <ele>187.8</ele>
        <time>2022-10-15 16:45:56</time>
      </trkpt>
      <trkpt lat="38.30981" lon="-0.69185">
        <ele>187</ele>
        <time>2022-10-15 16:45:57</time>
      </trkpt>
      <trkpt lat="38.30977" lon="-0.69178">
        <ele>186</ele>
        <time>2022-10-15 16:45:58</time>
      </trkpt>
      <trkpt lat="38.30973" lon="-0.69172">
        <ele>185.4</ele>
        <time>2022-10-15 16:45:59</time>
      </trkpt>
      <trkpt lat="38.30969" lon="-0.69168">
        <ele>185.2</ele>
        <time>2022-10-15 16:46:00</time>
      </trkpt>
      <trkpt lat="38.30965" lon="-0.69164">
        <ele>185</ele>
        <time>2022-10-15 16:46:01</time>
      </trkpt>
      <trkpt lat="38.30965" lon="-0.69164">
        <ele>185</ele>
        <time>2022-10-15 16:46:02</time>
      </trkpt>
      <trkpt lat="38.30955" lon="-0.69159">
        <ele>184.8</ele>
        <time>2022-10-15 16:46:03</time>
      </trkpt>
      <trkpt lat="38.30951" lon="-0.69158">
        <ele>184.8</ele>
        <time>2022-10-15 16:46:04</time>
      </trkpt>
      <trkpt lat="38.30945" lon="-0.69156">
        <ele>184.8</ele>
        <time>2022-10-15 16:46:05</time>
      </trkpt>
      <trkpt lat="38.3094" lon="-0.69155">
        <ele>184.6</ele>
        <time>2022-10-15 16:46:06</time>
      </trkpt>
      <trkpt lat="38.30933" lon="-0.69154">
        <ele>184.2</ele>
        <time>2022-10-15 16:46:07</time>
      </trkpt>
      <trkpt lat="38.30933" lon="-0.69154">
        <ele>184.2</ele>
        <time>2022-10-15 16:46:08</time>
      </trkpt>
      <trkpt lat="38.3092" lon="-0.69157">
        <ele>184</ele>
        <time>2022-10-15 16:46:09</time>
      </trkpt>
      <trkpt lat="38.30913" lon="-0.69159">
        <ele>184</ele>
        <time>2022-10-15 16:46:10</time>
      </trkpt>
      <trkpt lat="38.309" lon="-0.69164">
        <ele>183.8</ele>
        <time>2022-10-15 16:46:12</time>
      </trkpt>
      <trkpt lat="38.30893" lon="-0.69165">
        <ele>183.8</ele>
        <time>2022-10-15 16:46:13</time>
      </trkpt>
      <trkpt lat="38.30886" lon="-0.69167">
        <ele>183.8</ele>
        <time>2022-10-15 16:46:14</time>
      </trkpt>
      <trkpt lat="38.30879" lon="-0.69167">
        <ele>183.4</ele>
        <time>2022-10-15 16:46:15</time>
      </trkpt>
      <trkpt lat="38.30872" lon="-0.69167">
        <ele>183</ele>
        <time>2022-10-15 16:46:16</time>
      </trkpt>
      <trkpt lat="38.30865" lon="-0.69165">
        <ele>182.2</ele>
        <time>2022-10-15 16:46:17</time>
      </trkpt>
      <trkpt lat="38.30858" lon="-0.69162">
        <ele>181.6</ele>
        <time>2022-10-15 16:46:18</time>
      </trkpt>
      <trkpt lat="38.30851" lon="-0.69159">
        <ele>181.4</ele>
        <time>2022-10-15 16:46:19</time>
      </trkpt>
      <trkpt lat="38.30844" lon="-0.69156">
        <ele>181</ele>
        <time>2022-10-15 16:46:20</time>
      </trkpt>
      <trkpt lat="38.30837" lon="-0.69155">
        <ele>181</ele>
        <time>2022-10-15 16:46:21</time>
      </trkpt>
      <trkpt lat="38.30829" lon="-0.69154">
        <ele>180.6</ele>
        <time>2022-10-15 16:46:22</time>
      </trkpt>
      <trkpt lat="38.30822" lon="-0.69155">
        <ele>180</ele>
        <time>2022-10-15 16:46:23</time>
      </trkpt>
      <trkpt lat="38.30815" lon="-0.69155">
        <ele>179.8</ele>
        <time>2022-10-15 16:46:24</time>
      </trkpt>
      <trkpt lat="38.30808" lon="-0.69154">
        <ele>179.2</ele>
        <time>2022-10-15 16:46:25</time>
      </trkpt>
      <trkpt lat="38.30796" lon="-0.69147">
        <ele>178</ele>
        <time>2022-10-15 16:46:27</time>
      </trkpt>
      <trkpt lat="38.30791" lon="-0.69143">
        <ele>177.2</ele>
        <time>2022-10-15 16:46:28</time>
      </trkpt>
      <trkpt lat="38.30786" lon="-0.69137">
        <ele>176.4</ele>
        <time>2022-10-15 16:46:29</time>
      </trkpt>
      <trkpt lat="38.30782" lon="-0.69131">
        <ele>175.6</ele>
        <time>2022-10-15 16:46:30</time>
      </trkpt>
      <trkpt lat="38.30777" lon="-0.69125">
        <ele>175</ele>
        <time>2022-10-15 16:46:31</time>
      </trkpt>
      <trkpt lat="38.30773" lon="-0.69119">
        <ele>174.4</ele>
        <time>2022-10-15 16:46:32</time>
      </trkpt>
      <trkpt lat="38.30769" lon="-0.69112">
        <ele>174</ele>
        <time>2022-10-15 16:46:33</time>
      </trkpt>
      <trkpt lat="38.30764" lon="-0.69107">
        <ele>173.8</ele>
        <time>2022-10-15 16:46:34</time>
      </trkpt>
      <trkpt lat="38.30758" lon="-0.69102">
        <ele>173.6</ele>
        <time>2022-10-15 16:46:35</time>
      </trkpt>
      <trkpt lat="38.30752" lon="-0.69098">
        <ele>173.4</ele>
        <time>2022-10-15 16:46:36</time>
      </trkpt>
      <trkpt lat="38.30746" lon="-0.69095">
        <ele>173</ele>
        <time>2022-10-15 16:46:37</time>
      </trkpt>
      <trkpt lat="38.3074" lon="-0.69091">
        <ele>172.6</ele>
        <time>2022-10-15 16:46:38</time>
      </trkpt>
      <trkpt lat="38.30736" lon="-0.69085">
        <ele>172.2</ele>
        <time>2022-10-15 16:46:39</time>
      </trkpt>
      <trkpt lat="38.30732" lon="-0.69078">
        <ele>172</ele>
        <time>2022-10-15 16:46:40</time>
      </trkpt>
      <trkpt lat="38.30728" lon="-0.6907">
        <ele>171.8</ele>
        <time>2022-10-15 16:46:41</time>
      </trkpt>
      <trkpt lat="38.30724" lon="-0.69064">
        <ele>171.6</ele>
        <time>2022-10-15 16:46:42</time>
      </trkpt>
      <trkpt lat="38.30718" lon="-0.6906">
        <ele>171</ele>
        <time>2022-10-15 16:46:43</time>
      </trkpt>
      <trkpt lat="38.30712" lon="-0.69059">
        <ele>170.8</ele>
        <time>2022-10-15 16:46:44</time>
      </trkpt>
      <trkpt lat="38.30706" lon="-0.69059">
        <ele>170.6</ele>
        <time>2022-10-15 16:46:45</time>
      </trkpt>
      <trkpt lat="38.307" lon="-0.69061">
        <ele>170.4</ele>
        <time>2022-10-15 16:46:46</time>
      </trkpt>
      <trkpt lat="38.30696" lon="-0.69061">
        <ele>170.4</ele>
        <time>2022-10-15 16:46:47</time>
      </trkpt>
      <trkpt lat="38.30691" lon="-0.6906">
        <ele>170.4</ele>
        <time>2022-10-15 16:46:48</time>
      </trkpt>
      <trkpt lat="38.30688" lon="-0.69058">
        <ele>170.4</ele>
        <time>2022-10-15 16:46:49</time>
      </trkpt>
      <trkpt lat="38.30684" lon="-0.69056">
        <ele>170.4</ele>
        <time>2022-10-15 16:46:50</time>
      </trkpt>
      <trkpt lat="38.3068" lon="-0.69056">
        <ele>170.4</ele>
        <time>2022-10-15 16:46:51</time>
      </trkpt>
      <trkpt lat="38.30671" lon="-0.69059">
        <ele>170.4</ele>
        <time>2022-10-15 16:46:53</time>
      </trkpt>
      <trkpt lat="38.30665" lon="-0.69061">
        <ele>170.2</ele>
        <time>2022-10-15 16:46:54</time>
      </trkpt>
      <trkpt lat="38.30659" lon="-0.69061">
        <ele>170.2</ele>
        <time>2022-10-15 16:46:55</time>
      </trkpt>
      <trkpt lat="38.30653" lon="-0.69058">
        <ele>169.8</ele>
        <time>2022-10-15 16:46:56</time>
      </trkpt>
      <trkpt lat="38.30644" lon="-0.69047">
        <ele>169.6</ele>
        <time>2022-10-15 16:46:58</time>
      </trkpt>
      <trkpt lat="38.30639" lon="-0.69043">
        <ele>169.6</ele>
        <time>2022-10-15 16:46:59</time>
      </trkpt>
      <trkpt lat="38.30634" lon="-0.69038">
        <ele>169.6</ele>
        <time>2022-10-15 16:47:00</time>
      </trkpt>
      <trkpt lat="38.30629" lon="-0.69034">
        <ele>169.6</ele>
        <time>2022-10-15 16:47:01</time>
      </trkpt>
      <trkpt lat="38.30629" lon="-0.69034">
        <ele>169.6</ele>
        <time>2022-10-15 16:47:02</time>
      </trkpt>
      <trkpt lat="38.30618" lon="-0.69029">
        <ele>169.6</ele>
        <time>2022-10-15 16:47:03</time>
      </trkpt>
      <trkpt lat="38.30611" lon="-0.69027">
        <ele>169.4</ele>
        <time>2022-10-15 16:47:04</time>
      </trkpt>
      <trkpt lat="38.30605" lon="-0.69026">
        <ele>169.2</ele>
        <time>2022-10-15 16:47:05</time>
      </trkpt>
      <trkpt lat="38.30598" lon="-0.69025">
        <ele>169</ele>
        <time>2022-10-15 16:47:06</time>
      </trkpt>
      <trkpt lat="38.3059" lon="-0.69024">
        <ele>168.8</ele>
        <time>2022-10-15 16:47:07</time>
      </trkpt>
      <trkpt lat="38.30576" lon="-0.69024">
        <ele>167.8</ele>
        <time>2022-10-15 16:47:09</time>
      </trkpt>
      <trkpt lat="38.30568" lon="-0.69026">
        <ele>167.6</ele>
        <time>2022-10-15 16:47:10</time>
      </trkpt>
      <trkpt lat="38.30561" lon="-0.69029">
        <ele>167.4</ele>
        <time>2022-10-15 16:47:11</time>
      </trkpt>
      <trkpt lat="38.30554" lon="-0.69032">
        <ele>167.2</ele>
        <time>2022-10-15 16:47:12</time>
      </trkpt>
      <trkpt lat="38.30546" lon="-0.69035">
        <ele>166.6</ele>
        <time>2022-10-15 16:47:13</time>
      </trkpt>
      <trkpt lat="38.30537" lon="-0.69037">
        <ele>165.6</ele>
        <time>2022-10-15 16:47:14</time>
      </trkpt>
      <trkpt lat="38.30529" lon="-0.6904">
        <ele>164.8</ele>
        <time>2022-10-15 16:47:15</time>
      </trkpt>
      <trkpt lat="38.30521" lon="-0.69042">
        <ele>164.2</ele>
        <time>2022-10-15 16:47:16</time>
      </trkpt>
      <trkpt lat="38.30513" lon="-0.69043">
        <ele>163.8</ele>
        <time>2022-10-15 16:47:17</time>
      </trkpt>
      <trkpt lat="38.30505" lon="-0.69043">
        <ele>163.6</ele>
        <time>2022-10-15 16:47:18</time>
      </trkpt>
      <trkpt lat="38.30498" lon="-0.69043">
        <ele>163</ele>
        <time>2022-10-15 16:47:19</time>
      </trkpt>
      <trkpt lat="38.30486" lon="-0.69042">
        <ele>161.2</ele>
        <time>2022-10-15 16:47:21</time>
      </trkpt>
      <trkpt lat="38.3048" lon="-0.69042">
        <ele>160.4</ele>
        <time>2022-10-15 16:47:22</time>
      </trkpt>
      <trkpt lat="38.30474" lon="-0.69042">
        <ele>159.8</ele>
        <time>2022-10-15 16:47:23</time>
      </trkpt>
      <trkpt lat="38.30468" lon="-0.69041">
        <ele>159.6</ele>
        <time>2022-10-15 16:47:24</time>
      </trkpt>
      <trkpt lat="38.30462" lon="-0.69041">
        <ele>159.4</ele>
        <time>2022-10-15 16:47:25</time>
      </trkpt>
      <trkpt lat="38.30462" lon="-0.69041">
        <ele>159.2</ele>
        <time>2022-10-15 16:47:26</time>
      </trkpt>
      <trkpt lat="38.3045" lon="-0.6904">
        <ele>159.2</ele>
        <time>2022-10-15 16:47:27</time>
      </trkpt>
      <trkpt lat="38.30445" lon="-0.69039">
        <ele>159.2</ele>
        <time>2022-10-15 16:47:28</time>
      </trkpt>
      <trkpt lat="38.30439" lon="-0.69038">
        <ele>159.2</ele>
        <time>2022-10-15 16:47:29</time>
      </trkpt>
      <trkpt lat="38.30433" lon="-0.69037">
        <ele>159</ele>
        <time>2022-10-15 16:47:30</time>
      </trkpt>
      <trkpt lat="38.30426" lon="-0.69036">
        <ele>159</ele>
        <time>2022-10-15 16:47:31</time>
      </trkpt>
      <trkpt lat="38.30426" lon="-0.69036">
        <ele>159</ele>
        <time>2022-10-15 16:47:32</time>
      </trkpt>
      <trkpt lat="38.30413" lon="-0.69034">
        <ele>159</ele>
        <time>2022-10-15 16:47:33</time>
      </trkpt>
      <trkpt lat="38.30399" lon="-0.69033">
        <ele>159</ele>
        <time>2022-10-15 16:47:35</time>
      </trkpt>
      <trkpt lat="38.30392" lon="-0.69033">
        <ele>159</ele>
        <time>2022-10-15 16:47:36</time>
      </trkpt>
      <trkpt lat="38.30385" lon="-0.69033">
        <ele>158.8</ele>
        <time>2022-10-15 16:47:37</time>
      </trkpt>
      <trkpt lat="38.30385" lon="-0.69033">
        <ele>158.8</ele>
        <time>2022-10-15 16:47:38</time>
      </trkpt>
      <trkpt lat="38.3037" lon="-0.69034">
        <ele>158.4</ele>
        <time>2022-10-15 16:47:39</time>
      </trkpt>
      <trkpt lat="38.30356" lon="-0.69035">
        <ele>157.2</ele>
        <time>2022-10-15 16:47:41</time>
      </trkpt>
      <trkpt lat="38.30348" lon="-0.69036">
        <ele>156.6</ele>
        <time>2022-10-15 16:47:42</time>
      </trkpt>
      <trkpt lat="38.3034" lon="-0.69037">
        <ele>156.2</ele>
        <time>2022-10-15 16:47:43</time>
      </trkpt>
      <trkpt lat="38.3034" lon="-0.69037">
        <ele>156</ele>
        <time>2022-10-15 16:47:44</time>
      </trkpt>
      <trkpt lat="38.30324" lon="-0.69037">
        <ele>155.8</ele>
        <time>2022-10-15 16:47:45</time>
      </trkpt>
      <trkpt lat="38.30315" lon="-0.69037">
        <ele>155.4</ele>
        <time>2022-10-15 16:47:46</time>
      </trkpt>
      <trkpt lat="38.30306" lon="-0.69036">
        <ele>155</ele>
        <time>2022-10-15 16:47:47</time>
      </trkpt>
      <trkpt lat="38.30297" lon="-0.69036">
        <ele>154.8</ele>
        <time>2022-10-15 16:47:48</time>
      </trkpt>
      <trkpt lat="38.30288" lon="-0.69036">
        <ele>154.4</ele>
        <time>2022-10-15 16:47:49</time>
      </trkpt>
      <trkpt lat="38.30288" lon="-0.69036">
        <ele>153.8</ele>
        <time>2022-10-15 16:47:50</time>
      </trkpt>
      <trkpt lat="38.30271" lon="-0.69036">
        <ele>153.4</ele>
        <time>2022-10-15 16:47:51</time>
      </trkpt>
      <trkpt lat="38.30263" lon="-0.69037">
        <ele>152.2</ele>
        <time>2022-10-15 16:47:52</time>
      </trkpt>
      <trkpt lat="38.30255" lon="-0.69038">
        <ele>150.6</ele>
        <time>2022-10-15 16:47:53</time>
      </trkpt>
      <trkpt lat="38.30248" lon="-0.69039">
        <ele>148.8</ele>
        <time>2022-10-15 16:47:54</time>
      </trkpt>
      <trkpt lat="38.30242" lon="-0.6904">
        <ele>147.6</ele>
        <time>2022-10-15 16:47:55</time>
      </trkpt>
      <trkpt lat="38.30242" lon="-0.6904">
        <ele>146.8</ele>
        <time>2022-10-15 16:47:56</time>
      </trkpt>
      <trkpt lat="38.30229" lon="-0.69041">
        <ele>146.4</ele>
        <time>2022-10-15 16:47:57</time>
      </trkpt>
      <trkpt lat="38.30222" lon="-0.69041">
        <ele>146.2</ele>
        <time>2022-10-15 16:47:58</time>
      </trkpt>
      <trkpt lat="38.30215" lon="-0.69041">
        <ele>146</ele>
        <time>2022-10-15 16:47:59</time>
      </trkpt>
      <trkpt lat="38.30202" lon="-0.6904">
        <ele>145.4</ele>
        <time>2022-10-15 16:48:01</time>
      </trkpt>
      <trkpt lat="38.30195" lon="-0.69039">
        <ele>145.4</ele>
        <time>2022-10-15 16:48:02</time>
      </trkpt>
      <trkpt lat="38.30189" lon="-0.69038">
        <ele>145.2</ele>
        <time>2022-10-15 16:48:03</time>
      </trkpt>
      <trkpt lat="38.30182" lon="-0.69037">
        <ele>145.2</ele>
        <time>2022-10-15 16:48:04</time>
      </trkpt>
      <trkpt lat="38.30176" lon="-0.69037">
        <ele>145.2</ele>
        <time>2022-10-15 16:48:05</time>
      </trkpt>
      <trkpt lat="38.3017" lon="-0.69036">
        <ele>145</ele>
        <time>2022-10-15 16:48:06</time>
      </trkpt>
      <trkpt lat="38.30164" lon="-0.69036">
        <ele>145</ele>
        <time>2022-10-15 16:48:07</time>
      </trkpt>
      <trkpt lat="38.30158" lon="-0.69036">
        <ele>145</ele>
        <time>2022-10-15 16:48:08</time>
      </trkpt>
      <trkpt lat="38.30153" lon="-0.69036">
        <ele>144.8</ele>
        <time>2022-10-15 16:48:09</time>
      </trkpt>
      <trkpt lat="38.30147" lon="-0.69037">
        <ele>144.6</ele>
        <time>2022-10-15 16:48:10</time>
      </trkpt>
      <trkpt lat="38.30142" lon="-0.69038">
        <ele>144.4</ele>
        <time>2022-10-15 16:48:11</time>
      </trkpt>
      <trkpt lat="38.30136" lon="-0.69038">
        <ele>144.2</ele>
        <time>2022-10-15 16:48:12</time>
      </trkpt>
      <trkpt lat="38.30131" lon="-0.69039">
        <ele>144.2</ele>
        <time>2022-10-15 16:48:13</time>
      </trkpt>
      <trkpt lat="38.30131" lon="-0.69039">
        <ele>144</ele>
        <time>2022-10-15 16:48:14</time>
      </trkpt>
      <trkpt lat="38.30121" lon="-0.69039">
        <ele>144</ele>
        <time>2022-10-15 16:48:15</time>
      </trkpt>
      <trkpt lat="38.30112" lon="-0.69039">
        <ele>144</ele>
        <time>2022-10-15 16:48:17</time>
      </trkpt>
      <trkpt lat="38.30107" lon="-0.69039">
        <ele>144</ele>
        <time>2022-10-15 16:48:18</time>
      </trkpt>
      <trkpt lat="38.30103" lon="-0.69038">
        <ele>144</ele>
        <time>2022-10-15 16:48:19</time>
      </trkpt>
      <trkpt lat="38.30099" lon="-0.69037">
        <ele>144</ele>
        <time>2022-10-15 16:48:20</time>
      </trkpt>
      <trkpt lat="38.30094" lon="-0.69037">
        <ele>144</ele>
        <time>2022-10-15 16:48:21</time>
      </trkpt>
      <trkpt lat="38.3009" lon="-0.69036">
        <ele>144</ele>
        <time>2022-10-15 16:48:22</time>
      </trkpt>
      <trkpt lat="38.30086" lon="-0.69036">
        <ele>144.2</ele>
        <time>2022-10-15 16:48:23</time>
      </trkpt>
      <trkpt lat="38.30081" lon="-0.69036">
        <ele>144.2</ele>
        <time>2022-10-15 16:48:24</time>
      </trkpt>
      <trkpt lat="38.30077" lon="-0.69036">
        <ele>144.2</ele>
        <time>2022-10-15 16:48:25</time>
      </trkpt>
      <trkpt lat="38.30069" lon="-0.69036">
        <ele>144.4</ele>
        <time>2022-10-15 16:48:27</time>
      </trkpt>
      <trkpt lat="38.30065" lon="-0.69036">
        <ele>144.8</ele>
        <time>2022-10-15 16:48:28</time>
      </trkpt>
      <trkpt lat="38.30061" lon="-0.69036">
        <ele>145.2</ele>
        <time>2022-10-15 16:48:29</time>
      </trkpt>
      <trkpt lat="38.30057" lon="-0.69036">
        <ele>145.2</ele>
        <time>2022-10-15 16:48:30</time>
      </trkpt>
      <trkpt lat="38.30053" lon="-0.69037">
        <ele>145.4</ele>
        <time>2022-10-15 16:48:32</time>
      </trkpt>
      <trkpt lat="38.30045" lon="-0.69038">
        <ele>145.4</ele>
        <time>2022-10-15 16:48:33</time>
      </trkpt>
      <trkpt lat="38.30041" lon="-0.69039">
        <ele>145.4</ele>
        <time>2022-10-15 16:48:34</time>
      </trkpt>
      <trkpt lat="38.30037" lon="-0.6904">
        <ele>145.4</ele>
        <time>2022-10-15 16:48:35</time>
      </trkpt>
      <trkpt lat="38.30033" lon="-0.69041">
        <ele>145.4</ele>
        <time>2022-10-15 16:48:36</time>
      </trkpt>
      <trkpt lat="38.3003" lon="-0.69042">
        <ele>145.2</ele>
        <time>2022-10-15 16:48:37</time>
      </trkpt>
      <trkpt lat="38.3003" lon="-0.69042">
        <ele>145.2</ele>
        <time>2022-10-15 16:48:38</time>
      </trkpt>
      <trkpt lat="38.30022" lon="-0.69046">
        <ele>145.2</ele>
        <time>2022-10-15 16:48:39</time>
      </trkpt>
      <trkpt lat="38.30018" lon="-0.69048">
        <ele>145.2</ele>
        <time>2022-10-15 16:48:40</time>
      </trkpt>
      <trkpt lat="38.30014" lon="-0.69049">
        <ele>145.2</ele>
        <time>2022-10-15 16:48:41</time>
      </trkpt>
      <trkpt lat="38.30009" lon="-0.69051">
        <ele>145.2</ele>
        <time>2022-10-15 16:48:42</time>
      </trkpt>
      <trkpt lat="38.30004" lon="-0.69052">
        <ele>145.2</ele>
        <time>2022-10-15 16:48:43</time>
      </trkpt>
      <trkpt lat="38.30004" lon="-0.69052">
        <ele>145</ele>
        <time>2022-10-15 16:48:44</time>
      </trkpt>
      <trkpt lat="38.29993" lon="-0.69052">
        <ele>145</ele>
        <time>2022-10-15 16:48:45</time>
      </trkpt>
      <trkpt lat="38.2998" lon="-0.69051">
        <ele>145</ele>
        <time>2022-10-15 16:48:47</time>
      </trkpt>
      <trkpt lat="38.29973" lon="-0.6905">
        <ele>145.2</ele>
        <time>2022-10-15 16:48:48</time>
      </trkpt>
      <trkpt lat="38.29966" lon="-0.69051">
        <ele>144.8</ele>
        <time>2022-10-15 16:48:49</time>
      </trkpt>
      <trkpt lat="38.29966" lon="-0.69051">
        <ele>144.6</ele>
        <time>2022-10-15 16:48:50</time>
      </trkpt>
      <trkpt lat="38.29953" lon="-0.69055">
        <ele>144.4</ele>
        <time>2022-10-15 16:48:51</time>
      </trkpt>
      <trkpt lat="38.29947" lon="-0.69058">
        <ele>144</ele>
        <time>2022-10-15 16:48:52</time>
      </trkpt>
      <trkpt lat="38.29941" lon="-0.69061">
        <ele>143.2</ele>
        <time>2022-10-15 16:48:53</time>
      </trkpt>
      <trkpt lat="38.29935" lon="-0.69063">
        <ele>142.2</ele>
        <time>2022-10-15 16:48:54</time>
      </trkpt>
      <trkpt lat="38.2993" lon="-0.69065">
        <ele>141.4</ele>
        <time>2022-10-15 16:48:55</time>
      </trkpt>
      <trkpt lat="38.2993" lon="-0.69065">
        <ele>140.6</ele>
        <time>2022-10-15 16:48:56</time>
      </trkpt>
      <trkpt lat="38.2992" lon="-0.69068">
        <ele>139.4</ele>
        <time>2022-10-15 16:48:57</time>
      </trkpt>
      <trkpt lat="38.29915" lon="-0.6907">
        <ele>139</ele>
        <time>2022-10-15 16:48:58</time>
      </trkpt>
      <trkpt lat="38.29911" lon="-0.69071">
        <ele>139</ele>
        <time>2022-10-15 16:48:59</time>
      </trkpt>
      <trkpt lat="38.29907" lon="-0.69072">
        <ele>138.8</ele>
        <time>2022-10-15 16:49:00</time>
      </trkpt>
      <trkpt lat="38.29903" lon="-0.69073">
        <ele>138.8</ele>
        <time>2022-10-15 16:49:01</time>
      </trkpt>
      <trkpt lat="38.29903" lon="-0.69073">
        <ele>138.8</ele>
        <time>2022-10-15 16:49:02</time>
      </trkpt>
      <trkpt lat="38.29896" lon="-0.69075">
        <ele>138.8</ele>
        <time>2022-10-15 16:49:03</time>
      </trkpt>
      <trkpt lat="38.29893" lon="-0.69076">
        <ele>138.8</ele>
        <time>2022-10-15 16:49:04</time>
      </trkpt>
      <trkpt lat="38.2989" lon="-0.69078">
        <ele>138.8</ele>
        <time>2022-10-15 16:49:05</time>
      </trkpt>
      <trkpt lat="38.29884" lon="-0.69079">
        <ele>139.2</ele>
        <time>2022-10-15 16:49:07</time>
      </trkpt>
      <trkpt lat="38.29881" lon="-0.6908">
        <ele>139.4</ele>
        <time>2022-10-15 16:49:08</time>
      </trkpt>
      <trkpt lat="38.29878" lon="-0.6908">
        <ele>139.6</ele>
        <time>2022-10-15 16:49:09</time>
      </trkpt>
      <trkpt lat="38.29876" lon="-0.6908">
        <ele>139.8</ele>
        <time>2022-10-15 16:49:10</time>
      </trkpt>
      <trkpt lat="38.29873" lon="-0.69081">
        <ele>140</ele>
        <time>2022-10-15 16:49:11</time>
      </trkpt>
      <trkpt lat="38.29868" lon="-0.69083">
        <ele>140.4</ele>
        <time>2022-10-15 16:49:13</time>
      </trkpt>
      <trkpt lat="38.29865" lon="-0.69084">
        <ele>140.4</ele>
        <time>2022-10-15 16:49:14</time>
      </trkpt>
      <trkpt lat="38.29863" lon="-0.69084">
        <ele>140.6</ele>
        <time>2022-10-15 16:49:15</time>
      </trkpt>
      <trkpt lat="38.2986" lon="-0.69085">
        <ele>140.6</ele>
        <time>2022-10-15 16:49:16</time>
      </trkpt>
      <trkpt lat="38.29855" lon="-0.69086">
        <ele>140.8</ele>
        <time>2022-10-15 16:49:18</time>
      </trkpt>
      <trkpt lat="38.29853" lon="-0.69087">
        <ele>140.8</ele>
        <time>2022-10-15 16:49:19</time>
      </trkpt>
      <trkpt lat="38.2985" lon="-0.69087">
        <ele>140.8</ele>
        <time>2022-10-15 16:49:20</time>
      </trkpt>
      <trkpt lat="38.29848" lon="-0.69088">
        <ele>141</ele>
        <time>2022-10-15 16:49:21</time>
      </trkpt>
      <trkpt lat="38.29846" lon="-0.69089">
        <ele>141</ele>
        <time>2022-10-15 16:49:22</time>
      </trkpt>
      <trkpt lat="38.29841" lon="-0.69089">
        <ele>141</ele>
        <time>2022-10-15 16:49:24</time>
      </trkpt>
      <trkpt lat="38.29839" lon="-0.6909">
        <ele>141</ele>
        <time>2022-10-15 16:49:25</time>
      </trkpt>
      <trkpt lat="38.29837" lon="-0.6909">
        <ele>141.2</ele>
        <time>2022-10-15 16:49:26</time>
      </trkpt>
      <trkpt lat="38.29833" lon="-0.69091">
        <ele>141.4</ele>
        <time>2022-10-15 16:49:28</time>
      </trkpt>
      <trkpt lat="38.29831" lon="-0.69092">
        <ele>141.6</ele>
        <time>2022-10-15 16:49:29</time>
      </trkpt>
      <trkpt lat="38.29828" lon="-0.69092">
        <ele>141.8</ele>
        <time>2022-10-15 16:49:30</time>
      </trkpt>
      <trkpt lat="38.29826" lon="-0.69092">
        <ele>142</ele>
        <time>2022-10-15 16:49:31</time>
      </trkpt>
      <trkpt lat="38.29823" lon="-0.69093">
        <ele>142.4</ele>
        <time>2022-10-15 16:49:33</time>
      </trkpt>
      <trkpt lat="38.29821" lon="-0.69093">
        <ele>142.4</ele>
        <time>2022-10-15 16:49:34</time>
      </trkpt>
      <trkpt lat="38.29819" lon="-0.69093">
        <ele>142.8</ele>
        <time>2022-10-15 16:49:35</time>
      </trkpt>
      <trkpt lat="38.29818" lon="-0.69094">
        <ele>143</ele>
        <time>2022-10-15 16:49:36</time>
      </trkpt>
      <trkpt lat="38.29816" lon="-0.69094">
        <ele>143.2</ele>
        <time>2022-10-15 16:49:37</time>
      </trkpt>
      <trkpt lat="38.29811" lon="-0.69094">
        <ele>143.6</ele>
        <time>2022-10-15 16:49:39</time>
      </trkpt>
      <trkpt lat="38.29809" lon="-0.69094">
        <ele>143.6</ele>
        <time>2022-10-15 16:49:40</time>
      </trkpt>
      <trkpt lat="38.29807" lon="-0.69094">
        <ele>143.8</ele>
        <time>2022-10-15 16:49:41</time>
      </trkpt>
      <trkpt lat="38.29805" lon="-0.69094">
        <ele>143.8</ele>
        <time>2022-10-15 16:49:42</time>
      </trkpt>
      <trkpt lat="38.29803" lon="-0.69094">
        <ele>144</ele>
        <time>2022-10-15 16:49:43</time>
      </trkpt>
      <trkpt lat="38.29798" lon="-0.69093">
        <ele>144.2</ele>
        <time>2022-10-15 16:49:45</time>
      </trkpt>
      <trkpt lat="38.29795" lon="-0.69092">
        <ele>144.4</ele>
        <time>2022-10-15 16:49:46</time>
      </trkpt>
      <trkpt lat="38.29793" lon="-0.69091">
        <ele>144.4</ele>
        <time>2022-10-15 16:49:47</time>
      </trkpt>
      <trkpt lat="38.29791" lon="-0.69091">
        <ele>144.4</ele>
        <time>2022-10-15 16:49:48</time>
      </trkpt>
      <trkpt lat="38.29788" lon="-0.6909">
        <ele>144.6</ele>
        <time>2022-10-15 16:49:49</time>
      </trkpt>
      <trkpt lat="38.29786" lon="-0.69089">
        <ele>144.6</ele>
        <time>2022-10-15 16:49:50</time>
      </trkpt>
      <trkpt lat="38.29784" lon="-0.69088">
        <ele>144.6</ele>
        <time>2022-10-15 16:49:51</time>
      </trkpt>
      <trkpt lat="38.29781" lon="-0.69088">
        <ele>144.6</ele>
        <time>2022-10-15 16:49:52</time>
      </trkpt>
      <trkpt lat="38.29779" lon="-0.69087">
        <ele>145</ele>
        <time>2022-10-15 16:49:53</time>
      </trkpt>
      <trkpt lat="38.29776" lon="-0.69087">
        <ele>145.2</ele>
        <time>2022-10-15 16:49:54</time>
      </trkpt>
      <trkpt lat="38.29772" lon="-0.69086">
        <ele>145.4</ele>
        <time>2022-10-15 16:49:56</time>
      </trkpt>
      <trkpt lat="38.29771" lon="-0.69085">
        <ele>145.6</ele>
        <time>2022-10-15 16:49:57</time>
      </trkpt>
      <trkpt lat="38.29769" lon="-0.69085">
        <ele>145.6</ele>
        <time>2022-10-15 16:49:58</time>
      </trkpt>
      <trkpt lat="38.29768" lon="-0.69086">
        <ele>145.6</ele>
        <time>2022-10-15 16:49:59</time>
      </trkpt>
      <trkpt lat="38.29765" lon="-0.69087">
        <ele>145.8</ele>
        <time>2022-10-15 16:50:01</time>
      </trkpt>
      <trkpt lat="38.29764" lon="-0.69088">
        <ele>145.8</ele>
        <time>2022-10-15 16:50:02</time>
      </trkpt>
      <trkpt lat="38.29762" lon="-0.69088">
        <ele>145.8</ele>
        <time>2022-10-15 16:50:03</time>
      </trkpt>
      <trkpt lat="38.2976" lon="-0.69089">
        <ele>146</ele>
        <time>2022-10-15 16:50:04</time>
      </trkpt>
      <trkpt lat="38.29757" lon="-0.6909">
        <ele>146</ele>
        <time>2022-10-15 16:50:05</time>
      </trkpt>
      <trkpt lat="38.29752" lon="-0.69094">
        <ele>146.4</ele>
        <time>2022-10-15 16:50:07</time>
      </trkpt>
      <trkpt lat="38.2975" lon="-0.69095">
        <ele>146.6</ele>
        <time>2022-10-15 16:50:08</time>
      </trkpt>
      <trkpt lat="38.29747" lon="-0.69096">
        <ele>146.6</ele>
        <time>2022-10-15 16:50:09</time>
      </trkpt>
      <trkpt lat="38.29745" lon="-0.69097">
        <ele>146.8</ele>
        <time>2022-10-15 16:50:10</time>
      </trkpt>
      <trkpt lat="38.29739" lon="-0.69099">
        <ele>147</ele>
        <time>2022-10-15 16:50:12</time>
      </trkpt>
      <trkpt lat="38.29736" lon="-0.691">
        <ele>147</ele>
        <time>2022-10-15 16:50:13</time>
      </trkpt>
      <trkpt lat="38.29736" lon="-0.691">
        <ele>147</ele>
        <time>2022-10-15 16:50:14</time>
      </trkpt>
      <trkpt lat="38.29729" lon="-0.69102">
        <ele>147</ele>
        <time>2022-10-15 16:50:15</time>
      </trkpt>
      <trkpt lat="38.29725" lon="-0.69103">
        <ele>147</ele>
        <time>2022-10-15 16:50:16</time>
      </trkpt>
      <trkpt lat="38.2972" lon="-0.69105">
        <ele>147</ele>
        <time>2022-10-15 16:50:17</time>
      </trkpt>
      <trkpt lat="38.29716" lon="-0.69106">
        <ele>147</ele>
        <time>2022-10-15 16:50:18</time>
      </trkpt>
      <trkpt lat="38.29711" lon="-0.69108">
        <ele>147</ele>
        <time>2022-10-15 16:50:19</time>
      </trkpt>
      <trkpt lat="38.29711" lon="-0.69108">
        <ele>147</ele>
        <time>2022-10-15 16:50:20</time>
      </trkpt>
      <trkpt lat="38.297" lon="-0.69112">
        <ele>146.6</ele>
        <time>2022-10-15 16:50:21</time>
      </trkpt>
      <trkpt lat="38.29689" lon="-0.69115">
        <ele>146.2</ele>
        <time>2022-10-15 16:50:23</time>
      </trkpt>
      <trkpt lat="38.29683" lon="-0.69117">
        <ele>146</ele>
        <time>2022-10-15 16:50:24</time>
      </trkpt>
      <trkpt lat="38.29678" lon="-0.69119">
        <ele>145.8</ele>
        <time>2022-10-15 16:50:25</time>
      </trkpt>
      <trkpt lat="38.29672" lon="-0.69121">
        <ele>145.4</ele>
        <time>2022-10-15 16:50:26</time>
      </trkpt>
      <trkpt lat="38.29667" lon="-0.69123">
        <ele>144.8</ele>
        <time>2022-10-15 16:50:27</time>
      </trkpt>
      <trkpt lat="38.29661" lon="-0.69125">
        <ele>144</ele>
        <time>2022-10-15 16:50:28</time>
      </trkpt>
      <trkpt lat="38.29656" lon="-0.69127">
        <ele>143.2</ele>
        <time>2022-10-15 16:50:29</time>
      </trkpt>
      <trkpt lat="38.29652" lon="-0.69129">
        <ele>142.6</ele>
        <time>2022-10-15 16:50:30</time>
      </trkpt>
      <trkpt lat="38.29647" lon="-0.69131">
        <ele>142.4</ele>
        <time>2022-10-15 16:50:31</time>
      </trkpt>
      <trkpt lat="38.29647" lon="-0.69131">
        <ele>142.2</ele>
        <time>2022-10-15 16:50:32</time>
      </trkpt>
      <trkpt lat="38.29637" lon="-0.69135">
        <ele>142</ele>
        <time>2022-10-15 16:50:33</time>
      </trkpt>
      <trkpt lat="38.29633" lon="-0.69137">
        <ele>142</ele>
        <time>2022-10-15 16:50:34</time>
      </trkpt>
      <trkpt lat="38.29628" lon="-0.69139">
        <ele>141.8</ele>
        <time>2022-10-15 16:50:35</time>
      </trkpt>
      <trkpt lat="38.29623" lon="-0.69141">
        <ele>141.8</ele>
        <time>2022-10-15 16:50:36</time>
      </trkpt>
      <trkpt lat="38.29618" lon="-0.69143">
        <ele>141.8</ele>
        <time>2022-10-15 16:50:38</time>
      </trkpt>
      <trkpt lat="38.29608" lon="-0.69147">
        <ele>141.6</ele>
        <time>2022-10-15 16:50:39</time>
      </trkpt>
      <trkpt lat="38.29603" lon="-0.69149">
        <ele>141.6</ele>
        <time>2022-10-15 16:50:40</time>
      </trkpt>
      <trkpt lat="38.29598" lon="-0.69151">
        <ele>141.4</ele>
        <time>2022-10-15 16:50:41</time>
      </trkpt>
      <trkpt lat="38.29586" lon="-0.69157">
        <ele>141.4</ele>
        <time>2022-10-15 16:50:43</time>
      </trkpt>
      <trkpt lat="38.29586" lon="-0.69157">
        <ele>141.4</ele>
        <time>2022-10-15 16:50:44</time>
      </trkpt>
      <trkpt lat="38.29574" lon="-0.69163">
        <ele>141.4</ele>
        <time>2022-10-15 16:50:45</time>
      </trkpt>
      <trkpt lat="38.29567" lon="-0.69166">
        <ele>141.4</ele>
        <time>2022-10-15 16:50:46</time>
      </trkpt>
      <trkpt lat="38.29554" lon="-0.69174">
        <ele>141.2</ele>
        <time>2022-10-15 16:50:48</time>
      </trkpt>
      <trkpt lat="38.29547" lon="-0.69178">
        <ele>141.2</ele>
        <time>2022-10-15 16:50:49</time>
      </trkpt>
      <trkpt lat="38.29547" lon="-0.69178">
        <ele>141</ele>
        <time>2022-10-15 16:50:50</time>
      </trkpt>
      <trkpt lat="38.29533" lon="-0.69186">
        <ele>141</ele>
        <time>2022-10-15 16:50:51</time>
      </trkpt>
      <trkpt lat="38.29518" lon="-0.69193">
        <ele>141</ele>
        <time>2022-10-15 16:50:53</time>
      </trkpt>
      <trkpt lat="38.29511" lon="-0.69197">
        <ele>140.8</ele>
        <time>2022-10-15 16:50:54</time>
      </trkpt>
      <trkpt lat="38.29504" lon="-0.69201">
        <ele>140.4</ele>
        <time>2022-10-15 16:50:55</time>
      </trkpt>
      <trkpt lat="38.29504" lon="-0.69201">
        <ele>140</ele>
        <time>2022-10-15 16:50:56</time>
      </trkpt>
      <trkpt lat="38.29484" lon="-0.69212">
        <ele>139.4</ele>
        <time>2022-10-15 16:50:58</time>
      </trkpt>
      <trkpt lat="38.29477" lon="-0.69215">
        <ele>139.2</ele>
        <time>2022-10-15 16:50:59</time>
      </trkpt>
      <trkpt lat="38.2947" lon="-0.69219">
        <ele>139</ele>
        <time>2022-10-15 16:51:00</time>
      </trkpt>
      <trkpt lat="38.29463" lon="-0.69222">
        <ele>138.8</ele>
        <time>2022-10-15 16:51:01</time>
      </trkpt>
      <trkpt lat="38.29447" lon="-0.69229">
        <ele>138.4</ele>
        <time>2022-10-15 16:51:03</time>
      </trkpt>
      <trkpt lat="38.29438" lon="-0.69233">
        <ele>138.4</ele>
        <time>2022-10-15 16:51:04</time>
      </trkpt>
      <trkpt lat="38.2943" lon="-0.69239">
        <ele>138.2</ele>
        <time>2022-10-15 16:51:05</time>
      </trkpt>
      <trkpt lat="38.29422" lon="-0.69246">
        <ele>138</ele>
        <time>2022-10-15 16:51:06</time>
      </trkpt>
      <trkpt lat="38.29414" lon="-0.69255">
        <ele>137.6</ele>
        <time>2022-10-15 16:51:07</time>
      </trkpt>
      <trkpt lat="38.29397" lon="-0.69271">
        <ele>136.6</ele>
        <time>2022-10-15 16:51:09</time>
      </trkpt>
      <trkpt lat="38.29389" lon="-0.69278">
        <ele>134.8</ele>
        <time>2022-10-15 16:51:10</time>
      </trkpt>
      <trkpt lat="38.29382" lon="-0.69284">
        <ele>133</ele>
        <time>2022-10-15 16:51:11</time>
      </trkpt>
      <trkpt lat="38.29376" lon="-0.69291">
        <ele>131.6</ele>
        <time>2022-10-15 16:51:12</time>
      </trkpt>
      <trkpt lat="38.29373" lon="-0.693">
        <ele>130.4</ele>
        <time>2022-10-15 16:51:13</time>
      </trkpt>
      <trkpt lat="38.29373" lon="-0.693">
        <ele>129.6</ele>
        <time>2022-10-15 16:51:14</time>
      </trkpt>
      <trkpt lat="38.29373" lon="-0.69317">
        <ele>129.2</ele>
        <time>2022-10-15 16:51:15</time>
      </trkpt>
      <trkpt lat="38.29374" lon="-0.69325">
        <ele>127.6</ele>
        <time>2022-10-15 16:51:16</time>
      </trkpt>
      <trkpt lat="38.29375" lon="-0.69333">
        <ele>126.8</ele>
        <time>2022-10-15 16:51:17</time>
      </trkpt>
      <trkpt lat="38.29375" lon="-0.69341">
        <ele>126.2</ele>
        <time>2022-10-15 16:51:18</time>
      </trkpt>
      <trkpt lat="38.29376" lon="-0.6935">
        <ele>126.2</ele>
        <time>2022-10-15 16:51:19</time>
      </trkpt>
      <trkpt lat="38.29376" lon="-0.6935">
        <ele>126</ele>
        <time>2022-10-15 16:51:20</time>
      </trkpt>
      <trkpt lat="38.29377" lon="-0.69366">
        <ele>126</ele>
        <time>2022-10-15 16:51:21</time>
      </trkpt>
      <trkpt lat="38.29378" lon="-0.69374">
        <ele>126</ele>
        <time>2022-10-15 16:51:22</time>
      </trkpt>
      <trkpt lat="38.29378" lon="-0.694">
        <ele>126</ele>
        <time>2022-10-15 16:51:25</time>
      </trkpt>
      <trkpt lat="38.29378" lon="-0.694">
        <ele>126.2</ele>
        <time>2022-10-15 16:51:26</time>
      </trkpt>
      <trkpt lat="38.29378" lon="-0.69416">
        <ele>126.4</ele>
        <time>2022-10-15 16:51:27</time>
      </trkpt>
      <trkpt lat="38.29377" lon="-0.6944">
        <ele>126.6</ele>
        <time>2022-10-15 16:51:30</time>
      </trkpt>
      <trkpt lat="38.29375" lon="-0.69476">
        <ele>126.6</ele>
        <time>2022-10-15 16:51:35</time>
      </trkpt>
      <trkpt lat="38.29374" lon="-0.69483">
        <ele>126.8</ele>
        <time>2022-10-15 16:51:36</time>
      </trkpt>
      <trkpt lat="38.29374" lon="-0.69489">
        <ele>126.8</ele>
        <time>2022-10-15 16:51:37</time>
      </trkpt>
      <trkpt lat="38.29374" lon="-0.69489">
        <ele>126.8</ele>
        <time>2022-10-15 16:51:38</time>
      </trkpt>
      <trkpt lat="38.29373" lon="-0.69503">
        <ele>126.8</ele>
        <time>2022-10-15 16:51:39</time>
      </trkpt>
      <trkpt lat="38.29373" lon="-0.69509">
        <ele>127</ele>
        <time>2022-10-15 16:51:40</time>
      </trkpt>
      <trkpt lat="38.29373" lon="-0.69516">
        <ele>127</ele>
        <time>2022-10-15 16:51:41</time>
      </trkpt>
      <trkpt lat="38.29372" lon="-0.69523">
        <ele>127</ele>
        <time>2022-10-15 16:51:42</time>
      </trkpt>
      <trkpt lat="38.29371" lon="-0.69529">
        <ele>127</ele>
        <time>2022-10-15 16:51:44</time>
      </trkpt>
      <trkpt lat="38.2937" lon="-0.69542">
        <ele>127.2</ele>
        <time>2022-10-15 16:51:45</time>
      </trkpt>
      <trkpt lat="38.2937" lon="-0.69548">
        <ele>127.4</ele>
        <time>2022-10-15 16:51:46</time>
      </trkpt>
      <trkpt lat="38.29369" lon="-0.69559">
        <ele>127.4</ele>
        <time>2022-10-15 16:51:48</time>
      </trkpt>
      <trkpt lat="38.29368" lon="-0.69564">
        <ele>127.4</ele>
        <time>2022-10-15 16:51:49</time>
      </trkpt>
      <trkpt lat="38.29368" lon="-0.69564">
        <ele>127.6</ele>
        <time>2022-10-15 16:51:50</time>
      </trkpt>
      <trkpt lat="38.29367" lon="-0.69574">
        <ele>127.6</ele>
        <time>2022-10-15 16:51:51</time>
      </trkpt>
      <trkpt lat="38.29367" lon="-0.69579">
        <ele>127.6</ele>
        <time>2022-10-15 16:51:52</time>
      </trkpt>
      <trkpt lat="38.29367" lon="-0.69584">
        <ele>127.8</ele>
        <time>2022-10-15 16:51:53</time>
      </trkpt>
      <trkpt lat="38.29366" lon="-0.69589">
        <ele>128</ele>
        <time>2022-10-15 16:51:54</time>
      </trkpt>
      <trkpt lat="38.29366" lon="-0.69595">
        <ele>128.6</ele>
        <time>2022-10-15 16:51:55</time>
      </trkpt>
      <trkpt lat="38.29365" lon="-0.69606">
        <ele>129.4</ele>
        <time>2022-10-15 16:51:57</time>
      </trkpt>
      <trkpt lat="38.29364" lon="-0.69614">
        <ele>129.6</ele>
        <time>2022-10-15 16:51:58</time>
      </trkpt>
      <trkpt lat="38.29363" lon="-0.69621">
        <ele>129.6</ele>
        <time>2022-10-15 16:51:59</time>
      </trkpt>
      <trkpt lat="38.29362" lon="-0.6963">
        <ele>129.8</ele>
        <time>2022-10-15 16:52:00</time>
      </trkpt>
      <trkpt lat="38.29361" lon="-0.69639">
        <ele>129.8</ele>
        <time>2022-10-15 16:52:01</time>
      </trkpt>
      <trkpt lat="38.29361" lon="-0.69639">
        <ele>129.8</ele>
        <time>2022-10-15 16:52:02</time>
      </trkpt>
      <trkpt lat="38.29357" lon="-0.69656">
        <ele>129.8</ele>
        <time>2022-10-15 16:52:03</time>
      </trkpt>
      <trkpt lat="38.29355" lon="-0.69666">
        <ele>129.8</ele>
        <time>2022-10-15 16:52:04</time>
      </trkpt>
      <trkpt lat="38.29353" lon="-0.69675">
        <ele>129.8</ele>
        <time>2022-10-15 16:52:05</time>
      </trkpt>
      <trkpt lat="38.29351" lon="-0.69685">
        <ele>129.6</ele>
        <time>2022-10-15 16:52:06</time>
      </trkpt>
      <trkpt lat="38.29349" lon="-0.69695">
        <ele>129.2</ele>
        <time>2022-10-15 16:52:07</time>
      </trkpt>
      <trkpt lat="38.29349" lon="-0.69695">
        <ele>128.6</ele>
        <time>2022-10-15 16:52:08</time>
      </trkpt>
      <trkpt lat="38.29341" lon="-0.69727">
        <ele>127.2</ele>
        <time>2022-10-15 16:52:10</time>
      </trkpt>
      <trkpt lat="38.29338" lon="-0.69737">
        <ele>126.8</ele>
        <time>2022-10-15 16:52:11</time>
      </trkpt>
      <trkpt lat="38.29335" lon="-0.69747">
        <ele>126.2</ele>
        <time>2022-10-15 16:52:12</time>
      </trkpt>
      <trkpt lat="38.29332" lon="-0.69756">
        <ele>125.4</ele>
        <time>2022-10-15 16:52:13</time>
      </trkpt>
      <trkpt lat="38.29332" lon="-0.69756">
        <ele>124.8</ele>
        <time>2022-10-15 16:52:14</time>
      </trkpt>
      <trkpt lat="38.29326" lon="-0.69772">
        <ele>123.8</ele>
        <time>2022-10-15 16:52:15</time>
      </trkpt>
      <trkpt lat="38.29323" lon="-0.6978">
        <ele>123</ele>
        <time>2022-10-15 16:52:16</time>
      </trkpt>
      <trkpt lat="38.2932" lon="-0.69788">
        <ele>122.4</ele>
        <time>2022-10-15 16:52:17</time>
      </trkpt>
      <trkpt lat="38.29315" lon="-0.69801">
        <ele>122.2</ele>
        <time>2022-10-15 16:52:19</time>
      </trkpt>
      <trkpt lat="38.29315" lon="-0.69801">
        <ele>122</ele>
        <time>2022-10-15 16:52:20</time>
      </trkpt>
      <trkpt lat="38.2931" lon="-0.69813">
        <ele>122</ele>
        <time>2022-10-15 16:52:21</time>
      </trkpt>
      <trkpt lat="38.29308" lon="-0.69818">
        <ele>122</ele>
        <time>2022-10-15 16:52:22</time>
      </trkpt>
      <trkpt lat="38.29306" lon="-0.69824">
        <ele>122</ele>
        <time>2022-10-15 16:52:23</time>
      </trkpt>
      <trkpt lat="38.29304" lon="-0.6983">
        <ele>122</ele>
        <time>2022-10-15 16:52:24</time>
      </trkpt>
      <trkpt lat="38.29302" lon="-0.69836">
        <ele>122</ele>
        <time>2022-10-15 16:52:25</time>
      </trkpt>
      <trkpt lat="38.29302" lon="-0.69836">
        <ele>122</ele>
        <time>2022-10-15 16:52:26</time>
      </trkpt>
      <trkpt lat="38.29296" lon="-0.69854">
        <ele>123.4</ele>
        <time>2022-10-15 16:52:28</time>
      </trkpt>
      <trkpt lat="38.29294" lon="-0.6986">
        <ele>124</ele>
        <time>2022-10-15 16:52:29</time>
      </trkpt>
      <trkpt lat="38.29292" lon="-0.69866">
        <ele>124.4</ele>
        <time>2022-10-15 16:52:30</time>
      </trkpt>
      <trkpt lat="38.2929" lon="-0.69873">
        <ele>124.6</ele>
        <time>2022-10-15 16:52:31</time>
      </trkpt>
      <trkpt lat="38.2929" lon="-0.69873">
        <ele>124.8</ele>
        <time>2022-10-15 16:52:32</time>
      </trkpt>
      <trkpt lat="38.29287" lon="-0.69885">
        <ele>125</ele>
        <time>2022-10-15 16:52:33</time>
      </trkpt>
      <trkpt lat="38.29285" lon="-0.69892">
        <ele>125</ele>
        <time>2022-10-15 16:52:34</time>
      </trkpt>
      <trkpt lat="38.29283" lon="-0.69898">
        <ele>125</ele>
        <time>2022-10-15 16:52:35</time>
      </trkpt>
      <trkpt lat="38.29282" lon="-0.69905">
        <ele>125.2</ele>
        <time>2022-10-15 16:52:36</time>
      </trkpt>
      <trkpt lat="38.2928" lon="-0.69911">
        <ele>125.2</ele>
        <time>2022-10-15 16:52:37</time>
      </trkpt>
      <trkpt lat="38.2928" lon="-0.69911">
        <ele>125.4</ele>
        <time>2022-10-15 16:52:38</time>
      </trkpt>
      <trkpt lat="38.29277" lon="-0.69923">
        <ele>125.4</ele>
        <time>2022-10-15 16:52:39</time>
      </trkpt>
      <trkpt lat="38.29275" lon="-0.69929">
        <ele>125.6</ele>
        <time>2022-10-15 16:52:40</time>
      </trkpt>
      <trkpt lat="38.29273" lon="-0.69941">
        <ele>125.8</ele>
        <time>2022-10-15 16:52:42</time>
      </trkpt>
      <trkpt lat="38.29272" lon="-0.69948">
        <ele>125.8</ele>
        <time>2022-10-15 16:52:43</time>
      </trkpt>
      <trkpt lat="38.29272" lon="-0.69948">
        <ele>126.2</ele>
        <time>2022-10-15 16:52:44</time>
      </trkpt>
      <trkpt lat="38.29269" lon="-0.6996">
        <ele>126.4</ele>
        <time>2022-10-15 16:52:45</time>
      </trkpt>
      <trkpt lat="38.29267" lon="-0.69972">
        <ele>127</ele>
        <time>2022-10-15 16:52:47</time>
      </trkpt>
      <trkpt lat="38.29266" lon="-0.69978">
        <ele>127.4</ele>
        <time>2022-10-15 16:52:48</time>
      </trkpt>
      <trkpt lat="38.29265" lon="-0.69984">
        <ele>127.6</ele>
        <time>2022-10-15 16:52:49</time>
      </trkpt>
      <trkpt lat="38.29265" lon="-0.69984">
        <ele>127.6</ele>
        <time>2022-10-15 16:52:50</time>
      </trkpt>
      <trkpt lat="38.29263" lon="-0.69995">
        <ele>127.8</ele>
        <time>2022-10-15 16:52:51</time>
      </trkpt>
      <trkpt lat="38.29262" lon="-0.7">
        <ele>127.8</ele>
        <time>2022-10-15 16:52:52</time>
      </trkpt>
      <trkpt lat="38.29261" lon="-0.70005">
        <ele>127.8</ele>
        <time>2022-10-15 16:52:53</time>
      </trkpt>
      <trkpt lat="38.29261" lon="-0.7001">
        <ele>128</ele>
        <time>2022-10-15 16:52:54</time>
      </trkpt>
      <trkpt lat="38.2926" lon="-0.70014">
        <ele>128</ele>
        <time>2022-10-15 16:52:56</time>
      </trkpt>
      <trkpt lat="38.29257" lon="-0.70024">
        <ele>128</ele>
        <time>2022-10-15 16:52:57</time>
      </trkpt>
      <trkpt lat="38.29255" lon="-0.70028">
        <ele>128.2</ele>
        <time>2022-10-15 16:52:58</time>
      </trkpt>
      <trkpt lat="38.29252" lon="-0.70031">
        <ele>128.4</ele>
        <time>2022-10-15 16:52:59</time>
      </trkpt>
      <trkpt lat="38.29248" lon="-0.70033">
        <ele>128.4</ele>
        <time>2022-10-15 16:53:00</time>
      </trkpt>
      <trkpt lat="38.29244" lon="-0.70034">
        <ele>128.4</ele>
        <time>2022-10-15 16:53:01</time>
      </trkpt>
      <trkpt lat="38.29244" lon="-0.70034">
        <ele>128.4</ele>
        <time>2022-10-15 16:53:02</time>
      </trkpt>
      <trkpt lat="38.29235" lon="-0.70033">
        <ele>128.4</ele>
        <time>2022-10-15 16:53:03</time>
      </trkpt>
      <trkpt lat="38.29231" lon="-0.70031">
        <ele>128.4</ele>
        <time>2022-10-15 16:53:04</time>
      </trkpt>
      <trkpt lat="38.29227" lon="-0.7003">
        <ele>128.4</ele>
        <time>2022-10-15 16:53:05</time>
      </trkpt>
      <trkpt lat="38.29222" lon="-0.70028">
        <ele>128.4</ele>
        <time>2022-10-15 16:53:06</time>
      </trkpt>
      <trkpt lat="38.29218" lon="-0.70027">
        <ele>128.4</ele>
        <time>2022-10-15 16:53:07</time>
      </trkpt>
      <trkpt lat="38.29218" lon="-0.70027">
        <ele>128.4</ele>
        <time>2022-10-15 16:53:08</time>
      </trkpt>
      <trkpt lat="38.29204" lon="-0.70023">
        <ele>128.2</ele>
        <time>2022-10-15 16:53:10</time>
      </trkpt>
      <trkpt lat="38.29199" lon="-0.70022">
        <ele>128</ele>
        <time>2022-10-15 16:53:11</time>
      </trkpt>
      <trkpt lat="38.29194" lon="-0.7002">
        <ele>128</ele>
        <time>2022-10-15 16:53:12</time>
      </trkpt>
      <trkpt lat="38.29189" lon="-0.70019">
        <ele>127.8</ele>
        <time>2022-10-15 16:53:13</time>
      </trkpt>
      <trkpt lat="38.29179" lon="-0.7002">
        <ele>127.6</ele>
        <time>2022-10-15 16:53:15</time>
      </trkpt>
      <trkpt lat="38.29173" lon="-0.70022">
        <ele>127.6</ele>
        <time>2022-10-15 16:53:16</time>
      </trkpt>
      <trkpt lat="38.29169" lon="-0.70025">
        <ele>127.6</ele>
        <time>2022-10-15 16:53:17</time>
      </trkpt>
      <trkpt lat="38.29165" lon="-0.7003">
        <ele>127.4</ele>
        <time>2022-10-15 16:53:18</time>
      </trkpt>
      <trkpt lat="38.29161" lon="-0.70035">
        <ele>127.4</ele>
        <time>2022-10-15 16:53:19</time>
      </trkpt>
      <trkpt lat="38.29161" lon="-0.70035">
        <ele>127.4</ele>
        <time>2022-10-15 16:53:20</time>
      </trkpt>
      <trkpt lat="38.29154" lon="-0.70047">
        <ele>127.4</ele>
        <time>2022-10-15 16:53:21</time>
      </trkpt>
      <trkpt lat="38.29149" lon="-0.70051">
        <ele>127.2</ele>
        <time>2022-10-15 16:53:22</time>
      </trkpt>
      <trkpt lat="38.29144" lon="-0.70053">
        <ele>127.2</ele>
        <time>2022-10-15 16:53:23</time>
      </trkpt>
      <trkpt lat="38.29138" lon="-0.70052">
        <ele>127.2</ele>
        <time>2022-10-15 16:53:24</time>
      </trkpt>
      <trkpt lat="38.29132" lon="-0.70052">
        <ele>126.8</ele>
        <time>2022-10-15 16:53:26</time>
      </trkpt>
      <trkpt lat="38.29119" lon="-0.70054">
        <ele>126.6</ele>
        <time>2022-10-15 16:53:27</time>
      </trkpt>
      <trkpt lat="38.29113" lon="-0.70053">
        <ele>126.4</ele>
        <time>2022-10-15 16:53:28</time>
      </trkpt>
      <trkpt lat="38.29107" lon="-0.70051">
        <ele>125.8</ele>
        <time>2022-10-15 16:53:29</time>
      </trkpt>
      <trkpt lat="38.29101" lon="-0.70049">
        <ele>125.4</ele>
        <time>2022-10-15 16:53:30</time>
      </trkpt>
      <trkpt lat="38.29095" lon="-0.70047">
        <ele>124.8</ele>
        <time>2022-10-15 16:53:31</time>
      </trkpt>
      <trkpt lat="38.29095" lon="-0.70047">
        <ele>124.6</ele>
        <time>2022-10-15 16:53:32</time>
      </trkpt>
      <trkpt lat="38.29082" lon="-0.70047">
        <ele>124.2</ele>
        <time>2022-10-15 16:53:33</time>
      </trkpt>
      <trkpt lat="38.29076" lon="-0.70047">
        <ele>123.6</ele>
        <time>2022-10-15 16:53:34</time>
      </trkpt>
      <trkpt lat="38.2907" lon="-0.70046">
        <ele>123.2</ele>
        <time>2022-10-15 16:53:35</time>
      </trkpt>
      <trkpt lat="38.29064" lon="-0.70043">
        <ele>122.8</ele>
        <time>2022-10-15 16:53:36</time>
      </trkpt>
      <trkpt lat="38.29058" lon="-0.7004">
        <ele>121.8</ele>
        <time>2022-10-15 16:53:37</time>
      </trkpt>
      <trkpt lat="38.29058" lon="-0.7004">
        <ele>121.4</ele>
        <time>2022-10-15 16:53:38</time>
      </trkpt>
      <trkpt lat="38.29047" lon="-0.70034">
        <ele>121.2</ele>
        <time>2022-10-15 16:53:39</time>
      </trkpt>
      <trkpt lat="38.29041" lon="-0.70034">
        <ele>121</ele>
        <time>2022-10-15 16:53:40</time>
      </trkpt>
      <trkpt lat="38.29035" lon="-0.70036">
        <ele>121</ele>
        <time>2022-10-15 16:53:41</time>
      </trkpt>
      <trkpt lat="38.29029" lon="-0.70037">
        <ele>120.8</ele>
        <time>2022-10-15 16:53:42</time>
      </trkpt>
      <trkpt lat="38.29023" lon="-0.70037">
        <ele>120.4</ele>
        <time>2022-10-15 16:53:43</time>
      </trkpt>
      <trkpt lat="38.29023" lon="-0.70037">
        <ele>120</ele>
        <time>2022-10-15 16:53:44</time>
      </trkpt>
      <trkpt lat="38.29011" lon="-0.70034">
        <ele>119.6</ele>
        <time>2022-10-15 16:53:45</time>
      </trkpt>
      <trkpt lat="38.29006" lon="-0.70031">
        <ele>119.4</ele>
        <time>2022-10-15 16:53:46</time>
      </trkpt>
      <trkpt lat="38.29" lon="-0.70029">
        <ele>119</ele>
        <time>2022-10-15 16:53:47</time>
      </trkpt>
      <trkpt lat="38.28993" lon="-0.70028">
        <ele>118.6</ele>
        <time>2022-10-15 16:53:48</time>
      </trkpt>
      <trkpt lat="38.28987" lon="-0.70028">
        <ele>118.2</ele>
        <time>2022-10-15 16:53:49</time>
      </trkpt>
      <trkpt lat="38.28987" lon="-0.70028">
        <ele>117.8</ele>
        <time>2022-10-15 16:53:50</time>
      </trkpt>
      <trkpt lat="38.28976" lon="-0.70027">
        <ele>117.6</ele>
        <time>2022-10-15 16:53:51</time>
      </trkpt>
      <trkpt lat="38.2897" lon="-0.70027">
        <ele>117.8</ele>
        <time>2022-10-15 16:53:52</time>
      </trkpt>
      <trkpt lat="38.28965" lon="-0.70026">
        <ele>117.6</ele>
        <time>2022-10-15 16:53:53</time>
      </trkpt>
      <trkpt lat="38.28959" lon="-0.70026">
        <ele>117.4</ele>
        <time>2022-10-15 16:53:54</time>
      </trkpt>
      <trkpt lat="38.28955" lon="-0.70026">
        <ele>117.4</ele>
        <time>2022-10-15 16:53:55</time>
      </trkpt>
      <trkpt lat="38.28955" lon="-0.70026">
        <ele>117.2</ele>
        <time>2022-10-15 16:53:56</time>
      </trkpt>
      <trkpt lat="38.28943" lon="-0.70026">
        <ele>117</ele>
        <time>2022-10-15 16:53:57</time>
      </trkpt>
      <trkpt lat="38.28937" lon="-0.70023">
        <ele>116.8</ele>
        <time>2022-10-15 16:53:58</time>
      </trkpt>
      <trkpt lat="38.28927" lon="-0.70015">
        <ele>116.8</ele>
        <time>2022-10-15 16:54:00</time>
      </trkpt>
      <trkpt lat="38.28922" lon="-0.70012">
        <ele>116.8</ele>
        <time>2022-10-15 16:54:01</time>
      </trkpt>
      <trkpt lat="38.28922" lon="-0.70012">
        <ele>116.6</ele>
        <time>2022-10-15 16:54:02</time>
      </trkpt>
      <trkpt lat="38.28911" lon="-0.70009">
        <ele>116.6</ele>
        <time>2022-10-15 16:54:03</time>
      </trkpt>
      <trkpt lat="38.28906" lon="-0.70009">
        <ele>116.6</ele>
        <time>2022-10-15 16:54:04</time>
      </trkpt>
      <trkpt lat="38.28902" lon="-0.70009">
        <ele>115</ele>
        <time>2022-10-15 16:54:05</time>
      </trkpt>
      <trkpt lat="38.289" lon="-0.70007">
        <ele>114.4</ele>
        <time>2022-10-15 16:54:06</time>
      </trkpt>
      <trkpt lat="38.28899" lon="-0.70003">
        <ele>114.2</ele>
        <time>2022-10-15 16:54:07</time>
      </trkpt>
      <trkpt lat="38.28899" lon="-0.70003">
        <ele>113.8</ele>
        <time>2022-10-15 16:54:08</time>
      </trkpt>
      <trkpt lat="38.28897" lon="-0.69989">
        <ele>113.2</ele>
        <time>2022-10-15 16:54:10</time>
      </trkpt>
      <trkpt lat="38.28893" lon="-0.69987">
        <ele>112.8</ele>
        <time>2022-10-15 16:54:11</time>
      </trkpt>
      <trkpt lat="38.28888" lon="-0.69985">
        <ele>112.6</ele>
        <time>2022-10-15 16:54:12</time>
      </trkpt>
      <trkpt lat="38.28884" lon="-0.69982">
        <ele>112.4</ele>
        <time>2022-10-15 16:54:13</time>
      </trkpt>
      <trkpt lat="38.28884" lon="-0.69982">
        <ele>112.2</ele>
        <time>2022-10-15 16:54:14</time>
      </trkpt>
      <trkpt lat="38.28874" lon="-0.69976">
        <ele>112</ele>
        <time>2022-10-15 16:54:15</time>
      </trkpt>
      <trkpt lat="38.28869" lon="-0.69974">
        <ele>112</ele>
        <time>2022-10-15 16:54:16</time>
      </trkpt>
      <trkpt lat="38.28865" lon="-0.69971">
        <ele>111.8</ele>
        <time>2022-10-15 16:54:17</time>
      </trkpt>
      <trkpt lat="38.28862" lon="-0.69967">
        <ele>111.8</ele>
        <time>2022-10-15 16:54:18</time>
      </trkpt>
      <trkpt lat="38.2886" lon="-0.69962">
        <ele>111.6</ele>
        <time>2022-10-15 16:54:19</time>
      </trkpt>
      <trkpt lat="38.2886" lon="-0.69962">
        <ele>111.6</ele>
        <time>2022-10-15 16:54:20</time>
      </trkpt>
      <trkpt lat="38.28853" lon="-0.69951">
        <ele>111.6</ele>
        <time>2022-10-15 16:54:21</time>
      </trkpt>
      <trkpt lat="38.28851" lon="-0.69945">
        <ele>111.4</ele>
        <time>2022-10-15 16:54:22</time>
      </trkpt>
      <trkpt lat="38.2885" lon="-0.69939">
        <ele>111.4</ele>
        <time>2022-10-15 16:54:23</time>
      </trkpt>
      <trkpt lat="38.28848" lon="-0.69933">
        <ele>111.2</ele>
        <time>2022-10-15 16:54:24</time>
      </trkpt>
      <trkpt lat="38.28846" lon="-0.69926">
        <ele>111</ele>
        <time>2022-10-15 16:54:25</time>
      </trkpt>
      <trkpt lat="38.28846" lon="-0.69926">
        <ele>111</ele>
        <time>2022-10-15 16:54:26</time>
      </trkpt>
      <trkpt lat="38.2884" lon="-0.69914">
        <ele>110.8</ele>
        <time>2022-10-15 16:54:27</time>
      </trkpt>
      <trkpt lat="38.28838" lon="-0.69907">
        <ele>110.6</ele>
        <time>2022-10-15 16:54:28</time>
      </trkpt>
      <trkpt lat="38.28837" lon="-0.699">
        <ele>110.4</ele>
        <time>2022-10-15 16:54:29</time>
      </trkpt>
      <trkpt lat="38.28834" lon="-0.69894">
        <ele>110.2</ele>
        <time>2022-10-15 16:54:30</time>
      </trkpt>
      <trkpt lat="38.2883" lon="-0.69889">
        <ele>110.2</ele>
        <time>2022-10-15 16:54:31</time>
      </trkpt>
      <trkpt lat="38.2883" lon="-0.69889">
        <ele>110.2</ele>
        <time>2022-10-15 16:54:32</time>
      </trkpt>
      <trkpt lat="38.28819" lon="-0.69882">
        <ele>108.6</ele>
        <time>2022-10-15 16:54:33</time>
      </trkpt>
      <trkpt lat="38.28813" lon="-0.69879">
        <ele>108.4</ele>
        <time>2022-10-15 16:54:34</time>
      </trkpt>
      <trkpt lat="38.28807" lon="-0.69877">
        <ele>108</ele>
        <time>2022-10-15 16:54:35</time>
      </trkpt>
      <trkpt lat="38.288" lon="-0.69877">
        <ele>107.8</ele>
        <time>2022-10-15 16:54:36</time>
      </trkpt>
      <trkpt lat="38.28794" lon="-0.69877">
        <ele>107.4</ele>
        <time>2022-10-15 16:54:37</time>
      </trkpt>
      <trkpt lat="38.28794" lon="-0.69877">
        <ele>107</ele>
        <time>2022-10-15 16:54:38</time>
      </trkpt>
      <trkpt lat="38.28782" lon="-0.6988">
        <ele>106.2</ele>
        <time>2022-10-15 16:54:39</time>
      </trkpt>
      <trkpt lat="38.28775" lon="-0.69881">
        <ele>105.8</ele>
        <time>2022-10-15 16:54:40</time>
      </trkpt>
      <trkpt lat="38.28763" lon="-0.69882">
        <ele>105</ele>
        <time>2022-10-15 16:54:42</time>
      </trkpt>
      <trkpt lat="38.28757" lon="-0.69881">
        <ele>104.6</ele>
        <time>2022-10-15 16:54:43</time>
      </trkpt>
      <trkpt lat="38.28757" lon="-0.69881">
        <ele>104.4</ele>
        <time>2022-10-15 16:54:44</time>
      </trkpt>
      <trkpt lat="38.28736" lon="-0.69878">
        <ele>104.2</ele>
        <time>2022-10-15 16:54:46</time>
      </trkpt>
      <trkpt lat="38.28729" lon="-0.69877">
        <ele>104</ele>
        <time>2022-10-15 16:54:47</time>
      </trkpt>
      <trkpt lat="38.28722" lon="-0.69876">
        <ele>104</ele>
        <time>2022-10-15 16:54:48</time>
      </trkpt>
      <trkpt lat="38.28715" lon="-0.69874">
        <ele>104</ele>
        <time>2022-10-15 16:54:49</time>
      </trkpt>
      <trkpt lat="38.28715" lon="-0.69874">
        <ele>104</ele>
        <time>2022-10-15 16:54:50</time>
      </trkpt>
      <trkpt lat="38.28704" lon="-0.69869">
        <ele>104</ele>
        <time>2022-10-15 16:54:51</time>
      </trkpt>
      <trkpt lat="38.28698" lon="-0.69866">
        <ele>103.8</ele>
        <time>2022-10-15 16:54:52</time>
      </trkpt>
      <trkpt lat="38.28692" lon="-0.69866">
        <ele>103.6</ele>
        <time>2022-10-15 16:54:53</time>
      </trkpt>
      <trkpt lat="38.28686" lon="-0.69867">
        <ele>102.8</ele>
        <time>2022-10-15 16:54:54</time>
      </trkpt>
      <trkpt lat="38.28679" lon="-0.69869">
        <ele>102.4</ele>
        <time>2022-10-15 16:54:55</time>
      </trkpt>
      <trkpt lat="38.28679" lon="-0.69869">
        <ele>102</ele>
        <time>2022-10-15 16:54:56</time>
      </trkpt>
      <trkpt lat="38.28666" lon="-0.69868">
        <ele>101.8</ele>
        <time>2022-10-15 16:54:57</time>
      </trkpt>
      <trkpt lat="38.28659" lon="-0.69867">
        <ele>101.6</ele>
        <time>2022-10-15 16:54:58</time>
      </trkpt>
      <trkpt lat="38.28652" lon="-0.69865">
        <ele>101.2</ele>
        <time>2022-10-15 16:54:59</time>
      </trkpt>
      <trkpt lat="38.28646" lon="-0.69863">
        <ele>101</ele>
        <time>2022-10-15 16:55:00</time>
      </trkpt>
      <trkpt lat="38.28639" lon="-0.69861">
        <ele>100</ele>
        <time>2022-10-15 16:55:01</time>
      </trkpt>
      <trkpt lat="38.28639" lon="-0.69861">
        <ele>99.4</ele>
        <time>2022-10-15 16:55:02</time>
      </trkpt>
      <trkpt lat="38.28626" lon="-0.69858">
        <ele>99</ele>
        <time>2022-10-15 16:55:03</time>
      </trkpt>
      <trkpt lat="38.28619" lon="-0.69857">
        <ele>98.6</ele>
        <time>2022-10-15 16:55:04</time>
      </trkpt>
      <trkpt lat="38.28613" lon="-0.69857">
        <ele>98.4</ele>
        <time>2022-10-15 16:55:05</time>
      </trkpt>
      <trkpt lat="38.28607" lon="-0.69856">
        <ele>98.4</ele>
        <time>2022-10-15 16:55:06</time>
      </trkpt>
      <trkpt lat="38.286" lon="-0.69857">
        <ele>98.2</ele>
        <time>2022-10-15 16:55:07</time>
      </trkpt>
      <trkpt lat="38.286" lon="-0.69857">
        <ele>98.2</ele>
        <time>2022-10-15 16:55:08</time>
      </trkpt>
      <trkpt lat="38.28589" lon="-0.69859">
        <ele>98</ele>
        <time>2022-10-15 16:55:09</time>
      </trkpt>
      <trkpt lat="38.28584" lon="-0.69861">
        <ele>98</ele>
        <time>2022-10-15 16:55:10</time>
      </trkpt>
      <trkpt lat="38.28581" lon="-0.69864">
        <ele>98</ele>
        <time>2022-10-15 16:55:11</time>
      </trkpt>
      <trkpt lat="38.28579" lon="-0.69867">
        <ele>97.8</ele>
        <time>2022-10-15 16:55:12</time>
      </trkpt>
      <trkpt lat="38.28577" lon="-0.69869">
        <ele>97.6</ele>
        <time>2022-10-15 16:55:13</time>
      </trkpt>
      <trkpt lat="38.28577" lon="-0.69869">
        <ele>97.4</ele>
        <time>2022-10-15 16:55:14</time>
      </trkpt>
      <trkpt lat="38.28568" lon="-0.69872">
        <ele>97.4</ele>
        <time>2022-10-15 16:55:15</time>
      </trkpt>
      <trkpt lat="38.28562" lon="-0.69873">
        <ele>97.2</ele>
        <time>2022-10-15 16:55:16</time>
      </trkpt>
      <trkpt lat="38.28556" lon="-0.69871">
        <ele>97</ele>
        <time>2022-10-15 16:55:17</time>
      </trkpt>
      <trkpt lat="38.2855" lon="-0.69868">
        <ele>96.8</ele>
        <time>2022-10-15 16:55:18</time>
      </trkpt>
      <trkpt lat="38.28544" lon="-0.69867">
        <ele>96.4</ele>
        <time>2022-10-15 16:55:20</time>
      </trkpt>
      <trkpt lat="38.28532" lon="-0.69866">
        <ele>96.4</ele>
        <time>2022-10-15 16:55:21</time>
      </trkpt>
      <trkpt lat="38.28526" lon="-0.69865">
        <ele>96.2</ele>
        <time>2022-10-15 16:55:22</time>
      </trkpt>
      <trkpt lat="38.28521" lon="-0.69864">
        <ele>96.2</ele>
        <time>2022-10-15 16:55:23</time>
      </trkpt>
      <trkpt lat="38.28515" lon="-0.69865">
        <ele>96</ele>
        <time>2022-10-15 16:55:24</time>
      </trkpt>
      <trkpt lat="38.28511" lon="-0.69867">
        <ele>95.8</ele>
        <time>2022-10-15 16:55:25</time>
      </trkpt>
      <trkpt lat="38.28511" lon="-0.69867">
        <ele>95.8</ele>
        <time>2022-10-15 16:55:26</time>
      </trkpt>
      <trkpt lat="38.28503" lon="-0.69872">
        <ele>95.6</ele>
        <time>2022-10-15 16:55:27</time>
      </trkpt>
      <trkpt lat="38.28499" lon="-0.69874">
        <ele>95.4</ele>
        <time>2022-10-15 16:55:28</time>
      </trkpt>
      <trkpt lat="38.28494" lon="-0.69873">
        <ele>95.2</ele>
        <time>2022-10-15 16:55:29</time>
      </trkpt>
      <trkpt lat="38.2849" lon="-0.69872">
        <ele>95.2</ele>
        <time>2022-10-15 16:55:30</time>
      </trkpt>
      <trkpt lat="38.28486" lon="-0.6987">
        <ele>95.2</ele>
        <time>2022-10-15 16:55:31</time>
      </trkpt>
      <trkpt lat="38.28486" lon="-0.6987">
        <ele>95.2</ele>
        <time>2022-10-15 16:55:32</time>
      </trkpt>
      <trkpt lat="38.28478" lon="-0.69865">
        <ele>95.2</ele>
        <time>2022-10-15 16:55:33</time>
      </trkpt>
      <trkpt lat="38.28473" lon="-0.69863">
        <ele>95.2</ele>
        <time>2022-10-15 16:55:34</time>
      </trkpt>
      <trkpt lat="38.28469" lon="-0.69861">
        <ele>95.2</ele>
        <time>2022-10-15 16:55:35</time>
      </trkpt>
      <trkpt lat="38.2846" lon="-0.69858">
        <ele>95.4</ele>
        <time>2022-10-15 16:55:37</time>
      </trkpt>
      <trkpt lat="38.2846" lon="-0.69858">
        <ele>95.8</ele>
        <time>2022-10-15 16:55:38</time>
      </trkpt>
      <trkpt lat="38.28452" lon="-0.69855">
        <ele>96</ele>
        <time>2022-10-15 16:55:39</time>
      </trkpt>
      <trkpt lat="38.28444" lon="-0.69852">
        <ele>96.4</ele>
        <time>2022-10-15 16:55:41</time>
      </trkpt>
      <trkpt lat="38.28439" lon="-0.69851">
        <ele>96.6</ele>
        <time>2022-10-15 16:55:42</time>
      </trkpt>
      <trkpt lat="38.28435" lon="-0.69849">
        <ele>97</ele>
        <time>2022-10-15 16:55:43</time>
      </trkpt>
      <trkpt lat="38.28435" lon="-0.69849">
        <ele>97.4</ele>
        <time>2022-10-15 16:55:44</time>
      </trkpt>
      <trkpt lat="38.28425" lon="-0.69846">
        <ele>97.8</ele>
        <time>2022-10-15 16:55:45</time>
      </trkpt>
      <trkpt lat="38.28421" lon="-0.69844">
        <ele>98.2</ele>
        <time>2022-10-15 16:55:46</time>
      </trkpt>
      <trkpt lat="38.28416" lon="-0.69843">
        <ele>98.6</ele>
        <time>2022-10-15 16:55:47</time>
      </trkpt>
      <trkpt lat="38.28411" lon="-0.69841">
        <ele>98.8</ele>
        <time>2022-10-15 16:55:48</time>
      </trkpt>
      <trkpt lat="38.28406" lon="-0.69838">
        <ele>99.2</ele>
        <time>2022-10-15 16:55:49</time>
      </trkpt>
      <trkpt lat="38.28406" lon="-0.69838">
        <ele>99.6</ele>
        <time>2022-10-15 16:55:50</time>
      </trkpt>
      <trkpt lat="38.28393" lon="-0.6983">
        <ele>99.8</ele>
        <time>2022-10-15 16:55:52</time>
      </trkpt>
      <trkpt lat="38.28389" lon="-0.69827">
        <ele>100</ele>
        <time>2022-10-15 16:55:53</time>
      </trkpt>
      <trkpt lat="38.28385" lon="-0.69824">
        <ele>100</ele>
        <time>2022-10-15 16:55:54</time>
      </trkpt>
      <trkpt lat="38.28381" lon="-0.6982">
        <ele>100</ele>
        <time>2022-10-15 16:55:55</time>
      </trkpt>
      <trkpt lat="38.28381" lon="-0.6982">
        <ele>100</ele>
        <time>2022-10-15 16:55:56</time>
      </trkpt>
      <trkpt lat="38.28375" lon="-0.69813">
        <ele>100</ele>
        <time>2022-10-15 16:55:57</time>
      </trkpt>
      <trkpt lat="38.28372" lon="-0.69809">
        <ele>100</ele>
        <time>2022-10-15 16:55:58</time>
      </trkpt>
      <trkpt lat="38.28369" lon="-0.69808">
        <ele>100</ele>
        <time>2022-10-15 16:55:59</time>
      </trkpt>
      <trkpt lat="38.28366" lon="-0.69809">
        <ele>100.2</ele>
        <time>2022-10-15 16:56:00</time>
      </trkpt>
      <trkpt lat="38.28364" lon="-0.69812">
        <ele>100.2</ele>
        <time>2022-10-15 16:56:01</time>
      </trkpt>
      <trkpt lat="38.28364" lon="-0.69812">
        <ele>100</ele>
        <time>2022-10-15 16:56:02</time>
      </trkpt>
      <trkpt lat="38.28357" lon="-0.69817">
        <ele>100</ele>
        <time>2022-10-15 16:56:03</time>
      </trkpt>
      <trkpt lat="38.28353" lon="-0.69819">
        <ele>100</ele>
        <time>2022-10-15 16:56:04</time>
      </trkpt>
      <trkpt lat="38.28349" lon="-0.69821">
        <ele>100</ele>
        <time>2022-10-15 16:56:05</time>
      </trkpt>
      <trkpt lat="38.2834" lon="-0.69824">
        <ele>99.8</ele>
        <time>2022-10-15 16:56:07</time>
      </trkpt>
      <trkpt lat="38.2834" lon="-0.69824">
        <ele>99.8</ele>
        <time>2022-10-15 16:56:08</time>
      </trkpt>
      <trkpt lat="38.28331" lon="-0.69826">
        <ele>99.6</ele>
        <time>2022-10-15 16:56:09</time>
      </trkpt>
      <trkpt lat="38.28326" lon="-0.69827">
        <ele>99.6</ele>
        <time>2022-10-15 16:56:10</time>
      </trkpt>
      <trkpt lat="38.28321" lon="-0.69829">
        <ele>99.6</ele>
        <time>2022-10-15 16:56:11</time>
      </trkpt>
      <trkpt lat="38.28317" lon="-0.69832">
        <ele>99.6</ele>
        <time>2022-10-15 16:56:12</time>
      </trkpt>
      <trkpt lat="38.28312" lon="-0.69835">
        <ele>99.6</ele>
        <time>2022-10-15 16:56:13</time>
      </trkpt>
      <trkpt lat="38.28312" lon="-0.69835">
        <ele>99.4</ele>
        <time>2022-10-15 16:56:14</time>
      </trkpt>
      <trkpt lat="38.28303" lon="-0.69841">
        <ele>99.4</ele>
        <time>2022-10-15 16:56:15</time>
      </trkpt>
      <trkpt lat="38.28293" lon="-0.69847">
        <ele>99</ele>
        <time>2022-10-15 16:56:17</time>
      </trkpt>
      <trkpt lat="38.28289" lon="-0.69851">
        <ele>98.8</ele>
        <time>2022-10-15 16:56:18</time>
      </trkpt>
      <trkpt lat="38.28284" lon="-0.69855">
        <ele>98.8</ele>
        <time>2022-10-15 16:56:19</time>
      </trkpt>
      <trkpt lat="38.28284" lon="-0.69855">
        <ele>98.6</ele>
        <time>2022-10-15 16:56:20</time>
      </trkpt>
      <trkpt lat="38.28274" lon="-0.69861">
        <ele>98.6</ele>
        <time>2022-10-15 16:56:21</time>
      </trkpt>
      <trkpt lat="38.28269" lon="-0.69862">
        <ele>98.6</ele>
        <time>2022-10-15 16:56:22</time>
      </trkpt>
      <trkpt lat="38.28263" lon="-0.69863">
        <ele>98.6</ele>
        <time>2022-10-15 16:56:23</time>
      </trkpt>
      <trkpt lat="38.28258" lon="-0.69865">
        <ele>98.6</ele>
        <time>2022-10-15 16:56:24</time>
      </trkpt>
      <trkpt lat="38.28253" lon="-0.69867">
        <ele>98.4</ele>
        <time>2022-10-15 16:56:25</time>
      </trkpt>
      <trkpt lat="38.28242" lon="-0.69871">
        <ele>98.2</ele>
        <time>2022-10-15 16:56:27</time>
      </trkpt>
      <trkpt lat="38.28237" lon="-0.69873">
        <ele>98.2</ele>
        <time>2022-10-15 16:56:28</time>
      </trkpt>
      <trkpt lat="38.28232" lon="-0.69875">
        <ele>98</ele>
        <time>2022-10-15 16:56:29</time>
      </trkpt>
      <trkpt lat="38.28226" lon="-0.69876">
        <ele>97.8</ele>
        <time>2022-10-15 16:56:30</time>
      </trkpt>
      <trkpt lat="38.28221" lon="-0.69877">
        <ele>97.6</ele>
        <time>2022-10-15 16:56:31</time>
      </trkpt>
      <trkpt lat="38.28221" lon="-0.69877">
        <ele>97.6</ele>
        <time>2022-10-15 16:56:32</time>
      </trkpt>
      <trkpt lat="38.28211" lon="-0.69877">
        <ele>97.6</ele>
        <time>2022-10-15 16:56:33</time>
      </trkpt>
      <trkpt lat="38.28205" lon="-0.69878">
        <ele>97.6</ele>
        <time>2022-10-15 16:56:34</time>
      </trkpt>
      <trkpt lat="38.28201" lon="-0.69879">
        <ele>97.6</ele>
        <time>2022-10-15 16:56:35</time>
      </trkpt>
      <trkpt lat="38.28196" lon="-0.69881">
        <ele>97.4</ele>
        <time>2022-10-15 16:56:36</time>
      </trkpt>
      <trkpt lat="38.28193" lon="-0.69884">
        <ele>97.4</ele>
        <time>2022-10-15 16:56:37</time>
      </trkpt>
      <trkpt lat="38.28193" lon="-0.69884">
        <ele>97.4</ele>
        <time>2022-10-15 16:56:38</time>
      </trkpt>
      <trkpt lat="38.28189" lon="-0.69894">
        <ele>97.4</ele>
        <time>2022-10-15 16:56:39</time>
      </trkpt>
      <trkpt lat="38.2819" lon="-0.69906">
        <ele>97.4</ele>
        <time>2022-10-15 16:56:41</time>
      </trkpt>
      <trkpt lat="38.28191" lon="-0.69913">
        <ele>97.4</ele>
        <time>2022-10-15 16:56:42</time>
      </trkpt>
      <trkpt lat="38.28192" lon="-0.69919">
        <ele>97.6</ele>
        <time>2022-10-15 16:56:43</time>
      </trkpt>
      <trkpt lat="38.28192" lon="-0.69919">
        <ele>97.8</ele>
        <time>2022-10-15 16:56:44</time>
      </trkpt>
      <trkpt lat="38.28194" lon="-0.69932">
        <ele>97.8</ele>
        <time>2022-10-15 16:56:45</time>
      </trkpt>
      <trkpt lat="38.28195" lon="-0.69938">
        <ele>98</ele>
        <time>2022-10-15 16:56:46</time>
      </trkpt>
      <trkpt lat="38.28195" lon="-0.69945">
        <ele>98.2</ele>
        <time>2022-10-15 16:56:47</time>
      </trkpt>
      <trkpt lat="38.28196" lon="-0.6995">
        <ele>98.4</ele>
        <time>2022-10-15 16:56:48</time>
      </trkpt>
      <trkpt lat="38.28197" lon="-0.69956">
        <ele>98.4</ele>
        <time>2022-10-15 16:56:49</time>
      </trkpt>
      <trkpt lat="38.28198" lon="-0.69968">
        <ele>98.6</ele>
        <time>2022-10-15 16:56:51</time>
      </trkpt>
      <trkpt lat="38.28198" lon="-0.69973">
        <ele>98.6</ele>
        <time>2022-10-15 16:56:52</time>
      </trkpt>
      <trkpt lat="38.28198" lon="-0.69979">
        <ele>98.6</ele>
        <time>2022-10-15 16:56:53</time>
      </trkpt>
      <trkpt lat="38.28197" lon="-0.69985">
        <ele>98.6</ele>
        <time>2022-10-15 16:56:54</time>
      </trkpt>
      <trkpt lat="38.28195" lon="-0.69989">
        <ele>98.6</ele>
        <time>2022-10-15 16:56:55</time>
      </trkpt>
      <trkpt lat="38.28195" lon="-0.69989">
        <ele>98.6</ele>
        <time>2022-10-15 16:56:56</time>
      </trkpt>
      <trkpt lat="38.28189" lon="-0.69994">
        <ele>98.6</ele>
        <time>2022-10-15 16:56:57</time>
      </trkpt>
      <trkpt lat="38.28185" lon="-0.69994">
        <ele>98.6</ele>
        <time>2022-10-15 16:56:58</time>
      </trkpt>
      <trkpt lat="38.2818" lon="-0.69993">
        <ele>98.6</ele>
        <time>2022-10-15 16:56:59</time>
      </trkpt>
      <trkpt lat="38.2817" lon="-0.69992">
        <ele>98.2</ele>
        <time>2022-10-15 16:57:01</time>
      </trkpt>
      <trkpt lat="38.2817" lon="-0.69992">
        <ele>98</ele>
        <time>2022-10-15 16:57:02</time>
      </trkpt>
      <trkpt lat="38.28164" lon="-0.69998">
        <ele>97.8</ele>
        <time>2022-10-15 16:57:03</time>
      </trkpt>
      <trkpt lat="38.28161" lon="-0.70002">
        <ele>97.6</ele>
        <time>2022-10-15 16:57:04</time>
      </trkpt>
      <trkpt lat="38.28158" lon="-0.70005">
        <ele>97.4</ele>
        <time>2022-10-15 16:57:05</time>
      </trkpt>
      <trkpt lat="38.28154" lon="-0.70008">
        <ele>97.2</ele>
        <time>2022-10-15 16:57:06</time>
      </trkpt>
      <trkpt lat="38.2815" lon="-0.70012">
        <ele>97.2</ele>
        <time>2022-10-15 16:57:07</time>
      </trkpt>
      <trkpt lat="38.2815" lon="-0.70012">
        <ele>97</ele>
        <time>2022-10-15 16:57:08</time>
      </trkpt>
      <trkpt lat="38.28142" lon="-0.70018">
        <ele>96.8</ele>
        <time>2022-10-15 16:57:09</time>
      </trkpt>
      <trkpt lat="38.28138" lon="-0.70021">
        <ele>96.8</ele>
        <time>2022-10-15 16:57:10</time>
      </trkpt>
      <trkpt lat="38.28134" lon="-0.70023">
        <ele>96.6</ele>
        <time>2022-10-15 16:57:11</time>
      </trkpt>
      <trkpt lat="38.2813" lon="-0.70026">
        <ele>96.6</ele>
        <time>2022-10-15 16:57:12</time>
      </trkpt>
      <trkpt lat="38.28125" lon="-0.70029">
        <ele>96.4</ele>
        <time>2022-10-15 16:57:13</time>
      </trkpt>
      <trkpt lat="38.28125" lon="-0.70029">
        <ele>96.4</ele>
        <time>2022-10-15 16:57:14</time>
      </trkpt>
      <trkpt lat="38.28115" lon="-0.70034">
        <ele>96.4</ele>
        <time>2022-10-15 16:57:15</time>
      </trkpt>
      <trkpt lat="38.2811" lon="-0.70036">
        <ele>96.4</ele>
        <time>2022-10-15 16:57:16</time>
      </trkpt>
      <trkpt lat="38.28105" lon="-0.70037">
        <ele>96.2</ele>
        <time>2022-10-15 16:57:17</time>
      </trkpt>
      <trkpt lat="38.281" lon="-0.70037">
        <ele>96.2</ele>
        <time>2022-10-15 16:57:18</time>
      </trkpt>
      <trkpt lat="38.28094" lon="-0.70038">
        <ele>96.2</ele>
        <time>2022-10-15 16:57:20</time>
      </trkpt>
      <trkpt lat="38.28084" lon="-0.70041">
        <ele>96.2</ele>
        <time>2022-10-15 16:57:21</time>
      </trkpt>
      <trkpt lat="38.28079" lon="-0.70043">
        <ele>95.8</ele>
        <time>2022-10-15 16:57:22</time>
      </trkpt>
      <trkpt lat="38.28075" lon="-0.70045">
        <ele>95.2</ele>
        <time>2022-10-15 16:57:23</time>
      </trkpt>
      <trkpt lat="38.28065" lon="-0.70051">
        <ele>94.8</ele>
        <time>2022-10-15 16:57:25</time>
      </trkpt>
      <trkpt lat="38.28065" lon="-0.70051">
        <ele>94.8</ele>
        <time>2022-10-15 16:57:26</time>
      </trkpt>
      <trkpt lat="38.28056" lon="-0.70056">
        <ele>94.6</ele>
        <time>2022-10-15 16:57:27</time>
      </trkpt>
      <trkpt lat="38.28051" lon="-0.70058">
        <ele>94.6</ele>
        <time>2022-10-15 16:57:28</time>
      </trkpt>
      <trkpt lat="38.28046" lon="-0.70061">
        <ele>94.6</ele>
        <time>2022-10-15 16:57:29</time>
      </trkpt>
      <trkpt lat="38.28042" lon="-0.70063">
        <ele>94.4</ele>
        <time>2022-10-15 16:57:30</time>
      </trkpt>
      <trkpt lat="38.28037" lon="-0.70065">
        <ele>94.4</ele>
        <time>2022-10-15 16:57:31</time>
      </trkpt>
      <trkpt lat="38.28037" lon="-0.70065">
        <ele>94.4</ele>
        <time>2022-10-15 16:57:32</time>
      </trkpt>
      <trkpt lat="38.28027" lon="-0.70068">
        <ele>94.4</ele>
        <time>2022-10-15 16:57:33</time>
      </trkpt>
      <trkpt lat="38.28022" lon="-0.70069">
        <ele>94.4</ele>
        <time>2022-10-15 16:57:34</time>
      </trkpt>
      <trkpt lat="38.28018" lon="-0.7007">
        <ele>94.4</ele>
        <time>2022-10-15 16:57:35</time>
      </trkpt>
      <trkpt lat="38.28013" lon="-0.70071">
        <ele>94.4</ele>
        <time>2022-10-15 16:57:36</time>
      </trkpt>
      <trkpt lat="38.28008" lon="-0.70072">
        <ele>94.4</ele>
        <time>2022-10-15 16:57:38</time>
      </trkpt>
      <trkpt lat="38.27998" lon="-0.70074">
        <ele>94.4</ele>
        <time>2022-10-15 16:57:39</time>
      </trkpt>
      <trkpt lat="38.27994" lon="-0.70074">
        <ele>94.4</ele>
        <time>2022-10-15 16:57:40</time>
      </trkpt>
      <trkpt lat="38.27989" lon="-0.70075">
        <ele>94.4</ele>
        <time>2022-10-15 16:57:41</time>
      </trkpt>
      <trkpt lat="38.27984" lon="-0.70075">
        <ele>94.4</ele>
        <time>2022-10-15 16:57:42</time>
      </trkpt>
      <trkpt lat="38.2798" lon="-0.70076">
        <ele>94.4</ele>
        <time>2022-10-15 16:57:43</time>
      </trkpt>
      <trkpt lat="38.2798" lon="-0.70076">
        <ele>94.4</ele>
        <time>2022-10-15 16:57:44</time>
      </trkpt>
      <trkpt lat="38.27972" lon="-0.70072">
        <ele>94.4</ele>
        <time>2022-10-15 16:57:45</time>
      </trkpt>
      <trkpt lat="38.27966" lon="-0.70065">
        <ele>94.8</ele>
        <time>2022-10-15 16:57:47</time>
      </trkpt>
      <trkpt lat="38.27963" lon="-0.70062">
        <ele>94.8</ele>
        <time>2022-10-15 16:57:48</time>
      </trkpt>
      <trkpt lat="38.2796" lon="-0.7006">
        <ele>94.8</ele>
        <time>2022-10-15 16:57:49</time>
      </trkpt>
      <trkpt lat="38.2796" lon="-0.7006">
        <ele>94.8</ele>
        <time>2022-10-15 16:57:50</time>
      </trkpt>
      <trkpt lat="38.27956" lon="-0.7006">
        <ele>94.8</ele>
        <time>2022-10-15 16:57:51</time>
      </trkpt>
      <trkpt lat="38.27955" lon="-0.70061">
        <ele>95</ele>
        <time>2022-10-15 16:57:52</time>
      </trkpt>
      <trkpt lat="38.27954" lon="-0.70063">
        <ele>95</ele>
        <time>2022-10-15 16:57:53</time>
      </trkpt>
      <trkpt lat="38.27954" lon="-0.70067">
        <ele>95</ele>
        <time>2022-10-15 16:57:54</time>
      </trkpt>
      <trkpt lat="38.27955" lon="-0.7007">
        <ele>95.2</ele>
        <time>2022-10-15 16:57:56</time>
      </trkpt>
      <trkpt lat="38.27955" lon="-0.70079">
        <ele>95.8</ele>
        <time>2022-10-15 16:57:57</time>
      </trkpt>
      <trkpt lat="38.27954" lon="-0.70084">
        <ele>96.2</ele>
        <time>2022-10-15 16:57:58</time>
      </trkpt>
      <trkpt lat="38.27953" lon="-0.70089">
        <ele>96.6</ele>
        <time>2022-10-15 16:57:59</time>
      </trkpt>
      <trkpt lat="38.27953" lon="-0.70093">
        <ele>96.8</ele>
        <time>2022-10-15 16:58:00</time>
      </trkpt>
      <trkpt lat="38.27952" lon="-0.70098">
        <ele>97</ele>
        <time>2022-10-15 16:58:01</time>
      </trkpt>
      <trkpt lat="38.27952" lon="-0.70098">
        <ele>97</ele>
        <time>2022-10-15 16:58:02</time>
      </trkpt>
      <trkpt lat="38.27951" lon="-0.70107">
        <ele>97.2</ele>
        <time>2022-10-15 16:58:03</time>
      </trkpt>
      <trkpt lat="38.2795" lon="-0.70111">
        <ele>97.2</ele>
        <time>2022-10-15 16:58:04</time>
      </trkpt>
      <trkpt lat="38.2795" lon="-0.70116">
        <ele>97.2</ele>
        <time>2022-10-15 16:58:05</time>
      </trkpt>
      <trkpt lat="38.27949" lon="-0.7012">
        <ele>97.6</ele>
        <time>2022-10-15 16:58:06</time>
      </trkpt>
      <trkpt lat="38.27949" lon="-0.70125">
        <ele>97.4</ele>
        <time>2022-10-15 16:58:07</time>
      </trkpt>
      <trkpt lat="38.27949" lon="-0.70134">
        <ele>97.4</ele>
        <time>2022-10-15 16:58:09</time>
      </trkpt>
      <trkpt lat="38.27949" lon="-0.70139">
        <ele>97.4</ele>
        <time>2022-10-15 16:58:10</time>
      </trkpt>
      <trkpt lat="38.27948" lon="-0.70148">
        <ele>97.8</ele>
        <time>2022-10-15 16:58:12</time>
      </trkpt>
      <trkpt lat="38.27948" lon="-0.70152">
        <ele>98</ele>
        <time>2022-10-15 16:58:13</time>
      </trkpt>
      <trkpt lat="38.27948" lon="-0.70152">
        <ele>98.2</ele>
        <time>2022-10-15 16:58:14</time>
      </trkpt>
      <trkpt lat="38.27947" lon="-0.70166">
        <ele>98.6</ele>
        <time>2022-10-15 16:58:16</time>
      </trkpt>
      <trkpt lat="38.27946" lon="-0.70171">
        <ele>99</ele>
        <time>2022-10-15 16:58:17</time>
      </trkpt>
      <trkpt lat="38.27946" lon="-0.70175">
        <ele>99.2</ele>
        <time>2022-10-15 16:58:18</time>
      </trkpt>
      <trkpt lat="38.27946" lon="-0.7018">
        <ele>99.4</ele>
        <time>2022-10-15 16:58:19</time>
      </trkpt>
      <trkpt lat="38.27946" lon="-0.7018">
        <ele>99.6</ele>
        <time>2022-10-15 16:58:20</time>
      </trkpt>
      <trkpt lat="38.27945" lon="-0.70189">
        <ele>99.6</ele>
        <time>2022-10-15 16:58:21</time>
      </trkpt>
      <trkpt lat="38.27945" lon="-0.70193">
        <ele>99.8</ele>
        <time>2022-10-15 16:58:22</time>
      </trkpt>
      <trkpt lat="38.27944" lon="-0.70197">
        <ele>100</ele>
        <time>2022-10-15 16:58:23</time>
      </trkpt>
      <trkpt lat="38.27944" lon="-0.70202">
        <ele>100.2</ele>
        <time>2022-10-15 16:58:24</time>
      </trkpt>
      <trkpt lat="38.27944" lon="-0.70206">
        <ele>100.2</ele>
        <time>2022-10-15 16:58:25</time>
      </trkpt>
      <trkpt lat="38.27944" lon="-0.70206">
        <ele>100.6</ele>
        <time>2022-10-15 16:58:26</time>
      </trkpt>
      <trkpt lat="38.27943" lon="-0.70215">
        <ele>100.8</ele>
        <time>2022-10-15 16:58:27</time>
      </trkpt>
      <trkpt lat="38.27942" lon="-0.70224">
        <ele>101</ele>
        <time>2022-10-15 16:58:29</time>
      </trkpt>
      <trkpt lat="38.27942" lon="-0.70229">
        <ele>101</ele>
        <time>2022-10-15 16:58:30</time>
      </trkpt>
      <trkpt lat="38.27941" lon="-0.70234">
        <ele>101</ele>
        <time>2022-10-15 16:58:31</time>
      </trkpt>
      <trkpt lat="38.27941" lon="-0.70234">
        <ele>101</ele>
        <time>2022-10-15 16:58:32</time>
      </trkpt>
      <trkpt lat="38.27941" lon="-0.70244">
        <ele>101.2</ele>
        <time>2022-10-15 16:58:33</time>
      </trkpt>
      <trkpt lat="38.2794" lon="-0.70248">
        <ele>101.2</ele>
        <time>2022-10-15 16:58:34</time>
      </trkpt>
      <trkpt lat="38.2794" lon="-0.70253">
        <ele>101.2</ele>
        <time>2022-10-15 16:58:35</time>
      </trkpt>
      <trkpt lat="38.2794" lon="-0.70258">
        <ele>101.4</ele>
        <time>2022-10-15 16:58:36</time>
      </trkpt>
      <trkpt lat="38.27939" lon="-0.70262">
        <ele>101.4</ele>
        <time>2022-10-15 16:58:37</time>
      </trkpt>
      <trkpt lat="38.27939" lon="-0.70262">
        <ele>101.4</ele>
        <time>2022-10-15 16:58:38</time>
      </trkpt>
      <trkpt lat="38.27938" lon="-0.70272">
        <ele>101.6</ele>
        <time>2022-10-15 16:58:39</time>
      </trkpt>
      <trkpt lat="38.27938" lon="-0.70276">
        <ele>101.6</ele>
        <time>2022-10-15 16:58:40</time>
      </trkpt>
      <trkpt lat="38.27938" lon="-0.70281">
        <ele>101.8</ele>
        <time>2022-10-15 16:58:41</time>
      </trkpt>
      <trkpt lat="38.27937" lon="-0.70291">
        <ele>102</ele>
        <time>2022-10-15 16:58:43</time>
      </trkpt>
      <trkpt lat="38.27937" lon="-0.70291">
        <ele>102.2</ele>
        <time>2022-10-15 16:58:44</time>
      </trkpt>
      <trkpt lat="38.27936" lon="-0.703">
        <ele>102.4</ele>
        <time>2022-10-15 16:58:45</time>
      </trkpt>
      <trkpt lat="38.27935" lon="-0.70305">
        <ele>102.6</ele>
        <time>2022-10-15 16:58:46</time>
      </trkpt>
      <trkpt lat="38.27935" lon="-0.70315">
        <ele>102.8</ele>
        <time>2022-10-15 16:58:48</time>
      </trkpt>
      <trkpt lat="38.27936" lon="-0.70319">
        <ele>102.8</ele>
        <time>2022-10-15 16:58:49</time>
      </trkpt>
      <trkpt lat="38.27936" lon="-0.70319">
        <ele>103</ele>
        <time>2022-10-15 16:58:50</time>
      </trkpt>
      <trkpt lat="38.27939" lon="-0.70328">
        <ele>103</ele>
        <time>2022-10-15 16:58:51</time>
      </trkpt>
      <trkpt lat="38.27941" lon="-0.70331">
        <ele>103</ele>
        <time>2022-10-15 16:58:52</time>
      </trkpt>
      <trkpt lat="38.27945" lon="-0.70335">
        <ele>103.2</ele>
        <time>2022-10-15 16:58:53</time>
      </trkpt>
      <trkpt lat="38.27948" lon="-0.70338">
        <ele>103.2</ele>
        <time>2022-10-15 16:58:54</time>
      </trkpt>
      <trkpt lat="38.2795" lon="-0.70341">
        <ele>103.4</ele>
        <time>2022-10-15 16:58:55</time>
      </trkpt>
      <trkpt lat="38.2795" lon="-0.70341">
        <ele>103.6</ele>
        <time>2022-10-15 16:58:56</time>
      </trkpt>
      <trkpt lat="38.27955" lon="-0.70349">
        <ele>103.8</ele>
        <time>2022-10-15 16:58:57</time>
      </trkpt>
      <trkpt lat="38.27956" lon="-0.70354">
        <ele>104.2</ele>
        <time>2022-10-15 16:58:58</time>
      </trkpt>
      <trkpt lat="38.27958" lon="-0.70358">
        <ele>104.2</ele>
        <time>2022-10-15 16:58:59</time>
      </trkpt>
      <trkpt lat="38.27959" lon="-0.70367">
        <ele>104.4</ele>
        <time>2022-10-15 16:59:01</time>
      </trkpt>
      <trkpt lat="38.27959" lon="-0.70367">
        <ele>104.4</ele>
        <time>2022-10-15 16:59:02</time>
      </trkpt>
      <trkpt lat="38.2796" lon="-0.70376">
        <ele>104.6</ele>
        <time>2022-10-15 16:59:03</time>
      </trkpt>
      <trkpt lat="38.27961" lon="-0.7038">
        <ele>104.6</ele>
        <time>2022-10-15 16:59:04</time>
      </trkpt>
      <trkpt lat="38.27962" lon="-0.70384">
        <ele>104.6</ele>
        <time>2022-10-15 16:59:05</time>
      </trkpt>
      <trkpt lat="38.27962" lon="-0.70389">
        <ele>104.6</ele>
        <time>2022-10-15 16:59:06</time>
      </trkpt>
      <trkpt lat="38.27961" lon="-0.70393">
        <ele>104.8</ele>
        <time>2022-10-15 16:59:07</time>
      </trkpt>
      <trkpt lat="38.27961" lon="-0.70393">
        <ele>104.8</ele>
        <time>2022-10-15 16:59:08</time>
      </trkpt>
      <trkpt lat="38.27957" lon="-0.70401">
        <ele>104.8</ele>
        <time>2022-10-15 16:59:09</time>
      </trkpt>
      <trkpt lat="38.27955" lon="-0.70404">
        <ele>104.8</ele>
        <time>2022-10-15 16:59:10</time>
      </trkpt>
      <trkpt lat="38.27954" lon="-0.70408">
        <ele>104.8</ele>
        <time>2022-10-15 16:59:11</time>
      </trkpt>
      <trkpt lat="38.27953" lon="-0.70412">
        <ele>105</ele>
        <time>2022-10-15 16:59:12</time>
      </trkpt>
      <trkpt lat="38.27952" lon="-0.70416">
        <ele>105.2</ele>
        <time>2022-10-15 16:59:13</time>
      </trkpt>
      <trkpt lat="38.27952" lon="-0.70416">
        <ele>105.2</ele>
        <time>2022-10-15 16:59:14</time>
      </trkpt>
      <trkpt lat="38.27949" lon="-0.70423">
        <ele>105.2</ele>
        <time>2022-10-15 16:59:15</time>
      </trkpt>
      <trkpt lat="38.27948" lon="-0.70425">
        <ele>105.2</ele>
        <time>2022-10-15 16:59:16</time>
      </trkpt>
      <trkpt lat="38.27944" lon="-0.70428">
        <ele>105.4</ele>
        <time>2022-10-15 16:59:18</time>
      </trkpt>
      <trkpt lat="38.27942" lon="-0.70429">
        <ele>105.6</ele>
        <time>2022-10-15 16:59:19</time>
      </trkpt>
      <trkpt lat="38.27942" lon="-0.70429">
        <ele>105.8</ele>
        <time>2022-10-15 16:59:20</time>
      </trkpt>
      <trkpt lat="38.27937" lon="-0.70431">
        <ele>106</ele>
        <time>2022-10-15 16:59:21</time>
      </trkpt>
      <trkpt lat="38.27935" lon="-0.70434">
        <ele>106.2</ele>
        <time>2022-10-15 16:59:22</time>
      </trkpt>
      <trkpt lat="38.27935" lon="-0.70437">
        <ele>106.2</ele>
        <time>2022-10-15 16:59:23</time>
      </trkpt>
      <trkpt lat="38.27936" lon="-0.7044">
        <ele>106.4</ele>
        <time>2022-10-15 16:59:24</time>
      </trkpt>
      <trkpt lat="38.27938" lon="-0.70444">
        <ele>106.4</ele>
        <time>2022-10-15 16:59:25</time>
      </trkpt>
      <trkpt lat="38.27938" lon="-0.70444">
        <ele>106.4</ele>
        <time>2022-10-15 16:59:26</time>
      </trkpt>
      <trkpt lat="38.27941" lon="-0.7045">
        <ele>106.6</ele>
        <time>2022-10-15 16:59:27</time>
      </trkpt>
      <trkpt lat="38.27943" lon="-0.70453">
        <ele>106.6</ele>
        <time>2022-10-15 16:59:28</time>
      </trkpt>
      <trkpt lat="38.27945" lon="-0.70456">
        <ele>106.8</ele>
        <time>2022-10-15 16:59:29</time>
      </trkpt>
      <trkpt lat="38.27948" lon="-0.70464">
        <ele>106.8</ele>
        <time>2022-10-15 16:59:31</time>
      </trkpt>
      <trkpt lat="38.27948" lon="-0.70464">
        <ele>107</ele>
        <time>2022-10-15 16:59:32</time>
      </trkpt>
      <trkpt lat="38.27951" lon="-0.70471">
        <ele>107</ele>
        <time>2022-10-15 16:59:33</time>
      </trkpt>
      <trkpt lat="38.27952" lon="-0.70475">
        <ele>107.2</ele>
        <time>2022-10-15 16:59:34</time>
      </trkpt>
      <trkpt lat="38.27954" lon="-0.70478">
        <ele>107.2</ele>
        <time>2022-10-15 16:59:35</time>
      </trkpt>
      <trkpt lat="38.27956" lon="-0.7048">
        <ele>107.4</ele>
        <time>2022-10-15 16:59:36</time>
      </trkpt>
      <trkpt lat="38.27957" lon="-0.70484">
        <ele>107.4</ele>
        <time>2022-10-15 16:59:37</time>
      </trkpt>
      <trkpt lat="38.27957" lon="-0.70484">
        <ele>107.6</ele>
        <time>2022-10-15 16:59:38</time>
      </trkpt>
      <trkpt lat="38.27962" lon="-0.70495">
        <ele>107.8</ele>
        <time>2022-10-15 16:59:40</time>
      </trkpt>
      <trkpt lat="38.27963" lon="-0.70499">
        <ele>108</ele>
        <time>2022-10-15 16:59:41</time>
      </trkpt>
      <trkpt lat="38.27965" lon="-0.70503">
        <ele>108.2</ele>
        <time>2022-10-15 16:59:42</time>
      </trkpt>
      <trkpt lat="38.27966" lon="-0.70506">
        <ele>108.4</ele>
        <time>2022-10-15 16:59:43</time>
      </trkpt>
      <trkpt lat="38.27966" lon="-0.70506">
        <ele>108.6</ele>
        <time>2022-10-15 16:59:44</time>
      </trkpt>
      <trkpt lat="38.2797" lon="-0.70513">
        <ele>108.8</ele>
        <time>2022-10-15 16:59:45</time>
      </trkpt>
      <trkpt lat="38.27972" lon="-0.70516">
        <ele>109</ele>
        <time>2022-10-15 16:59:46</time>
      </trkpt>
      <trkpt lat="38.27973" lon="-0.7052">
        <ele>109.4</ele>
        <time>2022-10-15 16:59:47</time>
      </trkpt>
      <trkpt lat="38.27975" lon="-0.70524">
        <ele>109.6</ele>
        <time>2022-10-15 16:59:48</time>
      </trkpt>
      <trkpt lat="38.27976" lon="-0.70528">
        <ele>109.8</ele>
        <time>2022-10-15 16:59:49</time>
      </trkpt>
      <trkpt lat="38.27976" lon="-0.70528">
        <ele>110</ele>
        <time>2022-10-15 16:59:50</time>
      </trkpt>
      <trkpt lat="38.27979" lon="-0.70536">
        <ele>110.4</ele>
        <time>2022-10-15 16:59:51</time>
      </trkpt>
      <trkpt lat="38.27982" lon="-0.70544">
        <ele>110.6</ele>
        <time>2022-10-15 16:59:53</time>
      </trkpt>
      <trkpt lat="38.27984" lon="-0.70548">
        <ele>110.8</ele>
        <time>2022-10-15 16:59:54</time>
      </trkpt>
      <trkpt lat="38.27985" lon="-0.70552">
        <ele>111</ele>
        <time>2022-10-15 16:59:55</time>
      </trkpt>
      <trkpt lat="38.27989" lon="-0.7056">
        <ele>111.2</ele>
        <time>2022-10-15 16:59:57</time>
      </trkpt>
      <trkpt lat="38.2799" lon="-0.70565">
        <ele>111.4</ele>
        <time>2022-10-15 16:59:58</time>
      </trkpt>
      <trkpt lat="38.27992" lon="-0.70569">
        <ele>111.6</ele>
        <time>2022-10-15 16:59:59</time>
      </trkpt>
      <trkpt lat="38.27994" lon="-0.70574">
        <ele>111.8</ele>
        <time>2022-10-15 17:00:00</time>
      </trkpt>
      <trkpt lat="38.27996" lon="-0.70578">
        <ele>111.8</ele>
        <time>2022-10-15 17:00:01</time>
      </trkpt>
      <trkpt lat="38.27996" lon="-0.70578">
        <ele>112</ele>
        <time>2022-10-15 17:00:02</time>
      </trkpt>
      <trkpt lat="38.27999" lon="-0.70588">
        <ele>112</ele>
        <time>2022-10-15 17:00:03</time>
      </trkpt>
      <trkpt lat="38.28001" lon="-0.70594">
        <ele>112.2</ele>
        <time>2022-10-15 17:00:04</time>
      </trkpt>
      <trkpt lat="38.28002" lon="-0.70606">
        <ele>112.4</ele>
        <time>2022-10-15 17:00:06</time>
      </trkpt>
      <trkpt lat="38.28001" lon="-0.70612">
        <ele>112.6</ele>
        <time>2022-10-15 17:00:07</time>
      </trkpt>
      <trkpt lat="38.28001" lon="-0.70612">
        <ele>112.6</ele>
        <time>2022-10-15 17:00:08</time>
      </trkpt>
      <trkpt lat="38.27999" lon="-0.70624">
        <ele>112.8</ele>
        <time>2022-10-15 17:00:09</time>
      </trkpt>
      <trkpt lat="38.27997" lon="-0.7063">
        <ele>112.8</ele>
        <time>2022-10-15 17:00:10</time>
      </trkpt>
      <trkpt lat="38.27995" lon="-0.70636">
        <ele>112.8</ele>
        <time>2022-10-15 17:00:11</time>
      </trkpt>
      <trkpt lat="38.27993" lon="-0.70641">
        <ele>113</ele>
        <time>2022-10-15 17:00:12</time>
      </trkpt>
      <trkpt lat="38.27991" lon="-0.70647">
        <ele>113</ele>
        <time>2022-10-15 17:00:13</time>
      </trkpt>
      <trkpt lat="38.27991" lon="-0.70647">
        <ele>113</ele>
        <time>2022-10-15 17:00:14</time>
      </trkpt>
      <trkpt lat="38.27988" lon="-0.70659">
        <ele>113</ele>
        <time>2022-10-15 17:00:15</time>
      </trkpt>
      <trkpt lat="38.27986" lon="-0.70665">
        <ele>113</ele>
        <time>2022-10-15 17:00:16</time>
      </trkpt>
      <trkpt lat="38.27984" lon="-0.70671">
        <ele>113</ele>
        <time>2022-10-15 17:00:17</time>
      </trkpt>
      <trkpt lat="38.2798" lon="-0.70682">
        <ele>112.8</ele>
        <time>2022-10-15 17:00:19</time>
      </trkpt>
      <trkpt lat="38.2798" lon="-0.70682">
        <ele>112.8</ele>
        <time>2022-10-15 17:00:20</time>
      </trkpt>
      <trkpt lat="38.27976" lon="-0.70694">
        <ele>112.8</ele>
        <time>2022-10-15 17:00:21</time>
      </trkpt>
      <trkpt lat="38.27975" lon="-0.707">
        <ele>112.8</ele>
        <time>2022-10-15 17:00:22</time>
      </trkpt>
      <trkpt lat="38.27973" lon="-0.70706">
        <ele>112.8</ele>
        <time>2022-10-15 17:00:23</time>
      </trkpt>
      <trkpt lat="38.27971" lon="-0.70712">
        <ele>112.6</ele>
        <time>2022-10-15 17:00:24</time>
      </trkpt>
      <trkpt lat="38.27969" lon="-0.70717">
        <ele>112.6</ele>
        <time>2022-10-15 17:00:25</time>
      </trkpt>
      <trkpt lat="38.27969" lon="-0.70717">
        <ele>112.6</ele>
        <time>2022-10-15 17:00:26</time>
      </trkpt>
      <trkpt lat="38.27966" lon="-0.70728">
        <ele>112.6</ele>
        <time>2022-10-15 17:00:27</time>
      </trkpt>
      <trkpt lat="38.27964" lon="-0.70733">
        <ele>112.8</ele>
        <time>2022-10-15 17:00:28</time>
      </trkpt>
      <trkpt lat="38.27962" lon="-0.70738">
        <ele>112.6</ele>
        <time>2022-10-15 17:00:29</time>
      </trkpt>
      <trkpt lat="38.2796" lon="-0.70743">
        <ele>112.6</ele>
        <time>2022-10-15 17:00:30</time>
      </trkpt>
      <trkpt lat="38.27959" lon="-0.70749">
        <ele>112.6</ele>
        <time>2022-10-15 17:00:32</time>
      </trkpt>
      <trkpt lat="38.27956" lon="-0.7076">
        <ele>112.6</ele>
        <time>2022-10-15 17:00:33</time>
      </trkpt>
      <trkpt lat="38.27954" lon="-0.70765">
        <ele>112.6</ele>
        <time>2022-10-15 17:00:34</time>
      </trkpt>
      <trkpt lat="38.27951" lon="-0.70776">
        <ele>112.6</ele>
        <time>2022-10-15 17:00:36</time>
      </trkpt>
      <trkpt lat="38.27948" lon="-0.70782">
        <ele>112.6</ele>
        <time>2022-10-15 17:00:37</time>
      </trkpt>
      <trkpt lat="38.27948" lon="-0.70782">
        <ele>112.8</ele>
        <time>2022-10-15 17:00:38</time>
      </trkpt>
      <trkpt lat="38.27944" lon="-0.70793">
        <ele>113</ele>
        <time>2022-10-15 17:00:39</time>
      </trkpt>
      <trkpt lat="38.27942" lon="-0.70799">
        <ele>113</ele>
        <time>2022-10-15 17:00:40</time>
      </trkpt>
      <trkpt lat="38.27941" lon="-0.70804">
        <ele>113</ele>
        <time>2022-10-15 17:00:41</time>
      </trkpt>
      <trkpt lat="38.27939" lon="-0.7081">
        <ele>113</ele>
        <time>2022-10-15 17:00:42</time>
      </trkpt>
      <trkpt lat="38.27938" lon="-0.70815">
        <ele>113</ele>
        <time>2022-10-15 17:00:43</time>
      </trkpt>
      <trkpt lat="38.27934" lon="-0.70827">
        <ele>113</ele>
        <time>2022-10-15 17:00:45</time>
      </trkpt>
      <trkpt lat="38.27933" lon="-0.70833">
        <ele>113</ele>
        <time>2022-10-15 17:00:46</time>
      </trkpt>
      <trkpt lat="38.27931" lon="-0.70838">
        <ele>113</ele>
        <time>2022-10-15 17:00:47</time>
      </trkpt>
      <trkpt lat="38.27927" lon="-0.7085">
        <ele>113</ele>
        <time>2022-10-15 17:00:49</time>
      </trkpt>
      <trkpt lat="38.27927" lon="-0.7085">
        <ele>113</ele>
        <time>2022-10-15 17:00:50</time>
      </trkpt>
      <trkpt lat="38.27924" lon="-0.70861">
        <ele>113</ele>
        <time>2022-10-15 17:00:51</time>
      </trkpt>
      <trkpt lat="38.27922" lon="-0.70867">
        <ele>113</ele>
        <time>2022-10-15 17:00:52</time>
      </trkpt>
      <trkpt lat="38.2792" lon="-0.70872">
        <ele>112.8</ele>
        <time>2022-10-15 17:00:53</time>
      </trkpt>
      <trkpt lat="38.27918" lon="-0.70878">
        <ele>112.8</ele>
        <time>2022-10-15 17:00:54</time>
      </trkpt>
      <trkpt lat="38.27916" lon="-0.70883">
        <ele>112.6</ele>
        <time>2022-10-15 17:00:55</time>
      </trkpt>
      <trkpt lat="38.27914" lon="-0.70889">
        <ele>112.6</ele>
        <time>2022-10-15 17:00:56</time>
      </trkpt>
      <trkpt lat="38.27911" lon="-0.709">
        <ele>112.6</ele>
        <time>2022-10-15 17:00:58</time>
      </trkpt>
      <trkpt lat="38.27909" lon="-0.70906">
        <ele>112.6</ele>
        <time>2022-10-15 17:00:59</time>
      </trkpt>
      <trkpt lat="38.27907" lon="-0.70912">
        <ele>112.6</ele>
        <time>2022-10-15 17:01:00</time>
      </trkpt>
      <trkpt lat="38.27903" lon="-0.70923">
        <ele>112.4</ele>
        <time>2022-10-15 17:01:02</time>
      </trkpt>
      <trkpt lat="38.27902" lon="-0.70929">
        <ele>112.4</ele>
        <time>2022-10-15 17:01:03</time>
      </trkpt>
      <trkpt lat="38.279" lon="-0.70934">
        <ele>112.4</ele>
        <time>2022-10-15 17:01:04</time>
      </trkpt>
      <trkpt lat="38.27899" lon="-0.7094">
        <ele>112.4</ele>
        <time>2022-10-15 17:01:05</time>
      </trkpt>
      <trkpt lat="38.27897" lon="-0.70945">
        <ele>112.4</ele>
        <time>2022-10-15 17:01:06</time>
      </trkpt>
      <trkpt lat="38.27895" lon="-0.7095">
        <ele>112.4</ele>
        <time>2022-10-15 17:01:07</time>
      </trkpt>
      <trkpt lat="38.27895" lon="-0.7095">
        <ele>112.4</ele>
        <time>2022-10-15 17:01:08</time>
      </trkpt>
      <trkpt lat="38.27893" lon="-0.70959">
        <ele>112.4</ele>
        <time>2022-10-15 17:01:09</time>
      </trkpt>
      <trkpt lat="38.27896" lon="-0.70969">
        <ele>112.6</ele>
        <time>2022-10-15 17:01:11</time>
      </trkpt>
      <trkpt lat="38.27898" lon="-0.70973">
        <ele>112.6</ele>
        <time>2022-10-15 17:01:12</time>
      </trkpt>
      <trkpt lat="38.279" lon="-0.70978">
        <ele>112.6</ele>
        <time>2022-10-15 17:01:13</time>
      </trkpt>
      <trkpt lat="38.27905" lon="-0.70987">
        <ele>112.8</ele>
        <time>2022-10-15 17:01:15</time>
      </trkpt>
      <trkpt lat="38.27908" lon="-0.70991">
        <ele>112.8</ele>
        <time>2022-10-15 17:01:16</time>
      </trkpt>
      <trkpt lat="38.27911" lon="-0.70996">
        <ele>112.8</ele>
        <time>2022-10-15 17:01:17</time>
      </trkpt>
      <trkpt lat="38.27914" lon="-0.71">
        <ele>112.8</ele>
        <time>2022-10-15 17:01:18</time>
      </trkpt>
      <trkpt lat="38.27917" lon="-0.71005">
        <ele>112.8</ele>
        <time>2022-10-15 17:01:19</time>
      </trkpt>
      <trkpt lat="38.27917" lon="-0.71005">
        <ele>113</ele>
        <time>2022-10-15 17:01:20</time>
      </trkpt>
      <trkpt lat="38.27923" lon="-0.71015">
        <ele>113</ele>
        <time>2022-10-15 17:01:21</time>
      </trkpt>
      <trkpt lat="38.27926" lon="-0.7102">
        <ele>113.2</ele>
        <time>2022-10-15 17:01:22</time>
      </trkpt>
      <trkpt lat="38.27928" lon="-0.71026">
        <ele>113.2</ele>
        <time>2022-10-15 17:01:23</time>
      </trkpt>
      <trkpt lat="38.27931" lon="-0.71031">
        <ele>113.2</ele>
        <time>2022-10-15 17:01:24</time>
      </trkpt>
      <trkpt lat="38.27933" lon="-0.71037">
        <ele>113.2</ele>
        <time>2022-10-15 17:01:25</time>
      </trkpt>
      <trkpt lat="38.27934" lon="-0.71044">
        <ele>113.4</ele>
        <time>2022-10-15 17:01:26</time>
      </trkpt>
      <trkpt lat="38.27936" lon="-0.71056">
        <ele>113.6</ele>
        <time>2022-10-15 17:01:28</time>
      </trkpt>
      <trkpt lat="38.27936" lon="-0.71062">
        <ele>113.6</ele>
        <time>2022-10-15 17:01:29</time>
      </trkpt>
      <trkpt lat="38.27935" lon="-0.71068">
        <ele>113.6</ele>
        <time>2022-10-15 17:01:30</time>
      </trkpt>
      <trkpt lat="38.27934" lon="-0.71075">
        <ele>113.6</ele>
        <time>2022-10-15 17:01:31</time>
      </trkpt>
      <trkpt lat="38.27934" lon="-0.71075">
        <ele>113.8</ele>
        <time>2022-10-15 17:01:32</time>
      </trkpt>
      <trkpt lat="38.27932" lon="-0.71087">
        <ele>114</ele>
        <time>2022-10-15 17:01:33</time>
      </trkpt>
      <trkpt lat="38.27931" lon="-0.71092">
        <ele>114</ele>
        <time>2022-10-15 17:01:34</time>
      </trkpt>
      <trkpt lat="38.27932" lon="-0.71103">
        <ele>114.2</ele>
        <time>2022-10-15 17:01:36</time>
      </trkpt>
      <trkpt lat="38.27934" lon="-0.71109">
        <ele>114.2</ele>
        <time>2022-10-15 17:01:37</time>
      </trkpt>
      <trkpt lat="38.27934" lon="-0.71109">
        <ele>114.4</ele>
        <time>2022-10-15 17:01:38</time>
      </trkpt>
      <trkpt lat="38.27939" lon="-0.71126">
        <ele>114.6</ele>
        <time>2022-10-15 17:01:40</time>
      </trkpt>
      <trkpt lat="38.27939" lon="-0.71132">
        <ele>114.8</ele>
        <time>2022-10-15 17:01:41</time>
      </trkpt>
      <trkpt lat="38.27939" lon="-0.71138">
        <ele>115</ele>
        <time>2022-10-15 17:01:42</time>
      </trkpt>
      <trkpt lat="38.27938" lon="-0.71144">
        <ele>115.2</ele>
        <time>2022-10-15 17:01:43</time>
      </trkpt>
      <trkpt lat="38.27938" lon="-0.71144">
        <ele>115.4</ele>
        <time>2022-10-15 17:01:44</time>
      </trkpt>
      <trkpt lat="38.27934" lon="-0.71155">
        <ele>115.6</ele>
        <time>2022-10-15 17:01:45</time>
      </trkpt>
      <trkpt lat="38.27931" lon="-0.71159">
        <ele>115.8</ele>
        <time>2022-10-15 17:01:46</time>
      </trkpt>
      <trkpt lat="38.27927" lon="-0.71164">
        <ele>116</ele>
        <time>2022-10-15 17:01:47</time>
      </trkpt>
      <trkpt lat="38.27919" lon="-0.71173">
        <ele>116.2</ele>
        <time>2022-10-15 17:01:49</time>
      </trkpt>
      <trkpt lat="38.27919" lon="-0.71173">
        <ele>116.4</ele>
        <time>2022-10-15 17:01:50</time>
      </trkpt>
      <trkpt lat="38.27912" lon="-0.71182">
        <ele>116.4</ele>
        <time>2022-10-15 17:01:51</time>
      </trkpt>
      <trkpt lat="38.27906" lon="-0.71193">
        <ele>116.4</ele>
        <time>2022-10-15 17:01:53</time>
      </trkpt>
      <trkpt lat="38.27903" lon="-0.71198">
        <ele>116.4</ele>
        <time>2022-10-15 17:01:54</time>
      </trkpt>
      <trkpt lat="38.279" lon="-0.71203">
        <ele>116.6</ele>
        <time>2022-10-15 17:01:55</time>
      </trkpt>
      <trkpt lat="38.279" lon="-0.71203">
        <ele>116.6</ele>
        <time>2022-10-15 17:01:56</time>
      </trkpt>
      <trkpt lat="38.27896" lon="-0.71215">
        <ele>116.6</ele>
        <time>2022-10-15 17:01:57</time>
      </trkpt>
      <trkpt lat="38.27894" lon="-0.71221">
        <ele>116.6</ele>
        <time>2022-10-15 17:01:58</time>
      </trkpt>
      <trkpt lat="38.27892" lon="-0.71226">
        <ele>116.8</ele>
        <time>2022-10-15 17:01:59</time>
      </trkpt>
      <trkpt lat="38.27889" lon="-0.71232">
        <ele>116.8</ele>
        <time>2022-10-15 17:02:00</time>
      </trkpt>
      <trkpt lat="38.27885" lon="-0.71237">
        <ele>117</ele>
        <time>2022-10-15 17:02:02</time>
      </trkpt>
      <trkpt lat="38.27879" lon="-0.71248">
        <ele>117</ele>
        <time>2022-10-15 17:02:03</time>
      </trkpt>
      <trkpt lat="38.27875" lon="-0.71253">
        <ele>117</ele>
        <time>2022-10-15 17:02:04</time>
      </trkpt>
      <trkpt lat="38.27872" lon="-0.71258">
        <ele>117</ele>
        <time>2022-10-15 17:02:05</time>
      </trkpt>
      <trkpt lat="38.27869" lon="-0.71263">
        <ele>117.2</ele>
        <time>2022-10-15 17:02:06</time>
      </trkpt>
      <trkpt lat="38.27865" lon="-0.71268">
        <ele>117.2</ele>
        <time>2022-10-15 17:02:08</time>
      </trkpt>
      <trkpt lat="38.27859" lon="-0.71279">
        <ele>117.2</ele>
        <time>2022-10-15 17:02:09</time>
      </trkpt>
      <trkpt lat="38.27855" lon="-0.71284">
        <ele>117.2</ele>
        <time>2022-10-15 17:02:10</time>
      </trkpt>
      <trkpt lat="38.27852" lon="-0.71289">
        <ele>117.2</ele>
        <time>2022-10-15 17:02:11</time>
      </trkpt>
      <trkpt lat="38.27845" lon="-0.713">
        <ele>117</ele>
        <time>2022-10-15 17:02:13</time>
      </trkpt>
      <trkpt lat="38.27845" lon="-0.713">
        <ele>117</ele>
        <time>2022-10-15 17:02:14</time>
      </trkpt>
      <trkpt lat="38.27839" lon="-0.7131">
        <ele>116.8</ele>
        <time>2022-10-15 17:02:15</time>
      </trkpt>
      <trkpt lat="38.27836" lon="-0.71315">
        <ele>116.8</ele>
        <time>2022-10-15 17:02:16</time>
      </trkpt>
      <trkpt lat="38.27833" lon="-0.7132">
        <ele>116.8</ele>
        <time>2022-10-15 17:02:17</time>
      </trkpt>
      <trkpt lat="38.2783" lon="-0.71325">
        <ele>116.8</ele>
        <time>2022-10-15 17:02:18</time>
      </trkpt>
      <trkpt lat="38.27827" lon="-0.7133">
        <ele>116.8</ele>
        <time>2022-10-15 17:02:19</time>
      </trkpt>
      <trkpt lat="38.27827" lon="-0.7133">
        <ele>116.8</ele>
        <time>2022-10-15 17:02:20</time>
      </trkpt>
      <trkpt lat="38.27821" lon="-0.7134">
        <ele>116.8</ele>
        <time>2022-10-15 17:02:21</time>
      </trkpt>
      <trkpt lat="38.27818" lon="-0.71345">
        <ele>116.8</ele>
        <time>2022-10-15 17:02:22</time>
      </trkpt>
      <trkpt lat="38.27815" lon="-0.7135">
        <ele>116.8</ele>
        <time>2022-10-15 17:02:23</time>
      </trkpt>
      <trkpt lat="38.27812" lon="-0.71355">
        <ele>116.8</ele>
        <time>2022-10-15 17:02:24</time>
      </trkpt>
      <trkpt lat="38.27808" lon="-0.7136">
        <ele>116.8</ele>
        <time>2022-10-15 17:02:25</time>
      </trkpt>
      <trkpt lat="38.27808" lon="-0.7136">
        <ele>116.8</ele>
        <time>2022-10-15 17:02:26</time>
      </trkpt>
      <trkpt lat="38.27802" lon="-0.7137">
        <ele>116.8</ele>
        <time>2022-10-15 17:02:27</time>
      </trkpt>
      <trkpt lat="38.27799" lon="-0.71375">
        <ele>116.8</ele>
        <time>2022-10-15 17:02:28</time>
      </trkpt>
      <trkpt lat="38.27793" lon="-0.71385">
        <ele>116.8</ele>
        <time>2022-10-15 17:02:30</time>
      </trkpt>
      <trkpt lat="38.27789" lon="-0.7139">
        <ele>116.8</ele>
        <time>2022-10-15 17:02:31</time>
      </trkpt>
      <trkpt lat="38.27789" lon="-0.7139">
        <ele>116.8</ele>
        <time>2022-10-15 17:02:32</time>
      </trkpt>
      <trkpt lat="38.27783" lon="-0.714">
        <ele>116.8</ele>
        <time>2022-10-15 17:02:33</time>
      </trkpt>
      <trkpt lat="38.27777" lon="-0.71409">
        <ele>116.6</ele>
        <time>2022-10-15 17:02:35</time>
      </trkpt>
      <trkpt lat="38.27774" lon="-0.71414">
        <ele>116.6</ele>
        <time>2022-10-15 17:02:36</time>
      </trkpt>
      <trkpt lat="38.27771" lon="-0.71418">
        <ele>116.4</ele>
        <time>2022-10-15 17:02:37</time>
      </trkpt>
      <trkpt lat="38.27771" lon="-0.71418">
        <ele>116.4</ele>
        <time>2022-10-15 17:02:38</time>
      </trkpt>
      <trkpt lat="38.27765" lon="-0.71428">
        <ele>116.2</ele>
        <time>2022-10-15 17:02:39</time>
      </trkpt>
      <trkpt lat="38.27762" lon="-0.71432">
        <ele>116</ele>
        <time>2022-10-15 17:02:40</time>
      </trkpt>
      <trkpt lat="38.2776" lon="-0.71436">
        <ele>115.8</ele>
        <time>2022-10-15 17:02:41</time>
      </trkpt>
      <trkpt lat="38.27757" lon="-0.71441">
        <ele>115.6</ele>
        <time>2022-10-15 17:02:42</time>
      </trkpt>
      <trkpt lat="38.27755" lon="-0.71446">
        <ele>115.6</ele>
        <time>2022-10-15 17:02:43</time>
      </trkpt>
      <trkpt lat="38.27755" lon="-0.71446">
        <ele>115.6</ele>
        <time>2022-10-15 17:02:44</time>
      </trkpt>
      <trkpt lat="38.27749" lon="-0.71455">
        <ele>115.6</ele>
        <time>2022-10-15 17:02:45</time>
      </trkpt>
      <trkpt lat="38.27747" lon="-0.71459">
        <ele>115.4</ele>
        <time>2022-10-15 17:02:46</time>
      </trkpt>
      <trkpt lat="38.27741" lon="-0.71468">
        <ele>115.4</ele>
        <time>2022-10-15 17:02:48</time>
      </trkpt>
      <trkpt lat="38.27738" lon="-0.71472">
        <ele>115.4</ele>
        <time>2022-10-15 17:02:49</time>
      </trkpt>
      <trkpt lat="38.27738" lon="-0.71472">
        <ele>115.4</ele>
        <time>2022-10-15 17:02:50</time>
      </trkpt>
      <trkpt lat="38.27733" lon="-0.71481">
        <ele>115.4</ele>
        <time>2022-10-15 17:02:51</time>
      </trkpt>
      <trkpt lat="38.2773" lon="-0.71486">
        <ele>115.4</ele>
        <time>2022-10-15 17:02:52</time>
      </trkpt>
      <trkpt lat="38.27727" lon="-0.7149">
        <ele>115.4</ele>
        <time>2022-10-15 17:02:53</time>
      </trkpt>
      <trkpt lat="38.27725" lon="-0.71495">
        <ele>115.4</ele>
        <time>2022-10-15 17:02:54</time>
      </trkpt>
      <trkpt lat="38.27722" lon="-0.71499">
        <ele>115.6</ele>
        <time>2022-10-15 17:02:55</time>
      </trkpt>
      <trkpt lat="38.27716" lon="-0.71508">
        <ele>115.8</ele>
        <time>2022-10-15 17:02:57</time>
      </trkpt>
      <trkpt lat="38.27713" lon="-0.71512">
        <ele>115.8</ele>
        <time>2022-10-15 17:02:58</time>
      </trkpt>
      <trkpt lat="38.27711" lon="-0.71517">
        <ele>116</ele>
        <time>2022-10-15 17:02:59</time>
      </trkpt>
      <trkpt lat="38.27707" lon="-0.71527">
        <ele>116.4</ele>
        <time>2022-10-15 17:03:01</time>
      </trkpt>
      <trkpt lat="38.27707" lon="-0.71527">
        <ele>116.4</ele>
        <time>2022-10-15 17:03:02</time>
      </trkpt>
      <trkpt lat="38.27703" lon="-0.71537">
        <ele>116.6</ele>
        <time>2022-10-15 17:03:03</time>
      </trkpt>
      <trkpt lat="38.27702" lon="-0.71542">
        <ele>116.4</ele>
        <time>2022-10-15 17:03:04</time>
      </trkpt>
      <trkpt lat="38.27701" lon="-0.71552">
        <ele>116.8</ele>
        <time>2022-10-15 17:03:06</time>
      </trkpt>
      <trkpt lat="38.27701" lon="-0.71558">
        <ele>116.8</ele>
        <time>2022-10-15 17:03:07</time>
      </trkpt>
      <trkpt lat="38.27701" lon="-0.71558">
        <ele>116.8</ele>
        <time>2022-10-15 17:03:08</time>
      </trkpt>
      <trkpt lat="38.27702" lon="-0.71568">
        <ele>116.8</ele>
        <time>2022-10-15 17:03:09</time>
      </trkpt>
      <trkpt lat="38.27703" lon="-0.71572">
        <ele>116.8</ele>
        <time>2022-10-15 17:03:10</time>
      </trkpt>
      <trkpt lat="38.27702" lon="-0.71582">
        <ele>117</ele>
        <time>2022-10-15 17:03:12</time>
      </trkpt>
      <trkpt lat="38.27701" lon="-0.71586">
        <ele>117.2</ele>
        <time>2022-10-15 17:03:13</time>
      </trkpt>
      <trkpt lat="38.27701" lon="-0.71586">
        <ele>117.2</ele>
        <time>2022-10-15 17:03:14</time>
      </trkpt>
      <trkpt lat="38.27697" lon="-0.71595">
        <ele>117.4</ele>
        <time>2022-10-15 17:03:15</time>
      </trkpt>
      <trkpt lat="38.27694" lon="-0.71598">
        <ele>117.8</ele>
        <time>2022-10-15 17:03:16</time>
      </trkpt>
      <trkpt lat="38.2769" lon="-0.716">
        <ele>118</ele>
        <time>2022-10-15 17:03:17</time>
      </trkpt>
      <trkpt lat="38.27686" lon="-0.71601">
        <ele>118.2</ele>
        <time>2022-10-15 17:03:18</time>
      </trkpt>
      <trkpt lat="38.27682" lon="-0.71602">
        <ele>118.4</ele>
        <time>2022-10-15 17:03:19</time>
      </trkpt>
      <trkpt lat="38.27682" lon="-0.71602">
        <ele>118.4</ele>
        <time>2022-10-15 17:03:20</time>
      </trkpt>
      <trkpt lat="38.27673" lon="-0.71603">
        <ele>118.4</ele>
        <time>2022-10-15 17:03:21</time>
      </trkpt>
      <trkpt lat="38.27668" lon="-0.71605">
        <ele>118.4</ele>
        <time>2022-10-15 17:03:22</time>
      </trkpt>
      <trkpt lat="38.27664" lon="-0.71608">
        <ele>118.4</ele>
        <time>2022-10-15 17:03:23</time>
      </trkpt>
      <trkpt lat="38.2766" lon="-0.71611">
        <ele>118.4</ele>
        <time>2022-10-15 17:03:24</time>
      </trkpt>
      <trkpt lat="38.27656" lon="-0.71615">
        <ele>118.4</ele>
        <time>2022-10-15 17:03:25</time>
      </trkpt>
      <trkpt lat="38.27656" lon="-0.71615">
        <ele>118.4</ele>
        <time>2022-10-15 17:03:26</time>
      </trkpt>
      <trkpt lat="38.27649" lon="-0.71624">
        <ele>118.4</ele>
        <time>2022-10-15 17:03:27</time>
      </trkpt>
      <trkpt lat="38.27645" lon="-0.71629">
        <ele>118.2</ele>
        <time>2022-10-15 17:03:28</time>
      </trkpt>
      <trkpt lat="38.27641" lon="-0.71633">
        <ele>118</ele>
        <time>2022-10-15 17:03:29</time>
      </trkpt>
      <trkpt lat="38.27638" lon="-0.71637">
        <ele>117.6</ele>
        <time>2022-10-15 17:03:30</time>
      </trkpt>
      <trkpt lat="38.27634" lon="-0.71641">
        <ele>117.2</ele>
        <time>2022-10-15 17:03:32</time>
      </trkpt>
      <trkpt lat="38.27627" lon="-0.71649">
        <ele>117.2</ele>
        <time>2022-10-15 17:03:33</time>
      </trkpt>
      <trkpt lat="38.27623" lon="-0.71653">
        <ele>117</ele>
        <time>2022-10-15 17:03:34</time>
      </trkpt>
      <trkpt lat="38.27616" lon="-0.71662">
        <ele>116.8</ele>
        <time>2022-10-15 17:03:36</time>
      </trkpt>
      <trkpt lat="38.27612" lon="-0.71666">
        <ele>116.8</ele>
        <time>2022-10-15 17:03:37</time>
      </trkpt>
      <trkpt lat="38.27612" lon="-0.71666">
        <ele>116.6</ele>
        <time>2022-10-15 17:03:38</time>
      </trkpt>
      <trkpt lat="38.27605" lon="-0.71675">
        <ele>116.6</ele>
        <time>2022-10-15 17:03:39</time>
      </trkpt>
      <trkpt lat="38.27598" lon="-0.71684">
        <ele>116.2</ele>
        <time>2022-10-15 17:03:41</time>
      </trkpt>
      <trkpt lat="38.27595" lon="-0.71688">
        <ele>116</ele>
        <time>2022-10-15 17:03:42</time>
      </trkpt>
      <trkpt lat="38.27591" lon="-0.71693">
        <ele>116</ele>
        <time>2022-10-15 17:03:43</time>
      </trkpt>
      <trkpt lat="38.27591" lon="-0.71693">
        <ele>115.8</ele>
        <time>2022-10-15 17:03:44</time>
      </trkpt>
      <trkpt lat="38.27583" lon="-0.71696">
        <ele>115.6</ele>
        <time>2022-10-15 17:03:45</time>
      </trkpt>
      <trkpt lat="38.2758" lon="-0.71693">
        <ele>115.6</ele>
        <time>2022-10-15 17:03:46</time>
      </trkpt>
      <trkpt lat="38.27578" lon="-0.71688">
        <ele>115.6</ele>
        <time>2022-10-15 17:03:47</time>
      </trkpt>
      <trkpt lat="38.27577" lon="-0.71683">
        <ele>115.6</ele>
        <time>2022-10-15 17:03:48</time>
      </trkpt>
      <trkpt lat="38.27575" lon="-0.71678">
        <ele>115.6</ele>
        <time>2022-10-15 17:03:49</time>
      </trkpt>
      <trkpt lat="38.27575" lon="-0.71678">
        <ele>115.4</ele>
        <time>2022-10-15 17:03:50</time>
      </trkpt>
      <trkpt lat="38.27567" lon="-0.71672">
        <ele>115.4</ele>
        <time>2022-10-15 17:03:51</time>
      </trkpt>
      <trkpt lat="38.27562" lon="-0.71671">
        <ele>115.4</ele>
        <time>2022-10-15 17:03:52</time>
      </trkpt>
      <trkpt lat="38.27556" lon="-0.71671">
        <ele>115.2</ele>
        <time>2022-10-15 17:03:53</time>
      </trkpt>
      <trkpt lat="38.2755" lon="-0.71672">
        <ele>115.2</ele>
        <time>2022-10-15 17:03:54</time>
      </trkpt>
      <trkpt lat="38.27544" lon="-0.71674">
        <ele>115</ele>
        <time>2022-10-15 17:03:56</time>
      </trkpt>
      <trkpt lat="38.27533" lon="-0.71676">
        <ele>115</ele>
        <time>2022-10-15 17:03:57</time>
      </trkpt>
      <trkpt lat="38.27527" lon="-0.71677">
        <ele>114.8</ele>
        <time>2022-10-15 17:03:58</time>
      </trkpt>
      <trkpt lat="38.27522" lon="-0.71678">
        <ele>114.4</ele>
        <time>2022-10-15 17:03:59</time>
      </trkpt>
      <trkpt lat="38.27512" lon="-0.7168">
        <ele>113.2</ele>
        <time>2022-10-15 17:04:01</time>
      </trkpt>
      <trkpt lat="38.27512" lon="-0.7168">
        <ele>112.8</ele>
        <time>2022-10-15 17:04:02</time>
      </trkpt>
      <trkpt lat="38.27502" lon="-0.71681">
        <ele>112.6</ele>
        <time>2022-10-15 17:04:03</time>
      </trkpt>
      <trkpt lat="38.27498" lon="-0.71682">
        <ele>112.4</ele>
        <time>2022-10-15 17:04:04</time>
      </trkpt>
      <trkpt lat="38.27488" lon="-0.71684">
        <ele>112.2</ele>
        <time>2022-10-15 17:04:06</time>
      </trkpt>
      <trkpt lat="38.27483" lon="-0.71685">
        <ele>112.2</ele>
        <time>2022-10-15 17:04:07</time>
      </trkpt>
      <trkpt lat="38.27483" lon="-0.71685">
        <ele>112.2</ele>
        <time>2022-10-15 17:04:08</time>
      </trkpt>
      <trkpt lat="38.27474" lon="-0.71687">
        <ele>112</ele>
        <time>2022-10-15 17:04:09</time>
      </trkpt>
      <trkpt lat="38.27469" lon="-0.71688">
        <ele>112</ele>
        <time>2022-10-15 17:04:10</time>
      </trkpt>
      <trkpt lat="38.27465" lon="-0.7169">
        <ele>111.8</ele>
        <time>2022-10-15 17:04:11</time>
      </trkpt>
      <trkpt lat="38.27461" lon="-0.71693">
        <ele>111.8</ele>
        <time>2022-10-15 17:04:12</time>
      </trkpt>
      <trkpt lat="38.27459" lon="-0.71697">
        <ele>111.6</ele>
        <time>2022-10-15 17:04:13</time>
      </trkpt>
      <trkpt lat="38.27459" lon="-0.71697">
        <ele>111.6</ele>
        <time>2022-10-15 17:04:14</time>
      </trkpt>
      <trkpt lat="38.27452" lon="-0.71702">
        <ele>111.4</ele>
        <time>2022-10-15 17:04:15</time>
      </trkpt>
      <trkpt lat="38.27448" lon="-0.71702">
        <ele>111.4</ele>
        <time>2022-10-15 17:04:16</time>
      </trkpt>
      <trkpt lat="38.27445" lon="-0.717">
        <ele>111.4</ele>
        <time>2022-10-15 17:04:17</time>
      </trkpt>
      <trkpt lat="38.27442" lon="-0.71697">
        <ele>111.4</ele>
        <time>2022-10-15 17:04:18</time>
      </trkpt>
      <trkpt lat="38.27438" lon="-0.71696">
        <ele>111.2</ele>
        <time>2022-10-15 17:04:19</time>
      </trkpt>
      <trkpt lat="38.2743" lon="-0.71695">
        <ele>111.2</ele>
        <time>2022-10-15 17:04:21</time>
      </trkpt>
      <trkpt lat="38.27426" lon="-0.71696">
        <ele>111.2</ele>
        <time>2022-10-15 17:04:22</time>
      </trkpt>
      <trkpt lat="38.27422" lon="-0.71697">
        <ele>111.2</ele>
        <time>2022-10-15 17:04:23</time>
      </trkpt>
      <trkpt lat="38.27417" lon="-0.71698">
        <ele>111</ele>
        <time>2022-10-15 17:04:24</time>
      </trkpt>
      <trkpt lat="38.27413" lon="-0.71699">
        <ele>110.8</ele>
        <time>2022-10-15 17:04:25</time>
      </trkpt>
      <trkpt lat="38.27413" lon="-0.71699">
        <ele>110.8</ele>
        <time>2022-10-15 17:04:26</time>
      </trkpt>
      <trkpt lat="38.27405" lon="-0.717">
        <ele>110.8</ele>
        <time>2022-10-15 17:04:27</time>
      </trkpt>
      <trkpt lat="38.274" lon="-0.717">
        <ele>110.8</ele>
        <time>2022-10-15 17:04:28</time>
      </trkpt>
      <trkpt lat="38.27391" lon="-0.71701">
        <ele>110.6</ele>
        <time>2022-10-15 17:04:30</time>
      </trkpt>
      <trkpt lat="38.27386" lon="-0.71702">
        <ele>110.6</ele>
        <time>2022-10-15 17:04:31</time>
      </trkpt>
      <trkpt lat="38.27386" lon="-0.71702">
        <ele>110.4</ele>
        <time>2022-10-15 17:04:32</time>
      </trkpt>
      <trkpt lat="38.27375" lon="-0.71704">
        <ele>110.4</ele>
        <time>2022-10-15 17:04:33</time>
      </trkpt>
      <trkpt lat="38.2737" lon="-0.71704">
        <ele>110.4</ele>
        <time>2022-10-15 17:04:34</time>
      </trkpt>
      <trkpt lat="38.27364" lon="-0.71705">
        <ele>110.4</ele>
        <time>2022-10-15 17:04:35</time>
      </trkpt>
      <trkpt lat="38.27359" lon="-0.71705">
        <ele>110.2</ele>
        <time>2022-10-15 17:04:36</time>
      </trkpt>
      <trkpt lat="38.27354" lon="-0.71707">
        <ele>110</ele>
        <time>2022-10-15 17:04:37</time>
      </trkpt>
      <trkpt lat="38.27346" lon="-0.71714">
        <ele>109.6</ele>
        <time>2022-10-15 17:04:39</time>
      </trkpt>
      <trkpt lat="38.27342" lon="-0.71718">
        <ele>109.4</ele>
        <time>2022-10-15 17:04:40</time>
      </trkpt>
      <trkpt lat="38.27337" lon="-0.71719">
        <ele>109.4</ele>
        <time>2022-10-15 17:04:41</time>
      </trkpt>
      <trkpt lat="38.27332" lon="-0.71718">
        <ele>109.2</ele>
        <time>2022-10-15 17:04:42</time>
      </trkpt>
      <trkpt lat="38.27327" lon="-0.71716">
        <ele>109</ele>
        <time>2022-10-15 17:04:43</time>
      </trkpt>
      <trkpt lat="38.27327" lon="-0.71716">
        <ele>108.8</ele>
        <time>2022-10-15 17:04:44</time>
      </trkpt>
      <trkpt lat="38.27318" lon="-0.71714">
        <ele>108.6</ele>
        <time>2022-10-15 17:04:45</time>
      </trkpt>
      <trkpt lat="38.27313" lon="-0.71715">
        <ele>108.4</ele>
        <time>2022-10-15 17:04:46</time>
      </trkpt>
      <trkpt lat="38.27308" lon="-0.71716">
        <ele>108.4</ele>
        <time>2022-10-15 17:04:47</time>
      </trkpt>
      <trkpt lat="38.27302" lon="-0.71717">
        <ele>108.4</ele>
        <time>2022-10-15 17:04:48</time>
      </trkpt>
      <trkpt lat="38.27297" lon="-0.71718">
        <ele>108.2</ele>
        <time>2022-10-15 17:04:49</time>
      </trkpt>
      <trkpt lat="38.27297" lon="-0.71718">
        <ele>108.2</ele>
        <time>2022-10-15 17:04:50</time>
      </trkpt>
      <trkpt lat="38.27287" lon="-0.71721">
        <ele>108.2</ele>
        <time>2022-10-15 17:04:51</time>
      </trkpt>
      <trkpt lat="38.27282" lon="-0.71722">
        <ele>107.8</ele>
        <time>2022-10-15 17:04:52</time>
      </trkpt>
      <trkpt lat="38.27277" lon="-0.71723">
        <ele>107.6</ele>
        <time>2022-10-15 17:04:53</time>
      </trkpt>
      <trkpt lat="38.27272" lon="-0.71724">
        <ele>107.4</ele>
        <time>2022-10-15 17:04:54</time>
      </trkpt>
      <trkpt lat="38.27267" lon="-0.71725">
        <ele>107.2</ele>
        <time>2022-10-15 17:04:55</time>
      </trkpt>
      <trkpt lat="38.27267" lon="-0.71725">
        <ele>107.2</ele>
        <time>2022-10-15 17:04:56</time>
      </trkpt>
      <trkpt lat="38.27259" lon="-0.71729">
        <ele>107.2</ele>
        <time>2022-10-15 17:04:57</time>
      </trkpt>
      <trkpt lat="38.27256" lon="-0.71733">
        <ele>107.2</ele>
        <time>2022-10-15 17:04:58</time>
      </trkpt>
      <trkpt lat="38.27255" lon="-0.71735">
        <ele>107.2</ele>
        <time>2022-10-15 17:04:59</time>
      </trkpt>
      <trkpt lat="38.27254" lon="-0.71738">
        <ele>107.2</ele>
        <time>2022-10-15 17:05:00</time>
      </trkpt>
      <trkpt lat="38.27253" lon="-0.71739">
        <ele>107.2</ele>
        <time>2022-10-15 17:05:01</time>
      </trkpt>
      <trkpt lat="38.27253" lon="-0.71739">
        <ele>107.2</ele>
        <time>2022-10-15 17:05:02</time>
      </trkpt>
      <trkpt lat="38.27253" lon="-0.71739">
        <ele>107.2</ele>
        <time>2022-10-15 17:05:03</time>
      </trkpt>
    </trkseg>
  </trk>
</gpx>
